<?xml version='1.0' encoding='UTF-8'?><gpx version="1.1" creator="JPX - https://github.com/jenetics/jpx" xmlns="http://www.topografix.com/GPX/1/1"><trk><trkseg><trkpt lat="44.68818083864835" lon="8.804007382068919"><ele>231.0</ele><time>2026-05-01T08:49:18Z</time></trkpt><trkpt lat="44.688163418053925" lon="8.80413925950765"><ele>231.0</ele><time>2026-05-01T08:49:20Z</time></trkpt><trkpt lat="44.688147817697754" lon="8.804267567782778"><ele>231.0</ele><time>2026-05-01T08:49:22Z</time></trkpt><trkpt lat="44.68812801243986" lon="8.80437527571052"><ele>231.0</ele><time>2026-05-01T08:49:24Z</time></trkpt><trkpt lat="44.68812708430055" lon="8.804499760599024"><ele>231.0</ele><time>2026-05-01T08:49:27Z</time></trkpt><trkpt lat="44.68814766795177" lon="8.804624469251822"><ele>231.0</ele><time>2026-05-01T08:49:29Z</time></trkpt><trkpt lat="44.68815022462776" lon="8.804718221158003"><ele>230.83333333333334</ele><time>2026-05-01T08:49:31Z</time></trkpt><trkpt lat="44.688149069980405" lon="8.804853393511827"><ele>230.66666666666669</ele><time>2026-05-01T08:49:34Z</time></trkpt><trkpt lat="44.688166122902786" lon="8.804977352416532"><ele>230.5</ele><time>2026-05-01T08:49:36Z</time></trkpt><trkpt lat="44.68817755803607" lon="8.805066787448975"><ele>230.33333333333334</ele><time>2026-05-01T08:49:38Z</time></trkpt><trkpt lat="44.68818779689346" lon="8.805173130577986"><ele>230.16666666666669</ele><time>2026-05-01T08:49:41Z</time></trkpt><trkpt lat="44.68819473901559" lon="8.805262496370585"><ele>230.0</ele><time>2026-05-01T08:49:45Z</time></trkpt><trkpt lat="44.68821340147756" lon="8.805366306838673"><ele>229.83333333333334</ele><time>2026-05-01T08:49:54Z</time></trkpt><trkpt lat="44.68823422599711" lon="8.805463618053231"><ele>229.66666666666669</ele><time>2026-05-01T08:49:57Z</time></trkpt><trkpt lat="44.68822308950922" lon="8.805617782778727"><ele>229.5</ele><time>2026-05-01T08:50:00Z</time></trkpt><trkpt lat="44.6881549113289" lon="8.80574514063928"><ele>229.33333333333331</ele><time>2026-05-01T08:50:02Z</time></trkpt><trkpt lat="44.68812073934446" lon="8.805834295932467"><ele>229.16666666666666</ele><time>2026-05-01T08:50:03Z</time></trkpt><trkpt lat="44.688058815052266" lon="8.805903383776386"><ele>229.0</ele><time>2026-05-01T08:50:04Z</time></trkpt><trkpt lat="44.688027482518315" lon="8.806024644385193"><ele>229.6</ele><time>2026-05-01T08:50:05Z</time></trkpt><trkpt lat="44.68799658557583" lon="8.806143071245893"><ele>230.2</ele><time>2026-05-01T08:50:06Z</time></trkpt><trkpt lat="44.687962746080125" lon="8.806276760754018"><ele>230.79999999999998</ele><time>2026-05-01T08:50:07Z</time></trkpt><trkpt lat="44.68792759743055" lon="8.806414878345894"><ele>231.39999999999998</ele><time>2026-05-01T08:50:08Z</time></trkpt><trkpt lat="44.68789483099767" lon="8.806535230242849"><ele>232.0</ele><time>2026-05-01T08:50:09Z</time></trkpt><trkpt lat="44.68786406490244" lon="8.806648234851279"><ele>232.0</ele><time>2026-05-01T08:50:10Z</time></trkpt><trkpt lat="44.68784430517942" lon="8.806753625151392"><ele>232.0</ele><time>2026-05-01T08:50:11Z</time></trkpt><trkpt lat="44.68778345946089" lon="8.8068519605004"><ele>232.0</ele><time>2026-05-01T08:50:12Z</time></trkpt><trkpt lat="44.68769696885678" lon="8.806908810995983"><ele>232.0</ele><time>2026-05-01T08:50:13Z</time></trkpt><trkpt lat="44.68759513161391" lon="8.806926804057715"><ele>232.0</ele><time>2026-05-01T08:50:14Z</time></trkpt><trkpt lat="44.687476963560165" lon="8.8069079075118"><ele>230.75</ele><time>2026-05-01T08:50:15Z</time></trkpt><trkpt lat="44.687362519771476" lon="8.80686624740818"><ele>229.5</ele><time>2026-05-01T08:50:16Z</time></trkpt><trkpt lat="44.687239950757494" lon="8.8068227371713"><ele>228.25</ele><time>2026-05-01T08:50:17Z</time></trkpt><trkpt lat="44.687112731189316" lon="8.806765547982135"><ele>227.0</ele><time>2026-05-01T08:50:18Z</time></trkpt><trkpt lat="44.686989864498806" lon="8.806692951360358"><ele>224.5</ele><time>2026-05-01T08:50:19Z</time></trkpt><trkpt lat="44.68687566709691" lon="8.806605678408815"><ele>222.0</ele><time>2026-05-01T08:50:20Z</time></trkpt><trkpt lat="44.68677842469262" lon="8.806538467038852"><ele>219.5</ele><time>2026-05-01T08:50:21Z</time></trkpt><trkpt lat="44.68667638980808" lon="8.806510582321048"><ele>217.0</ele><time>2026-05-01T08:50:22Z</time></trkpt><trkpt lat="44.686562155806364" lon="8.80652143882979"><ele>217.0</ele><time>2026-05-01T08:50:23Z</time></trkpt><trkpt lat="44.68644863608906" lon="8.806548655577476"><ele>217.0</ele><time>2026-05-01T08:50:24Z</time></trkpt><trkpt lat="44.686325098939456" lon="8.806562424098406"><ele>217.0</ele><time>2026-05-01T08:50:25Z</time></trkpt><trkpt lat="44.68619887676026" lon="8.806565515180482"><ele>217.0</ele><time>2026-05-01T08:50:26Z</time></trkpt><trkpt lat="44.68606465108583" lon="8.806555995863732"><ele>217.5</ele><time>2026-05-01T08:50:27Z</time></trkpt><trkpt lat="44.685922924604455" lon="8.806554412786348"><ele>218.0</ele><time>2026-05-01T08:50:28Z</time></trkpt><trkpt lat="44.68578527888118" lon="8.806562898493176"><ele>218.5</ele><time>2026-05-01T08:50:29Z</time></trkpt><trkpt lat="44.68565055992413" lon="8.806594138524638"><ele>219.0</ele><time>2026-05-01T08:50:30Z</time></trkpt><trkpt lat="44.685519610256854" lon="8.806634940512426"><ele>219.0</ele><time>2026-05-01T08:50:31Z</time></trkpt><trkpt lat="44.68538890257889" lon="8.8066846792031"><ele>219.0</ele><time>2026-05-01T08:50:32Z</time></trkpt><trkpt lat="44.6852595530759" lon="8.806743061633362"><ele>219.0</ele><time>2026-05-01T08:50:33Z</time></trkpt><trkpt lat="44.68513261834683" lon="8.806806249169984"><ele>219.0</ele><time>2026-05-01T08:50:34Z</time></trkpt><trkpt lat="44.68500116404437" lon="8.806851689300775"><ele>219.25</ele><time>2026-05-01T08:50:35Z</time></trkpt><trkpt lat="44.684876365367735" lon="8.806907392922902"><ele>219.5</ele><time>2026-05-01T08:50:36Z</time></trkpt><trkpt lat="44.68476825476067" lon="8.80697593154561"><ele>219.75</ele><time>2026-05-01T08:50:37Z</time></trkpt><trkpt lat="44.68466360830524" lon="8.807045635995369"><ele>220.0</ele><time>2026-05-01T08:50:38Z</time></trkpt><trkpt lat="44.684559275633404" lon="8.807119496551806"><ele>220.0</ele><time>2026-05-01T08:50:39Z</time></trkpt><trkpt lat="44.68445138937407" lon="8.80718954371151"><ele>220.0</ele><time>2026-05-01T08:50:40Z</time></trkpt><trkpt lat="44.6843416401505" lon="8.80726783286636"><ele>220.0</ele><time>2026-05-01T08:50:41Z</time></trkpt><trkpt lat="44.684215196968466" lon="8.807335255324645"><ele>220.0</ele><time>2026-05-01T08:50:42Z</time></trkpt><trkpt lat="44.684082819050616" lon="8.807384715417646"><ele>220.0</ele><time>2026-05-01T08:50:43Z</time></trkpt><trkpt lat="44.683941645474604" lon="8.807410833550014"><ele>220.0</ele><time>2026-05-01T08:50:44Z</time></trkpt><trkpt lat="44.68379742886954" lon="8.807484543823165"><ele>220.0</ele><time>2026-05-01T08:50:45Z</time></trkpt><trkpt lat="44.683641410144475" lon="8.80753725288976"><ele>219.66666666666666</ele><time>2026-05-01T08:50:46Z</time></trkpt><trkpt lat="44.68347207429635" lon="8.807593536591868"><ele>219.33333333333331</ele><time>2026-05-01T08:50:47Z</time></trkpt><trkpt lat="44.68328628959631" lon="8.807655222604142"><ele>219.0</ele><time>2026-05-01T08:50:48Z</time></trkpt><trkpt lat="44.68309600800008" lon="8.80771210297602"><ele>219.66666666666669</ele><time>2026-05-01T08:50:49Z</time></trkpt><trkpt lat="44.68290935262259" lon="8.807767745002101"><ele>220.33333333333334</ele><time>2026-05-01T08:50:50Z</time></trkpt><trkpt lat="44.68273817284371" lon="8.80781362073202"><ele>221.0</ele><time>2026-05-01T08:50:51Z</time></trkpt><trkpt lat="44.68258141154339" lon="8.807869978599152"><ele>221.0</ele><time>2026-05-01T08:50:52Z</time></trkpt><trkpt lat="44.68242452631429" lon="8.80796024127571"><ele>221.0</ele><time>2026-05-01T08:50:53Z</time></trkpt><trkpt lat="44.68228236429108" lon="8.808102460885213"><ele>221.0</ele><time>2026-05-01T08:50:54Z</time></trkpt><trkpt lat="44.68215557927203" lon="8.808291615238609"><ele>220.66666666666669</ele><time>2026-05-01T08:50:55Z</time></trkpt><trkpt lat="44.68204793439766" lon="8.80851376402551"><ele>220.33333333333331</ele><time>2026-05-01T08:50:56Z</time></trkpt><trkpt lat="44.68192417610268" lon="8.808710243143906"><ele>220.0</ele><time>2026-05-01T08:50:57Z</time></trkpt><trkpt lat="44.68182191139261" lon="8.808929608261709"><ele>220.0</ele><time>2026-05-01T08:50:58Z</time></trkpt><trkpt lat="44.68170962211748" lon="8.809126156752711"><ele>220.0</ele><time>2026-05-01T08:50:59Z</time></trkpt><trkpt lat="44.68159332223107" lon="8.80932873713729"><ele>220.0</ele><time>2026-05-01T08:51:00Z</time></trkpt><trkpt lat="44.68146253453789" lon="8.809521413330566"><ele>220.0</ele><time>2026-05-01T08:51:01Z</time></trkpt><trkpt lat="44.6813470194783" lon="8.809729110773597"><ele>220.0</ele><time>2026-05-01T08:51:02Z</time></trkpt><trkpt lat="44.68124628939793" lon="8.809958833946443"><ele>220.0</ele><time>2026-05-01T08:51:03Z</time></trkpt><trkpt lat="44.681133860705906" lon="8.810173019692128"><ele>219.66666666666666</ele><time>2026-05-01T08:51:04Z</time></trkpt><trkpt lat="44.681020342926296" lon="8.810384652363895"><ele>219.33333333333331</ele><time>2026-05-01T08:51:05Z</time></trkpt><trkpt lat="44.68090820463175" lon="8.810585879153724"><ele>219.0</ele><time>2026-05-01T08:51:06Z</time></trkpt><trkpt lat="44.68080823115121" lon="8.810767126098717"><ele>219.0</ele><time>2026-05-01T08:51:07Z</time></trkpt><trkpt lat="44.68071514052768" lon="8.8109364019178"><ele>219.0</ele><time>2026-05-01T08:51:08Z</time></trkpt><trkpt lat="44.68063048382118" lon="8.811089209167227"><ele>219.0</ele><time>2026-05-01T08:51:09Z</time></trkpt><trkpt lat="44.68055316160687" lon="8.81121312111758"><ele>219.0</ele><time>2026-05-01T08:51:10Z</time></trkpt><trkpt lat="44.68047572707186" lon="8.811325918596346"><ele>219.66666666666666</ele><time>2026-05-01T08:51:11Z</time></trkpt><trkpt lat="44.680418031978576" lon="8.811447602742184"><ele>220.33333333333331</ele><time>2026-05-01T08:51:12Z</time></trkpt><trkpt lat="44.6803801087317" lon="8.811564430514006"><ele>221.0</ele><time>2026-05-01T08:51:13Z</time></trkpt><trkpt lat="44.68034413922356" lon="8.811666618043848"><ele>221.66666666666666</ele><time>2026-05-01T08:51:14Z</time></trkpt><trkpt lat="44.680298596019" lon="8.811757200276999"><ele>222.33333333333331</ele><time>2026-05-01T08:51:15Z</time></trkpt><trkpt lat="44.68025369390065" lon="8.811854293955959"><ele>223.0</ele><time>2026-05-01T08:51:16Z</time></trkpt><trkpt lat="44.680195642532325" lon="8.81197695931982"><ele>223.0</ele><time>2026-05-01T08:51:17Z</time></trkpt><trkpt lat="44.680115403578625" lon="8.812115889487783"><ele>223.0</ele><time>2026-05-01T08:51:18Z</time></trkpt><trkpt lat="44.680022026306276" lon="8.812262784701309"><ele>223.0</ele><time>2026-05-01T08:51:19Z</time></trkpt><trkpt lat="44.679946332913595" lon="8.812448229367439"><ele>223.0</ele><time>2026-05-01T08:51:20Z</time></trkpt><trkpt lat="44.67988848965158" lon="8.812639827915563"><ele>224.2</ele><time>2026-05-01T08:51:21Z</time></trkpt><trkpt lat="44.679846924711576" lon="8.8128077036969"><ele>225.4</ele><time>2026-05-01T08:51:22Z</time></trkpt><trkpt lat="44.6798158376625" lon="8.812946628750502"><ele>226.59999999999997</ele><time>2026-05-01T08:51:23Z</time></trkpt><trkpt lat="44.67976599327878" lon="8.81306179573955"><ele>227.79999999999998</ele><time>2026-05-01T08:51:24Z</time></trkpt><trkpt lat="44.679709631764155" lon="8.81316354060579"><ele>229.0</ele><time>2026-05-01T08:51:25Z</time></trkpt><trkpt lat="44.67962148169823" lon="8.813234364334187"><ele>229.0</ele><time>2026-05-01T08:51:26Z</time></trkpt><trkpt lat="44.679520802199896" lon="8.813321745519563"><ele>229.0</ele><time>2026-05-01T08:51:27Z</time></trkpt><trkpt lat="44.679418333589844" lon="8.813421309503642"><ele>229.0</ele><time>2026-05-01T08:51:28Z</time></trkpt><trkpt lat="44.67930049504398" lon="8.813519559088375"><ele>229.0</ele><time>2026-05-01T08:51:29Z</time></trkpt><trkpt lat="44.67918304902595" lon="8.813622683731111"><ele>227.5</ele><time>2026-05-01T08:51:30Z</time></trkpt><trkpt lat="44.67906881794862" lon="8.813723682147739"><ele>226.0</ele><time>2026-05-01T08:51:31Z</time></trkpt><trkpt lat="44.67895086338106" lon="8.81381695410357"><ele>224.5</ele><time>2026-05-01T08:51:32Z</time></trkpt><trkpt lat="44.678829433894066" lon="8.813920855877146"><ele>223.0</ele><time>2026-05-01T08:51:33Z</time></trkpt><trkpt lat="44.678703164421854" lon="8.814026239072936"><ele>222.75</ele><time>2026-05-01T08:51:34Z</time></trkpt><trkpt lat="44.67857611070081" lon="8.81410391182802"><ele>222.5</ele><time>2026-05-01T08:51:35Z</time></trkpt><trkpt lat="44.67843657629065" lon="8.814134114255081"><ele>222.25</ele><time>2026-05-01T08:51:36Z</time></trkpt><trkpt lat="44.67827968786297" lon="8.814112282107"><ele>222.0</ele><time>2026-05-01T08:51:37Z</time></trkpt><trkpt lat="44.67812690282786" lon="8.814057177230955"><ele>222.0</ele><time>2026-05-01T08:51:38Z</time></trkpt><trkpt lat="44.677986418833484" lon="8.814043126829947"><ele>222.0</ele><time>2026-05-01T08:51:39Z</time></trkpt><trkpt lat="44.677856482070766" lon="8.814097974275876"><ele>222.0</ele><time>2026-05-01T08:51:40Z</time></trkpt><trkpt lat="44.67771773288916" lon="8.814212915848735"><ele>222.0</ele><time>2026-05-01T08:51:41Z</time></trkpt><trkpt lat="44.67756658675374" lon="8.814376490099697"><ele>222.66666666666669</ele><time>2026-05-01T08:51:42Z</time></trkpt><trkpt lat="44.67739494428308" lon="8.814547634306823"><ele>223.33333333333334</ele><time>2026-05-01T08:51:43Z</time></trkpt><trkpt lat="44.67721253965843" lon="8.814738148496385"><ele>224.0</ele><time>2026-05-01T08:51:44Z</time></trkpt><trkpt lat="44.67701474988896" lon="8.814947267608689"><ele>224.5</ele><time>2026-05-01T08:51:45Z</time></trkpt><trkpt lat="44.676819973279045" lon="8.815152838753944"><ele>225.0</ele><time>2026-05-01T08:51:46Z</time></trkpt><trkpt lat="44.67661556511797" lon="8.815368342499678"><ele>225.0</ele><time>2026-05-01T08:51:47Z</time></trkpt><trkpt lat="44.67640464986424" lon="8.815590057094743"><ele>225.0</ele><time>2026-05-01T08:51:48Z</time></trkpt><trkpt lat="44.67620579372883" lon="8.815827940492984"><ele>229.0</ele><time>2026-05-01T08:51:49Z</time></trkpt><trkpt lat="44.67599325397905" lon="8.816029049690043"><ele>233.0</ele><time>2026-05-01T08:51:50Z</time></trkpt><trkpt lat="44.675800445713016" lon="8.816257298072243"><ele>233.0</ele><time>2026-05-01T08:51:51Z</time></trkpt><trkpt lat="44.67563031155153" lon="8.81647784545721"><ele>233.0</ele><time>2026-05-01T08:51:52Z</time></trkpt><trkpt lat="44.675480986940116" lon="8.816684454105078"><ele>233.0</ele><time>2026-05-01T08:51:53Z</time></trkpt><trkpt lat="44.67535281815834" lon="8.81690922580789"><ele>234.0</ele><time>2026-05-01T08:51:54Z</time></trkpt><trkpt lat="44.67521186979812" lon="8.81713100934787"><ele>235.0</ele><time>2026-05-01T08:51:55Z</time></trkpt><trkpt lat="44.67507043267722" lon="8.817361200505507"><ele>236.0</ele><time>2026-05-01T08:51:56Z</time></trkpt><trkpt lat="44.674924114889315" lon="8.817595994485286"><ele>237.0</ele><time>2026-05-01T08:51:57Z</time></trkpt><trkpt lat="44.67477688495825" lon="8.81783117232622"><ele>238.0</ele><time>2026-05-01T08:51:58Z</time></trkpt><trkpt lat="44.674616900198636" lon="8.818049152501148"><ele>239.0</ele><time>2026-05-01T08:51:59Z</time></trkpt><trkpt lat="44.674477439976606" lon="8.818290769443859"><ele>237.66666666666669</ele><time>2026-05-01T08:52:00Z</time></trkpt><trkpt lat="44.67431624310957" lon="8.818498775330252"><ele>236.33333333333331</ele><time>2026-05-01T08:52:01Z</time></trkpt><trkpt lat="44.67413038469681" lon="8.818668581529185"><ele>235.0</ele><time>2026-05-01T08:52:02Z</time></trkpt><trkpt lat="44.673940007044386" lon="8.818836512535624"><ele>235.0</ele><time>2026-05-01T08:52:03Z</time></trkpt><trkpt lat="44.67374672988828" lon="8.819008573868395"><ele>235.0</ele><time>2026-05-01T08:52:04Z</time></trkpt><trkpt lat="44.673527968340046" lon="8.819114481001828"><ele>237.5</ele><time>2026-05-01T08:52:05Z</time></trkpt><trkpt lat="44.673311857658824" lon="8.81920330252246"><ele>240.0</ele><time>2026-05-01T08:52:06Z</time></trkpt><trkpt lat="44.67308893114547" lon="8.819279310982873"><ele>239.5</ele><time>2026-05-01T08:52:07Z</time></trkpt><trkpt lat="44.67286711767059" lon="8.819370265255893"><ele>239.0</ele><time>2026-05-01T08:52:08Z</time></trkpt><trkpt lat="44.67264019306432" lon="8.819426435126207"><ele>239.0</ele><time>2026-05-01T08:52:09Z</time></trkpt><trkpt lat="44.67240974264748" lon="8.819488796981197"><ele>239.0</ele><time>2026-05-01T08:52:10Z</time></trkpt><trkpt lat="44.67217864489786" lon="8.819557947917454"><ele>239.0</ele><time>2026-05-01T08:52:11Z</time></trkpt><trkpt lat="44.67194689070908" lon="8.819629224391853"><ele>239.0</ele><time>2026-05-01T08:52:12Z</time></trkpt><trkpt lat="44.671714653056945" lon="8.819702517226627"><ele>241.0</ele><time>2026-05-01T08:52:13Z</time></trkpt><trkpt lat="44.671480220639666" lon="8.81977222267051"><ele>243.0</ele><time>2026-05-01T08:52:14Z</time></trkpt><trkpt lat="44.6712450113825" lon="8.819842480743095"><ele>247.0</ele><time>2026-05-01T08:52:15Z</time></trkpt><trkpt lat="44.671009055753856" lon="8.819913121508206"><ele>251.0</ele><time>2026-05-01T08:52:16Z</time></trkpt><trkpt lat="44.67077634926761" lon="8.819983728976126"><ele>251.0</ele><time>2026-05-01T08:52:17Z</time></trkpt><trkpt lat="44.67054255813919" lon="8.82005137886994"><ele>251.0</ele><time>2026-05-01T08:52:18Z</time></trkpt><trkpt lat="44.670308815556936" lon="8.820119086464612"><ele>250.0</ele><time>2026-05-01T08:52:19Z</time></trkpt><trkpt lat="44.67007530442893" lon="8.820187196569377"><ele>249.0</ele><time>2026-05-01T08:52:20Z</time></trkpt><trkpt lat="44.6698451549705" lon="8.820252324769804"><ele>249.0</ele><time>2026-05-01T08:52:21Z</time></trkpt><trkpt lat="44.66961582986656" lon="8.820317838025176"><ele>249.0</ele><time>2026-05-01T08:52:22Z</time></trkpt><trkpt lat="44.669392041050045" lon="8.820403178719673"><ele>249.5</ele><time>2026-05-01T08:52:23Z</time></trkpt><trkpt lat="44.6691775186481" lon="8.820521738913152"><ele>250.0</ele><time>2026-05-01T08:52:23.999Z</time></trkpt><trkpt lat="44.668971352567176" lon="8.820671350275854"><ele>250.0</ele><time>2026-05-01T08:52:24.999Z</time></trkpt><trkpt lat="44.668770153649625" lon="8.82082826983201"><ele>250.0</ele><time>2026-05-01T08:52:25.999Z</time></trkpt><trkpt lat="44.66857445683464" lon="8.820995868097041"><ele>250.5</ele><time>2026-05-01T08:52:26.999Z</time></trkpt><trkpt lat="44.66837161907337" lon="8.82115641510756"><ele>251.0</ele><time>2026-05-01T08:52:27.999Z</time></trkpt><trkpt lat="44.66816986704634" lon="8.821325046524493"><ele>251.0</ele><time>2026-05-01T08:52:28.999Z</time></trkpt><trkpt lat="44.66800633380099" lon="8.82158261495209"><ele>251.0</ele><time>2026-05-01T08:52:29.999Z</time></trkpt><trkpt lat="44.667805975898176" lon="8.821747608671098"><ele>252.0</ele><time>2026-05-01T08:52:30.999Z</time></trkpt><trkpt lat="44.66760699559153" lon="8.821892771810276"><ele>253.0</ele><time>2026-05-01T08:52:31.999Z</time></trkpt><trkpt lat="44.66741494015945" lon="8.822039983719568"><ele>254.0</ele><time>2026-05-01T08:52:32.999Z</time></trkpt><trkpt lat="44.667232482217685" lon="8.822195698189185"><ele>254.0</ele><time>2026-05-01T08:52:33.999Z</time></trkpt><trkpt lat="44.667059450787576" lon="8.822349017275043"><ele>254.0</ele><time>2026-05-01T08:52:34.999Z</time></trkpt><trkpt lat="44.66690377795174" lon="8.822494313711857"><ele>254.0</ele><time>2026-05-01T08:52:35.999Z</time></trkpt><trkpt lat="44.6667558702302" lon="8.822643275496393"><ele>254.66666666666669</ele><time>2026-05-01T08:52:36.999Z</time></trkpt><trkpt lat="44.66661207253974" lon="8.82279794497769"><ele>255.33333333333331</ele><time>2026-05-01T08:52:37.999Z</time></trkpt><trkpt lat="44.66648480192822" lon="8.82295283008556"><ele>256.0</ele><time>2026-05-01T08:52:38.999Z</time></trkpt><trkpt lat="44.666366719520504" lon="8.823122583016426"><ele>256.0</ele><time>2026-05-01T08:52:39.999Z</time></trkpt><trkpt lat="44.66625823973569" lon="8.823297935359744"><ele>256.0</ele><time>2026-05-01T08:52:40.999Z</time></trkpt><trkpt lat="44.66614570641071" lon="8.82347227656546"><ele>256.0</ele><time>2026-05-01T08:52:41.999Z</time></trkpt><trkpt lat="44.66601879281776" lon="8.823629808485535"><ele>255.33333333333331</ele><time>2026-05-01T08:52:42.999Z</time></trkpt><trkpt lat="44.665873001052496" lon="8.82376702967473"><ele>254.66666666666669</ele><time>2026-05-01T08:52:43.999Z</time></trkpt><trkpt lat="44.66571675526347" lon="8.82389118008792"><ele>254.0</ele><time>2026-05-01T08:52:44.999Z</time></trkpt><trkpt lat="44.665551252351136" lon="8.824015134600499"><ele>254.0</ele><time>2026-05-01T08:52:45.999Z</time></trkpt><trkpt lat="44.665386853900216" lon="8.824144067147062"><ele>254.0</ele><time>2026-05-01T08:52:46.999Z</time></trkpt><trkpt lat="44.66522449122576" lon="8.824269985852455"><ele>254.0</ele><time>2026-05-01T08:52:47.999Z</time></trkpt><trkpt lat="44.66505961206682" lon="8.824391089439823"><ele>255.33333333333334</ele><time>2026-05-01T08:52:49Z</time></trkpt><trkpt lat="44.664893620064" lon="8.824507721696685"><ele>256.6666666666667</ele><time>2026-05-01T08:52:50Z</time></trkpt><trkpt lat="44.6647294350584" lon="8.824616414640822"><ele>258.0</ele><time>2026-05-01T08:52:51Z</time></trkpt><trkpt lat="44.66456349107295" lon="8.824723554628232"><ele>259.3333333333333</ele><time>2026-05-01T08:52:52Z</time></trkpt><trkpt lat="44.66439829748285" lon="8.824827296549064"><ele>260.66666666666663</ele><time>2026-05-01T08:52:53Z</time></trkpt><trkpt lat="44.66423497889678" lon="8.824932566363051"><ele>262.0</ele><time>2026-05-01T08:52:54Z</time></trkpt><trkpt lat="44.66407181017372" lon="8.825036508538036"><ele>262.0</ele><time>2026-05-01T08:52:55Z</time></trkpt><trkpt lat="44.66390977640678" lon="8.825139706436536"><ele>262.0</ele><time>2026-05-01T08:52:56Z</time></trkpt><trkpt lat="44.663751081662824" lon="8.825241374409567"><ele>262.0</ele><time>2026-05-01T08:52:57Z</time></trkpt><trkpt lat="44.66359446330418" lon="8.825340235257904"><ele>259.3333333333333</ele><time>2026-05-01T08:52:58Z</time></trkpt><trkpt lat="44.6634409990754" lon="8.825433944897307"><ele>256.6666666666667</ele><time>2026-05-01T08:52:59Z</time></trkpt><trkpt lat="44.66328874250182" lon="8.825529238564586"><ele>254.0</ele><time>2026-05-01T08:53:00Z</time></trkpt><trkpt lat="44.66313680230528" lon="8.825629471262426"><ele>254.0</ele><time>2026-05-01T08:53:01Z</time></trkpt><trkpt lat="44.66299054295208" lon="8.825736876916967"><ele>254.0</ele><time>2026-05-01T08:53:02Z</time></trkpt><trkpt lat="44.662857141646995" lon="8.825864190004404"><ele>254.0</ele><time>2026-05-01T08:53:03Z</time></trkpt><trkpt lat="44.662725186552855" lon="8.826030651223943"><ele>252.0</ele><time>2026-05-01T08:53:04Z</time></trkpt><trkpt lat="44.66259544067979" lon="8.826220957790241"><ele>250.0</ele><time>2026-05-01T08:53:05Z</time></trkpt><trkpt lat="44.66247904386964" lon="8.826437624728612"><ele>248.0</ele><time>2026-05-01T08:53:06Z</time></trkpt><trkpt lat="44.662374470909235" lon="8.826678033638041"><ele>247.0</ele><time>2026-05-01T08:53:07Z</time></trkpt><trkpt lat="44.66227810583821" lon="8.826916454303467"><ele>246.0</ele><time>2026-05-01T08:53:08Z</time></trkpt><trkpt lat="44.662190728388865" lon="8.827148942967789"><ele>245.0</ele><time>2026-05-01T08:53:09Z</time></trkpt><trkpt lat="44.66210494792654" lon="8.827368777781208"><ele>245.0</ele><time>2026-05-01T08:53:10Z</time></trkpt><trkpt lat="44.6620214221663" lon="8.827583007796871"><ele>245.0</ele><time>2026-05-01T08:53:11Z</time></trkpt><trkpt lat="44.661937004371445" lon="8.827796511935695"><ele>245.0</ele><time>2026-05-01T08:53:12Z</time></trkpt><trkpt lat="44.661854854205394" lon="8.82800422884157"><ele>246.66666666666669</ele><time>2026-05-01T08:53:13Z</time></trkpt><trkpt lat="44.66177067895686" lon="8.828203890717077"><ele>248.33333333333331</ele><time>2026-05-01T08:53:14Z</time></trkpt><trkpt lat="44.6616955068315" lon="8.828389583467432"><ele>250.0</ele><time>2026-05-01T08:53:15Z</time></trkpt><trkpt lat="44.66162377196242" lon="8.828564028280809"><ele>250.5</ele><time>2026-05-01T08:53:16Z</time></trkpt><trkpt lat="44.66155819456734" lon="8.82873257607913"><ele>251.0</ele><time>2026-05-01T08:53:17Z</time></trkpt><trkpt lat="44.66149070315788" lon="8.828909760907626"><ele>251.5</ele><time>2026-05-01T08:53:18Z</time></trkpt><trkpt lat="44.66141488688186" lon="8.829099948467562"><ele>252.0</ele><time>2026-05-01T08:53:19Z</time></trkpt><trkpt lat="44.66133512073605" lon="8.829299889906878"><ele>252.0</ele><time>2026-05-01T08:53:20Z</time></trkpt><trkpt lat="44.66124743869308" lon="8.829506879349381"><ele>252.0</ele><time>2026-05-01T08:53:21Z</time></trkpt><trkpt lat="44.661133258752834" lon="8.82970637675328"><ele>252.0</ele><time>2026-05-01T08:53:22Z</time></trkpt><trkpt lat="44.66099416957201" lon="8.829887291957158"><ele>252.0</ele><time>2026-05-01T08:53:23Z</time></trkpt><trkpt lat="44.66085633076659" lon="8.830045316188732"><ele>252.0</ele><time>2026-05-01T08:53:24Z</time></trkpt><trkpt lat="44.6607261379534" lon="8.830206060371344"><ele>252.0</ele><time>2026-05-01T08:53:25Z</time></trkpt><trkpt lat="44.66058832048087" lon="8.830384226600684"><ele>251.66666666666669</ele><time>2026-05-01T08:53:26Z</time></trkpt><trkpt lat="44.66043763211191" lon="8.83057687455978"><ele>251.33333333333334</ele><time>2026-05-01T08:53:27Z</time></trkpt><trkpt lat="44.6602737967845" lon="8.83076612451856"><ele>251.0</ele><time>2026-05-01T08:53:28Z</time></trkpt><trkpt lat="44.66010981470165" lon="8.830949352829741"><ele>253.33333333333334</ele><time>2026-05-01T08:53:29Z</time></trkpt><trkpt lat="44.659959616610806" lon="8.831123225286076"><ele>255.66666666666669</ele><time>2026-05-01T08:53:30Z</time></trkpt><trkpt lat="44.659825013865685" lon="8.831281815869781"><ele>258.0</ele><time>2026-05-01T08:53:31Z</time></trkpt><trkpt lat="44.65969236423905" lon="8.831416424238958"><ele>258.0</ele><time>2026-05-01T08:53:32Z</time></trkpt><trkpt lat="44.65955947594961" lon="8.83150371601702"><ele>258.0</ele><time>2026-05-01T08:53:33Z</time></trkpt><trkpt lat="44.65942461090906" lon="8.831510929362482"><ele>258.0</ele><time>2026-05-01T08:53:34Z</time></trkpt><trkpt lat="44.65929520361683" lon="8.831480841029272"><ele>258.0</ele><time>2026-05-01T08:53:35Z</time></trkpt><trkpt lat="44.65917259454623" lon="8.831410313029703"><ele>259.5</ele><time>2026-05-01T08:53:36Z</time></trkpt><trkpt lat="44.659046255906105" lon="8.83131064883256"><ele>261.0</ele><time>2026-05-01T08:53:37Z</time></trkpt><trkpt lat="44.658921755571136" lon="8.83119891426151"><ele>262.5</ele><time>2026-05-01T08:53:38Z</time></trkpt><trkpt lat="44.65879098692639" lon="8.83109102351179"><ele>264.0</ele><time>2026-05-01T08:53:39Z</time></trkpt><trkpt lat="44.658665612424265" lon="8.83099867264993"><ele>266.0</ele><time>2026-05-01T08:53:40Z</time></trkpt><trkpt lat="44.65853544447117" lon="8.830910724957164"><ele>268.0</ele><time>2026-05-01T08:53:41Z</time></trkpt><trkpt lat="44.65840366784667" lon="8.830826952149907"><ele>270.0</ele><time>2026-05-01T08:53:42Z</time></trkpt><trkpt lat="44.658263910956165" lon="8.830760519261517"><ele>272.0</ele><time>2026-05-01T08:53:43Z</time></trkpt><trkpt lat="44.658116901115086" lon="8.83070077361208"><ele>272.0</ele><time>2026-05-01T08:53:44Z</time></trkpt><trkpt lat="44.65798006002946" lon="8.830652001996894"><ele>272.0</ele><time>2026-05-01T08:53:45Z</time></trkpt><trkpt lat="44.65784700849766" lon="8.83059851959876"><ele>272.0</ele><time>2026-05-01T08:53:46Z</time></trkpt><trkpt lat="44.65772009521355" lon="8.830534666184361"><ele>272.0</ele><time>2026-05-01T08:53:47Z</time></trkpt><trkpt lat="44.65760212007525" lon="8.830479681985969"><ele>273.0</ele><time>2026-05-01T08:53:48Z</time></trkpt><trkpt lat="44.657494521672305" lon="8.830439107073888"><ele>274.0</ele><time>2026-05-01T08:53:49Z</time></trkpt><trkpt lat="44.657392280624315" lon="8.830399903083936"><ele>275.0</ele><time>2026-05-01T08:53:50Z</time></trkpt><trkpt lat="44.65730311894771" lon="8.830348240198973"><ele>276.0</ele><time>2026-05-01T08:53:51Z</time></trkpt><trkpt lat="44.657196402854595" lon="8.830312981703491"><ele>277.0</ele><time>2026-05-01T08:53:52Z</time></trkpt><trkpt lat="44.65708093483018" lon="8.830285049042283"><ele>276.75</ele><time>2026-05-01T08:53:53Z</time></trkpt><trkpt lat="44.6569390038593" lon="8.830298124418345"><ele>276.5</ele><time>2026-05-01T08:53:54Z</time></trkpt><trkpt lat="44.65679598429427" lon="8.830318272585304"><ele>276.25</ele><time>2026-05-01T08:53:55Z</time></trkpt><trkpt lat="44.65665092011463" lon="8.830342351771147"><ele>276.0</ele><time>2026-05-01T08:53:56Z</time></trkpt><trkpt lat="44.65649889473123" lon="8.83036026517325"><ele>276.0</ele><time>2026-05-01T08:53:57Z</time></trkpt><trkpt lat="44.656342295411015" lon="8.83038140497099"><ele>276.0</ele><time>2026-05-01T08:53:58Z</time></trkpt><trkpt lat="44.65617958690832" lon="8.830405205966368"><ele>276.0</ele><time>2026-05-01T08:53:59Z</time></trkpt><trkpt lat="44.656020735168696" lon="8.830426618796364"><ele>276.3333333333333</ele><time>2026-05-01T08:54:00Z</time></trkpt><trkpt lat="44.65586504577368" lon="8.830441474031975"><ele>276.66666666666663</ele><time>2026-05-01T08:54:01Z</time></trkpt><trkpt lat="44.65571080273457" lon="8.830453134227211"><ele>277.0</ele><time>2026-05-01T08:54:02Z</time></trkpt><trkpt lat="44.65555590885959" lon="8.830461984372606"><ele>277.0</ele><time>2026-05-01T08:54:03Z</time></trkpt><trkpt lat="44.65540053233427" lon="8.83046586226655"><ele>277.0</ele><time>2026-05-01T08:54:04Z</time></trkpt><trkpt lat="44.65524074487511" lon="8.83046446569989"><ele>277.0</ele><time>2026-05-01T08:54:05Z</time></trkpt><trkpt lat="44.65508543926409" lon="8.83046154981333"><ele>277.0</ele><time>2026-05-01T08:54:06Z</time></trkpt><trkpt lat="44.65493140710375" lon="8.830463968726207"><ele>277.0</ele><time>2026-05-01T08:54:07Z</time></trkpt><trkpt lat="44.6547714164987" lon="8.83046812307175"><ele>277.0</ele><time>2026-05-01T08:54:08Z</time></trkpt><trkpt lat="44.654603945472466" lon="8.830471831364772"><ele>278.3333333333333</ele><time>2026-05-01T08:54:09Z</time></trkpt><trkpt lat="44.65443519458848" lon="8.830480013653771"><ele>279.6666666666667</ele><time>2026-05-01T08:54:10Z</time></trkpt><trkpt lat="44.65426247233797" lon="8.830489742424604"><ele>281.0</ele><time>2026-05-01T08:54:11Z</time></trkpt><trkpt lat="44.65408952508148" lon="8.83049527368613"><ele>281.0</ele><time>2026-05-01T08:54:12Z</time></trkpt><trkpt lat="44.653922713894744" lon="8.830506278405359"><ele>281.0</ele><time>2026-05-01T08:54:13Z</time></trkpt><trkpt lat="44.65375605091893" lon="8.830494462425689"><ele>281.0</ele><time>2026-05-01T08:54:14Z</time></trkpt><trkpt lat="44.65359352025108" lon="8.830499174445487"><ele>280.0</ele><time>2026-05-01T08:54:15Z</time></trkpt><trkpt lat="44.65343538420858" lon="8.830522534953065"><ele>279.0</ele><time>2026-05-01T08:54:16Z</time></trkpt><trkpt lat="44.65327695478241" lon="8.830512088696635"><ele>278.0</ele><time>2026-05-01T08:54:17Z</time></trkpt><trkpt lat="44.653112870761596" lon="8.830486167573191"><ele>278.0</ele><time>2026-05-01T08:54:18Z</time></trkpt><trkpt lat="44.652966653146535" lon="8.83041761746964"><ele>278.0</ele><time>2026-05-01T08:54:19Z</time></trkpt><trkpt lat="44.65283641897507" lon="8.830327119376976"><ele>278.0</ele><time>2026-05-01T08:54:20Z</time></trkpt><trkpt lat="44.65270673644607" lon="8.830277687116638"><ele>278.0</ele><time>2026-05-01T08:54:21Z</time></trkpt><trkpt lat="44.65255957826886" lon="8.830279476473365"><ele>276.5</ele><time>2026-05-01T08:54:22Z</time></trkpt><trkpt lat="44.652411582810636" lon="8.83031922808446"><ele>275.0</ele><time>2026-05-01T08:54:23Z</time></trkpt><trkpt lat="44.65226340714893" lon="8.83036165051813"><ele>273.5</ele><time>2026-05-01T08:54:24Z</time></trkpt><trkpt lat="44.6521244302349" lon="8.830386528446155"><ele>272.0</ele><time>2026-05-01T08:54:25Z</time></trkpt><trkpt lat="44.651982396840225" lon="8.830443915035875"><ele>273.25</ele><time>2026-05-01T08:54:26Z</time></trkpt><trkpt lat="44.651855627949296" lon="8.83053113153417"><ele>274.5</ele><time>2026-05-01T08:54:27Z</time></trkpt><trkpt lat="44.65173728668069" lon="8.830617947043763"><ele>275.75</ele><time>2026-05-01T08:54:28Z</time></trkpt><trkpt lat="44.65161525535967" lon="8.830676257011728"><ele>277.0</ele><time>2026-05-01T08:54:29Z</time></trkpt><trkpt lat="44.651500905047364" lon="8.830785065008737"><ele>277.0</ele><time>2026-05-01T08:54:29.999Z</time></trkpt><trkpt lat="44.651385206948476" lon="8.830877461457824"><ele>277.0</ele><time>2026-05-01T08:54:30.999Z</time></trkpt><trkpt lat="44.65127739572118" lon="8.830982864940992"><ele>277.0</ele><time>2026-05-01T08:54:31.999Z</time></trkpt><trkpt lat="44.65117719230808" lon="8.831086240279655"><ele>277.0</ele><time>2026-05-01T08:54:32.999Z</time></trkpt><trkpt lat="44.651063654258" lon="8.8311845734455"><ele>275.5</ele><time>2026-05-01T08:54:33.999Z</time></trkpt><trkpt lat="44.650939830572696" lon="8.831274056566485"><ele>274.0</ele><time>2026-05-01T08:54:34.999Z</time></trkpt><trkpt lat="44.65080860153706" lon="8.83136051016253"><ele>272.5</ele><time>2026-05-01T08:54:35.999Z</time></trkpt><trkpt lat="44.65066790844934" lon="8.831439391698655"><ele>271.0</ele><time>2026-05-01T08:54:36.999Z</time></trkpt><trkpt lat="44.650517271129296" lon="8.831518589219884"><ele>271.0</ele><time>2026-05-01T08:54:37.999Z</time></trkpt><trkpt lat="44.65037447733413" lon="8.831592640764391"><ele>271.0</ele><time>2026-05-01T08:54:38.999Z</time></trkpt><trkpt lat="44.65024189197177" lon="8.831663699300131"><ele>271.0</ele><time>2026-05-01T08:54:39.999Z</time></trkpt><trkpt lat="44.65011452811815" lon="8.83173644810643"><ele>271.0</ele><time>2026-05-01T08:54:40.999Z</time></trkpt><trkpt lat="44.649984945564675" lon="8.831812394202563"><ele>270.25</ele><time>2026-05-01T08:54:41.999Z</time></trkpt><trkpt lat="44.64985373367765" lon="8.83189330406585"><ele>269.5</ele><time>2026-05-01T08:54:42.999Z</time></trkpt><trkpt lat="44.64972349740501" lon="8.831976323957324"><ele>268.75</ele><time>2026-05-01T08:54:43.999Z</time></trkpt><trkpt lat="44.6496002789147" lon="8.832057993534656"><ele>268.0</ele><time>2026-05-01T08:54:44.999Z</time></trkpt><trkpt lat="44.64949246257449" lon="8.832136951212386"><ele>270.0</ele><time>2026-05-01T08:54:45.999Z</time></trkpt><trkpt lat="44.64938916313635" lon="8.832214087581939"><ele>272.0</ele><time>2026-05-01T08:54:46.999Z</time></trkpt><trkpt lat="44.649291621956436" lon="8.832282665613372"><ele>274.0</ele><time>2026-05-01T08:54:47.999Z</time></trkpt><trkpt lat="44.64919656645189" lon="8.832316657107008"><ele>276.0</ele><time>2026-05-01T08:54:48.999Z</time></trkpt><trkpt lat="44.64908937218921" lon="8.832291005701014"><ele>278.0</ele><time>2026-05-01T08:54:49.999Z</time></trkpt><trkpt lat="44.64899812754107" lon="8.832244066738177"><ele>278.0</ele><time>2026-05-01T08:54:50.999Z</time></trkpt><trkpt lat="44.64891287013411" lon="8.832160953496107"><ele>278.0</ele><time>2026-05-01T08:54:51.999Z</time></trkpt><trkpt lat="44.64884531022506" lon="8.832040190759228"><ele>278.0</ele><time>2026-05-01T08:54:53Z</time></trkpt><trkpt lat="44.64879173631979" lon="8.831906770824576"><ele>278.0</ele><time>2026-05-01T08:54:54Z</time></trkpt><trkpt lat="44.64873176104192" lon="8.831779310472164"><ele>278.0</ele><time>2026-05-01T08:54:55Z</time></trkpt><trkpt lat="44.648653314182084" lon="8.831674475920464"><ele>279.0</ele><time>2026-05-01T08:54:56Z</time></trkpt><trkpt lat="44.64855892982094" lon="8.83158695288543"><ele>280.0</ele><time>2026-05-01T08:54:57Z</time></trkpt><trkpt lat="44.64844267198408" lon="8.831529244199555"><ele>281.0</ele><time>2026-05-01T08:54:58Z</time></trkpt><trkpt lat="44.64830426795391" lon="8.831503317584422"><ele>282.0</ele><time>2026-05-01T08:54:59Z</time></trkpt><trkpt lat="44.648157166199745" lon="8.831482260621044"><ele>282.0</ele><time>2026-05-01T08:55:00Z</time></trkpt><trkpt lat="44.6479920633753" lon="8.831465664735223"><ele>282.0</ele><time>2026-05-01T08:55:01Z</time></trkpt><trkpt lat="44.64779604128629" lon="8.831436181465909"><ele>282.0</ele><time>2026-05-01T08:55:02Z</time></trkpt><trkpt lat="44.64758223661348" lon="8.831427596729531"><ele>277.0</ele><time>2026-05-01T08:55:03Z</time></trkpt><trkpt lat="44.647349953545486" lon="8.831489548386338"><ele>272.0</ele><time>2026-05-01T08:55:04Z</time></trkpt><trkpt lat="44.647112340217184" lon="8.831599949865884"><ele>271.0</ele><time>2026-05-01T08:55:05Z</time></trkpt><trkpt lat="44.64689314015478" lon="8.83171662381954"><ele>270.0</ele><time>2026-05-01T08:55:06Z</time></trkpt><trkpt lat="44.64668702215382" lon="8.831831053642608"><ele>270.0</ele><time>2026-05-01T08:55:07Z</time></trkpt><trkpt lat="44.646487223367835" lon="8.831904638073542"><ele>270.0</ele><time>2026-05-01T08:55:08Z</time></trkpt><trkpt lat="44.64628183760123" lon="8.831918704124"><ele>270.0</ele><time>2026-05-01T08:55:09Z</time></trkpt><trkpt lat="44.64605890973058" lon="8.831967244394072"><ele>272.6666666666667</ele><time>2026-05-01T08:55:10Z</time></trkpt><trkpt lat="44.64584627263152" lon="8.83206612956361"><ele>275.33333333333337</ele><time>2026-05-01T08:55:11Z</time></trkpt><trkpt lat="44.64565766565045" lon="8.832141415663695"><ele>278.0</ele><time>2026-05-01T08:55:12Z</time></trkpt><trkpt lat="44.64548439033533" lon="8.832206557687053"><ele>279.0</ele><time>2026-05-01T08:55:13Z</time></trkpt><trkpt lat="44.64529268470487" lon="8.832307449462606"><ele>280.0</ele><time>2026-05-01T08:55:14Z</time></trkpt><trkpt lat="44.64508981131542" lon="8.832435231364702"><ele>281.0</ele><time>2026-05-01T08:55:15Z</time></trkpt><trkpt lat="44.644895033005874" lon="8.832575816592584"><ele>281.33333333333337</ele><time>2026-05-01T08:55:16Z</time></trkpt><trkpt lat="44.644725435257556" lon="8.832702113115868"><ele>281.6666666666667</ele><time>2026-05-01T08:55:17Z</time></trkpt><trkpt lat="44.644570869136444" lon="8.832797739224949"><ele>282.0</ele><time>2026-05-01T08:55:18Z</time></trkpt><trkpt lat="44.64442377414468" lon="8.832874264009774"><ele>283.5</ele><time>2026-05-01T08:55:19Z</time></trkpt><trkpt lat="44.64428978200046" lon="8.832922040224165"><ele>285.0</ele><time>2026-05-01T08:55:20Z</time></trkpt><trkpt lat="44.644166077901644" lon="8.832958388893589"><ele>286.5</ele><time>2026-05-01T08:55:21Z</time></trkpt><trkpt lat="44.644045608770575" lon="8.833005944489711"><ele>288.0</ele><time>2026-05-01T08:55:22Z</time></trkpt><trkpt lat="44.64391353460621" lon="8.833045132449607"><ele>288.0</ele><time>2026-05-01T08:55:23Z</time></trkpt><trkpt lat="44.64377784418633" lon="8.833094705695693"><ele>288.0</ele><time>2026-05-01T08:55:24Z</time></trkpt><trkpt lat="44.643646938357456" lon="8.833137821168998"><ele>288.0</ele><time>2026-05-01T08:55:25Z</time></trkpt><trkpt lat="44.64351655026224" lon="8.833171357827883"><ele>288.0</ele><time>2026-05-01T08:55:26Z</time></trkpt><trkpt lat="44.64339023641522" lon="8.833214631404728"><ele>290.0</ele><time>2026-05-01T08:55:27Z</time></trkpt><trkpt lat="44.64325942500782" lon="8.833266016515626"><ele>292.0</ele><time>2026-05-01T08:55:28Z</time></trkpt><trkpt lat="44.6431221784514" lon="8.833317916888657"><ele>294.0</ele><time>2026-05-01T08:55:29Z</time></trkpt><trkpt lat="44.64298222274233" lon="8.833375477590947"><ele>296.0</ele><time>2026-05-01T08:55:30Z</time></trkpt><trkpt lat="44.64282939621549" lon="8.83342752252368"><ele>296.33333333333337</ele><time>2026-05-01T08:55:31Z</time></trkpt><trkpt lat="44.64266062049119" lon="8.833512186693536"><ele>296.6666666666667</ele><time>2026-05-01T08:55:32Z</time></trkpt><trkpt lat="44.64247510912971" lon="8.833577249638928"><ele>297.0</ele><time>2026-05-01T08:55:33Z</time></trkpt><trkpt lat="44.642279251710576" lon="8.833682082818095"><ele>297.0</ele><time>2026-05-01T08:55:34Z</time></trkpt><trkpt lat="44.64208554352553" lon="8.833800198559022"><ele>297.0</ele><time>2026-05-01T08:55:35Z</time></trkpt><trkpt lat="44.64189899003874" lon="8.833929567713374"><ele>297.0</ele><time>2026-05-01T08:55:36Z</time></trkpt><trkpt lat="44.641724459743095" lon="8.834070142682998"><ele>300.0</ele><time>2026-05-01T08:55:37Z</time></trkpt><trkpt lat="44.64155702735316" lon="8.834172779991013"><ele>303.0</ele><time>2026-05-01T08:55:38Z</time></trkpt><trkpt lat="44.64139726777599" lon="8.834233248816638"><ele>306.0</ele><time>2026-05-01T08:55:39Z</time></trkpt><trkpt lat="44.64126199778033" lon="8.834323193785796"><ele>302.75</ele><time>2026-05-01T08:55:40Z</time></trkpt><trkpt lat="44.64113335355448" lon="8.834381834307102"><ele>299.5</ele><time>2026-05-01T08:55:41Z</time></trkpt><trkpt lat="44.64101280710095" lon="8.834435978423686"><ele>296.25</ele><time>2026-05-01T08:55:42Z</time></trkpt><trkpt lat="44.64090450187618" lon="8.834482174750816"><ele>293.0</ele><time>2026-05-01T08:55:43Z</time></trkpt><trkpt lat="44.64079504356633" lon="8.834502258894126"><ele>293.0</ele><time>2026-05-01T08:55:44Z</time></trkpt><trkpt lat="44.640675227917896" lon="8.834490360269339"><ele>293.0</ele><time>2026-05-01T08:55:45Z</time></trkpt><trkpt lat="44.6405596711467" lon="8.834445999930177"><ele>293.0</ele><time>2026-05-01T08:55:46Z</time></trkpt><trkpt lat="44.64044723192053" lon="8.834384533782664"><ele>293.0</ele><time>2026-05-01T08:55:47Z</time></trkpt><trkpt lat="44.64034053112426" lon="8.834335740942459"><ele>294.75</ele><time>2026-05-01T08:55:48Z</time></trkpt><trkpt lat="44.64023345930496" lon="8.834309080636082"><ele>296.5</ele><time>2026-05-01T08:55:49Z</time></trkpt><trkpt lat="44.64011241439629" lon="8.834311399241264"><ele>298.25</ele><time>2026-05-01T08:55:50Z</time></trkpt><trkpt lat="44.63999311333703" lon="8.834344744044117"><ele>300.0</ele><time>2026-05-01T08:55:51Z</time></trkpt><trkpt lat="44.63987927373405" lon="8.834391984124093"><ele>300.0</ele><time>2026-05-01T08:55:52Z</time></trkpt><trkpt lat="44.63977712417478" lon="8.834441025737751"><ele>300.0</ele><time>2026-05-01T08:55:53Z</time></trkpt><trkpt lat="44.639680370037645" lon="8.834515992228841"><ele>300.0</ele><time>2026-05-01T08:55:54Z</time></trkpt><trkpt lat="44.6395993826025" lon="8.834630949974214"><ele>300.0</ele><time>2026-05-01T08:55:55Z</time></trkpt><trkpt lat="44.63952126591014" lon="8.83475411095656"><ele>303.75</ele><time>2026-05-01T08:55:56Z</time></trkpt><trkpt lat="44.63944993417465" lon="8.834889474411773"><ele>307.5</ele><time>2026-05-01T08:55:57Z</time></trkpt><trkpt lat="44.639351759263" lon="8.834997680996107"><ele>311.25</ele><time>2026-05-01T08:55:58Z</time></trkpt><trkpt lat="44.63923833538298" lon="8.835090503205533"><ele>315.0</ele><time>2026-05-01T08:55:59Z</time></trkpt><trkpt lat="44.639103189102094" lon="8.835169926919548"><ele>315.0</ele><time>2026-05-01T08:56:00Z</time></trkpt><trkpt lat="44.63897389342195" lon="8.835236349924322"><ele>315.0</ele><time>2026-05-01T08:56:01Z</time></trkpt><trkpt lat="44.63885172559348" lon="8.835316952727407"><ele>315.0</ele><time>2026-05-01T08:56:02Z</time></trkpt><trkpt lat="44.63872513984343" lon="8.835373998048402"><ele>315.0</ele><time>2026-05-01T08:56:03Z</time></trkpt><trkpt lat="44.63862283522315" lon="8.835427587465727"><ele>316.2</ele><time>2026-05-01T08:56:04Z</time></trkpt><trkpt lat="44.638541372255396" lon="8.835498107403051"><ele>317.4</ele><time>2026-05-01T08:56:05Z</time></trkpt><trkpt lat="44.638487605811164" lon="8.835608271675701"><ele>318.6</ele><time>2026-05-01T08:56:06Z</time></trkpt><trkpt lat="44.63843942597904" lon="8.835735317601314"><ele>319.8</ele><time>2026-05-01T08:56:07Z</time></trkpt><trkpt lat="44.63844818156676" lon="8.835899427052746"><ele>321.0</ele><time>2026-05-01T08:56:08Z</time></trkpt><trkpt lat="44.638421041609156" lon="8.83605252997454"><ele>321.0</ele><time>2026-05-01T08:56:09Z</time></trkpt><trkpt lat="44.63839055538878" lon="8.836210262126844"><ele>321.0</ele><time>2026-05-01T08:56:10Z</time></trkpt><trkpt lat="44.63834476062734" lon="8.836379470161079"><ele>321.0</ele><time>2026-05-01T08:56:11Z</time></trkpt><trkpt lat="44.63827877891898" lon="8.836573090945363"><ele>321.0</ele><time>2026-05-01T08:56:12Z</time></trkpt><trkpt lat="44.638191407585474" lon="8.836800788677143"><ele>318.0</ele><time>2026-05-01T08:56:13Z</time></trkpt><trkpt lat="44.638094060437034" lon="8.837057407833893"><ele>315.0</ele><time>2026-05-01T08:56:14Z</time></trkpt><trkpt lat="44.637988114251634" lon="8.837337113207008"><ele>312.0</ele><time>2026-05-01T08:56:15Z</time></trkpt><trkpt lat="44.63787326419797" lon="8.837629530764664"><ele>319.0</ele><time>2026-05-01T08:56:16Z</time></trkpt><trkpt lat="44.63774200937886" lon="8.837906735331707"><ele>326.0</ele><time>2026-05-01T08:56:17Z</time></trkpt><trkpt lat="44.637616496869335" lon="8.838171976755826"><ele>326.0</ele><time>2026-05-01T08:56:18Z</time></trkpt><trkpt lat="44.63752306474845" lon="8.838438872340125"><ele>326.0</ele><time>2026-05-01T08:56:19Z</time></trkpt><trkpt lat="44.63744787469377" lon="8.838700027820952"><ele>326.0</ele><time>2026-05-01T08:56:20Z</time></trkpt><trkpt lat="44.63739119386092" lon="8.838943356284924"><ele>323.0</ele><time>2026-05-01T08:56:21Z</time></trkpt><trkpt lat="44.63729939411983" lon="8.839135192797645"><ele>320.0</ele><time>2026-05-01T08:56:22Z</time></trkpt><trkpt lat="44.637186405285135" lon="8.839295131797314"><ele>317.0</ele><time>2026-05-01T08:56:23Z</time></trkpt><trkpt lat="44.63704511244942" lon="8.839489887296118"><ele>319.0</ele><time>2026-05-01T08:56:24Z</time></trkpt><trkpt lat="44.63690315015479" lon="8.83971679274261"><ele>321.0</ele><time>2026-05-01T08:56:25Z</time></trkpt><trkpt lat="44.636744575391184" lon="8.839927053737105"><ele>323.0</ele><time>2026-05-01T08:56:26Z</time></trkpt><trkpt lat="44.63660915430456" lon="8.840123067523253"><ele>320.0</ele><time>2026-05-01T08:56:27Z</time></trkpt><trkpt lat="44.636490387867646" lon="8.840293920849023"><ele>317.0</ele><time>2026-05-01T08:56:28Z</time></trkpt><trkpt lat="44.63637120094481" lon="8.840428072294621"><ele>314.0</ele><time>2026-05-01T08:56:29Z</time></trkpt><trkpt lat="44.636283660857806" lon="8.84058242244129"><ele>314.0</ele><time>2026-05-01T08:56:30Z</time></trkpt><trkpt lat="44.636173438824976" lon="8.840701686773881"><ele>314.0</ele><time>2026-05-01T08:56:31Z</time></trkpt><trkpt lat="44.63607138756552" lon="8.840844198754315"><ele>314.0</ele><time>2026-05-01T08:56:32Z</time></trkpt><trkpt lat="44.635974212343584" lon="8.840997727235658"><ele>314.0</ele><time>2026-05-01T08:56:33Z</time></trkpt><trkpt lat="44.63588817854671" lon="8.841153608027637"><ele>315.75</ele><time>2026-05-01T08:56:34Z</time></trkpt><trkpt lat="44.635823072914505" lon="8.841325754998227"><ele>317.5</ele><time>2026-05-01T08:56:35Z</time></trkpt><trkpt lat="44.63573355451264" lon="8.84147422788353"><ele>319.25</ele><time>2026-05-01T08:56:35.999Z</time></trkpt><trkpt lat="44.635677711910326" lon="8.84164808561156"><ele>321.0</ele><time>2026-05-01T08:56:36.999Z</time></trkpt><trkpt lat="44.635604004402616" lon="8.841803353065863"><ele>317.0</ele><time>2026-05-01T08:56:37.999Z</time></trkpt><trkpt lat="44.63553169378625" lon="8.841950748630403"><ele>313.0</ele><time>2026-05-01T08:56:38.999Z</time></trkpt><trkpt lat="44.6354682750054" lon="8.842085490153654"><ele>309.0</ele><time>2026-05-01T08:56:39.999Z</time></trkpt><trkpt lat="44.635386348894585" lon="8.842195515084848"><ele>305.0</ele><time>2026-05-01T08:56:40.999Z</time></trkpt><trkpt lat="44.63533251150674" lon="8.842317898348076"><ele>310.6666666666667</ele><time>2026-05-01T08:56:41.999Z</time></trkpt><trkpt lat="44.635233717937005" lon="8.842403900583824"><ele>316.3333333333333</ele><time>2026-05-01T08:56:42.999Z</time></trkpt><trkpt lat="44.63508647542965" lon="8.84248337593657"><ele>322.0</ele><time>2026-05-01T08:56:43.999Z</time></trkpt><trkpt lat="44.6349015253408" lon="8.842480429373872"><ele>322.0</ele><time>2026-05-01T08:56:44.999Z</time></trkpt><trkpt lat="44.63471035569464" lon="8.84253392835093"><ele>322.0</ele><time>2026-05-01T08:56:45.999Z</time></trkpt><trkpt lat="44.634530670135746" lon="8.842624078898124"><ele>322.0</ele><time>2026-05-01T08:56:46.999Z</time></trkpt><trkpt lat="44.634380140800864" lon="8.84268781016049"><ele>318.0</ele><time>2026-05-01T08:56:47.999Z</time></trkpt><trkpt lat="44.63423909312443" lon="8.842725430569542"><ele>314.0</ele><time>2026-05-01T08:56:49Z</time></trkpt><trkpt lat="44.63410184426068" lon="8.842795022162566"><ele>310.0</ele><time>2026-05-01T08:56:50Z</time></trkpt><trkpt lat="44.633960863022175" lon="8.842824570210388"><ele>306.0</ele><time>2026-05-01T08:56:51Z</time></trkpt><trkpt lat="44.633829062677236" lon="8.842839550972883"><ele>306.0</ele><time>2026-05-01T08:56:52Z</time></trkpt><trkpt lat="44.63370264732372" lon="8.842848084077168"><ele>306.0</ele><time>2026-05-01T08:56:53Z</time></trkpt><trkpt lat="44.633574602217806" lon="8.842849082739974"><ele>306.0</ele><time>2026-05-01T08:56:54Z</time></trkpt><trkpt lat="44.63344225931844" lon="8.842851379002104"><ele>306.0</ele><time>2026-05-01T08:56:55Z</time></trkpt><trkpt lat="44.633284008355254" lon="8.842861815407927"><ele>309.0</ele><time>2026-05-01T08:56:56Z</time></trkpt><trkpt lat="44.63311190398216" lon="8.842972670636223"><ele>312.0</ele><time>2026-05-01T08:56:57Z</time></trkpt><trkpt lat="44.63294200717874" lon="8.843070069651146"><ele>315.0</ele><time>2026-05-01T08:56:58Z</time></trkpt><trkpt lat="44.632802131650195" lon="8.84313209955626"><ele>315.25</ele><time>2026-05-01T08:56:59Z</time></trkpt><trkpt lat="44.63268197361067" lon="8.843133224033062"><ele>315.5</ele><time>2026-05-01T08:57:00Z</time></trkpt><trkpt lat="44.63258314132945" lon="8.843062057030046"><ele>315.75</ele><time>2026-05-01T08:57:01Z</time></trkpt><trkpt lat="44.63250199922097" lon="8.842940297626278"><ele>316.0</ele><time>2026-05-01T08:57:02Z</time></trkpt><trkpt lat="44.632454454333136" lon="8.842779731521816"><ele>318.5</ele><time>2026-05-01T08:57:03Z</time></trkpt><trkpt lat="44.632449005390576" lon="8.842603347894189"><ele>321.0</ele><time>2026-05-01T08:57:04Z</time></trkpt><trkpt lat="44.632490241922994" lon="8.842433641459609"><ele>323.5</ele><time>2026-05-01T08:57:05Z</time></trkpt><trkpt lat="44.632514932577415" lon="8.842260551628788"><ele>326.0</ele><time>2026-05-01T08:57:06Z</time></trkpt><trkpt lat="44.63248628613474" lon="8.842084143162106"><ele>326.0</ele><time>2026-05-01T08:57:07Z</time></trkpt><trkpt lat="44.63240912814774" lon="8.841929144810544"><ele>326.0</ele><time>2026-05-01T08:57:08Z</time></trkpt><trkpt lat="44.63230156329457" lon="8.841808052039937"><ele>326.0</ele><time>2026-05-01T08:57:09Z</time></trkpt><trkpt lat="44.632179626446344" lon="8.841725898579568"><ele>326.0</ele><time>2026-05-01T08:57:10Z</time></trkpt><trkpt lat="44.63206683976108" lon="8.8416682241121"><ele>327.75</ele><time>2026-05-01T08:57:11Z</time></trkpt><trkpt lat="44.63195207077039" lon="8.841644788553294"><ele>329.5</ele><time>2026-05-01T08:57:12Z</time></trkpt><trkpt lat="44.63182931123793" lon="8.841665046350748"><ele>331.25</ele><time>2026-05-01T08:57:13Z</time></trkpt><trkpt lat="44.631701992245034" lon="8.841736268225693"><ele>333.0</ele><time>2026-05-01T08:57:14Z</time></trkpt><trkpt lat="44.631555997466705" lon="8.841826773700145"><ele>325.6666666666667</ele><time>2026-05-01T08:57:15Z</time></trkpt><trkpt lat="44.631400823637236" lon="8.841897911739634"><ele>318.33333333333337</ele><time>2026-05-01T08:57:16Z</time></trkpt><trkpt lat="44.63124071415663" lon="8.841972579110942"><ele>311.0</ele><time>2026-05-01T08:57:17Z</time></trkpt><trkpt lat="44.63108907724278" lon="8.842042215151064"><ele>310.75</ele><time>2026-05-01T08:57:18Z</time></trkpt><trkpt lat="44.63096098419" lon="8.842094262962458"><ele>310.5</ele><time>2026-05-01T08:57:19Z</time></trkpt><trkpt lat="44.63083351507758" lon="8.842121816308863"><ele>310.25</ele><time>2026-05-01T08:57:20Z</time></trkpt><trkpt lat="44.63070182763867" lon="8.842128993321225"><ele>310.0</ele><time>2026-05-01T08:57:21Z</time></trkpt><trkpt lat="44.63057142633981" lon="8.842105051999603"><ele>310.0</ele><time>2026-05-01T08:57:22Z</time></trkpt><trkpt lat="44.63043715882913" lon="8.842037617183461"><ele>310.0</ele><time>2026-05-01T08:57:23Z</time></trkpt><trkpt lat="44.63030214773797" lon="8.841985228057343"><ele>310.0</ele><time>2026-05-01T08:57:24Z</time></trkpt><trkpt lat="44.63016740910263" lon="8.841984477048246"><ele>310.0</ele><time>2026-05-01T08:57:25Z</time></trkpt><trkpt lat="44.63003508172944" lon="8.842044912403061"><ele>311.66666666666663</ele><time>2026-05-01T08:57:26Z</time></trkpt><trkpt lat="44.62989533279546" lon="8.84214242390563"><ele>313.3333333333333</ele><time>2026-05-01T08:57:27Z</time></trkpt><trkpt lat="44.629746762642334" lon="8.842246786244063"><ele>315.0</ele><time>2026-05-01T08:57:28Z</time></trkpt><trkpt lat="44.629598811159916" lon="8.842350332671236"><ele>315.0</ele><time>2026-05-01T08:57:29Z</time></trkpt><trkpt lat="44.62944947426479" lon="8.842456280123201"><ele>315.0</ele><time>2026-05-01T08:57:30Z</time></trkpt><trkpt lat="44.629295155767494" lon="8.842536591703805"><ele>315.0</ele><time>2026-05-01T08:57:31Z</time></trkpt><trkpt lat="44.62914907897593" lon="8.842639893806238"><ele>315.0</ele><time>2026-05-01T08:57:32Z</time></trkpt><trkpt lat="44.62897261393677" lon="8.842698719166723"><ele>315.0</ele><time>2026-05-01T08:57:33Z</time></trkpt><trkpt lat="44.628773988952545" lon="8.842727275977015"><ele>315.0</ele><time>2026-05-01T08:57:34Z</time></trkpt><trkpt lat="44.62857321066032" lon="8.84273239366146"><ele>316.3333333333333</ele><time>2026-05-01T08:57:35Z</time></trkpt><trkpt lat="44.62837752210127" lon="8.842732395862908"><ele>317.66666666666663</ele><time>2026-05-01T08:57:36Z</time></trkpt><trkpt lat="44.62817286221618" lon="8.842744475126329"><ele>319.0</ele><time>2026-05-01T08:57:37Z</time></trkpt><trkpt lat="44.627963496083034" lon="8.842772292214438"><ele>321.3333333333333</ele><time>2026-05-01T08:57:38Z</time></trkpt><trkpt lat="44.627754769294356" lon="8.842812785984009"><ele>323.6666666666667</ele><time>2026-05-01T08:57:39Z</time></trkpt><trkpt lat="44.62755005951199" lon="8.842855155971348"><ele>326.0</ele><time>2026-05-01T08:57:40Z</time></trkpt><trkpt lat="44.62735301530884" lon="8.84289839594256"><ele>326.0</ele><time>2026-05-01T08:57:41Z</time></trkpt><trkpt lat="44.627163495860195" lon="8.842953104102381"><ele>326.0</ele><time>2026-05-01T08:57:42Z</time></trkpt><trkpt lat="44.62697752510838" lon="8.843021068526847"><ele>326.0</ele><time>2026-05-01T08:57:43Z</time></trkpt><trkpt lat="44.62679443114902" lon="8.84309630488345"><ele>326.33333333333337</ele><time>2026-05-01T08:57:44Z</time></trkpt><trkpt lat="44.62662369199898" lon="8.843179621530238"><ele>326.6666666666667</ele><time>2026-05-01T08:57:45Z</time></trkpt><trkpt lat="44.62646075305281" lon="8.843310112215743"><ele>327.0</ele><time>2026-05-01T08:57:46Z</time></trkpt><trkpt lat="44.6262854642348" lon="8.843463110424619"><ele>327.3333333333333</ele><time>2026-05-01T08:57:47Z</time></trkpt><trkpt lat="44.62612009038912" lon="8.84365234178564"><ele>327.66666666666663</ele><time>2026-05-01T08:57:48Z</time></trkpt><trkpt lat="44.62595742087767" lon="8.843857123081872"><ele>328.0</ele><time>2026-05-01T08:57:49Z</time></trkpt><trkpt lat="44.6257993670618" lon="8.84408214780653"><ele>328.0</ele><time>2026-05-01T08:57:50Z</time></trkpt><trkpt lat="44.62562821021939" lon="8.844292411413438"><ele>328.0</ele><time>2026-05-01T08:57:51Z</time></trkpt><trkpt lat="44.62545900899887" lon="8.84450878959168"><ele>325.5</ele><time>2026-05-01T08:57:52Z</time></trkpt><trkpt lat="44.62529516370459" lon="8.844731703797143"><ele>323.0</ele><time>2026-05-01T08:57:53Z</time></trkpt><trkpt lat="44.625129567701904" lon="8.844940940739956"><ele>322.0</ele><time>2026-05-01T08:57:54Z</time></trkpt><trkpt lat="44.624958301112436" lon="8.84516009072522"><ele>321.0</ele><time>2026-05-01T08:57:55Z</time></trkpt><trkpt lat="44.62477665107491" lon="8.845362658585858"><ele>321.0</ele><time>2026-05-01T08:57:56Z</time></trkpt><trkpt lat="44.624603454695134" lon="8.845583030563452"><ele>321.0</ele><time>2026-05-01T08:57:57Z</time></trkpt><trkpt lat="44.62443821121096" lon="8.845794477846729"><ele>321.3333333333333</ele><time>2026-05-01T08:57:58Z</time></trkpt><trkpt lat="44.62428406611581" lon="8.845993762900338"><ele>321.66666666666663</ele><time>2026-05-01T08:57:59Z</time></trkpt><trkpt lat="44.62413714840726" lon="8.846176872410517"><ele>322.0</ele><time>2026-05-01T08:58:00Z</time></trkpt><trkpt lat="44.623984394316636" lon="8.846339471433987"><ele>322.0</ele><time>2026-05-01T08:58:01Z</time></trkpt><trkpt lat="44.62383280950025" lon="8.846460741835982"><ele>322.0</ele><time>2026-05-01T08:58:02Z</time></trkpt><trkpt lat="44.62365651722691" lon="8.84654537550366"><ele>322.0</ele><time>2026-05-01T08:58:03Z</time></trkpt><trkpt lat="44.623471041308534" lon="8.84658814160315"><ele>322.0</ele><time>2026-05-01T08:58:04Z</time></trkpt><trkpt lat="44.62327429279088" lon="8.846599689254907"><ele>322.0</ele><time>2026-05-01T08:58:05Z</time></trkpt><trkpt lat="44.62308293103468" lon="8.846564626243538"><ele>322.0</ele><time>2026-05-01T08:58:06Z</time></trkpt><trkpt lat="44.62290620259533" lon="8.846489017672239"><ele>319.3333333333333</ele><time>2026-05-01T08:58:07Z</time></trkpt><trkpt lat="44.62272703284519" lon="8.846392392233872"><ele>316.6666666666667</ele><time>2026-05-01T08:58:08Z</time></trkpt><trkpt lat="44.62254205150163" lon="8.846250283657877"><ele>314.0</ele><time>2026-05-01T08:58:09Z</time></trkpt><trkpt lat="44.62234785893077" lon="8.846110357558024"><ele>314.0</ele><time>2026-05-01T08:58:10Z</time></trkpt><trkpt lat="44.622149364302395" lon="8.845971846651432"><ele>314.0</ele><time>2026-05-01T08:58:11Z</time></trkpt><trkpt lat="44.62194688566578" lon="8.845837256547556"><ele>314.0</ele><time>2026-05-01T08:58:12Z</time></trkpt><trkpt lat="44.62175026681846" lon="8.845704511766613"><ele>313.6666666666667</ele><time>2026-05-01T08:58:13Z</time></trkpt><trkpt lat="44.62155070016671" lon="8.84558375483653"><ele>313.3333333333333</ele><time>2026-05-01T08:58:14Z</time></trkpt><trkpt lat="44.62135133711296" lon="8.845475910506053"><ele>313.0</ele><time>2026-05-01T08:58:15Z</time></trkpt><trkpt lat="44.621153150959174" lon="8.845386690225077"><ele>313.3333333333333</ele><time>2026-05-01T08:58:16Z</time></trkpt><trkpt lat="44.62095069982267" lon="8.845312994706516"><ele>313.6666666666667</ele><time>2026-05-01T08:58:17Z</time></trkpt><trkpt lat="44.62075080233947" lon="8.845246071995955"><ele>314.0</ele><time>2026-05-01T08:58:18Z</time></trkpt><trkpt lat="44.62055224876107" lon="8.84517302302203"><ele>314.33333333333337</ele><time>2026-05-01T08:58:19Z</time></trkpt><trkpt lat="44.62035804546716" lon="8.845094054047163"><ele>314.6666666666667</ele><time>2026-05-01T08:58:20Z</time></trkpt><trkpt lat="44.620166815474526" lon="8.845018450702959"><ele>315.0</ele><time>2026-05-01T08:58:21Z</time></trkpt><trkpt lat="44.61999369783427" lon="8.844948614512132"><ele>316.6666666666667</ele><time>2026-05-01T08:58:22Z</time></trkpt><trkpt lat="44.619840816162636" lon="8.844885956524655"><ele>318.33333333333337</ele><time>2026-05-01T08:58:23Z</time></trkpt><trkpt lat="44.619675441658" lon="8.844823825508046"><ele>320.0</ele><time>2026-05-01T08:58:24Z</time></trkpt><trkpt lat="44.61950083729345" lon="8.844750523219126"><ele>324.33333333333337</ele><time>2026-05-01T08:58:25Z</time></trkpt><trkpt lat="44.61931779863643" lon="8.844675145776032"><ele>328.6666666666667</ele><time>2026-05-01T08:58:26Z</time></trkpt><trkpt lat="44.619144948227486" lon="8.844611750286209"><ele>333.0</ele><time>2026-05-01T08:58:27Z</time></trkpt><trkpt lat="44.6189946004246" lon="8.844579360274569"><ele>333.0</ele><time>2026-05-01T08:58:28Z</time></trkpt><trkpt lat="44.61884679486866" lon="8.84459483576708"><ele>333.0</ele><time>2026-05-01T08:58:29Z</time></trkpt><trkpt lat="44.61869178476517" lon="8.844647928176173"><ele>333.0</ele><time>2026-05-01T08:58:30Z</time></trkpt><trkpt lat="44.618525793147576" lon="8.844747229919879"><ele>332.3333333333333</ele><time>2026-05-01T08:58:31Z</time></trkpt><trkpt lat="44.61837615968913" lon="8.84489508597616"><ele>331.66666666666663</ele><time>2026-05-01T08:58:32Z</time></trkpt><trkpt lat="44.61825644484868" lon="8.845070146833132"><ele>331.0</ele><time>2026-05-01T08:58:33Z</time></trkpt><trkpt lat="44.61812441909819" lon="8.845178728714505"><ele>334.75</ele><time>2026-05-01T08:58:34Z</time></trkpt><trkpt lat="44.6180023015773" lon="8.845258639406083"><ele>338.5</ele><time>2026-05-01T08:58:35Z</time></trkpt><trkpt lat="44.61786129988223" lon="8.845309230860133"><ele>342.25</ele><time>2026-05-01T08:58:36Z</time></trkpt><trkpt lat="44.617704114791344" lon="8.845313838729647"><ele>346.0</ele><time>2026-05-01T08:58:37Z</time></trkpt><trkpt lat="44.617547210571495" lon="8.845305477536266"><ele>347.25</ele><time>2026-05-01T08:58:38Z</time></trkpt><trkpt lat="44.61740519110541" lon="8.845243613486549"><ele>348.5</ele><time>2026-05-01T08:58:39Z</time></trkpt><trkpt lat="44.61727955806116" lon="8.845180683625365"><ele>349.75</ele><time>2026-05-01T08:58:40Z</time></trkpt><trkpt lat="44.61716476475963" lon="8.845120745591744"><ele>351.0</ele><time>2026-05-01T08:58:41Z</time></trkpt><trkpt lat="44.61705462175638" lon="8.845067541093519"><ele>349.4</ele><time>2026-05-01T08:58:42Z</time></trkpt><trkpt lat="44.616942176041384" lon="8.845018561091912"><ele>347.8</ele><time>2026-05-01T08:58:43Z</time></trkpt><trkpt lat="44.61684129497754" lon="8.844966747618587"><ele>346.2</ele><time>2026-05-01T08:58:44Z</time></trkpt><trkpt lat="44.61674183446617" lon="8.844906758770112"><ele>344.59999999999997</ele><time>2026-05-01T08:58:45Z</time></trkpt><trkpt lat="44.616640240014895" lon="8.844846268919342"><ele>343.0</ele><time>2026-05-01T08:58:46Z</time></trkpt><trkpt lat="44.61653358787242" lon="8.844797648113854"><ele>343.0</ele><time>2026-05-01T08:58:47Z</time></trkpt><trkpt lat="44.616427210561795" lon="8.844754543677263"><ele>343.0</ele><time>2026-05-01T08:58:48Z</time></trkpt><trkpt lat="44.61632228959404" lon="8.844718141737406"><ele>343.0</ele><time>2026-05-01T08:58:49Z</time></trkpt><trkpt lat="44.61621377039571" lon="8.84468877902438"><ele>343.0</ele><time>2026-05-01T08:58:50Z</time></trkpt><trkpt lat="44.616106567406604" lon="8.844671265897581"><ele>343.0</ele><time>2026-05-01T08:58:51Z</time></trkpt><trkpt lat="44.61600102565217" lon="8.844666002217629"><ele>343.16666666666663</ele><time>2026-05-01T08:58:52Z</time></trkpt><trkpt lat="44.615898573825405" lon="8.844678866291023"><ele>343.3333333333333</ele><time>2026-05-01T08:58:53Z</time></trkpt><trkpt lat="44.61581081574099" lon="8.844706990197746"><ele>343.5</ele><time>2026-05-01T08:58:54Z</time></trkpt><trkpt lat="44.61572859938455" lon="8.844729359233536"><ele>343.6666666666667</ele><time>2026-05-01T08:58:55Z</time></trkpt><trkpt lat="44.61565188863142" lon="8.84474789897942"><ele>343.83333333333337</ele><time>2026-05-01T08:58:56Z</time></trkpt><trkpt lat="44.61558169952529" lon="8.844779358758435"><ele>344.0</ele><time>2026-05-01T08:58:57Z</time></trkpt><trkpt lat="44.61551930931299" lon="8.8448031592695"><ele>344.0</ele><time>2026-05-01T08:58:58Z</time></trkpt><trkpt lat="44.61547328145981" lon="8.84487717407166"><ele>344.0</ele><time>2026-05-01T08:58:59Z</time></trkpt><trkpt lat="44.61546238783054" lon="8.844985471618521"><ele>344.0</ele><time>2026-05-01T08:59:00Z</time></trkpt><trkpt lat="44.61549430749772" lon="8.845105678146055"><ele>344.0</ele><time>2026-05-01T08:59:01Z</time></trkpt><trkpt lat="44.615631444883604" lon="8.845144243450253"><ele>344.0</ele><time>2026-05-01T08:59:02Z</time></trkpt><trkpt lat="44.615724317500835" lon="8.845188967778904"><ele>346.75</ele><time>2026-05-01T08:59:03Z</time></trkpt><trkpt lat="44.61584135467467" lon="8.845265896246866"><ele>349.5</ele><time>2026-05-01T08:59:04Z</time></trkpt><trkpt lat="44.61595096422793" lon="8.845361384461569"><ele>352.25</ele><time>2026-05-01T08:59:05Z</time></trkpt><trkpt lat="44.61607112730423" lon="8.845461783073592"><ele>355.0</ele><time>2026-05-01T08:59:06Z</time></trkpt><trkpt lat="44.61620015977873" lon="8.845525932064316"><ele>356.0</ele><time>2026-05-01T08:59:07Z</time></trkpt><trkpt lat="44.61633464276329" lon="8.84552674824667"><ele>357.0</ele><time>2026-05-01T08:59:08Z</time></trkpt><trkpt lat="44.61648665235468" lon="8.845481011235464"><ele>358.0</ele><time>2026-05-01T08:59:09Z</time></trkpt><trkpt lat="44.61663377402174" lon="8.84542658303233"><ele>359.0</ele><time>2026-05-01T08:59:10Z</time></trkpt><trkpt lat="44.61676135484457" lon="8.845430516291932"><ele>359.0</ele><time>2026-05-01T08:59:11Z</time></trkpt><trkpt lat="44.61685920534534" lon="8.84547087339855"><ele>359.0</ele><time>2026-05-01T08:59:12Z</time></trkpt><trkpt lat="44.61695925209096" lon="8.845531808325362"><ele>359.0</ele><time>2026-05-01T08:59:13Z</time></trkpt><trkpt lat="44.617049994551124" lon="8.84559402793099"><ele>359.0</ele><time>2026-05-01T08:59:14Z</time></trkpt><trkpt lat="44.6170611886133" lon="8.845737041495976"><ele>359.0</ele><time>2026-05-01T08:59:15Z</time></trkpt><trkpt lat="44.61706640354188" lon="8.845857900691662"><ele>359.4</ele><time>2026-05-01T08:59:16Z</time></trkpt><trkpt lat="44.61704974407974" lon="8.845981196493197"><ele>359.79999999999995</ele><time>2026-05-01T08:59:17Z</time></trkpt><trkpt lat="44.61696830165552" lon="8.8460849532848"><ele>360.20000000000005</ele><time>2026-05-01T08:59:18Z</time></trkpt><trkpt lat="44.616850667704206" lon="8.846122650541279"><ele>360.6</ele><time>2026-05-01T08:59:19Z</time></trkpt><trkpt lat="44.61672804177092" lon="8.846167226010657"><ele>361.0</ele><time>2026-05-01T08:59:20Z</time></trkpt><trkpt lat="44.616592876010365" lon="8.846176162982424"><ele>364.75</ele><time>2026-05-01T08:59:21Z</time></trkpt><trkpt lat="44.61645417397186" lon="8.846207486505799"><ele>368.5</ele><time>2026-05-01T08:59:22Z</time></trkpt><trkpt lat="44.61631731754423" lon="8.846278472472957"><ele>372.25</ele><time>2026-05-01T08:59:23Z</time></trkpt><trkpt lat="44.61619187902846" lon="8.846395135593808"><ele>376.0</ele><time>2026-05-01T08:59:24Z</time></trkpt><trkpt lat="44.61602985617293" lon="8.846511477002421"><ele>376.0</ele><time>2026-05-01T08:59:25Z</time></trkpt><trkpt lat="44.61585703434501" lon="8.846669834472147"><ele>376.0</ele><time>2026-05-01T08:59:26Z</time></trkpt><trkpt lat="44.61569524162324" lon="8.846829399061054"><ele>376.0</ele><time>2026-05-01T08:59:27Z</time></trkpt><trkpt lat="44.61557184706226" lon="8.846965784194753"><ele>379.5</ele><time>2026-05-01T08:59:28Z</time></trkpt><trkpt lat="44.61546043273937" lon="8.847081253915864"><ele>383.0</ele><time>2026-05-01T08:59:29Z</time></trkpt><trkpt lat="44.61533725701956" lon="8.847149750926727"><ele>386.5</ele><time>2026-05-01T08:59:30Z</time></trkpt><trkpt lat="44.615179376851145" lon="8.84716264100067"><ele>390.0</ele><time>2026-05-01T08:59:31Z</time></trkpt><trkpt lat="44.615003975026696" lon="8.847165858908133"><ele>390.66666666666663</ele><time>2026-05-01T08:59:32Z</time></trkpt><trkpt lat="44.61482225967261" lon="8.847200197199466"><ele>391.3333333333333</ele><time>2026-05-01T08:59:33Z</time></trkpt><trkpt lat="44.61464182512557" lon="8.847248775745435"><ele>392.0</ele><time>2026-05-01T08:59:34Z</time></trkpt><trkpt lat="44.614466519766246" lon="8.847293928946527"><ele>388.3333333333333</ele><time>2026-05-01T08:59:35Z</time></trkpt><trkpt lat="44.61430009013094" lon="8.847339806948597"><ele>384.66666666666663</ele><time>2026-05-01T08:59:36Z</time></trkpt><trkpt lat="44.61415428840925" lon="8.847383399423917"><ele>381.0</ele><time>2026-05-01T08:59:37Z</time></trkpt><trkpt lat="44.61402416894803" lon="8.847443755411389"><ele>381.0</ele><time>2026-05-01T08:59:38Z</time></trkpt><trkpt lat="44.61391140702361" lon="8.847545575435722"><ele>381.0</ele><time>2026-05-01T08:59:39Z</time></trkpt><trkpt lat="44.613815035046414" lon="8.847686406728501"><ele>381.0</ele><time>2026-05-01T08:59:40Z</time></trkpt><trkpt lat="44.613723877838254" lon="8.847852415387203"><ele>381.0</ele><time>2026-05-01T08:59:41Z</time></trkpt><trkpt lat="44.61363344550622" lon="8.848032331687298"><ele>384.33333333333337</ele><time>2026-05-01T08:59:42Z</time></trkpt><trkpt lat="44.6135549441979" lon="8.848223024315336"><ele>387.6666666666667</ele><time>2026-05-01T08:59:43Z</time></trkpt><trkpt lat="44.61351688805745" lon="8.848444381752255"><ele>391.0</ele><time>2026-05-01T08:59:44Z</time></trkpt><trkpt lat="44.61350835484444" lon="8.84864715558132"><ele>391.4</ele><time>2026-05-01T08:59:45Z</time></trkpt><trkpt lat="44.613521495903775" lon="8.848808137740221"><ele>391.8</ele><time>2026-05-01T08:59:46Z</time></trkpt><trkpt lat="44.61350308268165" lon="8.848938309493068"><ele>392.2</ele><time>2026-05-01T08:59:47Z</time></trkpt><trkpt lat="44.613434349331655" lon="8.849055907536998"><ele>392.59999999999997</ele><time>2026-05-01T08:59:48Z</time></trkpt><trkpt lat="44.6133239045382" lon="8.849104405343562"><ele>393.0</ele><time>2026-05-01T08:59:49Z</time></trkpt><trkpt lat="44.61319052797565" lon="8.849093234130832"><ele>393.0</ele><time>2026-05-01T08:59:50Z</time></trkpt><trkpt lat="44.61303123155985" lon="8.849111561142292"><ele>393.0</ele><time>2026-05-01T08:59:51Z</time></trkpt><trkpt lat="44.61286847813081" lon="8.84908463850155"><ele>393.0</ele><time>2026-05-01T08:59:52Z</time></trkpt><trkpt lat="44.612711281472166" lon="8.849071151503512"><ele>392.33333333333337</ele><time>2026-05-01T08:59:53Z</time></trkpt><trkpt lat="44.6125671246122" lon="8.849113151928252"><ele>391.6666666666667</ele><time>2026-05-01T08:59:54Z</time></trkpt><trkpt lat="44.61242568749966" lon="8.849220212482829"><ele>391.0</ele><time>2026-05-01T08:59:55Z</time></trkpt><trkpt lat="44.612279130806265" lon="8.849384389402978"><ele>391.0</ele><time>2026-05-01T08:59:56Z</time></trkpt><trkpt lat="44.612141382026394" lon="8.849566123926616"><ele>391.0</ele><time>2026-05-01T08:59:57Z</time></trkpt><trkpt lat="44.61200214275181" lon="8.849730371713365"><ele>391.0</ele><time>2026-05-01T08:59:58Z</time></trkpt><trkpt lat="44.6118661443888" lon="8.849857203031114"><ele>396.33333333333337</ele><time>2026-05-01T08:59:59Z</time></trkpt><trkpt lat="44.61171679141444" lon="8.849974110634772"><ele>401.66666666666663</ele><time>2026-05-01T09:00:00Z</time></trkpt><trkpt lat="44.61157430887204" lon="8.850127224341865"><ele>407.0</ele><time>2026-05-01T09:00:01Z</time></trkpt><trkpt lat="44.61144826480591" lon="8.850325901426844"><ele>407.0</ele><time>2026-05-01T09:00:02Z</time></trkpt><trkpt lat="44.611327580528965" lon="8.850560321604785"><ele>407.0</ele><time>2026-05-01T09:00:03Z</time></trkpt><trkpt lat="44.61124198909984" lon="8.850824482134277"><ele>407.0</ele><time>2026-05-01T09:00:04Z</time></trkpt><trkpt lat="44.61113211470294" lon="8.851041048298901"><ele>412.0</ele><time>2026-05-01T09:00:05Z</time></trkpt><trkpt lat="44.61102864329612" lon="8.851227679227955"><ele>417.0</ele><time>2026-05-01T09:00:06Z</time></trkpt><trkpt lat="44.61092988057104" lon="8.85136623089085"><ele>422.0</ele><time>2026-05-01T09:00:07Z</time></trkpt><trkpt lat="44.610794234180425" lon="8.851454613292791"><ele>422.0</ele><time>2026-05-01T09:00:08Z</time></trkpt><trkpt lat="44.61064375824801" lon="8.851560439562215"><ele>422.0</ele><time>2026-05-01T09:00:09Z</time></trkpt><trkpt lat="44.61052821983111" lon="8.85170019345197"><ele>422.0</ele><time>2026-05-01T09:00:10Z</time></trkpt><trkpt lat="44.61045899380638" lon="8.851873500424443"><ele>421.75</ele><time>2026-05-01T09:00:11Z</time></trkpt><trkpt lat="44.61040909294508" lon="8.852082585374903"><ele>421.5</ele><time>2026-05-01T09:00:12Z</time></trkpt><trkpt lat="44.610342811099" lon="8.852260697961428"><ele>421.25</ele><time>2026-05-01T09:00:13Z</time></trkpt><trkpt lat="44.610231429362386" lon="8.852371368359258"><ele>421.0</ele><time>2026-05-01T09:00:14Z</time></trkpt><trkpt lat="44.61009055415649" lon="8.852470718288053"><ele>422.33333333333337</ele><time>2026-05-01T09:00:15Z</time></trkpt><trkpt lat="44.609948664372304" lon="8.852590264223279"><ele>423.66666666666663</ele><time>2026-05-01T09:00:16Z</time></trkpt><trkpt lat="44.60984980370929" lon="8.85278288749671"><ele>425.0</ele><time>2026-05-01T09:00:17Z</time></trkpt><trkpt lat="44.609782945524245" lon="8.853000615499305"><ele>425.66666666666663</ele><time>2026-05-01T09:00:18Z</time></trkpt><trkpt lat="44.609746820383414" lon="8.853258498416167"><ele>426.33333333333337</ele><time>2026-05-01T09:00:19Z</time></trkpt><trkpt lat="44.60972239919988" lon="8.853521149278976"><ele>427.0</ele><time>2026-05-01T09:00:20Z</time></trkpt><trkpt lat="44.609661038657926" lon="8.85376559175971"><ele>427.0</ele><time>2026-05-01T09:00:21Z</time></trkpt><trkpt lat="44.60958547205398" lon="8.853982403473074"><ele>427.0</ele><time>2026-05-01T09:00:22Z</time></trkpt><trkpt lat="44.609493125381505" lon="8.85415686520597"><ele>427.0</ele><time>2026-05-01T09:00:23Z</time></trkpt><trkpt lat="44.609367496870966" lon="8.85430501811148"><ele>432.33333333333337</ele><time>2026-05-01T09:00:24Z</time></trkpt><trkpt lat="44.609214247537004" lon="8.854458553454762"><ele>437.66666666666663</ele><time>2026-05-01T09:00:25.001Z</time></trkpt><trkpt lat="44.60904199763356" lon="8.854617292439539"><ele>443.0</ele><time>2026-05-01T09:00:26.001Z</time></trkpt><trkpt lat="44.60885781813057" lon="8.854788164791978"><ele>443.0</ele><time>2026-05-01T09:00:27.001Z</time></trkpt><trkpt lat="44.60867058198238" lon="8.854984607585658"><ele>443.0</ele><time>2026-05-01T09:00:28.001Z</time></trkpt><trkpt lat="44.60849083644768" lon="8.855188675351089"><ele>448.3333333333333</ele><time>2026-05-01T09:00:29.001Z</time></trkpt><trkpt lat="44.60832828195324" lon="8.855378168642046"><ele>453.66666666666663</ele><time>2026-05-01T09:00:30.001Z</time></trkpt><trkpt lat="44.608196973646365" lon="8.855563179547719"><ele>459.0</ele><time>2026-05-01T09:00:31.001Z</time></trkpt><trkpt lat="44.60810223172051" lon="8.855749081403863"><ele>459.0</ele><time>2026-05-01T09:00:32.001Z</time></trkpt><trkpt lat="44.60798303698287" lon="8.855876153444786"><ele>459.0</ele><time>2026-05-01T09:00:33.001Z</time></trkpt><trkpt lat="44.60784308353401" lon="8.855985845779143"><ele>459.0</ele><time>2026-05-01T09:00:34.001Z</time></trkpt><trkpt lat="44.60766919877754" lon="8.856068342368026"><ele>464.66666666666663</ele><time>2026-05-01T09:00:35.001Z</time></trkpt><trkpt lat="44.607492155821305" lon="8.856159941896372"><ele>470.3333333333333</ele><time>2026-05-01T09:00:36.001Z</time></trkpt><trkpt lat="44.60732676823655" lon="8.856264262182318"><ele>476.0</ele><time>2026-05-01T09:00:37.001Z</time></trkpt><trkpt lat="44.60719325806383" lon="8.856425983420783"><ele>476.0</ele><time>2026-05-01T09:00:38.001Z</time></trkpt><trkpt lat="44.60704258886908" lon="8.856543823024865"><ele>476.0</ele><time>2026-05-01T09:00:39.001Z</time></trkpt><trkpt lat="44.60688899961092" lon="8.856610944901876"><ele>476.0</ele><time>2026-05-01T09:00:40.001Z</time></trkpt><trkpt lat="44.60673786052872" lon="8.85664271723858"><ele>473.5</ele><time>2026-05-01T09:00:41.001Z</time></trkpt><trkpt lat="44.60662070990919" lon="8.856710081283854"><ele>471.0</ele><time>2026-05-01T09:00:42.001Z</time></trkpt><trkpt lat="44.60654349189858" lon="8.856827824657264"><ele>468.5</ele><time>2026-05-01T09:00:43.001Z</time></trkpt><trkpt lat="44.606488237674235" lon="8.857012268863167"><ele>466.0</ele><time>2026-05-01T09:00:44.001Z</time></trkpt><trkpt lat="44.60643923020115" lon="8.857218043895864"><ele>474.0</ele><time>2026-05-01T09:00:45.001Z</time></trkpt><trkpt lat="44.606347318519155" lon="8.857389681983118"><ele>482.0</ele><time>2026-05-01T09:00:46.001Z</time></trkpt><trkpt lat="44.60619699308198" lon="8.857521714598349"><ele>490.0</ele><time>2026-05-01T09:00:47.001Z</time></trkpt><trkpt lat="44.60603777359315" lon="8.857642751436545"><ele>490.0</ele><time>2026-05-01T09:00:48Z</time></trkpt><trkpt lat="44.605900354115995" lon="8.857794217519766"><ele>490.0</ele><time>2026-05-01T09:00:49Z</time></trkpt><trkpt lat="44.605803975714814" lon="8.857974943148486"><ele>490.0</ele><time>2026-05-01T09:00:50Z</time></trkpt><trkpt lat="44.60575026760334" lon="8.858206413633512"><ele>490.0</ele><time>2026-05-01T09:00:51Z</time></trkpt><trkpt lat="44.60568516888348" lon="8.858438553349124"><ele>490.0</ele><time>2026-05-01T09:00:52Z</time></trkpt><trkpt lat="44.60561227599318" lon="8.858636979843451"><ele>490.0</ele><time>2026-05-01T09:00:53Z</time></trkpt><trkpt lat="44.60549671299703" lon="8.85880227010348"><ele>488.33333333333337</ele><time>2026-05-01T09:00:54Z</time></trkpt><trkpt lat="44.605350265985436" lon="8.858962883309221"><ele>486.66666666666663</ele><time>2026-05-01T09:00:55Z</time></trkpt><trkpt lat="44.605195369341125" lon="8.859125553316705"><ele>485.0</ele><time>2026-05-01T09:00:56Z</time></trkpt><trkpt lat="44.60505667248902" lon="8.859258634169446"><ele>491.25</ele><time>2026-05-01T09:00:57Z</time></trkpt><trkpt lat="44.604917858254105" lon="8.859355569815941"><ele>497.5</ele><time>2026-05-01T09:00:58Z</time></trkpt><trkpt lat="44.60480409938668" lon="8.859446570919436"><ele>503.75</ele><time>2026-05-01T09:00:59Z</time></trkpt><trkpt lat="44.60473318876695" lon="8.85955702852628"><ele>510.0</ele><time>2026-05-01T09:01:00Z</time></trkpt><trkpt lat="44.604688034289964" lon="8.85969664791369"><ele>510.0</ele><time>2026-05-01T09:01:01Z</time></trkpt><trkpt lat="44.604701699645474" lon="8.859894551385718"><ele>510.0</ele><time>2026-05-01T09:01:02Z</time></trkpt><trkpt lat="44.60472697343646" lon="8.860065677204364"><ele>510.0</ele><time>2026-05-01T09:01:03Z</time></trkpt><trkpt lat="44.60472865326554" lon="8.860197563667944"><ele>510.0</ele><time>2026-05-01T09:01:04Z</time></trkpt><trkpt lat="44.604699097608574" lon="8.86028056422057"><ele>510.0</ele><time>2026-05-01T09:01:05Z</time></trkpt><trkpt lat="44.60461525060393" lon="8.860319457067838"><ele>512.25</ele><time>2026-05-01T09:01:06Z</time></trkpt><trkpt lat="44.604493621978555" lon="8.860344573362541"><ele>514.5</ele><time>2026-05-01T09:01:07Z</time></trkpt><trkpt lat="44.60434649230757" lon="8.860397885342561"><ele>516.75</ele><time>2026-05-01T09:01:08Z</time></trkpt><trkpt lat="44.604181694132656" lon="8.860445184233212"><ele>519.0</ele><time>2026-05-01T09:01:09Z</time></trkpt><trkpt lat="44.604015500672055" lon="8.860495795650209"><ele>519.0</ele><time>2026-05-01T09:01:10Z</time></trkpt><trkpt lat="44.60388317761777" lon="8.86054541125785"><ele>519.0</ele><time>2026-05-01T09:01:11Z</time></trkpt><trkpt lat="44.603787754283125" lon="8.860616546346371"><ele>519.0</ele><time>2026-05-01T09:01:12Z</time></trkpt><trkpt lat="44.60372604095353" lon="8.860750165026522"><ele>519.0</ele><time>2026-05-01T09:01:13Z</time></trkpt><trkpt lat="44.603693552484984" lon="8.860932429816902"><ele>522.0</ele><time>2026-05-01T09:01:14Z</time></trkpt><trkpt lat="44.60367025511465" lon="8.86114032058373"><ele>525.0</ele><time>2026-05-01T09:01:15Z</time></trkpt><trkpt lat="44.603720307411514" lon="8.861363372998506"><ele>528.0</ele><time>2026-05-01T09:01:16Z</time></trkpt><trkpt lat="44.60378334348762" lon="8.861585921818643"><ele>525.5</ele><time>2026-05-01T09:01:17Z</time></trkpt><trkpt lat="44.60382024879265" lon="8.86181752369556"><ele>523.0</ele><time>2026-05-01T09:01:18Z</time></trkpt><trkpt lat="44.60387708416808" lon="8.862002221880129"><ele>520.5</ele><time>2026-05-01T09:01:19Z</time></trkpt><trkpt lat="44.60396554099351" lon="8.862133180611583"><ele>518.0</ele><time>2026-05-01T09:01:20Z</time></trkpt><trkpt lat="44.60408567544538" lon="8.862256879581436"><ele>518.0</ele><time>2026-05-01T09:01:21Z</time></trkpt><trkpt lat="44.604209394511216" lon="8.862379797026604"><ele>518.0</ele><time>2026-05-01T09:01:22Z</time></trkpt><trkpt lat="44.60428601221242" lon="8.86253694979586"><ele>518.0</ele><time>2026-05-01T09:01:23Z</time></trkpt><trkpt lat="44.60434293786885" lon="8.862705634631151"><ele>518.0</ele><time>2026-05-01T09:01:24Z</time></trkpt><trkpt lat="44.6043710439806" lon="8.862863521258962"><ele>518.0</ele><time>2026-05-01T09:01:25Z</time></trkpt><trkpt lat="44.60436575330346" lon="8.863016182453118"><ele>518.0</ele><time>2026-05-01T09:01:26Z</time></trkpt><trkpt lat="44.60428670145657" lon="8.863151297964246"><ele>518.0</ele><time>2026-05-01T09:01:27Z</time></trkpt><trkpt lat="44.60422496498834" lon="8.863360258400249"><ele>518.0</ele><time>2026-05-01T09:01:28Z</time></trkpt><trkpt lat="44.604217354404085" lon="8.863587812476919"><ele>521.5</ele><time>2026-05-01T09:01:29Z</time></trkpt><trkpt lat="44.60417382341588" lon="8.863760281686234"><ele>525.0</ele><time>2026-05-01T09:01:30Z</time></trkpt><trkpt lat="44.604109838351704" lon="8.863902199956385"><ele>528.5</ele><time>2026-05-01T09:01:31Z</time></trkpt><trkpt lat="44.60398362756898" lon="8.8639849254358"><ele>532.0</ele><time>2026-05-01T09:01:32Z</time></trkpt><trkpt lat="44.60384957079154" lon="8.864093689325127"><ele>532.0</ele><time>2026-05-01T09:01:33Z</time></trkpt><trkpt lat="44.60373368495387" lon="8.864226777090437"><ele>532.0</ele><time>2026-05-01T09:01:34Z</time></trkpt><trkpt lat="44.60364226641809" lon="8.864398106178296"><ele>532.0</ele><time>2026-05-01T09:01:35Z</time></trkpt><trkpt lat="44.60358444724871" lon="8.864632717134096"><ele>532.0</ele><time>2026-05-01T09:01:36Z</time></trkpt><trkpt lat="44.60354446957617" lon="8.86490079018492"><ele>532.0</ele><time>2026-05-01T09:01:37Z</time></trkpt><trkpt lat="44.60352396795824" lon="8.865130819797733"><ele>532.0</ele><time>2026-05-01T09:01:38Z</time></trkpt><trkpt lat="44.603495124678155" lon="8.86531203925402"><ele>532.0</ele><time>2026-05-01T09:01:39Z</time></trkpt><trkpt lat="44.60346384660619" lon="8.865463518500208"><ele>532.0</ele><time>2026-05-01T09:01:40Z</time></trkpt><trkpt lat="44.603397220358545" lon="8.865576540818198"><ele>532.0</ele><time>2026-05-01T09:01:41Z</time></trkpt><trkpt lat="44.6032846453" lon="8.86565512873368"><ele>532.0</ele><time>2026-05-01T09:01:42Z</time></trkpt><trkpt lat="44.60315413550395" lon="8.865780993681252"><ele>532.0</ele><time>2026-05-01T09:01:43Z</time></trkpt><trkpt lat="44.60300492142809" lon="8.865904601702695"><ele>532.0</ele><time>2026-05-01T09:01:44Z</time></trkpt><trkpt lat="44.602848407348596" lon="8.866032034853378"><ele>532.0</ele><time>2026-05-01T09:01:45Z</time></trkpt><trkpt lat="44.602694593594165" lon="8.86615166486607"><ele>532.6666666666667</ele><time>2026-05-01T09:01:46Z</time></trkpt><trkpt lat="44.60253177032789" lon="8.866263326463391"><ele>533.3333333333334</ele><time>2026-05-01T09:01:47Z</time></trkpt><trkpt lat="44.602371061120145" lon="8.866395886530443"><ele>534.0</ele><time>2026-05-01T09:01:48Z</time></trkpt><trkpt lat="44.602252941905476" lon="8.866625218690695"><ele>536.3333333333334</ele><time>2026-05-01T09:01:49Z</time></trkpt><trkpt lat="44.602116383144796" lon="8.866817049462519"><ele>538.6666666666667</ele><time>2026-05-01T09:01:50Z</time></trkpt><trkpt lat="44.60197606337577" lon="8.867000822744286"><ele>541.0</ele><time>2026-05-01T09:01:51Z</time></trkpt><trkpt lat="44.6018301580978" lon="8.867172397526199"><ele>541.0</ele><time>2026-05-01T09:01:52Z</time></trkpt><trkpt lat="44.601676320469416" lon="8.867340067445763"><ele>541.0</ele><time>2026-05-01T09:01:53Z</time></trkpt><trkpt lat="44.601533099581225" lon="8.867494957473681"><ele>541.0</ele><time>2026-05-01T09:01:54Z</time></trkpt><trkpt lat="44.601410924534626" lon="8.867634711521827"><ele>539.0</ele><time>2026-05-01T09:01:55Z</time></trkpt><trkpt lat="44.60130487534524" lon="8.86774373717522"><ele>537.0</ele><time>2026-05-01T09:01:56Z</time></trkpt><trkpt lat="44.60119362956332" lon="8.8678044826348"><ele>535.0</ele><time>2026-05-01T09:01:57Z</time></trkpt><trkpt lat="44.60106163262286" lon="8.867810441005124"><ele>533.0</ele><time>2026-05-01T09:01:58Z</time></trkpt><trkpt lat="44.60091227347383" lon="8.867761734096588"><ele>533.0</ele><time>2026-05-01T09:01:59Z</time></trkpt><trkpt lat="44.60074551305462" lon="8.86768291092274"><ele>533.0</ele><time>2026-05-01T09:02:00Z</time></trkpt><trkpt lat="44.60057541066503" lon="8.867606697131913"><ele>533.0</ele><time>2026-05-01T09:02:01Z</time></trkpt><trkpt lat="44.60041157634399" lon="8.867541183775355"><ele>535.0</ele><time>2026-05-01T09:02:02Z</time></trkpt><trkpt lat="44.60026880688002" lon="8.867498538737712"><ele>537.0</ele><time>2026-05-01T09:02:03Z</time></trkpt><trkpt lat="44.60013547539207" lon="8.867492487396195"><ele>539.0</ele><time>2026-05-01T09:02:04Z</time></trkpt><trkpt lat="44.59999827538526" lon="8.867544881115373"><ele>541.0</ele><time>2026-05-01T09:02:05Z</time></trkpt><trkpt lat="44.59985346074054" lon="8.867667768227495"><ele>541.0</ele><time>2026-05-01T09:02:06Z</time></trkpt><trkpt lat="44.599709649391265" lon="8.867832565540423"><ele>541.0</ele><time>2026-05-01T09:02:07Z</time></trkpt><trkpt lat="44.599565131240304" lon="8.868016211218626"><ele>541.0</ele><time>2026-05-01T09:02:08Z</time></trkpt><trkpt lat="44.59943237575191" lon="8.868193289635348"><ele>544.5</ele><time>2026-05-01T09:02:09Z</time></trkpt><trkpt lat="44.59932471312769" lon="8.86832190980461"><ele>548.0</ele><time>2026-05-01T09:02:10Z</time></trkpt><trkpt lat="44.59925454636126" lon="8.86843263955949"><ele>551.5</ele><time>2026-05-01T09:02:11Z</time></trkpt><trkpt lat="44.599222895715435" lon="8.868584682516529"><ele>555.0</ele><time>2026-05-01T09:02:12Z</time></trkpt><trkpt lat="44.59922510604905" lon="8.868775288216746"><ele>555.0</ele><time>2026-05-01T09:02:13Z</time></trkpt><trkpt lat="44.59924355149725" lon="8.869000460513835"><ele>555.0</ele><time>2026-05-01T09:02:14Z</time></trkpt><trkpt lat="44.599247571798955" lon="8.869248783351708"><ele>555.0</ele><time>2026-05-01T09:02:15Z</time></trkpt><trkpt lat="44.59923272818429" lon="8.869476279491273"><ele>554.0</ele><time>2026-05-01T09:02:16.001Z</time></trkpt><trkpt lat="44.59918864275214" lon="8.869657518974115"><ele>553.0</ele><time>2026-05-01T09:02:17.001Z</time></trkpt><trkpt lat="44.59910883217417" lon="8.869800246263697"><ele>552.0</ele><time>2026-05-01T09:02:18.001Z</time></trkpt><trkpt lat="44.59900037833627" lon="8.86993168146014"><ele>551.0</ele><time>2026-05-01T09:02:19.001Z</time></trkpt><trkpt lat="44.59886531126629" lon="8.870039745071992"><ele>548.75</ele><time>2026-05-01T09:02:20.001Z</time></trkpt><trkpt lat="44.59872704964067" lon="8.870124670379045"><ele>546.5</ele><time>2026-05-01T09:02:21.001Z</time></trkpt><trkpt lat="44.59860329263134" lon="8.87022198592821"><ele>544.25</ele><time>2026-05-01T09:02:22.001Z</time></trkpt><trkpt lat="44.59851467781585" lon="8.870369837621666"><ele>542.0</ele><time>2026-05-01T09:02:23.001Z</time></trkpt><trkpt lat="44.59846554831236" lon="8.87055807328763"><ele>549.0</ele><time>2026-05-01T09:02:24.001Z</time></trkpt><trkpt lat="44.59843893682682" lon="8.870766460870135"><ele>556.0</ele><time>2026-05-01T09:02:25.001Z</time></trkpt><trkpt lat="44.59840636399175" lon="8.871000783739516"><ele>563.0</ele><time>2026-05-01T09:02:26.001Z</time></trkpt><trkpt lat="44.59837351656793" lon="8.871218397105812"><ele>563.0</ele><time>2026-05-01T09:02:27.001Z</time></trkpt><trkpt lat="44.59832198259417" lon="8.871413370321298"><ele>563.0</ele><time>2026-05-01T09:02:28.001Z</time></trkpt><trkpt lat="44.59825412496849" lon="8.871591731958413"><ele>563.0</ele><time>2026-05-01T09:02:29.001Z</time></trkpt><trkpt lat="44.59816668251089" lon="8.871771630763751"><ele>563.0</ele><time>2026-05-01T09:02:30.001Z</time></trkpt><trkpt lat="44.59808528591523" lon="8.871960325901691"><ele>562.0</ele><time>2026-05-01T09:02:31.001Z</time></trkpt><trkpt lat="44.59801994737768" lon="8.87216693125265"><ele>561.0</ele><time>2026-05-01T09:02:32.001Z</time></trkpt><trkpt lat="44.59797510965169" lon="8.87238246160664"><ele>560.0</ele><time>2026-05-01T09:02:33.001Z</time></trkpt><trkpt lat="44.59794724820138" lon="8.872600051506302"><ele>559.0</ele><time>2026-05-01T09:02:34.001Z</time></trkpt><trkpt lat="44.59793473372394" lon="8.872830131712238"><ele>558.0</ele><time>2026-05-01T09:02:35.001Z</time></trkpt><trkpt lat="44.59793491672944" lon="8.873071919861331"><ele>557.0</ele><time>2026-05-01T09:02:36.001Z</time></trkpt><trkpt lat="44.59795430941551" lon="8.87330274136342"><ele>555.3333333333333</ele><time>2026-05-01T09:02:37.001Z</time></trkpt><trkpt lat="44.59797428884978" lon="8.873506795943804"><ele>553.6666666666666</ele><time>2026-05-01T09:02:38.001Z</time></trkpt><trkpt lat="44.59794473843465" lon="8.873717553019418"><ele>552.0</ele><time>2026-05-01T09:02:39.001Z</time></trkpt><trkpt lat="44.59787573985531" lon="8.873947179733742"><ele>562.6666666666666</ele><time>2026-05-01T09:02:40.001Z</time></trkpt><trkpt lat="44.59778741496293" lon="8.874160497306196"><ele>573.3333333333333</ele><time>2026-05-01T09:02:41.001Z</time></trkpt><trkpt lat="44.5977087283787" lon="8.874349757267906"><ele>584.0</ele><time>2026-05-01T09:02:42.001Z</time></trkpt><trkpt lat="44.59765311974243" lon="8.874511161749597"><ele>584.0</ele><time>2026-05-01T09:02:43.001Z</time></trkpt><trkpt lat="44.59762110788072" lon="8.874669766296876"><ele>584.0</ele><time>2026-05-01T09:02:44.001Z</time></trkpt><trkpt lat="44.59762812830215" lon="8.874833171132664"><ele>584.0</ele><time>2026-05-01T09:02:45.001Z</time></trkpt><trkpt lat="44.59768772610369" lon="8.875003577554821"><ele>584.0</ele><time>2026-05-01T09:02:46.001Z</time></trkpt><trkpt lat="44.59778784551626" lon="8.875168821043085"><ele>581.5</ele><time>2026-05-01T09:02:47.001Z</time></trkpt><trkpt lat="44.59790015696653" lon="8.875295339127895"><ele>579.0</ele><time>2026-05-01T09:02:48.001Z</time></trkpt><trkpt lat="44.59801964461793" lon="8.875353628423207"><ele>576.5</ele><time>2026-05-01T09:02:49.001Z</time></trkpt><trkpt lat="44.5981310835548" lon="8.87536692968018"><ele>574.0</ele><time>2026-05-01T09:02:50.001Z</time></trkpt><trkpt lat="44.5982144483233" lon="8.87536411194535"><ele>574.0</ele><time>2026-05-01T09:02:51.001Z</time></trkpt><trkpt lat="44.598282759020336" lon="8.875376800292726"><ele>574.0</ele><time>2026-05-01T09:02:52.001Z</time></trkpt><trkpt lat="44.598379530191" lon="8.875447925133896"><ele>574.0</ele><time>2026-05-01T09:02:54Z</time></trkpt><trkpt lat="44.598416786041334" lon="8.875525872341775"><ele>574.0</ele><time>2026-05-01T09:02:55Z</time></trkpt><trkpt lat="44.59843503942797" lon="8.875647222060925"><ele>574.0</ele><time>2026-05-01T09:02:56Z</time></trkpt><trkpt lat="44.598434498168075" lon="8.875786471654337"><ele>574.0</ele><time>2026-05-01T09:02:57Z</time></trkpt><trkpt lat="44.598415440266116" lon="8.875933302815623"><ele>573.6</ele><time>2026-05-01T09:02:58Z</time></trkpt><trkpt lat="44.59838622896831" lon="8.876083641942222"><ele>573.2</ele><time>2026-05-01T09:02:59Z</time></trkpt><trkpt lat="44.598359950192" lon="8.876228611659316"><ele>572.8000000000001</ele><time>2026-05-01T09:03:00Z</time></trkpt><trkpt lat="44.59833174986007" lon="8.876374049135169"><ele>572.4</ele><time>2026-05-01T09:03:01Z</time></trkpt><trkpt lat="44.598303442181226" lon="8.876515969222469"><ele>572.0</ele><time>2026-05-01T09:03:02Z</time></trkpt><trkpt lat="44.59828198112675" lon="8.876656246497072"><ele>572.4</ele><time>2026-05-01T09:03:03Z</time></trkpt><trkpt lat="44.598268750460235" lon="8.876794682525494"><ele>572.8000000000001</ele><time>2026-05-01T09:03:04Z</time></trkpt><trkpt lat="44.5982686029997" lon="8.87693434390392"><ele>573.2</ele><time>2026-05-01T09:03:05Z</time></trkpt><trkpt lat="44.598294056597595" lon="8.877080286687242"><ele>573.6</ele><time>2026-05-01T09:03:06Z</time></trkpt><trkpt lat="44.59834226843752" lon="8.877232122706202"><ele>574.0</ele><time>2026-05-01T09:03:07Z</time></trkpt><trkpt lat="44.59840357588386" lon="8.87739147954836"><ele>574.0</ele><time>2026-05-01T09:03:08Z</time></trkpt><trkpt lat="44.59846321811594" lon="8.877551084485697"><ele>574.0</ele><time>2026-05-01T09:03:09Z</time></trkpt><trkpt lat="44.5985105764273" lon="8.877721996250473"><ele>574.0</ele><time>2026-05-01T09:03:10Z</time></trkpt><trkpt lat="44.598543562446714" lon="8.877901203521688"><ele>574.0</ele><time>2026-05-01T09:03:11Z</time></trkpt><trkpt lat="44.5985704516091" lon="8.878082262979365"><ele>573.0</ele><time>2026-05-01T09:03:12Z</time></trkpt><trkpt lat="44.59860600434019" lon="8.878263369781129"><ele>572.0</ele><time>2026-05-01T09:03:13Z</time></trkpt><trkpt lat="44.59867051423735" lon="8.878442510643971"><ele>571.0</ele><time>2026-05-01T09:03:14Z</time></trkpt><trkpt lat="44.59876969529799" lon="8.878602754541134"><ele>570.0</ele><time>2026-05-01T09:03:15Z</time></trkpt><trkpt lat="44.59887032258787" lon="8.878764936713067"><ele>570.0</ele><time>2026-05-01T09:03:16Z</time></trkpt><trkpt lat="44.5989552421348" lon="8.878956883299214"><ele>570.0</ele><time>2026-05-01T09:03:17Z</time></trkpt><trkpt lat="44.599018040046715" lon="8.87916004791589"><ele>570.0</ele><time>2026-05-01T09:03:18Z</time></trkpt><trkpt lat="44.59907240694888" lon="8.879354855993538"><ele>573.0</ele><time>2026-05-01T09:03:19Z</time></trkpt><trkpt lat="44.59912651632702" lon="8.879546312194641"><ele>576.0</ele><time>2026-05-01T09:03:20Z</time></trkpt><trkpt lat="44.599211189155945" lon="8.879735941754939"><ele>579.0</ele><time>2026-05-01T09:03:21Z</time></trkpt><trkpt lat="44.599325966773826" lon="8.879901873159143"><ele>579.0</ele><time>2026-05-01T09:03:22Z</time></trkpt><trkpt lat="44.59945668621078" lon="8.880037995836638"><ele>579.0</ele><time>2026-05-01T09:03:23Z</time></trkpt><trkpt lat="44.59957991629857" lon="8.880159476043083"><ele>579.0</ele><time>2026-05-01T09:03:24Z</time></trkpt><trkpt lat="44.59968504349201" lon="8.880285217981042"><ele>577.25</ele><time>2026-05-01T09:03:25Z</time></trkpt><trkpt lat="44.599769488316134" lon="8.8804209411752"><ele>575.5</ele><time>2026-05-01T09:03:26Z</time></trkpt><trkpt lat="44.5998075370473" lon="8.880586194591691"><ele>573.75</ele><time>2026-05-01T09:03:27Z</time></trkpt><trkpt lat="44.59986087025867" lon="8.880721925192102"><ele>572.0</ele><time>2026-05-01T09:03:28Z</time></trkpt><trkpt lat="44.59993706191509" lon="8.880828061044634"><ele>572.0</ele><time>2026-05-01T09:03:29Z</time></trkpt><trkpt lat="44.6000382218203" lon="8.880906650596021"><ele>572.0</ele><time>2026-05-01T09:03:30Z</time></trkpt><trkpt lat="44.60015724297141" lon="8.880937595339716"><ele>572.0</ele><time>2026-05-01T09:03:31Z</time></trkpt><trkpt lat="44.60027463829494" lon="8.880943194215007"><ele>572.0</ele><time>2026-05-01T09:03:32Z</time></trkpt><trkpt lat="44.60038189406467" lon="8.880969198199598"><ele>571.75</ele><time>2026-05-01T09:03:33Z</time></trkpt><trkpt lat="44.600479731714834" lon="8.881030442427255"><ele>571.5</ele><time>2026-05-01T09:03:34Z</time></trkpt><trkpt lat="44.600568951555026" lon="8.881130852450719"><ele>571.25</ele><time>2026-05-01T09:03:35Z</time></trkpt><trkpt lat="44.60063877760187" lon="8.88127930317753"><ele>571.0</ele><time>2026-05-01T09:03:36Z</time></trkpt><trkpt lat="44.60069045331635" lon="8.881438006387395"><ele>571.0</ele><time>2026-05-01T09:03:37Z</time></trkpt><trkpt lat="44.600731791931906" lon="8.881595231230166"><ele>571.0</ele><time>2026-05-01T09:03:38Z</time></trkpt><trkpt lat="44.600774471268195" lon="8.881752023954178"><ele>571.0</ele><time>2026-05-01T09:03:39Z</time></trkpt><trkpt lat="44.600818470573394" lon="8.881900604289736"><ele>571.0</ele><time>2026-05-01T09:03:40Z</time></trkpt><trkpt lat="44.600857500986585" lon="8.88204870667102"><ele>571.0</ele><time>2026-05-01T09:03:41Z</time></trkpt><trkpt lat="44.600895258884215" lon="8.882197669106096"><ele>571.0</ele><time>2026-05-01T09:03:42Z</time></trkpt><trkpt lat="44.60091998702896" lon="8.882353456395196"><ele>571.0</ele><time>2026-05-01T09:03:43Z</time></trkpt><trkpt lat="44.60091718115534" lon="8.882516952135276"><ele>571.0</ele><time>2026-05-01T09:03:44Z</time></trkpt><trkpt lat="44.60088817421705" lon="8.882687181033718"><ele>571.0</ele><time>2026-05-01T09:03:45Z</time></trkpt><trkpt lat="44.60083589440881" lon="8.882860345175397"><ele>571.0</ele><time>2026-05-01T09:03:46Z</time></trkpt><trkpt lat="44.60076335260696" lon="8.883040421593895"><ele>571.0</ele><time>2026-05-01T09:03:47Z</time></trkpt><trkpt lat="44.60068224694637" lon="8.883220388652306"><ele>571.0</ele><time>2026-05-01T09:03:48Z</time></trkpt><trkpt lat="44.60060462234917" lon="8.883402816788207"><ele>569.75</ele><time>2026-05-01T09:03:49Z</time></trkpt><trkpt lat="44.600531800268094" lon="8.883581919254325"><ele>568.5</ele><time>2026-05-01T09:03:50Z</time></trkpt><trkpt lat="44.600455161968256" lon="8.883762422862944"><ele>567.25</ele><time>2026-05-01T09:03:51Z</time></trkpt><trkpt lat="44.60037960945541" lon="8.88394556937194"><ele>566.0</ele><time>2026-05-01T09:03:52Z</time></trkpt><trkpt lat="44.6003074267337" lon="8.884124838755522"><ele>568.6666666666666</ele><time>2026-05-01T09:03:53Z</time></trkpt><trkpt lat="44.600233343468986" lon="8.884301330580419"><ele>571.3333333333334</ele><time>2026-05-01T09:03:54Z</time></trkpt><trkpt lat="44.60014968644022" lon="8.8844872940461"><ele>574.0</ele><time>2026-05-01T09:03:55Z</time></trkpt><trkpt lat="44.60006079725338" lon="8.884673341873834"><ele>574.0</ele><time>2026-05-01T09:03:56Z</time></trkpt><trkpt lat="44.599965159447876" lon="8.884846677474577"><ele>574.0</ele><time>2026-05-01T09:03:57Z</time></trkpt><trkpt lat="44.599849536398956" lon="8.885000668341805"><ele>574.0</ele><time>2026-05-01T09:03:58Z</time></trkpt><trkpt lat="44.59971425367116" lon="8.885143856797342"><ele>574.6666666666667</ele><time>2026-05-01T09:03:59Z</time></trkpt><trkpt lat="44.59957373801588" lon="8.885262479669018"><ele>575.3333333333334</ele><time>2026-05-01T09:04:00Z</time></trkpt><trkpt lat="44.5994377553137" lon="8.885389615643708"><ele>576.0</ele><time>2026-05-01T09:04:01Z</time></trkpt><trkpt lat="44.59933356813339" lon="8.885541404294328"><ele>576.0</ele><time>2026-05-01T09:04:02Z</time></trkpt><trkpt lat="44.599255624951816" lon="8.885705192816788"><ele>576.0</ele><time>2026-05-01T09:04:03Z</time></trkpt><trkpt lat="44.59916455127702" lon="8.885835914265375"><ele>576.0</ele><time>2026-05-01T09:04:04Z</time></trkpt><trkpt lat="44.5990491823741" lon="8.88590695157786"><ele>576.0</ele><time>2026-05-01T09:04:05Z</time></trkpt><trkpt lat="44.598911380234604" lon="8.88595620445312"><ele>576.0</ele><time>2026-05-01T09:04:06Z</time></trkpt><trkpt lat="44.59877022256581" lon="8.886007654983533"><ele>576.0</ele><time>2026-05-01T09:04:07Z</time></trkpt><trkpt lat="44.59863572156166" lon="8.886073500684304"><ele>576.0</ele><time>2026-05-01T09:04:08Z</time></trkpt><trkpt lat="44.598503133194356" lon="8.886160670268612"><ele>576.0</ele><time>2026-05-01T09:04:09Z</time></trkpt><trkpt lat="44.59838179843709" lon="8.88626053854449"><ele>576.0</ele><time>2026-05-01T09:04:10Z</time></trkpt><trkpt lat="44.59827742186392" lon="8.886364632600868"><ele>576.0</ele><time>2026-05-01T09:04:11Z</time></trkpt><trkpt lat="44.59818789742775" lon="8.886487772503637"><ele>576.0</ele><time>2026-05-01T09:04:12Z</time></trkpt><trkpt lat="44.598111786658826" lon="8.886635701216097"><ele>576.0</ele><time>2026-05-01T09:04:13Z</time></trkpt><trkpt lat="44.598055718347844" lon="8.88678425377109"><ele>574.0</ele><time>2026-05-01T09:04:14Z</time></trkpt><trkpt lat="44.598005307156036" lon="8.886937787312949"><ele>572.0</ele><time>2026-05-01T09:04:15Z</time></trkpt><trkpt lat="44.597955214198464" lon="8.88709625729562"><ele>570.0</ele><time>2026-05-01T09:04:16Z</time></trkpt><trkpt lat="44.597897863506695" lon="8.887259520621432"><ele>568.0</ele><time>2026-05-01T09:04:17Z</time></trkpt><trkpt lat="44.597830264849314" lon="8.887424262758506"><ele>570.25</ele><time>2026-05-01T09:04:18.001Z</time></trkpt><trkpt lat="44.59775467041365" lon="8.887585382817639"><ele>572.5</ele><time>2026-05-01T09:04:19.001Z</time></trkpt><trkpt lat="44.59767162445111" lon="8.887744508851105"><ele>574.75</ele><time>2026-05-01T09:04:20.001Z</time></trkpt><trkpt lat="44.59758537220316" lon="8.887893350511204"><ele>577.0</ele><time>2026-05-01T09:04:21.001Z</time></trkpt><trkpt lat="44.59750223380034" lon="8.888029112956199"><ele>577.0</ele><time>2026-05-01T09:04:22.001Z</time></trkpt><trkpt lat="44.59742765047541" lon="8.88815986515819"><ele>577.0</ele><time>2026-05-01T09:04:23.001Z</time></trkpt><trkpt lat="44.59737535102374" lon="8.888287010072634"><ele>577.0</ele><time>2026-05-01T09:04:24.001Z</time></trkpt><trkpt lat="44.59735376418095" lon="8.888423501131282"><ele>577.0</ele><time>2026-05-01T09:04:25.001Z</time></trkpt><trkpt lat="44.59737358335583" lon="8.888577608898874"><ele>577.0</ele><time>2026-05-01T09:04:26.001Z</time></trkpt><trkpt lat="44.59741711801782" lon="8.888757180977748"><ele>576.25</ele><time>2026-05-01T09:04:27.001Z</time></trkpt><trkpt lat="44.59746818116656" lon="8.888945430492653"><ele>575.5</ele><time>2026-05-01T09:04:28.001Z</time></trkpt><trkpt lat="44.597502336218966" lon="8.889138200905313"><ele>574.75</ele><time>2026-05-01T09:04:29.001Z</time></trkpt><trkpt lat="44.597506175519925" lon="8.889347621504143"><ele>574.0</ele><time>2026-05-01T09:04:30.001Z</time></trkpt><trkpt lat="44.597489953889514" lon="8.889558652197849"><ele>573.5</ele><time>2026-05-01T09:04:31.001Z</time></trkpt><trkpt lat="44.59746501338447" lon="8.889753603274274"><ele>573.0</ele><time>2026-05-01T09:04:32.001Z</time></trkpt><trkpt lat="44.5974388560428" lon="8.889947198052642"><ele>572.5</ele><time>2026-05-01T09:04:33.001Z</time></trkpt><trkpt lat="44.597411079064095" lon="8.890135790266395"><ele>572.0</ele><time>2026-05-01T09:04:34.001Z</time></trkpt><trkpt lat="44.5973608723729" lon="8.890312139176196"><ele>572.0</ele><time>2026-05-01T09:04:35.001Z</time></trkpt><trkpt lat="44.59727713600217" lon="8.890493286214857"><ele>572.0</ele><time>2026-05-01T09:04:36.001Z</time></trkpt><trkpt lat="44.5971687850192" lon="8.89065964639818"><ele>572.0</ele><time>2026-05-01T09:04:37.001Z</time></trkpt><trkpt lat="44.59707331399642" lon="8.890834981735072"><ele>565.0</ele><time>2026-05-01T09:04:38.001Z</time></trkpt><trkpt lat="44.596997905906875" lon="8.891016302235371"><ele>558.0</ele><time>2026-05-01T09:04:39.001Z</time></trkpt><trkpt lat="44.59693188273808" lon="8.891197606862885"><ele>551.0</ele><time>2026-05-01T09:04:40.001Z</time></trkpt><trkpt lat="44.59687591660798" lon="8.891394671489634"><ele>544.0</ele><time>2026-05-01T09:04:41.001Z</time></trkpt><trkpt lat="44.59684154189708" lon="8.891626199627154"><ele>542.6666666666667</ele><time>2026-05-01T09:04:42.001Z</time></trkpt><trkpt lat="44.596824469933935" lon="8.891865013783999"><ele>541.3333333333334</ele><time>2026-05-01T09:04:43.001Z</time></trkpt><trkpt lat="44.59680905430862" lon="8.892076757385995"><ele>540.0</ele><time>2026-05-01T09:04:44.001Z</time></trkpt><trkpt lat="44.5968009147677" lon="8.892260153778706"><ele>540.0</ele><time>2026-05-01T09:04:45.001Z</time></trkpt><trkpt lat="44.596813905348476" lon="8.89243628056184"><ele>540.0</ele><time>2026-05-01T09:04:46.001Z</time></trkpt><trkpt lat="44.59686909806258" lon="8.892613258006541"><ele>540.0</ele><time>2026-05-01T09:04:47.001Z</time></trkpt><trkpt lat="44.59695502638802" lon="8.892786393390013"><ele>540.0</ele><time>2026-05-01T09:04:48.001Z</time></trkpt><trkpt lat="44.59705190579893" lon="8.892916862273882"><ele>539.5</ele><time>2026-05-01T09:04:49.001Z</time></trkpt><trkpt lat="44.59713254227208" lon="8.893030432237122"><ele>539.0</ele><time>2026-05-01T09:04:50.001Z</time></trkpt><trkpt lat="44.59723543266912" lon="8.893120297977239"><ele>538.5</ele><time>2026-05-01T09:04:51.001Z</time></trkpt><trkpt lat="44.597361979767605" lon="8.893172556432736"><ele>538.0</ele><time>2026-05-01T09:04:52.001Z</time></trkpt><trkpt lat="44.59750319930706" lon="8.893215458305766"><ele>538.0</ele><time>2026-05-01T09:04:53.001Z</time></trkpt><trkpt lat="44.5976448712005" lon="8.893272644410967"><ele>538.0</ele><time>2026-05-01T09:04:54.001Z</time></trkpt><trkpt lat="44.597778022274014" lon="8.893361236159208"><ele>538.0</ele><time>2026-05-01T09:04:55.001Z</time></trkpt><trkpt lat="44.597903051557125" lon="8.893488786252288"><ele>538.0</ele><time>2026-05-01T09:04:56.001Z</time></trkpt><trkpt lat="44.59803325403979" lon="8.893630592654208"><ele>535.3333333333334</ele><time>2026-05-01T09:04:57.001Z</time></trkpt><trkpt lat="44.59816016170389" lon="8.893777816891209"><ele>532.6666666666666</ele><time>2026-05-01T09:04:58.001Z</time></trkpt><trkpt lat="44.59828806158146" lon="8.89392998490598"><ele>530.0</ele><time>2026-05-01T09:04:59.001Z</time></trkpt><trkpt lat="44.59841838402125" lon="8.894081698423863"><ele>530.0</ele><time>2026-05-01T09:05:00Z</time></trkpt><trkpt lat="44.59853664801969" lon="8.89423243088224"><ele>530.0</ele><time>2026-05-01T09:05:01Z</time></trkpt><trkpt lat="44.59863545121904" lon="8.894398971827608"><ele>530.0</ele><time>2026-05-01T09:05:02Z</time></trkpt><trkpt lat="44.5987042735392" lon="8.894575080296685"><ele>530.0</ele><time>2026-05-01T09:05:03Z</time></trkpt><trkpt lat="44.59874738796466" lon="8.894743210408263"><ele>530.0</ele><time>2026-05-01T09:05:04Z</time></trkpt><trkpt lat="44.598808713775604" lon="8.894891107439433"><ele>530.0</ele><time>2026-05-01T09:05:05Z</time></trkpt><trkpt lat="44.5989072121236" lon="8.895019157988909"><ele>530.0</ele><time>2026-05-01T09:05:06Z</time></trkpt><trkpt lat="44.59903005249368" lon="8.895142424222305"><ele>526.5</ele><time>2026-05-01T09:05:07Z</time></trkpt><trkpt lat="44.59915293275197" lon="8.895246569225838"><ele>523.0</ele><time>2026-05-01T09:05:08Z</time></trkpt><trkpt lat="44.59925622448997" lon="8.895365554651104"><ele>519.5</ele><time>2026-05-01T09:05:09Z</time></trkpt><trkpt lat="44.599336324344726" lon="8.895521542735974"><ele>516.0</ele><time>2026-05-01T09:05:10Z</time></trkpt><trkpt lat="44.5994125750996" lon="8.895705976604082"><ele>516.0</ele><time>2026-05-01T09:05:11Z</time></trkpt><trkpt lat="44.59947860740911" lon="8.895898030303435"><ele>516.0</ele><time>2026-05-01T09:05:12Z</time></trkpt><trkpt lat="44.59951990101541" lon="8.896092039558999"><ele>516.0</ele><time>2026-05-01T09:05:13Z</time></trkpt><trkpt lat="44.59952689363812" lon="8.896287042534087"><ele>516.0</ele><time>2026-05-01T09:05:14Z</time></trkpt><trkpt lat="44.59951100621336" lon="8.896473817515831"><ele>514.5</ele><time>2026-05-01T09:05:15Z</time></trkpt><trkpt lat="44.59946638945531" lon="8.896656399253072"><ele>513.0</ele><time>2026-05-01T09:05:16Z</time></trkpt><trkpt lat="44.59940067348334" lon="8.896845287731571"><ele>511.5</ele><time>2026-05-01T09:05:17Z</time></trkpt><trkpt lat="44.599327344547" lon="8.897014751965482"><ele>510.0</ele><time>2026-05-01T09:05:18Z</time></trkpt><trkpt lat="44.59926521157068" lon="8.897161186822245"><ele>509.6</ele><time>2026-05-01T09:05:19Z</time></trkpt><trkpt lat="44.59921817938369" lon="8.897294674184472"><ele>509.2</ele><time>2026-05-01T09:05:20Z</time></trkpt><trkpt lat="44.5991976899809" lon="8.89742475268024"><ele>508.79999999999995</ele><time>2026-05-01T09:05:21Z</time></trkpt><trkpt lat="44.59921690353112" lon="8.897561111013609"><ele>508.4</ele><time>2026-05-01T09:05:22Z</time></trkpt><trkpt lat="44.59927745262585" lon="8.897692314785028"><ele>508.0</ele><time>2026-05-01T09:05:23Z</time></trkpt><trkpt lat="44.59935508582017" lon="8.897803659331986"><ele>505.75</ele><time>2026-05-01T09:05:24Z</time></trkpt><trkpt lat="44.59940618371169" lon="8.897931046856138"><ele>503.5</ele><time>2026-05-01T09:05:25Z</time></trkpt><trkpt lat="44.5994147929582" lon="8.898087961010466"><ele>501.25</ele><time>2026-05-01T09:05:26Z</time></trkpt><trkpt lat="44.599398213794316" lon="8.898263321438467"><ele>499.0</ele><time>2026-05-01T09:05:27Z</time></trkpt><trkpt lat="44.59938792523185" lon="8.898442379531131"><ele>497.0</ele><time>2026-05-01T09:05:28Z</time></trkpt><trkpt lat="44.59940231188619" lon="8.898637563159937"><ele>495.0</ele><time>2026-05-01T09:05:29Z</time></trkpt><trkpt lat="44.59944549798168" lon="8.89884108676221"><ele>493.0</ele><time>2026-05-01T09:05:30Z</time></trkpt><trkpt lat="44.599503959385515" lon="8.89903822492215"><ele>491.0</ele><time>2026-05-01T09:05:31Z</time></trkpt><trkpt lat="44.599557856187666" lon="8.899216815072759"><ele>493.5</ele><time>2026-05-01T09:05:32Z</time></trkpt><trkpt lat="44.599613075391105" lon="8.899397624614643"><ele>496.0</ele><time>2026-05-01T09:05:33Z</time></trkpt><trkpt lat="44.599671476764144" lon="8.899576123399962"><ele>498.5</ele><time>2026-05-01T09:05:34Z</time></trkpt><trkpt lat="44.599729853908215" lon="8.899743923706357"><ele>501.0</ele><time>2026-05-01T09:05:35Z</time></trkpt><trkpt lat="44.599786610190186" lon="8.899902098833335"><ele>501.0</ele><time>2026-05-01T09:05:36Z</time></trkpt><trkpt lat="44.59985471277869" lon="8.900036975699248"><ele>501.0</ele><time>2026-05-01T09:05:37Z</time></trkpt><trkpt lat="44.599941496970864" lon="8.90013736422432"><ele>501.0</ele><time>2026-05-01T09:05:38Z</time></trkpt><trkpt lat="44.600043963326144" lon="8.900190853770077"><ele>501.0</ele><time>2026-05-01T09:05:39Z</time></trkpt><trkpt lat="44.60014960641348" lon="8.90019979813767"><ele>501.0</ele><time>2026-05-01T09:05:40Z</time></trkpt><trkpt lat="44.60024646033743" lon="8.900187644113494"><ele>498.6666666666667</ele><time>2026-05-01T09:05:41Z</time></trkpt><trkpt lat="44.60031885898224" lon="8.900181900977834"><ele>496.33333333333337</ele><time>2026-05-01T09:05:42Z</time></trkpt><trkpt lat="44.600381641085" lon="8.900229751584456"><ele>494.0</ele><time>2026-05-01T09:05:43Z</time></trkpt><trkpt lat="44.600420676202255" lon="8.900322504083734"><ele>491.6666666666667</ele><time>2026-05-01T09:05:44Z</time></trkpt><trkpt lat="44.600417317225734" lon="8.900431884449368"><ele>489.33333333333337</ele><time>2026-05-01T09:05:45Z</time></trkpt><trkpt lat="44.60037478926423" lon="8.900522739654726"><ele>487.0</ele><time>2026-05-01T09:05:46Z</time></trkpt><trkpt lat="44.6002889617682" lon="8.900600260274398"><ele>487.0</ele><time>2026-05-01T09:05:47Z</time></trkpt><trkpt lat="44.600165759269615" lon="8.900661918078479"><ele>487.0</ele><time>2026-05-01T09:05:48Z</time></trkpt><trkpt lat="44.60002438544563" lon="8.900701456634888"><ele>487.0</ele><time>2026-05-01T09:05:49Z</time></trkpt><trkpt lat="44.599882201701114" lon="8.900743229478621"><ele>487.0</ele><time>2026-05-01T09:05:50Z</time></trkpt><trkpt lat="44.599737196637946" lon="8.900791005760532"><ele>487.0</ele><time>2026-05-01T09:05:51Z</time></trkpt><trkpt lat="44.59960092133624" lon="8.900832946123627"><ele>487.0</ele><time>2026-05-01T09:05:52Z</time></trkpt><trkpt lat="44.59947144837547" lon="8.900864077204059"><ele>487.0</ele><time>2026-05-01T09:05:53Z</time></trkpt><trkpt lat="44.599353320009186" lon="8.900871019588935"><ele>487.0</ele><time>2026-05-01T09:05:54Z</time></trkpt><trkpt lat="44.599248528585264" lon="8.900831056988105"><ele>486.20000000000005</ele><time>2026-05-01T09:05:55Z</time></trkpt><trkpt lat="44.59916028047482" lon="8.900750787375683"><ele>485.40000000000003</ele><time>2026-05-01T09:05:56Z</time></trkpt><trkpt lat="44.599085678819" lon="8.900644531343382"><ele>484.59999999999997</ele><time>2026-05-01T09:05:57Z</time></trkpt><trkpt lat="44.599037689108854" lon="8.900517208577586"><ele>483.79999999999995</ele><time>2026-05-01T09:05:58Z</time></trkpt><trkpt lat="44.599009854190996" lon="8.900365344648831"><ele>483.0</ele><time>2026-05-01T09:05:59Z</time></trkpt><trkpt lat="44.598999675043004" lon="8.900200841168887"><ele>484.3333333333333</ele><time>2026-05-01T09:06:00Z</time></trkpt><trkpt lat="44.59900324414442" lon="8.900060422909222"><ele>485.66666666666663</ele><time>2026-05-01T09:06:01Z</time></trkpt><trkpt lat="44.59900466937776" lon="8.899955212732099"><ele>487.0</ele><time>2026-05-01T09:06:02Z</time></trkpt><trkpt lat="44.598997162695824" lon="8.899832207045833"><ele>488.3333333333333</ele><time>2026-05-01T09:06:04Z</time></trkpt><trkpt lat="44.5989843301463" lon="8.899675628568993"><ele>489.66666666666663</ele><time>2026-05-01T09:06:27.001Z</time></trkpt><trkpt lat="44.59895799553898" lon="8.899580441108274"><ele>491.0</ele><time>2026-05-01T09:06:28.001Z</time></trkpt><trkpt lat="44.59891233962244" lon="8.899501308058584"><ele>490.99999999999994</ele><time>2026-05-01T09:06:29.001Z</time></trkpt><trkpt lat="44.59885349201676" lon="8.899449424857483"><ele>491.0</ele><time>2026-05-01T09:06:30.001Z</time></trkpt><trkpt lat="44.598782795936685" lon="8.899424236088178"><ele>491.0</ele><time>2026-05-01T09:06:31.001Z</time></trkpt><trkpt lat="44.59870753390764" lon="8.899431152622979"><ele>491.0</ele><time>2026-05-01T09:06:32.001Z</time></trkpt><trkpt lat="44.59862175129556" lon="8.899482377900425"><ele>490.99999999999994</ele><time>2026-05-01T09:06:33.001Z</time></trkpt><trkpt lat="44.59854387345893" lon="8.899568812345917"><ele>491.0</ele><time>2026-05-01T09:06:34.001Z</time></trkpt><trkpt lat="44.59848859111993" lon="8.89967970828403"><ele>483.5</ele><time>2026-05-01T09:06:35.001Z</time></trkpt><trkpt lat="44.598455507968175" lon="8.899828272698075"><ele>476.0</ele><time>2026-05-01T09:06:36.001Z</time></trkpt><trkpt lat="44.59846195754151" lon="8.899993731103175"><ele>468.5</ele><time>2026-05-01T09:06:37.001Z</time></trkpt><trkpt lat="44.598503332784475" lon="8.90018051611974"><ele>461.0</ele><time>2026-05-01T09:06:38.001Z</time></trkpt><trkpt lat="44.59856969535962" lon="8.900382729588012"><ele>458.66666666666663</ele><time>2026-05-01T09:06:39.001Z</time></trkpt><trkpt lat="44.598631973982" lon="8.900588498237685"><ele>456.33333333333337</ele><time>2026-05-01T09:06:40.001Z</time></trkpt><trkpt lat="44.59866480452702" lon="8.900804381516457"><ele>454.0</ele><time>2026-05-01T09:06:41.001Z</time></trkpt><trkpt lat="44.598664201088994" lon="8.901035772571841"><ele>451.6666666666667</ele><time>2026-05-01T09:06:42.001Z</time></trkpt><trkpt lat="44.598639415279266" lon="8.901285085151512"><ele>449.33333333333337</ele><time>2026-05-01T09:06:43.001Z</time></trkpt><trkpt lat="44.59860068445797" lon="8.901542866901146"><ele>447.0</ele><time>2026-05-01T09:06:44.001Z</time></trkpt><trkpt lat="44.5985558304616" lon="8.901809170709036"><ele>446.0</ele><time>2026-05-01T09:06:45.001Z</time></trkpt><trkpt lat="44.59850446626763" lon="8.902063669886326"><ele>445.0</ele><time>2026-05-01T09:06:46.001Z</time></trkpt><trkpt lat="44.598449475649765" lon="8.902270279260042"><ele>444.0</ele><time>2026-05-01T09:06:47.001Z</time></trkpt><trkpt lat="44.59840311790526" lon="8.902443394726959"><ele>443.0</ele><time>2026-05-01T09:06:48.001Z</time></trkpt><trkpt lat="44.59838533175008" lon="8.902587348229694"><ele>442.0</ele><time>2026-05-01T09:06:49.001Z</time></trkpt><trkpt lat="44.598410822097826" lon="8.902728286424855"><ele>441.0</ele><time>2026-05-01T09:06:50.001Z</time></trkpt><trkpt lat="44.59846875475703" lon="8.902844073931647"><ele>440.0</ele><time>2026-05-01T09:06:51.001Z</time></trkpt><trkpt lat="44.59856123938739" lon="8.902903313352722"><ele>439.0</ele><time>2026-05-01T09:06:52.001Z</time></trkpt><trkpt lat="44.59867863891627" lon="8.90290220450727"><ele>439.0</ele><time>2026-05-01T09:06:53.001Z</time></trkpt><trkpt lat="44.59881600813317" lon="8.9028589389859"><ele>439.0</ele><time>2026-05-01T09:06:54.001Z</time></trkpt><trkpt lat="44.598965004951424" lon="8.902787923888901"><ele>439.0</ele><time>2026-05-01T09:06:55.001Z</time></trkpt><trkpt lat="44.599098231065" lon="8.902737087906218"><ele>439.0</ele><time>2026-05-01T09:06:56.001Z</time></trkpt><trkpt lat="44.599228968849985" lon="8.902725544398805"><ele>439.0</ele><time>2026-05-01T09:06:57.001Z</time></trkpt><trkpt lat="44.59935679717903" lon="8.902758226506032"><ele>439.0</ele><time>2026-05-01T09:06:58.001Z</time></trkpt><trkpt lat="44.599482802361884" lon="8.902830472807327"><ele>439.0</ele><time>2026-05-01T09:06:59.001Z</time></trkpt><trkpt lat="44.599585929658325" lon="8.902925233832379"><ele>439.0</ele><time>2026-05-01T09:07:00.001Z</time></trkpt><trkpt lat="44.59966560313679" lon="8.903053385055795"><ele>440.75</ele><time>2026-05-01T09:07:01.001Z</time></trkpt><trkpt lat="44.599716377836394" lon="8.903225754751668"><ele>442.5</ele><time>2026-05-01T09:07:02.001Z</time></trkpt><trkpt lat="44.59973812369551" lon="8.903407114981817"><ele>444.25</ele><time>2026-05-01T09:07:03.001Z</time></trkpt><trkpt lat="44.599733071220825" lon="8.903559633107431"><ele>446.0</ele><time>2026-05-01T09:07:04.001Z</time></trkpt><trkpt lat="44.59969237616172" lon="8.90369606166107"><ele>448.25</ele><time>2026-05-01T09:07:05.001Z</time></trkpt><trkpt lat="44.59960605837147" lon="8.903805074949338"><ele>450.5</ele><time>2026-05-01T09:07:06Z</time></trkpt><trkpt lat="44.59948529400899" lon="8.903887518403387"><ele>452.75</ele><time>2026-05-01T09:07:07Z</time></trkpt><trkpt lat="44.599340768737456" lon="8.903939613682569"><ele>455.0</ele><time>2026-05-01T09:07:08Z</time></trkpt><trkpt lat="44.5992039071723" lon="8.904017491402936"><ele>449.75</ele><time>2026-05-01T09:07:09Z</time></trkpt><trkpt lat="44.59908926332655" lon="8.904140250019232"><ele>444.5</ele><time>2026-05-01T09:07:10Z</time></trkpt><trkpt lat="44.59899488837745" lon="8.904294579576932"><ele>439.25</ele><time>2026-05-01T09:07:11Z</time></trkpt><trkpt lat="44.5989374712764" lon="8.904500457517887"><ele>434.0</ele><time>2026-05-01T09:07:12Z</time></trkpt><trkpt lat="44.59891738497552" lon="8.90473123677911"><ele>434.0</ele><time>2026-05-01T09:07:13Z</time></trkpt><trkpt lat="44.59892823916231" lon="8.904989746901899"><ele>434.0</ele><time>2026-05-01T09:07:14Z</time></trkpt><trkpt lat="44.59894838887991" lon="8.905239757928086"><ele>434.0</ele><time>2026-05-01T09:07:15Z</time></trkpt><trkpt lat="44.59895347938982" lon="8.905482002437834"><ele>430.3333333333333</ele><time>2026-05-01T09:07:16Z</time></trkpt><trkpt lat="44.598930172136846" lon="8.905717828600764"><ele>426.66666666666663</ele><time>2026-05-01T09:07:17Z</time></trkpt><trkpt lat="44.59889275208416" lon="8.90595862130782"><ele>423.0</ele><time>2026-05-01T09:07:18Z</time></trkpt><trkpt lat="44.598865009744664" lon="8.906208802962512"><ele>422.33333333333337</ele><time>2026-05-01T09:07:19Z</time></trkpt><trkpt lat="44.598860948760255" lon="8.906468465579255"><ele>421.6666666666667</ele><time>2026-05-01T09:07:20Z</time></trkpt><trkpt lat="44.59888225973466" lon="8.906729700791551"><ele>421.0</ele><time>2026-05-01T09:07:21Z</time></trkpt><trkpt lat="44.59891630055855" lon="8.906968122288385"><ele>421.0</ele><time>2026-05-01T09:07:22Z</time></trkpt><trkpt lat="44.59893133018726" lon="8.907185430126187"><ele>421.0</ele><time>2026-05-01T09:07:23Z</time></trkpt><trkpt lat="44.598927994634366" lon="8.907396958719684"><ele>421.0</ele><time>2026-05-01T09:07:24Z</time></trkpt><trkpt lat="44.5989038351393" lon="8.907626689349227"><ele>421.33333333333337</ele><time>2026-05-01T09:07:25Z</time></trkpt><trkpt lat="44.598857829562476" lon="8.907864474498712"><ele>421.66666666666663</ele><time>2026-05-01T09:07:26Z</time></trkpt><trkpt lat="44.5988133233763" lon="8.908108154216398"><ele>422.0</ele><time>2026-05-01T09:07:27Z</time></trkpt><trkpt lat="44.59877750680327" lon="8.908351143332114"><ele>422.3333333333333</ele><time>2026-05-01T09:07:28Z</time></trkpt><trkpt lat="44.598745061671735" lon="8.908594623868986"><ele>422.66666666666663</ele><time>2026-05-01T09:07:29Z</time></trkpt><trkpt lat="44.598708026051135" lon="8.908846743708484"><ele>423.0</ele><time>2026-05-01T09:07:30Z</time></trkpt><trkpt lat="44.598673043346224" lon="8.909098706905633"><ele>421.33333333333337</ele><time>2026-05-01T09:07:31Z</time></trkpt><trkpt lat="44.59863506732935" lon="8.909351440638098"><ele>419.6666666666667</ele><time>2026-05-01T09:07:32Z</time></trkpt><trkpt lat="44.59859862221683" lon="8.909608358491875"><ele>418.0</ele><time>2026-05-01T09:07:33Z</time></trkpt><trkpt lat="44.59855728669655" lon="8.909853362915047"><ele>419.0</ele><time>2026-05-01T09:07:34Z</time></trkpt><trkpt lat="44.598514206899644" lon="8.91007823248409"><ele>420.0</ele><time>2026-05-01T09:07:35Z</time></trkpt><trkpt lat="44.59846890322408" lon="8.910290218107104"><ele>421.0</ele><time>2026-05-01T09:07:36Z</time></trkpt><trkpt lat="44.598409489827596" lon="8.910488367138235"><ele>421.0</ele><time>2026-05-01T09:07:37Z</time></trkpt><trkpt lat="44.59832856870107" lon="8.91067786986316"><ele>421.0</ele><time>2026-05-01T09:07:38Z</time></trkpt><trkpt lat="44.598237889578044" lon="8.910866146192022"><ele>421.0</ele><time>2026-05-01T09:07:39Z</time></trkpt><trkpt lat="44.59813887005552" lon="8.911056514489266"><ele>424.0</ele><time>2026-05-01T09:07:40Z</time></trkpt><trkpt lat="44.59802966575359" lon="8.91123633708648"><ele>427.0</ele><time>2026-05-01T09:07:41Z</time></trkpt><trkpt lat="44.59791064048699" lon="8.911410087738288"><ele>430.0</ele><time>2026-05-01T09:07:42Z</time></trkpt><trkpt lat="44.59779871278365" lon="8.911578988853181"><ele>425.0</ele><time>2026-05-01T09:07:43Z</time></trkpt><trkpt lat="44.59769670780036" lon="8.91174107705467"><ele>420.0</ele><time>2026-05-01T09:07:44Z</time></trkpt><trkpt lat="44.597600288698345" lon="8.911890501654202"><ele>415.0</ele><time>2026-05-01T09:07:45Z</time></trkpt><trkpt lat="44.59750715643847" lon="8.912034106738348"><ele>410.0</ele><time>2026-05-01T09:07:46Z</time></trkpt><trkpt lat="44.59741794430438" lon="8.912168219745318"><ele>410.0</ele><time>2026-05-01T09:07:47Z</time></trkpt><trkpt lat="44.59732858295676" lon="8.912304520585748"><ele>410.0</ele><time>2026-05-01T09:07:48Z</time></trkpt><trkpt lat="44.597250467417076" lon="8.912439823661238"><ele>410.0</ele><time>2026-05-01T09:07:49Z</time></trkpt><trkpt lat="44.59716214027338" lon="8.912563748580748"><ele>410.0</ele><time>2026-05-01T09:07:50Z</time></trkpt><trkpt lat="44.597067906639104" lon="8.91269420234517"><ele>409.5</ele><time>2026-05-01T09:07:51Z</time></trkpt><trkpt lat="44.5969804418523" lon="8.912840728871496"><ele>409.0</ele><time>2026-05-01T09:07:52Z</time></trkpt><trkpt lat="44.59687994684705" lon="8.912984708872209"><ele>408.5</ele><time>2026-05-01T09:07:53Z</time></trkpt><trkpt lat="44.596779257733566" lon="8.91314007735746"><ele>408.0</ele><time>2026-05-01T09:07:54Z</time></trkpt><trkpt lat="44.596672273311306" lon="8.913292451657199"><ele>415.33333333333337</ele><time>2026-05-01T09:07:55Z</time></trkpt><trkpt lat="44.596555963429374" lon="8.91344408881986"><ele>422.6666666666667</ele><time>2026-05-01T09:07:56Z</time></trkpt><trkpt lat="44.59644021940527" lon="8.913596577128688"><ele>430.0</ele><time>2026-05-01T09:07:57Z</time></trkpt><trkpt lat="44.59632723215759" lon="8.91374807341401"><ele>430.0</ele><time>2026-05-01T09:07:58Z</time></trkpt><trkpt lat="44.5961801121273" lon="8.913833693797201"><ele>430.0</ele><time>2026-05-01T09:07:59Z</time></trkpt><trkpt lat="44.59602964204715" lon="8.913884442323939"><ele>430.0</ele><time>2026-05-01T09:08:00Z</time></trkpt><trkpt lat="44.59588342763386" lon="8.913920732057727"><ele>427.75</ele><time>2026-05-01T09:08:01Z</time></trkpt><trkpt lat="44.59574986941781" lon="8.913964359056534"><ele>425.5</ele><time>2026-05-01T09:08:02Z</time></trkpt><trkpt lat="44.595630959380976" lon="8.914030171627967"><ele>423.25</ele><time>2026-05-01T09:08:03Z</time></trkpt><trkpt lat="44.59551416630787" lon="8.914149446316301"><ele>421.0</ele><time>2026-05-01T09:08:04Z</time></trkpt><trkpt lat="44.59540993862603" lon="8.914301241298185"><ele>416.33333333333337</ele><time>2026-05-01T09:08:05Z</time></trkpt><trkpt lat="44.595331340228256" lon="8.914493318359808"><ele>411.66666666666663</ele><time>2026-05-01T09:08:06Z</time></trkpt><trkpt lat="44.59528233152494" lon="8.91471681443692"><ele>407.0</ele><time>2026-05-01T09:08:07Z</time></trkpt><trkpt lat="44.595250860513154" lon="8.914969420619512"><ele>408.3333333333333</ele><time>2026-05-01T09:08:08Z</time></trkpt><trkpt lat="44.59521895682692" lon="8.915217894830763"><ele>409.66666666666663</ele><time>2026-05-01T09:08:09Z</time></trkpt><trkpt lat="44.59517312132338" lon="8.915436924587052"><ele>411.0</ele><time>2026-05-01T09:08:10Z</time></trkpt><trkpt lat="44.59506997345708" lon="8.915632379635266"><ele>411.0</ele><time>2026-05-01T09:08:11Z</time></trkpt><trkpt lat="44.59497307708713" lon="8.915857079761764"><ele>411.0</ele><time>2026-05-01T09:08:12Z</time></trkpt><trkpt lat="44.59489025707016" lon="8.91608943073514"><ele>411.0</ele><time>2026-05-01T09:08:13Z</time></trkpt><trkpt lat="44.59479327259426" lon="8.916312020475543"><ele>409.0</ele><time>2026-05-01T09:08:14Z</time></trkpt><trkpt lat="44.594689190376194" lon="8.916529970730863"><ele>407.0</ele><time>2026-05-01T09:08:15Z</time></trkpt><trkpt lat="44.59456125149992" lon="8.916720853105723"><ele>405.0</ele><time>2026-05-01T09:08:16Z</time></trkpt><trkpt lat="44.59439314551473" lon="8.916868001616963"><ele>405.0</ele><time>2026-05-01T09:08:17Z</time></trkpt><trkpt lat="44.594238570777975" lon="8.917044875848902"><ele>405.0</ele><time>2026-05-01T09:08:18Z</time></trkpt><trkpt lat="44.59409578639778" lon="8.917241179415385"><ele>405.0</ele><time>2026-05-01T09:08:19Z</time></trkpt><trkpt lat="44.593945200031634" lon="8.917415396162038"><ele>408.66666666666663</ele><time>2026-05-01T09:08:20Z</time></trkpt><trkpt lat="44.59379581099684" lon="8.917591245228415"><ele>412.3333333333333</ele><time>2026-05-01T09:08:21Z</time></trkpt><trkpt lat="44.59365478553281" lon="8.917757376275839"><ele>416.0</ele><time>2026-05-01T09:08:22Z</time></trkpt><trkpt lat="44.59352021676407" lon="8.917918906307525"><ele>408.3333333333333</ele><time>2026-05-01T09:08:23Z</time></trkpt><trkpt lat="44.59339813471455" lon="8.91806356702177"><ele>400.66666666666663</ele><time>2026-05-01T09:08:24Z</time></trkpt><trkpt lat="44.59328682053277" lon="8.91820295794838"><ele>393.0</ele><time>2026-05-01T09:08:25Z</time></trkpt><trkpt lat="44.59319702010805" lon="8.91835813423827"><ele>395.66666666666663</ele><time>2026-05-01T09:08:26Z</time></trkpt><trkpt lat="44.59314006011578" lon="8.918546239649418"><ele>398.3333333333333</ele><time>2026-05-01T09:08:27Z</time></trkpt><trkpt lat="44.593122874656956" lon="8.918761408417863"><ele>401.0</ele><time>2026-05-01T09:08:28Z</time></trkpt><trkpt lat="44.593138740301704" lon="8.918997789900104"><ele>404.3333333333333</ele><time>2026-05-01T09:08:29Z</time></trkpt><trkpt lat="44.593186680448234" lon="8.91923480291431"><ele>407.66666666666663</ele><time>2026-05-01T09:08:30Z</time></trkpt><trkpt lat="44.59321150872" lon="8.919448467322225"><ele>411.0</ele><time>2026-05-01T09:08:31.001Z</time></trkpt><trkpt lat="44.5932201969707" lon="8.919639420188767"><ele>411.0</ele><time>2026-05-01T09:08:32.001Z</time></trkpt><trkpt lat="44.59318902338626" lon="8.919832718449229"><ele>411.0</ele><time>2026-05-01T09:08:33.001Z</time></trkpt><trkpt lat="44.59311959498717" lon="8.920031885094412"><ele>411.0</ele><time>2026-05-01T09:08:34.001Z</time></trkpt><trkpt lat="44.5930208496152" lon="8.920231786297277"><ele>414.33333333333337</ele><time>2026-05-01T09:08:35.001Z</time></trkpt><trkpt lat="44.59293329011988" lon="8.920433592065406"><ele>417.6666666666667</ele><time>2026-05-01T09:08:36.001Z</time></trkpt><trkpt lat="44.592860427848734" lon="8.920625361183514"><ele>421.0</ele><time>2026-05-01T09:08:37.001Z</time></trkpt><trkpt lat="44.59282150288006" lon="8.920837340525559"><ele>410.6666666666667</ele><time>2026-05-01T09:08:38.001Z</time></trkpt><trkpt lat="44.59278783152795" lon="8.921054809260957"><ele>400.33333333333337</ele><time>2026-05-01T09:08:39.001Z</time></trkpt><trkpt lat="44.59272768796734" lon="8.921261953841741"><ele>390.0</ele><time>2026-05-01T09:08:40.001Z</time></trkpt><trkpt lat="44.592683107089165" lon="8.921472624393672"><ele>390.0</ele><time>2026-05-01T09:08:41.001Z</time></trkpt><trkpt lat="44.59263989037844" lon="8.921680326676736"><ele>390.0</ele><time>2026-05-01T09:08:42.001Z</time></trkpt><trkpt lat="44.592600169373185" lon="8.921877355425629"><ele>390.0</ele><time>2026-05-01T09:08:43.001Z</time></trkpt><trkpt lat="44.59256283564146" lon="8.922065232339628"><ele>390.0</ele><time>2026-05-01T09:08:44.001Z</time></trkpt><trkpt lat="44.59252822667788" lon="8.922240132396652"><ele>389.5</ele><time>2026-05-01T09:08:45.001Z</time></trkpt><trkpt lat="44.59249571711547" lon="8.922404422965702"><ele>389.0</ele><time>2026-05-01T09:08:46.001Z</time></trkpt><trkpt lat="44.592461883795295" lon="8.922575403286446"><ele>388.5</ele><time>2026-05-01T09:08:47.001Z</time></trkpt><trkpt lat="44.59244268613722" lon="8.922757924491176"><ele>388.0</ele><time>2026-05-01T09:08:48.001Z</time></trkpt><trkpt lat="44.5923905465336" lon="8.92293583632558"><ele>389.75</ele><time>2026-05-01T09:08:49.001Z</time></trkpt><trkpt lat="44.59236991823941" lon="8.92312273929371"><ele>391.5</ele><time>2026-05-01T09:08:50.001Z</time></trkpt><trkpt lat="44.59232813335422" lon="8.923304758710865"><ele>393.25</ele><time>2026-05-01T09:08:51.001Z</time></trkpt><trkpt lat="44.59229287680944" lon="8.92348685635632"><ele>395.0</ele><time>2026-05-01T09:08:52.001Z</time></trkpt><trkpt lat="44.59225488441955" lon="8.923667555436884"><ele>395.0</ele><time>2026-05-01T09:08:53.001Z</time></trkpt><trkpt lat="44.592215135469964" lon="8.9238567193768"><ele>395.0</ele><time>2026-05-01T09:08:54.001Z</time></trkpt><trkpt lat="44.592175771719866" lon="8.924042722710785"><ele>395.0</ele><time>2026-05-01T09:08:55.001Z</time></trkpt><trkpt lat="44.59214099229783" lon="8.924215282238295"><ele>395.0</ele><time>2026-05-01T09:08:56.001Z</time></trkpt><trkpt lat="44.59209027495834" lon="8.924368248764262"><ele>392.5</ele><time>2026-05-01T09:08:57.001Z</time></trkpt><trkpt lat="44.592024566367385" lon="8.924506174724545"><ele>390.0</ele><time>2026-05-01T09:08:58.001Z</time></trkpt><trkpt lat="44.591938333122975" lon="8.924633683870145"><ele>387.5</ele><time>2026-05-01T09:08:59.001Z</time></trkpt><trkpt lat="44.59183419658222" lon="8.924744352040644"><ele>385.0</ele><time>2026-05-01T09:09:00.001Z</time></trkpt><trkpt lat="44.59172621286633" lon="8.924835517160536"><ele>385.0</ele><time>2026-05-01T09:09:01.001Z</time></trkpt><trkpt lat="44.59162528902073" lon="8.924928745458311"><ele>385.0</ele><time>2026-05-01T09:09:02.001Z</time></trkpt><trkpt lat="44.59153511639637" lon="8.925029636410427"><ele>385.0</ele><time>2026-05-01T09:09:03.001Z</time></trkpt><trkpt lat="44.591455179005024" lon="8.925143620820391"><ele>385.0</ele><time>2026-05-01T09:09:04.001Z</time></trkpt><trkpt lat="44.591381563730714" lon="8.925296283463764"><ele>388.0</ele><time>2026-05-01T09:09:05.001Z</time></trkpt><trkpt lat="44.59131441570312" lon="8.92550178347398"><ele>391.0</ele><time>2026-05-01T09:09:06.001Z</time></trkpt><trkpt lat="44.591257147785655" lon="8.92574992154063"><ele>394.0</ele><time>2026-05-01T09:09:07.001Z</time></trkpt><trkpt lat="44.591205209727484" lon="8.926019288883165"><ele>390.0</ele><time>2026-05-01T09:09:08.001Z</time></trkpt><trkpt lat="44.59114932821974" lon="8.926308452501814"><ele>386.0</ele><time>2026-05-01T09:09:09.001Z</time></trkpt><trkpt lat="44.59108227534696" lon="8.926605277345214"><ele>382.0</ele><time>2026-05-01T09:09:10.001Z</time></trkpt><trkpt lat="44.59101437957657" lon="8.926887447295373"><ele>382.0</ele><time>2026-05-01T09:09:11.001Z</time></trkpt><trkpt lat="44.590957038075665" lon="8.927137110352573"><ele>382.0</ele><time>2026-05-01T09:09:12Z</time></trkpt><trkpt lat="44.59087022321025" lon="8.927326027298438"><ele>382.0</ele><time>2026-05-01T09:09:13Z</time></trkpt><trkpt lat="44.59076255877785" lon="8.92745436745183"><ele>383.66666666666663</ele><time>2026-05-01T09:09:14Z</time></trkpt><trkpt lat="44.59063535341668" lon="8.927570669373884"><ele>385.3333333333333</ele><time>2026-05-01T09:09:15Z</time></trkpt><trkpt lat="44.590506020134754" lon="8.927712343299513"><ele>387.0</ele><time>2026-05-01T09:09:16Z</time></trkpt><trkpt lat="44.59038973103438" lon="8.927884203418357"><ele>382.0</ele><time>2026-05-01T09:09:17Z</time></trkpt><trkpt lat="44.59031425771978" lon="8.92810241752717"><ele>377.0</ele><time>2026-05-01T09:09:18Z</time></trkpt><trkpt lat="44.59027647133769" lon="8.928340626478402"><ele>372.0</ele><time>2026-05-01T09:09:19Z</time></trkpt><trkpt lat="44.59027661330696" lon="8.928597454638126"><ele>372.0</ele><time>2026-05-01T09:09:20Z</time></trkpt><trkpt lat="44.59030339334192" lon="8.92888006471755"><ele>372.0</ele><time>2026-05-01T09:09:21Z</time></trkpt><trkpt lat="44.5903171423841" lon="8.929176090356906"><ele>372.0</ele><time>2026-05-01T09:09:22Z</time></trkpt><trkpt lat="44.59033250607767" lon="8.929461935527376"><ele>372.6666666666667</ele><time>2026-05-01T09:09:23Z</time></trkpt><trkpt lat="44.59034492624683" lon="8.929721378136096"><ele>373.33333333333337</ele><time>2026-05-01T09:09:24Z</time></trkpt><trkpt lat="44.590355865233015" lon="8.92996098493118"><ele>374.0</ele><time>2026-05-01T09:09:25Z</time></trkpt><trkpt lat="44.59036640666884" lon="8.930192601203345"><ele>374.0</ele><time>2026-05-01T09:09:26Z</time></trkpt><trkpt lat="44.59037563647618" lon="8.930419440173832"><ele>374.0</ele><time>2026-05-01T09:09:27Z</time></trkpt><trkpt lat="44.5903812664153" lon="8.930645591848439"><ele>374.0</ele><time>2026-05-01T09:09:28Z</time></trkpt><trkpt lat="44.590386467453754" lon="8.930876643001028"><ele>372.33333333333337</ele><time>2026-05-01T09:09:29Z</time></trkpt><trkpt lat="44.59039151843214" lon="8.931108005145132"><ele>370.6666666666667</ele><time>2026-05-01T09:09:30Z</time></trkpt><trkpt lat="44.590396137358134" lon="8.93132885694233"><ele>369.0</ele><time>2026-05-01T09:09:31Z</time></trkpt><trkpt lat="44.590400620483436" lon="8.931543215545304"><ele>368.75</ele><time>2026-05-01T09:09:32Z</time></trkpt><trkpt lat="44.590405350112974" lon="8.931749905911023"><ele>368.5</ele><time>2026-05-01T09:09:33Z</time></trkpt><trkpt lat="44.59042671128244" lon="8.931951580558227"><ele>368.25</ele><time>2026-05-01T09:09:34Z</time></trkpt><trkpt lat="44.59042976866553" lon="8.932151840027265"><ele>368.0</ele><time>2026-05-01T09:09:35Z</time></trkpt><trkpt lat="44.59043276204873" lon="8.932345481882649"><ele>368.0</ele><time>2026-05-01T09:09:36Z</time></trkpt><trkpt lat="44.59042847053128" lon="8.932528767900541"><ele>368.0</ele><time>2026-05-01T09:09:37Z</time></trkpt><trkpt lat="44.590389927576844" lon="8.932692207611769"><ele>368.0</ele><time>2026-05-01T09:09:38Z</time></trkpt><trkpt lat="44.59035527688828" lon="8.932854456880888"><ele>368.0</ele><time>2026-05-01T09:09:39Z</time></trkpt><trkpt lat="44.590305725507456" lon="8.93301835277195"><ele>366.0</ele><time>2026-05-01T09:09:40Z</time></trkpt><trkpt lat="44.590262597716865" lon="8.933211164213327"><ele>364.0</ele><time>2026-05-01T09:09:41Z</time></trkpt><trkpt lat="44.59017730587491" lon="8.93338523019239"><ele>362.0</ele><time>2026-05-01T09:09:42Z</time></trkpt><trkpt lat="44.590097650829264" lon="8.933572595357479"><ele>362.0</ele><time>2026-05-01T09:09:43Z</time></trkpt><trkpt lat="44.590031122565" lon="8.933768883019184"><ele>362.0</ele><time>2026-05-01T09:09:44Z</time></trkpt><trkpt lat="44.58993732558508" lon="8.933945107120516"><ele>362.0</ele><time>2026-05-01T09:09:45Z</time></trkpt><trkpt lat="44.58987042131601" lon="8.934144148220543"><ele>363.25</ele><time>2026-05-01T09:09:46Z</time></trkpt><trkpt lat="44.58979745584059" lon="8.934329734428363"><ele>364.5</ele><time>2026-05-01T09:09:47Z</time></trkpt><trkpt lat="44.589744091366306" lon="8.934519929262594"><ele>365.75</ele><time>2026-05-01T09:09:48Z</time></trkpt><trkpt lat="44.589710045426266" lon="8.934717737909335"><ele>367.0</ele><time>2026-05-01T09:09:49Z</time></trkpt><trkpt lat="44.58968666141353" lon="8.934921512299244"><ele>368.25</ele><time>2026-05-01T09:09:50Z</time></trkpt><trkpt lat="44.589669052616415" lon="8.935120688197056"><ele>369.5</ele><time>2026-05-01T09:09:51Z</time></trkpt><trkpt lat="44.58964871095976" lon="8.935305238258548"><ele>370.75</ele><time>2026-05-01T09:09:52Z</time></trkpt><trkpt lat="44.58962864843498" lon="8.935469695684995"><ele>372.0</ele><time>2026-05-01T09:09:53Z</time></trkpt><trkpt lat="44.58960865864926" lon="8.935627716777647"><ele>372.0</ele><time>2026-05-01T09:09:54Z</time></trkpt><trkpt lat="44.58959020620114" lon="8.935782470655038"><ele>372.0</ele><time>2026-05-01T09:09:55Z</time></trkpt><trkpt lat="44.58956937393563" lon="8.935946593654032"><ele>372.0</ele><time>2026-05-01T09:09:56Z</time></trkpt><trkpt lat="44.58954928160343" lon="8.93611446193978"><ele>372.0</ele><time>2026-05-01T09:09:57Z</time></trkpt><trkpt lat="44.5895285264037" lon="8.936276213567952"><ele>371.0</ele><time>2026-05-01T09:09:58Z</time></trkpt><trkpt lat="44.58951112609004" lon="8.936435681700438"><ele>370.0</ele><time>2026-05-01T09:09:59Z</time></trkpt><trkpt lat="44.58947845001294" lon="8.93657665458808"><ele>369.0</ele><time>2026-05-01T09:10:00Z</time></trkpt><trkpt lat="44.58947187537731" lon="8.936717158465314"><ele>368.0</ele><time>2026-05-01T09:10:01Z</time></trkpt><trkpt lat="44.58945323719379" lon="8.936842352056795"><ele>367.0</ele><time>2026-05-01T09:10:02Z</time></trkpt><trkpt lat="44.58943542661699" lon="8.936947913697589"><ele>364.40000000000003</ele><time>2026-05-01T09:10:03Z</time></trkpt><trkpt lat="44.58940945520011" lon="8.937109369734598"><ele>361.8</ele><time>2026-05-01T09:10:05Z</time></trkpt><trkpt lat="44.58939342220334" lon="8.937222524313082"><ele>359.2</ele><time>2026-05-01T09:10:07Z</time></trkpt><trkpt lat="44.58935972727158" lon="8.937311502532001"><ele>356.6</ele><time>2026-05-01T09:10:10Z</time></trkpt><trkpt lat="44.5892294326749" lon="8.937353521942999"><ele>354.0</ele><time>2026-05-01T09:10:13Z</time></trkpt><trkpt lat="44.58914432998393" lon="8.93736861902168"><ele>354.0</ele><time>2026-05-01T09:10:15Z</time></trkpt><trkpt lat="44.58907768612971" lon="8.937391342302403"><ele>354.0</ele><time>2026-05-01T09:10:18Z</time></trkpt><trkpt lat="44.589014831283826" lon="8.93743914842049"><ele>354.0</ele><time>2026-05-01T09:10:21Z</time></trkpt><trkpt lat="44.588932978763154" lon="8.937446246874714"><ele>354.0</ele><time>2026-05-01T09:10:23Z</time></trkpt><trkpt lat="44.58882764801783" lon="8.937468462490465"><ele>354.0</ele><time>2026-05-01T09:10:25Z</time></trkpt><trkpt lat="44.58871592358549" lon="8.937522504633971"><ele>354.0</ele><time>2026-05-01T09:10:27Z</time></trkpt><trkpt lat="44.58859426410781" lon="8.937541242092605"><ele>353.8333333333333</ele><time>2026-05-01T09:10:29Z</time></trkpt><trkpt lat="44.58852870528727" lon="8.937556427720715"><ele>353.6666666666667</ele><time>2026-05-01T09:10:30Z</time></trkpt><trkpt lat="44.58845186652672" lon="8.937575996204783"><ele>353.5</ele><time>2026-05-01T09:10:31Z</time></trkpt><trkpt lat="44.588376054076804" lon="8.937596592348614"><ele>353.33333333333337</ele><time>2026-05-01T09:10:32Z</time></trkpt><trkpt lat="44.58829569975455" lon="8.937592640246068"><ele>353.1666666666667</ele><time>2026-05-01T09:10:33Z</time></trkpt><trkpt lat="44.58821821637031" lon="8.937610323712374"><ele>353.0</ele><time>2026-05-01T09:10:34Z</time></trkpt><trkpt lat="44.588142354390094" lon="8.93762763713819"><ele>353.0</ele><time>2026-05-01T09:10:35Z</time></trkpt><trkpt lat="44.58806587051019" lon="8.937645867540386"><ele>353.0</ele><time>2026-05-01T09:10:36Z</time></trkpt><trkpt lat="44.587992083638504" lon="8.937664132100766"><ele>353.0</ele><time>2026-05-01T09:10:37Z</time></trkpt><trkpt lat="44.58792603443142" lon="8.937681518062467"><ele>353.0</ele><time>2026-05-01T09:10:38Z</time></trkpt><trkpt lat="44.58786752985796" lon="8.937721250718027"><ele>353.0</ele><time>2026-05-01T09:10:39Z</time></trkpt><trkpt lat="44.58778141957101" lon="8.937738233660808"><ele>353.0</ele><time>2026-05-01T09:10:41.001Z</time></trkpt><trkpt lat="44.587713243899785" lon="8.937758531798998"><ele>353.0</ele><time>2026-05-01T09:10:44.001Z</time></trkpt><trkpt lat="44.587630442981826" lon="8.9377786987481"><ele>353.1666666666667</ele><time>2026-05-01T09:10:47.001Z</time></trkpt><trkpt lat="44.58756432117881" lon="8.937797214311091"><ele>353.33333333333337</ele><time>2026-05-01T09:10:51.001Z</time></trkpt><trkpt lat="44.58748960373156" lon="8.937800787391343"><ele>353.5</ele><time>2026-05-01T09:10:55.001Z</time></trkpt><trkpt lat="44.58735930930877" lon="8.937828376748655"><ele>353.6666666666667</ele><time>2026-05-01T09:10:57.001Z</time></trkpt><trkpt lat="44.587282958136484" lon="8.937844362118636"><ele>353.8333333333333</ele><time>2026-05-01T09:10:58.001Z</time></trkpt><trkpt lat="44.58721452296073" lon="8.937858690196098"><ele>354.0</ele><time>2026-05-01T09:10:59.001Z</time></trkpt><trkpt lat="44.587108711201026" lon="8.93789899402571"><ele>354.0</ele><time>2026-05-01T09:11:01.001Z</time></trkpt><trkpt lat="44.58704639411905" lon="8.93791240735573"><ele>354.0</ele><time>2026-05-01T09:11:02.001Z</time></trkpt><trkpt lat="44.58696480247393" lon="8.937910940208686"><ele>354.0</ele><time>2026-05-01T09:11:03.001Z</time></trkpt><trkpt lat="44.586867579710805" lon="8.937935718266552"><ele>354.0</ele><time>2026-05-01T09:11:04.001Z</time></trkpt><trkpt lat="44.58676776334214" lon="8.937983033025322"><ele>354.0</ele><time>2026-05-01T09:11:05.001Z</time></trkpt><trkpt lat="44.58666350659788" lon="8.938000779939246"><ele>354.1666666666667</ele><time>2026-05-01T09:11:06.001Z</time></trkpt><trkpt lat="44.586559671726505" lon="8.938022773951754"><ele>354.3333333333333</ele><time>2026-05-01T09:11:07.001Z</time></trkpt><trkpt lat="44.58646630742325" lon="8.938045698155861"><ele>354.5</ele><time>2026-05-01T09:11:08.001Z</time></trkpt><trkpt lat="44.58638955828329" lon="8.938058645763112"><ele>354.66666666666663</ele><time>2026-05-01T09:11:09.001Z</time></trkpt><trkpt lat="44.58632240389968" lon="8.938078625205758"><ele>354.8333333333333</ele><time>2026-05-01T09:11:10.001Z</time></trkpt><trkpt lat="44.58625644525895" lon="8.938073644321268"><ele>355.0</ele><time>2026-05-01T09:11:11.001Z</time></trkpt><trkpt lat="44.58615049330482" lon="8.93811840351588"><ele>355.5</ele><time>2026-05-01T09:11:13.001Z</time></trkpt><trkpt lat="44.58606607964404" lon="8.938125915095952"><ele>356.0</ele><time>2026-05-01T09:11:15.001Z</time></trkpt><trkpt lat="44.585992804526676" lon="8.938137525166665"><ele>356.5</ele><time>2026-05-01T09:11:18Z</time></trkpt><trkpt lat="44.585915292844184" lon="8.93815000313601"><ele>357.0</ele><time>2026-05-01T09:11:29Z</time></trkpt><trkpt lat="44.585829299907665" lon="8.938174878327086"><ele>357.5</ele><time>2026-05-01T09:11:30Z</time></trkpt><trkpt lat="44.585739215660695" lon="8.938193721842572"><ele>358.0</ele><time>2026-05-01T09:11:31Z</time></trkpt><trkpt lat="44.58562780402029" lon="8.938212320293044"><ele>358.0</ele><time>2026-05-01T09:11:32Z</time></trkpt><trkpt lat="44.58550385821855" lon="8.938242187514788"><ele>358.0</ele><time>2026-05-01T09:11:33Z</time></trkpt><trkpt lat="44.58537390265601" lon="8.93827801739104"><ele>358.0</ele><time>2026-05-01T09:11:34Z</time></trkpt><trkpt lat="44.58524974654055" lon="8.938307403659802"><ele>358.0</ele><time>2026-05-01T09:11:35Z</time></trkpt><trkpt lat="44.58511267784394" lon="8.938336778854595"><ele>357.25</ele><time>2026-05-01T09:11:36Z</time></trkpt><trkpt lat="44.584973536021835" lon="8.938367116974376"><ele>356.5</ele><time>2026-05-01T09:11:37Z</time></trkpt><trkpt lat="44.584834899243475" lon="8.938398550993307"><ele>355.75</ele><time>2026-05-01T09:11:38Z</time></trkpt><trkpt lat="44.58469564277479" lon="8.938430704644926"><ele>355.0</ele><time>2026-05-01T09:11:39Z</time></trkpt><trkpt lat="44.584562761949165" lon="8.938460355907086"><ele>355.0</ele><time>2026-05-01T09:11:40Z</time></trkpt><trkpt lat="44.58443332714214" lon="8.938491242643554"><ele>355.0</ele><time>2026-05-01T09:11:41Z</time></trkpt><trkpt lat="44.58430754181654" lon="8.938518078557145"><ele>355.0</ele><time>2026-05-01T09:11:42Z</time></trkpt><trkpt lat="44.58418688110534" lon="8.938543908615918"><ele>355.0</ele><time>2026-05-01T09:11:43Z</time></trkpt><trkpt lat="44.58407401553114" lon="8.938569930003087"><ele>355.0</ele><time>2026-05-01T09:11:44Z</time></trkpt><trkpt lat="44.583961508188956" lon="8.93859302614799"><ele>355.0</ele><time>2026-05-01T09:11:45Z</time></trkpt><trkpt lat="44.58385482937775" lon="8.93861634530984"><ele>355.0</ele><time>2026-05-01T09:11:46Z</time></trkpt><trkpt lat="44.583757251469315" lon="8.938640744442814"><ele>355.0</ele><time>2026-05-01T09:11:47Z</time></trkpt><trkpt lat="44.58365817155408" lon="8.938663728601803"><ele>355.0</ele><time>2026-05-01T09:11:48Z</time></trkpt><trkpt lat="44.583556795976236" lon="8.93868632195821"><ele>355.16666666666663</ele><time>2026-05-01T09:11:49Z</time></trkpt><trkpt lat="44.58345919269797" lon="8.938708460197164"><ele>355.3333333333333</ele><time>2026-05-01T09:11:50Z</time></trkpt><trkpt lat="44.5833693755878" lon="8.938726825492369"><ele>355.5</ele><time>2026-05-01T09:11:51Z</time></trkpt><trkpt lat="44.58328152525007" lon="8.938746082307263"><ele>355.6666666666667</ele><time>2026-05-01T09:11:52Z</time></trkpt><trkpt lat="44.58319629028824" lon="8.938762391760227"><ele>355.83333333333337</ele><time>2026-05-01T09:11:53Z</time></trkpt><trkpt lat="44.58311567930707" lon="8.938779867349112"><ele>356.0</ele><time>2026-05-01T09:11:54Z</time></trkpt><trkpt lat="44.58304157122674" lon="8.938797163437624"><ele>356.0</ele><time>2026-05-01T09:11:55Z</time></trkpt><trkpt lat="44.58297712922616" lon="8.938815594495878"><ele>356.0</ele><time>2026-05-01T09:11:56Z</time></trkpt><trkpt lat="44.58286358094091" lon="8.938823790911362"><ele>356.0</ele><time>2026-05-01T09:11:58Z</time></trkpt><trkpt lat="44.58278807321789" lon="8.938864239378454"><ele>356.0</ele><time>2026-05-01T09:11:59Z</time></trkpt><trkpt lat="44.582681336376616" lon="8.9388869125942"><ele>356.0</ele><time>2026-05-01T09:12:00Z</time></trkpt><trkpt lat="44.58254428365619" lon="8.938907655947675"><ele>356.33333333333337</ele><time>2026-05-01T09:12:01Z</time></trkpt><trkpt lat="44.5824215018851" lon="8.938923503683833"><ele>356.6666666666667</ele><time>2026-05-01T09:12:02Z</time></trkpt><trkpt lat="44.582320193359685" lon="8.938936227345307"><ele>357.0</ele><time>2026-05-01T09:12:03Z</time></trkpt><trkpt lat="44.58223649380244" lon="8.938946235800527"><ele>357.3333333333333</ele><time>2026-05-01T09:12:04Z</time></trkpt><trkpt lat="44.58216649954161" lon="8.93895419759816"><ele>357.66666666666663</ele><time>2026-05-01T09:12:05Z</time></trkpt><trkpt lat="44.5821015075837" lon="8.93896602184721"><ele>358.0</ele><time>2026-05-01T09:12:06Z</time></trkpt><trkpt lat="44.58203377745921" lon="8.938953889946244"><ele>358.0</ele><time>2026-05-01T09:12:07Z</time></trkpt><trkpt lat="44.581953411360224" lon="8.938965062030357"><ele>358.0</ele><time>2026-05-01T09:12:08Z</time></trkpt><trkpt lat="44.58187209428116" lon="8.93899661307727"><ele>358.0</ele><time>2026-05-01T09:12:09Z</time></trkpt><trkpt lat="44.58177928547339" lon="8.939001446922763"><ele>358.0</ele><time>2026-05-01T09:12:10Z</time></trkpt><trkpt lat="44.58167697758414" lon="8.938985711150972"><ele>358.0</ele><time>2026-05-01T09:12:11Z</time></trkpt><trkpt lat="44.581579173383425" lon="8.938973576936554"><ele>358.0</ele><time>2026-05-01T09:12:12Z</time></trkpt><trkpt lat="44.581483456833666" lon="8.938978683202912"><ele>358.0</ele><time>2026-05-01T09:12:13Z</time></trkpt><trkpt lat="44.581385615676766" lon="8.938953809827268"><ele>358.0</ele><time>2026-05-01T09:12:14Z</time></trkpt><trkpt lat="44.581280175360284" lon="8.938942000436546"><ele>358.0</ele><time>2026-05-01T09:12:15Z</time></trkpt><trkpt lat="44.58116396434511" lon="8.938925906573957"><ele>358.0</ele><time>2026-05-01T09:12:16Z</time></trkpt><trkpt lat="44.581052178397606" lon="8.93895798641713"><ele>358.59999999999997</ele><time>2026-05-01T09:12:17Z</time></trkpt><trkpt lat="44.5809461482385" lon="8.93897012376472"><ele>359.2</ele><time>2026-05-01T09:12:18Z</time></trkpt><trkpt lat="44.58084651588753" lon="8.938992054400963"><ele>359.8</ele><time>2026-05-01T09:12:19Z</time></trkpt><trkpt lat="44.58075060423493" lon="8.939023720628999"><ele>360.4</ele><time>2026-05-01T09:12:20Z</time></trkpt><trkpt lat="44.580655552892146" lon="8.939061600902768"><ele>361.0</ele><time>2026-05-01T09:12:21Z</time></trkpt><trkpt lat="44.580552452701035" lon="8.939089390576095"><ele>361.0</ele><time>2026-05-01T09:12:22Z</time></trkpt><trkpt lat="44.58045158712914" lon="8.939148831638757"><ele>361.0</ele><time>2026-05-01T09:12:23Z</time></trkpt><trkpt lat="44.580362355898195" lon="8.939229234668257"><ele>361.0</ele><time>2026-05-01T09:12:24Z</time></trkpt><trkpt lat="44.580288005440096" lon="8.939277602199075"><ele>361.0</ele><time>2026-05-01T09:12:25Z</time></trkpt><trkpt lat="44.58019326065767" lon="8.939341355675436"><ele>361.0</ele><time>2026-05-01T09:12:27Z</time></trkpt><trkpt lat="44.58012808512658" lon="8.939395877912"><ele>359.75</ele><time>2026-05-01T09:12:29Z</time></trkpt><trkpt lat="44.58000508508135" lon="8.93949932274941"><ele>358.5</ele><time>2026-05-01T09:12:31Z</time></trkpt><trkpt lat="44.57989753384838" lon="8.93956434471395"><ele>357.25</ele><time>2026-05-01T09:12:32Z</time></trkpt><trkpt lat="44.57979675360163" lon="8.939606059278622"><ele>356.0</ele><time>2026-05-01T09:12:33Z</time></trkpt><trkpt lat="44.57969712645698" lon="8.939676511080444"><ele>356.0</ele><time>2026-05-01T09:12:34Z</time></trkpt><trkpt lat="44.57958757022877" lon="8.939753984219893"><ele>356.0</ele><time>2026-05-01T09:12:35Z</time></trkpt><trkpt lat="44.57947502144031" lon="8.939833573611129"><ele>356.0</ele><time>2026-05-01T09:12:36Z</time></trkpt><trkpt lat="44.579359847957356" lon="8.939915019000262"><ele>356.0</ele><time>2026-05-01T09:12:37Z</time></trkpt><trkpt lat="44.579244219642646" lon="8.939996786539849"><ele>355.25</ele><time>2026-05-01T09:12:38Z</time></trkpt><trkpt lat="44.57913082853155" lon="8.940077694236344"><ele>354.5</ele><time>2026-05-01T09:12:39Z</time></trkpt><trkpt lat="44.57902005298087" lon="8.94015654298947"><ele>353.75</ele><time>2026-05-01T09:12:40Z</time></trkpt><trkpt lat="44.57892502435539" lon="8.940248582922045"><ele>353.0</ele><time>2026-05-01T09:12:41Z</time></trkpt><trkpt lat="44.57882737297126" lon="8.940293690371645"><ele>353.0</ele><time>2026-05-01T09:12:42Z</time></trkpt><trkpt lat="44.578741746355945" lon="8.94035404878014"><ele>353.0</ele><time>2026-05-01T09:12:43Z</time></trkpt><trkpt lat="44.57865663055921" lon="8.94041397309346"><ele>353.0</ele><time>2026-05-01T09:12:44Z</time></trkpt><trkpt lat="44.5785652766812" lon="8.940478289279602"><ele>353.0</ele><time>2026-05-01T09:12:45.001Z</time></trkpt><trkpt lat="44.57848230480245" lon="8.94053670427431"><ele>353.0</ele><time>2026-05-01T09:12:46.001Z</time></trkpt><trkpt lat="44.57840477019356" lon="8.940592783638115"><ele>352.4</ele><time>2026-05-01T09:12:47.001Z</time></trkpt><trkpt lat="44.57833493001636" lon="8.940643329243867"><ele>351.79999999999995</ele><time>2026-05-01T09:12:48.001Z</time></trkpt><trkpt lat="44.5782619122493" lon="8.940696176318143"><ele>351.2</ele><time>2026-05-01T09:12:49.001Z</time></trkpt><trkpt lat="44.57817966137191" lon="8.940754752520752"><ele>350.6</ele><time>2026-05-01T09:12:50.001Z</time></trkpt><trkpt lat="44.57809024883878" lon="8.940817898925001"><ele>350.0</ele><time>2026-05-01T09:12:51.001Z</time></trkpt><trkpt lat="44.57799568194598" lon="8.940884685280071"><ele>350.0</ele><time>2026-05-01T09:12:52.001Z</time></trkpt><trkpt lat="44.57790214351348" lon="8.940950745290923"><ele>350.0</ele><time>2026-05-01T09:12:53.001Z</time></trkpt><trkpt lat="44.577815841954994" lon="8.941011694463077"><ele>350.0</ele><time>2026-05-01T09:12:54.001Z</time></trkpt><trkpt lat="44.57772539973522" lon="8.94107556631885"><ele>350.0</ele><time>2026-05-01T09:12:55.001Z</time></trkpt><trkpt lat="44.57763259916346" lon="8.941140599229385"><ele>350.0</ele><time>2026-05-01T09:12:56.001Z</time></trkpt><trkpt lat="44.577539900728496" lon="8.94120566437953"><ele>351.33333333333337</ele><time>2026-05-01T09:12:57.001Z</time></trkpt><trkpt lat="44.57744654651223" lon="8.94127118973899"><ele>352.6666666666667</ele><time>2026-05-01T09:12:58.001Z</time></trkpt><trkpt lat="44.57735672852862" lon="8.941334412768168"><ele>354.0</ele><time>2026-05-01T09:12:59.001Z</time></trkpt><trkpt lat="44.577277178769634" lon="8.941391869961404"><ele>355.3333333333333</ele><time>2026-05-01T09:13:00.001Z</time></trkpt><trkpt lat="44.57721335314668" lon="8.941437969928009"><ele>356.66666666666663</ele><time>2026-05-01T09:13:01.001Z</time></trkpt><trkpt lat="44.57715459794366" lon="8.941481023500158"><ele>358.0</ele><time>2026-05-01T09:13:02.001Z</time></trkpt><trkpt lat="44.57705091884019" lon="8.941570906912853"><ele>358.4</ele><time>2026-05-01T09:13:04.001Z</time></trkpt><trkpt lat="44.57698724707074" lon="8.941634217194029"><ele>358.79999999999995</ele><time>2026-05-01T09:13:05.001Z</time></trkpt><trkpt lat="44.576901242198275" lon="8.941728325118396"><ele>359.2</ele><time>2026-05-01T09:13:06.001Z</time></trkpt><trkpt lat="44.57681483962821" lon="8.941843403601068"><ele>359.6</ele><time>2026-05-01T09:13:07.001Z</time></trkpt><trkpt lat="44.5767433303559" lon="8.941952473805454"><ele>360.0</ele><time>2026-05-01T09:13:08.001Z</time></trkpt><trkpt lat="44.576676132819685" lon="8.942056958109449"><ele>360.0</ele><time>2026-05-01T09:13:09.001Z</time></trkpt><trkpt lat="44.57661170504049" lon="8.942158017469607"><ele>360.0</ele><time>2026-05-01T09:13:10.001Z</time></trkpt><trkpt lat="44.576556145978465" lon="8.942248228936753"><ele>360.0</ele><time>2026-05-01T09:13:11.001Z</time></trkpt><trkpt lat="44.57650964398783" lon="8.942323734272223"><ele>360.0</ele><time>2026-05-01T09:13:12.001Z</time></trkpt><trkpt lat="44.576433418291266" lon="8.942442575020886"><ele>360.0</ele><time>2026-05-01T09:13:14.001Z</time></trkpt><trkpt lat="44.57638573918786" lon="8.942510195212588"><ele>360.0</ele><time>2026-05-01T09:13:16.001Z</time></trkpt><trkpt lat="44.57635800340534" lon="8.942591845172306"><ele>360.5</ele><time>2026-05-01T09:13:18.001Z</time></trkpt><trkpt lat="44.5762899831582" lon="8.942671130925369"><ele>361.0</ele><time>2026-05-01T09:13:21.001Z</time></trkpt><trkpt lat="44.57621101577034" lon="8.942705690499068"><ele>361.5</ele><time>2026-05-01T09:13:24Z</time></trkpt><trkpt lat="44.576133506334116" lon="8.94277492585522"><ele>362.0</ele><time>2026-05-01T09:13:27Z</time></trkpt><trkpt lat="44.576063633971394" lon="8.942829993452756"><ele>362.5</ele><time>2026-05-01T09:13:30Z</time></trkpt><trkpt lat="44.575997131648045" lon="8.942873800365426"><ele>363.0</ele><time>2026-05-01T09:13:32Z</time></trkpt><trkpt lat="44.57594341748165" lon="8.942929515515239"><ele>363.0</ele><time>2026-05-01T09:13:34Z</time></trkpt><trkpt lat="44.575879857223086" lon="8.942939168155547"><ele>363.0</ele><time>2026-05-01T09:13:36Z</time></trkpt><trkpt lat="44.57577337854204" lon="8.942994232096765"><ele>363.0</ele><time>2026-05-01T09:13:38Z</time></trkpt><trkpt lat="44.575713484432285" lon="8.943025205523032"><ele>363.0</ele><time>2026-05-01T09:13:39Z</time></trkpt><trkpt lat="44.57560679632983" lon="8.943080377732928"><ele>363.0</ele><time>2026-05-01T09:13:41Z</time></trkpt><trkpt lat="44.57552379384523" lon="8.943139768978694"><ele>363.0</ele><time>2026-05-01T09:13:43Z</time></trkpt><trkpt lat="44.575447031885034" lon="8.943176091817254"><ele>363.3333333333333</ele><time>2026-05-01T09:13:45Z</time></trkpt><trkpt lat="44.57535288325361" lon="8.943223300443321"><ele>363.6666666666667</ele><time>2026-05-01T09:13:47Z</time></trkpt><trkpt lat="44.575278865879575" lon="8.943272831149983"><ele>364.0</ele><time>2026-05-01T09:13:48Z</time></trkpt><trkpt lat="44.57520208453354" lon="8.943312050147519"><ele>364.33333333333337</ele><time>2026-05-01T09:13:49Z</time></trkpt><trkpt lat="44.57512901121147" lon="8.943336919432651"><ele>364.6666666666667</ele><time>2026-05-01T09:13:50Z</time></trkpt><trkpt lat="44.57503524224521" lon="8.94338071497708"><ele>365.0</ele><time>2026-05-01T09:13:52Z</time></trkpt><trkpt lat="44.57497264765789" lon="8.943422383998744"><ele>365.2</ele><time>2026-05-01T09:13:54Z</time></trkpt><trkpt lat="44.57484025545683" lon="8.943471006874843"><ele>365.4</ele><time>2026-05-01T09:13:56Z</time></trkpt><trkpt lat="44.574775849794136" lon="8.943503190084334"><ele>365.6</ele><time>2026-05-01T09:13:57Z</time></trkpt><trkpt lat="44.57467437395108" lon="8.943575927906664"><ele>365.8</ele><time>2026-05-01T09:13:59Z</time></trkpt><trkpt lat="44.574592013456915" lon="8.943618367859994"><ele>366.0</ele><time>2026-05-01T09:14:01Z</time></trkpt><trkpt lat="44.57449355937791" lon="8.943675932288189"><ele>366.0</ele><time>2026-05-01T09:14:03Z</time></trkpt><trkpt lat="44.574411747134356" lon="8.943732569030214"><ele>366.0</ele><time>2026-05-01T09:14:04Z</time></trkpt><trkpt lat="44.5743312843297" lon="8.943768868785774"><ele>366.0</ele><time>2026-05-01T09:14:05Z</time></trkpt><trkpt lat="44.574265230143965" lon="8.943796971777914"><ele>366.0</ele><time>2026-05-01T09:14:06Z</time></trkpt><trkpt lat="44.57415700825631" lon="8.943842942430258"><ele>366.0</ele><time>2026-05-01T09:14:08Z</time></trkpt><trkpt lat="44.5740520757703" lon="8.943872027546817"><ele>366.0</ele><time>2026-05-01T09:14:10Z</time></trkpt><trkpt lat="44.57397301580878" lon="8.943912607112898"><ele>366.0</ele><time>2026-05-01T09:14:11Z</time></trkpt><trkpt lat="44.573882104644156" lon="8.943959269624273"><ele>366.0</ele><time>2026-05-01T09:14:12Z</time></trkpt><trkpt lat="44.57380754864664" lon="8.94399753790689"><ele>366.0</ele><time>2026-05-01T09:14:13Z</time></trkpt><trkpt lat="44.57374582631966" lon="8.944028661298349"><ele>366.0</ele><time>2026-05-01T09:14:14Z</time></trkpt><trkpt lat="44.57365379678383" lon="8.94410175882215"><ele>366.0</ele><time>2026-05-01T09:14:16Z</time></trkpt><trkpt lat="44.573589588285955" lon="8.944124862132934"><ele>365.5</ele><time>2026-05-01T09:14:23Z</time></trkpt><trkpt lat="44.57349059390052" lon="8.944174359063007"><ele>365.0</ele><time>2026-05-01T09:14:25Z</time></trkpt><trkpt lat="44.57337499784821" lon="8.94423128923513"><ele>364.5</ele><time>2026-05-01T09:14:27Z</time></trkpt><trkpt lat="44.57331340254226" lon="8.944262673301308"><ele>364.0</ele><time>2026-05-01T09:14:28Z</time></trkpt><trkpt lat="44.57325147177706" lon="8.944295700351203"><ele>363.5</ele><time>2026-05-01T09:14:29Z</time></trkpt><trkpt lat="44.57318411975126" lon="8.944307720660571"><ele>363.0</ele><time>2026-05-01T09:14:30Z</time></trkpt><trkpt lat="44.573084291509474" lon="8.94437655333978"><ele>362.8333333333333</ele><time>2026-05-01T09:14:32Z</time></trkpt><trkpt lat="44.57300190107291" lon="8.94441195082728"><ele>362.6666666666667</ele><time>2026-05-01T09:14:34Z</time></trkpt><trkpt lat="44.572901010096295" lon="8.944473603517167"><ele>362.5</ele><time>2026-05-01T09:14:36Z</time></trkpt><trkpt lat="44.57282200813455" lon="8.944489881418988"><ele>362.33333333333337</ele><time>2026-05-01T09:14:37Z</time></trkpt><trkpt lat="44.57274446528297" lon="8.944531736155938"><ele>362.1666666666667</ele><time>2026-05-01T09:14:38Z</time></trkpt><trkpt lat="44.57266525110815" lon="8.9445744930026"><ele>362.0</ele><time>2026-05-01T09:14:39Z</time></trkpt><trkpt lat="44.572590062725894" lon="8.944628430640982"><ele>362.0</ele><time>2026-05-01T09:14:40Z</time></trkpt><trkpt lat="44.57252397633875" lon="8.944660636131317"><ele>362.0</ele><time>2026-05-01T09:14:41Z</time></trkpt><trkpt lat="44.57241121288875" lon="8.944710003868105"><ele>362.0</ele><time>2026-05-01T09:14:43Z</time></trkpt><trkpt lat="44.57231084283136" lon="8.944764385793443"><ele>362.0</ele><time>2026-05-01T09:14:45Z</time></trkpt><trkpt lat="44.57220874770125" lon="8.944816349983661"><ele>362.0</ele><time>2026-05-01T09:14:47Z</time></trkpt><trkpt lat="44.57210592792765" lon="8.944868066290056"><ele>362.8</ele><time>2026-05-01T09:14:49Z</time></trkpt><trkpt lat="44.57200255426684" lon="8.944921270912024"><ele>363.6</ele><time>2026-05-01T09:14:51Z</time></trkpt><trkpt lat="44.57190350779644" lon="8.944968548287756"><ele>364.40000000000003</ele><time>2026-05-01T09:14:53Z</time></trkpt><trkpt lat="44.57180237831706" lon="8.945021760520408"><ele>365.20000000000005</ele><time>2026-05-01T09:14:55Z</time></trkpt><trkpt lat="44.57170393941644" lon="8.945070743329465"><ele>366.0</ele><time>2026-05-01T09:14:57Z</time></trkpt><trkpt lat="44.57160838740935" lon="8.945123511575519"><ele>367.0</ele><time>2026-05-01T09:14:59Z</time></trkpt><trkpt lat="44.5715037254642" lon="8.945173736101527"><ele>368.0</ele><time>2026-05-01T09:15:01.001Z</time></trkpt><trkpt lat="44.57138910993001" lon="8.945230706864413"><ele>369.0</ele><time>2026-05-01T09:15:03.001Z</time></trkpt><trkpt lat="44.571282017090894" lon="8.945292434839159"><ele>370.0</ele><time>2026-05-01T09:15:05.001Z</time></trkpt><trkpt lat="44.5712224608636" lon="8.945326702477477"><ele>371.0</ele><time>2026-05-01T09:15:06.001Z</time></trkpt><trkpt lat="44.57115316222242" lon="8.94536103628772"><ele>371.33333333333337</ele><time>2026-05-01T09:15:07.001Z</time></trkpt><trkpt lat="44.5710807926927" lon="8.945394499528174"><ele>371.6666666666667</ele><time>2026-05-01T09:15:08.001Z</time></trkpt><trkpt lat="44.5710125386854" lon="8.945432624851735"><ele>372.0</ele><time>2026-05-01T09:15:09.001Z</time></trkpt><trkpt lat="44.570953418475426" lon="8.945467832920153"><ele>372.3333333333333</ele><time>2026-05-01T09:15:10.001Z</time></trkpt><trkpt lat="44.57088955099202" lon="8.94550030687499"><ele>372.66666666666663</ele><time>2026-05-01T09:15:11.001Z</time></trkpt><trkpt lat="44.57077619169899" lon="8.945567594718328"><ele>373.0</ele><time>2026-05-01T09:15:13.001Z</time></trkpt><trkpt lat="44.57066944985432" lon="8.945620733712653"><ele>373.0</ele><time>2026-05-01T09:15:15.001Z</time></trkpt><trkpt lat="44.57058136949106" lon="8.945666254441843"><ele>373.0</ele><time>2026-05-01T09:15:17.001Z</time></trkpt><trkpt lat="44.57052598217375" lon="8.94571363413236"><ele>373.0</ele><time>2026-05-01T09:15:19.001Z</time></trkpt><trkpt lat="44.57046217738886" lon="8.945711959661812"><ele>373.0</ele><time>2026-05-01T09:15:22.001Z</time></trkpt><trkpt lat="44.57039527671046" lon="8.945745043929982"><ele>373.0</ele><time>2026-05-01T09:15:25.001Z</time></trkpt><trkpt lat="44.57038586812679" lon="8.945969131489363"><ele>372.3333333333333</ele><time>2026-05-01T09:15:27.001Z</time></trkpt><trkpt lat="44.57031922120015" lon="8.946051650584746"><ele>371.66666666666663</ele><time>2026-05-01T09:15:29.999Z</time></trkpt><trkpt lat="44.57026169327817" lon="8.94610862047208"><ele>371.0</ele><time>2026-05-01T09:15:31.999Z</time></trkpt><trkpt lat="44.57019557417687" lon="8.946163194620864"><ele>370.3333333333333</ele><time>2026-05-01T09:15:33.999Z</time></trkpt><trkpt lat="44.570119645777915" lon="8.946243001219496"><ele>369.6666666666667</ele><time>2026-05-01T09:15:35.999Z</time></trkpt><trkpt lat="44.57003051514603" lon="8.94632715059821"><ele>369.0</ele><time>2026-05-01T09:15:37.999Z</time></trkpt><trkpt lat="44.569964224665156" lon="8.94639279256218"><ele>369.0</ele><time>2026-05-01T09:15:38.999Z</time></trkpt><trkpt lat="44.56989079621797" lon="8.946465025132623"><ele>369.0</ele><time>2026-05-01T09:15:39.999Z</time></trkpt><trkpt lat="44.569802079159686" lon="8.946557416218095"><ele>369.0</ele><time>2026-05-01T09:15:40.999Z</time></trkpt><trkpt lat="44.56968385536499" lon="8.946649852006377"><ele>369.0</ele><time>2026-05-01T09:15:41.999Z</time></trkpt><trkpt lat="44.569596003802786" lon="8.946772562003554"><ele>368.0</ele><time>2026-05-01T09:15:42.999Z</time></trkpt><trkpt lat="44.56951953524801" lon="8.946856193573149"><ele>367.0</ele><time>2026-05-01T09:15:43.999Z</time></trkpt><trkpt lat="44.569451026979934" lon="8.94693489903867"><ele>366.0</ele><time>2026-05-01T09:15:44.999Z</time></trkpt><trkpt lat="44.569379247723845" lon="8.947017832979403"><ele>365.0</ele><time>2026-05-01T09:15:45.999Z</time></trkpt><trkpt lat="44.56929536221641" lon="8.947094454154906"><ele>364.0</ele><time>2026-05-01T09:15:46.999Z</time></trkpt><trkpt lat="44.569204326186295" lon="8.947153632185264"><ele>364.0</ele><time>2026-05-01T09:15:48Z</time></trkpt><trkpt lat="44.569112576048745" lon="8.947205489395278"><ele>364.0</ele><time>2026-05-01T09:15:49Z</time></trkpt><trkpt lat="44.569024228962036" lon="8.947264918933323"><ele>364.0</ele><time>2026-05-01T09:15:50Z</time></trkpt><trkpt lat="44.56893218546749" lon="8.947315906236437"><ele>364.0</ele><time>2026-05-01T09:15:51Z</time></trkpt><trkpt lat="44.568852336675725" lon="8.9473724626305"><ele>364.0</ele><time>2026-05-01T09:15:52Z</time></trkpt><trkpt lat="44.56878490459683" lon="8.947415487773986"><ele>364.0</ele><time>2026-05-01T09:15:53Z</time></trkpt><trkpt lat="44.56872356224403" lon="8.947458003078982"><ele>364.0</ele><time>2026-05-01T09:15:54Z</time></trkpt><trkpt lat="44.568642165558984" lon="8.947523185218433"><ele>364.0</ele><time>2026-05-01T09:15:56Z</time></trkpt><trkpt lat="44.56858443748529" lon="8.947584948094267"><ele>364.0</ele><time>2026-05-01T09:15:58Z</time></trkpt><trkpt lat="44.568503019042495" lon="8.947667933528331"><ele>364.0</ele><time>2026-05-01T09:16:00Z</time></trkpt><trkpt lat="44.56840699333004" lon="8.94777886298528"><ele>363.66666666666663</ele><time>2026-05-01T09:16:02Z</time></trkpt><trkpt lat="44.56834992131566" lon="8.947846766682162"><ele>363.3333333333333</ele><time>2026-05-01T09:16:03Z</time></trkpt><trkpt lat="44.568292721617105" lon="8.947918293682084"><ele>363.0</ele><time>2026-05-01T09:16:04Z</time></trkpt><trkpt lat="44.5682363913143" lon="8.947995331786444"><ele>362.6666666666667</ele><time>2026-05-01T09:16:05Z</time></trkpt><trkpt lat="44.56817718424787" lon="8.948074884281027"><ele>362.33333333333337</ele><time>2026-05-01T09:16:06Z</time></trkpt><trkpt lat="44.56812047938816" lon="8.948152434334446"><ele>362.0</ele><time>2026-05-01T09:16:07Z</time></trkpt><trkpt lat="44.56806960584159" lon="8.948228516429758"><ele>362.0</ele><time>2026-05-01T09:16:08Z</time></trkpt><trkpt lat="44.568019663103506" lon="8.948311777879036"><ele>362.0</ele><time>2026-05-01T09:16:09Z</time></trkpt><trkpt lat="44.56797323840329" lon="8.948393247969843"><ele>362.0</ele><time>2026-05-01T09:16:10Z</time></trkpt><trkpt lat="44.567934366749874" lon="8.948468657358639"><ele>362.0</ele><time>2026-05-01T09:16:11Z</time></trkpt><trkpt lat="44.56789653882096" lon="8.948543315862581"><ele>362.0</ele><time>2026-05-01T09:16:12Z</time></trkpt><trkpt lat="44.56784113276711" lon="8.948685638421564"><ele>362.0</ele><time>2026-05-01T09:16:14Z</time></trkpt><trkpt lat="44.56779429771459" lon="8.94883462601201"><ele>363.1666666666667</ele><time>2026-05-01T09:16:16Z</time></trkpt><trkpt lat="44.567774692344265" lon="8.948941886164487"><ele>364.33333333333337</ele><time>2026-05-01T09:16:17Z</time></trkpt><trkpt lat="44.56775876021178" lon="8.949055578478998"><ele>365.5</ele><time>2026-05-01T09:16:18Z</time></trkpt><trkpt lat="44.56774133311896" lon="8.949166597668096"><ele>366.6666666666667</ele><time>2026-05-01T09:16:19Z</time></trkpt><trkpt lat="44.56772524393774" lon="8.949278292950058"><ele>367.8333333333333</ele><time>2026-05-01T09:16:20Z</time></trkpt><trkpt lat="44.56770841215862" lon="8.949395127221162"><ele>369.0</ele><time>2026-05-01T09:16:21Z</time></trkpt><trkpt lat="44.5676928870587" lon="8.949526817389195"><ele>369.0</ele><time>2026-05-01T09:16:22Z</time></trkpt><trkpt lat="44.567679425190455" lon="8.94966659607205"><ele>369.0</ele><time>2026-05-01T09:16:23Z</time></trkpt><trkpt lat="44.567664684158075" lon="8.94980657734649"><ele>369.0</ele><time>2026-05-01T09:16:24Z</time></trkpt><trkpt lat="44.56764655689947" lon="8.949949699258038"><ele>369.0</ele><time>2026-05-01T09:16:25Z</time></trkpt><trkpt lat="44.56762751419378" lon="8.950093797310645"><ele>369.0</ele><time>2026-05-01T09:16:26Z</time></trkpt><trkpt lat="44.56760735314179" lon="8.95024382883697"><ele>369.25</ele><time>2026-05-01T09:16:27Z</time></trkpt><trkpt lat="44.56758780188989" lon="8.950401179889134"><ele>369.5</ele><time>2026-05-01T09:16:28Z</time></trkpt><trkpt lat="44.56755124162427" lon="8.950553117695145"><ele>369.75</ele><time>2026-05-01T09:16:29Z</time></trkpt><trkpt lat="44.56754379442432" lon="8.950716230623526"><ele>370.0</ele><time>2026-05-01T09:16:30Z</time></trkpt><trkpt lat="44.56752305860231" lon="8.95088005569808"><ele>370.0</ele><time>2026-05-01T09:16:31Z</time></trkpt><trkpt lat="44.56749872719622" lon="8.951040739135328"><ele>370.0</ele><time>2026-05-01T09:16:32Z</time></trkpt><trkpt lat="44.56748757722469" lon="8.951200954583108"><ele>370.0</ele><time>2026-05-01T09:16:33Z</time></trkpt><trkpt lat="44.56747178789115" lon="8.951360790886783"><ele>370.0</ele><time>2026-05-01T09:16:34Z</time></trkpt><trkpt lat="44.56744390931383" lon="8.951508604861006"><ele>370.0</ele><time>2026-05-01T09:16:35Z</time></trkpt><trkpt lat="44.567449385089844" lon="8.951657600235382"><ele>370.0</ele><time>2026-05-01T09:16:36Z</time></trkpt><trkpt lat="44.56743382558002" lon="8.951797773243982"><ele>370.0</ele><time>2026-05-01T09:16:37Z</time></trkpt><trkpt lat="44.5674246250704" lon="8.951923472564854"><ele>370.0</ele><time>2026-05-01T09:16:38Z</time></trkpt><trkpt lat="44.56741817401741" lon="8.95203524035751"><ele>370.0</ele><time>2026-05-01T09:16:39Z</time></trkpt><trkpt lat="44.567407212650664" lon="8.952139196771842"><ele>369.8</ele><time>2026-05-01T09:16:40Z</time></trkpt><trkpt lat="44.567394500280614" lon="8.952294276830036"><ele>369.6</ele><time>2026-05-01T09:16:42Z</time></trkpt><trkpt lat="44.56738704545226" lon="8.952446080696777"><ele>369.4</ele><time>2026-05-01T09:16:44Z</time></trkpt><trkpt lat="44.5673766455596" lon="8.952596364687114"><ele>369.2</ele><time>2026-05-01T09:16:46Z</time></trkpt><trkpt lat="44.56736951734729" lon="8.952735815260551"><ele>369.0</ele><time>2026-05-01T09:16:48Z</time></trkpt><trkpt lat="44.56735327796998" lon="8.952852110146594"><ele>368.4</ele><time>2026-05-01T09:16:49Z</time></trkpt><trkpt lat="44.567339157602284" lon="8.952964240956533"><ele>367.79999999999995</ele><time>2026-05-01T09:16:50Z</time></trkpt><trkpt lat="44.56734391646632" lon="8.953119277257978"><ele>367.20000000000005</ele><time>2026-05-01T09:16:52Z</time></trkpt><trkpt lat="44.567349508749594" lon="8.95330634530977"><ele>366.6</ele><time>2026-05-01T09:16:54Z</time></trkpt><trkpt lat="44.56735707151763" lon="8.953439571066697"><ele>366.0</ele><time>2026-05-01T09:16:55.001Z</time></trkpt><trkpt lat="44.56738359876608" lon="8.953588644391383"><ele>365.75</ele><time>2026-05-01T09:16:56.001Z</time></trkpt><trkpt lat="44.56735341793703" lon="8.953786057820171"><ele>365.5</ele><time>2026-05-01T09:16:57.001Z</time></trkpt><trkpt lat="44.56733687586485" lon="8.953977896761515"><ele>365.25</ele><time>2026-05-01T09:16:58.001Z</time></trkpt><trkpt lat="44.56732523992552" lon="8.954169373241234"><ele>365.0</ele><time>2026-05-01T09:16:59.001Z</time></trkpt><trkpt lat="44.56731757948575" lon="8.954337914893458"><ele>365.0</ele><time>2026-05-01T09:17:00.001Z</time></trkpt><trkpt lat="44.56731267423002" lon="8.954491859189332"><ele>365.0</ele><time>2026-05-01T09:17:01.001Z</time></trkpt><trkpt lat="44.567308716488135" lon="8.954650826238705"><ele>365.0</ele><time>2026-05-01T09:17:02.001Z</time></trkpt><trkpt lat="44.56730320801672" lon="8.954813398244033"><ele>365.0</ele><time>2026-05-01T09:17:03.001Z</time></trkpt><trkpt lat="44.56729458297971" lon="8.954979408594749"><ele>364.25</ele><time>2026-05-01T09:17:04.001Z</time></trkpt><trkpt lat="44.567285535536286" lon="8.955142390937953"><ele>363.5</ele><time>2026-05-01T09:17:05.001Z</time></trkpt><trkpt lat="44.567274298769355" lon="8.955305506262317"><ele>362.75</ele><time>2026-05-01T09:17:06.001Z</time></trkpt><trkpt lat="44.56727049241666" lon="8.955469101302045"><ele>362.0</ele><time>2026-05-01T09:17:07.001Z</time></trkpt><trkpt lat="44.567260952807985" lon="8.955656372330333"><ele>363.6666666666667</ele><time>2026-05-01T09:17:08.001Z</time></trkpt><trkpt lat="44.567275932657566" lon="8.955904366345328"><ele>365.3333333333333</ele><time>2026-05-01T09:17:09.001Z</time></trkpt><trkpt lat="44.56731830854276" lon="8.956178534797134"><ele>367.0</ele><time>2026-05-01T09:17:10.001Z</time></trkpt><trkpt lat="44.567355906602074" lon="8.956435488297313"><ele>367.0</ele><time>2026-05-01T09:17:11.001Z</time></trkpt><trkpt lat="44.56739165953806" lon="8.95670067210498"><ele>367.0</ele><time>2026-05-01T09:17:12.001Z</time></trkpt><trkpt lat="44.567426771222735" lon="8.95696435950429"><ele>367.0</ele><time>2026-05-01T09:17:13.001Z</time></trkpt><trkpt lat="44.567456178299395" lon="8.957223168602065"><ele>370.66666666666663</ele><time>2026-05-01T09:17:14.001Z</time></trkpt><trkpt lat="44.56748055600002" lon="8.957488588266017"><ele>374.3333333333333</ele><time>2026-05-01T09:17:15.001Z</time></trkpt><trkpt lat="44.56750237444293" lon="8.957760261663532"><ele>378.0</ele><time>2026-05-01T09:17:16.001Z</time></trkpt><trkpt lat="44.567523171474555" lon="8.958019130751296"><ele>380.33333333333337</ele><time>2026-05-01T09:17:17.001Z</time></trkpt><trkpt lat="44.56754270467171" lon="8.958256961831898"><ele>382.6666666666667</ele><time>2026-05-01T09:17:18.001Z</time></trkpt><trkpt lat="44.56755707019904" lon="8.958475062007938"><ele>385.0</ele><time>2026-05-01T09:17:19.001Z</time></trkpt><trkpt lat="44.56756095282535" lon="8.958693479067604"><ele>385.0</ele><time>2026-05-01T09:17:20.001Z</time></trkpt><trkpt lat="44.56755038815714" lon="8.95889945626605"><ele>385.0</ele><time>2026-05-01T09:17:21.001Z</time></trkpt><trkpt lat="44.567528635200254" lon="8.959087911412011"><ele>385.0</ele><time>2026-05-01T09:17:22.001Z</time></trkpt><trkpt lat="44.56751336374295" lon="8.959268713336037"><ele>385.0</ele><time>2026-05-01T09:17:23.001Z</time></trkpt><trkpt lat="44.56745671445512" lon="8.959415915910615"><ele>384.2</ele><time>2026-05-01T09:17:24.001Z</time></trkpt><trkpt lat="44.56740990972381" lon="8.959565949863611"><ele>383.4</ele><time>2026-05-01T09:17:25.001Z</time></trkpt><trkpt lat="44.56738446428597" lon="8.959713761201758"><ele>382.6</ele><time>2026-05-01T09:17:26.001Z</time></trkpt><trkpt lat="44.567341048845954" lon="8.959830476056473"><ele>381.8</ele><time>2026-05-01T09:17:27.001Z</time></trkpt><trkpt lat="44.56730261974285" lon="8.959940292766655"><ele>381.0</ele><time>2026-05-01T09:17:28.001Z</time></trkpt><trkpt lat="44.567262936142164" lon="8.96004826339055"><ele>379.6666666666667</ele><time>2026-05-01T09:17:29.001Z</time></trkpt><trkpt lat="44.56722285683308" lon="8.960162828674619"><ele>378.3333333333333</ele><time>2026-05-01T09:17:30.001Z</time></trkpt><trkpt lat="44.56718155283152" lon="8.960278147530104"><ele>377.0</ele><time>2026-05-01T09:17:31.001Z</time></trkpt><trkpt lat="44.56714359401915" lon="8.960391672552232"><ele>375.66666666666663</ele><time>2026-05-01T09:17:32.001Z</time></trkpt><trkpt lat="44.56709075763873" lon="8.960479594679006"><ele>374.3333333333333</ele><time>2026-05-01T09:17:33.001Z</time></trkpt><trkpt lat="44.567058415703656" lon="8.960587578829506"><ele>373.0</ele><time>2026-05-01T09:17:34.001Z</time></trkpt><trkpt lat="44.56703090339485" lon="8.960687252606121"><ele>375.0</ele><time>2026-05-01T09:17:35.001Z</time></trkpt><trkpt lat="44.56700936643356" lon="8.960774124167203"><ele>377.0</ele><time>2026-05-01T09:17:35.999Z</time></trkpt><trkpt lat="44.56697222064196" lon="8.96092306124603"><ele>379.0</ele><time>2026-05-01T09:17:37.999Z</time></trkpt><trkpt lat="44.56695009517057" lon="8.961012617379145"><ele>381.0</ele><time>2026-05-01T09:17:39.999Z</time></trkpt><trkpt lat="44.566929217915" lon="8.961098207263923"><ele>383.00000000000006</ele><time>2026-05-01T09:17:41.999Z</time></trkpt><trkpt lat="44.56689833359158" lon="8.961221400713745"><ele>385.0</ele><time>2026-05-01T09:17:43.999Z</time></trkpt><trkpt lat="44.566868513183756" lon="8.961330869432127"><ele>385.0</ele><time>2026-05-01T09:17:45.999Z</time></trkpt><trkpt lat="44.566844281726944" lon="8.96141470674746"><ele>385.0</ele><time>2026-05-01T09:17:47.999Z</time></trkpt><trkpt lat="44.5668188339472" lon="8.961500964138832"><ele>385.0</ele><time>2026-05-01T09:18:00Z</time></trkpt><trkpt lat="44.56676525317754" lon="8.9616704761022"><ele>385.0</ele><time>2026-05-01T09:18:02Z</time></trkpt><trkpt lat="44.56674030625026" lon="8.961810010990124"><ele>385.0</ele><time>2026-05-01T09:18:03Z</time></trkpt><trkpt lat="44.566691940485505" lon="8.961960679831094"><ele>383.75</ele><time>2026-05-01T09:18:04Z</time></trkpt><trkpt lat="44.56663568199305" lon="8.96213325969228"><ele>382.5</ele><time>2026-05-01T09:18:05Z</time></trkpt><trkpt lat="44.56658232090831" lon="8.962311970859405"><ele>381.25</ele><time>2026-05-01T09:18:06Z</time></trkpt><trkpt lat="44.56653044266917" lon="8.962513714106981"><ele>380.0</ele><time>2026-05-01T09:18:07Z</time></trkpt><trkpt lat="44.566479231851105" lon="8.962724049936453"><ele>379.0</ele><time>2026-05-01T09:18:08Z</time></trkpt><trkpt lat="44.56641272246994" lon="8.962928772358355"><ele>378.0</ele><time>2026-05-01T09:18:09Z</time></trkpt><trkpt lat="44.566383607572874" lon="8.963145340201628"><ele>377.0</ele><time>2026-05-01T09:18:10Z</time></trkpt><trkpt lat="44.56632625697694" lon="8.963355364719774"><ele>376.75</ele><time>2026-05-01T09:18:11Z</time></trkpt><trkpt lat="44.56629421267142" lon="8.963561532354746"><ele>376.5</ele><time>2026-05-01T09:18:12Z</time></trkpt><trkpt lat="44.566260746527284" lon="8.963748346001221"><ele>376.25</ele><time>2026-05-01T09:18:13Z</time></trkpt><trkpt lat="44.56621254577512" lon="8.963941912608247"><ele>376.0</ele><time>2026-05-01T09:18:14Z</time></trkpt><trkpt lat="44.56613004660013" lon="8.964143098447474"><ele>378.66666666666663</ele><time>2026-05-01T09:18:15Z</time></trkpt><trkpt lat="44.56606518246998" lon="8.964373681439074"><ele>381.3333333333333</ele><time>2026-05-01T09:18:16Z</time></trkpt><trkpt lat="44.56597528908883" lon="8.96458706941857"><ele>384.0</ele><time>2026-05-01T09:18:17Z</time></trkpt><trkpt lat="44.565894993673986" lon="8.964795375462415"><ele>384.0</ele><time>2026-05-01T09:18:18Z</time></trkpt><trkpt lat="44.56582209887471" lon="8.964974866723589"><ele>384.0</ele><time>2026-05-01T09:18:19Z</time></trkpt><trkpt lat="44.56572683614702" lon="8.965121091098673"><ele>384.0</ele><time>2026-05-01T09:18:20Z</time></trkpt><trkpt lat="44.56558023444474" lon="8.965203545110812"><ele>384.0</ele><time>2026-05-01T09:18:21Z</time></trkpt><trkpt lat="44.565435597768065" lon="8.96533485862758"><ele>381.0</ele><time>2026-05-01T09:18:22Z</time></trkpt><trkpt lat="44.565305132279256" lon="8.9654597231981"><ele>378.0</ele><time>2026-05-01T09:18:23Z</time></trkpt><trkpt lat="44.56516688703445" lon="8.965510077967103"><ele>375.0</ele><time>2026-05-01T09:18:24Z</time></trkpt><trkpt lat="44.565018668190476" lon="8.965538373406137"><ele>375.0</ele><time>2026-05-01T09:18:25Z</time></trkpt><trkpt lat="44.564871617324066" lon="8.965509227875572"><ele>375.0</ele><time>2026-05-01T09:18:26Z</time></trkpt><trkpt lat="44.56471572113256" lon="8.965444058966296"><ele>375.0</ele><time>2026-05-01T09:18:27Z</time></trkpt><trkpt lat="44.56453878727539" lon="8.965376670650436"><ele>374.6666666666667</ele><time>2026-05-01T09:18:28Z</time></trkpt><trkpt lat="44.56436004226834" lon="8.965271777943276"><ele>374.33333333333337</ele><time>2026-05-01T09:18:29Z</time></trkpt><trkpt lat="44.56416747848876" lon="8.965194779697585"><ele>374.0</ele><time>2026-05-01T09:18:30Z</time></trkpt><trkpt lat="44.56397320326313" lon="8.96515386195085"><ele>374.0</ele><time>2026-05-01T09:18:31Z</time></trkpt><trkpt lat="44.56379066850047" lon="8.965148445266355"><ele>374.0</ele><time>2026-05-01T09:18:32Z</time></trkpt><trkpt lat="44.56363252002922" lon="8.96517247517207"><ele>374.0</ele><time>2026-05-01T09:18:33Z</time></trkpt><trkpt lat="44.56349240373266" lon="8.965226209967696"><ele>375.6666666666667</ele><time>2026-05-01T09:18:34Z</time></trkpt><trkpt lat="44.56334679561327" lon="8.965327724485903"><ele>377.3333333333333</ele><time>2026-05-01T09:18:35Z</time></trkpt><trkpt lat="44.56320775446492" lon="8.965497749635587"><ele>379.0</ele><time>2026-05-01T09:18:36Z</time></trkpt><trkpt lat="44.56305314788785" lon="8.965706033876229"><ele>376.66666666666663</ele><time>2026-05-01T09:18:37Z</time></trkpt><trkpt lat="44.56289356614578" lon="8.965918158400855"><ele>374.3333333333333</ele><time>2026-05-01T09:18:38Z</time></trkpt><trkpt lat="44.5627281892329" lon="8.966133610717058"><ele>372.0</ele><time>2026-05-01T09:18:39Z</time></trkpt><trkpt lat="44.56256618915867" lon="8.966350730503857"><ele>371.5</ele><time>2026-05-01T09:18:40Z</time></trkpt><trkpt lat="44.56241610884789" lon="8.9666151500414"><ele>371.0</ele><time>2026-05-01T09:18:41Z</time></trkpt><trkpt lat="44.5622673141413" lon="8.966870958486412"><ele>371.0</ele><time>2026-05-01T09:18:42Z</time></trkpt><trkpt lat="44.56212535457291" lon="8.96709628348505"><ele>371.0</ele><time>2026-05-01T09:18:43Z</time></trkpt><trkpt lat="44.56196504195002" lon="8.967280903750956"><ele>371.0</ele><time>2026-05-01T09:18:44Z</time></trkpt><trkpt lat="44.56180349703961" lon="8.96747158203542"><ele>371.33333333333337</ele><time>2026-05-01T09:18:45Z</time></trkpt><trkpt lat="44.56165828706096" lon="8.967676994390192"><ele>371.6666666666667</ele><time>2026-05-01T09:18:46Z</time></trkpt><trkpt lat="44.56151183817259" lon="8.967873560032182"><ele>372.0</ele><time>2026-05-01T09:18:47Z</time></trkpt><trkpt lat="44.5613806050844" lon="8.968098839191015"><ele>372.0</ele><time>2026-05-01T09:18:48Z</time></trkpt><trkpt lat="44.56125708250527" lon="8.96831051534068"><ele>372.0</ele><time>2026-05-01T09:18:49Z</time></trkpt><trkpt lat="44.56116200896033" lon="8.968502949823012"><ele>372.0</ele><time>2026-05-01T09:18:50Z</time></trkpt><trkpt lat="44.5610935784694" lon="8.968661002872711"><ele>373.0</ele><time>2026-05-01T09:18:51Z</time></trkpt><trkpt lat="44.56103307910231" lon="8.968804212365335"><ele>374.0</ele><time>2026-05-01T09:18:52Z</time></trkpt><trkpt lat="44.56097179557863" lon="8.968956293828871"><ele>375.0</ele><time>2026-05-01T09:18:53Z</time></trkpt><trkpt lat="44.56091373819458" lon="8.969104340126217"><ele>376.0</ele><time>2026-05-01T09:18:54.001Z</time></trkpt><trkpt lat="44.56086980776749" lon="8.969216362719905"><ele>376.0</ele><time>2026-05-01T09:18:55.001Z</time></trkpt><trkpt lat="44.560827245221944" lon="8.969324897212294"><ele>376.0</ele><time>2026-05-01T09:18:56.001Z</time></trkpt><trkpt lat="44.56078214026083" lon="8.969442332889752"><ele>376.0</ele><time>2026-05-01T09:18:57.001Z</time></trkpt><trkpt lat="44.5607273862519" lon="8.96958518272647"><ele>376.0</ele><time>2026-05-01T09:18:58.001Z</time></trkpt><trkpt lat="44.56066879605447" lon="8.969738041165579"><ele>376.0</ele><time>2026-05-01T09:18:59.001Z</time></trkpt><trkpt lat="44.56060831173134" lon="8.96989584238217"><ele>375.25</ele><time>2026-05-01T09:19:00.001Z</time></trkpt><trkpt lat="44.560548770853266" lon="8.970049260436788"><ele>374.5</ele><time>2026-05-01T09:19:01.001Z</time></trkpt><trkpt lat="44.560487328960804" lon="8.970208036723097"><ele>373.75</ele><time>2026-05-01T09:19:02.001Z</time></trkpt><trkpt lat="44.56041332794028" lon="8.970399267943863"><ele>373.0</ele><time>2026-05-01T09:19:03.001Z</time></trkpt><trkpt lat="44.56032618978077" lon="8.970624451153626"><ele>374.3333333333333</ele><time>2026-05-01T09:19:04.001Z</time></trkpt><trkpt lat="44.56025673197854" lon="8.97087370532384"><ele>375.6666666666667</ele><time>2026-05-01T09:19:05.001Z</time></trkpt><trkpt lat="44.560166607024115" lon="8.971103592672486"><ele>377.0</ele><time>2026-05-01T09:19:06.001Z</time></trkpt><trkpt lat="44.56007405839192" lon="8.971322333036388"><ele>377.0</ele><time>2026-05-01T09:19:07.001Z</time></trkpt><trkpt lat="44.559989618177184" lon="8.971533334956137"><ele>377.0</ele><time>2026-05-01T09:19:08.001Z</time></trkpt><trkpt lat="44.55991215611225" lon="8.971741162192416"><ele>377.0</ele><time>2026-05-01T09:19:09.001Z</time></trkpt><trkpt lat="44.55983948006117" lon="8.971934047459838"><ele>377.0</ele><time>2026-05-01T09:19:10.001Z</time></trkpt><trkpt lat="44.559786061197926" lon="8.972073624741425"><ele>377.0</ele><time>2026-05-01T09:19:11.001Z</time></trkpt><trkpt lat="44.559746467489155" lon="8.972197208669726"><ele>377.0</ele><time>2026-05-01T09:19:12.001Z</time></trkpt><trkpt lat="44.55971254551514" lon="8.972300555107262"><ele>377.0</ele><time>2026-05-01T09:19:13.001Z</time></trkpt><trkpt lat="44.55967727789952" lon="8.97239206449648"><ele>377.0</ele><time>2026-05-01T09:19:14.001Z</time></trkpt><trkpt lat="44.559602587212616" lon="8.972504161185311"><ele>376.33333333333337</ele><time>2026-05-01T09:19:15.001Z</time></trkpt><trkpt lat="44.5595361679894" lon="8.972676552046732"><ele>375.6666666666667</ele><time>2026-05-01T09:19:16.001Z</time></trkpt><trkpt lat="44.55945672247205" lon="8.972884242959116"><ele>375.0</ele><time>2026-05-01T09:19:17.001Z</time></trkpt><trkpt lat="44.55936884392261" lon="8.973113969975994"><ele>375.3333333333333</ele><time>2026-05-01T09:19:18.001Z</time></trkpt><trkpt lat="44.55928042487969" lon="8.97334522817659"><ele>375.66666666666663</ele><time>2026-05-01T09:19:19.001Z</time></trkpt><trkpt lat="44.55918760827347" lon="8.973585746447919"><ele>376.0</ele><time>2026-05-01T09:19:20.001Z</time></trkpt><trkpt lat="44.55908916872178" lon="8.973841946627472"><ele>376.0</ele><time>2026-05-01T09:19:21.001Z</time></trkpt><trkpt lat="44.5589990919121" lon="8.974119148071082"><ele>376.0</ele><time>2026-05-01T09:19:22.001Z</time></trkpt><trkpt lat="44.55889376619609" lon="8.97438731267038"><ele>376.0</ele><time>2026-05-01T09:19:23.001Z</time></trkpt><trkpt lat="44.558791575658915" lon="8.974656842795303"><ele>378.0</ele><time>2026-05-01T09:19:24.001Z</time></trkpt><trkpt lat="44.55868297611414" lon="8.97493292504069"><ele>380.0</ele><time>2026-05-01T09:19:25.001Z</time></trkpt><trkpt lat="44.55857452561989" lon="8.975214264903178"><ele>380.0</ele><time>2026-05-01T09:19:26.001Z</time></trkpt><trkpt lat="44.55846340435915" lon="8.975502554220007"><ele>380.0</ele><time>2026-05-01T09:19:27.001Z</time></trkpt><trkpt lat="44.55834797274249" lon="8.97579169217292"><ele>378.5</ele><time>2026-05-01T09:19:28.001Z</time></trkpt><trkpt lat="44.558227177016754" lon="8.976074293776131"><ele>377.0</ele><time>2026-05-01T09:19:29.001Z</time></trkpt><trkpt lat="44.55809812955403" lon="8.976352130856013"><ele>377.0</ele><time>2026-05-01T09:19:30.001Z</time></trkpt><trkpt lat="44.55794901628256" lon="8.976594747190404"><ele>377.0</ele><time>2026-05-01T09:19:31.001Z</time></trkpt><trkpt lat="44.55779820291339" lon="8.976845078957579"><ele>378.0</ele><time>2026-05-01T09:19:32.001Z</time></trkpt><trkpt lat="44.55763958982568" lon="8.977079422369767"><ele>379.0</ele><time>2026-05-01T09:19:33.001Z</time></trkpt><trkpt lat="44.557482286760255" lon="8.977321585955508"><ele>379.0</ele><time>2026-05-01T09:19:34.001Z</time></trkpt><trkpt lat="44.55731044182442" lon="8.97752499997758"><ele>379.0</ele><time>2026-05-01T09:19:35.001Z</time></trkpt><trkpt lat="44.55714385360849" lon="8.977714840171634"><ele>379.0</ele><time>2026-05-01T09:19:36.001Z</time></trkpt><trkpt lat="44.55698967680032" lon="8.977890701383645"><ele>379.0</ele><time>2026-05-01T09:19:37.001Z</time></trkpt><trkpt lat="44.55684500745457" lon="8.978061289543469"><ele>379.0</ele><time>2026-05-01T09:19:38.001Z</time></trkpt><trkpt lat="44.55671872895356" lon="8.978230740546069"><ele>379.0</ele><time>2026-05-01T09:19:39.001Z</time></trkpt><trkpt lat="44.556591250383214" lon="8.978377492668997"><ele>378.3333333333333</ele><time>2026-05-01T09:19:40.001Z</time></trkpt><trkpt lat="44.55646967529833" lon="8.978522230911086"><ele>377.6666666666667</ele><time>2026-05-01T09:19:41.001Z</time></trkpt><trkpt lat="44.5563399102179" lon="8.978664203933944"><ele>377.0</ele><time>2026-05-01T09:19:42Z</time></trkpt><trkpt lat="44.55621864772955" lon="8.978787453155846"><ele>377.25</ele><time>2026-05-01T09:19:43Z</time></trkpt><trkpt lat="44.55608579436653" lon="8.978856624646006"><ele>377.5</ele><time>2026-05-01T09:19:44Z</time></trkpt><trkpt lat="44.555950176429434" lon="8.978917183105775"><ele>377.75</ele><time>2026-05-01T09:19:45Z</time></trkpt><trkpt lat="44.55580330681113" lon="8.978950181687063"><ele>378.0</ele><time>2026-05-01T09:19:46Z</time></trkpt><trkpt lat="44.55564881980004" lon="8.978977160749796"><ele>378.0</ele><time>2026-05-01T09:19:47Z</time></trkpt><trkpt lat="44.55549192982916" lon="8.978950356606859"><ele>378.0</ele><time>2026-05-01T09:19:48Z</time></trkpt><trkpt lat="44.55533426366168" lon="8.978891025734194"><ele>378.0</ele><time>2026-05-01T09:19:49Z</time></trkpt><trkpt lat="44.55516969653488" lon="8.978823967512565"><ele>377.0</ele><time>2026-05-01T09:19:50Z</time></trkpt><trkpt lat="44.555017656843916" lon="8.978773978279861"><ele>376.0</ele><time>2026-05-01T09:19:51Z</time></trkpt><trkpt lat="44.55488539702083" lon="8.978696155047942"><ele>375.0</ele><time>2026-05-01T09:19:52Z</time></trkpt><trkpt lat="44.55473274328749" lon="8.978652310352308"><ele>375.0</ele><time>2026-05-01T09:19:53Z</time></trkpt><trkpt lat="44.55457985349206" lon="8.978579658092764"><ele>375.0</ele><time>2026-05-01T09:19:54Z</time></trkpt><trkpt lat="44.55441844720396" lon="8.978521456692143"><ele>375.0</ele><time>2026-05-01T09:19:55Z</time></trkpt><trkpt lat="44.55424397165699" lon="8.978468260705906"><ele>374.6666666666667</ele><time>2026-05-01T09:19:56Z</time></trkpt><trkpt lat="44.554061777142685" lon="8.97842860919509"><ele>374.33333333333337</ele><time>2026-05-01T09:19:57Z</time></trkpt><trkpt lat="44.55386838054478" lon="8.978399064458687"><ele>374.0</ele><time>2026-05-01T09:19:58Z</time></trkpt><trkpt lat="44.55367127405643" lon="8.978366280713209"><ele>378.33333333333337</ele><time>2026-05-01T09:19:59Z</time></trkpt><trkpt lat="44.553479220201226" lon="8.978336148967236"><ele>382.6666666666667</ele><time>2026-05-01T09:20:00Z</time></trkpt><trkpt lat="44.55330378085372" lon="8.978294847794995"><ele>387.0</ele><time>2026-05-01T09:20:01Z</time></trkpt><trkpt lat="44.553150245086925" lon="8.978245490888796"><ele>387.0</ele><time>2026-05-01T09:20:02Z</time></trkpt><trkpt lat="44.55299226224606" lon="8.978188614336688"><ele>387.0</ele><time>2026-05-01T09:20:03Z</time></trkpt><trkpt lat="44.55284688750034" lon="8.97805060682375"><ele>387.0</ele><time>2026-05-01T09:20:04Z</time></trkpt><trkpt lat="44.552693566601384" lon="8.977899428187843"><ele>385.3333333333333</ele><time>2026-05-01T09:20:05Z</time></trkpt><trkpt lat="44.552542675808546" lon="8.977737210158185"><ele>383.66666666666663</ele><time>2026-05-01T09:20:06Z</time></trkpt><trkpt lat="44.55241126878719" lon="8.977570879476206"><ele>382.0</ele><time>2026-05-01T09:20:07Z</time></trkpt><trkpt lat="44.55228770494392" lon="8.977397471835086"><ele>382.3333333333333</ele><time>2026-05-01T09:20:08Z</time></trkpt><trkpt lat="44.55216778584457" lon="8.97722464936379"><ele>382.6666666666667</ele><time>2026-05-01T09:20:09Z</time></trkpt><trkpt lat="44.552042051043735" lon="8.977066315781626"><ele>383.0</ele><time>2026-05-01T09:20:10Z</time></trkpt><trkpt lat="44.551901349572816" lon="8.976928625604435"><ele>383.0</ele><time>2026-05-01T09:20:11Z</time></trkpt><trkpt lat="44.551752302995844" lon="8.976810191084198"><ele>383.0</ele><time>2026-05-01T09:20:12Z</time></trkpt><trkpt lat="44.55161171631331" lon="8.97670653755991"><ele>383.0</ele><time>2026-05-01T09:20:13Z</time></trkpt><trkpt lat="44.5514738451345" lon="8.976622623617985"><ele>384.6666666666667</ele><time>2026-05-01T09:20:14Z</time></trkpt><trkpt lat="44.551323081614015" lon="8.976567651987075"><ele>386.33333333333337</ele><time>2026-05-01T09:20:15Z</time></trkpt><trkpt lat="44.551148842400806" lon="8.976546914637852"><ele>388.0</ele><time>2026-05-01T09:20:16Z</time></trkpt><trkpt lat="44.55095430657793" lon="8.976518152171801"><ele>388.0</ele><time>2026-05-01T09:20:17Z</time></trkpt><trkpt lat="44.550744902986395" lon="8.976497123694733"><ele>388.0</ele><time>2026-05-01T09:20:18Z</time></trkpt><trkpt lat="44.55052251556083" lon="8.976493145761713"><ele>388.0</ele><time>2026-05-01T09:20:19Z</time></trkpt><trkpt lat="44.55031019110603" lon="8.97647146819337"><ele>387.0</ele><time>2026-05-01T09:20:20Z</time></trkpt><trkpt lat="44.550089556073054" lon="8.976479790850043"><ele>386.0</ele><time>2026-05-01T09:20:21Z</time></trkpt><trkpt lat="44.549866234817756" lon="8.976511585127732"><ele>385.0</ele><time>2026-05-01T09:20:22Z</time></trkpt><trkpt lat="44.5496398538088" lon="8.976567891350264"><ele>385.0</ele><time>2026-05-01T09:20:23Z</time></trkpt><trkpt lat="44.54941582989119" lon="8.976643913627095"><ele>385.0</ele><time>2026-05-01T09:20:24Z</time></trkpt><trkpt lat="44.549192342974116" lon="8.976711512475998"><ele>384.33333333333337</ele><time>2026-05-01T09:20:25Z</time></trkpt><trkpt lat="44.548977235990634" lon="8.976780107084954"><ele>383.6666666666667</ele><time>2026-05-01T09:20:26Z</time></trkpt><trkpt lat="44.54877831111756" lon="8.976837223646434"><ele>383.0</ele><time>2026-05-01T09:20:27Z</time></trkpt><trkpt lat="44.54859233434588" lon="8.97689113983469"><ele>383.0</ele><time>2026-05-01T09:20:28Z</time></trkpt><trkpt lat="44.54841829044989" lon="8.976944004810367"><ele>383.0</ele><time>2026-05-01T09:20:29Z</time></trkpt><trkpt lat="44.548254385818765" lon="8.976991760796565"><ele>383.0</ele><time>2026-05-01T09:20:30Z</time></trkpt><trkpt lat="44.5480989736342" lon="8.97703903497679"><ele>383.0</ele><time>2026-05-01T09:20:31Z</time></trkpt><trkpt lat="44.54794060057066" lon="8.977083721699676"><ele>383.0</ele><time>2026-05-01T09:20:32Z</time></trkpt><trkpt lat="44.54778986205716" lon="8.977125939155535"><ele>383.0</ele><time>2026-05-01T09:20:33Z</time></trkpt><trkpt lat="44.547640742779315" lon="8.977174095204441"><ele>383.33333333333337</ele><time>2026-05-01T09:20:34Z</time></trkpt><trkpt lat="44.54749770307962" lon="8.977258889125626"><ele>383.6666666666667</ele><time>2026-05-01T09:20:35Z</time></trkpt><trkpt lat="44.54737406030557" lon="8.97738948579821"><ele>384.0</ele><time>2026-05-01T09:20:36Z</time></trkpt><trkpt lat="44.547262865553314" lon="8.977533289950813"><ele>384.0</ele><time>2026-05-01T09:20:37.001Z</time></trkpt><trkpt lat="44.54714966115217" lon="8.977656627926935"><ele>384.0</ele><time>2026-05-01T09:20:38.001Z</time></trkpt><trkpt lat="44.54702999684731" lon="8.977758901151443"><ele>384.0</ele><time>2026-05-01T09:20:39.001Z</time></trkpt><trkpt lat="44.546903597407855" lon="8.977838200155666"><ele>384.0</ele><time>2026-05-01T09:20:40.001Z</time></trkpt><trkpt lat="44.54676831940118" lon="8.977865630475046"><ele>384.25</ele><time>2026-05-01T09:20:41.001Z</time></trkpt><trkpt lat="44.54662864096265" lon="8.977912510526176"><ele>384.5</ele><time>2026-05-01T09:20:42.001Z</time></trkpt><trkpt lat="44.54649435704508" lon="8.977969290084545"><ele>384.75</ele><time>2026-05-01T09:20:43.001Z</time></trkpt><trkpt lat="44.54635742454042" lon="8.977998274468787"><ele>385.0</ele><time>2026-05-01T09:20:44.001Z</time></trkpt><trkpt lat="44.54622109956115" lon="8.97803128700414"><ele>386.0</ele><time>2026-05-01T09:20:45.001Z</time></trkpt><trkpt lat="44.54609052938356" lon="8.978064994699691"><ele>387.0</ele><time>2026-05-01T09:20:46.001Z</time></trkpt><trkpt lat="44.54596372286904" lon="8.97810288863448"><ele>388.0</ele><time>2026-05-01T09:20:47.001Z</time></trkpt><trkpt lat="44.54583561039509" lon="8.97813879424235"><ele>389.0</ele><time>2026-05-01T09:20:48.001Z</time></trkpt><trkpt lat="44.54570651972604" lon="8.978173577513465"><ele>389.0</ele><time>2026-05-01T09:20:49.001Z</time></trkpt><trkpt lat="44.545576399755205" lon="8.978207545691319"><ele>389.0</ele><time>2026-05-01T09:20:50.001Z</time></trkpt><trkpt lat="44.54544836132583" lon="8.978242308353442"><ele>389.0</ele><time>2026-05-01T09:20:51.001Z</time></trkpt><trkpt lat="44.545312809411094" lon="8.97828325885174"><ele>389.0</ele><time>2026-05-01T09:20:52.001Z</time></trkpt><trkpt lat="44.545176574354755" lon="8.978320347295192"><ele>388.25</ele><time>2026-05-01T09:20:53.001Z</time></trkpt><trkpt lat="44.54503544688477" lon="8.978356937911268"><ele>387.5</ele><time>2026-05-01T09:20:54.001Z</time></trkpt><trkpt lat="44.54489043291401" lon="8.97837473354555"><ele>386.75</ele><time>2026-05-01T09:20:55.001Z</time></trkpt><trkpt lat="44.54475279204195" lon="8.978435522408473"><ele>386.0</ele><time>2026-05-01T09:20:56.001Z</time></trkpt><trkpt lat="44.54461687610282" lon="8.978470800896938"><ele>387.0</ele><time>2026-05-01T09:20:57.001Z</time></trkpt><trkpt lat="44.54448002542929" lon="8.97852835929027"><ele>388.0</ele><time>2026-05-01T09:20:58.001Z</time></trkpt><trkpt lat="44.544343942978706" lon="8.978617124291604"><ele>389.0</ele><time>2026-05-01T09:20:59.001Z</time></trkpt><trkpt lat="44.5442139546881" lon="8.978731541717789"><ele>390.0</ele><time>2026-05-01T09:21:00.001Z</time></trkpt><trkpt lat="44.54409101529049" lon="8.978867695332529"><ele>390.0</ele><time>2026-05-01T09:21:01.001Z</time></trkpt><trkpt lat="44.54398122580212" lon="8.979031995257905"><ele>390.0</ele><time>2026-05-01T09:21:02.001Z</time></trkpt><trkpt lat="44.543884483919186" lon="8.979217818156512"><ele>390.0</ele><time>2026-05-01T09:21:03.001Z</time></trkpt><trkpt lat="44.543800205567145" lon="8.97941473497721"><ele>390.66666666666663</ele><time>2026-05-01T09:21:04.001Z</time></trkpt><trkpt lat="44.54372247002471" lon="8.979613664245496"><ele>391.3333333333333</ele><time>2026-05-01T09:21:05.001Z</time></trkpt><trkpt lat="44.54365085729577" lon="8.979801799931007"><ele>392.0</ele><time>2026-05-01T09:21:06.001Z</time></trkpt><trkpt lat="44.54357458171304" lon="8.979983210051765"><ele>391.75</ele><time>2026-05-01T09:21:07.001Z</time></trkpt><trkpt lat="44.54349669335763" lon="8.980160673749708"><ele>391.5</ele><time>2026-05-01T09:21:08.001Z</time></trkpt><trkpt lat="44.543424475375666" lon="8.980332148919553"><ele>391.25</ele><time>2026-05-01T09:21:09.001Z</time></trkpt><trkpt lat="44.543352982944164" lon="8.980516564959396"><ele>391.0</ele><time>2026-05-01T09:21:10.001Z</time></trkpt><trkpt lat="44.543285233020384" lon="8.980688165074142"><ele>391.0</ele><time>2026-05-01T09:21:11.001Z</time></trkpt><trkpt lat="44.543215463196994" lon="8.980845940197774"><ele>391.0</ele><time>2026-05-01T09:21:12.001Z</time></trkpt><trkpt lat="44.54314922931026" lon="8.981017016927122"><ele>391.0</ele><time>2026-05-01T09:21:13.001Z</time></trkpt><trkpt lat="44.543075817086965" lon="8.981186036073876"><ele>391.0</ele><time>2026-05-01T09:21:14.001Z</time></trkpt><trkpt lat="44.54300505216672" lon="8.981360371150005"><ele>390.75</ele><time>2026-05-01T09:21:15.001Z</time></trkpt><trkpt lat="44.54294023543147" lon="8.981538245203632"><ele>390.5</ele><time>2026-05-01T09:21:16.001Z</time></trkpt><trkpt lat="44.542887708956016" lon="8.981721895899765"><ele>390.25</ele><time>2026-05-01T09:21:17.001Z</time></trkpt><trkpt lat="44.54286948076405" lon="8.9819112658606"><ele>390.0</ele><time>2026-05-01T09:21:18.001Z</time></trkpt><trkpt lat="44.54286944287094" lon="8.982108976597965"><ele>389.33333333333337</ele><time>2026-05-01T09:21:19.001Z</time></trkpt><trkpt lat="44.542895989006524" lon="8.98232448069993"><ele>388.6666666666667</ele><time>2026-05-01T09:21:20.001Z</time></trkpt><trkpt lat="44.54293566763855" lon="8.98257872271751"><ele>388.0</ele><time>2026-05-01T09:21:21.001Z</time></trkpt><trkpt lat="44.542986103206175" lon="8.982861052246971"><ele>388.0</ele><time>2026-05-01T09:21:22.001Z</time></trkpt><trkpt lat="44.54303942869939" lon="8.983154677647482"><ele>388.0</ele><time>2026-05-01T09:21:23.001Z</time></trkpt><trkpt lat="44.5430924355616" lon="8.983451612058289"><ele>388.0</ele><time>2026-05-01T09:21:24.001Z</time></trkpt><trkpt lat="44.54315667990092" lon="8.983717170476757"><ele>388.0</ele><time>2026-05-01T09:21:25.001Z</time></trkpt><trkpt lat="44.54319424756339" lon="8.983973329905146"><ele>388.0</ele><time>2026-05-01T09:21:26.001Z</time></trkpt><trkpt lat="44.54324047106347" lon="8.984205712460236"><ele>388.0</ele><time>2026-05-01T09:21:27.001Z</time></trkpt><trkpt lat="44.54326794868289" lon="8.984430267549318"><ele>389.5</ele><time>2026-05-01T09:21:28.001Z</time></trkpt><trkpt lat="44.543300752589104" lon="8.984634403450652"><ele>391.0</ele><time>2026-05-01T09:21:29.001Z</time></trkpt><trkpt lat="44.5433041722103" lon="8.98482055640481"><ele>392.5</ele><time>2026-05-01T09:21:30.001Z</time></trkpt><trkpt lat="44.54328531689501" lon="8.984997335127163"><ele>394.0</ele><time>2026-05-01T09:21:31.001Z</time></trkpt><trkpt lat="44.54323512959472" lon="8.985170757624093"><ele>394.25</ele><time>2026-05-01T09:21:32.001Z</time></trkpt><trkpt lat="44.54316656216728" lon="8.985341726352269"><ele>394.5</ele><time>2026-05-01T09:21:33.001Z</time></trkpt><trkpt lat="44.5430823577952" lon="8.985475865800888"><ele>394.75</ele><time>2026-05-01T09:21:34.001Z</time></trkpt><trkpt lat="44.54297794550034" lon="8.985575614434618"><ele>395.0</ele><time>2026-05-01T09:21:35.001Z</time></trkpt><trkpt lat="44.54284886332687" lon="8.985657815522611"><ele>395.0</ele><time>2026-05-01T09:21:36.001Z</time></trkpt><trkpt lat="44.54272103377834" lon="8.985769234065103"><ele>395.0</ele><time>2026-05-01T09:21:37.001Z</time></trkpt><trkpt lat="44.54258893449084" lon="8.985854735594147"><ele>395.0</ele><time>2026-05-01T09:21:38.001Z</time></trkpt><trkpt lat="44.54246341545836" lon="8.985951423494113"><ele>395.0</ele><time>2026-05-01T09:21:39.001Z</time></trkpt><trkpt lat="44.54233838788385" lon="8.986051229736674"><ele>396.0</ele><time>2026-05-01T09:21:40.001Z</time></trkpt><trkpt lat="44.54222069893115" lon="8.986167214044933"><ele>397.0</ele><time>2026-05-01T09:21:41.001Z</time></trkpt><trkpt lat="44.54210796342115" lon="8.986311630370453"><ele>398.0</ele><time>2026-05-01T09:21:42.001Z</time></trkpt><trkpt lat="44.54200409284615" lon="8.986489660429225"><ele>399.3333333333333</ele><time>2026-05-01T09:21:43.001Z</time></trkpt><trkpt lat="44.54191078906481" lon="8.986677483834146"><ele>400.66666666666663</ele><time>2026-05-01T09:21:44.001Z</time></trkpt><trkpt lat="44.54181746071164" lon="8.986861930173989"><ele>402.0</ele><time>2026-05-01T09:21:45.001Z</time></trkpt><trkpt lat="44.5417270834012" lon="8.987037340303962"><ele>402.0</ele><time>2026-05-01T09:21:46.001Z</time></trkpt><trkpt lat="44.54163692334332" lon="8.98721374310226"><ele>402.0</ele><time>2026-05-01T09:21:47.001Z</time></trkpt><trkpt lat="44.54154272805339" lon="8.987387291186945"><ele>402.0</ele><time>2026-05-01T09:21:48Z</time></trkpt><trkpt lat="44.54144882402596" lon="8.987560065047868"><ele>404.5</ele><time>2026-05-01T09:21:49Z</time></trkpt><trkpt lat="44.541358835194096" lon="8.987736232926602"><ele>407.0</ele><time>2026-05-01T09:21:50Z</time></trkpt><trkpt lat="44.54126148296004" lon="8.987894036741915"><ele>409.5</ele><time>2026-05-01T09:21:51Z</time></trkpt><trkpt lat="44.54117937197497" lon="8.988060262385886"><ele>412.0</ele><time>2026-05-01T09:21:52Z</time></trkpt><trkpt lat="44.541102033748075" lon="8.988218317340026"><ele>408.5</ele><time>2026-05-01T09:21:53Z</time></trkpt><trkpt lat="44.54102612455035" lon="8.988373451739053"><ele>405.0</ele><time>2026-05-01T09:21:54Z</time></trkpt><trkpt lat="44.54095293386277" lon="8.988522945608304"><ele>401.5</ele><time>2026-05-01T09:21:55Z</time></trkpt><trkpt lat="44.54087756012141" lon="8.98867644855462"><ele>398.0</ele><time>2026-05-01T09:21:56Z</time></trkpt><trkpt lat="44.54080426050986" lon="8.988825727550678"><ele>398.0</ele><time>2026-05-01T09:21:57Z</time></trkpt><trkpt lat="44.540733641533066" lon="8.98896821372633"><ele>398.0</ele><time>2026-05-01T09:21:58Z</time></trkpt><trkpt lat="44.54066311103283" lon="8.98910882378054"><ele>398.0</ele><time>2026-05-01T09:21:59Z</time></trkpt><trkpt lat="44.540592114525666" lon="8.989248571088694"><ele>398.0</ele><time>2026-05-01T09:22:00Z</time></trkpt><trkpt lat="44.54053107262676" lon="8.989400019451478"><ele>397.25</ele><time>2026-05-01T09:22:01Z</time></trkpt><trkpt lat="44.54045442265756" lon="8.989544402795923"><ele>396.5</ele><time>2026-05-01T09:22:02Z</time></trkpt><trkpt lat="44.54035748933361" lon="8.989676640283898"><ele>395.75</ele><time>2026-05-01T09:22:03Z</time></trkpt><trkpt lat="44.540276684736945" lon="8.98983872269131"><ele>395.0</ele><time>2026-05-01T09:22:04Z</time></trkpt><trkpt lat="44.54017572733071" lon="8.989986946936673"><ele>401.66666666666663</ele><time>2026-05-01T09:22:05Z</time></trkpt><trkpt lat="44.540065651386676" lon="8.99012827008134"><ele>408.33333333333337</ele><time>2026-05-01T09:22:06Z</time></trkpt><trkpt lat="44.53994290476991" lon="8.990266869396573"><ele>415.0</ele><time>2026-05-01T09:22:07Z</time></trkpt><trkpt lat="44.53981784379025" lon="8.99039883835596"><ele>415.0</ele><time>2026-05-01T09:22:08Z</time></trkpt><trkpt lat="44.53968148825301" lon="8.990512441145773"><ele>415.0</ele><time>2026-05-01T09:22:09Z</time></trkpt><trkpt lat="44.53956611486882" lon="8.99065234550998"><ele>415.0</ele><time>2026-05-01T09:22:10Z</time></trkpt><trkpt lat="44.5394480948842" lon="8.990761053490834"><ele>412.75</ele><time>2026-05-01T09:22:11Z</time></trkpt><trkpt lat="44.539330878772674" lon="8.990867291838976"><ele>410.5</ele><time>2026-05-01T09:22:12Z</time></trkpt><trkpt lat="44.539219025956" lon="8.990971371514387"><ele>408.25</ele><time>2026-05-01T09:22:13Z</time></trkpt><trkpt lat="44.53911355014876" lon="8.991069023929365"><ele>406.0</ele><time>2026-05-01T09:22:14Z</time></trkpt><trkpt lat="44.539009384428596" lon="8.991165222787709"><ele>406.0</ele><time>2026-05-01T09:22:15Z</time></trkpt><trkpt lat="44.53890264110397" lon="8.991260912575415"><ele>406.0</ele><time>2026-05-01T09:22:16Z</time></trkpt><trkpt lat="44.53879405774277" lon="8.991355183386261"><ele>406.0</ele><time>2026-05-01T09:22:17Z</time></trkpt><trkpt lat="44.53868262758225" lon="8.991445405996876"><ele>406.0</ele><time>2026-05-01T09:22:18Z</time></trkpt><trkpt lat="44.538558212099375" lon="8.991509255276545"><ele>401.6666666666667</ele><time>2026-05-01T09:22:19Z</time></trkpt><trkpt lat="44.538414408644506" lon="8.991545361613511"><ele>397.33333333333337</ele><time>2026-05-01T09:22:20Z</time></trkpt><trkpt lat="44.538240464694894" lon="8.991542802647624"><ele>393.0</ele><time>2026-05-01T09:22:21Z</time></trkpt><trkpt lat="44.53805691351572" lon="8.991508127898712"><ele>392.33333333333337</ele><time>2026-05-01T09:22:22Z</time></trkpt><trkpt lat="44.53787403088828" lon="8.991472736775092"><ele>391.6666666666667</ele><time>2026-05-01T09:22:23Z</time></trkpt><trkpt lat="44.537693242985355" lon="8.991436349642528"><ele>391.0</ele><time>2026-05-01T09:22:24Z</time></trkpt><trkpt lat="44.53750420561852" lon="8.991406251597262"><ele>391.0</ele><time>2026-05-01T09:22:25Z</time></trkpt><trkpt lat="44.5373053713197" lon="8.991370100958818"><ele>391.0</ele><time>2026-05-01T09:22:26Z</time></trkpt><trkpt lat="44.53710435567034" lon="8.991331135590757"><ele>391.0</ele><time>2026-05-01T09:22:27.001Z</time></trkpt><trkpt lat="44.53689546071124" lon="8.991286099402222"><ele>391.6666666666667</ele><time>2026-05-01T09:22:28.001Z</time></trkpt><trkpt lat="44.53667820164321" lon="8.991250107699186"><ele>392.33333333333337</ele><time>2026-05-01T09:22:29.001Z</time></trkpt><trkpt lat="44.53646256260044" lon="8.991190169653382"><ele>393.0</ele><time>2026-05-01T09:22:30.001Z</time></trkpt><trkpt lat="44.536233180499536" lon="8.991146666608747"><ele>395.5</ele><time>2026-05-01T09:22:31.001Z</time></trkpt><trkpt lat="44.53599305574349" lon="8.991101126165175"><ele>398.0</ele><time>2026-05-01T09:22:32.001Z</time></trkpt><trkpt lat="44.53575684787333" lon="8.991056328566618"><ele>398.0</ele><time>2026-05-01T09:22:33.001Z</time></trkpt><trkpt lat="44.53552534927376" lon="8.991031646407373"><ele>398.0</ele><time>2026-05-01T09:22:34.001Z</time></trkpt><trkpt lat="44.5352991738151" lon="8.990982708951607"><ele>398.0</ele><time>2026-05-01T09:22:35.001Z</time></trkpt><trkpt lat="44.535077307590214" lon="8.990941288486251"><ele>398.0</ele><time>2026-05-01T09:22:36.001Z</time></trkpt><trkpt lat="44.53487265277094" lon="8.990897654588698"><ele>398.0</ele><time>2026-05-01T09:22:37.001Z</time></trkpt><trkpt lat="44.534681726362535" lon="8.990856890282863"><ele>397.0</ele><time>2026-05-01T09:22:38.001Z</time></trkpt><trkpt lat="44.534501830207155" lon="8.990819988481025"><ele>396.0</ele><time>2026-05-01T09:22:39.001Z</time></trkpt><trkpt lat="44.53433245829147" lon="8.990790446492584"><ele>395.0</ele><time>2026-05-01T09:22:40.001Z</time></trkpt><trkpt lat="44.53416650448382" lon="8.990789722127445"><ele>395.0</ele><time>2026-05-01T09:22:41.001Z</time></trkpt><trkpt lat="44.53398999823344" lon="8.990833421170947"><ele>395.0</ele><time>2026-05-01T09:22:42.001Z</time></trkpt><trkpt lat="44.53380429609668" lon="8.99091203683618"><ele>395.0</ele><time>2026-05-01T09:22:43.001Z</time></trkpt><trkpt lat="44.533622629277275" lon="8.991016501805174"><ele>395.3333333333333</ele><time>2026-05-01T09:22:44.001Z</time></trkpt><trkpt lat="44.53344386988054" lon="8.991144525562804"><ele>395.66666666666663</ele><time>2026-05-01T09:22:45.001Z</time></trkpt><trkpt lat="44.533273273678304" lon="8.991297233198654"><ele>396.0</ele><time>2026-05-01T09:22:46.001Z</time></trkpt><trkpt lat="44.533109166615105" lon="8.991485161117957"><ele>396.0</ele><time>2026-05-01T09:22:47.001Z</time></trkpt><trkpt lat="44.53295336005352" lon="8.99167028932261"><ele>396.0</ele><time>2026-05-01T09:22:48.001Z</time></trkpt><trkpt lat="44.532800385205" lon="8.99184133864204"><ele>396.0</ele><time>2026-05-01T09:22:49.001Z</time></trkpt><trkpt lat="44.532647119514436" lon="8.99201561106028"><ele>396.66666666666663</ele><time>2026-05-01T09:22:50.001Z</time></trkpt><trkpt lat="44.53250458992031" lon="8.992200888372809"><ele>397.3333333333333</ele><time>2026-05-01T09:22:51.001Z</time></trkpt><trkpt lat="44.53238286418042" lon="8.992397791818034"><ele>398.0</ele><time>2026-05-01T09:22:52.001Z</time></trkpt><trkpt lat="44.53228173888728" lon="8.992581967954731"><ele>398.5</ele><time>2026-05-01T09:22:53.001Z</time></trkpt><trkpt lat="44.53219991322826" lon="8.992748204354047"><ele>399.0</ele><time>2026-05-01T09:22:54.001Z</time></trkpt><trkpt lat="44.53213111711512" lon="8.992899315416219"><ele>399.5</ele><time>2026-05-01T09:22:55.001Z</time></trkpt><trkpt lat="44.532063662613695" lon="8.993021236863228"><ele>400.0</ele><time>2026-05-01T09:22:56.001Z</time></trkpt><trkpt lat="44.53199177413551" lon="8.99312397014439"><ele>399.6</ele><time>2026-05-01T09:22:57.001Z</time></trkpt><trkpt lat="44.531914251609216" lon="8.993203306318327"><ele>399.2</ele><time>2026-05-01T09:22:58.001Z</time></trkpt><trkpt lat="44.5318733054752" lon="8.993303057053144"><ele>398.79999999999995</ele><time>2026-05-01T09:22:59.001Z</time></trkpt><trkpt lat="44.53189469977819" lon="8.993440078534908"><ele>398.4</ele><time>2026-05-01T09:23:00.001Z</time></trkpt><trkpt lat="44.53191239607829" lon="8.993594352421944"><ele>398.0</ele><time>2026-05-01T09:23:01.001Z</time></trkpt><trkpt lat="44.53192011386908" lon="8.993763256040646"><ele>398.0</ele><time>2026-05-01T09:23:02.001Z</time></trkpt><trkpt lat="44.53191461196558" lon="8.993941885590809"><ele>398.0</ele><time>2026-05-01T09:23:03.001Z</time></trkpt><trkpt lat="44.53190569015195" lon="8.99412105465503"><ele>398.0</ele><time>2026-05-01T09:23:04.001Z</time></trkpt><trkpt lat="44.53189804775724" lon="8.994297798775817"><ele>398.0</ele><time>2026-05-01T09:23:05.001Z</time></trkpt><trkpt lat="44.53189257182035" lon="8.994478130125058"><ele>398.0</ele><time>2026-05-01T09:23:06.001Z</time></trkpt><trkpt lat="44.53188664630966" lon="8.994676824112709"><ele>398.0</ele><time>2026-05-01T09:23:07.001Z</time></trkpt><trkpt lat="44.53188122427555" lon="8.994904638190512"><ele>398.0</ele><time>2026-05-01T09:23:08.001Z</time></trkpt><trkpt lat="44.53187094811197" lon="8.99516958219369"><ele>398.0</ele><time>2026-05-01T09:23:09.001Z</time></trkpt><trkpt lat="44.53186180404654" lon="8.995444820512601"><ele>398.0</ele><time>2026-05-01T09:23:10.001Z</time></trkpt><trkpt lat="44.531852884655734" lon="8.995737973668556"><ele>398.0</ele><time>2026-05-01T09:23:11.001Z</time></trkpt><trkpt lat="44.53182623087571" lon="8.996039955238041"><ele>397.5</ele><time>2026-05-01T09:23:12.001Z</time></trkpt><trkpt lat="44.53181404359588" lon="8.99635064535703"><ele>397.0</ele><time>2026-05-01T09:23:13.001Z</time></trkpt><trkpt lat="44.53180075549954" lon="8.996677678424566"><ele>397.0</ele><time>2026-05-01T09:23:14.001Z</time></trkpt><trkpt lat="44.53178761019118" lon="8.99700148264787"><ele>397.0</ele><time>2026-05-01T09:23:15.001Z</time></trkpt><trkpt lat="44.53177408146994" lon="8.997331334144151"><ele>398.5</ele><time>2026-05-01T09:23:16.001Z</time></trkpt><trkpt lat="44.53175932778608" lon="8.997678045572812"><ele>400.0</ele><time>2026-05-01T09:23:17.001Z</time></trkpt><trkpt lat="44.53174489774283" lon="8.998021857066899"><ele>399.0</ele><time>2026-05-01T09:23:18.001Z</time></trkpt><trkpt lat="44.531730606277826" lon="8.998371486868493"><ele>398.0</ele><time>2026-05-01T09:23:19.001Z</time></trkpt><trkpt lat="44.53171641849289" lon="8.998724766340498"><ele>398.0</ele><time>2026-05-01T09:23:20.001Z</time></trkpt><trkpt lat="44.53170195197148" lon="8.999084985901309"><ele>398.0</ele><time>2026-05-01T09:23:21.001Z</time></trkpt><trkpt lat="44.53168801762291" lon="8.999435640173154"><ele>397.5</ele><time>2026-05-01T09:23:22.001Z</time></trkpt><trkpt lat="44.531674230371884" lon="8.999787201266642"><ele>397.0</ele><time>2026-05-01T09:23:23.001Z</time></trkpt><trkpt lat="44.53166073035021" lon="9.00013265815192"><ele>397.0</ele><time>2026-05-01T09:23:24.001Z</time></trkpt><trkpt lat="44.531647073882525" lon="9.000482118384692"><ele>397.0</ele><time>2026-05-01T09:23:25.001Z</time></trkpt><trkpt lat="44.53163348553487" lon="9.000829835407968"><ele>398.0</ele><time>2026-05-01T09:23:26.001Z</time></trkpt><trkpt lat="44.53163636750051" lon="9.001180700732421"><ele>399.0</ele><time>2026-05-01T09:23:27.001Z</time></trkpt><trkpt lat="44.531621176417005" lon="9.001526531553175"><ele>399.5</ele><time>2026-05-01T09:23:28.001Z</time></trkpt><trkpt lat="44.531608277024546" lon="9.00186235263489"><ele>400.0</ele><time>2026-05-01T09:23:29.001Z</time></trkpt><trkpt lat="44.53159066908685" lon="9.002197464046969"><ele>400.5</ele><time>2026-05-01T09:23:30.001Z</time></trkpt><trkpt lat="44.53157587092563" lon="9.002521950000029"><ele>401.0</ele><time>2026-05-01T09:23:31.001Z</time></trkpt><trkpt lat="44.5315618027524" lon="9.002855213384608"><ele>401.0</ele><time>2026-05-01T09:23:32.001Z</time></trkpt><trkpt lat="44.53154974351086" lon="9.003179763755499"><ele>401.0</ele><time>2026-05-01T09:23:33.001Z</time></trkpt><trkpt lat="44.53153460832953" lon="9.003514237946382"><ele>401.0</ele><time>2026-05-01T09:23:34.001Z</time></trkpt><trkpt lat="44.531521855302124" lon="9.003839066253752"><ele>401.0</ele><time>2026-05-01T09:23:35.001Z</time></trkpt><trkpt lat="44.53151183298803" lon="9.004138650366285"><ele>401.0</ele><time>2026-05-01T09:23:36.001Z</time></trkpt><trkpt lat="44.53150197332138" lon="9.004417952980692"><ele>401.66666666666663</ele><time>2026-05-01T09:23:37.001Z</time></trkpt><trkpt lat="44.53149278478051" lon="9.004680135878564"><ele>402.33333333333337</ele><time>2026-05-01T09:23:38.001Z</time></trkpt><trkpt lat="44.5314838985103" lon="9.004923897872663"><ele>403.0</ele><time>2026-05-01T09:23:39.001Z</time></trkpt><trkpt lat="44.53147417527571" lon="9.005159210282542"><ele>403.6666666666667</ele><time>2026-05-01T09:23:40.001Z</time></trkpt><trkpt lat="44.53145026371432" lon="9.005373590587524"><ele>404.33333333333337</ele><time>2026-05-01T09:23:41.001Z</time></trkpt><trkpt lat="44.53144087691944" lon="9.005597878582146"><ele>405.0</ele><time>2026-05-01T09:23:42.001Z</time></trkpt><trkpt lat="44.53143486748358" lon="9.005815163933208"><ele>405.33333333333337</ele><time>2026-05-01T09:23:43.001Z</time></trkpt><trkpt lat="44.53145700362066" lon="9.006031201531089"><ele>405.6666666666667</ele><time>2026-05-01T09:23:44.001Z</time></trkpt><trkpt lat="44.531473078030054" lon="9.006241343221998"><ele>406.0</ele><time>2026-05-01T09:23:45.002Z</time></trkpt><trkpt lat="44.531504254418515" lon="9.006446630347764"><ele>406.0</ele><time>2026-05-01T09:23:46.002Z</time></trkpt><trkpt lat="44.53152285750387" lon="9.00666559136239"><ele>406.0</ele><time>2026-05-01T09:23:47.002Z</time></trkpt><trkpt lat="44.53155887410214" lon="9.006891580447874"><ele>406.0</ele><time>2026-05-01T09:23:48.002Z</time></trkpt><trkpt lat="44.5316815737367" lon="9.007059652647127"><ele>406.0</ele><time>2026-05-01T09:23:49.002Z</time></trkpt><trkpt lat="44.53173749142347" lon="9.007230527484511"><ele>406.0</ele><time>2026-05-01T09:23:50.002Z</time></trkpt><trkpt lat="44.53179097541461" lon="9.007396013086954"><ele>406.0</ele><time>2026-05-01T09:23:51.002Z</time></trkpt><trkpt lat="44.53185187787916" lon="9.007573394056367"><ele>406.0</ele><time>2026-05-01T09:23:52.002Z</time></trkpt><trkpt lat="44.53193077529431" lon="9.007780619561311"><ele>407.33333333333337</ele><time>2026-05-01T09:23:53.002Z</time></trkpt><trkpt lat="44.532013774546435" lon="9.008001203839838"><ele>408.66666666666663</ele><time>2026-05-01T09:23:54Z</time></trkpt><trkpt lat="44.532090050141605" lon="9.008214603846904"><ele>410.0</ele><time>2026-05-01T09:23:55Z</time></trkpt><trkpt lat="44.532158234498056" lon="9.008408728515265"><ele>414.5</ele><time>2026-05-01T09:23:56Z</time></trkpt><trkpt lat="44.53221849345727" lon="9.008598309243402"><ele>419.0</ele><time>2026-05-01T09:23:57Z</time></trkpt><trkpt lat="44.53227187088819" lon="9.00878025565017"><ele>423.5</ele><time>2026-05-01T09:23:58Z</time></trkpt><trkpt lat="44.532321587047456" lon="9.008951946353653"><ele>428.0</ele><time>2026-05-01T09:23:59Z</time></trkpt><trkpt lat="44.53237470767026" lon="9.009115414723032"><ele>427.75</ele><time>2026-05-01T09:24:00Z</time></trkpt><trkpt lat="44.532427434228055" lon="9.009270804283432"><ele>427.5</ele><time>2026-05-01T09:24:01Z</time></trkpt><trkpt lat="44.53248201339521" lon="9.00941561780809"><ele>427.25</ele><time>2026-05-01T09:24:02Z</time></trkpt><trkpt lat="44.53253099742307" lon="9.009558336988649"><ele>427.0</ele><time>2026-05-01T09:24:03Z</time></trkpt><trkpt lat="44.532581930060076" lon="9.009693635109736"><ele>427.0</ele><time>2026-05-01T09:24:04Z</time></trkpt><trkpt lat="44.53262736032742" lon="9.009840100882517"><ele>427.0</ele><time>2026-05-01T09:24:05Z</time></trkpt><trkpt lat="44.53266604673285" lon="9.00999179346798"><ele>427.0</ele><time>2026-05-01T09:24:06Z</time></trkpt><trkpt lat="44.53268630613448" lon="9.010153220596768"><ele>427.0</ele><time>2026-05-01T09:24:07Z</time></trkpt><trkpt lat="44.5326808714843" lon="9.010327278940307"><ele>426.5</ele><time>2026-05-01T09:24:08Z</time></trkpt><trkpt lat="44.53265450022785" lon="9.01052440290774"><ele>426.0</ele><time>2026-05-01T09:24:09Z</time></trkpt><trkpt lat="44.532614734864595" lon="9.010727162179098"><ele>425.5</ele><time>2026-05-01T09:24:10Z</time></trkpt><trkpt lat="44.53258351025226" lon="9.010913719633875"><ele>425.0</ele><time>2026-05-01T09:24:11Z</time></trkpt><trkpt lat="44.53255944489579" lon="9.011089175110829"><ele>424.25</ele><time>2026-05-01T09:24:12Z</time></trkpt><trkpt lat="44.532536042295895" lon="9.011263684310633"><ele>423.5</ele><time>2026-05-01T09:24:13Z</time></trkpt><trkpt lat="44.53251608208369" lon="9.011429805729488"><ele>422.75</ele><time>2026-05-01T09:24:14Z</time></trkpt><trkpt lat="44.53250074771024" lon="9.011593707715969"><ele>422.0</ele><time>2026-05-01T09:24:15Z</time></trkpt><trkpt lat="44.53250014492762" lon="9.011756125537703"><ele>421.40000000000003</ele><time>2026-05-01T09:24:16Z</time></trkpt><trkpt lat="44.53251905668343" lon="9.011907440061451"><ele>420.8</ele><time>2026-05-01T09:24:17Z</time></trkpt><trkpt lat="44.53255704153465" lon="9.012050384684825"><ele>420.2</ele><time>2026-05-01T09:24:18Z</time></trkpt><trkpt lat="44.53260433854521" lon="9.012183120535559"><ele>419.6</ele><time>2026-05-01T09:24:19Z</time></trkpt><trkpt lat="44.53264834187004" lon="9.012309458789227"><ele>419.0</ele><time>2026-05-01T09:24:20Z</time></trkpt><trkpt lat="44.53268726609635" lon="9.012426602222101"><ele>418.8333333333333</ele><time>2026-05-01T09:24:21Z</time></trkpt><trkpt lat="44.53271632894351" lon="9.012540212073546"><ele>418.66666666666663</ele><time>2026-05-01T09:24:22Z</time></trkpt><trkpt lat="44.532727618055375" lon="9.012655409414139"><ele>418.5</ele><time>2026-05-01T09:24:23Z</time></trkpt><trkpt lat="44.53271402633456" lon="9.012768282542421"><ele>418.33333333333337</ele><time>2026-05-01T09:24:24Z</time></trkpt><trkpt lat="44.53267240205777" lon="9.012874284496206"><ele>418.1666666666667</ele><time>2026-05-01T09:24:25Z</time></trkpt><trkpt lat="44.5326078003316" lon="9.012955314702316"><ele>418.0</ele><time>2026-05-01T09:24:26Z</time></trkpt><trkpt lat="44.53252717444246" lon="9.01302218468425"><ele>418.0</ele><time>2026-05-01T09:24:27Z</time></trkpt><trkpt lat="44.53244957356116" lon="9.013085065831508"><ele>418.0</ele><time>2026-05-01T09:24:28Z</time></trkpt><trkpt lat="44.53237306086922" lon="9.013161152818338"><ele>418.0</ele><time>2026-05-01T09:24:29Z</time></trkpt><trkpt lat="44.53229889624123" lon="9.013239401941645"><ele>418.0</ele><time>2026-05-01T09:24:30.001Z</time></trkpt><trkpt lat="44.53222179192297" lon="9.013314094985203"><ele>418.0</ele><time>2026-05-01T09:24:31.001Z</time></trkpt><trkpt lat="44.5321364315278" lon="9.013381341320507"><ele>419.0</ele><time>2026-05-01T09:24:32.001Z</time></trkpt><trkpt lat="44.53204327362965" lon="9.013422083663905"><ele>420.0</ele><time>2026-05-01T09:24:33.001Z</time></trkpt><trkpt lat="44.5319371779124" lon="9.013423322609585"><ele>421.0</ele><time>2026-05-01T09:24:34.001Z</time></trkpt><trkpt lat="44.53181318558449" lon="9.013380592431234"><ele>422.0</ele><time>2026-05-01T09:24:35.001Z</time></trkpt><trkpt lat="44.531676598408794" lon="9.013315628738608"><ele>419.0</ele><time>2026-05-01T09:24:36.001Z</time></trkpt><trkpt lat="44.53152538019973" lon="9.013263076720527"><ele>416.0</ele><time>2026-05-01T09:24:37.001Z</time></trkpt><trkpt lat="44.53135361596572" lon="9.013245525143782"><ele>413.0</ele><time>2026-05-01T09:24:38.001Z</time></trkpt><trkpt lat="44.531150281861954" lon="9.013237292742566"><ele>413.0</ele><time>2026-05-01T09:24:39.001Z</time></trkpt><trkpt lat="44.5309725723349" lon="9.013209531723607"><ele>413.0</ele><time>2026-05-01T09:24:40.001Z</time></trkpt><trkpt lat="44.530816375279755" lon="9.01317487689583"><ele>413.0</ele><time>2026-05-01T09:24:41.001Z</time></trkpt><trkpt lat="44.530681349326876" lon="9.013150982035011"><ele>413.0</ele><time>2026-05-01T09:24:42.001Z</time></trkpt><trkpt lat="44.53055858419167" lon="9.013123166201888"><ele>413.0</ele><time>2026-05-01T09:24:43.001Z</time></trkpt><trkpt lat="44.53044877522465" lon="9.013079187933227"><ele>413.0</ele><time>2026-05-01T09:24:44.001Z</time></trkpt><trkpt lat="44.53035181398175" lon="9.013010325768587"><ele>413.0</ele><time>2026-05-01T09:24:45.001Z</time></trkpt><trkpt lat="44.530262157372746" lon="9.012922199557265"><ele>413.5</ele><time>2026-05-01T09:24:46.001Z</time></trkpt><trkpt lat="44.53015878683869" lon="9.012837528757814"><ele>414.0</ele><time>2026-05-01T09:24:47.001Z</time></trkpt><trkpt lat="44.53005118309899" lon="9.012758517087777"><ele>414.5</ele><time>2026-05-01T09:24:48.001Z</time></trkpt><trkpt lat="44.529941423572495" lon="9.012684503145135"><ele>415.0</ele><time>2026-05-01T09:24:49.001Z</time></trkpt><trkpt lat="44.52982725709013" lon="9.012625620388778"><ele>415.0</ele><time>2026-05-01T09:24:50.001Z</time></trkpt><trkpt lat="44.52970866386944" lon="9.012585574636933"><ele>415.0</ele><time>2026-05-01T09:24:51.001Z</time></trkpt><trkpt lat="44.529587798671656" lon="9.012569290219695"><ele>415.0</ele><time>2026-05-01T09:24:52.001Z</time></trkpt><trkpt lat="44.52946594061504" lon="9.012567600755439"><ele>415.0</ele><time>2026-05-01T09:24:53.001Z</time></trkpt><trkpt lat="44.52934729230865" lon="9.012555613172935"><ele>414.25</ele><time>2026-05-01T09:24:54.001Z</time></trkpt><trkpt lat="44.529232129904344" lon="9.01253571156401"><ele>413.5</ele><time>2026-05-01T09:24:55.001Z</time></trkpt><trkpt lat="44.529119840577344" lon="9.0125014418303"><ele>412.75</ele><time>2026-05-01T09:24:56.001Z</time></trkpt><trkpt lat="44.52900483911134" lon="9.012459393932442"><ele>412.0</ele><time>2026-05-01T09:24:57.001Z</time></trkpt><trkpt lat="44.52888873350237" lon="9.012416429670735"><ele>412.0</ele><time>2026-05-01T09:24:58.001Z</time></trkpt><trkpt lat="44.52877591918991" lon="9.012370847150862"><ele>412.0</ele><time>2026-05-01T09:24:59.001Z</time></trkpt><trkpt lat="44.528668249159686" lon="9.012330284986005"><ele>412.0</ele><time>2026-05-01T09:25:00.001Z</time></trkpt><trkpt lat="44.5285531047243" lon="9.012307352452456"><ele>412.0</ele><time>2026-05-01T09:25:01.001Z</time></trkpt><trkpt lat="44.52843333235045" lon="9.012319088740014"><ele>412.20000000000005</ele><time>2026-05-01T09:25:02.001Z</time></trkpt><trkpt lat="44.52832067409186" lon="9.012357897790547"><ele>412.4</ele><time>2026-05-01T09:25:03.001Z</time></trkpt><trkpt lat="44.52822210104308" lon="9.012421028680807"><ele>412.6</ele><time>2026-05-01T09:25:04.001Z</time></trkpt><trkpt lat="44.528127261434825" lon="9.012496877437203"><ele>412.79999999999995</ele><time>2026-05-01T09:25:05.001Z</time></trkpt><trkpt lat="44.52802423730141" lon="9.012547311777904"><ele>413.0</ele><time>2026-05-01T09:25:06.001Z</time></trkpt><trkpt lat="44.52793546250735" lon="9.012639509714068"><ele>413.0</ele><time>2026-05-01T09:25:07.001Z</time></trkpt><trkpt lat="44.52783738135146" lon="9.012714160465357"><ele>413.0</ele><time>2026-05-01T09:25:08.001Z</time></trkpt><trkpt lat="44.52774055994968" lon="9.012790376613072"><ele>413.0</ele><time>2026-05-01T09:25:09.001Z</time></trkpt><trkpt lat="44.52764844681261" lon="9.012863756548514"><ele>413.0</ele><time>2026-05-01T09:25:10.001Z</time></trkpt><trkpt lat="44.52755796914342" lon="9.012938738508636"><ele>413.0</ele><time>2026-05-01T09:25:11.001Z</time></trkpt><trkpt lat="44.52747019452706" lon="9.013018955106583"><ele>413.0</ele><time>2026-05-01T09:25:12.001Z</time></trkpt><trkpt lat="44.527388251193145" lon="9.013105253646492"><ele>413.0</ele><time>2026-05-01T09:25:13.001Z</time></trkpt><trkpt lat="44.52730015860695" lon="9.013173618187418"><ele>413.0</ele><time>2026-05-01T09:25:14.001Z</time></trkpt><trkpt lat="44.52724140289974" lon="9.013271148933802"><ele>413.0</ele><time>2026-05-01T09:25:15.001Z</time></trkpt><trkpt lat="44.5271705090256" lon="9.013353161936166"><ele>413.0</ele><time>2026-05-01T09:25:16.001Z</time></trkpt><trkpt lat="44.52709947246968" lon="9.01342694507493"><ele>412.4</ele><time>2026-05-01T09:25:17.001Z</time></trkpt><trkpt lat="44.52703092206295" lon="9.013491980868956"><ele>411.79999999999995</ele><time>2026-05-01T09:25:18.001Z</time></trkpt><trkpt lat="44.52695292462851" lon="9.013526214760475"><ele>411.2</ele><time>2026-05-01T09:25:19.001Z</time></trkpt><trkpt lat="44.52686476908679" lon="9.01351158660012"><ele>410.6</ele><time>2026-05-01T09:25:20.001Z</time></trkpt><trkpt lat="44.526786498732335" lon="9.01342552914561"><ele>410.0</ele><time>2026-05-01T09:25:21.001Z</time></trkpt><trkpt lat="44.52668545265899" lon="9.013358309247185"><ele>410.0</ele><time>2026-05-01T09:25:22.001Z</time></trkpt><trkpt lat="44.526594066206584" lon="9.013258132069437"><ele>410.0</ele><time>2026-05-01T09:25:23.001Z</time></trkpt><trkpt lat="44.52649390869341" lon="9.013158833953218"><ele>410.0</ele><time>2026-05-01T09:25:24.001Z</time></trkpt><trkpt lat="44.52638841361726" lon="9.013059215006981"><ele>410.0</ele><time>2026-05-01T09:25:25.001Z</time></trkpt><trkpt lat="44.5262836673546" lon="9.012975344407902"><ele>415.25</ele><time>2026-05-01T09:25:26.001Z</time></trkpt><trkpt lat="44.52618593575156" lon="9.012925531793723"><ele>420.5</ele><time>2026-05-01T09:25:27.001Z</time></trkpt><trkpt lat="44.5260774087788" lon="9.012910383739069"><ele>425.75</ele><time>2026-05-01T09:25:28.001Z</time></trkpt><trkpt lat="44.52595521799664" lon="9.012947259220763"><ele>431.0</ele><time>2026-05-01T09:25:29.001Z</time></trkpt><trkpt lat="44.5258382600215" lon="9.013020668322012"><ele>431.0</ele><time>2026-05-01T09:25:30.001Z</time></trkpt><trkpt lat="44.52572813037765" lon="9.013133809985352"><ele>431.0</ele><time>2026-05-01T09:25:31.001Z</time></trkpt><trkpt lat="44.52562445639858" lon="9.013283696157949"><ele>431.0</ele><time>2026-05-01T09:25:32.001Z</time></trkpt><trkpt lat="44.525487901957476" lon="9.013448365739979"><ele>430.0</ele><time>2026-05-01T09:25:33.001Z</time></trkpt><trkpt lat="44.525342192870006" lon="9.013639782855677"><ele>429.0</ele><time>2026-05-01T09:25:34.001Z</time></trkpt><trkpt lat="44.52523426092382" lon="9.01387900258209"><ele>428.0</ele><time>2026-05-01T09:25:35.001Z</time></trkpt><trkpt lat="44.52510469806904" lon="9.014029797093187"><ele>425.25</ele><time>2026-05-01T09:25:36.001Z</time></trkpt><trkpt lat="44.524990313376335" lon="9.014167204818987"><ele>422.5</ele><time>2026-05-01T09:25:37.001Z</time></trkpt><trkpt lat="44.524887940182694" lon="9.014296433738078"><ele>419.75</ele><time>2026-05-01T09:25:38.001Z</time></trkpt><trkpt lat="44.52477649125027" lon="9.014408553228694"><ele>417.0</ele><time>2026-05-01T09:25:39.001Z</time></trkpt><trkpt lat="44.52466506635116" lon="9.014559085967953"><ele>420.33333333333337</ele><time>2026-05-01T09:25:40.001Z</time></trkpt><trkpt lat="44.52454791461664" lon="9.014712392070178"><ele>423.6666666666667</ele><time>2026-05-01T09:25:41.001Z</time></trkpt><trkpt lat="44.524431216831964" lon="9.014856690282652"><ele>427.0</ele><time>2026-05-01T09:25:42.001Z</time></trkpt><trkpt lat="44.524311477159415" lon="9.014980235123817"><ele>425.25</ele><time>2026-05-01T09:25:43.001Z</time></trkpt><trkpt lat="44.52418361834842" lon="9.015087510112762"><ele>423.5</ele><time>2026-05-01T09:25:44.001Z</time></trkpt><trkpt lat="44.52405486973895" lon="9.015179963570844"><ele>421.75</ele><time>2026-05-01T09:25:45.001Z</time></trkpt><trkpt lat="44.523927139808855" lon="9.01525733935913"><ele>420.0</ele><time>2026-05-01T09:25:46.001Z</time></trkpt><trkpt lat="44.52380757307978" lon="9.015345797661213"><ele>422.75</ele><time>2026-05-01T09:25:47.001Z</time></trkpt><trkpt lat="44.523685016158055" lon="9.015409258173932"><ele>425.5</ele><time>2026-05-01T09:25:48.001Z</time></trkpt><trkpt lat="44.52356713292014" lon="9.015473704283442"><ele>428.25</ele><time>2026-05-01T09:25:49.001Z</time></trkpt><trkpt lat="44.5234414783443" lon="9.015521388740122"><ele>431.0</ele><time>2026-05-01T09:25:50.001Z</time></trkpt><trkpt lat="44.52332205939473" lon="9.015590049145445"><ele>431.0</ele><time>2026-05-01T09:25:51.001Z</time></trkpt><trkpt lat="44.52319753408274" lon="9.015661612656137"><ele>431.0</ele><time>2026-05-01T09:25:52.001Z</time></trkpt><trkpt lat="44.52307836035711" lon="9.01575359531103"><ele>431.0</ele><time>2026-05-01T09:25:53.001Z</time></trkpt><trkpt lat="44.5229554898851" lon="9.015814736053843"><ele>431.0</ele><time>2026-05-01T09:25:54.001Z</time></trkpt><trkpt lat="44.5228366730888" lon="9.015914759842401"><ele>429.0</ele><time>2026-05-01T09:25:55.001Z</time></trkpt><trkpt lat="44.52269381195366" lon="9.016046279801897"><ele>427.0</ele><time>2026-05-01T09:25:56.002Z</time></trkpt><trkpt lat="44.5225499756858" lon="9.016227011281023"><ele>425.0</ele><time>2026-05-01T09:25:57.002Z</time></trkpt><trkpt lat="44.52240189108512" lon="9.016403276257112"><ele>425.0</ele><time>2026-05-01T09:25:58.002Z</time></trkpt><trkpt lat="44.52224419437457" lon="9.016591943886228"><ele>425.0</ele><time>2026-05-01T09:25:59.002Z</time></trkpt><trkpt lat="44.52207465040818" lon="9.01679323969837"><ele>425.0</ele><time>2026-05-01T09:26:00Z</time></trkpt><trkpt lat="44.52190373695463" lon="9.017017655147816"><ele>424.0</ele><time>2026-05-01T09:26:01Z</time></trkpt><trkpt lat="44.521741345953934" lon="9.017268176238984"><ele>423.0</ele><time>2026-05-01T09:26:02Z</time></trkpt><trkpt lat="44.5216047792292" lon="9.017528220700628"><ele>423.0</ele><time>2026-05-01T09:26:03Z</time></trkpt><trkpt lat="44.52147419151761" lon="9.017757563769097"><ele>423.0</ele><time>2026-05-01T09:26:04Z</time></trkpt><trkpt lat="44.521335981743846" lon="9.017949826737413"><ele>423.0</ele><time>2026-05-01T09:26:05Z</time></trkpt><trkpt lat="44.521164905861625" lon="9.018084836077135"><ele>424.66666666666663</ele><time>2026-05-01T09:26:06Z</time></trkpt><trkpt lat="44.52099071731005" lon="9.018219860970099"><ele>426.3333333333333</ele><time>2026-05-01T09:26:07Z</time></trkpt><trkpt lat="44.5208278765411" lon="9.018356859228724"><ele>428.0</ele><time>2026-05-01T09:26:08Z</time></trkpt><trkpt lat="44.52066688910698" lon="9.018468777230238"><ele>428.0</ele><time>2026-05-01T09:26:09Z</time></trkpt><trkpt lat="44.52052580096462" lon="9.018582495082276"><ele>428.0</ele><time>2026-05-01T09:26:10Z</time></trkpt><trkpt lat="44.52038517324556" lon="9.018708423904604"><ele>428.0</ele><time>2026-05-01T09:26:11Z</time></trkpt><trkpt lat="44.520227183281094" lon="9.018874176035187"><ele>428.66666666666663</ele><time>2026-05-01T09:26:12Z</time></trkpt><trkpt lat="44.52006495482846" lon="9.019069992566472"><ele>429.33333333333337</ele><time>2026-05-01T09:26:13Z</time></trkpt><trkpt lat="44.51990760723217" lon="9.019287294193148"><ele>430.0</ele><time>2026-05-01T09:26:14Z</time></trkpt><trkpt lat="44.5197537507904" lon="9.019524183186093"><ele>430.0</ele><time>2026-05-01T09:26:15Z</time></trkpt><trkpt lat="44.51960360491296" lon="9.019748349927392"><ele>430.0</ele><time>2026-05-01T09:26:16Z</time></trkpt><trkpt lat="44.51944658943097" lon="9.019963255094261"><ele>430.0</ele><time>2026-05-01T09:26:17Z</time></trkpt><trkpt lat="44.51927404190937" lon="9.020154749625418"><ele>430.6666666666667</ele><time>2026-05-01T09:26:18Z</time></trkpt><trkpt lat="44.519086288801645" lon="9.020304986717857"><ele>431.33333333333337</ele><time>2026-05-01T09:26:19Z</time></trkpt><trkpt lat="44.518921930611405" lon="9.020448872549998"><ele>432.0</ele><time>2026-05-01T09:26:20Z</time></trkpt><trkpt lat="44.518768927658435" lon="9.02058557638542"><ele>432.75</ele><time>2026-05-01T09:26:21Z</time></trkpt><trkpt lat="44.51863788815352" lon="9.020700231249533"><ele>433.5</ele><time>2026-05-01T09:26:22Z</time></trkpt><trkpt lat="44.518525121899295" lon="9.02081724881231"><ele>434.25</ele><time>2026-05-01T09:26:23Z</time></trkpt><trkpt lat="44.51839644773893" lon="9.020872191629802"><ele>435.0</ele><time>2026-05-01T09:26:24Z</time></trkpt><trkpt lat="44.518275314680906" lon="9.020927516780166"><ele>435.0</ele><time>2026-05-01T09:26:25Z</time></trkpt><trkpt lat="44.51815768823184" lon="9.020983010650331"><ele>435.0</ele><time>2026-05-01T09:26:26Z</time></trkpt><trkpt lat="44.518048682594106" lon="9.021065570720468"><ele>435.0</ele><time>2026-05-01T09:26:27Z</time></trkpt><trkpt lat="44.517938076269196" lon="9.021143345810707"><ele>435.0</ele><time>2026-05-01T09:26:28Z</time></trkpt><trkpt lat="44.517828146918774" lon="9.021264253576142"><ele>434.0</ele><time>2026-05-01T09:26:29Z</time></trkpt><trkpt lat="44.517694058748184" lon="9.021415854810968"><ele>433.0</ele><time>2026-05-01T09:26:30Z</time></trkpt><trkpt lat="44.51755804253932" lon="9.02158265255473"><ele>432.0</ele><time>2026-05-01T09:26:31Z</time></trkpt><trkpt lat="44.517421846380266" lon="9.02174259443443"><ele>432.0</ele><time>2026-05-01T09:26:32Z</time></trkpt><trkpt lat="44.517260639151196" lon="9.021929193969731"><ele>432.0</ele><time>2026-05-01T09:26:33Z</time></trkpt><trkpt lat="44.51711115325061" lon="9.022110679147557"><ele>432.0</ele><time>2026-05-01T09:26:34Z</time></trkpt><trkpt lat="44.51698517105131" lon="9.022295125835123"><ele>432.33333333333337</ele><time>2026-05-01T09:26:35Z</time></trkpt><trkpt lat="44.51685929876133" lon="9.022487907074487"><ele>432.6666666666667</ele><time>2026-05-01T09:26:36Z</time></trkpt><trkpt lat="44.51675304795749" lon="9.02269421543264"><ele>433.0</ele><time>2026-05-01T09:26:37Z</time></trkpt><trkpt lat="44.51666716148132" lon="9.022914654415445"><ele>433.0</ele><time>2026-05-01T09:26:38Z</time></trkpt><trkpt lat="44.51660460828109" lon="9.023158374283101"><ele>433.0</ele><time>2026-05-01T09:26:39Z</time></trkpt><trkpt lat="44.51656692456903" lon="9.023406818237406"><ele>433.0</ele><time>2026-05-01T09:26:40Z</time></trkpt><trkpt lat="44.51653906812559" lon="9.023625506231376"><ele>433.0</ele><time>2026-05-01T09:26:41Z</time></trkpt><trkpt lat="44.516502306059714" lon="9.02380389341564"><ele>433.0</ele><time>2026-05-01T09:26:42Z</time></trkpt><trkpt lat="44.5163975281622" lon="9.02392382381169"><ele>433.0</ele><time>2026-05-01T09:26:43.001Z</time></trkpt><trkpt lat="44.51628778310516" lon="9.024048822598214"><ele>433.0</ele><time>2026-05-01T09:26:44.001Z</time></trkpt><trkpt lat="44.51614937219105" lon="9.024168513066405"><ele>433.0</ele><time>2026-05-01T09:26:45.001Z</time></trkpt><trkpt lat="44.515996332344926" lon="9.024300544995052"><ele>433.0</ele><time>2026-05-01T09:26:46.001Z</time></trkpt><trkpt lat="44.515843187294934" lon="9.024421670796846"><ele>433.0</ele><time>2026-05-01T09:26:47.001Z</time></trkpt><trkpt lat="44.51570295898314" lon="9.024547968284987"><ele>433.0</ele><time>2026-05-01T09:26:48.001Z</time></trkpt><trkpt lat="44.5155933750458" lon="9.024669309372989"><ele>433.0</ele><time>2026-05-01T09:26:49.001Z</time></trkpt><trkpt lat="44.51551796437777" lon="9.02480728099255"><ele>433.0</ele><time>2026-05-01T09:26:50.001Z</time></trkpt><trkpt lat="44.51548417602311" lon="9.02498067267109"><ele>433.0</ele><time>2026-05-01T09:26:51.001Z</time></trkpt><trkpt lat="44.51547761732431" lon="9.025193476115522"><ele>431.33333333333337</ele><time>2026-05-01T09:26:52.001Z</time></trkpt><trkpt lat="44.51549449844299" lon="9.025451718389464"><ele>429.66666666666663</ele><time>2026-05-01T09:26:53.001Z</time></trkpt><trkpt lat="44.5154995790855" lon="9.025735863161334"><ele>428.0</ele><time>2026-05-01T09:26:54.001Z</time></trkpt><trkpt lat="44.51549321944553" lon="9.02605002933113"><ele>428.0</ele><time>2026-05-01T09:26:55.001Z</time></trkpt><trkpt lat="44.51544506475222" lon="9.02637840814867"><ele>428.0</ele><time>2026-05-01T09:26:56.001Z</time></trkpt><trkpt lat="44.515379421164404" lon="9.02673714145901"><ele>429.5</ele><time>2026-05-01T09:26:57.001Z</time></trkpt><trkpt lat="44.515317075249484" lon="9.027095909191175"><ele>431.0</ele><time>2026-05-01T09:26:58.001Z</time></trkpt><trkpt lat="44.51525169035022" lon="9.027468807420043"><ele>432.5</ele><time>2026-05-01T09:26:59.001Z</time></trkpt><trkpt lat="44.51518318259975" lon="9.027854271406673"><ele>434.0</ele><time>2026-05-01T09:27:00.001Z</time></trkpt><trkpt lat="44.515115969801094" lon="9.028233042795616"><ele>433.5</ele><time>2026-05-01T09:27:01.001Z</time></trkpt><trkpt lat="44.515049618060075" lon="9.02860696922163"><ele>433.0</ele><time>2026-05-01T09:27:02.001Z</time></trkpt><trkpt lat="44.515003381589985" lon="9.028996932984755"><ele>433.0</ele><time>2026-05-01T09:27:03.001Z</time></trkpt><trkpt lat="44.514941081055866" lon="9.029360775186746"><ele>433.0</ele><time>2026-05-01T09:27:04.001Z</time></trkpt><trkpt lat="44.51488198293508" lon="9.029687458456495"><ele>434.0</ele><time>2026-05-01T09:27:05.001Z</time></trkpt><trkpt lat="44.51481935933659" lon="9.029998237159624"><ele>435.0</ele><time>2026-05-01T09:27:06.001Z</time></trkpt><trkpt lat="44.5147160514884" lon="9.030294170551848"><ele>435.0</ele><time>2026-05-01T09:27:07.001Z</time></trkpt><trkpt lat="44.51463271433579" lon="9.03057635744968"><ele>435.0</ele><time>2026-05-01T09:27:08.001Z</time></trkpt><trkpt lat="44.51455165185062" lon="9.030837229083192"><ele>435.0</ele><time>2026-05-01T09:27:09.001Z</time></trkpt><trkpt lat="44.51444696636075" lon="9.03106740427851"><ele>439.0</ele><time>2026-05-01T09:27:10.001Z</time></trkpt><trkpt lat="44.51432346182739" lon="9.03127287408755"><ele>443.0</ele><time>2026-05-01T09:27:11.001Z</time></trkpt><trkpt lat="44.5141681890568" lon="9.031468617805938"><ele>447.0</ele><time>2026-05-01T09:27:12.001Z</time></trkpt><trkpt lat="44.513992189717804" lon="9.031670434459274"><ele>447.0</ele><time>2026-05-01T09:27:13.001Z</time></trkpt><trkpt lat="44.51380685996999" lon="9.031886171577506"><ele>447.0</ele><time>2026-05-01T09:27:14.001Z</time></trkpt><trkpt lat="44.51364798200348" lon="9.032162678327108"><ele>453.5</ele><time>2026-05-01T09:27:15.001Z</time></trkpt><trkpt lat="44.513464742776506" lon="9.032424249385693"><ele>460.0</ele><time>2026-05-01T09:27:16.001Z</time></trkpt><trkpt lat="44.51330986399361" lon="9.032626872621954"><ele>460.0</ele><time>2026-05-01T09:27:17.001Z</time></trkpt><trkpt lat="44.51318060815516" lon="9.032828976800404"><ele>460.0</ele><time>2026-05-01T09:27:18.001Z</time></trkpt><trkpt lat="44.5130573152804" lon="9.032990542012879"><ele>460.0</ele><time>2026-05-01T09:27:19.001Z</time></trkpt><trkpt lat="44.51295875005113" lon="9.033145930778339"><ele>463.75</ele><time>2026-05-01T09:27:20.001Z</time></trkpt><trkpt lat="44.51289481082572" lon="9.033314265131693"><ele>467.5</ele><time>2026-05-01T09:27:21.001Z</time></trkpt><trkpt lat="44.512863337621205" lon="9.033510696966902"><ele>471.25</ele><time>2026-05-01T09:27:22.001Z</time></trkpt><trkpt lat="44.51286439842845" lon="9.033727280324571"><ele>475.0</ele><time>2026-05-01T09:27:23.001Z</time></trkpt><trkpt lat="44.512899920469934" lon="9.033926942114174"><ele>465.0</ele><time>2026-05-01T09:27:24.001Z</time></trkpt><trkpt lat="44.512983363336296" lon="9.03410066505981"><ele>455.0</ele><time>2026-05-01T09:27:25.001Z</time></trkpt><trkpt lat="44.5131007622703" lon="9.03424136190693"><ele>445.0</ele><time>2026-05-01T09:27:26.001Z</time></trkpt><trkpt lat="44.51322115883661" lon="9.03437978559716"><ele>444.6666666666667</ele><time>2026-05-01T09:27:27.001Z</time></trkpt><trkpt lat="44.51331441226368" lon="9.034545155954385"><ele>444.33333333333337</ele><time>2026-05-01T09:27:28.001Z</time></trkpt><trkpt lat="44.51339612142383" lon="9.034775305311767"><ele>444.0</ele><time>2026-05-01T09:27:29.001Z</time></trkpt><trkpt lat="44.513486787225396" lon="9.035050185129503"><ele>447.66666666666663</ele><time>2026-05-01T09:27:30.001Z</time></trkpt><trkpt lat="44.513567368900425" lon="9.035323274912068"><ele>451.3333333333333</ele><time>2026-05-01T09:27:31.001Z</time></trkpt><trkpt lat="44.51363394586271" lon="9.035581445884388"><ele>455.0</ele><time>2026-05-01T09:27:32.001Z</time></trkpt><trkpt lat="44.51368400933062" lon="9.035847192620663"><ele>460.0</ele><time>2026-05-01T09:27:33.001Z</time></trkpt><trkpt lat="44.51370641500577" lon="9.03611896038028"><ele>465.0</ele><time>2026-05-01T09:27:34.001Z</time></trkpt><trkpt lat="44.51370378470389" lon="9.036366351881663"><ele>470.0</ele><time>2026-05-01T09:27:35.001Z</time></trkpt><trkpt lat="44.513719480946584" lon="9.03656998199428"><ele>463.75</ele><time>2026-05-01T09:27:36.001Z</time></trkpt><trkpt lat="44.51377919110851" lon="9.036733220727141"><ele>457.5</ele><time>2026-05-01T09:27:37.001Z</time></trkpt><trkpt lat="44.51388049465152" lon="9.036896406785516"><ele>451.25</ele><time>2026-05-01T09:27:38.001Z</time></trkpt><trkpt lat="44.51398390156256" lon="9.037070416876812"><ele>445.0</ele><time>2026-05-01T09:27:39.001Z</time></trkpt><trkpt lat="44.51405406034151" lon="9.037240854480352"><ele>445.0</ele><time>2026-05-01T09:27:40.001Z</time></trkpt><trkpt lat="44.51410027707652" lon="9.037422247334185"><ele>445.0</ele><time>2026-05-01T09:27:41.001Z</time></trkpt><trkpt lat="44.51409155287227" lon="9.0376100624559"><ele>445.0</ele><time>2026-05-01T09:27:42.001Z</time></trkpt><trkpt lat="44.514070561937324" lon="9.037795029528173"><ele>445.0</ele><time>2026-05-01T09:27:43.001Z</time></trkpt><trkpt lat="44.51400404550949" lon="9.037977331341166"><ele>446.25</ele><time>2026-05-01T09:27:44.001Z</time></trkpt><trkpt lat="44.51390622018058" lon="9.038143035288229"><ele>447.5</ele><time>2026-05-01T09:27:45.001Z</time></trkpt><trkpt lat="44.513780573687924" lon="9.038259696141376"><ele>448.75</ele><time>2026-05-01T09:27:46.001Z</time></trkpt><trkpt lat="44.51365940091581" lon="9.038369988266307"><ele>450.0</ele><time>2026-05-01T09:27:47.001Z</time></trkpt><trkpt lat="44.51354930415443" lon="9.038408237729213"><ele>453.5</ele><time>2026-05-01T09:27:48.001Z</time></trkpt><trkpt lat="44.51345566933068" lon="9.038364909230664"><ele>457.0</ele><time>2026-05-01T09:27:49.001Z</time></trkpt><trkpt lat="44.513340850538206" lon="9.038323200367529"><ele>460.5</ele><time>2026-05-01T09:27:50.001Z</time></trkpt><trkpt lat="44.5132181679531" lon="9.03818845415859"><ele>464.0</ele><time>2026-05-01T09:27:51.001Z</time></trkpt><trkpt lat="44.51309539179816" lon="9.038066158030821"><ele>468.75</ele><time>2026-05-01T09:27:52.001Z</time></trkpt><trkpt lat="44.51297929675399" lon="9.038023522403796"><ele>473.5</ele><time>2026-05-01T09:27:53.001Z</time></trkpt><trkpt lat="44.5128629163397" lon="9.038057160414159"><ele>478.25</ele><time>2026-05-01T09:27:54.001Z</time></trkpt><trkpt lat="44.51275178469024" lon="9.038145908179521"><ele>483.0</ele><time>2026-05-01T09:27:55.001Z</time></trkpt><trkpt lat="44.512657018871394" lon="9.038277085019265"><ele>480.5</ele><time>2026-05-01T09:27:56.001Z</time></trkpt><trkpt lat="44.51261964821402" lon="9.03842920151963"><ele>478.0</ele><time>2026-05-01T09:27:57.001Z</time></trkpt><trkpt lat="44.51261087210696" lon="9.038595244105075"><ele>475.5</ele><time>2026-05-01T09:27:58.001Z</time></trkpt><trkpt lat="44.51263588720601" lon="9.038775487498917"><ele>473.0</ele><time>2026-05-01T09:27:59.001Z</time></trkpt><trkpt lat="44.512687203896796" lon="9.038961874134259"><ele>473.0</ele><time>2026-05-01T09:28:00.001Z</time></trkpt><trkpt lat="44.512771599124726" lon="9.039133858149183"><ele>473.0</ele><time>2026-05-01T09:28:01.001Z</time></trkpt><trkpt lat="44.5128896838855" lon="9.039285501741745"><ele>473.0</ele><time>2026-05-01T09:28:02.001Z</time></trkpt><trkpt lat="44.51302066530881" lon="9.03941288207066"><ele>466.66666666666663</ele><time>2026-05-01T09:28:03.001Z</time></trkpt><trkpt lat="44.513095926169704" lon="9.039605238792323"><ele>460.33333333333337</ele><time>2026-05-01T09:28:04.001Z</time></trkpt><trkpt lat="44.51316691699333" lon="9.03982209885091"><ele>454.0</ele><time>2026-05-01T09:28:05.001Z</time></trkpt><trkpt lat="44.51323565449542" lon="9.040045310988583"><ele>454.0</ele><time>2026-05-01T09:28:06Z</time></trkpt><trkpt lat="44.51329566572402" lon="9.040246772277111"><ele>454.0</ele><time>2026-05-01T09:28:07Z</time></trkpt><trkpt lat="44.51334973278271" lon="9.04042827871623"><ele>454.0</ele><time>2026-05-01T09:28:08Z</time></trkpt><trkpt lat="44.5133982867892" lon="9.040591277505198"><ele>454.0</ele><time>2026-05-01T09:28:09Z</time></trkpt><trkpt lat="44.51343135391617" lon="9.04073317475839"><ele>455.0</ele><time>2026-05-01T09:28:10Z</time></trkpt><trkpt lat="44.51343927956757" lon="9.040869750603264"><ele>456.0</ele><time>2026-05-01T09:28:11Z</time></trkpt><trkpt lat="44.51342066776666" lon="9.040994507574341"><ele>457.0</ele><time>2026-05-01T09:28:12Z</time></trkpt><trkpt lat="44.5133849157228" lon="9.041124338936054"><ele>458.0</ele><time>2026-05-01T09:28:13Z</time></trkpt><trkpt lat="44.51334282547444" lon="9.041262941703392"><ele>459.0</ele><time>2026-05-01T09:28:14Z</time></trkpt><trkpt lat="44.51330152125311" lon="9.041399774315217"><ele>459.0</ele><time>2026-05-01T09:28:15Z</time></trkpt><trkpt lat="44.51327282712736" lon="9.041539399351773"><ele>459.0</ele><time>2026-05-01T09:28:16Z</time></trkpt><trkpt lat="44.51327432494399" lon="9.041684721531949"><ele>459.0</ele><time>2026-05-01T09:28:17Z</time></trkpt><trkpt lat="44.51330265460805" lon="9.041833730913229"><ele>459.0</ele><time>2026-05-01T09:28:18Z</time></trkpt><trkpt lat="44.51336531338374" lon="9.042015729282516"><ele>457.66666666666663</ele><time>2026-05-01T09:28:19Z</time></trkpt><trkpt lat="44.513447437037826" lon="9.04222724291843"><ele>456.3333333333333</ele><time>2026-05-01T09:28:20Z</time></trkpt><trkpt lat="44.51352223641332" lon="9.042413304552321"><ele>455.0</ele><time>2026-05-01T09:28:21Z</time></trkpt><trkpt lat="44.51358542099859" lon="9.042570474730564"><ele>455.0</ele><time>2026-05-01T09:28:22Z</time></trkpt><trkpt lat="44.513636333674455" lon="9.042697117893463"><ele>455.0</ele><time>2026-05-01T09:28:23Z</time></trkpt><trkpt lat="44.51368216459099" lon="9.042815398156213"><ele>455.0</ele><time>2026-05-01T09:28:24Z</time></trkpt><trkpt lat="44.51372419708577" lon="9.042934341010374"><ele>455.0</ele><time>2026-05-01T09:28:25Z</time></trkpt><trkpt lat="44.51376860560437" lon="9.043085335528467"><ele>455.0</ele><time>2026-05-01T09:28:26Z</time></trkpt><trkpt lat="44.51379847647346" lon="9.043276418233372"><ele>449.66666666666663</ele><time>2026-05-01T09:28:27Z</time></trkpt><trkpt lat="44.51381983406929" lon="9.043508715945615"><ele>444.33333333333337</ele><time>2026-05-01T09:28:28Z</time></trkpt><trkpt lat="44.513846419096836" lon="9.043731317847984"><ele>439.0</ele><time>2026-05-01T09:28:29Z</time></trkpt><trkpt lat="44.513900461421244" lon="9.043914241329697"><ele>439.0</ele><time>2026-05-01T09:28:30Z</time></trkpt><trkpt lat="44.51394834605815" lon="9.044080924598646"><ele>439.0</ele><time>2026-05-01T09:28:31Z</time></trkpt><trkpt lat="44.51398176145352" lon="9.044247574476296"><ele>439.0</ele><time>2026-05-01T09:28:32Z</time></trkpt><trkpt lat="44.514027506820874" lon="9.04439043637223"><ele>439.0</ele><time>2026-05-01T09:28:33Z</time></trkpt><trkpt lat="44.51406710280819" lon="9.04448143896142"><ele>439.0</ele><time>2026-05-01T09:28:34Z</time></trkpt><trkpt lat="44.51409624017901" lon="9.044618956537601"><ele>439.75</ele><time>2026-05-01T09:28:36Z</time></trkpt><trkpt lat="44.51413862039825" lon="9.044804116533186"><ele>440.5</ele><time>2026-05-01T09:28:38Z</time></trkpt><trkpt lat="44.51415754121841" lon="9.044946758806434"><ele>441.25</ele><time>2026-05-01T09:28:39Z</time></trkpt><trkpt lat="44.514175308062306" lon="9.045118277275952"><ele>442.0</ele><time>2026-05-01T09:28:40Z</time></trkpt><trkpt lat="44.514194154160194" lon="9.045298643007316"><ele>442.25</ele><time>2026-05-01T09:28:41Z</time></trkpt><trkpt lat="44.514212816306426" lon="9.04546697294469"><ele>442.5</ele><time>2026-05-01T09:28:42Z</time></trkpt><trkpt lat="44.514234776203764" lon="9.045631423747006"><ele>442.75</ele><time>2026-05-01T09:28:43Z</time></trkpt><trkpt lat="44.514261159204786" lon="9.045780751202658"><ele>443.0</ele><time>2026-05-01T09:28:44Z</time></trkpt><trkpt lat="44.514288336763" lon="9.045926328104919"><ele>443.2</ele><time>2026-05-01T09:28:45Z</time></trkpt><trkpt lat="44.514317343219936" lon="9.046071654770302"><ele>443.4</ele><time>2026-05-01T09:28:46Z</time></trkpt><trkpt lat="44.514347568142696" lon="9.046214415038742"><ele>443.59999999999997</ele><time>2026-05-01T09:28:47Z</time></trkpt><trkpt lat="44.51437790803564" lon="9.046354864204794"><ele>443.79999999999995</ele><time>2026-05-01T09:28:48Z</time></trkpt><trkpt lat="44.514423112942346" lon="9.04648139147983"><ele>444.0</ele><time>2026-05-01T09:28:49Z</time></trkpt><trkpt lat="44.51443691669021" lon="9.046621000016362"><ele>444.5</ele><time>2026-05-01T09:28:50Z</time></trkpt><trkpt lat="44.514468556424866" lon="9.046756653778187"><ele>445.0</ele><time>2026-05-01T09:28:51Z</time></trkpt><trkpt lat="44.51450261288129" lon="9.046901213054221"><ele>445.5</ele><time>2026-05-01T09:28:52Z</time></trkpt><trkpt lat="44.51454226360741" lon="9.047058725892944"><ele>446.0</ele><time>2026-05-01T09:28:53Z</time></trkpt><trkpt lat="44.514585944711165" lon="9.047225251315288"><ele>445.20000000000005</ele><time>2026-05-01T09:28:54Z</time></trkpt><trkpt lat="44.514629077265276" lon="9.04738371447762"><ele>444.40000000000003</ele><time>2026-05-01T09:28:55Z</time></trkpt><trkpt lat="44.514666582796586" lon="9.04752543815754"><ele>443.6</ele><time>2026-05-01T09:28:56Z</time></trkpt><trkpt lat="44.51470164588952" lon="9.047656717656132"><ele>442.8</ele><time>2026-05-01T09:28:57Z</time></trkpt><trkpt lat="44.5147527861986" lon="9.047773876739514"><ele>442.0</ele><time>2026-05-01T09:28:58.001Z</time></trkpt><trkpt lat="44.51483221612406" lon="9.047848346071435"><ele>442.0</ele><time>2026-05-01T09:28:59.001Z</time></trkpt><trkpt lat="44.514925101537884" lon="9.047899761824691"><ele>442.0</ele><time>2026-05-01T09:29:00.001Z</time></trkpt><trkpt lat="44.515041305768904" lon="9.047927893321036"><ele>442.0</ele><time>2026-05-01T09:29:01.001Z</time></trkpt><trkpt lat="44.51518602285699" lon="9.047917553641996"><ele>442.0</ele><time>2026-05-01T09:29:02.001Z</time></trkpt><trkpt lat="44.51534529037271" lon="9.047869219660575"><ele>441.33333333333337</ele><time>2026-05-01T09:29:03.001Z</time></trkpt><trkpt lat="44.51551077465527" lon="9.047801542527713"><ele>440.66666666666663</ele><time>2026-05-01T09:29:04.001Z</time></trkpt><trkpt lat="44.51567654929165" lon="9.047743800245906"><ele>440.0</ele><time>2026-05-01T09:29:05.001Z</time></trkpt><trkpt lat="44.51584014456736" lon="9.04768780663324"><ele>440.0</ele><time>2026-05-01T09:29:06.001Z</time></trkpt><trkpt lat="44.51600105846846" lon="9.047633370335957"><ele>440.0</ele><time>2026-05-01T09:29:07.001Z</time></trkpt><trkpt lat="44.51614486891115" lon="9.047602201677616"><ele>440.0</ele><time>2026-05-01T09:29:08.001Z</time></trkpt><trkpt lat="44.516279575497464" lon="9.047614551283802"><ele>440.0</ele><time>2026-05-01T09:29:09.001Z</time></trkpt><trkpt lat="44.51641541237321" lon="9.047683719354112"><ele>441.5</ele><time>2026-05-01T09:29:10.001Z</time></trkpt><trkpt lat="44.51652374368849" lon="9.047816957669529"><ele>443.0</ele><time>2026-05-01T09:29:11.001Z</time></trkpt><trkpt lat="44.51662512653511" lon="9.047928461564204"><ele>444.5</ele><time>2026-05-01T09:29:12.001Z</time></trkpt><trkpt lat="44.51667786111587" lon="9.048117936874853"><ele>446.0</ele><time>2026-05-01T09:29:13.001Z</time></trkpt><trkpt lat="44.51674554980233" lon="9.048315164671829"><ele>446.0</ele><time>2026-05-01T09:29:14.001Z</time></trkpt><trkpt lat="44.51681871372253" lon="9.048530940394487"><ele>446.0</ele><time>2026-05-01T09:29:15.001Z</time></trkpt><trkpt lat="44.516920927370286" lon="9.048717339833118"><ele>446.0</ele><time>2026-05-01T09:29:16.001Z</time></trkpt><trkpt lat="44.51700344198688" lon="9.048887807405512"><ele>447.0</ele><time>2026-05-01T09:29:17.001Z</time></trkpt><trkpt lat="44.51710089596091" lon="9.049050158567422"><ele>448.0</ele><time>2026-05-01T09:29:18.001Z</time></trkpt><trkpt lat="44.51720396441379" lon="9.049208759466753"><ele>449.0</ele><time>2026-05-01T09:29:19.001Z</time></trkpt><trkpt lat="44.517309865741154" lon="9.049335480614957"><ele>450.0</ele><time>2026-05-01T09:29:20.001Z</time></trkpt><trkpt lat="44.51741427019442" lon="9.049428565977495"><ele>450.0</ele><time>2026-05-01T09:29:21.001Z</time></trkpt><trkpt lat="44.517491433987146" lon="9.049519658337418"><ele>450.0</ele><time>2026-05-01T09:29:22.001Z</time></trkpt><trkpt lat="44.517559910095486" lon="9.049593230197074"><ele>450.0</ele><time>2026-05-01T09:29:23.001Z</time></trkpt><trkpt lat="44.51758650728352" lon="9.049719276278442"><ele>450.0</ele><time>2026-05-01T09:29:24.001Z</time></trkpt><trkpt lat="44.51755971856245" lon="9.049899067253442"><ele>450.0</ele><time>2026-05-01T09:29:25.001Z</time></trkpt><trkpt lat="44.5175576009321" lon="9.050088024389847"><ele>449.0</ele><time>2026-05-01T09:29:26.001Z</time></trkpt><trkpt lat="44.51755349469073" lon="9.050261209286402"><ele>448.0</ele><time>2026-05-01T09:29:27.001Z</time></trkpt><trkpt lat="44.51754880330996" lon="9.050429350759973"><ele>447.0</ele><time>2026-05-01T09:29:28.001Z</time></trkpt><trkpt lat="44.517543519519215" lon="9.050580983252933"><ele>446.0</ele><time>2026-05-01T09:29:29.001Z</time></trkpt><trkpt lat="44.517553388731876" lon="9.050732733923455"><ele>446.6</ele><time>2026-05-01T09:29:30.001Z</time></trkpt><trkpt lat="44.51755110929364" lon="9.050885803348274"><ele>447.20000000000005</ele><time>2026-05-01T09:29:31.001Z</time></trkpt><trkpt lat="44.51755784246669" lon="9.051031319599605"><ele>447.79999999999995</ele><time>2026-05-01T09:29:32.001Z</time></trkpt><trkpt lat="44.51756778293053" lon="9.051179175577731"><ele>448.4</ele><time>2026-05-01T09:29:33.001Z</time></trkpt><trkpt lat="44.51758032707453" lon="9.05132668975694"><ele>449.0</ele><time>2026-05-01T09:29:34.001Z</time></trkpt><trkpt lat="44.517599932588375" lon="9.05146845253"><ele>449.0</ele><time>2026-05-01T09:29:35.001Z</time></trkpt><trkpt lat="44.517624997292025" lon="9.051591885326316"><ele>449.0</ele><time>2026-05-01T09:29:36.001Z</time></trkpt><trkpt lat="44.51765569412774" lon="9.051704387050837"><ele>449.0</ele><time>2026-05-01T09:29:37.001Z</time></trkpt><trkpt lat="44.517692317698696" lon="9.051827405142088"><ele>449.0</ele><time>2026-05-01T09:29:38.001Z</time></trkpt><trkpt lat="44.51775140666846" lon="9.051944240961513"><ele>449.0</ele><time>2026-05-01T09:29:39.001Z</time></trkpt><trkpt lat="44.51782063937943" lon="9.052048020449499"><ele>448.4</ele><time>2026-05-01T09:29:40.001Z</time></trkpt><trkpt lat="44.51789979173828" lon="9.052133448073903"><ele>447.79999999999995</ele><time>2026-05-01T09:29:41.001Z</time></trkpt><trkpt lat="44.51796180128732" lon="9.052235055360264"><ele>447.20000000000005</ele><time>2026-05-01T09:29:42.001Z</time></trkpt><trkpt lat="44.518022962603936" lon="9.05233839785317"><ele>446.6</ele><time>2026-05-01T09:29:43.001Z</time></trkpt><trkpt lat="44.518081491733874" lon="9.05244874938429"><ele>446.0</ele><time>2026-05-01T09:29:44.001Z</time></trkpt><trkpt lat="44.518140750567866" lon="9.052565842131148"><ele>448.0</ele><time>2026-05-01T09:29:45.001Z</time></trkpt><trkpt lat="44.518197787506445" lon="9.052700558920826"><ele>450.0</ele><time>2026-05-01T09:29:46.001Z</time></trkpt><trkpt lat="44.518237729027206" lon="9.052851737090744"><ele>452.0</ele><time>2026-05-01T09:29:47.001Z</time></trkpt><trkpt lat="44.51830285379321" lon="9.052990913774021"><ele>454.0</ele><time>2026-05-01T09:29:48.001Z</time></trkpt><trkpt lat="44.51835417571967" lon="9.053142094657089"><ele>453.25</ele><time>2026-05-01T09:29:49.001Z</time></trkpt><trkpt lat="44.51839865724072" lon="9.05329830768706"><ele>452.5</ele><time>2026-05-01T09:29:50.001Z</time></trkpt><trkpt lat="44.51842413274839" lon="9.053458427983445"><ele>451.75</ele><time>2026-05-01T09:29:51.001Z</time></trkpt><trkpt lat="44.5184033958352" lon="9.05361203106803"><ele>451.0</ele><time>2026-05-01T09:29:52.001Z</time></trkpt><trkpt lat="44.518426416473616" lon="9.053753787315696"><ele>451.0</ele><time>2026-05-01T09:29:53.001Z</time></trkpt><trkpt lat="44.5184450031031" lon="9.053895322055206"><ele>451.0</ele><time>2026-05-01T09:29:54.001Z</time></trkpt><trkpt lat="44.51850822349345" lon="9.054026961692713"><ele>451.0</ele><time>2026-05-01T09:29:55.001Z</time></trkpt><trkpt lat="44.51857532160891" lon="9.054150224527449"><ele>451.0</ele><time>2026-05-01T09:29:56.001Z</time></trkpt><trkpt lat="44.518644341031056" lon="9.054271162286645"><ele>451.0</ele><time>2026-05-01T09:29:57.001Z</time></trkpt><trkpt lat="44.51871190047493" lon="9.054386401044516"><ele>452.8</ele><time>2026-05-01T09:29:58.001Z</time></trkpt><trkpt lat="44.51877869824237" lon="9.054498375995019"><ele>454.6</ele><time>2026-05-01T09:29:59.001Z</time></trkpt><trkpt lat="44.51884589253112" lon="9.054607922224085"><ele>456.4</ele><time>2026-05-01T09:30:00.001Z</time></trkpt><trkpt lat="44.51891121342075" lon="9.05471628333428"><ele>458.2</ele><time>2026-05-01T09:30:01.001Z</time></trkpt><trkpt lat="44.51897362329925" lon="9.05481936862064"><ele>460.0</ele><time>2026-05-01T09:30:02.001Z</time></trkpt><trkpt lat="44.519033845462374" lon="9.054918300544202"><ele>459.2</ele><time>2026-05-01T09:30:03.001Z</time></trkpt><trkpt lat="44.51909167667828" lon="9.055022737412239"><ele>458.4</ele><time>2026-05-01T09:30:04.001Z</time></trkpt><trkpt lat="44.51913697261477" lon="9.05514890260367"><ele>457.6</ele><time>2026-05-01T09:30:05.001Z</time></trkpt><trkpt lat="44.519177089855845" lon="9.055288206224809"><ele>456.8</ele><time>2026-05-01T09:30:06.001Z</time></trkpt><trkpt lat="44.5191905084044" lon="9.055440013238679"><ele>456.0</ele><time>2026-05-01T09:30:07.001Z</time></trkpt><trkpt lat="44.51922629635086" lon="9.055574377090982"><ele>456.0</ele><time>2026-05-01T09:30:08.001Z</time></trkpt><trkpt lat="44.51924180258403" lon="9.055701365972173"><ele>456.0</ele><time>2026-05-01T09:30:09.001Z</time></trkpt><trkpt lat="44.51923161521321" lon="9.055819214604819"><ele>456.0</ele><time>2026-05-01T09:30:10.001Z</time></trkpt><trkpt lat="44.519235551884655" lon="9.055929700333763"><ele>456.0</ele><time>2026-05-01T09:30:11.001Z</time></trkpt><trkpt lat="44.51923785285722" lon="9.056034990473952"><ele>456.0</ele><time>2026-05-01T09:30:12Z</time></trkpt><trkpt lat="44.51922943217491" lon="9.056163289228975"><ele>456.0</ele><time>2026-05-01T09:30:14Z</time></trkpt><trkpt lat="44.51920782226142" lon="9.056250038124357"><ele>455.75</ele><time>2026-05-01T09:30:17Z</time></trkpt><trkpt lat="44.519156352365506" lon="9.056328762594923"><ele>455.5</ele><time>2026-05-01T09:30:19Z</time></trkpt><trkpt lat="44.51903940443981" lon="9.056414130404582"><ele>455.25</ele><time>2026-05-01T09:30:21Z</time></trkpt><trkpt lat="44.51892106237551" lon="9.056453129060701"><ele>455.0</ele><time>2026-05-01T09:30:22Z</time></trkpt><trkpt lat="44.518774933944066" lon="9.056459241879748"><ele>452.0</ele><time>2026-05-01T09:30:23Z</time></trkpt><trkpt lat="44.518617049691265" lon="9.056481323804002"><ele>449.0</ele><time>2026-05-01T09:30:24Z</time></trkpt><trkpt lat="44.518446630554784" lon="9.056505793813994"><ele>446.0</ele><time>2026-05-01T09:30:25Z</time></trkpt><trkpt lat="44.51827210374499" lon="9.056554116507872"><ele>446.0</ele><time>2026-05-01T09:30:26Z</time></trkpt><trkpt lat="44.51810941840135" lon="9.056575966585335"><ele>446.0</ele><time>2026-05-01T09:30:27Z</time></trkpt><trkpt lat="44.51795102427959" lon="9.056600580940657"><ele>446.0</ele><time>2026-05-01T09:30:28Z</time></trkpt><trkpt lat="44.517807813009384" lon="9.056625909005398"><ele>447.75</ele><time>2026-05-01T09:30:29Z</time></trkpt><trkpt lat="44.51767845444554" lon="9.056653737280035"><ele>449.5</ele><time>2026-05-01T09:30:30Z</time></trkpt><trkpt lat="44.517560360944906" lon="9.056696539911949"><ele>451.25</ele><time>2026-05-01T09:30:31Z</time></trkpt><trkpt lat="44.517457141792455" lon="9.056774001656722"><ele>453.0</ele><time>2026-05-01T09:30:32Z</time></trkpt><trkpt lat="44.51737698099021" lon="9.056897642737088"><ele>453.0</ele><time>2026-05-01T09:30:33Z</time></trkpt><trkpt lat="44.51732321963693" lon="9.05706089147763"><ele>453.0</ele><time>2026-05-01T09:30:34Z</time></trkpt><trkpt lat="44.517278445759004" lon="9.057247774550682"><ele>453.0</ele><time>2026-05-01T09:30:35Z</time></trkpt><trkpt lat="44.51724790206544" lon="9.057433333681374"><ele>453.0</ele><time>2026-05-01T09:30:36Z</time></trkpt><trkpt lat="44.51720814761314" lon="9.057592568743251"><ele>453.4</ele><time>2026-05-01T09:30:37Z</time></trkpt><trkpt lat="44.51716224487481" lon="9.057718869094685"><ele>453.79999999999995</ele><time>2026-05-01T09:30:38Z</time></trkpt><trkpt lat="44.51710092489335" lon="9.05782775576272"><ele>454.2</ele><time>2026-05-01T09:30:39Z</time></trkpt><trkpt lat="44.516986927536166" lon="9.057884369935332"><ele>454.6</ele><time>2026-05-01T09:30:40Z</time></trkpt><trkpt lat="44.516904795903464" lon="9.058014509088975"><ele>455.0</ele><time>2026-05-01T09:30:41Z</time></trkpt><trkpt lat="44.51682657378507" lon="9.058162124088861"><ele>455.0</ele><time>2026-05-01T09:30:42Z</time></trkpt><trkpt lat="44.51677002544268" lon="9.058362973914308"><ele>455.0</ele><time>2026-05-01T09:30:43Z</time></trkpt><trkpt lat="44.51672148829708" lon="9.05855954332287"><ele>455.0</ele><time>2026-05-01T09:30:44Z</time></trkpt><trkpt lat="44.51665622254617" lon="9.05872308017175"><ele>455.0</ele><time>2026-05-01T09:30:45Z</time></trkpt><trkpt lat="44.51660814548293" lon="9.058875900586978"><ele>455.0</ele><time>2026-05-01T09:30:46Z</time></trkpt><trkpt lat="44.516560250471414" lon="9.05902563808737"><ele>455.0</ele><time>2026-05-01T09:30:47Z</time></trkpt><trkpt lat="44.516515390792165" lon="9.05915922573781"><ele>455.0</ele><time>2026-05-01T09:30:48Z</time></trkpt><trkpt lat="44.516466803694776" lon="9.059297774682344"><ele>455.0</ele><time>2026-05-01T09:30:49Z</time></trkpt><trkpt lat="44.516415020083954" lon="9.05944235585308"><ele>455.0</ele><time>2026-05-01T09:30:50Z</time></trkpt><trkpt lat="44.51635487479658" lon="9.059581371981963"><ele>455.0</ele><time>2026-05-01T09:30:51Z</time></trkpt><trkpt lat="44.516290186595725" lon="9.059702394624827"><ele>455.0</ele><time>2026-05-01T09:30:52Z</time></trkpt><trkpt lat="44.51622681422963" lon="9.059810229174154"><ele>455.0</ele><time>2026-05-01T09:30:53Z</time></trkpt><trkpt lat="44.51617800384544" lon="9.059927146917822"><ele>455.0</ele><time>2026-05-01T09:30:54Z</time></trkpt><trkpt lat="44.51610079994025" lon="9.060036239185662"><ele>455.0</ele><time>2026-05-01T09:30:56Z</time></trkpt><trkpt lat="44.51602792456886" lon="9.060125544893546"><ele>454.99999999999994</ele><time>2026-05-01T09:30:58Z</time></trkpt><trkpt lat="44.51592855877813" lon="9.060218222960941"><ele>455.0</ele><time>2026-05-01T09:31:00Z</time></trkpt><trkpt lat="44.51587115187021" lon="9.06026123504937"><ele>455.0</ele><time>2026-05-01T09:31:01Z</time></trkpt><trkpt lat="44.515811342244106" lon="9.06030558124002"><ele>455.0</ele><time>2026-05-01T09:31:02Z</time></trkpt><trkpt lat="44.515743529527505" lon="9.060347439538594"><ele>454.99999999999994</ele><time>2026-05-01T09:31:03Z</time></trkpt><trkpt lat="44.51569167556211" lon="9.060430234774065"><ele>455.0</ele><time>2026-05-01T09:31:04Z</time></trkpt><trkpt lat="44.515639801392666" lon="9.060530069752716"><ele>455.0</ele><time>2026-05-01T09:31:05Z</time></trkpt><trkpt lat="44.51558850485956" lon="9.060641351262566"><ele>455.0</ele><time>2026-05-01T09:31:06Z</time></trkpt><trkpt lat="44.5155372636452" lon="9.060757504459463"><ele>455.0</ele><time>2026-05-01T09:31:07Z</time></trkpt><trkpt lat="44.515485319058655" lon="9.06088193772962"><ele>455.0</ele><time>2026-05-01T09:31:08Z</time></trkpt><trkpt lat="44.515447504869904" lon="9.061021895068485"><ele>455.0</ele><time>2026-05-01T09:31:09Z</time></trkpt><trkpt lat="44.51538480906533" lon="9.061146023409538"><ele>454.75</ele><time>2026-05-01T09:31:10Z</time></trkpt><trkpt lat="44.51534425880343" lon="9.061325437691483"><ele>454.5</ele><time>2026-05-01T09:31:11Z</time></trkpt><trkpt lat="44.51533442461542" lon="9.061532937576784"><ele>454.25</ele><time>2026-05-01T09:31:12Z</time></trkpt><trkpt lat="44.51533099063418" lon="9.061767002621139"><ele>454.0</ele><time>2026-05-01T09:31:13.001Z</time></trkpt><trkpt lat="44.5152923313434" lon="9.061994343518714"><ele>455.0</ele><time>2026-05-01T09:31:14.001Z</time></trkpt><trkpt lat="44.51524223461025" lon="9.06229441851382"><ele>456.0</ele><time>2026-05-01T09:31:15.001Z</time></trkpt><trkpt lat="44.51521535194533" lon="9.062598305350065"><ele>457.0</ele><time>2026-05-01T09:31:16.001Z</time></trkpt><trkpt lat="44.51518946430189" lon="9.06287349711365"><ele>458.0</ele><time>2026-05-01T09:31:17.001Z</time></trkpt><trkpt lat="44.51515618930079" lon="9.063123157927736"><ele>459.0</ele><time>2026-05-01T09:31:18.001Z</time></trkpt><trkpt lat="44.51511486316128" lon="9.063373062473996"><ele>460.0</ele><time>2026-05-01T09:31:19.001Z</time></trkpt><trkpt lat="44.515078073670956" lon="9.063605548888546"><ele>460.75</ele><time>2026-05-01T09:31:20.001Z</time></trkpt><trkpt lat="44.515044713115415" lon="9.063817574549946"><ele>461.5</ele><time>2026-05-01T09:31:21.001Z</time></trkpt><trkpt lat="44.515013309543185" lon="9.064017167974564"><ele>462.25</ele><time>2026-05-01T09:31:22.001Z</time></trkpt><trkpt lat="44.514982218938115" lon="9.064211053999758"><ele>463.0</ele><time>2026-05-01T09:31:23.001Z</time></trkpt><trkpt lat="44.51494863152154" lon="9.064397467832018"><ele>464.75</ele><time>2026-05-01T09:31:24.001Z</time></trkpt><trkpt lat="44.514911092961704" lon="9.064587099745319"><ele>466.5</ele><time>2026-05-01T09:31:25.001Z</time></trkpt><trkpt lat="44.51486319271755" lon="9.06476622231996"><ele>468.25</ele><time>2026-05-01T09:31:26.001Z</time></trkpt><trkpt lat="44.51477170572293" lon="9.064955656813622"><ele>470.0</ele><time>2026-05-01T09:31:27.001Z</time></trkpt><trkpt lat="44.51466952523438" lon="9.065180402137724"><ele>469.3333333333333</ele><time>2026-05-01T09:31:28.001Z</time></trkpt><trkpt lat="44.51458440623299" lon="9.065409218007199"><ele>468.66666666666663</ele><time>2026-05-01T09:31:29.001Z</time></trkpt><trkpt lat="44.51453005428012" lon="9.065604626762637"><ele>468.0</ele><time>2026-05-01T09:31:30.001Z</time></trkpt><trkpt lat="44.514485676399914" lon="9.065785255079357"><ele>468.0</ele><time>2026-05-01T09:31:31.001Z</time></trkpt><trkpt lat="44.51444494480437" lon="9.065944857153802"><ele>468.0</ele><time>2026-05-01T09:31:32.001Z</time></trkpt><trkpt lat="44.51435403359911" lon="9.066055296776112"><ele>468.0</ele><time>2026-05-01T09:31:33.001Z</time></trkpt><trkpt lat="44.514241071923216" lon="9.066127302078373"><ele>468.0</ele><time>2026-05-01T09:31:34.001Z</time></trkpt><trkpt lat="44.51410047284053" lon="9.06611701645112"><ele>468.0</ele><time>2026-05-01T09:31:35.001Z</time></trkpt><trkpt lat="44.51393225778738" lon="9.066108848982598"><ele>468.0</ele><time>2026-05-01T09:31:36.001Z</time></trkpt><trkpt lat="44.51374260010057" lon="9.066053231368407"><ele>468.0</ele><time>2026-05-01T09:31:37.001Z</time></trkpt><trkpt lat="44.513550782464996" lon="9.06601293160965"><ele>468.33333333333337</ele><time>2026-05-01T09:31:38.001Z</time></trkpt><trkpt lat="44.5133535636907" lon="9.065987865349346"><ele>468.6666666666667</ele><time>2026-05-01T09:31:39.001Z</time></trkpt><trkpt lat="44.51316273987413" lon="9.065941503747519"><ele>469.0</ele><time>2026-05-01T09:31:40.001Z</time></trkpt><trkpt lat="44.51300205524257" lon="9.065883375968443"><ele>469.0</ele><time>2026-05-01T09:31:41.001Z</time></trkpt><trkpt lat="44.512861006339875" lon="9.06582321528027"><ele>469.0</ele><time>2026-05-01T09:31:42.001Z</time></trkpt><trkpt lat="44.5127232013794" lon="9.065800328666999"><ele>469.0</ele><time>2026-05-01T09:31:43.001Z</time></trkpt><trkpt lat="44.51259664454304" lon="9.065846754058569"><ele>469.0</ele><time>2026-05-01T09:31:44.001Z</time></trkpt><trkpt lat="44.512473658684144" lon="9.06594194374608"><ele>469.0</ele><time>2026-05-01T09:31:45.001Z</time></trkpt><trkpt lat="44.512372471852714" lon="9.066071344844284"><ele>469.0</ele><time>2026-05-01T09:31:46.001Z</time></trkpt><trkpt lat="44.512298419266436" lon="9.066227139455245"><ele>469.0</ele><time>2026-05-01T09:31:47.001Z</time></trkpt><trkpt lat="44.512230392071004" lon="9.066436048991173"><ele>469.0</ele><time>2026-05-01T09:31:48.001Z</time></trkpt><trkpt lat="44.512142433270824" lon="9.066680767386472"><ele>470.33333333333337</ele><time>2026-05-01T09:31:49.001Z</time></trkpt><trkpt lat="44.51206502354826" lon="9.066932399602395"><ele>471.66666666666663</ele><time>2026-05-01T09:31:50.001Z</time></trkpt><trkpt lat="44.512017051450705" lon="9.067155654738112"><ele>473.0</ele><time>2026-05-01T09:31:51.001Z</time></trkpt><trkpt lat="44.51198340145054" lon="9.067370572906208"><ele>473.66666666666663</ele><time>2026-05-01T09:31:52.001Z</time></trkpt><trkpt lat="44.51199295564876" lon="9.067603847690755"><ele>474.33333333333337</ele><time>2026-05-01T09:31:53.001Z</time></trkpt><trkpt lat="44.51204694262398" lon="9.067861622127602"><ele>475.0</ele><time>2026-05-01T09:31:54.001Z</time></trkpt><trkpt lat="44.51213367381427" lon="9.068147925293456"><ele>491.0</ele><time>2026-05-01T09:31:55.001Z</time></trkpt><trkpt lat="44.512185726273714" lon="9.068460878805569"><ele>507.0</ele><time>2026-05-01T09:31:56.001Z</time></trkpt><trkpt lat="44.512236527103006" lon="9.068779927353248"><ele>502.5</ele><time>2026-05-01T09:31:57.001Z</time></trkpt><trkpt lat="44.512286812593004" lon="9.069111590374002"><ele>498.0</ele><time>2026-05-01T09:31:58.001Z</time></trkpt><trkpt lat="44.5123373066527" lon="9.069444628859511"><ele>498.0</ele><time>2026-05-01T09:31:59.001Z</time></trkpt><trkpt lat="44.51238984266926" lon="9.06977660134838"><ele>498.0</ele><time>2026-05-01T09:32:00.001Z</time></trkpt><trkpt lat="44.512439369919484" lon="9.070102258332529"><ele>495.0</ele><time>2026-05-01T09:32:01.001Z</time></trkpt><trkpt lat="44.51246567355943" lon="9.070423875995353"><ele>492.0</ele><time>2026-05-01T09:32:02.001Z</time></trkpt><trkpt lat="44.512475591206176" lon="9.070718857192366"><ele>489.0</ele><time>2026-05-01T09:32:03.001Z</time></trkpt><trkpt lat="44.512482256901464" lon="9.070986829009739"><ele>488.0</ele><time>2026-05-01T09:32:04.001Z</time></trkpt><trkpt lat="44.5124606327224" lon="9.071227356409004"><ele>487.0</ele><time>2026-05-01T09:32:05.001Z</time></trkpt><trkpt lat="44.51239995070202" lon="9.071443583226435"><ele>486.0</ele><time>2026-05-01T09:32:06.001Z</time></trkpt><trkpt lat="44.51232406751856" lon="9.07165021604294"><ele>486.0</ele><time>2026-05-01T09:32:07.001Z</time></trkpt><trkpt lat="44.51227024224363" lon="9.071846875748431"><ele>486.0</ele><time>2026-05-01T09:32:08.001Z</time></trkpt><trkpt lat="44.512233169812966" lon="9.072034790766304"><ele>486.0</ele><time>2026-05-01T09:32:09.001Z</time></trkpt><trkpt lat="44.51224291468303" lon="9.072221247111255"><ele>486.0</ele><time>2026-05-01T09:32:10.001Z</time></trkpt><trkpt lat="44.512285070553915" lon="9.072418380973161"><ele>486.0</ele><time>2026-05-01T09:32:11.001Z</time></trkpt><trkpt lat="44.51238370995722" lon="9.072598184931387"><ele>486.0</ele><time>2026-05-01T09:32:12.001Z</time></trkpt><trkpt lat="44.51250771709977" lon="9.072770517091568"><ele>486.0</ele><time>2026-05-01T09:32:13.001Z</time></trkpt><trkpt lat="44.512617274354106" lon="9.072965013687849"><ele>486.0</ele><time>2026-05-01T09:32:14.001Z</time></trkpt><trkpt lat="44.51267767033163" lon="9.073183660742863"><ele>486.0</ele><time>2026-05-01T09:32:15.001Z</time></trkpt><trkpt lat="44.51271708586203" lon="9.073406578434925"><ele>486.0</ele><time>2026-05-01T09:32:16.001Z</time></trkpt><trkpt lat="44.51273249023402" lon="9.07362491650567"><ele>484.66666666666663</ele><time>2026-05-01T09:32:17.001Z</time></trkpt><trkpt lat="44.51270006442471" lon="9.073865549085122"><ele>483.3333333333333</ele><time>2026-05-01T09:32:18Z</time></trkpt><trkpt lat="44.51265851912099" lon="9.074146405248333"><ele>482.0</ele><time>2026-05-01T09:32:19Z</time></trkpt><trkpt lat="44.512600967671546" lon="9.074421884747967"><ele>481.3333333333333</ele><time>2026-05-01T09:32:20Z</time></trkpt><trkpt lat="44.51252756318847" lon="9.074699987164456"><ele>480.66666666666663</ele><time>2026-05-01T09:32:21Z</time></trkpt><trkpt lat="44.51244334530572" lon="9.074985771352852"><ele>480.0</ele><time>2026-05-01T09:32:22Z</time></trkpt><trkpt lat="44.512366778186966" lon="9.075273050699487"><ele>484.0</ele><time>2026-05-01T09:32:23Z</time></trkpt><trkpt lat="44.51229745062623" lon="9.075558695158422"><ele>488.0</ele><time>2026-05-01T09:32:24Z</time></trkpt><trkpt lat="44.51223344139332" lon="9.075837326672165"><ele>492.0</ele><time>2026-05-01T09:32:25Z</time></trkpt><trkpt lat="44.512185460242264" lon="9.076108082607222"><ele>489.33333333333337</ele><time>2026-05-01T09:32:26Z</time></trkpt><trkpt lat="44.51210835598907" lon="9.076338324889486"><ele>486.6666666666667</ele><time>2026-05-01T09:32:27Z</time></trkpt><trkpt lat="44.51204056574385" lon="9.0765595666966"><ele>484.0</ele><time>2026-05-01T09:32:28Z</time></trkpt><trkpt lat="44.51196703102062" lon="9.076749116525445"><ele>482.25</ele><time>2026-05-01T09:32:29Z</time></trkpt><trkpt lat="44.51189427625915" lon="9.076919033933068"><ele>480.5</ele><time>2026-05-01T09:32:30Z</time></trkpt><trkpt lat="44.511815494728474" lon="9.077079029976776"><ele>478.75</ele><time>2026-05-01T09:32:31Z</time></trkpt><trkpt lat="44.51172420877355" lon="9.077215934222917"><ele>477.0</ele><time>2026-05-01T09:32:32Z</time></trkpt><trkpt lat="44.51162240459626" lon="9.077404305418895"><ele>480.66666666666663</ele><time>2026-05-01T09:32:33Z</time></trkpt><trkpt lat="44.51150978619725" lon="9.077617179100708"><ele>484.3333333333333</ele><time>2026-05-01T09:32:34Z</time></trkpt><trkpt lat="44.511420549736876" lon="9.077886372451108"><ele>488.0</ele><time>2026-05-01T09:32:35Z</time></trkpt><trkpt lat="44.511335590241835" lon="9.07817735336181"><ele>489.3333333333333</ele><time>2026-05-01T09:32:36Z</time></trkpt><trkpt lat="44.511217172732174" lon="9.078438253379185"><ele>490.66666666666663</ele><time>2026-05-01T09:32:37Z</time></trkpt><trkpt lat="44.51110987582133" lon="9.078679048500419"><ele>492.0</ele><time>2026-05-01T09:32:38Z</time></trkpt><trkpt lat="44.511020273658325" lon="9.07891558458442"><ele>492.0</ele><time>2026-05-01T09:32:39Z</time></trkpt><trkpt lat="44.510922518166474" lon="9.07915403760536"><ele>492.0</ele><time>2026-05-01T09:32:40Z</time></trkpt><trkpt lat="44.510841658002285" lon="9.079395659733256"><ele>492.0</ele><time>2026-05-01T09:32:41Z</time></trkpt><trkpt lat="44.51078746772975" lon="9.07963887373118"><ele>492.0</ele><time>2026-05-01T09:32:42Z</time></trkpt><trkpt lat="44.5107598907464" lon="9.079869937241481"><ele>492.0</ele><time>2026-05-01T09:32:43Z</time></trkpt><trkpt lat="44.51073171755403" lon="9.080071710799805"><ele>492.0</ele><time>2026-05-01T09:32:44Z</time></trkpt><trkpt lat="44.510696148056766" lon="9.080213545766412"><ele>492.0</ele><time>2026-05-01T09:32:45Z</time></trkpt><trkpt lat="44.510619414995766" lon="9.0802927421756"><ele>491.0</ele><time>2026-05-01T09:32:46Z</time></trkpt><trkpt lat="44.51049801995389" lon="9.080421109721456"><ele>490.0</ele><time>2026-05-01T09:32:47Z</time></trkpt><trkpt lat="44.51036721773534" lon="9.080600588037239"><ele>489.0</ele><time>2026-05-01T09:32:48Z</time></trkpt><trkpt lat="44.5102138169588" lon="9.080786740813595"><ele>489.0</ele><time>2026-05-01T09:32:49Z</time></trkpt><trkpt lat="44.51006796962864" lon="9.080976486310579"><ele>489.0</ele><time>2026-05-01T09:32:50Z</time></trkpt><trkpt lat="44.50993691305809" lon="9.081183907311155"><ele>489.0</ele><time>2026-05-01T09:32:51Z</time></trkpt><trkpt lat="44.50982756475439" lon="9.081388508161082"><ele>489.0</ele><time>2026-05-01T09:32:52Z</time></trkpt><trkpt lat="44.50974395013512" lon="9.081587772860583"><ele>489.0</ele><time>2026-05-01T09:32:53Z</time></trkpt><trkpt lat="44.50969590034053" lon="9.081843373096707"><ele>489.0</ele><time>2026-05-01T09:32:54Z</time></trkpt><trkpt lat="44.50966386684569" lon="9.082128257217319"><ele>487.0</ele><time>2026-05-01T09:32:55Z</time></trkpt><trkpt lat="44.50961923771345" lon="9.08238432096943"><ele>485.0</ele><time>2026-05-01T09:32:56Z</time></trkpt><trkpt lat="44.50959634109065" lon="9.082591283260351"><ele>483.0</ele><time>2026-05-01T09:32:57Z</time></trkpt><trkpt lat="44.50953512535597" lon="9.082758193182705"><ele>483.0</ele><time>2026-05-01T09:32:58Z</time></trkpt><trkpt lat="44.50944468306865" lon="9.082921225384581"><ele>483.0</ele><time>2026-05-01T09:32:59Z</time></trkpt><trkpt lat="44.50937376907406" lon="9.083091548790925"><ele>483.0</ele><time>2026-05-01T09:33:00Z</time></trkpt><trkpt lat="44.50930501392704" lon="9.08323043921792"><ele>483.0</ele><time>2026-05-01T09:33:01Z</time></trkpt><trkpt lat="44.509282544700824" lon="9.083404538338177"><ele>484.75</ele><time>2026-05-01T09:33:02Z</time></trkpt><trkpt lat="44.50931090030921" lon="9.083600125281357"><ele>486.5</ele><time>2026-05-01T09:33:03Z</time></trkpt><trkpt lat="44.50936997550546" lon="9.083777672536037"><ele>488.25</ele><time>2026-05-01T09:33:04Z</time></trkpt><trkpt lat="44.50945543167561" lon="9.083915086786964"><ele>490.0</ele><time>2026-05-01T09:33:05Z</time></trkpt><trkpt lat="44.50957766553664" lon="9.084011204867325"><ele>493.0</ele><time>2026-05-01T09:33:06Z</time></trkpt><trkpt lat="44.509726088160036" lon="9.08405874654465"><ele>496.0</ele><time>2026-05-01T09:33:07Z</time></trkpt><trkpt lat="44.50990891079133" lon="9.084123287274435"><ele>499.0</ele><time>2026-05-01T09:33:08Z</time></trkpt><trkpt lat="44.51007559096139" lon="9.08428870445988"><ele>499.0</ele><time>2026-05-01T09:33:09Z</time></trkpt><trkpt lat="44.51020957169304" lon="9.084416688851325"><ele>499.0</ele><time>2026-05-01T09:33:10Z</time></trkpt><trkpt lat="44.51032712512713" lon="9.084518418606866"><ele>499.0</ele><time>2026-05-01T09:33:11Z</time></trkpt><trkpt lat="44.51040415156653" lon="9.084636057923463"><ele>499.0</ele><time>2026-05-01T09:33:12Z</time></trkpt><trkpt lat="44.51042220024351" lon="9.084789135122023"><ele>496.5</ele><time>2026-05-01T09:33:13Z</time></trkpt><trkpt lat="44.5104063501383" lon="9.084964037025305"><ele>494.0</ele><time>2026-05-01T09:33:14Z</time></trkpt><trkpt lat="44.51039152177616" lon="9.085186396167837"><ele>491.5</ele><time>2026-05-01T09:33:15Z</time></trkpt><trkpt lat="44.510380493479694" lon="9.08540858404806"><ele>489.0</ele><time>2026-05-01T09:33:16Z</time></trkpt><trkpt lat="44.510386008831624" lon="9.085581710808547"><ele>491.25</ele><time>2026-05-01T09:33:17Z</time></trkpt><trkpt lat="44.51044307165651" lon="9.085703270959074"><ele>493.5</ele><time>2026-05-01T09:33:18Z</time></trkpt><trkpt lat="44.51053381896664" lon="9.08579638830425"><ele>495.75</ele><time>2026-05-01T09:33:19Z</time></trkpt><trkpt lat="44.51066903238533" lon="9.085856070176039"><ele>498.0</ele><time>2026-05-01T09:33:20Z</time></trkpt><trkpt lat="44.51083925661928" lon="9.08588825336922"><ele>498.0</ele><time>2026-05-01T09:33:21Z</time></trkpt><trkpt lat="44.51102624470956" lon="9.085913320329537"><ele>498.0</ele><time>2026-05-01T09:33:22Z</time></trkpt><trkpt lat="44.51120060527084" lon="9.085926758872022"><ele>498.0</ele><time>2026-05-01T09:33:23Z</time></trkpt><trkpt lat="44.51135316496859" lon="9.085917054787195"><ele>500.0</ele><time>2026-05-01T09:33:24.001Z</time></trkpt><trkpt lat="44.51147384642311" lon="9.085886111223232"><ele>501.99999999999994</ele><time>2026-05-01T09:33:25.001Z</time></trkpt><trkpt lat="44.511557505432215" lon="9.08588018159355"><ele>503.99999999999994</ele><time>2026-05-01T09:33:26.001Z</time></trkpt><trkpt lat="44.51162472348433" lon="9.085950753540054"><ele>506.0</ele><time>2026-05-01T09:33:27.001Z</time></trkpt><trkpt lat="44.51166639041655" lon="9.086081897700247"><ele>508.0</ele><time>2026-05-01T09:33:28.001Z</time></trkpt><trkpt lat="44.51164577629551" lon="9.086246684515105"><ele>508.0</ele><time>2026-05-01T09:33:29.001Z</time></trkpt><trkpt lat="44.51157604624608" lon="9.08635058994717"><ele>508.0</ele><time>2026-05-01T09:33:30.001Z</time></trkpt><trkpt lat="44.51147918427663" lon="9.086472729715856"><ele>508.0</ele><time>2026-05-01T09:33:31.001Z</time></trkpt><trkpt lat="44.51141315815708" lon="9.08662578485818"><ele>508.0</ele><time>2026-05-01T09:33:32.001Z</time></trkpt><trkpt lat="44.511376683516936" lon="9.086805118136402"><ele>510.33333333333337</ele><time>2026-05-01T09:33:33.001Z</time></trkpt><trkpt lat="44.51139244429635" lon="9.087055084464996"><ele>512.6666666666666</ele><time>2026-05-01T09:33:34.001Z</time></trkpt><trkpt lat="44.51138081290734" lon="9.087303789052227"><ele>515.0</ele><time>2026-05-01T09:33:35.001Z</time></trkpt><trkpt lat="44.51136104433905" lon="9.087514625517544"><ele>511.25</ele><time>2026-05-01T09:33:36.001Z</time></trkpt><trkpt lat="44.511323001544895" lon="9.087683992743768"><ele>507.5</ele><time>2026-05-01T09:33:37.001Z</time></trkpt><trkpt lat="44.511230462391566" lon="9.08778195668696"><ele>503.75</ele><time>2026-05-01T09:33:38.001Z</time></trkpt><trkpt lat="44.51110764223717" lon="9.087878690180919"><ele>500.0</ele><time>2026-05-01T09:33:39.001Z</time></trkpt><trkpt lat="44.510964191285" lon="9.088002419684928"><ele>500.0</ele><time>2026-05-01T09:33:40.001Z</time></trkpt><trkpt lat="44.51081164979689" lon="9.088105122427645"><ele>500.0</ele><time>2026-05-01T09:33:41.001Z</time></trkpt><trkpt lat="44.51061732603692" lon="9.088122811903032"><ele>500.0</ele><time>2026-05-01T09:33:42.001Z</time></trkpt><trkpt lat="44.510404563120424" lon="9.08817463860873"><ele>501.66666666666663</ele><time>2026-05-01T09:33:43.001Z</time></trkpt><trkpt lat="44.51018295740665" lon="9.088223713060486"><ele>503.33333333333337</ele><time>2026-05-01T09:33:44.001Z</time></trkpt><trkpt lat="44.50996450777244" lon="9.088297797261708"><ele>505.0</ele><time>2026-05-01T09:33:45.001Z</time></trkpt><trkpt lat="44.50976994048393" lon="9.08839506269838"><ele>504.25</ele><time>2026-05-01T09:33:46.001Z</time></trkpt><trkpt lat="44.50961645713773" lon="9.088506877528639"><ele>503.5</ele><time>2026-05-01T09:33:47.001Z</time></trkpt><trkpt lat="44.509501109590076" lon="9.088616293362056"><ele>502.75</ele><time>2026-05-01T09:33:48.001Z</time></trkpt><trkpt lat="44.50942934244744" lon="9.088725370173822"><ele>502.0</ele><time>2026-05-01T09:33:49.001Z</time></trkpt><trkpt lat="44.50939431687715" lon="9.088842096054618"><ele>502.0</ele><time>2026-05-01T09:33:50.001Z</time></trkpt><trkpt lat="44.509407902158195" lon="9.088967918882814"><ele>502.00000000000006</ele><time>2026-05-01T09:33:51.001Z</time></trkpt><trkpt lat="44.50946680246982" lon="9.08908167062711"><ele>502.00000000000006</ele><time>2026-05-01T09:33:52.001Z</time></trkpt><trkpt lat="44.509562953875815" lon="9.089145581621558"><ele>502.0</ele><time>2026-05-01T09:33:53.001Z</time></trkpt><trkpt lat="44.50969313655157" lon="9.089157090933613"><ele>502.0</ele><time>2026-05-01T09:33:54.001Z</time></trkpt><trkpt lat="44.509849942264225" lon="9.089124272193411"><ele>504.5</ele><time>2026-05-01T09:33:55.001Z</time></trkpt><trkpt lat="44.5100087890072" lon="9.089092319282429"><ele>507.0</ele><time>2026-05-01T09:33:56.001Z</time></trkpt><trkpt lat="44.51014318282066" lon="9.089153250380487"><ele>509.5</ele><time>2026-05-01T09:33:57.001Z</time></trkpt><trkpt lat="44.510262437228725" lon="9.089223263325145"><ele>512.0</ele><time>2026-05-01T09:33:58.001Z</time></trkpt><trkpt lat="44.51035264557749" lon="9.089320830282594"><ele>518.75</ele><time>2026-05-01T09:33:59.001Z</time></trkpt><trkpt lat="44.51042641220311" lon="9.089459901083611"><ele>525.5</ele><time>2026-05-01T09:34:00.001Z</time></trkpt><trkpt lat="44.51048294747664" lon="9.089625887634286"><ele>532.25</ele><time>2026-05-01T09:34:01.001Z</time></trkpt><trkpt lat="44.51050378945631" lon="9.089826287060447"><ele>539.0</ele><time>2026-05-01T09:34:02.001Z</time></trkpt><trkpt lat="44.5105076831333" lon="9.090072448486737"><ele>539.0</ele><time>2026-05-01T09:34:03.001Z</time></trkpt><trkpt lat="44.510491927044995" lon="9.090337936166343"><ele>539.0</ele><time>2026-05-01T09:34:04.001Z</time></trkpt><trkpt lat="44.51049432934428" lon="9.090580185063061"><ele>539.0</ele><time>2026-05-01T09:34:05.001Z</time></trkpt><trkpt lat="44.510506198298394" lon="9.090801494624902"><ele>537.75</ele><time>2026-05-01T09:34:06.001Z</time></trkpt><trkpt lat="44.51056743078313" lon="9.091020290010377"><ele>536.5</ele><time>2026-05-01T09:34:07.001Z</time></trkpt><trkpt lat="44.510604344433176" lon="9.091202463411578"><ele>535.25</ele><time>2026-05-01T09:34:08.001Z</time></trkpt><trkpt lat="44.510637551607296" lon="9.091364074824309"><ele>534.0</ele><time>2026-05-01T09:34:09.001Z</time></trkpt><trkpt lat="44.51057584617657" lon="9.091507147051125"><ele>532.0</ele><time>2026-05-01T09:34:10.001Z</time></trkpt><trkpt lat="44.51052929377086" lon="9.091633598684142"><ele>530.0</ele><time>2026-05-01T09:34:11.001Z</time></trkpt><trkpt lat="44.510414747354254" lon="9.0916490082408"><ele>528.0</ele><time>2026-05-01T09:34:12.001Z</time></trkpt><trkpt lat="44.51031349279022" lon="9.091733079611055"><ele>526.0</ele><time>2026-05-01T09:34:13.001Z</time></trkpt><trkpt lat="44.51023203349725" lon="9.091827743659188"><ele>524.0</ele><time>2026-05-01T09:34:14.001Z</time></trkpt><trkpt lat="44.51018765078855" lon="9.092008118466904"><ele>521.6666666666666</ele><time>2026-05-01T09:34:15.001Z</time></trkpt><trkpt lat="44.51017470661612" lon="9.092242363816885"><ele>519.3333333333334</ele><time>2026-05-01T09:34:16.001Z</time></trkpt><trkpt lat="44.51015810936265" lon="9.092483463429094"><ele>517.0</ele><time>2026-05-01T09:34:17.001Z</time></trkpt><trkpt lat="44.51020751421882" lon="9.092717931886114"><ele>517.0</ele><time>2026-05-01T09:34:18.001Z</time></trkpt><trkpt lat="44.51018808608468" lon="9.092919834569647"><ele>517.0</ele><time>2026-05-01T09:34:19.001Z</time></trkpt><trkpt lat="44.510137155954425" lon="9.093144397815326"><ele>517.0</ele><time>2026-05-01T09:34:20.001Z</time></trkpt><trkpt lat="44.51011924000224" lon="9.093369998969175"><ele>518.5</ele><time>2026-05-01T09:34:21.001Z</time></trkpt><trkpt lat="44.51010022352237" lon="9.0935563403406"><ele>520.0</ele><time>2026-05-01T09:34:22.001Z</time></trkpt><trkpt lat="44.510027304796395" lon="9.093700700317784"><ele>521.5</ele><time>2026-05-01T09:34:23.001Z</time></trkpt><trkpt lat="44.50990688868154" lon="9.09382146082886"><ele>523.0</ele><time>2026-05-01T09:34:24Z</time></trkpt><trkpt lat="44.50975502377482" lon="9.093924163677633"><ele>523.0</ele><time>2026-05-01T09:34:25Z</time></trkpt><trkpt lat="44.50961838503319" lon="9.093995174789905"><ele>523.0</ele><time>2026-05-01T09:34:26Z</time></trkpt><trkpt lat="44.50946953026228" lon="9.094030987624814"><ele>523.0</ele><time>2026-05-01T09:34:27Z</time></trkpt><trkpt lat="44.50930523244323" lon="9.094045606456953"><ele>518.6666666666667</ele><time>2026-05-01T09:34:28Z</time></trkpt><trkpt lat="44.50914136927573" lon="9.094041484695687"><ele>514.3333333333334</ele><time>2026-05-01T09:34:29Z</time></trkpt><trkpt lat="44.50897604665167" lon="9.094001720351423"><ele>510.0</ele><time>2026-05-01T09:34:30Z</time></trkpt><trkpt lat="44.508812047589245" lon="9.093927710505692"><ele>509.0</ele><time>2026-05-01T09:34:31Z</time></trkpt><trkpt lat="44.50865025179587" lon="9.09385014322224"><ele>508.0</ele><time>2026-05-01T09:34:32Z</time></trkpt><trkpt lat="44.508499703953476" lon="9.09379347573073"><ele>507.0</ele><time>2026-05-01T09:34:33Z</time></trkpt><trkpt lat="44.50836235737589" lon="9.093785402928084"><ele>507.0</ele><time>2026-05-01T09:34:34Z</time></trkpt><trkpt lat="44.50822772503567" lon="9.093839846575836"><ele>507.0</ele><time>2026-05-01T09:34:35Z</time></trkpt><trkpt lat="44.50809689382751" lon="9.09394402074393"><ele>507.0</ele><time>2026-05-01T09:34:36Z</time></trkpt><trkpt lat="44.50795831216893" lon="9.094115416617326"><ele>510.0</ele><time>2026-05-01T09:34:37Z</time></trkpt><trkpt lat="44.50779252597887" lon="9.094325350168715"><ele>513.0</ele><time>2026-05-01T09:34:38Z</time></trkpt><trkpt lat="44.507612519105365" lon="9.094547833030013"><ele>513.0</ele><time>2026-05-01T09:34:39Z</time></trkpt><trkpt lat="44.507455101174386" lon="9.094740226543184"><ele>513.0</ele><time>2026-05-01T09:34:40Z</time></trkpt><trkpt lat="44.507326237509766" lon="9.094903250809729"><ele>513.0</ele><time>2026-05-01T09:34:41Z</time></trkpt><trkpt lat="44.50722449864245" lon="9.095039505196784"><ele>515.5</ele><time>2026-05-01T09:34:42Z</time></trkpt><trkpt lat="44.50715342628638" lon="9.095164449935794"><ele>518.0</ele><time>2026-05-01T09:34:43Z</time></trkpt><trkpt lat="44.507122514557004" lon="9.09532257365937"><ele>520.5</ele><time>2026-05-01T09:34:44Z</time></trkpt><trkpt lat="44.507123811873285" lon="9.095544665369472"><ele>523.0</ele><time>2026-05-01T09:34:45Z</time></trkpt><trkpt lat="44.50712643782302" lon="9.09576883587361"><ele>522.75</ele><time>2026-05-01T09:34:46Z</time></trkpt><trkpt lat="44.507103422320036" lon="9.095983255500915"><ele>522.5</ele><time>2026-05-01T09:34:47Z</time></trkpt><trkpt lat="44.507073075365774" lon="9.096172778792777"><ele>522.25</ele><time>2026-05-01T09:34:48Z</time></trkpt><trkpt lat="44.50700344916449" lon="9.096366825194078"><ele>522.0</ele><time>2026-05-01T09:34:49Z</time></trkpt><trkpt lat="44.50690742779684" lon="9.09659094759984"><ele>520.0</ele><time>2026-05-01T09:34:50Z</time></trkpt><trkpt lat="44.50682567421078" lon="9.096849080302878"><ele>518.0</ele><time>2026-05-01T09:34:51Z</time></trkpt><trkpt lat="44.50673923657386" lon="9.097100545630797"><ele>516.0</ele><time>2026-05-01T09:34:52Z</time></trkpt><trkpt lat="44.50668520631897" lon="9.097350995052642"><ele>519.0</ele><time>2026-05-01T09:34:53Z</time></trkpt><trkpt lat="44.50660505306569" lon="9.09754541020151"><ele>522.0</ele><time>2026-05-01T09:34:54Z</time></trkpt><trkpt lat="44.506512725979135" lon="9.097709732311976"><ele>525.0</ele><time>2026-05-01T09:34:55Z</time></trkpt><trkpt lat="44.5063997228578" lon="9.097875326441054"><ele>525.0</ele><time>2026-05-01T09:34:56Z</time></trkpt><trkpt lat="44.5062653101802" lon="9.09801169345589"><ele>525.0</ele><time>2026-05-01T09:34:57Z</time></trkpt><trkpt lat="44.506117674855595" lon="9.098145494301274"><ele>525.0</ele><time>2026-05-01T09:34:58Z</time></trkpt><trkpt lat="44.50595070837647" lon="9.098223647560259"><ele>524.0</ele><time>2026-05-01T09:34:59Z</time></trkpt><trkpt lat="44.50579592637443" lon="9.098305825795"><ele>523.0</ele><time>2026-05-01T09:35:00Z</time></trkpt><trkpt lat="44.50564629973984" lon="9.098381043352083"><ele>522.0</ele><time>2026-05-01T09:35:01Z</time></trkpt><trkpt lat="44.505491467071636" lon="9.098394093920362"><ele>520.25</ele><time>2026-05-01T09:35:02Z</time></trkpt><trkpt lat="44.50534873052136" lon="9.098385701121346"><ele>518.5</ele><time>2026-05-01T09:35:03Z</time></trkpt><trkpt lat="44.505228792739956" lon="9.098398468579994"><ele>516.75</ele><time>2026-05-01T09:35:04Z</time></trkpt><trkpt lat="44.50512316642385" lon="9.098486330350102"><ele>515.0</ele><time>2026-05-01T09:35:05Z</time></trkpt><trkpt lat="44.50501471369503" lon="9.098637705639494"><ele>515.0</ele><time>2026-05-01T09:35:06Z</time></trkpt><trkpt lat="44.50488563576018" lon="9.098813748864451"><ele>515.0</ele><time>2026-05-01T09:35:07Z</time></trkpt><trkpt lat="44.50476830618402" lon="9.098975621569132"><ele>515.0</ele><time>2026-05-01T09:35:08Z</time></trkpt><trkpt lat="44.50467400874183" lon="9.099118053856454"><ele>518.6666666666666</ele><time>2026-05-01T09:35:09Z</time></trkpt><trkpt lat="44.50461831141326" lon="9.099291930166908"><ele>522.3333333333334</ele><time>2026-05-01T09:35:10Z</time></trkpt><trkpt lat="44.50459077652728" lon="9.099521879654468"><ele>526.0</ele><time>2026-05-01T09:35:11Z</time></trkpt><trkpt lat="44.50458112348703" lon="9.099801609505054"><ele>525.0</ele><time>2026-05-01T09:35:12Z</time></trkpt><trkpt lat="44.50456391305205" lon="9.100103611141233"><ele>524.0</ele><time>2026-05-01T09:35:13Z</time></trkpt><trkpt lat="44.504543326316565" lon="9.10039944988805"><ele>523.0</ele><time>2026-05-01T09:35:14Z</time></trkpt><trkpt lat="44.504521442306576" lon="9.100680293880464"><ele>525.3333333333334</ele><time>2026-05-01T09:35:15Z</time></trkpt><trkpt lat="44.50450331888265" lon="9.100955294695943"><ele>527.6666666666666</ele><time>2026-05-01T09:35:16Z</time></trkpt><trkpt lat="44.50450457301297" lon="9.101250501235446"><ele>530.0</ele><time>2026-05-01T09:35:17Z</time></trkpt><trkpt lat="44.50452817875911" lon="9.101572704940136"><ele>531.3333333333333</ele><time>2026-05-01T09:35:18Z</time></trkpt><trkpt lat="44.504566161004185" lon="9.10190103706583"><ele>532.6666666666666</ele><time>2026-05-01T09:35:19Z</time></trkpt><trkpt lat="44.50458814999425" lon="9.102188623291138"><ele>534.0</ele><time>2026-05-01T09:35:20Z</time></trkpt><trkpt lat="44.50461148644342" lon="9.102424884238287"><ele>532.75</ele><time>2026-05-01T09:35:21Z</time></trkpt><trkpt lat="44.504619159202946" lon="9.102613672978809"><ele>531.5</ele><time>2026-05-01T09:35:22Z</time></trkpt><trkpt lat="44.50459993917366" lon="9.102767340077701"><ele>530.25</ele><time>2026-05-01T09:35:23Z</time></trkpt><trkpt lat="44.504539750856615" lon="9.10289806941025"><ele>529.0</ele><time>2026-05-01T09:35:24Z</time></trkpt><trkpt lat="44.504451489902664" lon="9.10306420164911"><ele>529.0</ele><time>2026-05-01T09:35:25Z</time></trkpt><trkpt lat="44.504354981569136" lon="9.103243067943868"><ele>529.0</ele><time>2026-05-01T09:35:26Z</time></trkpt><trkpt lat="44.504274262332345" lon="9.103389724114026"><ele>529.0</ele><time>2026-05-01T09:35:27Z</time></trkpt><trkpt lat="44.50419254397425" lon="9.103468323498477"><ele>529.0</ele><time>2026-05-01T09:35:28Z</time></trkpt><trkpt lat="44.5040914535396" lon="9.103477842536094"><ele>529.3333333333334</ele><time>2026-05-01T09:35:29Z</time></trkpt><trkpt lat="44.50394591700214" lon="9.103479093020743"><ele>529.6666666666666</ele><time>2026-05-01T09:35:30Z</time></trkpt><trkpt lat="44.503763203287036" lon="9.103508448707013"><ele>530.0</ele><time>2026-05-01T09:35:31Z</time></trkpt><trkpt lat="44.503555270884256" lon="9.103493494518416"><ele>529.0</ele><time>2026-05-01T09:35:32.001Z</time></trkpt><trkpt lat="44.50334273440684" lon="9.103513710912903"><ele>528.0</ele><time>2026-05-01T09:35:33.001Z</time></trkpt><trkpt lat="44.50314878590942" lon="9.103526791679704"><ele>527.0</ele><time>2026-05-01T09:35:34.001Z</time></trkpt><trkpt lat="44.502972734125336" lon="9.103528682213009"><ele>527.6666666666666</ele><time>2026-05-01T09:35:35.001Z</time></trkpt><trkpt lat="44.50281306089611" lon="9.103546150210162"><ele>528.3333333333334</ele><time>2026-05-01T09:35:36.001Z</time></trkpt><trkpt lat="44.502660914949736" lon="9.103582686411244"><ele>529.0</ele><time>2026-05-01T09:35:37.001Z</time></trkpt><trkpt lat="44.50250892417803" lon="9.103668610277348"><ele>529.0</ele><time>2026-05-01T09:35:38.001Z</time></trkpt><trkpt lat="44.502365291301096" lon="9.103816011760072"><ele>529.0</ele><time>2026-05-01T09:35:39.001Z</time></trkpt><trkpt lat="44.50223557542897" lon="9.104017742984636"><ele>529.0</ele><time>2026-05-01T09:35:40.001Z</time></trkpt><trkpt lat="44.50212567607984" lon="9.10422725124855"><ele>531.6666666666667</ele><time>2026-05-01T09:35:41.001Z</time></trkpt><trkpt lat="44.50203709304073" lon="9.104447853644427"><ele>534.3333333333334</ele><time>2026-05-01T09:35:42.001Z</time></trkpt><trkpt lat="44.50198344246477" lon="9.104663235127147"><ele>537.0</ele><time>2026-05-01T09:35:43.001Z</time></trkpt><trkpt lat="44.50192721507497" lon="9.104836986461873"><ele>539.0</ele><time>2026-05-01T09:35:44.001Z</time></trkpt><trkpt lat="44.50181991741065" lon="9.104946091384365"><ele>541.0</ele><time>2026-05-01T09:35:45.001Z</time></trkpt><trkpt lat="44.501675646038024" lon="9.10508703986591"><ele>543.0</ele><time>2026-05-01T09:35:46.001Z</time></trkpt><trkpt lat="44.5015216081693" lon="9.105224329481386"><ele>543.0</ele><time>2026-05-01T09:35:47.001Z</time></trkpt><trkpt lat="44.50139149673954" lon="9.105331448275756"><ele>543.0</ele><time>2026-05-01T09:35:48.001Z</time></trkpt><trkpt lat="44.50124911438467" lon="9.105331620507162"><ele>543.0</ele><time>2026-05-01T09:35:49.001Z</time></trkpt><trkpt lat="44.501100238387664" lon="9.105323966174547"><ele>543.0</ele><time>2026-05-01T09:35:50.001Z</time></trkpt><trkpt lat="44.500935815781816" lon="9.10531222669458"><ele>541.0</ele><time>2026-05-01T09:35:51.001Z</time></trkpt><trkpt lat="44.500784998560995" lon="9.105324678029625"><ele>539.0</ele><time>2026-05-01T09:35:52.001Z</time></trkpt><trkpt lat="44.50064477714093" lon="9.10539519822785"><ele>537.0</ele><time>2026-05-01T09:35:53.001Z</time></trkpt><trkpt lat="44.50053918196632" lon="9.105490288029074"><ele>535.0</ele><time>2026-05-01T09:35:54.001Z</time></trkpt><trkpt lat="44.50047524190098" lon="9.105594479057977"><ele>535.0</ele><time>2026-05-01T09:35:55.001Z</time></trkpt><trkpt lat="44.50045066441103" lon="9.105735632880167"><ele>535.0</ele><time>2026-05-01T09:35:56.001Z</time></trkpt><trkpt lat="44.500448956758916" lon="9.10592664750775"><ele>535.0</ele><time>2026-05-01T09:35:57.001Z</time></trkpt><trkpt lat="44.50047350983439" lon="9.106178526496723"><ele>535.0</ele><time>2026-05-01T09:35:58.001Z</time></trkpt><trkpt lat="44.500464664141575" lon="9.106438155279486"><ele>547.6666666666667</ele><time>2026-05-01T09:35:59.001Z</time></trkpt><trkpt lat="44.500465575160554" lon="9.106718019382027"><ele>560.3333333333334</ele><time>2026-05-01T09:36:00.001Z</time></trkpt><trkpt lat="44.50047177511429" lon="9.106991384235506"><ele>573.0</ele><time>2026-05-01T09:36:01.001Z</time></trkpt><trkpt lat="44.50050891476867" lon="9.107217427127347"><ele>573.0</ele><time>2026-05-01T09:36:02.001Z</time></trkpt><trkpt lat="44.50051301297389" lon="9.107402686937007"><ele>573.0</ele><time>2026-05-01T09:36:03.001Z</time></trkpt><trkpt lat="44.500453983066215" lon="9.10754693777289"><ele>573.0</ele><time>2026-05-01T09:36:04.001Z</time></trkpt><trkpt lat="44.500365678386046" lon="9.107701125625251"><ele>573.0</ele><time>2026-05-01T09:36:05.001Z</time></trkpt><trkpt lat="44.50027426869133" lon="9.107897390076525"><ele>564.5</ele><time>2026-05-01T09:36:06.001Z</time></trkpt><trkpt lat="44.50019005515403" lon="9.10804192691617"><ele>556.0</ele><time>2026-05-01T09:36:07.001Z</time></trkpt><trkpt lat="44.50011801346026" lon="9.108136847741765"><ele>547.5</ele><time>2026-05-01T09:36:08.001Z</time></trkpt><trkpt lat="44.50001591118909" lon="9.10812572634642"><ele>539.0</ele><time>2026-05-01T09:36:09.001Z</time></trkpt><trkpt lat="44.49988804713625" lon="9.108115756974678"><ele>539.0</ele><time>2026-05-01T09:36:10.001Z</time></trkpt><trkpt lat="44.49974339284026" lon="9.108094143404605"><ele>539.0</ele><time>2026-05-01T09:36:11.001Z</time></trkpt><trkpt lat="44.499610263690535" lon="9.108141641849297"><ele>539.0</ele><time>2026-05-01T09:36:12.001Z</time></trkpt><trkpt lat="44.49951644372306" lon="9.108234241610395"><ele>539.0</ele><time>2026-05-01T09:36:13.001Z</time></trkpt><trkpt lat="44.499450778629935" lon="9.108363325842175"><ele>539.0</ele><time>2026-05-01T09:36:14.001Z</time></trkpt><trkpt lat="44.499404218875846" lon="9.108553242196763"><ele>539.0</ele><time>2026-05-01T09:36:15.001Z</time></trkpt><trkpt lat="44.49936749306638" lon="9.108784851638623"><ele>539.0</ele><time>2026-05-01T09:36:16.001Z</time></trkpt><trkpt lat="44.49930134723343" lon="9.109018302388103"><ele>544.5</ele><time>2026-05-01T09:36:17.001Z</time></trkpt><trkpt lat="44.49922314716243" lon="9.109206520101104"><ele>550.0</ele><time>2026-05-01T09:36:18.001Z</time></trkpt><trkpt lat="44.49919605597125" lon="9.109379990968037"><ele>555.5</ele><time>2026-05-01T09:36:19.001Z</time></trkpt><trkpt lat="44.49920755371045" lon="9.109571052487258"><ele>561.0</ele><time>2026-05-01T09:36:20.001Z</time></trkpt><trkpt lat="44.499258333236696" lon="9.109786867803653"><ele>561.8</ele><time>2026-05-01T09:36:21.001Z</time></trkpt><trkpt lat="44.4992895865436" lon="9.10996927908784"><ele>562.6</ele><time>2026-05-01T09:36:22.001Z</time></trkpt><trkpt lat="44.49929316955905" lon="9.11009922359715"><ele>563.4</ele><time>2026-05-01T09:36:23.001Z</time></trkpt><trkpt lat="44.49926371428201" lon="9.11020174728944"><ele>564.2</ele><time>2026-05-01T09:36:24.001Z</time></trkpt><trkpt lat="44.49919176120046" lon="9.110290412326071"><ele>565.0</ele><time>2026-05-01T09:36:25.001Z</time></trkpt><trkpt lat="44.499074597658634" lon="9.110376239127225"><ele>565.0</ele><time>2026-05-01T09:36:26.001Z</time></trkpt><trkpt lat="44.498993142520455" lon="9.110493561538595"><ele>565.0</ele><time>2026-05-01T09:36:27.001Z</time></trkpt><trkpt lat="44.49894086045914" lon="9.110605914779338"><ele>565.0</ele><time>2026-05-01T09:36:28.001Z</time></trkpt><trkpt lat="44.49893501029942" lon="9.110760502594108"><ele>565.0</ele><time>2026-05-01T09:36:29Z</time></trkpt><trkpt lat="44.49896629872717" lon="9.110940705250187"><ele>565.25</ele><time>2026-05-01T09:36:30Z</time></trkpt><trkpt lat="44.49902883637723" lon="9.111135588539463"><ele>565.5</ele><time>2026-05-01T09:36:31Z</time></trkpt><trkpt lat="44.499094700882715" lon="9.111339001175482"><ele>565.75</ele><time>2026-05-01T09:36:32Z</time></trkpt><trkpt lat="44.49915097888557" lon="9.111511000546809"><ele>566.0</ele><time>2026-05-01T09:36:33Z</time></trkpt><trkpt lat="44.49915059658161" lon="9.111701223588895"><ele>566.3333333333333</ele><time>2026-05-01T09:36:34Z</time></trkpt><trkpt lat="44.49915950234536" lon="9.111951074831927"><ele>566.6666666666666</ele><time>2026-05-01T09:36:35Z</time></trkpt><trkpt lat="44.49919598871358" lon="9.112201877138158"><ele>567.0</ele><time>2026-05-01T09:36:36Z</time></trkpt><trkpt lat="44.49919215949092" lon="9.112416897683596"><ele>571.3333333333334</ele><time>2026-05-01T09:36:37Z</time></trkpt><trkpt lat="44.49914214712881" lon="9.11260626759867"><ele>575.6666666666667</ele><time>2026-05-01T09:36:38Z</time></trkpt><trkpt lat="44.499088206654484" lon="9.112836330222075"><ele>580.0</ele><time>2026-05-01T09:36:39Z</time></trkpt><trkpt lat="44.4989745647975" lon="9.113037997433945"><ele>580.0</ele><time>2026-05-01T09:36:40Z</time></trkpt><trkpt lat="44.49885232189568" lon="9.113196603461247"><ele>580.0</ele><time>2026-05-01T09:36:41Z</time></trkpt><trkpt lat="44.498723772929964" lon="9.113297375932616"><ele>580.0</ele><time>2026-05-01T09:36:42Z</time></trkpt><trkpt lat="44.49862076672837" lon="9.113368660825254"><ele>580.0</ele><time>2026-05-01T09:36:43Z</time></trkpt><trkpt lat="44.49856410458728" lon="9.113460956411691"><ele>574.75</ele><time>2026-05-01T09:36:44Z</time></trkpt><trkpt lat="44.498557469265" lon="9.113588239357973"><ele>569.5</ele><time>2026-05-01T09:36:45Z</time></trkpt><trkpt lat="44.49858198694671" lon="9.113759657397114"><ele>564.25</ele><time>2026-05-01T09:36:46Z</time></trkpt><trkpt lat="44.498631764359445" lon="9.113931977206517"><ele>559.0</ele><time>2026-05-01T09:36:47Z</time></trkpt><trkpt lat="44.49864192504536" lon="9.114103534922748"><ele>559.0</ele><time>2026-05-01T09:36:48Z</time></trkpt><trkpt lat="44.498535564624106" lon="9.114272211586265"><ele>559.0</ele><time>2026-05-01T09:36:49Z</time></trkpt><trkpt lat="44.49851281698586" lon="9.114492776658116"><ele>559.0</ele><time>2026-05-01T09:36:50Z</time></trkpt><trkpt lat="44.498510345646295" lon="9.114766159208086"><ele>560.3333333333334</ele><time>2026-05-01T09:36:51Z</time></trkpt><trkpt lat="44.498524734200515" lon="9.115048511414987"><ele>561.6666666666666</ele><time>2026-05-01T09:36:52Z</time></trkpt><trkpt lat="44.49851538787093" lon="9.115310209535886"><ele>563.0</ele><time>2026-05-01T09:36:53Z</time></trkpt><trkpt lat="44.49850572702767" lon="9.115522518137071"><ele>563.0</ele><time>2026-05-01T09:36:54Z</time></trkpt><trkpt lat="44.49845235191317" lon="9.115731876125247"><ele>563.0</ele><time>2026-05-01T09:36:55Z</time></trkpt><trkpt lat="44.498356082004" lon="9.115961330699681"><ele>563.0</ele><time>2026-05-01T09:36:56Z</time></trkpt><trkpt lat="44.49830386676823" lon="9.116241980625158"><ele>566.3333333333333</ele><time>2026-05-01T09:36:57Z</time></trkpt><trkpt lat="44.49824133792085" lon="9.116524976182244"><ele>569.6666666666666</ele><time>2026-05-01T09:36:58Z</time></trkpt><trkpt lat="44.49814829807902" lon="9.116781884812816"><ele>573.0</ele><time>2026-05-01T09:36:59Z</time></trkpt><trkpt lat="44.49804657780747" lon="9.11703217113934"><ele>576.0</ele><time>2026-05-01T09:37:00Z</time></trkpt><trkpt lat="44.497934466732374" lon="9.117266446716357"><ele>579.0</ele><time>2026-05-01T09:37:01Z</time></trkpt><trkpt lat="44.497842706775664" lon="9.117460979892707"><ele>582.0</ele><time>2026-05-01T09:37:02Z</time></trkpt><trkpt lat="44.49774390289474" lon="9.117573414611618"><ele>582.0</ele><time>2026-05-01T09:37:03Z</time></trkpt><trkpt lat="44.49760000323034" lon="9.117589851969225"><ele>582.0</ele><time>2026-05-01T09:37:04Z</time></trkpt><trkpt lat="44.4974468238668" lon="9.117675565389046"><ele>582.0</ele><time>2026-05-01T09:37:05Z</time></trkpt><trkpt lat="44.49728912047501" lon="9.117728186587245"><ele>582.0</ele><time>2026-05-01T09:37:06Z</time></trkpt><trkpt lat="44.49716685846499" lon="9.117802892413696"><ele>582.0</ele><time>2026-05-01T09:37:07Z</time></trkpt><trkpt lat="44.49707701313326" lon="9.117907467352476"><ele>582.0</ele><time>2026-05-01T09:37:08Z</time></trkpt><trkpt lat="44.49700582112061" lon="9.118068903710975"><ele>582.0</ele><time>2026-05-01T09:37:09Z</time></trkpt><trkpt lat="44.49695144134288" lon="9.118290673568001"><ele>578.75</ele><time>2026-05-01T09:37:10Z</time></trkpt><trkpt lat="44.496904808288434" lon="9.118511418066754"><ele>575.5</ele><time>2026-05-01T09:37:11Z</time></trkpt><trkpt lat="44.496885281959194" lon="9.118668500516222"><ele>572.25</ele><time>2026-05-01T09:37:12Z</time></trkpt><trkpt lat="44.49691107113312" lon="9.118773092266023"><ele>569.0</ele><time>2026-05-01T09:37:13Z</time></trkpt><trkpt lat="44.49697961722646" lon="9.118876945511921"><ele>577.25</ele><time>2026-05-01T09:37:14Z</time></trkpt><trkpt lat="44.49708858016547" lon="9.118947381191468"><ele>585.5</ele><time>2026-05-01T09:37:15Z</time></trkpt><trkpt lat="44.49724579388843" lon="9.118989325781309"><ele>593.75</ele><time>2026-05-01T09:37:16Z</time></trkpt><trkpt lat="44.49738543590624" lon="9.119077768060079"><ele>602.0</ele><time>2026-05-01T09:37:17Z</time></trkpt><trkpt lat="44.49748369645153" lon="9.11914604164856"><ele>602.0</ele><time>2026-05-01T09:37:18Z</time></trkpt><trkpt lat="44.49755291719746" lon="9.119222753300948"><ele>602.0</ele><time>2026-05-01T09:37:19Z</time></trkpt><trkpt lat="44.49755082859665" lon="9.119365966122746"><ele>602.0</ele><time>2026-05-01T09:37:20Z</time></trkpt><trkpt lat="44.497522427066095" lon="9.119540295278647"><ele>602.0</ele><time>2026-05-01T09:37:21Z</time></trkpt><trkpt lat="44.49750562451875" lon="9.119764875660412"><ele>602.6666666666666</ele><time>2026-05-01T09:37:22Z</time></trkpt><trkpt lat="44.49748658576101" lon="9.120025065549914"><ele>603.3333333333334</ele><time>2026-05-01T09:37:23.001Z</time></trkpt><trkpt lat="44.497482801261825" lon="9.120250377194157"><ele>604.0</ele><time>2026-05-01T09:37:24.001Z</time></trkpt><trkpt lat="44.49744572517274" lon="9.120433214058464"><ele>604.0</ele><time>2026-05-01T09:37:25.001Z</time></trkpt><trkpt lat="44.4973739459301" lon="9.120549622541347"><ele>604.0</ele><time>2026-05-01T09:37:26.001Z</time></trkpt><trkpt lat="44.49725539756014" lon="9.120576261485448"><ele>604.0</ele><time>2026-05-01T09:37:27.001Z</time></trkpt><trkpt lat="44.49713835440503" lon="9.120647554279923"><ele>604.0</ele><time>2026-05-01T09:37:28.001Z</time></trkpt><trkpt lat="44.49703406488441" lon="9.120756945183993"><ele>595.0</ele><time>2026-05-01T09:37:29.001Z</time></trkpt><trkpt lat="44.496982009483936" lon="9.120936421848652"><ele>586.0</ele><time>2026-05-01T09:37:30.001Z</time></trkpt><trkpt lat="44.49697811859648" lon="9.121143861632376"><ele>577.0</ele><time>2026-05-01T09:37:31.001Z</time></trkpt><trkpt lat="44.49701690859882" lon="9.121376926455577"><ele>575.3333333333334</ele><time>2026-05-01T09:37:32.001Z</time></trkpt><trkpt lat="44.497077972258005" lon="9.121606233080836"><ele>573.6666666666666</ele><time>2026-05-01T09:37:33.001Z</time></trkpt><trkpt lat="44.497167975302354" lon="9.121793545273738"><ele>572.0</ele><time>2026-05-01T09:37:34.001Z</time></trkpt><trkpt lat="44.497301655327675" lon="9.121969693903534"><ele>579.0</ele><time>2026-05-01T09:37:35.001Z</time></trkpt><trkpt lat="44.49745503335965" lon="9.122185511319932"><ele>586.0</ele><time>2026-05-01T09:37:36.001Z</time></trkpt><trkpt lat="44.49761331590796" lon="9.122410025004895"><ele>593.0</ele><time>2026-05-01T09:37:37.001Z</time></trkpt><trkpt lat="44.49776621945527" lon="9.122610440440683"><ele>593.0</ele><time>2026-05-01T09:37:38.001Z</time></trkpt><trkpt lat="44.497885450205374" lon="9.122826933064324"><ele>593.0</ele><time>2026-05-01T09:37:39.001Z</time></trkpt><trkpt lat="44.49799508884879" lon="9.123038597058736"><ele>593.0</ele><time>2026-05-01T09:37:40.001Z</time></trkpt><trkpt lat="44.49811715804689" lon="9.12321607718421"><ele>595.0</ele><time>2026-05-01T09:37:41.001Z</time></trkpt><trkpt lat="44.49824065058868" lon="9.123337367891338"><ele>597.0</ele><time>2026-05-01T09:37:42.001Z</time></trkpt><trkpt lat="44.498348824964694" lon="9.1234438425996"><ele>599.0</ele><time>2026-05-01T09:37:43.001Z</time></trkpt><trkpt lat="44.498405388802524" lon="9.12360178786168"><ele>601.0</ele><time>2026-05-01T09:37:44.001Z</time></trkpt><trkpt lat="44.498432984224245" lon="9.12377654107994"><ele>601.0</ele><time>2026-05-01T09:37:45.001Z</time></trkpt><trkpt lat="44.498465951763166" lon="9.123977423374157"><ele>601.0</ele><time>2026-05-01T09:37:46.001Z</time></trkpt><trkpt lat="44.498496266576815" lon="9.124186078431721"><ele>601.0</ele><time>2026-05-01T09:37:47.001Z</time></trkpt><trkpt lat="44.49852062008329" lon="9.124362408493013"><ele>601.0</ele><time>2026-05-01T09:37:48.001Z</time></trkpt><trkpt lat="44.49853689622886" lon="9.124532009895443"><ele>598.25</ele><time>2026-05-01T09:37:49.001Z</time></trkpt><trkpt lat="44.49852123295742" lon="9.124706545517466"><ele>595.5</ele><time>2026-05-01T09:37:50.001Z</time></trkpt><trkpt lat="44.498472985034546" lon="9.124885065675484"><ele>592.75</ele><time>2026-05-01T09:37:51.001Z</time></trkpt><trkpt lat="44.49842734133447" lon="9.12506848614942"><ele>590.0</ele><time>2026-05-01T09:37:52.001Z</time></trkpt><trkpt lat="44.49838245853289" lon="9.12523908590463"><ele>589.5</ele><time>2026-05-01T09:37:53.001Z</time></trkpt><trkpt lat="44.498341641566" lon="9.125391184908533"><ele>589.0</ele><time>2026-05-01T09:37:54.001Z</time></trkpt><trkpt lat="44.498303943010974" lon="9.125543441590265"><ele>588.5</ele><time>2026-05-01T09:37:55.001Z</time></trkpt><trkpt lat="44.49820709416611" lon="9.125649676780712"><ele>588.0</ele><time>2026-05-01T09:37:56.001Z</time></trkpt><trkpt lat="44.498101030245465" lon="9.125762808581598"><ele>588.75</ele><time>2026-05-01T09:37:57.001Z</time></trkpt><trkpt lat="44.49796858547214" lon="9.125808531842846"><ele>589.5</ele><time>2026-05-01T09:37:58.001Z</time></trkpt><trkpt lat="44.49784043923129" lon="9.125796036669067"><ele>590.25</ele><time>2026-05-01T09:37:59.001Z</time></trkpt><trkpt lat="44.49772188503485" lon="9.125731132348616"><ele>591.0</ele><time>2026-05-01T09:38:00.001Z</time></trkpt><trkpt lat="44.49761256856265" lon="9.125630871663061"><ele>591.0</ele><time>2026-05-01T09:38:01.001Z</time></trkpt><trkpt lat="44.497513593800164" lon="9.125485312996739"><ele>591.0</ele><time>2026-05-01T09:38:02.001Z</time></trkpt><trkpt lat="44.49743586171317" lon="9.125303716233221"><ele>591.0</ele><time>2026-05-01T09:38:03.001Z</time></trkpt><trkpt lat="44.49738887201565" lon="9.12510813141494"><ele>591.0</ele><time>2026-05-01T09:38:04.001Z</time></trkpt><trkpt lat="44.497382824201814" lon="9.124903502991682"><ele>589.0</ele><time>2026-05-01T09:38:05.001Z</time></trkpt><trkpt lat="44.49738086888754" lon="9.124691203843456"><ele>587.0</ele><time>2026-05-01T09:38:06.001Z</time></trkpt><trkpt lat="44.497343681354636" lon="9.124476133398838"><ele>585.0</ele><time>2026-05-01T09:38:07.001Z</time></trkpt><trkpt lat="44.49725011509547" lon="9.124278658168894"><ele>585.0</ele><time>2026-05-01T09:38:08.001Z</time></trkpt><trkpt lat="44.49712737298442" lon="9.124081713083697"><ele>585.0</ele><time>2026-05-01T09:38:09.001Z</time></trkpt><trkpt lat="44.497014179853" lon="9.123896301338222"><ele>585.0</ele><time>2026-05-01T09:38:10.001Z</time></trkpt><trkpt lat="44.49692297591131" lon="9.123731663691764"><ele>585.25</ele><time>2026-05-01T09:38:11.001Z</time></trkpt><trkpt lat="44.496837525662905" lon="9.123605417287031"><ele>585.5</ele><time>2026-05-01T09:38:12.001Z</time></trkpt><trkpt lat="44.49673644617599" lon="9.123522237841396"><ele>585.75</ele><time>2026-05-01T09:38:13.001Z</time></trkpt><trkpt lat="44.49659669398129" lon="9.123510906756279"><ele>586.0</ele><time>2026-05-01T09:38:14.001Z</time></trkpt><trkpt lat="44.496447465068435" lon="9.123516266211638"><ele>586.0</ele><time>2026-05-01T09:38:15.001Z</time></trkpt><trkpt lat="44.49631728608516" lon="9.1235389505898"><ele>586.0</ele><time>2026-05-01T09:38:16.001Z</time></trkpt><trkpt lat="44.49621229363487" lon="9.123599312975763"><ele>586.0</ele><time>2026-05-01T09:38:17.001Z</time></trkpt><trkpt lat="44.49611278055279" lon="9.123709973172163"><ele>586.0</ele><time>2026-05-01T09:38:18.001Z</time></trkpt><trkpt lat="44.49601897852121" lon="9.123890106330757"><ele>589.3333333333334</ele><time>2026-05-01T09:38:19.001Z</time></trkpt><trkpt lat="44.49592044365299" lon="9.124120303829896"><ele>592.6666666666666</ele><time>2026-05-01T09:38:20.001Z</time></trkpt><trkpt lat="44.49582154787635" lon="9.124342577680851"><ele>596.0</ele><time>2026-05-01T09:38:21.001Z</time></trkpt><trkpt lat="44.49572580011594" lon="9.124541865599818"><ele>596.0</ele><time>2026-05-01T09:38:22.001Z</time></trkpt><trkpt lat="44.4956242056556" lon="9.12469554302195"><ele>596.0</ele><time>2026-05-01T09:38:23.001Z</time></trkpt><trkpt lat="44.49550431490548" lon="9.124813947656179"><ele>596.0</ele><time>2026-05-01T09:38:24.001Z</time></trkpt><trkpt lat="44.495385118592516" lon="9.124892202599309"><ele>596.0</ele><time>2026-05-01T09:38:25.001Z</time></trkpt><trkpt lat="44.495297360317245" lon="9.1249655855153"><ele>596.0</ele><time>2026-05-01T09:38:26.001Z</time></trkpt><trkpt lat="44.495239497694534" lon="9.125055867234801"><ele>596.0</ele><time>2026-05-01T09:38:27.001Z</time></trkpt><trkpt lat="44.49522656935909" lon="9.125175915167704"><ele>596.0</ele><time>2026-05-01T09:38:28.001Z</time></trkpt><trkpt lat="44.49526336644703" lon="9.125311234546668"><ele>596.0</ele><time>2026-05-01T09:38:29.001Z</time></trkpt><trkpt lat="44.49534840376662" lon="9.125420629046992"><ele>596.0</ele><time>2026-05-01T09:38:30.001Z</time></trkpt><trkpt lat="44.495476873062564" lon="9.125522181763309"><ele>602.0</ele><time>2026-05-01T09:38:31.001Z</time></trkpt><trkpt lat="44.495636332801396" lon="9.125624663395113"><ele>608.0</ele><time>2026-05-01T09:38:32.001Z</time></trkpt><trkpt lat="44.495779647682156" lon="9.125723173953478"><ele>614.0</ele><time>2026-05-01T09:38:33.001Z</time></trkpt><trkpt lat="44.49587613952188" lon="9.12585968286237"><ele>614.0</ele><time>2026-05-01T09:38:34.001Z</time></trkpt><trkpt lat="44.49596290759615" lon="9.125983252508378"><ele>614.0</ele><time>2026-05-01T09:38:35Z</time></trkpt><trkpt lat="44.495977316066096" lon="9.126163043002201"><ele>614.0</ele><time>2026-05-01T09:38:36Z</time></trkpt><trkpt lat="44.496000954919566" lon="9.126327378498601"><ele>614.0</ele><time>2026-05-01T09:38:37Z</time></trkpt><trkpt lat="44.495945357920256" lon="9.126487309751383"><ele>613.0</ele><time>2026-05-01T09:38:38Z</time></trkpt><trkpt lat="44.49587991297307" lon="9.126653113516166"><ele>612.0</ele><time>2026-05-01T09:38:39Z</time></trkpt><trkpt lat="44.49577879134484" lon="9.126805059455055"><ele>611.0</ele><time>2026-05-01T09:38:40Z</time></trkpt><trkpt lat="44.49568466350029" lon="9.126986942241297"><ele>610.0</ele><time>2026-05-01T09:38:41Z</time></trkpt><trkpt lat="44.49557985683201" lon="9.127165643289429"><ele>610.0</ele><time>2026-05-01T09:38:42Z</time></trkpt><trkpt lat="44.49551056820148" lon="9.127359296608443"><ele>610.0</ele><time>2026-05-01T09:38:43Z</time></trkpt><trkpt lat="44.495478520702406" lon="9.127594713333472"><ele>610.0</ele><time>2026-05-01T09:38:44Z</time></trkpt><trkpt lat="44.4954694301057" lon="9.127841565641123"><ele>611.3333333333334</ele><time>2026-05-01T09:38:45Z</time></trkpt><trkpt lat="44.49546661695491" lon="9.128073629672278"><ele>612.6666666666666</ele><time>2026-05-01T09:38:46Z</time></trkpt><trkpt lat="44.49541939597957" lon="9.128263620227756"><ele>614.0</ele><time>2026-05-01T09:38:47Z</time></trkpt><trkpt lat="44.495367626920405" lon="9.128450182452791"><ele>614.0</ele><time>2026-05-01T09:38:48Z</time></trkpt><trkpt lat="44.495278244648375" lon="9.128616664188728"><ele>614.0</ele><time>2026-05-01T09:38:49Z</time></trkpt><trkpt lat="44.495167619169166" lon="9.128786196641292"><ele>614.0</ele><time>2026-05-01T09:38:50Z</time></trkpt><trkpt lat="44.49505534279348" lon="9.128978617498863"><ele>616.6666666666666</ele><time>2026-05-01T09:38:51Z</time></trkpt><trkpt lat="44.494919009534165" lon="9.129134425174717"><ele>619.3333333333334</ele><time>2026-05-01T09:38:52Z</time></trkpt><trkpt lat="44.49480084130924" lon="9.129254494613589"><ele>622.0</ele><time>2026-05-01T09:38:53Z</time></trkpt><trkpt lat="44.49468441944244" lon="9.129359345802309"><ele>617.0</ele><time>2026-05-01T09:38:54Z</time></trkpt><trkpt lat="44.494557204219085" lon="9.129445224436548"><ele>612.0</ele><time>2026-05-01T09:38:55Z</time></trkpt><trkpt lat="44.49443412209799" lon="9.129563322274892"><ele>607.0</ele><time>2026-05-01T09:38:56Z</time></trkpt><trkpt lat="44.49434024516296" lon="9.129723347590849"><ele>602.0</ele><time>2026-05-01T09:38:57Z</time></trkpt><trkpt lat="44.494263276871116" lon="9.129869722583313"><ele>605.25</ele><time>2026-05-01T09:38:58Z</time></trkpt><trkpt lat="44.494191492882166" lon="9.129998574778652"><ele>608.5</ele><time>2026-05-01T09:38:59Z</time></trkpt><trkpt lat="44.49410155833468" lon="9.130114357566741"><ele>611.75</ele><time>2026-05-01T09:39:00Z</time></trkpt><trkpt lat="44.493997693052236" lon="9.130227659208055"><ele>615.0</ele><time>2026-05-01T09:39:01Z</time></trkpt><trkpt lat="44.49388047191228" lon="9.130328124177097"><ele>611.5</ele><time>2026-05-01T09:39:02Z</time></trkpt><trkpt lat="44.49375389865538" lon="9.130414868093796"><ele>608.0</ele><time>2026-05-01T09:39:03Z</time></trkpt><trkpt lat="44.49361627273233" lon="9.130485145272075"><ele>604.5</ele><time>2026-05-01T09:39:04Z</time></trkpt><trkpt lat="44.49346543958405" lon="9.130533113562493"><ele>601.0</ele><time>2026-05-01T09:39:05Z</time></trkpt><trkpt lat="44.49329903961122" lon="9.130561707693337"><ele>601.0</ele><time>2026-05-01T09:39:06Z</time></trkpt><trkpt lat="44.493128265157544" lon="9.130586435937783"><ele>601.0</ele><time>2026-05-01T09:39:07Z</time></trkpt><trkpt lat="44.492957772549715" lon="9.13061063027806"><ele>601.0</ele><time>2026-05-01T09:39:08Z</time></trkpt><trkpt lat="44.492767383345345" lon="9.130629677450475"><ele>597.0</ele><time>2026-05-01T09:39:09Z</time></trkpt><trkpt lat="44.49258006442894" lon="9.130657754247283"><ele>593.0</ele><time>2026-05-01T09:39:10Z</time></trkpt><trkpt lat="44.49236854170711" lon="9.130682171091838"><ele>589.0</ele><time>2026-05-01T09:39:11Z</time></trkpt><trkpt lat="44.49216657970505" lon="9.130700636796279"><ele>588.0</ele><time>2026-05-01T09:39:12Z</time></trkpt><trkpt lat="44.4919589713857" lon="9.130708407244954"><ele>587.0</ele><time>2026-05-01T09:39:13Z</time></trkpt><trkpt lat="44.491752217658714" lon="9.130725261773174"><ele>586.0</ele><time>2026-05-01T09:39:14Z</time></trkpt><trkpt lat="44.49153997277659" lon="9.130747845380963"><ele>588.0</ele><time>2026-05-01T09:39:15Z</time></trkpt><trkpt lat="44.491320065558625" lon="9.130771966612695"><ele>590.0</ele><time>2026-05-01T09:39:16Z</time></trkpt><trkpt lat="44.491095837299184" lon="9.130798552333404"><ele>592.0</ele><time>2026-05-01T09:39:17Z</time></trkpt><trkpt lat="44.490879216304776" lon="9.130825151307352"><ele>601.3333333333334</ele><time>2026-05-01T09:39:18Z</time></trkpt><trkpt lat="44.49068004894472" lon="9.130844911111538"><ele>610.6666666666666</ele><time>2026-05-01T09:39:19Z</time></trkpt><trkpt lat="44.49049503905852" lon="9.130861196859932"><ele>620.0</ele><time>2026-05-01T09:39:20Z</time></trkpt><trkpt lat="44.490327804598984" lon="9.130875782219144"><ele>622.25</ele><time>2026-05-01T09:39:21Z</time></trkpt><trkpt lat="44.490175656006016" lon="9.130879526224797"><ele>624.5</ele><time>2026-05-01T09:39:22Z</time></trkpt><trkpt lat="44.49004081390552" lon="9.130880829410637"><ele>626.75</ele><time>2026-05-01T09:39:23Z</time></trkpt><trkpt lat="44.48994032046945" lon="9.13088490835985"><ele>629.0</ele><time>2026-05-01T09:39:24Z</time></trkpt><trkpt lat="44.48987020585387" lon="9.130886379111482"><ele>629.0</ele><time>2026-05-01T09:39:25Z</time></trkpt><trkpt lat="44.489788401210305" lon="9.130892906931809"><ele>629.0</ele><time>2026-05-01T09:39:27Z</time></trkpt><trkpt lat="44.48969891229333" lon="9.130941753277188"><ele>629.0</ele><time>2026-05-01T09:41:55Z</time></trkpt><trkpt lat="44.489624734612875" lon="9.130963058877478"><ele>629.0</ele><time>2026-05-01T09:41:56Z</time></trkpt><trkpt lat="44.489538917894244" lon="9.130970981853656"><ele>629.0</ele><time>2026-05-01T09:41:57Z</time></trkpt><trkpt lat="44.48943424809122" lon="9.130976524176042"><ele>629.0</ele><time>2026-05-01T09:41:58Z</time></trkpt><trkpt lat="44.48932196980653" lon="9.13097981215856"><ele>630.25</ele><time>2026-05-01T09:41:59Z</time></trkpt><trkpt lat="44.48920762378938" lon="9.130987001003229"><ele>631.5</ele><time>2026-05-01T09:42:00.001Z</time></trkpt><trkpt lat="44.48908371172893" lon="9.130989710522796"><ele>632.75</ele><time>2026-05-01T09:42:01.001Z</time></trkpt><trkpt lat="44.48894388036016" lon="9.130985993986599"><ele>634.0</ele><time>2026-05-01T09:42:02.001Z</time></trkpt><trkpt lat="44.48878661886198" lon="9.130965631382066"><ele>635.6666666666667</ele><time>2026-05-01T09:42:03.001Z</time></trkpt><trkpt lat="44.48861180020849" lon="9.130921314939139"><ele>637.3333333333334</ele><time>2026-05-01T09:42:04.001Z</time></trkpt><trkpt lat="44.48843271252114" lon="9.130854953112257"><ele>639.0</ele><time>2026-05-01T09:42:05.001Z</time></trkpt><trkpt lat="44.48825142409698" lon="9.130778942202793"><ele>633.0</ele><time>2026-05-01T09:42:06.001Z</time></trkpt><trkpt lat="44.4880660792027" lon="9.130696306592252"><ele>627.0</ele><time>2026-05-01T09:42:07.001Z</time></trkpt><trkpt lat="44.487883789884805" lon="9.13060126600787"><ele>621.0</ele><time>2026-05-01T09:42:08.001Z</time></trkpt><trkpt lat="44.48770692601222" lon="9.130488492151244"><ele>621.0</ele><time>2026-05-01T09:42:09.001Z</time></trkpt><trkpt lat="44.487529325538844" lon="9.130364277391163"><ele>621.0</ele><time>2026-05-01T09:42:10.001Z</time></trkpt><trkpt lat="44.48734253593405" lon="9.130229899347844"><ele>621.0</ele><time>2026-05-01T09:42:11.001Z</time></trkpt><trkpt lat="44.48715169991519" lon="9.130102553990515"><ele>620.6666666666666</ele><time>2026-05-01T09:42:12.001Z</time></trkpt><trkpt lat="44.48695945009138" lon="9.129975590653832"><ele>620.3333333333333</ele><time>2026-05-01T09:42:13.001Z</time></trkpt><trkpt lat="44.48676653489624" lon="9.1298459926717"><ele>620.0</ele><time>2026-05-01T09:42:14.001Z</time></trkpt><trkpt lat="44.48657447811332" lon="9.129719083744014"><ele>620.0</ele><time>2026-05-01T09:42:15.001Z</time></trkpt><trkpt lat="44.486385972126044" lon="9.129590510929676"><ele>620.0</ele><time>2026-05-01T09:42:16.001Z</time></trkpt><trkpt lat="44.48621292836603" lon="9.129445152149898"><ele>620.0</ele><time>2026-05-01T09:42:17.001Z</time></trkpt><trkpt lat="44.48606154668555" lon="9.129272155067499"><ele>623.6666666666666</ele><time>2026-05-01T09:42:18.001Z</time></trkpt><trkpt lat="44.485920358343705" lon="9.129069321083447"><ele>627.3333333333334</ele><time>2026-05-01T09:42:19.001Z</time></trkpt><trkpt lat="44.485802682339106" lon="9.12883315779644"><ele>631.0</ele><time>2026-05-01T09:42:20.001Z</time></trkpt><trkpt lat="44.48567481639993" lon="9.128590083899454"><ele>631.0</ele><time>2026-05-01T09:42:21.001Z</time></trkpt><trkpt lat="44.48552750710606" lon="9.12835080765108"><ele>631.0</ele><time>2026-05-01T09:42:22.001Z</time></trkpt><trkpt lat="44.48538648235369" lon="9.128085356926121"><ele>633.0</ele><time>2026-05-01T09:42:23.001Z</time></trkpt><trkpt lat="44.48524125762906" lon="9.127825052519464"><ele>635.0</ele><time>2026-05-01T09:42:24.001Z</time></trkpt><trkpt lat="44.485086766448724" lon="9.127555481907882"><ele>632.5</ele><time>2026-05-01T09:42:25.001Z</time></trkpt><trkpt lat="44.484932362146" lon="9.127288019810743"><ele>630.0</ele><time>2026-05-01T09:42:26.001Z</time></trkpt><trkpt lat="44.48478055468693" lon="9.12702647083786"><ele>630.0</ele><time>2026-05-01T09:42:27.001Z</time></trkpt><trkpt lat="44.48463355702919" lon="9.126769397300066"><ele>630.0</ele><time>2026-05-01T09:42:28.001Z</time></trkpt><trkpt lat="44.48449260325804" lon="9.126521103404151"><ele>631.0</ele><time>2026-05-01T09:42:29.001Z</time></trkpt><trkpt lat="44.48435451560227" lon="9.126278917606252"><ele>632.0</ele><time>2026-05-01T09:42:30.001Z</time></trkpt><trkpt lat="44.48421234009987" lon="9.126039295522393"><ele>633.0</ele><time>2026-05-01T09:42:31.001Z</time></trkpt><trkpt lat="44.48406684851324" lon="9.125800243930422"><ele>631.3333333333334</ele><time>2026-05-01T09:42:32.001Z</time></trkpt><trkpt lat="44.483923566471745" lon="9.125559613020446"><ele>629.6666666666667</ele><time>2026-05-01T09:42:33.001Z</time></trkpt><trkpt lat="44.4837831896792" lon="9.12531490047365"><ele>628.0</ele><time>2026-05-01T09:42:34.001Z</time></trkpt><trkpt lat="44.483643742164624" lon="9.125067999926078"><ele>632.6666666666667</ele><time>2026-05-01T09:42:35.001Z</time></trkpt><trkpt lat="44.483505500747086" lon="9.124821345395548"><ele>637.3333333333334</ele><time>2026-05-01T09:42:36.001Z</time></trkpt><trkpt lat="44.48336519529076" lon="9.124578746723751"><ele>642.0</ele><time>2026-05-01T09:42:37.001Z</time></trkpt><trkpt lat="44.48322976284825" lon="9.124342327262799"><ele>642.0</ele><time>2026-05-01T09:42:38.001Z</time></trkpt><trkpt lat="44.48310121019501" lon="9.124121849807795"><ele>642.0</ele><time>2026-05-01T09:42:39.001Z</time></trkpt><trkpt lat="44.482974394322355" lon="9.123906754095538"><ele>642.0</ele><time>2026-05-01T09:42:40.001Z</time></trkpt><trkpt lat="44.4828408632947" lon="9.123713376938799"><ele>645.3333333333334</ele><time>2026-05-01T09:42:41.001Z</time></trkpt><trkpt lat="44.482685444611455" lon="9.123547137222557"><ele>648.6666666666667</ele><time>2026-05-01T09:42:42.001Z</time></trkpt><trkpt lat="44.48251208617103" lon="9.123403192097072"><ele>652.0</ele><time>2026-05-01T09:42:43.001Z</time></trkpt><trkpt lat="44.48232501006213" lon="9.123272435214485"><ele>652.3333333333334</ele><time>2026-05-01T09:42:44.001Z</time></trkpt><trkpt lat="44.48213878051198" lon="9.123158897704627"><ele>652.6666666666666</ele><time>2026-05-01T09:42:45.001Z</time></trkpt><trkpt lat="44.48195053568527" lon="9.123048511109728"><ele>653.0</ele><time>2026-05-01T09:42:46.001Z</time></trkpt><trkpt lat="44.481758311815334" lon="9.12293448065564"><ele>661.3333333333333</ele><time>2026-05-01T09:42:47.029Z</time></trkpt><trkpt lat="44.48157285002472" lon="9.122818902935458"><ele>669.6666666666666</ele><time>2026-05-01T09:42:48.032Z</time></trkpt><trkpt lat="44.481383841290715" lon="9.12270798351185"><ele>678.0</ele><time>2026-05-01T09:42:49.03Z</time></trkpt><trkpt lat="44.48120007311222" lon="9.122593355806098"><ele>694.0</ele><time>2026-05-01T09:42:50.019Z</time></trkpt><trkpt lat="44.48101244157079" lon="9.122480085491997"><ele>710.0</ele><time>2026-05-01T09:42:51.028Z</time></trkpt><trkpt lat="44.47034799807015" lon="9.116608999178386"><ele>679.0</ele><time>2026-05-01T09:43:40.002Z</time></trkpt><trkpt lat="44.4701962125972" lon="9.11653741581974"><ele>648.0</ele><time>2026-05-01T09:43:41.002Z</time></trkpt><trkpt lat="44.47003517546813" lon="9.116497349543657"><ele>617.0</ele><time>2026-05-01T09:43:42.002Z</time></trkpt><trkpt lat="44.46987719204689" lon="9.116456649286167"><ele>617.0</ele><time>2026-05-01T09:43:43.002Z</time></trkpt><trkpt lat="44.46971064514442" lon="9.11640042864806"><ele>617.0</ele><time>2026-05-01T09:43:44.002Z</time></trkpt><trkpt lat="44.46954896617632" lon="9.116325617618545"><ele>617.0</ele><time>2026-05-01T09:43:45.002Z</time></trkpt><trkpt lat="44.46941889005676" lon="9.116239181679049"><ele>616.8333333333333</ele><time>2026-05-01T09:43:46.002Z</time></trkpt><trkpt lat="44.46930612553507" lon="9.11615995853017"><ele>616.6666666666666</ele><time>2026-05-01T09:43:47.002Z</time></trkpt><trkpt lat="44.46922126817302" lon="9.11609358860075"><ele>616.5</ele><time>2026-05-01T09:43:48.002Z</time></trkpt><trkpt lat="44.46915868092267" lon="9.116022507534884"><ele>616.3333333333334</ele><time>2026-05-01T09:43:50.002Z</time></trkpt><trkpt lat="44.46913018188889" lon="9.115933044206256"><ele>616.1666666666667</ele><time>2026-05-01T09:43:52.002Z</time></trkpt><trkpt lat="44.469077358888775" lon="9.115858980238606"><ele>616.0</ele><time>2026-05-01T09:43:54.002Z</time></trkpt><trkpt lat="44.46900375627407" lon="9.115812118589384"><ele>616.0</ele><time>2026-05-01T09:43:57.002Z</time></trkpt></trkseg><trkseg><trkpt lat="44.4689070094998" lon="9.115783100614728"><ele>616.0</ele><time>2026-05-01T09:54:02.001Z</time></trkpt><trkpt lat="44.468816778845934" lon="9.115772069139355"><ele>616.0</ele><time>2026-05-01T09:54:05.001Z</time></trkpt><trkpt lat="44.46875201940147" lon="9.115765164454853"><ele>616.0</ele><time>2026-05-01T09:54:15.001Z</time></trkpt><trkpt lat="44.46867882126128" lon="9.115801699279755"><ele>616.0</ele><time>2026-05-01T09:54:18.001Z</time></trkpt><trkpt lat="44.468605959403185" lon="9.115816050026933"><ele>616.0</ele><time>2026-05-01T09:54:19.001Z</time></trkpt><trkpt lat="44.46851600358889" lon="9.115778938502032"><ele>616.0</ele><time>2026-05-01T09:54:20.001Z</time></trkpt><trkpt lat="44.46842483345621" lon="9.115733711954183"><ele>617.2</ele><time>2026-05-01T09:54:21.001Z</time></trkpt><trkpt lat="44.46832671590972" lon="9.115694752944515"><ele>618.4000000000001</ele><time>2026-05-01T09:54:22.001Z</time></trkpt><trkpt lat="44.46822866859611" lon="9.115654562139335"><ele>619.6</ele><time>2026-05-01T09:54:23.001Z</time></trkpt><trkpt lat="44.46812699646522" lon="9.115598462803394"><ele>620.8000000000001</ele><time>2026-05-01T09:54:24.001Z</time></trkpt><trkpt lat="44.4680300562123" lon="9.11551896226295"><ele>622.0</ele><time>2026-05-01T09:54:25.001Z</time></trkpt><trkpt lat="44.46794166842703" lon="9.115399726915802"><ele>622.0</ele><time>2026-05-01T09:54:26.001Z</time></trkpt><trkpt lat="44.467879761785774" lon="9.11526326954108"><ele>622.0</ele><time>2026-05-01T09:54:27.001Z</time></trkpt><trkpt lat="44.46785195639685" lon="9.115093901055696"><ele>622.0</ele><time>2026-05-01T09:54:28.001Z</time></trkpt><trkpt lat="44.46783134202251" lon="9.114892935191072"><ele>622.0</ele><time>2026-05-01T09:54:29.001Z</time></trkpt><trkpt lat="44.46778787560657" lon="9.114690366528398"><ele>614.0</ele><time>2026-05-01T09:54:30.001Z</time></trkpt><trkpt lat="44.467724340825605" lon="9.114478847100665"><ele>606.0</ele><time>2026-05-01T09:54:31.001Z</time></trkpt><trkpt lat="44.46762126468154" lon="9.114255982813804"><ele>598.0</ele><time>2026-05-01T09:54:32.001Z</time></trkpt><trkpt lat="44.4675041152377" lon="9.114037705370256"><ele>594.0</ele><time>2026-05-01T09:54:33.001Z</time></trkpt><trkpt lat="44.467386213529934" lon="9.113802016924518"><ele>590.0</ele><time>2026-05-01T09:54:34.001Z</time></trkpt><trkpt lat="44.4672531941086" lon="9.113530928048622"><ele>586.0</ele><time>2026-05-01T09:54:35.001Z</time></trkpt><trkpt lat="44.46712800683127" lon="9.113269328827561"><ele>591.5</ele><time>2026-05-01T09:54:36.001Z</time></trkpt><trkpt lat="44.466990118809065" lon="9.113004610257054"><ele>597.0</ele><time>2026-05-01T09:54:37.001Z</time></trkpt><trkpt lat="44.466859373267276" lon="9.112738073443102"><ele>597.0</ele><time>2026-05-01T09:54:38.001Z</time></trkpt><trkpt lat="44.46673312141761" lon="9.11249203009245"><ele>597.0</ele><time>2026-05-01T09:54:39.001Z</time></trkpt><trkpt lat="44.46662049053534" lon="9.112253332796984"><ele>597.0</ele><time>2026-05-01T09:54:40.001Z</time></trkpt><trkpt lat="44.46652542822979" lon="9.1119983766938"><ele>593.6666666666666</ele><time>2026-05-01T09:54:41.001Z</time></trkpt><trkpt lat="44.46643904296303" lon="9.111720592986439"><ele>590.3333333333333</ele><time>2026-05-01T09:54:42.001Z</time></trkpt><trkpt lat="44.4663677391583" lon="9.111438528437004"><ele>587.0</ele><time>2026-05-01T09:54:43.001Z</time></trkpt><trkpt lat="44.46630926609001" lon="9.111168511499697"><ele>590.6666666666666</ele><time>2026-05-01T09:54:44.001Z</time></trkpt><trkpt lat="44.46625117670765" lon="9.110914984344872"><ele>594.3333333333334</ele><time>2026-05-01T09:54:45.001Z</time></trkpt><trkpt lat="44.46619149350136" lon="9.110671600984091"><ele>598.0</ele><time>2026-05-01T09:54:46.001Z</time></trkpt><trkpt lat="44.46612830138268" lon="9.110439879864378"><ele>598.0</ele><time>2026-05-01T09:54:47.001Z</time></trkpt><trkpt lat="44.466068141122335" lon="9.110217345840686"><ele>598.0</ele><time>2026-05-01T09:54:48.001Z</time></trkpt><trkpt lat="44.46601706653308" lon="9.109995796246018"><ele>598.0</ele><time>2026-05-01T09:54:49.001Z</time></trkpt><trkpt lat="44.46599252360475" lon="9.109775611873557"><ele>597.6666666666667</ele><time>2026-05-01T09:54:50.001Z</time></trkpt><trkpt lat="44.46599353242371" lon="9.10955746208827"><ele>597.3333333333334</ele><time>2026-05-01T09:54:51.001Z</time></trkpt><trkpt lat="44.46602127090359" lon="9.109334273033987"><ele>597.0</ele><time>2026-05-01T09:54:52.001Z</time></trkpt><trkpt lat="44.46609879508944" lon="9.109128205119847"><ele>599.6666666666666</ele><time>2026-05-01T09:54:53.001Z</time></trkpt><trkpt lat="44.466186669520894" lon="9.108921144448935"><ele>602.3333333333333</ele><time>2026-05-01T09:54:54.001Z</time></trkpt><trkpt lat="44.466272767259795" lon="9.108712263325637"><ele>605.0</ele><time>2026-05-01T09:54:55.001Z</time></trkpt><trkpt lat="44.466376193826775" lon="9.108537290200404"><ele>592.3333333333333</ele><time>2026-05-01T09:54:56.001Z</time></trkpt><trkpt lat="44.46644687764323" lon="9.108341227342517"><ele>579.6666666666666</ele><time>2026-05-01T09:54:57.001Z</time></trkpt><trkpt lat="44.46649043391609" lon="9.108098563022898"><ele>567.0</ele><time>2026-05-01T09:54:58.001Z</time></trkpt><trkpt lat="44.466506557574185" lon="9.10784623035481"><ele>567.0</ele><time>2026-05-01T09:54:59.001Z</time></trkpt><trkpt lat="44.46650789673922" lon="9.107618845404112"><ele>567.0</ele><time>2026-05-01T09:55:00.001Z</time></trkpt><trkpt lat="44.46649815962032" lon="9.107419773570003"><ele>567.0</ele><time>2026-05-01T09:55:01.001Z</time></trkpt><trkpt lat="44.466453130433905" lon="9.107244024535895"><ele>567.0</ele><time>2026-05-01T09:55:02.001Z</time></trkpt><trkpt lat="44.46635776024919" lon="9.107102505594963"><ele>568.0</ele><time>2026-05-01T09:55:03.001Z</time></trkpt><trkpt lat="44.46622713513296" lon="9.106995781488267"><ele>569.0</ele><time>2026-05-01T09:55:04.001Z</time></trkpt><trkpt lat="44.46606286765361" lon="9.106921678319036"><ele>570.0</ele><time>2026-05-01T09:55:05.001Z</time></trkpt><trkpt lat="44.46586937591235" lon="9.10687266916579"><ele>570.0</ele><time>2026-05-01T09:55:06.001Z</time></trkpt><trkpt lat="44.46567252179886" lon="9.106821616370075"><ele>570.0</ele><time>2026-05-01T09:55:07.001Z</time></trkpt><trkpt lat="44.46552627624377" lon="9.106723558295279"><ele>570.0</ele><time>2026-05-01T09:55:08.001Z</time></trkpt><trkpt lat="44.46542057397363" lon="9.106609699485205"><ele>577.5</ele><time>2026-05-01T09:55:09.001Z</time></trkpt><trkpt lat="44.465334231732" lon="9.106456842974632"><ele>585.0</ele><time>2026-05-01T09:55:10.001Z</time></trkpt><trkpt lat="44.465275148892374" lon="9.106269532718944"><ele>592.5</ele><time>2026-05-01T09:55:11.001Z</time></trkpt><trkpt lat="44.465261927414936" lon="9.106056027531139"><ele>600.0</ele><time>2026-05-01T09:55:12.001Z</time></trkpt><trkpt lat="44.46529632282401" lon="9.10583245278206"><ele>603.6666666666666</ele><time>2026-05-01T09:55:13.001Z</time></trkpt><trkpt lat="44.46538170106626" lon="9.10562343361972"><ele>607.3333333333333</ele><time>2026-05-01T09:55:14.001Z</time></trkpt><trkpt lat="44.465503176356776" lon="9.105409682328395"><ele>611.0</ele><time>2026-05-01T09:55:15.001Z</time></trkpt><trkpt lat="44.46562063301817" lon="9.105188894182143"><ele>597.6666666666666</ele><time>2026-05-01T09:55:16.001Z</time></trkpt><trkpt lat="44.46573420107994" lon="9.105003251011077"><ele>584.3333333333334</ele><time>2026-05-01T09:55:17.001Z</time></trkpt><trkpt lat="44.46582942195226" lon="9.104825248567135"><ele>571.0</ele><time>2026-05-01T09:55:18.001Z</time></trkpt><trkpt lat="44.465907701087694" lon="9.104641799649075"><ele>571.0</ele><time>2026-05-01T09:55:19.001Z</time></trkpt><trkpt lat="44.46595695617755" lon="9.104440114847062"><ele>571.0</ele><time>2026-05-01T09:55:20.001Z</time></trkpt><trkpt lat="44.46598228250595" lon="9.104228799521348"><ele>571.0</ele><time>2026-05-01T09:55:21.001Z</time></trkpt><trkpt lat="44.46597234680885" lon="9.104011655903129"><ele>566.3333333333334</ele><time>2026-05-01T09:55:22.001Z</time></trkpt><trkpt lat="44.46592762985259" lon="9.103793902830883"><ele>561.6666666666666</ele><time>2026-05-01T09:55:23.001Z</time></trkpt><trkpt lat="44.46586180114075" lon="9.103606366480047"><ele>557.0</ele><time>2026-05-01T09:55:24.001Z</time></trkpt><trkpt lat="44.46578456702945" lon="9.103440783784363"><ele>557.0</ele><time>2026-05-01T09:55:25.001Z</time></trkpt><trkpt lat="44.465680155962616" lon="9.103310513853051"><ele>557.0</ele><time>2026-05-01T09:55:26Z</time></trkpt><trkpt lat="44.46555786021262" lon="9.103204834552612"><ele>557.0</ele><time>2026-05-01T09:55:27Z</time></trkpt><trkpt lat="44.46543316007278" lon="9.103120171485951"><ele>557.0</ele><time>2026-05-01T09:55:28Z</time></trkpt><trkpt lat="44.46531521129349" lon="9.103044962010484"><ele>557.75</ele><time>2026-05-01T09:55:29Z</time></trkpt><trkpt lat="44.4652062500602" lon="9.102964390001118"><ele>558.5</ele><time>2026-05-01T09:55:30Z</time></trkpt><trkpt lat="44.465100008745885" lon="9.102878159618001"><ele>559.25</ele><time>2026-05-01T09:55:31Z</time></trkpt><trkpt lat="44.46500320481456" lon="9.102798922342107"><ele>560.0</ele><time>2026-05-01T09:55:32Z</time></trkpt><trkpt lat="44.464904633886164" lon="9.102721665801926"><ele>560.0</ele><time>2026-05-01T09:55:33Z</time></trkpt><trkpt lat="44.46480337966922" lon="9.102648556328344"><ele>560.0</ele><time>2026-05-01T09:55:34Z</time></trkpt><trkpt lat="44.464698443528" lon="9.102569304240324"><ele>560.0</ele><time>2026-05-01T09:55:35Z</time></trkpt><trkpt lat="44.46459179405532" lon="9.102486494893904"><ele>560.0</ele><time>2026-05-01T09:55:36Z</time></trkpt><trkpt lat="44.46448633075693" lon="9.102402194037575"><ele>556.0</ele><time>2026-05-01T09:55:37Z</time></trkpt><trkpt lat="44.46437104339972" lon="9.102313681022158"><ele>552.0</ele><time>2026-05-01T09:55:38Z</time></trkpt><trkpt lat="44.46423613697102" lon="9.102214842974057"><ele>548.0</ele><time>2026-05-01T09:55:39Z</time></trkpt><trkpt lat="44.464084004501565" lon="9.102105663136095"><ele>548.0</ele><time>2026-05-01T09:55:40Z</time></trkpt><trkpt lat="44.46393012442636" lon="9.1019875919968"><ele>548.0</ele><time>2026-05-01T09:55:41Z</time></trkpt><trkpt lat="44.46377889038835" lon="9.101868104284376"><ele>548.0</ele><time>2026-05-01T09:55:42Z</time></trkpt><trkpt lat="44.46362784817931" lon="9.101760674415557"><ele>551.3333333333333</ele><time>2026-05-01T09:55:43Z</time></trkpt><trkpt lat="44.463482750142724" lon="9.101654946420961"><ele>554.6666666666666</ele><time>2026-05-01T09:55:44Z</time></trkpt><trkpt lat="44.463334171761126" lon="9.101547529152418"><ele>558.0</ele><time>2026-05-01T09:55:45Z</time></trkpt><trkpt lat="44.463191971224084" lon="9.101444365814181"><ele>557.5</ele><time>2026-05-01T09:55:46Z</time></trkpt><trkpt lat="44.463059284656936" lon="9.101343845991867"><ele>557.0</ele><time>2026-05-01T09:55:47Z</time></trkpt><trkpt lat="44.46293587028713" lon="9.101253055959459"><ele>556.5</ele><time>2026-05-01T09:55:48Z</time></trkpt><trkpt lat="44.46281164838956" lon="9.10116398070744"><ele>556.0</ele><time>2026-05-01T09:55:49Z</time></trkpt><trkpt lat="44.46268739192117" lon="9.101071666394178"><ele>556.0</ele><time>2026-05-01T09:55:50Z</time></trkpt><trkpt lat="44.462563540331985" lon="9.10098212540535"><ele>556.0</ele><time>2026-05-01T09:55:51Z</time></trkpt><trkpt lat="44.46244876259846" lon="9.100886899691522"><ele>556.0</ele><time>2026-05-01T09:55:52Z</time></trkpt><trkpt lat="44.4623245493332" lon="9.100797947091143"><ele>556.0</ele><time>2026-05-01T09:55:53Z</time></trkpt><trkpt lat="44.46219588634784" lon="9.100708940327108"><ele>556.75</ele><time>2026-05-01T09:55:54Z</time></trkpt><trkpt lat="44.46206731563834" lon="9.100612790705588"><ele>557.5</ele><time>2026-05-01T09:55:55Z</time></trkpt><trkpt lat="44.46194922472384" lon="9.100498506582657"><ele>558.25</ele><time>2026-05-01T09:55:56Z</time></trkpt><trkpt lat="44.461856463888665" lon="9.100358703711347"><ele>559.0</ele><time>2026-05-01T09:55:57Z</time></trkpt><trkpt lat="44.461792192801056" lon="9.100191148051412"><ele>559.0</ele><time>2026-05-01T09:55:58Z</time></trkpt><trkpt lat="44.46175765882221" lon="9.100000229855711"><ele>559.0</ele><time>2026-05-01T09:55:59Z</time></trkpt><trkpt lat="44.46175498739268" lon="9.099796016252332"><ele>559.0</ele><time>2026-05-01T09:56:00Z</time></trkpt><trkpt lat="44.46177127516263" lon="9.09960946675637"><ele>559.0</ele><time>2026-05-01T09:56:01Z</time></trkpt><trkpt lat="44.46177313205366" lon="9.09942353218061"><ele>555.0</ele><time>2026-05-01T09:56:02Z</time></trkpt><trkpt lat="44.461739114813035" lon="9.099246316240775"><ele>551.0</ele><time>2026-05-01T09:56:03Z</time></trkpt><trkpt lat="44.46167120126804" lon="9.099081900967347"><ele>547.0</ele><time>2026-05-01T09:56:04Z</time></trkpt><trkpt lat="44.461559144768586" lon="9.098939990532962"><ele>543.0</ele><time>2026-05-01T09:56:05Z</time></trkpt><trkpt lat="44.461420708327815" lon="9.098841959037616"><ele>544.5</ele><time>2026-05-01T09:56:06Z</time></trkpt><trkpt lat="44.46127645916363" lon="9.098786054954148"><ele>546.0</ele><time>2026-05-01T09:56:07Z</time></trkpt><trkpt lat="44.46114806422342" lon="9.098719612941025"><ele>547.5</ele><time>2026-05-01T09:56:08Z</time></trkpt><trkpt lat="44.46104064094532" lon="9.098608776943225"><ele>549.0</ele><time>2026-05-01T09:56:09Z</time></trkpt><trkpt lat="44.46095562341556" lon="9.098451968818637"><ele>549.0</ele><time>2026-05-01T09:56:10Z</time></trkpt><trkpt lat="44.460896127651694" lon="9.098267723716559"><ele>549.0</ele><time>2026-05-01T09:56:11Z</time></trkpt><trkpt lat="44.460862231867" lon="9.098075443970101"><ele>549.0</ele><time>2026-05-01T09:56:12Z</time></trkpt><trkpt lat="44.460858137617656" lon="9.097871821472049"><ele>549.0</ele><time>2026-05-01T09:56:13Z</time></trkpt><trkpt lat="44.460881284424374" lon="9.097665891780151"><ele>546.0</ele><time>2026-05-01T09:56:14Z</time></trkpt><trkpt lat="44.460927795404935" lon="9.097456920128616"><ele>543.0</ele><time>2026-05-01T09:56:15Z</time></trkpt><trkpt lat="44.46097904615359" lon="9.097245686923133"><ele>540.0</ele><time>2026-05-01T09:56:16Z</time></trkpt><trkpt lat="44.46102446200021" lon="9.097030112083145"><ele>540.0</ele><time>2026-05-01T09:56:17Z</time></trkpt><trkpt lat="44.46106317806237" lon="9.096811403223661"><ele>540.0</ele><time>2026-05-01T09:56:18Z</time></trkpt><trkpt lat="44.461088940917016" lon="9.096600962541388"><ele>540.0</ele><time>2026-05-01T09:56:19Z</time></trkpt><trkpt lat="44.46109738829099" lon="9.096397385815518"><ele>534.3333333333334</ele><time>2026-05-01T09:56:20Z</time></trkpt><trkpt lat="44.46107387783664" lon="9.096182800551773"><ele>528.6666666666667</ele><time>2026-05-01T09:56:21Z</time></trkpt><trkpt lat="44.461013819113916" lon="9.095967852377926"><ele>523.0</ele><time>2026-05-01T09:56:22Z</time></trkpt><trkpt lat="44.46093144180058" lon="9.095757746552174"><ele>516.3333333333334</ele><time>2026-05-01T09:56:23Z</time></trkpt><trkpt lat="44.46082246287265" lon="9.095564915046166"><ele>509.66666666666663</ele><time>2026-05-01T09:56:24Z</time></trkpt><trkpt lat="44.460695667704" lon="9.095381272715107"><ele>503.0</ele><time>2026-05-01T09:56:25Z</time></trkpt><trkpt lat="44.46057327444099" lon="9.095210967724201"><ele>503.0</ele><time>2026-05-01T09:56:26Z</time></trkpt><trkpt lat="44.46046349827539" lon="9.095046179451577"><ele>503.0</ele><time>2026-05-01T09:56:27Z</time></trkpt><trkpt lat="44.460368345500484" lon="9.094884992562195"><ele>503.0</ele><time>2026-05-01T09:56:28Z</time></trkpt><trkpt lat="44.460280078874945" lon="9.094744147543302"><ele>503.0</ele><time>2026-05-01T09:56:29Z</time></trkpt><trkpt lat="44.460198331014674" lon="9.094614067682171"><ele>502.75</ele><time>2026-05-01T09:56:30Z</time></trkpt><trkpt lat="44.46012156523101" lon="9.094499082066514"><ele>502.5</ele><time>2026-05-01T09:56:31Z</time></trkpt><trkpt lat="44.4600378132476" lon="9.094394752934262"><ele>502.25</ele><time>2026-05-01T09:56:32Z</time></trkpt><trkpt lat="44.45994508402941" lon="9.094308612904623"><ele>502.0</ele><time>2026-05-01T09:56:33Z</time></trkpt><trkpt lat="44.459827194675974" lon="9.094247319284841"><ele>502.0</ele><time>2026-05-01T09:56:34Z</time></trkpt><trkpt lat="44.45968816096356" lon="9.094208138922362"><ele>502.0</ele><time>2026-05-01T09:56:35Z</time></trkpt><trkpt lat="44.4595309211379" lon="9.094209963349359"><ele>502.0</ele><time>2026-05-01T09:56:36Z</time></trkpt><trkpt lat="44.459379424303705" lon="9.094209465153126"><ele>502.5</ele><time>2026-05-01T09:56:37Z</time></trkpt><trkpt lat="44.45924321649046" lon="9.094145591997036"><ele>503.0</ele><time>2026-05-01T09:56:38Z</time></trkpt><trkpt lat="44.459121661290396" lon="9.094049593113654"><ele>503.5</ele><time>2026-05-01T09:56:39Z</time></trkpt><trkpt lat="44.4589926694798" lon="9.093936703912835"><ele>504.0</ele><time>2026-05-01T09:56:40Z</time></trkpt><trkpt lat="44.45886907361713" lon="9.093827434491468"><ele>509.0</ele><time>2026-05-01T09:56:41Z</time></trkpt><trkpt lat="44.458754290095584" lon="9.093740383051351"><ele>514.0</ele><time>2026-05-01T09:56:42Z</time></trkpt><trkpt lat="44.45866331642805" lon="9.093628909407"><ele>519.0</ele><time>2026-05-01T09:56:43Z</time></trkpt><trkpt lat="44.45859559464408" lon="9.09349065816504"><ele>524.0</ele><time>2026-05-01T09:56:44Z</time></trkpt><trkpt lat="44.458560961508745" lon="9.093334865859381"><ele>523.5</ele><time>2026-05-01T09:56:45Z</time></trkpt><trkpt lat="44.4585572977645" lon="9.093166039587583"><ele>523.0</ele><time>2026-05-01T09:56:46Z</time></trkpt><trkpt lat="44.45858295679588" lon="9.092999063343392"><ele>522.5</ele><time>2026-05-01T09:56:47Z</time></trkpt><trkpt lat="44.45863800691084" lon="9.09284477021402"><ele>522.0</ele><time>2026-05-01T09:56:48Z</time></trkpt><trkpt lat="44.45872137311696" lon="9.092696388983267"><ele>513.0</ele><time>2026-05-01T09:56:49Z</time></trkpt><trkpt lat="44.45881376846775" lon="9.092535746618333"><ele>504.0</ele><time>2026-05-01T09:56:50Z</time></trkpt><trkpt lat="44.45889913826717" lon="9.092380895012116"><ele>495.0</ele><time>2026-05-01T09:56:51Z</time></trkpt><trkpt lat="44.45895907787225" lon="9.092221895598756"><ele>486.0</ele><time>2026-05-01T09:56:52Z</time></trkpt><trkpt lat="44.459002218886845" lon="9.092061247580256"><ele>486.0</ele><time>2026-05-01T09:56:53Z</time></trkpt><trkpt lat="44.45903096159332" lon="9.091882536340272"><ele>486.0</ele><time>2026-05-01T09:56:54Z</time></trkpt><trkpt lat="44.45902278356542" lon="9.091680661762243"><ele>486.0</ele><time>2026-05-01T09:56:55Z</time></trkpt><trkpt lat="44.45899837493208" lon="9.09145987988646"><ele>486.0</ele><time>2026-05-01T09:56:56Z</time></trkpt><trkpt lat="44.45895149876715" lon="9.091237693136787"><ele>481.33333333333337</ele><time>2026-05-01T09:56:57Z</time></trkpt><trkpt lat="44.45888869155424" lon="9.091022527713669"><ele>476.6666666666667</ele><time>2026-05-01T09:56:58Z</time></trkpt><trkpt lat="44.45884115292399" lon="9.090811475669858"><ele>472.0</ele><time>2026-05-01T09:56:59Z</time></trkpt><trkpt lat="44.45880419106077" lon="9.090612434740283"><ele>476.0</ele><time>2026-05-01T09:57:00Z</time></trkpt><trkpt lat="44.45876914815635" lon="9.090413312469916"><ele>480.0</ele><time>2026-05-01T09:57:01Z</time></trkpt><trkpt lat="44.458732288676316" lon="9.09022001616238"><ele>484.0</ele><time>2026-05-01T09:57:02Z</time></trkpt><trkpt lat="44.45869766692138" lon="9.090029062709151"><ele>488.0</ele><time>2026-05-01T09:57:03Z</time></trkpt><trkpt lat="44.458677678027364" lon="9.089845219447595"><ele>488.0</ele><time>2026-05-01T09:57:04Z</time></trkpt><trkpt lat="44.45869182583605" lon="9.089660959844492"><ele>488.0</ele><time>2026-05-01T09:57:05Z</time></trkpt><trkpt lat="44.458752584128916" lon="9.08949911754072"><ele>488.0</ele><time>2026-05-01T09:57:06.001Z</time></trkpt><trkpt lat="44.458780943365895" lon="9.089323962819417"><ele>488.0</ele><time>2026-05-01T09:57:07.001Z</time></trkpt><trkpt lat="44.45881371311539" lon="9.089157785351658"><ele>482.25</ele><time>2026-05-01T09:57:08.001Z</time></trkpt><trkpt lat="44.45880421718823" lon="9.088976506509267"><ele>476.5</ele><time>2026-05-01T09:57:09.001Z</time></trkpt><trkpt lat="44.45875271884933" lon="9.088796857343047"><ele>470.75</ele><time>2026-05-01T09:57:10.001Z</time></trkpt><trkpt lat="44.45867735409343" lon="9.088631832273556"><ele>465.0</ele><time>2026-05-01T09:57:11.001Z</time></trkpt><trkpt lat="44.4585767885027" lon="9.088494220656948"><ele>465.0</ele><time>2026-05-01T09:57:12.001Z</time></trkpt><trkpt lat="44.458416897727986" lon="9.088418915313323"><ele>465.0</ele><time>2026-05-01T09:57:13.001Z</time></trkpt><trkpt lat="44.458238731434" lon="9.088334229361186"><ele>465.0</ele><time>2026-05-01T09:57:14.001Z</time></trkpt><trkpt lat="44.45805637123401" lon="9.088275959316874"><ele>460.33333333333337</ele><time>2026-05-01T09:57:15.001Z</time></trkpt><trkpt lat="44.457853924630555" lon="9.088191500864285"><ele>455.6666666666667</ele><time>2026-05-01T09:57:16.001Z</time></trkpt><trkpt lat="44.45767398213541" lon="9.08811512660666"><ele>451.0</ele><time>2026-05-01T09:57:17.001Z</time></trkpt><trkpt lat="44.457515254761205" lon="9.088043503898302"><ele>451.0</ele><time>2026-05-01T09:57:18.001Z</time></trkpt><trkpt lat="44.45737561267674" lon="9.087977601877276"><ele>451.0</ele><time>2026-05-01T09:57:19.001Z</time></trkpt><trkpt lat="44.457248214690644" lon="9.087904622564121"><ele>451.0</ele><time>2026-05-01T09:57:20.001Z</time></trkpt><trkpt lat="44.45715567695366" lon="9.087780339941373"><ele>451.0</ele><time>2026-05-01T09:57:21.001Z</time></trkpt><trkpt lat="44.45705992996842" lon="9.08767339236135"><ele>449.5</ele><time>2026-05-01T09:57:22.001Z</time></trkpt><trkpt lat="44.45699754571989" lon="9.087526197102616"><ele>448.0</ele><time>2026-05-01T09:57:23.001Z</time></trkpt><trkpt lat="44.45694067872111" lon="9.087373318119948"><ele>446.5</ele><time>2026-05-01T09:57:24.001Z</time></trkpt><trkpt lat="44.45688530042763" lon="9.087209190700673"><ele>445.0</ele><time>2026-05-01T09:57:25.001Z</time></trkpt><trkpt lat="44.45681655299019" lon="9.087056675000543"><ele>445.0</ele><time>2026-05-01T09:57:26.001Z</time></trkpt><trkpt lat="44.45672653773194" lon="9.086926528874141"><ele>445.0</ele><time>2026-05-01T09:57:27.001Z</time></trkpt><trkpt lat="44.45663003654694" lon="9.0868124558668"><ele>445.0</ele><time>2026-05-01T09:57:28.001Z</time></trkpt><trkpt lat="44.456520110975326" lon="9.08671753754821"><ele>445.0</ele><time>2026-05-01T09:57:29.001Z</time></trkpt><trkpt lat="44.45639171030913" lon="9.086648043635755"><ele>448.0</ele><time>2026-05-01T09:57:30.001Z</time></trkpt><trkpt lat="44.456228555792975" lon="9.086610891234736"><ele>451.0</ele><time>2026-05-01T09:57:31.001Z</time></trkpt><trkpt lat="44.45603903435852" lon="9.08660898190579"><ele>454.0</ele><time>2026-05-01T09:57:31.999Z</time></trkpt><trkpt lat="44.45584683247664" lon="9.086615049985207"><ele>443.0</ele><time>2026-05-01T09:57:32.999Z</time></trkpt><trkpt lat="44.45565754471328" lon="9.08658058291814"><ele>432.0</ele><time>2026-05-01T09:57:33.999Z</time></trkpt><trkpt lat="44.45547998812394" lon="9.08656813907539"><ele>421.0</ele><time>2026-05-01T09:57:34.999Z</time></trkpt><trkpt lat="44.455315327794786" lon="9.086557068920113"><ele>419.0</ele><time>2026-05-01T09:57:35.999Z</time></trkpt><trkpt lat="44.45516021862126" lon="9.086545596125694"><ele>417.0</ele><time>2026-05-01T09:57:36.999Z</time></trkpt><trkpt lat="44.45500853838485" lon="9.086556044488152"><ele>415.0</ele><time>2026-05-01T09:57:37.999Z</time></trkpt><trkpt lat="44.454861180117106" lon="9.086540801469617"><ele>415.0</ele><time>2026-05-01T09:57:38.999Z</time></trkpt><trkpt lat="44.454721308808324" lon="9.086529815838603"><ele>415.0</ele><time>2026-05-01T09:57:39.999Z</time></trkpt><trkpt lat="44.45459093195242" lon="9.086521729889617"><ele>415.0</ele><time>2026-05-01T09:57:40.999Z</time></trkpt><trkpt lat="44.45447540663263" lon="9.08651091713931"><ele>415.0</ele><time>2026-05-01T09:57:41.999Z</time></trkpt><trkpt lat="44.45437354403983" lon="9.086502805104969"><ele>414.33333333333337</ele><time>2026-05-01T09:57:42.999Z</time></trkpt><trkpt lat="44.45428370904991" lon="9.086509226762667"><ele>413.6666666666667</ele><time>2026-05-01T09:57:43.999Z</time></trkpt><trkpt lat="44.45419803506137" lon="9.08654192432345"><ele>413.0</ele><time>2026-05-01T09:57:44.999Z</time></trkpt><trkpt lat="44.45412702097459" lon="9.086605929947725"><ele>412.33333333333337</ele><time>2026-05-01T09:57:45.999Z</time></trkpt><trkpt lat="44.45406646029368" lon="9.086682656167937"><ele>411.6666666666667</ele><time>2026-05-01T09:57:46.999Z</time></trkpt><trkpt lat="44.45400231863892" lon="9.08676027046994"><ele>411.0</ele><time>2026-05-01T09:57:47.999Z</time></trkpt><trkpt lat="44.453936437737816" lon="9.08683587230467"><ele>414.6666666666667</ele><time>2026-05-01T09:57:49Z</time></trkpt><trkpt lat="44.45386566931511" lon="9.086910699610826"><ele>418.33333333333337</ele><time>2026-05-01T09:57:50Z</time></trkpt><trkpt lat="44.453786913459844" lon="9.086963858948895"><ele>422.0</ele><time>2026-05-01T09:57:51Z</time></trkpt><trkpt lat="44.45370552061322" lon="9.086979999799699"><ele>425.6666666666667</ele><time>2026-05-01T09:57:52Z</time></trkpt><trkpt lat="44.45362116211347" lon="9.086971710234193"><ele>429.33333333333337</ele><time>2026-05-01T09:57:53Z</time></trkpt><trkpt lat="44.45353715317452" lon="9.086950637418337"><ele>433.0</ele><time>2026-05-01T09:57:54Z</time></trkpt><trkpt lat="44.45346164362246" lon="9.08690918185605"><ele>433.00000000000006</ele><time>2026-05-01T09:57:55Z</time></trkpt><trkpt lat="44.45339533848321" lon="9.086850073078725"><ele>433.0</ele><time>2026-05-01T09:57:56Z</time></trkpt><trkpt lat="44.453334357095684" lon="9.086781859763484"><ele>433.0</ele><time>2026-05-01T09:57:57Z</time></trkpt><trkpt lat="44.453267991879294" lon="9.0867080989667"><ele>433.0</ele><time>2026-05-01T09:57:58Z</time></trkpt><trkpt lat="44.45319554051264" lon="9.086642587428205"><ele>433.00000000000006</ele><time>2026-05-01T09:57:59Z</time></trkpt><trkpt lat="44.45311868704046" lon="9.086581370113684"><ele>433.0</ele><time>2026-05-01T09:58:00Z</time></trkpt><trkpt lat="44.45303848507914" lon="9.086531142885697"><ele>431.4</ele><time>2026-05-01T09:58:01Z</time></trkpt><trkpt lat="44.45294622128759" lon="9.086512972730521"><ele>429.79999999999995</ele><time>2026-05-01T09:58:02Z</time></trkpt><trkpt lat="44.45284547326827" lon="9.086533440818041"><ele>428.2</ele><time>2026-05-01T09:58:03Z</time></trkpt><trkpt lat="44.45273839508782" lon="9.086573781270111"><ele>426.6</ele><time>2026-05-01T09:58:04Z</time></trkpt><trkpt lat="44.45263524415746" lon="9.086641372909183"><ele>425.0</ele><time>2026-05-01T09:58:05Z</time></trkpt><trkpt lat="44.452538990974155" lon="9.086720245205948"><ele>425.0</ele><time>2026-05-01T09:58:06Z</time></trkpt><trkpt lat="44.45244681570963" lon="9.086791807560031"><ele>425.0</ele><time>2026-05-01T09:58:07Z</time></trkpt><trkpt lat="44.45235690431887" lon="9.086852335313335"><ele>425.0</ele><time>2026-05-01T09:58:08Z</time></trkpt><trkpt lat="44.45226252805596" lon="9.086879853355294"><ele>425.0</ele><time>2026-05-01T09:58:09Z</time></trkpt><trkpt lat="44.45216816464739" lon="9.086864160158065"><ele>425.0</ele><time>2026-05-01T09:58:10Z</time></trkpt><trkpt lat="44.45207583162649" lon="9.086831182469608"><ele>423.8</ele><time>2026-05-01T09:58:11Z</time></trkpt><trkpt lat="44.45199450746245" lon="9.086771832195048"><ele>422.6</ele><time>2026-05-01T09:58:12Z</time></trkpt><trkpt lat="44.45191547371841" lon="9.086693207864437"><ele>421.4</ele><time>2026-05-01T09:58:13Z</time></trkpt><trkpt lat="44.45184217221854" lon="9.08662129210421"><ele>420.2</ele><time>2026-05-01T09:58:14Z</time></trkpt><trkpt lat="44.451761346364805" lon="9.086558947636561"><ele>419.0</ele><time>2026-05-01T09:58:15Z</time></trkpt><trkpt lat="44.45167435591111" lon="9.086514601310956"><ele>418.99999999999994</ele><time>2026-05-01T09:58:16Z</time></trkpt><trkpt lat="44.451583578598104" lon="9.086497929395511"><ele>419.0</ele><time>2026-05-01T09:58:17Z</time></trkpt><trkpt lat="44.45149608482374" lon="9.086525115548914"><ele>419.0</ele><time>2026-05-01T09:58:18Z</time></trkpt><trkpt lat="44.4514129087663" lon="9.086593081330115"><ele>419.0</ele><time>2026-05-01T09:58:19Z</time></trkpt><trkpt lat="44.45133627097052" lon="9.086646028839363"><ele>418.99999999999994</ele><time>2026-05-01T09:58:21Z</time></trkpt><trkpt lat="44.45126192780862" lon="9.086681496476146"><ele>419.0</ele><time>2026-05-01T09:58:23Z</time></trkpt><trkpt lat="44.451202226899824" lon="9.086727504209371"><ele>417.8333333333333</ele><time>2026-05-01T09:58:25Z</time></trkpt><trkpt lat="44.45111031570588" lon="9.086726518021399"><ele>416.66666666666663</ele><time>2026-05-01T09:58:27Z</time></trkpt><trkpt lat="44.450994978360285" lon="9.086743983849093"><ele>415.5</ele><time>2026-05-01T09:58:29Z</time></trkpt><trkpt lat="44.45091743192217" lon="9.08675302047529"><ele>414.33333333333337</ele><time>2026-05-01T09:58:30Z</time></trkpt><trkpt lat="44.45084753740786" lon="9.086767913563126"><ele>413.1666666666667</ele><time>2026-05-01T09:58:31Z</time></trkpt><trkpt lat="44.450782386396426" lon="9.086749946445934"><ele>412.0</ele><time>2026-05-01T09:58:32Z</time></trkpt><trkpt lat="44.45071979849381" lon="9.086725491924689"><ele>412.0</ele><time>2026-05-01T09:58:33Z</time></trkpt><trkpt lat="44.45060843468249" lon="9.08668467868169"><ele>412.0</ele><time>2026-05-01T09:58:35Z</time></trkpt><trkpt lat="44.45049294878717" lon="9.086707986217295"><ele>412.0</ele><time>2026-05-01T09:58:37Z</time></trkpt><trkpt lat="44.45039068963613" lon="9.08677821590496"><ele>412.0</ele><time>2026-05-01T09:58:39Z</time></trkpt><trkpt lat="44.450293817251655" lon="9.086881409111466"><ele>410.33333333333337</ele><time>2026-05-01T09:58:41Z</time></trkpt><trkpt lat="44.4502226160052" lon="9.0869100662343"><ele>408.6666666666667</ele><time>2026-05-01T09:58:42Z</time></trkpt><trkpt lat="44.450143929355576" lon="9.086925656434534"><ele>407.0</ele><time>2026-05-01T09:58:43Z</time></trkpt><trkpt lat="44.450065134804014" lon="9.086933435811574"><ele>405.33333333333337</ele><time>2026-05-01T09:58:44Z</time></trkpt><trkpt lat="44.44997724943562" lon="9.0869397806689"><ele>403.6666666666667</ele><time>2026-05-01T09:58:45Z</time></trkpt><trkpt lat="44.44988442976659" lon="9.086943033422441"><ele>402.0</ele><time>2026-05-01T09:58:46Z</time></trkpt><trkpt lat="44.44979053069376" lon="9.08694242924249"><ele>402.0</ele><time>2026-05-01T09:58:47Z</time></trkpt><trkpt lat="44.44970282375246" lon="9.086937987655432"><ele>402.0</ele><time>2026-05-01T09:58:48Z</time></trkpt><trkpt lat="44.44961906987079" lon="9.086935058294976"><ele>402.0</ele><time>2026-05-01T09:58:49Z</time></trkpt><trkpt lat="44.44952395450547" lon="9.086926786103938"><ele>402.0</ele><time>2026-05-01T09:58:50Z</time></trkpt><trkpt lat="44.449424473779445" lon="9.08690506717172"><ele>402.0</ele><time>2026-05-01T09:58:51Z</time></trkpt><trkpt lat="44.4493322530718" lon="9.086869739969226"><ele>401.40000000000003</ele><time>2026-05-01T09:58:52Z</time></trkpt><trkpt lat="44.44924127603217" lon="9.086830477767338"><ele>400.8</ele><time>2026-05-01T09:58:53Z</time></trkpt><trkpt lat="44.449151513076174" lon="9.086785891092475"><ele>400.2</ele><time>2026-05-01T09:58:54Z</time></trkpt><trkpt lat="44.449055283916096" lon="9.086747470796622"><ele>399.6</ele><time>2026-05-01T09:58:55Z</time></trkpt><trkpt lat="44.44895515899517" lon="9.086720321228173"><ele>399.0</ele><time>2026-05-01T09:58:56Z</time></trkpt><trkpt lat="44.44884887937816" lon="9.086718915161004"><ele>397.0</ele><time>2026-05-01T09:58:57Z</time></trkpt><trkpt lat="44.44873494833499" lon="9.086729694997052"><ele>395.0</ele><time>2026-05-01T09:58:58Z</time></trkpt><trkpt lat="44.44862806517468" lon="9.086751247394336"><ele>393.0</ele><time>2026-05-01T09:58:59Z</time></trkpt><trkpt lat="44.44850823951692" lon="9.086799561870379"><ele>391.0</ele><time>2026-05-01T09:59:00Z</time></trkpt><trkpt lat="44.448350672365" lon="9.086871882710701"><ele>391.0</ele><time>2026-05-01T09:59:01Z</time></trkpt><trkpt lat="44.448184016398905" lon="9.086946924871713"><ele>391.0</ele><time>2026-05-01T09:59:02Z</time></trkpt><trkpt lat="44.44803954531741" lon="9.087032837971387"><ele>391.0</ele><time>2026-05-01T09:59:03Z</time></trkpt><trkpt lat="44.44790176849538" lon="9.087081049909509"><ele>389.0</ele><time>2026-05-01T09:59:04Z</time></trkpt><trkpt lat="44.44777620188359" lon="9.087144152931845"><ele>387.0</ele><time>2026-05-01T09:59:05Z</time></trkpt><trkpt lat="44.44765226282619" lon="9.087241451910929"><ele>385.0</ele><time>2026-05-01T09:59:06Z</time></trkpt><trkpt lat="44.44753419901028" lon="9.08738449721941"><ele>383.0</ele><time>2026-05-01T09:59:07Z</time></trkpt><trkpt lat="44.447419508324266" lon="9.08753145150771"><ele>383.0</ele><time>2026-05-01T09:59:08Z</time></trkpt><trkpt lat="44.44731311650355" lon="9.087667418162045"><ele>383.0</ele><time>2026-05-01T09:59:09Z</time></trkpt><trkpt lat="44.44720675670098" lon="9.087797442277273"><ele>383.0</ele><time>2026-05-01T09:59:10Z</time></trkpt><trkpt lat="44.44709680618803" lon="9.087929405301036"><ele>383.0</ele><time>2026-05-01T09:59:11Z</time></trkpt><trkpt lat="44.44699049958201" lon="9.088055731161417"><ele>382.25</ele><time>2026-05-01T09:59:12Z</time></trkpt><trkpt lat="44.446889982939304" lon="9.088171122281121"><ele>381.5</ele><time>2026-05-01T09:59:13Z</time></trkpt><trkpt lat="44.44678961281439" lon="9.088273368254049"><ele>380.75</ele><time>2026-05-01T09:59:14Z</time></trkpt><trkpt lat="44.44668910925764" lon="9.088361412061172"><ele>380.0</ele><time>2026-05-01T09:59:15Z</time></trkpt><trkpt lat="44.44658767334679" lon="9.08844364460949"><ele>380.0</ele><time>2026-05-01T09:59:16Z</time></trkpt><trkpt lat="44.446479699682214" lon="9.088524545690456"><ele>380.0</ele><time>2026-05-01T09:59:17Z</time></trkpt><trkpt lat="44.446372698878626" lon="9.088608056869846"><ele>380.0</ele><time>2026-05-01T09:59:18Z</time></trkpt><trkpt lat="44.446269713040024" lon="9.088692796055737"><ele>380.0</ele><time>2026-05-01T09:59:19Z</time></trkpt><trkpt lat="44.446167178388414" lon="9.088773931031922"><ele>375.75</ele><time>2026-05-01T09:59:20Z</time></trkpt><trkpt lat="44.446067624362534" lon="9.088856253437692"><ele>371.5</ele><time>2026-05-01T09:59:21Z</time></trkpt><trkpt lat="44.44596700767884" lon="9.088929603343617"><ele>367.25</ele><time>2026-05-01T09:59:22Z</time></trkpt><trkpt lat="44.445863300843214" lon="9.088995413758502"><ele>363.0</ele><time>2026-05-01T09:59:23Z</time></trkpt><trkpt lat="44.44575048746224" lon="9.089043791346233"><ele>363.0</ele><time>2026-05-01T09:59:24Z</time></trkpt><trkpt lat="44.445626630570125" lon="9.089064631828455"><ele>363.0</ele><time>2026-05-01T09:59:25Z</time></trkpt><trkpt lat="44.445504447077596" lon="9.089045806085588"><ele>363.0</ele><time>2026-05-01T09:59:26Z</time></trkpt><trkpt lat="44.445378869286245" lon="9.088990320539626"><ele>363.0</ele><time>2026-05-01T09:59:27Z</time></trkpt><trkpt lat="44.44526031420569" lon="9.088904658980992"><ele>362.75</ele><time>2026-05-01T09:59:28Z</time></trkpt><trkpt lat="44.445153713717794" lon="9.088816135308825"><ele>362.5</ele><time>2026-05-01T09:59:29Z</time></trkpt><trkpt lat="44.445055296275065" lon="9.088724191451858"><ele>362.25</ele><time>2026-05-01T09:59:30Z</time></trkpt><trkpt lat="44.444963617670155" lon="9.088636680258105"><ele>362.0</ele><time>2026-05-01T09:59:31Z</time></trkpt><trkpt lat="44.44487856008109" lon="9.088560987756345"><ele>362.0</ele><time>2026-05-01T09:59:32Z</time></trkpt><trkpt lat="44.44479403486857" lon="9.088483452531257"><ele>362.0</ele><time>2026-05-01T09:59:33.001Z</time></trkpt><trkpt lat="44.44470319094069" lon="9.088436159994282"><ele>362.0</ele><time>2026-05-01T09:59:34.001Z</time></trkpt><trkpt lat="44.444611343711514" lon="9.088428956173185"><ele>362.0</ele><time>2026-05-01T09:59:35.001Z</time></trkpt><trkpt lat="44.44452024232987" lon="9.088462840255852"><ele>362.0</ele><time>2026-05-01T09:59:36.001Z</time></trkpt><trkpt lat="44.444437954900806" lon="9.088544074199133"><ele>358.25</ele><time>2026-05-01T09:59:37.001Z</time></trkpt><trkpt lat="44.44434748730738" lon="9.088655944481989"><ele>354.5</ele><time>2026-05-01T09:59:37.999Z</time></trkpt><trkpt lat="44.44425630373328" lon="9.088784253208907"><ele>350.75</ele><time>2026-05-01T09:59:38.999Z</time></trkpt><trkpt lat="44.44416710027463" lon="9.088905370170735"><ele>347.0</ele><time>2026-05-01T09:59:39.999Z</time></trkpt><trkpt lat="44.44408754603722" lon="9.089014295951294"><ele>350.0</ele><time>2026-05-01T09:59:40.999Z</time></trkpt><trkpt lat="44.444014855784395" lon="9.089118662922983"><ele>353.0</ele><time>2026-05-01T09:59:41.999Z</time></trkpt><trkpt lat="44.44395926058085" lon="9.08924164306586"><ele>356.0</ele><time>2026-05-01T09:59:42.999Z</time></trkpt><trkpt lat="44.44392309219788" lon="9.08939215804791"><ele>359.0</ele><time>2026-05-01T09:59:43.999Z</time></trkpt><trkpt lat="44.443903735135756" lon="9.089551201574507"><ele>362.0</ele><time>2026-05-01T09:59:44.999Z</time></trkpt><trkpt lat="44.44389942105463" lon="9.08970747968642"><ele>362.0</ele><time>2026-05-01T09:59:45.999Z</time></trkpt><trkpt lat="44.44389200010042" lon="9.089852034019458"><ele>362.0</ele><time>2026-05-01T09:59:46.999Z</time></trkpt><trkpt lat="44.44385894950009" lon="9.089997510343501"><ele>362.0</ele><time>2026-05-01T09:59:47.999Z</time></trkpt><trkpt lat="44.443794389826465" lon="9.090141822059191"><ele>362.0</ele><time>2026-05-01T09:59:48.999Z</time></trkpt><trkpt lat="44.443719892752874" lon="9.09029100980248"><ele>358.25</ele><time>2026-05-01T09:59:49.999Z</time></trkpt><trkpt lat="44.44365307363512" lon="9.09045131616788"><ele>354.5</ele><time>2026-05-01T09:59:50.999Z</time></trkpt><trkpt lat="44.44359193792837" lon="9.090613771263394"><ele>350.75</ele><time>2026-05-01T09:59:51.999Z</time></trkpt><trkpt lat="44.44353216540724" lon="9.090768752948751"><ele>347.0</ele><time>2026-05-01T09:59:52.999Z</time></trkpt><trkpt lat="44.44347525915434" lon="9.090915344318525"><ele>347.0</ele><time>2026-05-01T09:59:53.999Z</time></trkpt><trkpt lat="44.44341705409552" lon="9.09104466235438"><ele>347.0</ele><time>2026-05-01T09:59:54.999Z</time></trkpt><trkpt lat="44.44336526263532" lon="9.091166307175227"><ele>347.0</ele><time>2026-05-01T09:59:55.999Z</time></trkpt><trkpt lat="44.443303746961405" lon="9.09125489733106"><ele>347.0</ele><time>2026-05-01T09:59:56.999Z</time></trkpt><trkpt lat="44.4432339184174" lon="9.091292394666208"><ele>347.0</ele><time>2026-05-01T09:59:57.999Z</time></trkpt><trkpt lat="44.44315124476839" lon="9.091352383835906"><ele>347.0</ele><time>2026-05-01T10:00:00Z</time></trkpt><trkpt lat="44.443059246237304" lon="9.091399549066331"><ele>347.0</ele><time>2026-05-01T10:00:02Z</time></trkpt><trkpt lat="44.44297140305142" lon="9.09142829739375"><ele>347.0</ele><time>2026-05-01T10:00:04Z</time></trkpt><trkpt lat="44.44290164136801" lon="9.091478305825596"><ele>347.0</ele><time>2026-05-01T10:00:06Z</time></trkpt><trkpt lat="44.44278999544769" lon="9.091483711026326"><ele>347.0</ele><time>2026-05-01T10:00:08Z</time></trkpt><trkpt lat="44.442691873472384" lon="9.091425583352404"><ele>347.20000000000005</ele><time>2026-05-01T10:00:10Z</time></trkpt><trkpt lat="44.44261024565739" lon="9.091366318557931"><ele>347.4</ele><time>2026-05-01T10:00:12Z</time></trkpt><trkpt lat="44.44250287771539" lon="9.09146142857441"><ele>347.6</ele><time>2026-05-01T10:00:14Z</time></trkpt><trkpt lat="44.44246343213965" lon="9.091548694256753"><ele>347.79999999999995</ele><time>2026-05-01T10:00:15Z</time></trkpt><trkpt lat="44.44243407578264" lon="9.091659946568427"><ele>348.0</ele><time>2026-05-01T10:00:16Z</time></trkpt><trkpt lat="44.442400960641066" lon="9.091803114671537"><ele>350.25</ele><time>2026-05-01T10:00:17Z</time></trkpt><trkpt lat="44.44235982320406" lon="9.091972560586436"><ele>352.5</ele><time>2026-05-01T10:00:18Z</time></trkpt><trkpt lat="44.44231130992707" lon="9.092140503988164"><ele>354.75</ele><time>2026-05-01T10:00:19Z</time></trkpt><trkpt lat="44.442255266538005" lon="9.092305037395349"><ele>357.0</ele><time>2026-05-01T10:00:20Z</time></trkpt><trkpt lat="44.44219679855545" lon="9.09246885246621"><ele>359.0</ele><time>2026-05-01T10:00:21Z</time></trkpt><trkpt lat="44.44214603821888" lon="9.092615555584414"><ele>361.0</ele><time>2026-05-01T10:00:22Z</time></trkpt><trkpt lat="44.44210493318961" lon="9.092746884933236"><ele>363.0</ele><time>2026-05-01T10:00:23Z</time></trkpt><trkpt lat="44.442060135674865" lon="9.092879231878518"><ele>365.0</ele><time>2026-05-01T10:00:24Z</time></trkpt><trkpt lat="44.44202108698345" lon="9.09302067273217"><ele>367.0</ele><time>2026-05-01T10:00:25Z</time></trkpt><trkpt lat="44.441945501300964" lon="9.093144797153382"><ele>383.0</ele><time>2026-05-01T10:00:26Z</time></trkpt><trkpt lat="44.4418909953453" lon="9.093281749905742"><ele>399.0</ele><time>2026-05-01T10:00:27.024Z</time></trkpt><trkpt lat="44.44183650390855" lon="9.093423790442277"><ele>415.0</ele><time>2026-05-01T10:00:28.025Z</time></trkpt><trkpt lat="44.44177969888831" lon="9.093568354853323"><ele>431.0</ele><time>2026-05-01T10:00:29.023Z</time></trkpt><trkpt lat="44.44172258829475" lon="9.09370303496825"><ele>431.0</ele><time>2026-05-01T10:00:30.017Z</time></trkpt><trkpt lat="44.44167362889131" lon="9.093838326592522"><ele>431.0</ele><time>2026-05-01T10:00:31.022Z</time></trkpt><trkpt lat="44.44162218501305" lon="9.093976524262057"><ele>431.0</ele><time>2026-05-01T10:00:32.032Z</time></trkpt><trkpt lat="44.44157033423929" lon="9.09411015842915"><ele>431.0</ele><time>2026-05-01T10:00:33.024Z</time></trkpt><trkpt lat="44.44082625889171" lon="9.096665744760585"><ele>453.0</ele><time>2026-05-01T10:00:36.158Z</time></trkpt><trkpt lat="44.441509035754315" lon="9.094221735163345"><ele>358.0</ele><time>2026-05-01T10:00:48.506Z</time></trkpt><trkpt lat="44.43440220788534" lon="9.116188902416374"><ele>358.0</ele><time>2026-05-01T10:03:00.002Z</time></trkpt><trkpt lat="44.43434337023117" lon="9.11632783293852"><ele>358.0</ele><time>2026-05-01T10:03:01.002Z</time></trkpt><trkpt lat="44.43433179039022" lon="9.116460437971284"><ele>358.0</ele><time>2026-05-01T10:03:02.002Z</time></trkpt><trkpt lat="44.43430622758779" lon="9.11664009668794"><ele>358.0</ele><time>2026-05-01T10:03:03.002Z</time></trkpt><trkpt lat="44.434289534880776" lon="9.116830302751785"><ele>351.66666666666663</ele><time>2026-05-01T10:03:04.002Z</time></trkpt><trkpt lat="44.4342936842868" lon="9.117045453402827"><ele>345.3333333333333</ele><time>2026-05-01T10:03:05.002Z</time></trkpt><trkpt lat="44.434309659157925" lon="9.117270091068596"><ele>339.0</ele><time>2026-05-01T10:03:06Z</time></trkpt><trkpt lat="44.43433361724101" lon="9.117502828937965"><ele>338.0</ele><time>2026-05-01T10:03:07Z</time></trkpt><trkpt lat="44.43437474122353" lon="9.117738257677603"><ele>337.0</ele><time>2026-05-01T10:03:08Z</time></trkpt><trkpt lat="44.434435642543725" lon="9.117986845967009"><ele>336.0</ele><time>2026-05-01T10:03:09Z</time></trkpt><trkpt lat="44.43451976427371" lon="9.118239120129726"><ele>332.0</ele><time>2026-05-01T10:03:10Z</time></trkpt><trkpt lat="44.43461392392422" lon="9.118465977730185"><ele>328.0</ele><time>2026-05-01T10:03:11Z</time></trkpt><trkpt lat="44.43471852781943" lon="9.118664176815207"><ele>324.0</ele><time>2026-05-01T10:03:12Z</time></trkpt><trkpt lat="44.43483225056326" lon="9.118843090023764"><ele>326.0</ele><time>2026-05-01T10:03:13Z</time></trkpt><trkpt lat="44.43496301231961" lon="9.119016340311727"><ele>328.0</ele><time>2026-05-01T10:03:14Z</time></trkpt><trkpt lat="44.43511492820433" lon="9.119204983209318"><ele>330.0</ele><time>2026-05-01T10:03:15Z</time></trkpt><trkpt lat="44.43527702732987" lon="9.119404625283625"><ele>330.0</ele><time>2026-05-01T10:03:16Z</time></trkpt><trkpt lat="44.435465663216114" lon="9.119636165692908"><ele>330.0</ele><time>2026-05-01T10:03:17Z</time></trkpt><trkpt lat="44.43566503592107" lon="9.11988407965842"><ele>329.5</ele><time>2026-05-01T10:03:18Z</time></trkpt><trkpt lat="44.43585569271308" lon="9.120129437101456"><ele>329.0</ele><time>2026-05-01T10:03:19Z</time></trkpt><trkpt lat="44.436032273798425" lon="9.120358815630814"><ele>329.0</ele><time>2026-05-01T10:03:20Z</time></trkpt><trkpt lat="44.43619885542995" lon="9.120565048931631"><ele>329.0</ele><time>2026-05-01T10:03:21Z</time></trkpt><trkpt lat="44.43636834424885" lon="9.120776262749986"><ele>329.0</ele><time>2026-05-01T10:03:22Z</time></trkpt><trkpt lat="44.43652903852455" lon="9.120980865523507"><ele>329.6666666666667</ele><time>2026-05-01T10:03:23Z</time></trkpt><trkpt lat="44.43668515054268" lon="9.121179641413063"><ele>330.3333333333333</ele><time>2026-05-01T10:03:24Z</time></trkpt><trkpt lat="44.43683490779689" lon="9.121384069154676"><ele>331.0</ele><time>2026-05-01T10:03:25Z</time></trkpt><trkpt lat="44.4369711254664" lon="9.121619205564985"><ele>331.0</ele><time>2026-05-01T10:03:26Z</time></trkpt><trkpt lat="44.4370742228549" lon="9.121879253475642"><ele>331.0</ele><time>2026-05-01T10:03:27Z</time></trkpt><trkpt lat="44.437147780770545" lon="9.12215340181698"><ele>331.0</ele><time>2026-05-01T10:03:28Z</time></trkpt><trkpt lat="44.4371945799656" lon="9.122456454930628"><ele>326.5</ele><time>2026-05-01T10:03:29Z</time></trkpt><trkpt lat="44.437222690828094" lon="9.122790074003317"><ele>322.0</ele><time>2026-05-01T10:03:30Z</time></trkpt><trkpt lat="44.437242192803396" lon="9.123154925865343"><ele>321.5</ele><time>2026-05-01T10:03:31Z</time></trkpt><trkpt lat="44.43725784261157" lon="9.12353263726534"><ele>321.0</ele><time>2026-05-01T10:03:32Z</time></trkpt><trkpt lat="44.43727204548862" lon="9.123908762754889"><ele>321.5</ele><time>2026-05-01T10:03:33Z</time></trkpt><trkpt lat="44.437288105846115" lon="9.124282958429662"><ele>322.0</ele><time>2026-05-01T10:03:34Z</time></trkpt><trkpt lat="44.437309666043475" lon="9.124654107208064"><ele>320.0</ele><time>2026-05-01T10:03:35Z</time></trkpt><trkpt lat="44.43733012920349" lon="9.12502247887498"><ele>318.0</ele><time>2026-05-01T10:03:36Z</time></trkpt><trkpt lat="44.43735066318175" lon="9.125395439937606"><ele>309.0</ele><time>2026-05-01T10:03:37Z</time></trkpt><trkpt lat="44.43736650571349" lon="9.125755908962535"><ele>300.0</ele><time>2026-05-01T10:03:38Z</time></trkpt><trkpt lat="44.43739214543487" lon="9.126121562801897"><ele>300.0</ele><time>2026-05-01T10:03:39Z</time></trkpt><trkpt lat="44.43742118397512" lon="9.126482656290069"><ele>300.0</ele><time>2026-05-01T10:03:40Z</time></trkpt><trkpt lat="44.437455114042635" lon="9.126846813210157"><ele>298.0</ele><time>2026-05-01T10:03:41Z</time></trkpt><trkpt lat="44.43750333226628" lon="9.127216436253555"><ele>296.0</ele><time>2026-05-01T10:03:42Z</time></trkpt><trkpt lat="44.43757003366999" lon="9.127587266754562"><ele>293.0</ele><time>2026-05-01T10:03:43Z</time></trkpt><trkpt lat="44.43764776435209" lon="9.127962969664146"><ele>290.0</ele><time>2026-05-01T10:03:44Z</time></trkpt><trkpt lat="44.43773150643849" lon="9.128356718558157"><ele>286.0</ele><time>2026-05-01T10:03:45Z</time></trkpt><trkpt lat="44.43781413412079" lon="9.12877065202302"><ele>282.0</ele><time>2026-05-01T10:03:46Z</time></trkpt><trkpt lat="44.43789217661732" lon="9.129170093259342"><ele>285.0</ele><time>2026-05-01T10:03:47Z</time></trkpt><trkpt lat="44.4379770166294" lon="9.12956044253044"><ele>288.0</ele><time>2026-05-01T10:03:48Z</time></trkpt><trkpt lat="44.43806884566183" lon="9.129941426413188"><ele>288.0</ele><time>2026-05-01T10:03:49Z</time></trkpt><trkpt lat="44.43815645549057" lon="9.130317554770853"><ele>288.0</ele><time>2026-05-01T10:03:50Z</time></trkpt><trkpt lat="44.438246128502925" lon="9.130680742960777"><ele>281.0</ele><time>2026-05-01T10:03:51Z</time></trkpt><trkpt lat="44.43840241149612" lon="9.13100647872712"><ele>274.0</ele><time>2026-05-01T10:03:52Z</time></trkpt><trkpt lat="44.4385191575193" lon="9.13135000223488"><ele>268.0</ele><time>2026-05-01T10:03:53Z</time></trkpt><trkpt lat="44.43864283479755" lon="9.131694889875392"><ele>262.0</ele><time>2026-05-01T10:03:54Z</time></trkpt><trkpt lat="44.43878918231574" lon="9.132024349574767"><ele>265.5</ele><time>2026-05-01T10:03:55Z</time></trkpt><trkpt lat="44.43895277283226" lon="9.132342024323561"><ele>269.0</ele><time>2026-05-01T10:03:56Z</time></trkpt><trkpt lat="44.43912104288851" lon="9.13265389686515"><ele>269.0</ele><time>2026-05-01T10:03:57Z</time></trkpt><trkpt lat="44.43929547482796" lon="9.132965393229279"><ele>269.0</ele><time>2026-05-01T10:03:58Z</time></trkpt><trkpt lat="44.43946383116735" lon="9.13327378684052"><ele>267.0</ele><time>2026-05-01T10:03:59Z</time></trkpt><trkpt lat="44.43962722072942" lon="9.133584442302032"><ele>265.0</ele><time>2026-05-01T10:04:00Z</time></trkpt><trkpt lat="44.43978092293755" lon="9.133900081747916"><ele>264.0</ele><time>2026-05-01T10:04:01.001Z</time></trkpt><trkpt lat="44.4399349879767" lon="9.134220560372198"><ele>263.0</ele><time>2026-05-01T10:04:02.001Z</time></trkpt><trkpt lat="44.440081207695776" lon="9.134542451664954"><ele>263.0</ele><time>2026-05-01T10:04:03.001Z</time></trkpt><trkpt lat="44.44021518113207" lon="9.1348709441495"><ele>263.0</ele><time>2026-05-01T10:04:04.001Z</time></trkpt><trkpt lat="44.4403532533066" lon="9.135193401993309"><ele>264.0</ele><time>2026-05-01T10:04:05.001Z</time></trkpt><trkpt lat="44.44047007844863" lon="9.135499030103075"><ele>265.0</ele><time>2026-05-01T10:04:06.001Z</time></trkpt><trkpt lat="44.440580798086735" lon="9.135795034746272"><ele>256.5</ele><time>2026-05-01T10:04:07.001Z</time></trkpt><trkpt lat="44.44070040226542" lon="9.13608435935735"><ele>248.0</ele><time>2026-05-01T10:04:08.001Z</time></trkpt><trkpt lat="44.44080142986508" lon="9.136372582077483"><ele>247.0</ele><time>2026-05-01T10:04:09.001Z</time></trkpt><trkpt lat="44.44090256664903" lon="9.136643283134013"><ele>246.0</ele><time>2026-05-01T10:04:10.001Z</time></trkpt><trkpt lat="44.44100585586099" lon="9.136900855506607"><ele>245.0</ele><time>2026-05-01T10:04:11.001Z</time></trkpt><trkpt lat="44.44110521593429" lon="9.137144106690116"><ele>245.0</ele><time>2026-05-01T10:04:12.001Z</time></trkpt><trkpt lat="44.44119681845429" lon="9.137384773962724"><ele>245.0</ele><time>2026-05-01T10:04:13.001Z</time></trkpt><trkpt lat="44.44128559742012" lon="9.137611375492865"><ele>245.0</ele><time>2026-05-01T10:04:14.001Z</time></trkpt><trkpt lat="44.441367628164365" lon="9.137831762432421"><ele>241.0</ele><time>2026-05-01T10:04:15.001Z</time></trkpt><trkpt lat="44.44144435887722" lon="9.138043385458415"><ele>237.0</ele><time>2026-05-01T10:04:16.001Z</time></trkpt><trkpt lat="44.4415164337167" lon="9.138247991149166"><ele>233.0</ele><time>2026-05-01T10:04:17.001Z</time></trkpt><trkpt lat="44.44156295941937" lon="9.138472056342957"><ele>232.66666666666669</ele><time>2026-05-01T10:04:18.001Z</time></trkpt><trkpt lat="44.44158167685885" lon="9.138706250334204"><ele>232.33333333333331</ele><time>2026-05-01T10:04:19.001Z</time></trkpt><trkpt lat="44.44158584302168" lon="9.138939699340499"><ele>232.0</ele><time>2026-05-01T10:04:20.001Z</time></trkpt><trkpt lat="44.44157529249128" lon="9.139159566343569"><ele>232.66666666666666</ele><time>2026-05-01T10:04:21.001Z</time></trkpt><trkpt lat="44.441554626028605" lon="9.139380685928847"><ele>233.33333333333331</ele><time>2026-05-01T10:04:22.001Z</time></trkpt><trkpt lat="44.44151157530629" lon="9.139624805998865"><ele>234.0</ele><time>2026-05-01T10:04:23.001Z</time></trkpt><trkpt lat="44.441455962794386" lon="9.1398687872826"><ele>233.0</ele><time>2026-05-01T10:04:24.001Z</time></trkpt><trkpt lat="44.44142423869254" lon="9.140119094004973"><ele>232.0</ele><time>2026-05-01T10:04:25.001Z</time></trkpt><trkpt lat="44.44144222472137" lon="9.140404973649263"><ele>231.0</ele><time>2026-05-01T10:04:26.001Z</time></trkpt><trkpt lat="44.44150010659433" lon="9.14069498018299"><ele>230.33333333333331</ele><time>2026-05-01T10:04:27.001Z</time></trkpt><trkpt lat="44.44157532965651" lon="9.14095233910359"><ele>229.66666666666666</ele><time>2026-05-01T10:04:28.001Z</time></trkpt><trkpt lat="44.44163340868435" lon="9.141162708984453"><ele>229.0</ele><time>2026-05-01T10:04:29.001Z</time></trkpt><trkpt lat="44.44164931467941" lon="9.141337206730734"><ele>229.0</ele><time>2026-05-01T10:04:30.001Z</time></trkpt><trkpt lat="44.44162504272646" lon="9.141487626303899"><ele>229.0</ele><time>2026-05-01T10:04:31.001Z</time></trkpt><trkpt lat="44.44155860227139" lon="9.141637476682027"><ele>229.0</ele><time>2026-05-01T10:04:32.001Z</time></trkpt><trkpt lat="44.44145344732432" lon="9.141761020146415"><ele>229.0</ele><time>2026-05-01T10:04:33.001Z</time></trkpt><trkpt lat="44.44131893950554" lon="9.141856500654912"><ele>232.33333333333331</ele><time>2026-05-01T10:04:34.001Z</time></trkpt><trkpt lat="44.44115634847563" lon="9.141955153052198"><ele>235.66666666666669</ele><time>2026-05-01T10:04:35.001Z</time></trkpt><trkpt lat="44.44098152873892" lon="9.142063992585951"><ele>239.0</ele><time>2026-05-01T10:04:36.001Z</time></trkpt><trkpt lat="44.44080642130251" lon="9.142188314255181"><ele>239.0</ele><time>2026-05-01T10:04:37.001Z</time></trkpt><trkpt lat="44.44063220315021" lon="9.142315020959238"><ele>239.0</ele><time>2026-05-01T10:04:38.001Z</time></trkpt><trkpt lat="44.44044170023742" lon="9.14245221443127"><ele>239.0</ele><time>2026-05-01T10:04:39.001Z</time></trkpt><trkpt lat="44.440264011572225" lon="9.142571677928501"><ele>240.33333333333334</ele><time>2026-05-01T10:04:40.001Z</time></trkpt><trkpt lat="44.44010411665801" lon="9.142677892275868"><ele>241.66666666666669</ele><time>2026-05-01T10:04:41.001Z</time></trkpt><trkpt lat="44.43994588225153" lon="9.142806372885772"><ele>243.0</ele><time>2026-05-01T10:04:42.001Z</time></trkpt><trkpt lat="44.43979402780051" lon="9.142984476719018"><ele>243.0</ele><time>2026-05-01T10:04:43.001Z</time></trkpt><trkpt lat="44.43964385573905" lon="9.143204961326198"><ele>243.0</ele><time>2026-05-01T10:04:44.001Z</time></trkpt><trkpt lat="44.439497668217214" lon="9.143438621988723"><ele>243.0</ele><time>2026-05-01T10:04:45.001Z</time></trkpt><trkpt lat="44.439375407828074" lon="9.143656653143049"><ele>244.0</ele><time>2026-05-01T10:04:46.001Z</time></trkpt><trkpt lat="44.43929195991905" lon="9.143870486003735"><ele>245.0</ele><time>2026-05-01T10:04:47.001Z</time></trkpt><trkpt lat="44.43926047902652" lon="9.144073859283612"><ele>246.0</ele><time>2026-05-01T10:04:48.001Z</time></trkpt><trkpt lat="44.43927813088986" lon="9.144287043498947"><ele>246.0</ele><time>2026-05-01T10:04:49.001Z</time></trkpt><trkpt lat="44.43932652992183" lon="9.144532638966158"><ele>246.0</ele><time>2026-05-01T10:04:50.001Z</time></trkpt><trkpt lat="44.439388364640585" lon="9.144750340288795"><ele>246.0</ele><time>2026-05-01T10:04:51.001Z</time></trkpt><trkpt lat="44.4394848383019" lon="9.14493854276262"><ele>250.0</ele><time>2026-05-01T10:04:52.001Z</time></trkpt><trkpt lat="44.43962873094552" lon="9.145107956773504"><ele>254.0</ele><time>2026-05-01T10:04:53.001Z</time></trkpt><trkpt lat="44.439802238653876" lon="9.145292360331304"><ele>258.0</ele><time>2026-05-01T10:04:54.001Z</time></trkpt><trkpt lat="44.43996315599314" lon="9.145475643529043"><ele>249.33333333333331</ele><time>2026-05-01T10:04:55.001Z</time></trkpt><trkpt lat="44.44009441100437" lon="9.145661585651911"><ele>240.66666666666666</ele><time>2026-05-01T10:04:56.001Z</time></trkpt><trkpt lat="44.4402044613335" lon="9.145864664681186"><ele>232.0</ele><time>2026-05-01T10:04:57.001Z</time></trkpt><trkpt lat="44.44029321106848" lon="9.146130795927059"><ele>232.0</ele><time>2026-05-01T10:04:58.001Z</time></trkpt><trkpt lat="44.44034940649964" lon="9.146448287932111"><ele>232.0</ele><time>2026-05-01T10:04:59.001Z</time></trkpt><trkpt lat="44.44044776521301" lon="9.14670924763439"><ele>232.0</ele><time>2026-05-01T10:05:00.001Z</time></trkpt><trkpt lat="44.4405137110848" lon="9.14692974546335"><ele>234.25</ele><time>2026-05-01T10:05:01.001Z</time></trkpt><trkpt lat="44.440557759126555" lon="9.147106920911991"><ele>236.5</ele><time>2026-05-01T10:05:02.001Z</time></trkpt><trkpt lat="44.440568649409755" lon="9.147275873788606"><ele>238.75</ele><time>2026-05-01T10:05:03.001Z</time></trkpt><trkpt lat="44.44053470800958" lon="9.147453086050769"><ele>241.0</ele><time>2026-05-01T10:05:04.001Z</time></trkpt><trkpt lat="44.4404332281169" lon="9.147646362020483"><ele>241.0</ele><time>2026-05-01T10:05:05.001Z</time></trkpt><trkpt lat="44.440346208469286" lon="9.147875475531455"><ele>241.0</ele><time>2026-05-01T10:05:06.001Z</time></trkpt><trkpt lat="44.44023129303027" lon="9.148096394832955"><ele>241.0</ele><time>2026-05-01T10:05:07.001Z</time></trkpt><trkpt lat="44.44014409653533" lon="9.148306040656275"><ele>233.66666666666666</ele><time>2026-05-01T10:05:08.001Z</time></trkpt><trkpt lat="44.44007265504546" lon="9.148512125002394"><ele>226.33333333333331</ele><time>2026-05-01T10:05:09.001Z</time></trkpt><trkpt lat="44.440009832392725" lon="9.148715520692141"><ele>219.0</ele><time>2026-05-01T10:05:10.001Z</time></trkpt><trkpt lat="44.43993361401764" lon="9.148904076040305"><ele>216.33333333333331</ele><time>2026-05-01T10:05:11.001Z</time></trkpt><trkpt lat="44.43981768603644" lon="9.149088783747683"><ele>213.66666666666666</ele><time>2026-05-01T10:05:12Z</time></trkpt><trkpt lat="44.439673607452534" lon="9.149257132871169"><ele>211.0</ele><time>2026-05-01T10:05:13Z</time></trkpt><trkpt lat="44.43955472082544" lon="9.149426655936349"><ele>216.0</ele><time>2026-05-01T10:05:14Z</time></trkpt><trkpt lat="44.43948717547913" lon="9.149622216031544"><ele>221.0</ele><time>2026-05-01T10:05:15Z</time></trkpt><trkpt lat="44.43947182920751" lon="9.149862145367273"><ele>226.0</ele><time>2026-05-01T10:05:16Z</time></trkpt><trkpt lat="44.439506343788764" lon="9.150118288479227"><ele>226.0</ele><time>2026-05-01T10:05:17Z</time></trkpt><trkpt lat="44.43956906301836" lon="9.150362329597776"><ele>226.0</ele><time>2026-05-01T10:05:18Z</time></trkpt><trkpt lat="44.43963039608295" lon="9.150572825018223"><ele>226.0</ele><time>2026-05-01T10:05:19Z</time></trkpt><trkpt lat="44.439635310993616" lon="9.15080060950079"><ele>225.66666666666666</ele><time>2026-05-01T10:05:20Z</time></trkpt><trkpt lat="44.43960996387837" lon="9.151059521835816"><ele>225.33333333333331</ele><time>2026-05-01T10:05:21Z</time></trkpt><trkpt lat="44.43957844277698" lon="9.151340885410722"><ele>225.0</ele><time>2026-05-01T10:05:22Z</time></trkpt><trkpt lat="44.43954974480041" lon="9.151597442780291"><ele>222.66666666666669</ele><time>2026-05-01T10:05:23Z</time></trkpt><trkpt lat="44.4395186663621" lon="9.151828790395035"><ele>220.33333333333334</ele><time>2026-05-01T10:05:24Z</time></trkpt><trkpt lat="44.43948812451124" lon="9.152050055185912"><ele>218.0</ele><time>2026-05-01T10:05:25Z</time></trkpt><trkpt lat="44.43945876335547" lon="9.15225796032677"><ele>215.0</ele><time>2026-05-01T10:05:26Z</time></trkpt><trkpt lat="44.43943072687677" lon="9.152447868882867"><ele>212.0</ele><time>2026-05-01T10:05:27Z</time></trkpt><trkpt lat="44.43941885465897" lon="9.152632072171961"><ele>209.0</ele><time>2026-05-01T10:05:28Z</time></trkpt><trkpt lat="44.43944479428248" lon="9.152808981906258"><ele>206.0</ele><time>2026-05-01T10:05:29Z</time></trkpt><trkpt lat="44.43950218628532" lon="9.152980283218456"><ele>206.0</ele><time>2026-05-01T10:05:30Z</time></trkpt><trkpt lat="44.43958650971369" lon="9.153153178639625"><ele>206.0</ele><time>2026-05-01T10:05:31Z</time></trkpt><trkpt lat="44.439716624852956" lon="9.153294427358903"><ele>206.0</ele><time>2026-05-01T10:05:32Z</time></trkpt><trkpt lat="44.439834005863354" lon="9.153432574661247"><ele>206.20000000000002</ele><time>2026-05-01T10:05:33Z</time></trkpt><trkpt lat="44.43990778649565" lon="9.15356834531366"><ele>206.4</ele><time>2026-05-01T10:05:34Z</time></trkpt><trkpt lat="44.439976603914474" lon="9.1536705178479"><ele>206.6</ele><time>2026-05-01T10:05:35Z</time></trkpt><trkpt lat="44.43996717843796" lon="9.15381523992502"><ele>206.8</ele><time>2026-05-01T10:05:36Z</time></trkpt><trkpt lat="44.43995128602309" lon="9.153965912841317"><ele>207.0</ele><time>2026-05-01T10:05:37Z</time></trkpt><trkpt lat="44.439938197945196" lon="9.154109747141893"><ele>205.5</ele><time>2026-05-01T10:05:38Z</time></trkpt><trkpt lat="44.43986934512473" lon="9.15424850215399"><ele>204.0</ele><time>2026-05-01T10:05:39Z</time></trkpt><trkpt lat="44.43974478252614" lon="9.154362325517612"><ele>202.5</ele><time>2026-05-01T10:05:40Z</time></trkpt><trkpt lat="44.43963939511955" lon="9.15452215091193"><ele>201.0</ele><time>2026-05-01T10:05:41Z</time></trkpt><trkpt lat="44.439540765569305" lon="9.154706037418848"><ele>201.66666666666669</ele><time>2026-05-01T10:05:42Z</time></trkpt><trkpt lat="44.439460983249" lon="9.154897703248233"><ele>202.33333333333334</ele><time>2026-05-01T10:05:43Z</time></trkpt><trkpt lat="44.43933422423707" lon="9.155033971253136"><ele>203.0</ele><time>2026-05-01T10:05:44Z</time></trkpt><trkpt lat="44.43917962190245" lon="9.155165150153746"><ele>203.0</ele><time>2026-05-01T10:05:45Z</time></trkpt><trkpt lat="44.43902045275195" lon="9.15529841396233"><ele>203.0</ele><time>2026-05-01T10:05:46Z</time></trkpt><trkpt lat="44.4388595270189" lon="9.155389936760292"><ele>203.0</ele><time>2026-05-01T10:05:47Z</time></trkpt><trkpt lat="44.438697541695134" lon="9.155456502980737"><ele>202.66666666666669</ele><time>2026-05-01T10:05:48Z</time></trkpt><trkpt lat="44.4385396565845" lon="9.155511006835132"><ele>202.33333333333331</ele><time>2026-05-01T10:05:49Z</time></trkpt><trkpt lat="44.4383935390957" lon="9.155548198918192"><ele>202.0</ele><time>2026-05-01T10:05:50Z</time></trkpt><trkpt lat="44.438252590015885" lon="9.155577994496175"><ele>202.0</ele><time>2026-05-01T10:05:51Z</time></trkpt><trkpt lat="44.43810561880893" lon="9.155605363622518"><ele>202.0</ele><time>2026-05-01T10:05:52Z</time></trkpt><trkpt lat="44.43795980728938" lon="9.155621459017839"><ele>202.0</ele><time>2026-05-01T10:05:53Z</time></trkpt><trkpt lat="44.43782100398169" lon="9.155631915677722"><ele>202.0</ele><time>2026-05-01T10:05:54Z</time></trkpt><trkpt lat="44.437697728818726" lon="9.15564859810084"><ele>199.5</ele><time>2026-05-01T10:05:55Z</time></trkpt><trkpt lat="44.437578591565675" lon="9.155658237088515"><ele>197.0</ele><time>2026-05-01T10:05:56Z</time></trkpt><trkpt lat="44.43746325775399" lon="9.155669005105018"><ele>194.5</ele><time>2026-05-01T10:05:57Z</time></trkpt><trkpt lat="44.43735424570639" lon="9.15567813718727"><ele>192.0</ele><time>2026-05-01T10:05:58Z</time></trkpt><trkpt lat="44.43724502325071" lon="9.155693782510141"><ele>192.25</ele><time>2026-05-01T10:05:59Z</time></trkpt><trkpt lat="44.43713286463637" lon="9.155708612711932"><ele>192.5</ele><time>2026-05-01T10:06:00Z</time></trkpt><trkpt lat="44.43701828900036" lon="9.155722968399035"><ele>192.75</ele><time>2026-05-01T10:06:01Z</time></trkpt><trkpt lat="44.43689510273986" lon="9.155734283879886"><ele>193.0</ele><time>2026-05-01T10:06:02Z</time></trkpt><trkpt lat="44.43677335733398" lon="9.155748023658385"><ele>193.0</ele><time>2026-05-01T10:06:03Z</time></trkpt><trkpt lat="44.43665918846952" lon="9.15578707485948"><ele>193.0</ele><time>2026-05-01T10:06:04Z</time></trkpt><trkpt lat="44.43656142279917" lon="9.155874910298772"><ele>193.0</ele><time>2026-05-01T10:06:05Z</time></trkpt><trkpt lat="44.43648761509038" lon="9.156013590467177"><ele>193.0</ele><time>2026-05-01T10:06:06Z</time></trkpt><trkpt lat="44.436439886175044" lon="9.156189655914831"><ele>193.0</ele><time>2026-05-01T10:06:07Z</time></trkpt><trkpt lat="44.4364236827099" lon="9.156397644620132"><ele>193.0</ele><time>2026-05-01T10:06:08Z</time></trkpt><trkpt lat="44.43644066213111" lon="9.156641550410631"><ele>193.0</ele><time>2026-05-01T10:06:09Z</time></trkpt><trkpt lat="44.436483552111284" lon="9.156894516405083"><ele>192.0</ele><time>2026-05-01T10:06:10Z</time></trkpt><trkpt lat="44.43656045566225" lon="9.157143880615129"><ele>191.0</ele><time>2026-05-01T10:06:11Z</time></trkpt><trkpt lat="44.43667982985978" lon="9.157381417161313"><ele>190.0</ele><time>2026-05-01T10:06:12Z</time></trkpt><trkpt lat="44.43681662974119" lon="9.157581457145392"><ele>190.0</ele><time>2026-05-01T10:06:13Z</time></trkpt><trkpt lat="44.436968326052266" lon="9.157743107375994"><ele>190.0</ele><time>2026-05-01T10:06:14Z</time></trkpt><trkpt lat="44.43711506030508" lon="9.157870031752639"><ele>190.0</ele><time>2026-05-01T10:06:15Z</time></trkpt><trkpt lat="44.437222905990254" lon="9.158025737813484"><ele>193.5</ele><time>2026-05-01T10:06:16Z</time></trkpt><trkpt lat="44.437331257670884" lon="9.158143254937345"><ele>197.0</ele><time>2026-05-01T10:06:17Z</time></trkpt><trkpt lat="44.43738789336028" lon="9.158296776709811"><ele>200.5</ele><time>2026-05-01T10:06:18Z</time></trkpt><trkpt lat="44.437447523023685" lon="9.158432547889428"><ele>204.0</ele><time>2026-05-01T10:06:19.001Z</time></trkpt><trkpt lat="44.43750635536556" lon="9.158570976753916"><ele>204.0</ele><time>2026-05-01T10:06:20.001Z</time></trkpt><trkpt lat="44.43753289035755" lon="9.158746134063101"><ele>204.0</ele><time>2026-05-01T10:06:21.001Z</time></trkpt><trkpt lat="44.43753980204451" lon="9.15893268755892"><ele>204.0</ele><time>2026-05-01T10:06:22.001Z</time></trkpt><trkpt lat="44.437512339828984" lon="9.159114801139983"><ele>204.0</ele><time>2026-05-01T10:06:23.001Z</time></trkpt><trkpt lat="44.43749325067651" lon="9.159283166270427"><ele>203.0</ele><time>2026-05-01T10:06:24.001Z</time></trkpt><trkpt lat="44.437439929744336" lon="9.159432307841833"><ele>202.0</ele><time>2026-05-01T10:06:25.001Z</time></trkpt><trkpt lat="44.43736729661383" lon="9.159580252133189"><ele>201.0</ele><time>2026-05-01T10:06:26.001Z</time></trkpt><trkpt lat="44.43728986277157" lon="9.159760472837851"><ele>200.0</ele><time>2026-05-01T10:06:27.001Z</time></trkpt><trkpt lat="44.437220299208136" lon="9.159984827480296"><ele>200.0</ele><time>2026-05-01T10:06:28.001Z</time></trkpt><trkpt lat="44.43717271476296" lon="9.160216458880303"><ele>200.0</ele><time>2026-05-01T10:06:29.001Z</time></trkpt><trkpt lat="44.43712959616085" lon="9.16041940218347"><ele>200.0</ele><time>2026-05-01T10:06:30.001Z</time></trkpt><trkpt lat="44.43705307938455" lon="9.160569991476079"><ele>196.75</ele><time>2026-05-01T10:06:31.001Z</time></trkpt><trkpt lat="44.436990999129016" lon="9.160722821946429"><ele>193.5</ele><time>2026-05-01T10:06:32.001Z</time></trkpt><trkpt lat="44.436920317210074" lon="9.160848223806376"><ele>190.25</ele><time>2026-05-01T10:06:33.001Z</time></trkpt><trkpt lat="44.436867690168086" lon="9.160982414723472"><ele>187.0</ele><time>2026-05-01T10:06:34.001Z</time></trkpt><trkpt lat="44.43682409370288" lon="9.161131271182144"><ele>187.0</ele><time>2026-05-01T10:06:35.001Z</time></trkpt><trkpt lat="44.436789421626635" lon="9.161276598365355"><ele>187.0</ele><time>2026-05-01T10:06:36.001Z</time></trkpt><trkpt lat="44.43676900782652" lon="9.161415232017436"><ele>187.0</ele><time>2026-05-01T10:06:37.001Z</time></trkpt><trkpt lat="44.436769895401284" lon="9.16156275104865"><ele>187.0</ele><time>2026-05-01T10:06:38.001Z</time></trkpt><trkpt lat="44.436799449095176" lon="9.161720249366423"><ele>187.0</ele><time>2026-05-01T10:06:39.001Z</time></trkpt><trkpt lat="44.43687268673374" lon="9.16187315158206"><ele>187.0</ele><time>2026-05-01T10:06:40.001Z</time></trkpt><trkpt lat="44.4369586341749" lon="9.161989453873417"><ele>187.0</ele><time>2026-05-01T10:06:41.001Z</time></trkpt><trkpt lat="44.43703644852518" lon="9.162100153464714"><ele>187.0</ele><time>2026-05-01T10:06:42.001Z</time></trkpt><trkpt lat="44.43708361342283" lon="9.162242948512803"><ele>187.0</ele><time>2026-05-01T10:06:43.001Z</time></trkpt><trkpt lat="44.43708382121413" lon="9.162405115361786"><ele>185.5</ele><time>2026-05-01T10:06:44.001Z</time></trkpt><trkpt lat="44.43704800634722" lon="9.162568318836309"><ele>184.0</ele><time>2026-05-01T10:06:45.001Z</time></trkpt><trkpt lat="44.43698069745424" lon="9.162728852598534"><ele>182.5</ele><time>2026-05-01T10:06:46.001Z</time></trkpt><trkpt lat="44.43688331853894" lon="9.162890083942527"><ele>181.0</ele><time>2026-05-01T10:06:47.001Z</time></trkpt><trkpt lat="44.4367743855339" lon="9.163035693593345"><ele>181.0</ele><time>2026-05-01T10:06:48.001Z</time></trkpt><trkpt lat="44.43666265154152" lon="9.16315149938751"><ele>181.0</ele><time>2026-05-01T10:06:49.001Z</time></trkpt><trkpt lat="44.436548185397506" lon="9.163243441785136"><ele>181.0</ele><time>2026-05-01T10:06:50.001Z</time></trkpt><trkpt lat="44.436422188549294" lon="9.163329313862278"><ele>181.0</ele><time>2026-05-01T10:06:51.001Z</time></trkpt><trkpt lat="44.43629616036016" lon="9.163395802382363"><ele>182.0</ele><time>2026-05-01T10:06:52.001Z</time></trkpt><trkpt lat="44.43617074914163" lon="9.163433030640062"><ele>183.0</ele><time>2026-05-01T10:06:53.001Z</time></trkpt><trkpt lat="44.436045121449965" lon="9.163478825397467"><ele>184.0</ele><time>2026-05-01T10:06:54.001Z</time></trkpt><trkpt lat="44.43593071962321" lon="9.163546830266007"><ele>185.0</ele><time>2026-05-01T10:06:55.001Z</time></trkpt><trkpt lat="44.43584100958562" lon="9.163669199327495"><ele>185.0</ele><time>2026-05-01T10:06:56.001Z</time></trkpt><trkpt lat="44.435756337916644" lon="9.163865737508436"><ele>185.0</ele><time>2026-05-01T10:06:57.001Z</time></trkpt><trkpt lat="44.43570291708083" lon="9.164093942009085"><ele>185.0</ele><time>2026-05-01T10:06:58.001Z</time></trkpt><trkpt lat="44.43562515264859" lon="9.16434044921689"><ele>185.5</ele><time>2026-05-01T10:06:59.001Z</time></trkpt><trkpt lat="44.43553099043149" lon="9.164629801680501"><ele>186.0</ele><time>2026-05-01T10:07:00.001Z</time></trkpt><trkpt lat="44.43544610898498" lon="9.164925886593922"><ele>186.0</ele><time>2026-05-01T10:07:01.001Z</time></trkpt><trkpt lat="44.43533350138833" lon="9.165240766717721"><ele>186.0</ele><time>2026-05-01T10:07:02.001Z</time></trkpt><trkpt lat="44.43522504589279" lon="9.165587695345272"><ele>181.0</ele><time>2026-05-01T10:07:03.001Z</time></trkpt><trkpt lat="44.435111739532466" lon="9.165938874468134"><ele>176.0</ele><time>2026-05-01T10:07:04.001Z</time></trkpt><trkpt lat="44.434993814303915" lon="9.166305204469417"><ele>176.0</ele><time>2026-05-01T10:07:05.001Z</time></trkpt><trkpt lat="44.43487474994667" lon="9.166662023257798"><ele>176.0</ele><time>2026-05-01T10:07:06.001Z</time></trkpt><trkpt lat="44.43476055866187" lon="9.167010139251149"><ele>182.0</ele><time>2026-05-01T10:07:07.001Z</time></trkpt><trkpt lat="44.43465844889225" lon="9.16736879931134"><ele>188.0</ele><time>2026-05-01T10:07:08.001Z</time></trkpt><trkpt lat="44.434565348518646" lon="9.167745031762223"><ele>188.0</ele><time>2026-05-01T10:07:09.001Z</time></trkpt><trkpt lat="44.43448777962882" lon="9.168146193559641"><ele>188.0</ele><time>2026-05-01T10:07:10.001Z</time></trkpt><trkpt lat="44.434425961126976" lon="9.168553719690792"><ele>184.0</ele><time>2026-05-01T10:07:11.001Z</time></trkpt><trkpt lat="44.43436451976416" lon="9.168958826168659"><ele>180.0</ele><time>2026-05-01T10:07:12.001Z</time></trkpt><trkpt lat="44.43430650000813" lon="9.169336125236999"><ele>180.0</ele><time>2026-05-01T10:07:13.001Z</time></trkpt><trkpt lat="44.434245717547675" lon="9.169689610675789"><ele>180.0</ele><time>2026-05-01T10:07:14.001Z</time></trkpt><trkpt lat="44.43419030877244" lon="9.17002107558128"><ele>180.0</ele><time>2026-05-01T10:07:15.001Z</time></trkpt><trkpt lat="44.434146899808844" lon="9.170324089910457"><ele>180.0</ele><time>2026-05-01T10:07:16.001Z</time></trkpt><trkpt lat="44.43413261338474" lon="9.170607040782999"><ele>180.0</ele><time>2026-05-01T10:07:17.001Z</time></trkpt><trkpt lat="44.43415947210695" lon="9.170895799527662"><ele>183.0</ele><time>2026-05-01T10:07:18Z</time></trkpt><trkpt lat="44.4342056227095" lon="9.17121830264776"><ele>186.0</ele><time>2026-05-01T10:07:19Z</time></trkpt><trkpt lat="44.434237714365295" lon="9.171573126560142"><ele>186.5</ele><time>2026-05-01T10:07:20Z</time></trkpt><trkpt lat="44.43431337444481" lon="9.171925576811924"><ele>187.0</ele><time>2026-05-01T10:07:21Z</time></trkpt><trkpt lat="44.4343166817293" lon="9.172288401943732"><ele>186.66666666666669</ele><time>2026-05-01T10:07:22Z</time></trkpt><trkpt lat="44.434333283917184" lon="9.172615238746435"><ele>186.33333333333334</ele><time>2026-05-01T10:07:23Z</time></trkpt><trkpt lat="44.434344686216555" lon="9.172890033613237"><ele>186.0</ele><time>2026-05-01T10:07:24Z</time></trkpt><trkpt lat="44.434347157227755" lon="9.173107245120775"><ele>183.33333333333334</ele><time>2026-05-01T10:07:25Z</time></trkpt><trkpt lat="44.43432357055038" lon="9.17330673557363"><ele>180.66666666666669</ele><time>2026-05-01T10:07:26Z</time></trkpt><trkpt lat="44.43427896032679" lon="9.173509578882577"><ele>178.0</ele><time>2026-05-01T10:07:27Z</time></trkpt><trkpt lat="44.434199170319495" lon="9.173694045328576"><ele>178.0</ele><time>2026-05-01T10:07:28Z</time></trkpt><trkpt lat="44.43410623414121" lon="9.17384695099114"><ele>178.0</ele><time>2026-05-01T10:07:29Z</time></trkpt><trkpt lat="44.43401258123198" lon="9.173974188455693"><ele>178.0</ele><time>2026-05-01T10:07:30Z</time></trkpt><trkpt lat="44.433924310139865" lon="9.17407984594802"><ele>178.0</ele><time>2026-05-01T10:07:31Z</time></trkpt><trkpt lat="44.4338076621167" lon="9.174110599830753"><ele>175.25</ele><time>2026-05-01T10:07:32Z</time></trkpt><trkpt lat="44.43367363993017" lon="9.17405623332596"><ele>172.5</ele><time>2026-05-01T10:07:33Z</time></trkpt><trkpt lat="44.43352360366627" lon="9.17401914782669"><ele>169.75</ele><time>2026-05-01T10:07:34Z</time></trkpt><trkpt lat="44.43338561222145" lon="9.173970458851281"><ele>167.0</ele><time>2026-05-01T10:07:35Z</time></trkpt><trkpt lat="44.433261001724084" lon="9.173971876915166"><ele>167.0</ele><time>2026-05-01T10:07:36Z</time></trkpt><trkpt lat="44.43314948026857" lon="9.174010329582158"><ele>167.0</ele><time>2026-05-01T10:07:37Z</time></trkpt><trkpt lat="44.433056553134364" lon="9.174096031773539"><ele>167.0</ele><time>2026-05-01T10:07:38Z</time></trkpt><trkpt lat="44.432996757672335" lon="9.174245181465976"><ele>167.0</ele><time>2026-05-01T10:07:39Z</time></trkpt><trkpt lat="44.43297252646974" lon="9.174450260090676"><ele>168.66666666666666</ele><time>2026-05-01T10:07:40Z</time></trkpt><trkpt lat="44.43295905123053" lon="9.174689318428698"><ele>170.33333333333334</ele><time>2026-05-01T10:07:41Z</time></trkpt><trkpt lat="44.43293605466413" lon="9.174950552331943"><ele>172.0</ele><time>2026-05-01T10:07:42Z</time></trkpt><trkpt lat="44.43290306937004" lon="9.175207016766961"><ele>172.0</ele><time>2026-05-01T10:07:43Z</time></trkpt><trkpt lat="44.432867540356746" lon="9.175472871337327"><ele>172.0</ele><time>2026-05-01T10:07:44Z</time></trkpt><trkpt lat="44.43285837101215" lon="9.175753230061428"><ele>172.0</ele><time>2026-05-01T10:07:45Z</time></trkpt><trkpt lat="44.43288324465723" lon="9.176043868205378"><ele>169.66666666666669</ele><time>2026-05-01T10:07:46Z</time></trkpt><trkpt lat="44.432909521145994" lon="9.176305162831632"><ele>167.33333333333334</ele><time>2026-05-01T10:07:47Z</time></trkpt><trkpt lat="44.43294533091135" lon="9.176533127954047"><ele>165.0</ele><time>2026-05-01T10:07:48Z</time></trkpt><trkpt lat="44.432984526250756" lon="9.176746238330939"><ele>165.0</ele><time>2026-05-01T10:07:49Z</time></trkpt><trkpt lat="44.43303401876768" lon="9.176938937577168"><ele>165.0</ele><time>2026-05-01T10:07:50Z</time></trkpt><trkpt lat="44.433074413442185" lon="9.177122295182201"><ele>165.0</ele><time>2026-05-01T10:07:51Z</time></trkpt><trkpt lat="44.4330768989143" lon="9.177304294111986"><ele>165.0</ele><time>2026-05-01T10:07:52Z</time></trkpt><trkpt lat="44.43309927759925" lon="9.177468384255073"><ele>164.8</ele><time>2026-05-01T10:07:53Z</time></trkpt><trkpt lat="44.43310378531071" lon="9.177613023080234"><ele>164.6</ele><time>2026-05-01T10:07:54Z</time></trkpt><trkpt lat="44.43311179336938" lon="9.177748170768682"><ele>164.39999999999998</ele><time>2026-05-01T10:07:55Z</time></trkpt><trkpt lat="44.433117652923784" lon="9.177873975887959"><ele>164.2</ele><time>2026-05-01T10:07:56Z</time></trkpt><trkpt lat="44.4331231036163" lon="9.177993337038064"><ele>164.0</ele><time>2026-05-01T10:07:57Z</time></trkpt><trkpt lat="44.43312182496322" lon="9.178108345252324"><ele>164.5</ele><time>2026-05-01T10:07:58Z</time></trkpt><trkpt lat="44.43308701590183" lon="9.178240020446037"><ele>165.0</ele><time>2026-05-01T10:07:59Z</time></trkpt><trkpt lat="44.433005386082336" lon="9.178370243274983"><ele>165.5</ele><time>2026-05-01T10:08:00Z</time></trkpt><trkpt lat="44.432900085296666" lon="9.178486273782045"><ele>166.0</ele><time>2026-05-01T10:08:01Z</time></trkpt><trkpt lat="44.43278312593209" lon="9.178589410258354"><ele>163.75</ele><time>2026-05-01T10:08:02Z</time></trkpt><trkpt lat="44.43266491517666" lon="9.178683308708003"><ele>161.5</ele><time>2026-05-01T10:08:03Z</time></trkpt><trkpt lat="44.432535365191036" lon="9.178726517122824"><ele>159.25</ele><time>2026-05-01T10:08:04Z</time></trkpt><trkpt lat="44.43241166407783" lon="9.178796867086831"><ele>157.0</ele><time>2026-05-01T10:08:05Z</time></trkpt><trkpt lat="44.43227449693214" lon="9.178872038340154"><ele>157.66666666666669</ele><time>2026-05-01T10:08:06Z</time></trkpt><trkpt lat="44.43211212896996" lon="9.179008508467522"><ele>158.33333333333334</ele><time>2026-05-01T10:08:07Z</time></trkpt><trkpt lat="44.431922872947155" lon="9.179165945608775"><ele>159.0</ele><time>2026-05-01T10:08:08Z</time></trkpt><trkpt lat="44.43175316835606" lon="9.179312521217769"><ele>159.66666666666666</ele><time>2026-05-01T10:08:09Z</time></trkpt><trkpt lat="44.431589650932835" lon="9.179473331155227"><ele>160.33333333333331</ele><time>2026-05-01T10:08:10Z</time></trkpt><trkpt lat="44.43142180446183" lon="9.17961737103709"><ele>161.0</ele><time>2026-05-01T10:08:11Z</time></trkpt><trkpt lat="44.431276859779565" lon="9.179801460166221"><ele>159.0</ele><time>2026-05-01T10:08:12Z</time></trkpt><trkpt lat="44.431139867923044" lon="9.179995982931409"><ele>157.0</ele><time>2026-05-01T10:08:13Z</time></trkpt><trkpt lat="44.431014740535254" lon="9.180173618572375"><ele>155.0</ele><time>2026-05-01T10:08:14Z</time></trkpt><trkpt lat="44.4308949967358" lon="9.180340117551001"><ele>155.0</ele><time>2026-05-01T10:08:15Z</time></trkpt><trkpt lat="44.430786001911684" lon="9.18049930402371"><ele>155.0</ele><time>2026-05-01T10:08:16Z</time></trkpt><trkpt lat="44.43069378833372" lon="9.18065764259549"><ele>155.0</ele><time>2026-05-01T10:08:17Z</time></trkpt><trkpt lat="44.430619876303105" lon="9.180817421871296"><ele>155.0</ele><time>2026-05-01T10:08:18Z</time></trkpt><trkpt lat="44.43056471237066" lon="9.180986548292706"><ele>155.75</ele><time>2026-05-01T10:08:19Z</time></trkpt><trkpt lat="44.43052653074415" lon="9.181165528519644"><ele>156.5</ele><time>2026-05-01T10:08:20Z</time></trkpt><trkpt lat="44.430505578171775" lon="9.18135856549481"><ele>157.25</ele><time>2026-05-01T10:08:21Z</time></trkpt><trkpt lat="44.430500297496295" lon="9.181547625980594"><ele>158.0</ele><time>2026-05-01T10:08:22Z</time></trkpt><trkpt lat="44.430516306909944" lon="9.181714333144756"><ele>158.5</ele><time>2026-05-01T10:08:23Z</time></trkpt><trkpt lat="44.43052538037909" lon="9.181865062388836"><ele>159.0</ele><time>2026-05-01T10:08:24Z</time></trkpt><trkpt lat="44.43049790059561" lon="9.182011814143411"><ele>159.5</ele><time>2026-05-01T10:08:25Z</time></trkpt><trkpt lat="44.43042374526283" lon="9.182140937474193"><ele>160.0</ele><time>2026-05-01T10:08:26.001Z</time></trkpt><trkpt lat="44.43029938452879" lon="9.182201126493611"><ele>158.5</ele><time>2026-05-01T10:08:27.001Z</time></trkpt><trkpt lat="44.430159117584" lon="9.182288314222786"><ele>157.0</ele><time>2026-05-01T10:08:28.001Z</time></trkpt><trkpt lat="44.430031218157914" lon="9.182375703849047"><ele>155.5</ele><time>2026-05-01T10:08:29.001Z</time></trkpt><trkpt lat="44.42991735230171" lon="9.182442001956248"><ele>154.0</ele><time>2026-05-01T10:08:30.001Z</time></trkpt><trkpt lat="44.42981200208013" lon="9.182510863533055"><ele>154.0</ele><time>2026-05-01T10:08:31.001Z</time></trkpt><trkpt lat="44.429702983267376" lon="9.182591476009945"><ele>154.0</ele><time>2026-05-01T10:08:32.001Z</time></trkpt><trkpt lat="44.42959550529317" lon="9.18269187555819"><ele>154.0</ele><time>2026-05-01T10:08:33.001Z</time></trkpt><trkpt lat="44.42949768576631" lon="9.182800307259074"><ele>154.0</ele><time>2026-05-01T10:08:34.001Z</time></trkpt><trkpt lat="44.429398981691754" lon="9.182909752450527"><ele>153.25</ele><time>2026-05-01T10:08:35.001Z</time></trkpt><trkpt lat="44.429319423745575" lon="9.183057226483337"><ele>152.5</ele><time>2026-05-01T10:08:36.001Z</time></trkpt><trkpt lat="44.42923520229561" lon="9.18321005739039"><ele>151.75</ele><time>2026-05-01T10:08:37.001Z</time></trkpt><trkpt lat="44.42917272393482" lon="9.18337282138254"><ele>151.0</ele><time>2026-05-01T10:08:38.001Z</time></trkpt><trkpt lat="44.42913173610251" lon="9.183545889384114"><ele>152.5</ele><time>2026-05-01T10:08:39.001Z</time></trkpt><trkpt lat="44.42910986335097" lon="9.183723211785233"><ele>154.0</ele><time>2026-05-01T10:08:40.001Z</time></trkpt><trkpt lat="44.42910565514388" lon="9.183914661149096"><ele>155.5</ele><time>2026-05-01T10:08:41.001Z</time></trkpt><trkpt lat="44.429106021866794" lon="9.184113481999178"><ele>157.0</ele><time>2026-05-01T10:08:42.001Z</time></trkpt><trkpt lat="44.429103427697996" lon="9.184291235240147"><ele>157.0</ele><time>2026-05-01T10:08:43.001Z</time></trkpt><trkpt lat="44.42909194467822" lon="9.184454009074287"><ele>157.0</ele><time>2026-05-01T10:08:44.001Z</time></trkpt><trkpt lat="44.429104803975754" lon="9.18463011441497"><ele>157.0</ele><time>2026-05-01T10:08:45.001Z</time></trkpt><trkpt lat="44.42910676103134" lon="9.184808166222435"><ele>157.0</ele><time>2026-05-01T10:08:46.001Z</time></trkpt><trkpt lat="44.42911322903666" lon="9.184984493373117"><ele>155.5</ele><time>2026-05-01T10:08:47.001Z</time></trkpt><trkpt lat="44.429125466305734" lon="9.185169447105462"><ele>154.0</ele><time>2026-05-01T10:08:48.001Z</time></trkpt><trkpt lat="44.42912368308762" lon="9.185353514302355"><ele>152.5</ele><time>2026-05-01T10:08:49.001Z</time></trkpt><trkpt lat="44.42913866283846" lon="9.185526590584582"><ele>151.0</ele><time>2026-05-01T10:08:50.001Z</time></trkpt><trkpt lat="44.429154568995614" lon="9.185698476324538"><ele>150.25</ele><time>2026-05-01T10:08:51.001Z</time></trkpt><trkpt lat="44.42918990128713" lon="9.185867646107695"><ele>149.5</ele><time>2026-05-01T10:08:52.001Z</time></trkpt><trkpt lat="44.4291971221214" lon="9.18605678360492"><ele>148.75</ele><time>2026-05-01T10:08:53.001Z</time></trkpt><trkpt lat="44.429218633912775" lon="9.186246589070342"><ele>148.0</ele><time>2026-05-01T10:08:54.001Z</time></trkpt><trkpt lat="44.429240035157946" lon="9.186435421187554"><ele>147.5</ele><time>2026-05-01T10:08:55.001Z</time></trkpt><trkpt lat="44.42926273019337" lon="9.186629620473171"><ele>147.0</ele><time>2026-05-01T10:08:56.001Z</time></trkpt><trkpt lat="44.4292857374845" lon="9.186827426033615"><ele>146.5</ele><time>2026-05-01T10:08:57.001Z</time></trkpt><trkpt lat="44.42930935666385" lon="9.187030492318787"><ele>146.0</ele><time>2026-05-01T10:08:58.001Z</time></trkpt><trkpt lat="44.42933153587887" lon="9.187226628583527"><ele>144.75</ele><time>2026-05-01T10:08:59.001Z</time></trkpt><trkpt lat="44.429353800806005" lon="9.187426099956303"><ele>143.5</ele><time>2026-05-01T10:09:00.001Z</time></trkpt><trkpt lat="44.42937529301242" lon="9.187618648477427"><ele>142.25</ele><time>2026-05-01T10:09:01.001Z</time></trkpt><trkpt lat="44.42939573826492" lon="9.187805705533703"><ele>141.0</ele><time>2026-05-01T10:09:02.001Z</time></trkpt><trkpt lat="44.429424082113684" lon="9.187993181427933"><ele>141.0</ele><time>2026-05-01T10:09:03.001Z</time></trkpt><trkpt lat="44.429436376437486" lon="9.18817566492241"><ele>141.0</ele><time>2026-05-01T10:09:04.001Z</time></trkpt><trkpt lat="44.429421368415305" lon="9.188370115094392"><ele>141.0</ele><time>2026-05-01T10:09:05.001Z</time></trkpt><trkpt lat="44.429432093475604" lon="9.188565620101448"><ele>141.0</ele><time>2026-05-01T10:09:06.001Z</time></trkpt><trkpt lat="44.42942440822943" lon="9.188761688416331"><ele>141.25</ele><time>2026-05-01T10:09:07.001Z</time></trkpt><trkpt lat="44.42941686604091" lon="9.188961310402078"><ele>141.5</ele><time>2026-05-01T10:09:08.001Z</time></trkpt><trkpt lat="44.429382785877934" lon="9.189150833246954"><ele>141.75</ele><time>2026-05-01T10:09:09.001Z</time></trkpt><trkpt lat="44.42936269556986" lon="9.189330570118175"><ele>142.0</ele><time>2026-05-01T10:09:10.001Z</time></trkpt><trkpt lat="44.42933027738002" lon="9.189490593698011"><ele>142.5</ele><time>2026-05-01T10:09:11.001Z</time></trkpt><trkpt lat="44.42927329842219" lon="9.189642914398277"><ele>143.0</ele><time>2026-05-01T10:09:12.001Z</time></trkpt><trkpt lat="44.42920351075904" lon="9.18979756271416"><ele>143.5</ele><time>2026-05-01T10:09:13.001Z</time></trkpt><trkpt lat="44.42912783912347" lon="9.189955966222794"><ele>144.0</ele><time>2026-05-01T10:09:14.001Z</time></trkpt><trkpt lat="44.429063407735185" lon="9.190109053339635"><ele>146.0</ele><time>2026-05-01T10:09:15.001Z</time></trkpt><trkpt lat="44.428985852586514" lon="9.190235078369092"><ele>148.0</ele><time>2026-05-01T10:09:16.001Z</time></trkpt><trkpt lat="44.428945149821814" lon="9.190389167342193"><ele>150.0</ele><time>2026-05-01T10:09:17.001Z</time></trkpt><trkpt lat="44.428897677109426" lon="9.190536814124929"><ele>152.0</ele><time>2026-05-01T10:09:18.001Z</time></trkpt><trkpt lat="44.428820185563744" lon="9.190663696586324"><ele>149.75</ele><time>2026-05-01T10:09:19.001Z</time></trkpt><trkpt lat="44.42871571251922" lon="9.190754152978453"><ele>147.5</ele><time>2026-05-01T10:09:20.001Z</time></trkpt><trkpt lat="44.42860037189885" lon="9.190844901822762"><ele>145.25</ele><time>2026-05-01T10:09:21.001Z</time></trkpt><trkpt lat="44.42849311438015" lon="9.190936740884768"><ele>143.0</ele><time>2026-05-01T10:09:22.001Z</time></trkpt><trkpt lat="44.42839886377026" lon="9.191028007429761"><ele>143.0</ele><time>2026-05-01T10:09:23.001Z</time></trkpt><trkpt lat="44.428303493325046" lon="9.191108258259067"><ele>143.0</ele><time>2026-05-01T10:09:23.999Z</time></trkpt><trkpt lat="44.42819225442045" lon="9.191158242495455"><ele>143.0</ele><time>2026-05-01T10:09:24.999Z</time></trkpt><trkpt lat="44.4280696244404" lon="9.191173861955766"><ele>143.0</ele><time>2026-05-01T10:09:25.999Z</time></trkpt><trkpt lat="44.42794667784162" lon="9.191174704299529"><ele>144.5</ele><time>2026-05-01T10:09:26.999Z</time></trkpt><trkpt lat="44.42782104464121" lon="9.191161335406619"><ele>146.0</ele><time>2026-05-01T10:09:27.999Z</time></trkpt><trkpt lat="44.427688437476256" lon="9.19112488591491"><ele>147.5</ele><time>2026-05-01T10:09:28.999Z</time></trkpt><trkpt lat="44.42754482404665" lon="9.191039883082507"><ele>149.0</ele><time>2026-05-01T10:09:29.999Z</time></trkpt><trkpt lat="44.42741333698676" lon="9.190912588662139"><ele>149.0</ele><time>2026-05-01T10:09:30.999Z</time></trkpt><trkpt lat="44.42729961116453" lon="9.190778185333775"><ele>149.0</ele><time>2026-05-01T10:09:31.999Z</time></trkpt><trkpt lat="44.427180295016456" lon="9.190678745560135"><ele>149.0</ele><time>2026-05-01T10:09:32.999Z</time></trkpt><trkpt lat="44.427024855641946" lon="9.190617792756527"><ele>149.0</ele><time>2026-05-01T10:09:33.999Z</time></trkpt><trkpt lat="44.426850475716556" lon="9.190580168349799"><ele>147.0</ele><time>2026-05-01T10:09:34.999Z</time></trkpt><trkpt lat="44.42668827408136" lon="9.190556605818012"><ele>145.0</ele><time>2026-05-01T10:09:35.999Z</time></trkpt><trkpt lat="44.4265453588682" lon="9.190550756056497"><ele>143.0</ele><time>2026-05-01T10:09:36.999Z</time></trkpt><trkpt lat="44.426412223821636" lon="9.1905431156791"><ele>141.0</ele><time>2026-05-01T10:09:37.999Z</time></trkpt><trkpt lat="44.42629034526623" lon="9.190541586872705"><ele>140.75</ele><time>2026-05-01T10:09:39Z</time></trkpt><trkpt lat="44.4261571659699" lon="9.190539143669614"><ele>140.5</ele><time>2026-05-01T10:09:40Z</time></trkpt><trkpt lat="44.4260162526026" lon="9.190558792309698"><ele>140.25</ele><time>2026-05-01T10:09:41Z</time></trkpt><trkpt lat="44.42586700653515" lon="9.190579999020546"><ele>140.0</ele><time>2026-05-01T10:09:42Z</time></trkpt><trkpt lat="44.42571660392231" lon="9.190599737213187"><ele>140.0</ele><time>2026-05-01T10:09:43Z</time></trkpt><trkpt lat="44.42556879065303" lon="9.190623966085772"><ele>140.0</ele><time>2026-05-01T10:09:44Z</time></trkpt><trkpt lat="44.42542334082602" lon="9.190640645958272"><ele>140.0</ele><time>2026-05-01T10:09:45Z</time></trkpt><trkpt lat="44.42529049945708" lon="9.190655256993537"><ele>140.0</ele><time>2026-05-01T10:09:46Z</time></trkpt><trkpt lat="44.42516462973937" lon="9.19068805024966"><ele>140.5</ele><time>2026-05-01T10:09:47Z</time></trkpt><trkpt lat="44.425048291748006" lon="9.190762570015075"><ele>141.0</ele><time>2026-05-01T10:09:48Z</time></trkpt><trkpt lat="44.42494449411619" lon="9.190874440054419"><ele>141.5</ele><time>2026-05-01T10:09:49Z</time></trkpt><trkpt lat="44.424856918722924" lon="9.191011267513433"><ele>142.0</ele><time>2026-05-01T10:09:50Z</time></trkpt><trkpt lat="44.424792449708846" lon="9.191177381712492"><ele>142.0</ele><time>2026-05-01T10:09:51Z</time></trkpt><trkpt lat="44.42474884499135" lon="9.191346950375356"><ele>142.0</ele><time>2026-05-01T10:09:52Z</time></trkpt><trkpt lat="44.42471877583711" lon="9.191519984120992"><ele>142.0</ele><time>2026-05-01T10:09:53Z</time></trkpt><trkpt lat="44.424717574846866" lon="9.191717135142847"><ele>142.0</ele><time>2026-05-01T10:09:54Z</time></trkpt><trkpt lat="44.424753038906225" lon="9.191963972609008"><ele>144.0</ele><time>2026-05-01T10:09:55Z</time></trkpt><trkpt lat="44.424761886071366" lon="9.192264015716798"><ele>146.0</ele><time>2026-05-01T10:09:56Z</time></trkpt><trkpt lat="44.424789793974384" lon="9.19254666860847"><ele>148.0</ele><time>2026-05-01T10:09:57Z</time></trkpt><trkpt lat="44.42478471301883" lon="9.192793087391664"><ele>148.33333333333334</ele><time>2026-05-01T10:09:58Z</time></trkpt><trkpt lat="44.424790020200625" lon="9.193030532804508"><ele>148.66666666666666</ele><time>2026-05-01T10:09:59Z</time></trkpt><trkpt lat="44.42480654621532" lon="9.193253710331328"><ele>149.0</ele><time>2026-05-01T10:10:00Z</time></trkpt><trkpt lat="44.42483373660092" lon="9.193465618558054"><ele>148.0</ele><time>2026-05-01T10:10:01Z</time></trkpt><trkpt lat="44.42488275263547" lon="9.193674169039054"><ele>147.0</ele><time>2026-05-01T10:10:02Z</time></trkpt><trkpt lat="44.424964534797425" lon="9.193906620913305"><ele>146.0</ele><time>2026-05-01T10:10:03Z</time></trkpt><trkpt lat="44.42503733344235" lon="9.1941946775612"><ele>143.0</ele><time>2026-05-01T10:10:04Z</time></trkpt><trkpt lat="44.42513097180844" lon="9.194476434866614"><ele>140.0</ele><time>2026-05-01T10:10:05Z</time></trkpt><trkpt lat="44.4252439831175" lon="9.194772301127697"><ele>138.33333333333331</ele><time>2026-05-01T10:10:06Z</time></trkpt><trkpt lat="44.4253265905708" lon="9.195048492962187"><ele>136.66666666666666</ele><time>2026-05-01T10:10:07Z</time></trkpt><trkpt lat="44.425391362541276" lon="9.195294118192951"><ele>135.0</ele><time>2026-05-01T10:10:08Z</time></trkpt><trkpt lat="44.42541411033495" lon="9.195529959954161"><ele>134.0</ele><time>2026-05-01T10:10:09Z</time></trkpt><trkpt lat="44.425402646856135" lon="9.195778308822998"><ele>133.0</ele><time>2026-05-01T10:10:10Z</time></trkpt><trkpt lat="44.42537646664018" lon="9.196056135656702"><ele>132.0</ele><time>2026-05-01T10:10:11Z</time></trkpt><trkpt lat="44.42535480978211" lon="9.196340371707155"><ele>132.33333333333334</ele><time>2026-05-01T10:10:12Z</time></trkpt><trkpt lat="44.42531923737969" lon="9.196620709173338"><ele>132.66666666666669</ele><time>2026-05-01T10:10:13Z</time></trkpt><trkpt lat="44.42527101250006" lon="9.196886292892819"><ele>133.0</ele><time>2026-05-01T10:10:14Z</time></trkpt><trkpt lat="44.42519659589791" lon="9.197148108423486"><ele>138.0</ele><time>2026-05-01T10:10:15Z</time></trkpt><trkpt lat="44.42508011434616" lon="9.197383686023926"><ele>143.0</ele><time>2026-05-01T10:10:16Z</time></trkpt><trkpt lat="44.424974250611875" lon="9.197607784697425"><ele>148.0</ele><time>2026-05-01T10:10:17Z</time></trkpt><trkpt lat="44.42485231117309" lon="9.197768440266577"><ele>148.0</ele><time>2026-05-01T10:10:18Z</time></trkpt><trkpt lat="44.42471298313542" lon="9.197879259862571"><ele>148.0</ele><time>2026-05-01T10:10:19Z</time></trkpt><trkpt lat="44.42450774174503" lon="9.197920416885225"><ele>148.0</ele><time>2026-05-01T10:10:20Z</time></trkpt><trkpt lat="44.42431414480328" lon="9.198062107291845"><ele>144.66666666666669</ele><time>2026-05-01T10:10:21Z</time></trkpt><trkpt lat="44.424114821986" lon="9.198151585138518"><ele>141.33333333333334</ele><time>2026-05-01T10:10:22Z</time></trkpt><trkpt lat="44.423939026063344" lon="9.198213930646396"><ele>138.0</ele><time>2026-05-01T10:10:23Z</time></trkpt><trkpt lat="44.42379737571483" lon="9.198248850464525"><ele>135.5</ele><time>2026-05-01T10:10:24Z</time></trkpt><trkpt lat="44.42369734920344" lon="9.198295836877062"><ele>133.0</ele><time>2026-05-01T10:10:25Z</time></trkpt><trkpt lat="44.423623874557094" lon="9.198388666260549"><ele>130.5</ele><time>2026-05-01T10:10:26Z</time></trkpt><trkpt lat="44.423568572156086" lon="9.198535049026725"><ele>128.0</ele><time>2026-05-01T10:10:27Z</time></trkpt><trkpt lat="44.42351191594312" lon="9.19874187479456"><ele>128.0</ele><time>2026-05-01T10:10:28Z</time></trkpt><trkpt lat="44.423458501606824" lon="9.198981287585639"><ele>128.0</ele><time>2026-05-01T10:10:29Z</time></trkpt><trkpt lat="44.42340142938436" lon="9.199237366475355"><ele>128.0</ele><time>2026-05-01T10:10:30Z</time></trkpt><trkpt lat="44.42334206301586" lon="9.199462365674702"><ele>129.0</ele><time>2026-05-01T10:10:31Z</time></trkpt><trkpt lat="44.42328914130672" lon="9.19967664577921"><ele>130.0</ele><time>2026-05-01T10:10:32Z</time></trkpt><trkpt lat="44.42327913885134" lon="9.199905009832552"><ele>131.0</ele><time>2026-05-01T10:10:33Z</time></trkpt><trkpt lat="44.42333365505359" lon="9.20014768584891"><ele>131.0</ele><time>2026-05-01T10:10:34Z</time></trkpt><trkpt lat="44.42341548498624" lon="9.200397112908822"><ele>131.0</ele><time>2026-05-01T10:10:35Z</time></trkpt><trkpt lat="44.42350997434798" lon="9.200648698266292"><ele>131.0</ele><time>2026-05-01T10:10:36Z</time></trkpt><trkpt lat="44.42359535387828" lon="9.200881780281875"><ele>130.33333333333331</ele><time>2026-05-01T10:10:37.001Z</time></trkpt><trkpt lat="44.42366560842802" lon="9.201093741443128"><ele>129.66666666666666</ele><time>2026-05-01T10:10:38.001Z</time></trkpt><trkpt lat="44.42372964071865" lon="9.201302860341213"><ele>129.0</ele><time>2026-05-01T10:10:39.001Z</time></trkpt><trkpt lat="44.42379089623563" lon="9.201497156711396"><ele>131.33333333333334</ele><time>2026-05-01T10:10:40.001Z</time></trkpt><trkpt lat="44.42385177694797" lon="9.201687851720301"><ele>133.66666666666669</ele><time>2026-05-01T10:10:41.001Z</time></trkpt><trkpt lat="44.423917952675936" lon="9.20189598990177"><ele>136.0</ele><time>2026-05-01T10:10:42.001Z</time></trkpt><trkpt lat="44.42398440346363" lon="9.202106133811773"><ele>136.0</ele><time>2026-05-01T10:10:43.001Z</time></trkpt><trkpt lat="44.42404792664758" lon="9.202300875457185"><ele>136.0</ele><time>2026-05-01T10:10:44.001Z</time></trkpt><trkpt lat="44.42411169658466" lon="9.20249601523608"><ele>136.0</ele><time>2026-05-01T10:10:45.001Z</time></trkpt><trkpt lat="44.42417656246536" lon="9.20269469466057"><ele>133.33333333333334</ele><time>2026-05-01T10:10:46.001Z</time></trkpt><trkpt lat="44.424236870197355" lon="9.20290235733195"><ele>130.66666666666666</ele><time>2026-05-01T10:10:47.001Z</time></trkpt><trkpt lat="44.42427785345432" lon="9.203121658657599"><ele>128.0</ele><time>2026-05-01T10:10:48.001Z</time></trkpt><trkpt lat="44.424292008981006" lon="9.203354413898275"><ele>127.0</ele><time>2026-05-01T10:10:49.001Z</time></trkpt><trkpt lat="44.42427938042247" lon="9.203592612689857"><ele>126.0</ele><time>2026-05-01T10:10:50.001Z</time></trkpt><trkpt lat="44.42422669721042" lon="9.203815736266238"><ele>125.0</ele><time>2026-05-01T10:10:51.001Z</time></trkpt><trkpt lat="44.42421549104694" lon="9.204038305657921"><ele>125.0</ele><time>2026-05-01T10:10:52.001Z</time></trkpt><trkpt lat="44.424217591080044" lon="9.204267512225663"><ele>125.0</ele><time>2026-05-01T10:10:53.001Z</time></trkpt><trkpt lat="44.42425528913986" lon="9.204481201715218"><ele>125.0</ele><time>2026-05-01T10:10:54.001Z</time></trkpt><trkpt lat="44.42428783046238" lon="9.204659279567643"><ele>126.75</ele><time>2026-05-01T10:10:55.001Z</time></trkpt><trkpt lat="44.42426125431544" lon="9.204829638799568"><ele>128.5</ele><time>2026-05-01T10:10:56.001Z</time></trkpt><trkpt lat="44.42416768764955" lon="9.204985447375043"><ele>130.25</ele><time>2026-05-01T10:10:57.001Z</time></trkpt><trkpt lat="44.42405506074518" lon="9.205124706330604"><ele>132.0</ele><time>2026-05-01T10:10:58.001Z</time></trkpt><trkpt lat="44.42391079762174" lon="9.20524019113233"><ele>130.66666666666666</ele><time>2026-05-01T10:10:59.001Z</time></trkpt><trkpt lat="44.423733859563605" lon="9.205361812401144"><ele>129.33333333333331</ele><time>2026-05-01T10:11:00.001Z</time></trkpt><trkpt lat="44.42354541814081" lon="9.205450634027576"><ele>128.0</ele><time>2026-05-01T10:11:01.001Z</time></trkpt><trkpt lat="44.423369785881235" lon="9.205545732635564"><ele>128.0</ele><time>2026-05-01T10:11:02.001Z</time></trkpt><trkpt lat="44.42321507310002" lon="9.205635240748267"><ele>128.0</ele><time>2026-05-01T10:11:03.001Z</time></trkpt><trkpt lat="44.42307302296728" lon="9.205711574208223"><ele>128.0</ele><time>2026-05-01T10:11:04.001Z</time></trkpt><trkpt lat="44.42294028978764" lon="9.205783013506132"><ele>127.75</ele><time>2026-05-01T10:11:05.001Z</time></trkpt><trkpt lat="44.42281572786286" lon="9.205844125762654"><ele>127.5</ele><time>2026-05-01T10:11:06.001Z</time></trkpt><trkpt lat="44.422691714687296" lon="9.205894332735404"><ele>127.25</ele><time>2026-05-01T10:11:07.001Z</time></trkpt><trkpt lat="44.42258406589632" lon="9.205934099335236"><ele>127.0</ele><time>2026-05-01T10:11:08.001Z</time></trkpt><trkpt lat="44.422479932144384" lon="9.205966393504319"><ele>127.0</ele><time>2026-05-01T10:11:09.001Z</time></trkpt><trkpt lat="44.4223788319187" lon="9.2060011159128"><ele>127.0</ele><time>2026-05-01T10:11:10.001Z</time></trkpt><trkpt lat="44.42226443583311" lon="9.206050213783273"><ele>127.0</ele><time>2026-05-01T10:11:11.001Z</time></trkpt><trkpt lat="44.422131805430276" lon="9.206128817156353"><ele>127.0</ele><time>2026-05-01T10:11:12.001Z</time></trkpt><trkpt lat="44.421985580099545" lon="9.206258037125034"><ele>126.66666666666667</ele><time>2026-05-01T10:11:13.001Z</time></trkpt><trkpt lat="44.42183703234629" lon="9.206431574204187"><ele>126.33333333333334</ele><time>2026-05-01T10:11:14.001Z</time></trkpt><trkpt lat="44.42169602756473" lon="9.206604712820457"><ele>126.0</ele><time>2026-05-01T10:11:15.001Z</time></trkpt><trkpt lat="44.42157300521945" lon="9.20674871089606"><ele>126.0</ele><time>2026-05-01T10:11:16.001Z</time></trkpt><trkpt lat="44.421456147634764" lon="9.206879357068631"><ele>126.0</ele><time>2026-05-01T10:11:17.001Z</time></trkpt><trkpt lat="44.42134405296312" lon="9.207002875442384"><ele>126.0</ele><time>2026-05-01T10:11:18.001Z</time></trkpt><trkpt lat="44.42123913693456" lon="9.207120241701665"><ele>126.0</ele><time>2026-05-01T10:11:19.001Z</time></trkpt><trkpt lat="44.42114325664653" lon="9.207230631830964"><ele>125.5</ele><time>2026-05-01T10:11:20.001Z</time></trkpt><trkpt lat="44.42105007090167" lon="9.207347121450656"><ele>125.0</ele><time>2026-05-01T10:11:21.001Z</time></trkpt><trkpt lat="44.42093970699891" lon="9.207478076936843"><ele>124.5</ele><time>2026-05-01T10:11:22.001Z</time></trkpt><trkpt lat="44.42081300380894" lon="9.207625574742236"><ele>124.0</ele><time>2026-05-01T10:11:23.001Z</time></trkpt><trkpt lat="44.42069096797644" lon="9.207794556525318"><ele>124.0</ele><time>2026-05-01T10:11:24.001Z</time></trkpt><trkpt lat="44.42058692813387" lon="9.207968394813017"><ele>124.0</ele><time>2026-05-01T10:11:25.001Z</time></trkpt><trkpt lat="44.42050670154173" lon="9.208134485824187"><ele>124.0</ele><time>2026-05-01T10:11:26.001Z</time></trkpt><trkpt lat="44.42042871980084" lon="9.208308353989528"><ele>123.75</ele><time>2026-05-01T10:11:27.001Z</time></trkpt><trkpt lat="44.420357475296136" lon="9.208469312929553"><ele>123.5</ele><time>2026-05-01T10:11:28.001Z</time></trkpt><trkpt lat="44.42028586431944" lon="9.20862529819764"><ele>123.25</ele><time>2026-05-01T10:11:28.999Z</time></trkpt><trkpt lat="44.42021214668955" lon="9.208779383595461"><ele>123.0</ele><time>2026-05-01T10:11:29.999Z</time></trkpt><trkpt lat="44.42013881785765" lon="9.208933099332246"><ele>123.75</ele><time>2026-05-01T10:11:30.999Z</time></trkpt><trkpt lat="44.420067222905175" lon="9.209088504951499"><ele>124.5</ele><time>2026-05-01T10:11:31.999Z</time></trkpt><trkpt lat="44.420004006982644" lon="9.209231154869897"><ele>125.25</ele><time>2026-05-01T10:11:32.999Z</time></trkpt><trkpt lat="44.41994854223222" lon="9.209364505093404"><ele>126.0</ele><time>2026-05-01T10:11:33.999Z</time></trkpt><trkpt lat="44.41988853209871" lon="9.209503383530132"><ele>126.0</ele><time>2026-05-01T10:11:34.999Z</time></trkpt><trkpt lat="44.4198213386402" lon="9.209647083411102"><ele>126.0</ele><time>2026-05-01T10:11:35.999Z</time></trkpt><trkpt lat="44.41974531522451" lon="9.2098119261625"><ele>126.0</ele><time>2026-05-01T10:11:36.999Z</time></trkpt><trkpt lat="44.4196385173788" lon="9.209991512417842"><ele>126.0</ele><time>2026-05-01T10:11:37.999Z</time></trkpt><trkpt lat="44.4195405359032" lon="9.210196642411987"><ele>126.0</ele><time>2026-05-01T10:11:38.999Z</time></trkpt><trkpt lat="44.419453766642654" lon="9.210381446078543"><ele>126.0</ele><time>2026-05-01T10:11:39.999Z</time></trkpt><trkpt lat="44.419392128323366" lon="9.210556315354626"><ele>126.0</ele><time>2026-05-01T10:11:40.999Z</time></trkpt><trkpt lat="44.41932505423437" lon="9.210695849555147"><ele>126.0</ele><time>2026-05-01T10:11:41.999Z</time></trkpt><trkpt lat="44.41927337611506" lon="9.210812080118371"><ele>126.0</ele><time>2026-05-01T10:11:42.999Z</time></trkpt><trkpt lat="44.41923164793481" lon="9.210906981812053"><ele>126.0</ele><time>2026-05-01T10:11:44Z</time></trkpt><trkpt lat="44.41919112238424" lon="9.210999856503792"><ele>126.0</ele><time>2026-05-01T10:11:45Z</time></trkpt><trkpt lat="44.419141814694804" lon="9.211105166743907"><ele>126.0</ele><time>2026-05-01T10:11:46Z</time></trkpt><trkpt lat="44.419084456058506" lon="9.211232411716685"><ele>126.0</ele><time>2026-05-01T10:11:47Z</time></trkpt><trkpt lat="44.41902221915028" lon="9.211364915692274"><ele>126.0</ele><time>2026-05-01T10:11:48Z</time></trkpt><trkpt lat="44.41895281923141" lon="9.211448441117136"><ele>126.0</ele><time>2026-05-01T10:11:49Z</time></trkpt><trkpt lat="44.41889295597822" lon="9.211575781189907"><ele>126.0</ele><time>2026-05-01T10:11:50Z</time></trkpt><trkpt lat="44.418808992588886" lon="9.211759014080911"><ele>126.0</ele><time>2026-05-01T10:11:51Z</time></trkpt><trkpt lat="44.41870507253722" lon="9.211981015246844"><ele>124.66666666666666</ele><time>2026-05-01T10:11:52Z</time></trkpt><trkpt lat="44.418597849102916" lon="9.212214639172114"><ele>123.33333333333333</ele><time>2026-05-01T10:11:53Z</time></trkpt><trkpt lat="44.418501237338845" lon="9.212434795834872"><ele>122.0</ele><time>2026-05-01T10:11:54Z</time></trkpt><trkpt lat="44.41839386511734" lon="9.212645622467354"><ele>122.0</ele><time>2026-05-01T10:11:55Z</time></trkpt><trkpt lat="44.41829868690227" lon="9.212855529314476"><ele>122.0</ele><time>2026-05-01T10:11:56Z</time></trkpt><trkpt lat="44.4182048100505" lon="9.213066561802593"><ele>122.0</ele><time>2026-05-01T10:11:57Z</time></trkpt><trkpt lat="44.41810775984048" lon="9.213283405775387"><ele>122.33333333333333</ele><time>2026-05-01T10:11:58Z</time></trkpt><trkpt lat="44.418021246517256" lon="9.213509339067782"><ele>122.66666666666666</ele><time>2026-05-01T10:11:59Z</time></trkpt><trkpt lat="44.417950519901005" lon="9.213751381895616"><ele>123.0</ele><time>2026-05-01T10:12:00Z</time></trkpt><trkpt lat="44.4179013513496" lon="9.213995105350032"><ele>121.33333333333334</ele><time>2026-05-01T10:12:01Z</time></trkpt><trkpt lat="44.417856501439346" lon="9.214245407168766"><ele>119.66666666666667</ele><time>2026-05-01T10:12:02Z</time></trkpt><trkpt lat="44.41780569741477" lon="9.214509257160515"><ele>118.0</ele><time>2026-05-01T10:12:03Z</time></trkpt><trkpt lat="44.41774957339591" lon="9.214782341685433"><ele>117.66666666666667</ele><time>2026-05-01T10:12:04Z</time></trkpt><trkpt lat="44.417696662767334" lon="9.21505803730976"><ele>117.33333333333334</ele><time>2026-05-01T10:12:05Z</time></trkpt><trkpt lat="44.41764518604618" lon="9.2153322415413"><ele>117.0</ele><time>2026-05-01T10:12:06Z</time></trkpt><trkpt lat="44.41759721876731" lon="9.215588330108567"><ele>117.25</ele><time>2026-05-01T10:12:07Z</time></trkpt><trkpt lat="44.41755281473044" lon="9.215819993093247"><ele>117.5</ele><time>2026-05-01T10:12:08Z</time></trkpt><trkpt lat="44.417514908880264" lon="9.216013658103773"><ele>117.75</ele><time>2026-05-01T10:12:09Z</time></trkpt><trkpt lat="44.41750671819909" lon="9.216178358111213"><ele>118.0</ele><time>2026-05-01T10:12:10Z</time></trkpt><trkpt lat="44.41754548287764" lon="9.216352450356355"><ele>120.75</ele><time>2026-05-01T10:12:11Z</time></trkpt><trkpt lat="44.417627403845444" lon="9.216536436827388"><ele>123.5</ele><time>2026-05-01T10:12:12Z</time></trkpt><trkpt lat="44.41771588952348" lon="9.216696421151797"><ele>126.25</ele><time>2026-05-01T10:12:13Z</time></trkpt><trkpt lat="44.417772651202654" lon="9.216877709923368"><ele>129.0</ele><time>2026-05-01T10:12:14Z</time></trkpt><trkpt lat="44.417807815768356" lon="9.21708712367508"><ele>129.0</ele><time>2026-05-01T10:12:15Z</time></trkpt><trkpt lat="44.41781645169693" lon="9.217317255299823"><ele>129.0</ele><time>2026-05-01T10:12:16Z</time></trkpt><trkpt lat="44.41780680667354" lon="9.217535818554559"><ele>129.0</ele><time>2026-05-01T10:12:17Z</time></trkpt><trkpt lat="44.417743628743786" lon="9.217732747900754"><ele>126.33333333333334</ele><time>2026-05-01T10:12:18Z</time></trkpt><trkpt lat="44.41764784837672" lon="9.217891897523288"><ele>123.66666666666667</ele><time>2026-05-01T10:12:19Z</time></trkpt><trkpt lat="44.41753104768282" lon="9.218013789617384"><ele>121.0</ele><time>2026-05-01T10:12:20Z</time></trkpt><trkpt lat="44.41738517091658" lon="9.218092508736385"><ele>121.0</ele><time>2026-05-01T10:12:21Z</time></trkpt><trkpt lat="44.41721982074097" lon="9.21814097681053"><ele>121.0</ele><time>2026-05-01T10:12:22Z</time></trkpt><trkpt lat="44.41703443561516" lon="9.218189876550717"><ele>121.0</ele><time>2026-05-01T10:12:23Z</time></trkpt><trkpt lat="44.416848812368755" lon="9.218245397815712"><ele>116.33333333333334</ele><time>2026-05-01T10:12:24Z</time></trkpt><trkpt lat="44.41665245203109" lon="9.218307313881468"><ele>111.66666666666666</ele><time>2026-05-01T10:12:25Z</time></trkpt><trkpt lat="44.41645008026682" lon="9.218380191032564"><ele>107.0</ele><time>2026-05-01T10:12:26Z</time></trkpt><trkpt lat="44.41624612590129" lon="9.218456569095741"><ele>104.33333333333333</ele><time>2026-05-01T10:12:27Z</time></trkpt><trkpt lat="44.41603304261911" lon="9.218529795483416"><ele>101.66666666666666</ele><time>2026-05-01T10:12:28Z</time></trkpt><trkpt lat="44.41583166604133" lon="9.218596261679979"><ele>99.0</ele><time>2026-05-01T10:12:29Z</time></trkpt><trkpt lat="44.415663201651334" lon="9.218652486859048"><ele>99.0</ele><time>2026-05-01T10:12:30Z</time></trkpt><trkpt lat="44.41551827341094" lon="9.218682046505476"><ele>99.0</ele><time>2026-05-01T10:12:31.001Z</time></trkpt><trkpt lat="44.41538472522574" lon="9.2186288313429"><ele>99.0</ele><time>2026-05-01T10:12:32.001Z</time></trkpt><trkpt lat="44.41524798250237" lon="9.218534139950549"><ele>99.0</ele><time>2026-05-01T10:12:33.001Z</time></trkpt><trkpt lat="44.41509540386848" lon="9.218421675693223"><ele>100.0</ele><time>2026-05-01T10:12:34.001Z</time></trkpt><trkpt lat="44.414943499678145" lon="9.218288140903246"><ele>101.0</ele><time>2026-05-01T10:12:35.001Z</time></trkpt><trkpt lat="44.41477863467819" lon="9.218191690093853"><ele>102.0</ele><time>2026-05-01T10:12:36.001Z</time></trkpt><trkpt lat="44.41458606578059" lon="9.218136013271595"><ele>102.0</ele><time>2026-05-01T10:12:37.001Z</time></trkpt><trkpt lat="44.414377330555105" lon="9.218134165990158"><ele>102.0</ele><time>2026-05-01T10:12:38.001Z</time></trkpt><trkpt lat="44.414167033513934" lon="9.218169199618025"><ele>102.0</ele><time>2026-05-01T10:12:39.001Z</time></trkpt><trkpt lat="44.413964081424616" lon="9.218221427282723"><ele>103.66666666666666</ele><time>2026-05-01T10:12:40.001Z</time></trkpt><trkpt lat="44.41376645724984" lon="9.218276594030836"><ele>105.33333333333333</ele><time>2026-05-01T10:12:41.001Z</time></trkpt><trkpt lat="44.41358352616295" lon="9.21836416999665"><ele>107.0</ele><time>2026-05-01T10:12:42.001Z</time></trkpt><trkpt lat="44.41341497164365" lon="9.218501996798986"><ele>107.0</ele><time>2026-05-01T10:12:43.001Z</time></trkpt><trkpt lat="44.413249410543216" lon="9.218665884765292"><ele>107.0</ele><time>2026-05-01T10:12:44.001Z</time></trkpt><trkpt lat="44.41309501495588" lon="9.218828819584544"><ele>107.0</ele><time>2026-05-01T10:12:45.001Z</time></trkpt><trkpt lat="44.41293898587944" lon="9.218977046178296"><ele>107.33333333333333</ele><time>2026-05-01T10:12:46.001Z</time></trkpt><trkpt lat="44.41278020664227" lon="9.21911881698523"><ele>107.66666666666666</ele><time>2026-05-01T10:12:47.001Z</time></trkpt><trkpt lat="44.41262799132767" lon="9.219257477401813"><ele>108.0</ele><time>2026-05-01T10:12:48.001Z</time></trkpt><trkpt lat="44.412484372445185" lon="9.219397830827784"><ele>108.0</ele><time>2026-05-01T10:12:49.001Z</time></trkpt><trkpt lat="44.412359139898605" lon="9.219558177932845"><ele>108.0</ele><time>2026-05-01T10:12:50.001Z</time></trkpt><trkpt lat="44.41224903989506" lon="9.219749113182441"><ele>108.0</ele><time>2026-05-01T10:12:51.001Z</time></trkpt><trkpt lat="44.41217185084701" lon="9.219971525578401"><ele>106.33333333333334</ele><time>2026-05-01T10:12:52.001Z</time></trkpt><trkpt lat="44.412109480494365" lon="9.220207919243824"><ele>104.66666666666667</ele><time>2026-05-01T10:12:53.001Z</time></trkpt><trkpt lat="44.412059886699055" lon="9.220456963259874"><ele>103.0</ele><time>2026-05-01T10:12:54.001Z</time></trkpt><trkpt lat="44.41200534089897" lon="9.220696357491963"><ele>103.0</ele><time>2026-05-01T10:12:55.001Z</time></trkpt><trkpt lat="44.411950663426865" lon="9.22092274132247"><ele>103.0</ele><time>2026-05-01T10:12:56.001Z</time></trkpt><trkpt lat="44.41189730512652" lon="9.221150378360187"><ele>103.0</ele><time>2026-05-01T10:12:57.001Z</time></trkpt><trkpt lat="44.41184456617919" lon="9.221372906030828"><ele>102.66666666666667</ele><time>2026-05-01T10:12:58.001Z</time></trkpt><trkpt lat="44.411799136333904" lon="9.22160149344218"><ele>102.33333333333334</ele><time>2026-05-01T10:12:59.001Z</time></trkpt><trkpt lat="44.41177167753462" lon="9.221846335336082"><ele>102.0</ele><time>2026-05-01T10:13:00.001Z</time></trkpt><trkpt lat="44.4117710111679" lon="9.222098521382332"><ele>103.66666666666666</ele><time>2026-05-01T10:13:01.001Z</time></trkpt><trkpt lat="44.411779979083214" lon="9.222361165443859"><ele>105.33333333333333</ele><time>2026-05-01T10:13:02.001Z</time></trkpt><trkpt lat="44.411800099380834" lon="9.222625624054999"><ele>107.0</ele><time>2026-05-01T10:13:03.001Z</time></trkpt><trkpt lat="44.4118339125918" lon="9.222889359234465"><ele>105.0</ele><time>2026-05-01T10:13:04.001Z</time></trkpt><trkpt lat="44.411871686729036" lon="9.2231514843324"><ele>103.0</ele><time>2026-05-01T10:13:05.001Z</time></trkpt><trkpt lat="44.41191347317194" lon="9.223396344356996"><ele>101.0</ele><time>2026-05-01T10:13:06.001Z</time></trkpt><trkpt lat="44.41194016681179" lon="9.223648253991136"><ele>101.0</ele><time>2026-05-01T10:13:07.001Z</time></trkpt><trkpt lat="44.411950982258965" lon="9.223895616372959"><ele>101.0</ele><time>2026-05-01T10:13:08.001Z</time></trkpt><trkpt lat="44.41195796426491" lon="9.224124841574527"><ele>101.0</ele><time>2026-05-01T10:13:09.001Z</time></trkpt><trkpt lat="44.411992665336086" lon="9.22434313981295"><ele>101.33333333333333</ele><time>2026-05-01T10:13:10.001Z</time></trkpt><trkpt lat="44.41204363385417" lon="9.224572406165972"><ele>101.66666666666666</ele><time>2026-05-01T10:13:11.001Z</time></trkpt><trkpt lat="44.412098846448615" lon="9.224808634670087"><ele>102.0</ele><time>2026-05-01T10:13:12.001Z</time></trkpt><trkpt lat="44.41215366958952" lon="9.225050222860569"><ele>103.5</ele><time>2026-05-01T10:13:13.001Z</time></trkpt><trkpt lat="44.412204845308125" lon="9.225263597822401"><ele>105.0</ele><time>2026-05-01T10:13:14.001Z</time></trkpt><trkpt lat="44.412231993161456" lon="9.225457677471447"><ele>106.5</ele><time>2026-05-01T10:13:15.001Z</time></trkpt><trkpt lat="44.41219977157055" lon="9.225633807103781"><ele>108.0</ele><time>2026-05-01T10:13:16.001Z</time></trkpt><trkpt lat="44.41216056818624" lon="9.22581135088858"><ele>105.5</ele><time>2026-05-01T10:13:17.001Z</time></trkpt><trkpt lat="44.4120571062315" lon="9.225945094658298"><ele>103.0</ele><time>2026-05-01T10:13:18.001Z</time></trkpt><trkpt lat="44.41194059143197" lon="9.22605767714863"><ele>100.5</ele><time>2026-05-01T10:13:19.001Z</time></trkpt><trkpt lat="44.41182622097705" lon="9.22617454425032"><ele>98.0</ele><time>2026-05-01T10:13:20.001Z</time></trkpt><trkpt lat="44.41169251385469" lon="9.226265417015352"><ele>98.0</ele><time>2026-05-01T10:13:21.001Z</time></trkpt><trkpt lat="44.411569823111996" lon="9.226384708578607"><ele>98.0</ele><time>2026-05-01T10:13:22.001Z</time></trkpt><trkpt lat="44.41146797394692" lon="9.226534888340097"><ele>98.0</ele><time>2026-05-01T10:13:23.001Z</time></trkpt><trkpt lat="44.41139562310809" lon="9.226697049738155"><ele>98.0</ele><time>2026-05-01T10:13:24.001Z</time></trkpt><trkpt lat="44.41134987338623" lon="9.226876816307282"><ele>99.25</ele><time>2026-05-01T10:13:25.001Z</time></trkpt><trkpt lat="44.41132965952557" lon="9.227071773608676"><ele>100.5</ele><time>2026-05-01T10:13:26.001Z</time></trkpt><trkpt lat="44.41133175514713" lon="9.22727149510863"><ele>101.75</ele><time>2026-05-01T10:13:27.001Z</time></trkpt><trkpt lat="44.41134342986166" lon="9.227463923402215"><ele>103.0</ele><time>2026-05-01T10:13:28.001Z</time></trkpt><trkpt lat="44.4113444013394" lon="9.227651993766678"><ele>103.5</ele><time>2026-05-01T10:13:29.001Z</time></trkpt><trkpt lat="44.41134531629792" lon="9.227841614521516"><ele>104.0</ele><time>2026-05-01T10:13:30.001Z</time></trkpt><trkpt lat="44.41134783528621" lon="9.228018965029852"><ele>104.5</ele><time>2026-05-01T10:13:31.001Z</time></trkpt><trkpt lat="44.41135523482889" lon="9.228194328839475"><ele>105.0</ele><time>2026-05-01T10:13:32.001Z</time></trkpt><trkpt lat="44.41135884529746" lon="9.22837682428947"><ele>105.0</ele><time>2026-05-01T10:13:33.001Z</time></trkpt><trkpt lat="44.41136032044071" lon="9.228571888004337"><ele>105.0</ele><time>2026-05-01T10:13:34.001Z</time></trkpt><trkpt lat="44.41137021291224" lon="9.228760701528838"><ele>105.0</ele><time>2026-05-01T10:13:34.999Z</time></trkpt><trkpt lat="44.411374518964756" lon="9.228937460306884"><ele>105.0</ele><time>2026-05-01T10:13:35.999Z</time></trkpt><trkpt lat="44.41138043370475" lon="9.229105367056418"><ele>105.0</ele><time>2026-05-01T10:13:36.999Z</time></trkpt><trkpt lat="44.41138957545915" lon="9.22928319780229"><ele>105.0</ele><time>2026-05-01T10:13:37.999Z</time></trkpt><trkpt lat="44.411403967462746" lon="9.229471896560089"><ele>105.0</ele><time>2026-05-01T10:13:38.999Z</time></trkpt><trkpt lat="44.4114167542446" lon="9.22966376191338"><ele>105.0</ele><time>2026-05-01T10:13:39.999Z</time></trkpt><trkpt lat="44.41142601452465" lon="9.229854571316215"><ele>105.0</ele><time>2026-05-01T10:13:40.999Z</time></trkpt><trkpt lat="44.41142914140455" lon="9.230034329645012"><ele>105.0</ele><time>2026-05-01T10:13:41.999Z</time></trkpt><trkpt lat="44.4114290748499" lon="9.230201637869719"><ele>105.0</ele><time>2026-05-01T10:13:42.999Z</time></trkpt><trkpt lat="44.41143247189465" lon="9.2303625613639"><ele>105.0</ele><time>2026-05-01T10:13:44Z</time></trkpt><trkpt lat="44.41140884032649" lon="9.230514779992085"><ele>104.25</ele><time>2026-05-01T10:13:45Z</time></trkpt><trkpt lat="44.411380148059344" lon="9.230676575850325"><ele>103.5</ele><time>2026-05-01T10:13:46Z</time></trkpt><trkpt lat="44.41135168649509" lon="9.230837828999006"><ele>102.75</ele><time>2026-05-01T10:13:47Z</time></trkpt><trkpt lat="44.41132148250333" lon="9.231002335390443"><ele>102.0</ele><time>2026-05-01T10:13:48Z</time></trkpt><trkpt lat="44.41129188686059" lon="9.231168356164343"><ele>99.0</ele><time>2026-05-01T10:13:49Z</time></trkpt><trkpt lat="44.411266741542015" lon="9.231331742846178"><ele>96.0</ele><time>2026-05-01T10:13:50Z</time></trkpt><trkpt lat="44.411243863263785" lon="9.231474947448367"><ele>93.0</ele><time>2026-05-01T10:13:51Z</time></trkpt><trkpt lat="44.41122163327495" lon="9.23161270697786"><ele>90.0</ele><time>2026-05-01T10:13:52Z</time></trkpt><trkpt lat="44.411198988920155" lon="9.231753525129532"><ele>87.0</ele><time>2026-05-01T10:13:53Z</time></trkpt><trkpt lat="44.41117453370549" lon="9.231905254702994"><ele>87.0</ele><time>2026-05-01T10:13:54Z</time></trkpt><trkpt lat="44.411149846942635" lon="9.232056875317086"><ele>87.0</ele><time>2026-05-01T10:13:55Z</time></trkpt><trkpt lat="44.411129189789065" lon="9.232187703721571"><ele>87.0</ele><time>2026-05-01T10:13:56Z</time></trkpt><trkpt lat="44.41110887777321" lon="9.232318640608566"><ele>87.0</ele><time>2026-05-01T10:13:57Z</time></trkpt><trkpt lat="44.41109142896387" lon="9.232441837610688"><ele>87.0</ele><time>2026-05-01T10:13:58Z</time></trkpt><trkpt lat="44.41107144162991" lon="9.232561640522478"><ele>87.0</ele><time>2026-05-01T10:13:59Z</time></trkpt><trkpt lat="44.41104971272023" lon="9.232673584050765"><ele>87.0</ele><time>2026-05-01T10:14:00Z</time></trkpt><trkpt lat="44.4110275429776" lon="9.232783302973719"><ele>87.0</ele><time>2026-05-01T10:14:01Z</time></trkpt><trkpt lat="44.411005453223396" lon="9.232886898993135"><ele>87.0</ele><time>2026-05-01T10:14:02Z</time></trkpt><trkpt lat="44.410987615050665" lon="9.233011142064944"><ele>87.0</ele><time>2026-05-01T10:14:03Z</time></trkpt><trkpt lat="44.41096136925299" lon="9.233145867537612"><ele>87.0</ele><time>2026-05-01T10:14:04Z</time></trkpt><trkpt lat="44.4109349403097" lon="9.233309006018361"><ele>87.0</ele><time>2026-05-01T10:14:05Z</time></trkpt><trkpt lat="44.41090582519714" lon="9.233476564038988"><ele>87.0</ele><time>2026-05-01T10:14:06Z</time></trkpt><trkpt lat="44.41087245461663" lon="9.233657493891123"><ele>87.0</ele><time>2026-05-01T10:14:07Z</time></trkpt><trkpt lat="44.41083074759278" lon="9.233850514856002"><ele>87.0</ele><time>2026-05-01T10:14:08Z</time></trkpt><trkpt lat="44.410778495927524" lon="9.234044193427481"><ele>88.5</ele><time>2026-05-01T10:14:09Z</time></trkpt><trkpt lat="44.41070864559316" lon="9.234230099392603"><ele>90.0</ele><time>2026-05-01T10:14:10Z</time></trkpt><trkpt lat="44.41063079909579" lon="9.23439509420178"><ele>91.5</ele><time>2026-05-01T10:14:11Z</time></trkpt><trkpt lat="44.41056653176202" lon="9.234538658779815"><ele>93.0</ele><time>2026-05-01T10:14:12Z</time></trkpt><trkpt lat="44.41051668783953" lon="9.234681130350129"><ele>90.80000000000001</ele><time>2026-05-01T10:14:13Z</time></trkpt><trkpt lat="44.41048419871577" lon="9.234823714564687"><ele>88.6</ele><time>2026-05-01T10:14:14Z</time></trkpt><trkpt lat="44.410458574955555" lon="9.234960355680892"><ele>86.4</ele><time>2026-05-01T10:14:15Z</time></trkpt><trkpt lat="44.41043250751891" lon="9.23508560329711"><ele>84.19999999999999</ele><time>2026-05-01T10:14:16Z</time></trkpt><trkpt lat="44.410380178567266" lon="9.235200399785974"><ele>82.0</ele><time>2026-05-01T10:14:17Z</time></trkpt><trkpt lat="44.410327280030025" lon="9.235324384123018"><ele>82.0</ele><time>2026-05-01T10:14:18Z</time></trkpt><trkpt lat="44.41027429768055" lon="9.235446404127861"><ele>82.0</ele><time>2026-05-01T10:14:19Z</time></trkpt><trkpt lat="44.41022429988821" lon="9.235564305464386"><ele>82.0</ele><time>2026-05-01T10:14:20Z</time></trkpt><trkpt lat="44.41019055922453" lon="9.235680867265907"><ele>82.0</ele><time>2026-05-01T10:14:21Z</time></trkpt><trkpt lat="44.41013704916147" lon="9.235779877178352"><ele>82.0</ele><time>2026-05-01T10:14:22Z</time></trkpt><trkpt lat="44.41009072651774" lon="9.235881097838702"><ele>82.39999999999999</ele><time>2026-05-01T10:14:23Z</time></trkpt><trkpt lat="44.41001000441808" lon="9.235967530485302"><ele>82.8</ele><time>2026-05-01T10:14:24Z</time></trkpt><trkpt lat="44.40995943842021" lon="9.236078600075679"><ele>83.2</ele><time>2026-05-01T10:14:25Z</time></trkpt><trkpt lat="44.40991985067512" lon="9.236190423535549"><ele>83.6</ele><time>2026-05-01T10:14:26Z</time></trkpt><trkpt lat="44.409876883179614" lon="9.236287605986607"><ele>84.0</ele><time>2026-05-01T10:14:27Z</time></trkpt><trkpt lat="44.40982988910889" lon="9.2363945716436"><ele>84.0</ele><time>2026-05-01T10:14:28Z</time></trkpt><trkpt lat="44.40978356442707" lon="9.236510469987342"><ele>84.0</ele><time>2026-05-01T10:14:29Z</time></trkpt><trkpt lat="44.409754320901484" lon="9.236637107048146"><ele>84.0</ele><time>2026-05-01T10:14:30Z</time></trkpt><trkpt lat="44.40971383362903" lon="9.236749177448019"><ele>84.0</ele><time>2026-05-01T10:14:31.001Z</time></trkpt><trkpt lat="44.40968814987966" lon="9.236849952224535"><ele>84.0</ele><time>2026-05-01T10:14:32.001Z</time></trkpt><trkpt lat="44.409656563396815" lon="9.236951914505857"><ele>84.0</ele><time>2026-05-01T10:14:33.001Z</time></trkpt><trkpt lat="44.409624282330334" lon="9.2370545045106"><ele>84.0</ele><time>2026-05-01T10:14:34.001Z</time></trkpt><trkpt lat="44.40959075192223" lon="9.237164450434326"><ele>84.0</ele><time>2026-05-01T10:14:35.001Z</time></trkpt><trkpt lat="44.40955575832685" lon="9.237275432486355"><ele>84.0</ele><time>2026-05-01T10:14:36.001Z</time></trkpt><trkpt lat="44.40951896982488" lon="9.237389048888167"><ele>84.0</ele><time>2026-05-01T10:14:37.001Z</time></trkpt><trkpt lat="44.4094801485419" lon="9.237511677352911"><ele>84.0</ele><time>2026-05-01T10:14:38.001Z</time></trkpt><trkpt lat="44.40943664960851" lon="9.237629614500147"><ele>84.2</ele><time>2026-05-01T10:14:39.001Z</time></trkpt><trkpt lat="44.40938026541077" lon="9.237737589210367"><ele>84.4</ele><time>2026-05-01T10:14:40.001Z</time></trkpt><trkpt lat="44.40931797999322" lon="9.237839024560042"><ele>84.6</ele><time>2026-05-01T10:14:41.001Z</time></trkpt><trkpt lat="44.409243920741005" lon="9.237928399251265"><ele>84.8</ele><time>2026-05-01T10:14:42.001Z</time></trkpt><trkpt lat="44.409161830284084" lon="9.238009285862862"><ele>85.0</ele><time>2026-05-01T10:14:43.001Z</time></trkpt><trkpt lat="44.409078921849655" lon="9.238097712940174"><ele>83.75</ele><time>2026-05-01T10:14:44.001Z</time></trkpt><trkpt lat="44.40899195245049" lon="9.238186636467567"><ele>82.5</ele><time>2026-05-01T10:14:45.001Z</time></trkpt><trkpt lat="44.408906855422885" lon="9.238278536343936"><ele>81.25</ele><time>2026-05-01T10:14:46.001Z</time></trkpt><trkpt lat="44.408809702553334" lon="9.238383688519761"><ele>80.0</ele><time>2026-05-01T10:14:47.001Z</time></trkpt><trkpt lat="44.40869569953627" lon="9.238508919442685"><ele>80.0</ele><time>2026-05-01T10:14:48.001Z</time></trkpt><trkpt lat="44.408556160311164" lon="9.238658616490559"><ele>80.0</ele><time>2026-05-01T10:14:49.001Z</time></trkpt><trkpt lat="44.40839718075909" lon="9.238831023931557"><ele>80.0</ele><time>2026-05-01T10:14:50.001Z</time></trkpt><trkpt lat="44.40822443100757" lon="9.239014386306682"><ele>81.66666666666667</ele><time>2026-05-01T10:14:51.001Z</time></trkpt><trkpt lat="44.408052369614005" lon="9.239197457627979"><ele>83.33333333333333</ele><time>2026-05-01T10:14:52.001Z</time></trkpt><trkpt lat="44.407884261021934" lon="9.239380760032478"><ele>85.0</ele><time>2026-05-01T10:14:53.001Z</time></trkpt><trkpt lat="44.407702625700225" lon="9.239541982641544"><ele>85.0</ele><time>2026-05-01T10:14:54.001Z</time></trkpt><trkpt lat="44.407541687154925" lon="9.239710934506114"><ele>85.0</ele><time>2026-05-01T10:14:55.001Z</time></trkpt><trkpt lat="44.40737467696419" lon="9.239886260223766"><ele>85.0</ele><time>2026-05-01T10:14:56.001Z</time></trkpt><trkpt lat="44.40719845773976" lon="9.240071252286846"><ele>85.0</ele><time>2026-05-01T10:14:57.001Z</time></trkpt><trkpt lat="44.40702320525829" lon="9.240254758482987"><ele>85.0</ele><time>2026-05-01T10:14:58.001Z</time></trkpt><trkpt lat="44.40685875022409" lon="9.240427066473789"><ele>85.0</ele><time>2026-05-01T10:14:59.001Z</time></trkpt><trkpt lat="44.40667237719221" lon="9.240620170476102"><ele>85.5</ele><time>2026-05-01T10:15:00.001Z</time></trkpt><trkpt lat="44.40647140213043" lon="9.240829160874092"><ele>86.0</ele><time>2026-05-01T10:15:01.001Z</time></trkpt><trkpt lat="44.406304345793835" lon="9.241030566275256"><ele>86.0</ele><time>2026-05-01T10:15:02.001Z</time></trkpt><trkpt lat="44.40614265534814" lon="9.24118183651886"><ele>86.0</ele><time>2026-05-01T10:15:03.001Z</time></trkpt><trkpt lat="44.40598219590962" lon="9.241359498230954"><ele>86.0</ele><time>2026-05-01T10:15:04.001Z</time></trkpt><trkpt lat="44.40584614926792" lon="9.241544895814574"><ele>87.33333333333334</ele><time>2026-05-01T10:15:05.001Z</time></trkpt><trkpt lat="44.405740464247415" lon="9.241780526879433"><ele>88.66666666666667</ele><time>2026-05-01T10:15:06.001Z</time></trkpt><trkpt lat="44.40565140639045" lon="9.242038268120131"><ele>90.0</ele><time>2026-05-01T10:15:07.001Z</time></trkpt><trkpt lat="44.40556317937096" lon="9.24229492148707"><ele>88.33333333333333</ele><time>2026-05-01T10:15:08.001Z</time></trkpt><trkpt lat="44.40547070672963" lon="9.242538130351337"><ele>86.66666666666666</ele><time>2026-05-01T10:15:09.001Z</time></trkpt><trkpt lat="44.40538113541809" lon="9.242764583581963"><ele>85.0</ele><time>2026-05-01T10:15:10.001Z</time></trkpt><trkpt lat="44.40529525340255" lon="9.242987037542179"><ele>85.66666666666666</ele><time>2026-05-01T10:15:11.001Z</time></trkpt><trkpt lat="44.405212642974426" lon="9.2432035910536"><ele>86.33333333333333</ele><time>2026-05-01T10:15:12.001Z</time></trkpt><trkpt lat="44.4051251299603" lon="9.243423256421076"><ele>87.0</ele><time>2026-05-01T10:15:13.001Z</time></trkpt><trkpt lat="44.405038070516056" lon="9.243647518809391"><ele>87.0</ele><time>2026-05-01T10:15:14.001Z</time></trkpt><trkpt lat="44.40495294213292" lon="9.243881211704105"><ele>87.0</ele><time>2026-05-01T10:15:15.001Z</time></trkpt><trkpt lat="44.404858679794756" lon="9.244127445817305"><ele>87.0</ele><time>2026-05-01T10:15:16.001Z</time></trkpt><trkpt lat="44.40476255324872" lon="9.24436887523842"><ele>87.0</ele><time>2026-05-01T10:15:17.001Z</time></trkpt><trkpt lat="44.40466881262088" lon="9.244619124782588"><ele>87.0</ele><time>2026-05-01T10:15:18.001Z</time></trkpt><trkpt lat="44.404573211775286" lon="9.244867182049763"><ele>87.0</ele><time>2026-05-01T10:15:19.001Z</time></trkpt><trkpt lat="44.4044810059237" lon="9.24510413790328"><ele>86.0</ele><time>2026-05-01T10:15:20.001Z</time></trkpt><trkpt lat="44.404386205914335" lon="9.24534588632655"><ele>85.0</ele><time>2026-05-01T10:15:21.001Z</time></trkpt><trkpt lat="44.404291640135334" lon="9.245578406875774"><ele>84.0</ele><time>2026-05-01T10:15:22.001Z</time></trkpt><trkpt lat="44.40419945246371" lon="9.245801079737333"><ele>83.66666666666667</ele><time>2026-05-01T10:15:23.001Z</time></trkpt><trkpt lat="44.404111398729" lon="9.246022846943085"><ele>83.33333333333334</ele><time>2026-05-01T10:15:24.001Z</time></trkpt><trkpt lat="44.40401988257818" lon="9.246247837220013"><ele>83.0</ele><time>2026-05-01T10:15:25.001Z</time></trkpt><trkpt lat="44.40393261319192" lon="9.246468764045511"><ele>82.0</ele><time>2026-05-01T10:15:26.001Z</time></trkpt><trkpt lat="44.40385112529453" lon="9.246698181450348"><ele>81.0</ele><time>2026-05-01T10:15:27.001Z</time></trkpt><trkpt lat="44.40376534976889" lon="9.246924464070208"><ele>80.0</ele><time>2026-05-01T10:15:28.001Z</time></trkpt><trkpt lat="44.40367475941145" lon="9.24714772693532"><ele>80.66666666666667</ele><time>2026-05-01T10:15:29.001Z</time></trkpt><trkpt lat="44.40358673078202" lon="9.24737566047135"><ele>81.33333333333333</ele><time>2026-05-01T10:15:30.002Z</time></trkpt><trkpt lat="44.403499302482054" lon="9.247604113895155"><ele>82.0</ele><time>2026-05-01T10:15:31.002Z</time></trkpt><trkpt lat="44.40341477399674" lon="9.247829987926602"><ele>82.0</ele><time>2026-05-01T10:15:32.002Z</time></trkpt><trkpt lat="44.403327899078235" lon="9.2480495947284"><ele>82.0</ele><time>2026-05-01T10:15:33.002Z</time></trkpt><trkpt lat="44.40324006760856" lon="9.24825931370823"><ele>82.0</ele><time>2026-05-01T10:15:34.002Z</time></trkpt><trkpt lat="44.403158668298" lon="9.24846553473374"><ele>81.66666666666666</ele><time>2026-05-01T10:15:35.002Z</time></trkpt><trkpt lat="44.40308717008836" lon="9.24867143420693"><ele>81.33333333333333</ele><time>2026-05-01T10:15:36.002Z</time></trkpt><trkpt lat="44.40300986651627" lon="9.248882619860167"><ele>81.0</ele><time>2026-05-01T10:15:37.002Z</time></trkpt><trkpt lat="44.402939674952336" lon="9.249099080688822"><ele>80.33333333333333</ele><time>2026-05-01T10:15:38.002Z</time></trkpt><trkpt lat="44.40286805988328" lon="9.249298427733086"><ele>79.66666666666666</ele><time>2026-05-01T10:15:39.002Z</time></trkpt><trkpt lat="44.40280407985757" lon="9.24948728312722"><ele>79.0</ele><time>2026-05-01T10:15:40.002Z</time></trkpt><trkpt lat="44.40274064917773" lon="9.249666300176854"><ele>78.25</ele><time>2026-05-01T10:15:41Z</time></trkpt><trkpt lat="44.40268321027642" lon="9.249836762470027"><ele>77.5</ele><time>2026-05-01T10:15:41.999Z</time></trkpt><trkpt lat="44.40262640035737" lon="9.250001832545438"><ele>76.75</ele><time>2026-05-01T10:15:43Z</time></trkpt><trkpt lat="44.402561099522444" lon="9.250176614031359"><ele>76.0</ele><time>2026-05-01T10:15:44Z</time></trkpt><trkpt lat="44.40249582658846" lon="9.250377363691646"><ele>76.0</ele><time>2026-05-01T10:15:45Z</time></trkpt><trkpt lat="44.40242468303249" lon="9.250584869705063"><ele>76.0</ele><time>2026-05-01T10:15:46Z</time></trkpt><trkpt lat="44.402344235402865" lon="9.250796832780782"><ele>76.0</ele><time>2026-05-01T10:15:47Z</time></trkpt><trkpt lat="44.402264282246655" lon="9.251019885918769"><ele>76.0</ele><time>2026-05-01T10:15:48Z</time></trkpt><trkpt lat="44.402195521782296" lon="9.251228476288055"><ele>76.0</ele><time>2026-05-01T10:15:49Z</time></trkpt><trkpt lat="44.40212950293772" lon="9.251420485622264"><ele>76.0</ele><time>2026-05-01T10:15:50Z</time></trkpt><trkpt lat="44.40206743344834" lon="9.251603929630479"><ele>76.0</ele><time>2026-05-01T10:15:51Z</time></trkpt><trkpt lat="44.40201059767835" lon="9.25177241100806"><ele>76.0</ele><time>2026-05-01T10:15:52Z</time></trkpt><trkpt lat="44.40195275035356" lon="9.251932692894304"><ele>76.0</ele><time>2026-05-01T10:15:53Z</time></trkpt><trkpt lat="44.401893766404676" lon="9.252093718487815"><ele>76.0</ele><time>2026-05-01T10:15:54Z</time></trkpt><trkpt lat="44.40183321125709" lon="9.252269991351474"><ele>76.25</ele><time>2026-05-01T10:15:55Z</time></trkpt><trkpt lat="44.40177614731483" lon="9.252444857343281"><ele>76.5</ele><time>2026-05-01T10:15:56Z</time></trkpt><trkpt lat="44.401725815254224" lon="9.252604178181407"><ele>76.75</ele><time>2026-05-01T10:15:57Z</time></trkpt><trkpt lat="44.40166251674555" lon="9.252746600352559"><ele>77.0</ele><time>2026-05-01T10:15:58Z</time></trkpt><trkpt lat="44.40160853983039" lon="9.252900023630936"><ele>77.0</ele><time>2026-05-01T10:15:59Z</time></trkpt><trkpt lat="44.40156027903775" lon="9.25308064594954"><ele>77.0</ele><time>2026-05-01T10:16:00Z</time></trkpt><trkpt lat="44.401494627224075" lon="9.253240001252728"><ele>77.0</ele><time>2026-05-01T10:16:01Z</time></trkpt><trkpt lat="44.40143932603057" lon="9.253396342103139"><ele>77.0</ele><time>2026-05-01T10:16:02Z</time></trkpt><trkpt lat="44.401396073296404" lon="9.253531356447692"><ele>77.33333333333334</ele><time>2026-05-01T10:16:03Z</time></trkpt><trkpt lat="44.401352437024215" lon="9.253641252284957"><ele>77.66666666666667</ele><time>2026-05-01T10:16:04Z</time></trkpt><trkpt lat="44.40130919198856" lon="9.253741713722883"><ele>78.0</ele><time>2026-05-01T10:16:05Z</time></trkpt><trkpt lat="44.40127344676588" lon="9.253836695990058"><ele>78.33333333333333</ele><time>2026-05-01T10:16:06Z</time></trkpt><trkpt lat="44.40123780280529" lon="9.25393435024961"><ele>78.66666666666666</ele><time>2026-05-01T10:16:07Z</time></trkpt><trkpt lat="44.40120508265608" lon="9.254040721666302"><ele>79.0</ele><time>2026-05-01T10:16:08Z</time></trkpt><trkpt lat="44.401171062437335" lon="9.254154265960288"><ele>78.33333333333333</ele><time>2026-05-01T10:16:09Z</time></trkpt><trkpt lat="44.40114290942298" lon="9.254275872588885"><ele>77.66666666666666</ele><time>2026-05-01T10:16:10Z</time></trkpt><trkpt lat="44.401095617169645" lon="9.254384683462947"><ele>77.0</ele><time>2026-05-01T10:16:11Z</time></trkpt><trkpt lat="44.40105688142518" lon="9.254482359323763"><ele>76.33333333333333</ele><time>2026-05-01T10:16:12Z</time></trkpt><trkpt lat="44.40102373450926" lon="9.254575549134982"><ele>75.66666666666667</ele><time>2026-05-01T10:16:13Z</time></trkpt><trkpt lat="44.40098943344956" lon="9.254678303784198"><ele>75.0</ele><time>2026-05-01T10:16:14Z</time></trkpt><trkpt lat="44.40095191252931" lon="9.254794798591494"><ele>75.0</ele><time>2026-05-01T10:16:15Z</time></trkpt><trkpt lat="44.40091345731912" lon="9.254919572861082"><ele>75.0</ele><time>2026-05-01T10:16:16Z</time></trkpt><trkpt lat="44.400869455012064" lon="9.255048233121471"><ele>75.0</ele><time>2026-05-01T10:16:17Z</time></trkpt><trkpt lat="44.40082492126427" lon="9.255180270248971"><ele>75.0</ele><time>2026-05-01T10:16:18Z</time></trkpt><trkpt lat="44.400762119057845" lon="9.25530416904914"><ele>75.0</ele><time>2026-05-01T10:16:19Z</time></trkpt><trkpt lat="44.400740435884934" lon="9.255464000509871"><ele>74.75</ele><time>2026-05-01T10:16:20Z</time></trkpt><trkpt lat="44.40072595207736" lon="9.255626663755331"><ele>74.5</ele><time>2026-05-01T10:16:21Z</time></trkpt><trkpt lat="44.400745887560625" lon="9.25580023572361"><ele>74.25</ele><time>2026-05-01T10:16:22Z</time></trkpt><trkpt lat="44.40079697638941" lon="9.255971079423077"><ele>74.0</ele><time>2026-05-01T10:16:23Z</time></trkpt><trkpt lat="44.400847334813086" lon="9.256138428002245"><ele>74.0</ele><time>2026-05-01T10:16:24Z</time></trkpt><trkpt lat="44.400894073588105" lon="9.25631220433169"><ele>74.0</ele><time>2026-05-01T10:16:25Z</time></trkpt><trkpt lat="44.400936835873466" lon="9.256484704640382"><ele>74.0</ele><time>2026-05-01T10:16:26Z</time></trkpt><trkpt lat="44.40098370326962" lon="9.256657386859166"><ele>74.0</ele><time>2026-05-01T10:16:27Z</time></trkpt><trkpt lat="44.401024846823816" lon="9.256825745354774"><ele>74.0</ele><time>2026-05-01T10:16:28Z</time></trkpt><trkpt lat="44.401061819424655" lon="9.2570022738813"><ele>74.0</ele><time>2026-05-01T10:16:29Z</time></trkpt><trkpt lat="44.40109620057253" lon="9.257171580437292"><ele>74.0</ele><time>2026-05-01T10:16:30Z</time></trkpt><trkpt lat="44.4011274770359" lon="9.257325680553134"><ele>74.0</ele><time>2026-05-01T10:16:31Z</time></trkpt><trkpt lat="44.40114779056752" lon="9.257484181599665"><ele>74.0</ele><time>2026-05-01T10:16:32Z</time></trkpt><trkpt lat="44.40114999059196" lon="9.257638677054493"><ele>74.0</ele><time>2026-05-01T10:16:33Z</time></trkpt><trkpt lat="44.40113234160558" lon="9.257797151338304"><ele>74.0</ele><time>2026-05-01T10:16:34Z</time></trkpt><trkpt lat="44.4010924669" lon="9.257950019070117"><ele>74.0</ele><time>2026-05-01T10:16:35Z</time></trkpt><trkpt lat="44.4010372682854" lon="9.25809508424052"><ele>75.0</ele><time>2026-05-01T10:16:36Z</time></trkpt><trkpt lat="44.40094890183019" lon="9.258235111283799"><ele>76.0</ele><time>2026-05-01T10:16:37Z</time></trkpt><trkpt lat="44.4008437281449" lon="9.258401126568105"><ele>77.0</ele><time>2026-05-01T10:16:38.001Z</time></trkpt><trkpt lat="44.400752137394996" lon="9.258553155155466"><ele>78.0</ele><time>2026-05-01T10:16:39.001Z</time></trkpt><trkpt lat="44.40066881988756" lon="9.258684948857834"><ele>78.0</ele><time>2026-05-01T10:16:40.001Z</time></trkpt><trkpt lat="44.4005986083755" lon="9.25880862951534"><ele>78.0</ele><time>2026-05-01T10:16:41.001Z</time></trkpt><trkpt lat="44.40053042897114" lon="9.258939963359055"><ele>78.0</ele><time>2026-05-01T10:16:42.001Z</time></trkpt><trkpt lat="44.40046045993522" lon="9.25906735822921"><ele>78.0</ele><time>2026-05-01T10:16:43.001Z</time></trkpt><trkpt lat="44.400380838789054" lon="9.259171005018581"><ele>77.5</ele><time>2026-05-01T10:16:44.001Z</time></trkpt><trkpt lat="44.400287291372265" lon="9.259269541523064"><ele>77.0</ele><time>2026-05-01T10:16:45.001Z</time></trkpt><trkpt lat="44.40017653784675" lon="9.259330986936188"><ele>76.5</ele><time>2026-05-01T10:16:46.001Z</time></trkpt><trkpt lat="44.40005680812901" lon="9.259371158492197"><ele>76.0</ele><time>2026-05-01T10:16:47.001Z</time></trkpt><trkpt lat="44.39993755801142" lon="9.259402758485448"><ele>76.0</ele><time>2026-05-01T10:16:48.001Z</time></trkpt><trkpt lat="44.39983122736976" lon="9.259434822340296"><ele>76.0</ele><time>2026-05-01T10:16:49.001Z</time></trkpt><trkpt lat="44.39973310695726" lon="9.259467641657155"><ele>76.0</ele><time>2026-05-01T10:16:50.001Z</time></trkpt><trkpt lat="44.39963489778941" lon="9.259504522923882"><ele>76.0</ele><time>2026-05-01T10:16:51.001Z</time></trkpt><trkpt lat="44.39953299219905" lon="9.25953643550779"><ele>76.0</ele><time>2026-05-01T10:16:52.001Z</time></trkpt><trkpt lat="44.3994226606939" lon="9.259571741198974"><ele>74.6</ele><time>2026-05-01T10:16:53.001Z</time></trkpt><trkpt lat="44.3993046345767" lon="9.259612165952625"><ele>73.19999999999999</ele><time>2026-05-01T10:16:54.001Z</time></trkpt><trkpt lat="44.399191104744695" lon="9.259650504491617"><ele>71.80000000000001</ele><time>2026-05-01T10:16:55.001Z</time></trkpt><trkpt lat="44.39909288371377" lon="9.259685889782164"><ele>70.4</ele><time>2026-05-01T10:16:56.001Z</time></trkpt><trkpt lat="44.39899838729197" lon="9.259718759087276"><ele>69.0</ele><time>2026-05-01T10:16:57.001Z</time></trkpt><trkpt lat="44.398897038570254" lon="9.259729399483783"><ele>69.0</ele><time>2026-05-01T10:16:58.001Z</time></trkpt><trkpt lat="44.3987871161263" lon="9.259717760115693"><ele>69.0</ele><time>2026-05-01T10:16:59.001Z</time></trkpt><trkpt lat="44.39867421731112" lon="9.2596704821271"><ele>69.0</ele><time>2026-05-01T10:17:00.001Z</time></trkpt><trkpt lat="44.398563383937635" lon="9.259597958190303"><ele>69.0</ele><time>2026-05-01T10:17:01.001Z</time></trkpt><trkpt lat="44.39845004813798" lon="9.25952191187365"><ele>69.0</ele><time>2026-05-01T10:17:02.001Z</time></trkpt><trkpt lat="44.39833014910391" lon="9.25945990505273"><ele>69.0</ele><time>2026-05-01T10:17:03.001Z</time></trkpt><trkpt lat="44.398204580094934" lon="9.25942196429299"><ele>69.0</ele><time>2026-05-01T10:17:04.001Z</time></trkpt><trkpt lat="44.39807475819438" lon="9.259392498027598"><ele>69.0</ele><time>2026-05-01T10:17:05.001Z</time></trkpt><trkpt lat="44.39794161807863" lon="9.25937504627258"><ele>69.5</ele><time>2026-05-01T10:17:06.001Z</time></trkpt><trkpt lat="44.397803910365525" lon="9.259359479602454"><ele>70.0</ele><time>2026-05-01T10:17:07.001Z</time></trkpt><trkpt lat="44.397664987642024" lon="9.259337056518726"><ele>70.5</ele><time>2026-05-01T10:17:08.001Z</time></trkpt><trkpt lat="44.397523594338324" lon="9.259315694699787"><ele>71.0</ele><time>2026-05-01T10:17:09.001Z</time></trkpt><trkpt lat="44.3973827861554" lon="9.259289675321206"><ele>71.0</ele><time>2026-05-01T10:17:10.001Z</time></trkpt><trkpt lat="44.3972543424002" lon="9.259271205736962"><ele>71.0</ele><time>2026-05-01T10:17:11.001Z</time></trkpt><trkpt lat="44.39713349231784" lon="9.259249665553073"><ele>71.0</ele><time>2026-05-01T10:17:12.001Z</time></trkpt><trkpt lat="44.397006786971104" lon="9.259236094890285"><ele>71.0</ele><time>2026-05-01T10:17:13.001Z</time></trkpt><trkpt lat="44.396880834095874" lon="9.259230804752997"><ele>71.0</ele><time>2026-05-01T10:17:14.001Z</time></trkpt><trkpt lat="44.396759693731525" lon="9.259250850374691"><ele>71.0</ele><time>2026-05-01T10:17:15.001Z</time></trkpt><trkpt lat="44.3966318723168" lon="9.259305345478388"><ele>71.0</ele><time>2026-05-01T10:17:16.001Z</time></trkpt><trkpt lat="44.396471387751625" lon="9.259349518726015"><ele>71.0</ele><time>2026-05-01T10:17:17.001Z</time></trkpt><trkpt lat="44.39628805810268" lon="9.25941867041729"><ele>70.0</ele><time>2026-05-01T10:17:18.001Z</time></trkpt><trkpt lat="44.39608667959295" lon="9.25951829284834"><ele>69.0</ele><time>2026-05-01T10:17:19.001Z</time></trkpt><trkpt lat="44.39590276689143" lon="9.259578264587978"><ele>68.0</ele><time>2026-05-01T10:17:20.001Z</time></trkpt><trkpt lat="44.395744967220146" lon="9.25963560480261"><ele>68.0</ele><time>2026-05-01T10:17:21.001Z</time></trkpt><trkpt lat="44.39561032145742" lon="9.259692482801272"><ele>68.0</ele><time>2026-05-01T10:17:22.001Z</time></trkpt><trkpt lat="44.39548993937846" lon="9.259774223571196"><ele>68.0</ele><time>2026-05-01T10:17:23.001Z</time></trkpt><trkpt lat="44.39537834673183" lon="9.259892860819884"><ele>68.0</ele><time>2026-05-01T10:17:24.001Z</time></trkpt><trkpt lat="44.39528300826756" lon="9.260051838381301"><ele>68.66666666666667</ele><time>2026-05-01T10:17:25.001Z</time></trkpt><trkpt lat="44.39519936413934" lon="9.260251886105053"><ele>69.33333333333333</ele><time>2026-05-01T10:17:26.001Z</time></trkpt><trkpt lat="44.39513002366418" lon="9.260480876049453"><ele>70.0</ele><time>2026-05-01T10:17:27.001Z</time></trkpt><trkpt lat="44.395049999594356" lon="9.260724927556884"><ele>72.0</ele><time>2026-05-01T10:17:28.001Z</time></trkpt><trkpt lat="44.39495850954903" lon="9.260970863870584"><ele>74.0</ele><time>2026-05-01T10:17:29.001Z</time></trkpt><trkpt lat="44.3948610872072" lon="9.261225348452559"><ele>76.0</ele><time>2026-05-01T10:17:30.001Z</time></trkpt><trkpt lat="44.39476236517531" lon="9.261479185235823"><ele>77.66666666666666</ele><time>2026-05-01T10:17:31.001Z</time></trkpt><trkpt lat="44.39467461423864" lon="9.261715114091409"><ele>79.33333333333333</ele><time>2026-05-01T10:17:32.001Z</time></trkpt><trkpt lat="44.39460293489774" lon="9.26192437222077"><ele>81.0</ele><time>2026-05-01T10:17:33.002Z</time></trkpt><trkpt lat="44.39455520036318" lon="9.262128340860894"><ele>75.33333333333333</ele><time>2026-05-01T10:17:34.002Z</time></trkpt><trkpt lat="44.394531231376405" lon="9.262362009771799"><ele>69.66666666666666</ele><time>2026-05-01T10:17:35.002Z</time></trkpt><trkpt lat="44.394536040255666" lon="9.26262269593017"><ele>64.0</ele><time>2026-05-01T10:17:36.002Z</time></trkpt><trkpt lat="44.394575652230834" lon="9.262890971082694"><ele>64.33333333333333</ele><time>2026-05-01T10:17:37.002Z</time></trkpt><trkpt lat="44.394652426098965" lon="9.263167308668985"><ele>64.66666666666667</ele><time>2026-05-01T10:17:38.002Z</time></trkpt><trkpt lat="44.394752693533086" lon="9.263432930470739"><ele>65.0</ele><time>2026-05-01T10:17:39.002Z</time></trkpt><trkpt lat="44.39485460018715" lon="9.263685840721818"><ele>68.66666666666667</ele><time>2026-05-01T10:17:40.002Z</time></trkpt><trkpt lat="44.39494063944003" lon="9.263934198567869"><ele>72.33333333333333</ele><time>2026-05-01T10:17:41.002Z</time></trkpt><trkpt lat="44.39501089339129" lon="9.264180140202596"><ele>76.0</ele><time>2026-05-01T10:17:42.002Z</time></trkpt><trkpt lat="44.395029849973895" lon="9.264426816851849"><ele>76.0</ele><time>2026-05-01T10:17:43.002Z</time></trkpt><trkpt lat="44.39503437625315" lon="9.264680761182754"><ele>76.0</ele><time>2026-05-01T10:17:44.002Z</time></trkpt><trkpt lat="44.39500306325739" lon="9.26494442500286"><ele>76.0</ele><time>2026-05-01T10:17:45.002Z</time></trkpt><trkpt lat="44.39497611659321" lon="9.265246513753997"><ele>75.66666666666666</ele><time>2026-05-01T10:17:46.002Z</time></trkpt><trkpt lat="44.39492129634709" lon="9.265550389618221"><ele>75.33333333333333</ele><time>2026-05-01T10:17:47Z</time></trkpt><trkpt lat="44.394872603619596" lon="9.26584834068125"><ele>75.0</ele><time>2026-05-01T10:17:48Z</time></trkpt><trkpt lat="44.39482769908067" lon="9.266139205154138"><ele>74.33333333333333</ele><time>2026-05-01T10:17:49Z</time></trkpt><trkpt lat="44.39478605344977" lon="9.26643197819995"><ele>73.66666666666666</ele><time>2026-05-01T10:17:50Z</time></trkpt><trkpt lat="44.39473098934885" lon="9.266715797841076"><ele>73.0</ele><time>2026-05-01T10:17:51Z</time></trkpt><trkpt lat="44.39471832302897" lon="9.267023117841168"><ele>70.33333333333333</ele><time>2026-05-01T10:17:52Z</time></trkpt><trkpt lat="44.39468799109407" lon="9.267319344406232"><ele>67.66666666666667</ele><time>2026-05-01T10:17:53Z</time></trkpt><trkpt lat="44.39466011827408" lon="9.267607551988338"><ele>65.0</ele><time>2026-05-01T10:17:54Z</time></trkpt><trkpt lat="44.39462873583439" lon="9.267879613885535"><ele>65.66666666666667</ele><time>2026-05-01T10:17:55Z</time></trkpt><trkpt lat="44.394593099210766" lon="9.268146261653493"><ele>66.33333333333333</ele><time>2026-05-01T10:17:56Z</time></trkpt><trkpt lat="44.39454963859991" lon="9.268403998984223"><ele>67.0</ele><time>2026-05-01T10:17:57Z</time></trkpt><trkpt lat="44.39450873418401" lon="9.268656794756353"><ele>67.0</ele><time>2026-05-01T10:17:58Z</time></trkpt><trkpt lat="44.39447143885538" lon="9.268894244036757"><ele>67.0</ele><time>2026-05-01T10:17:59Z</time></trkpt><trkpt lat="44.394430095391506" lon="9.26913578903711"><ele>67.0</ele><time>2026-05-01T10:18:00Z</time></trkpt><trkpt lat="44.39438609578348" lon="9.269392341118735"><ele>68.33333333333333</ele><time>2026-05-01T10:18:01Z</time></trkpt><trkpt lat="44.394327812863175" lon="9.26966357515311"><ele>69.66666666666667</ele><time>2026-05-01T10:18:02Z</time></trkpt><trkpt lat="44.39423011716523" lon="9.269915308377442"><ele>71.0</ele><time>2026-05-01T10:18:03Z</time></trkpt><trkpt lat="44.39413465669702" lon="9.270169327982652"><ele>73.66666666666667</ele><time>2026-05-01T10:18:04Z</time></trkpt><trkpt lat="44.39403571862966" lon="9.270429633006714"><ele>76.33333333333333</ele><time>2026-05-01T10:18:05Z</time></trkpt><trkpt lat="44.39395353048333" lon="9.270695520733222"><ele>79.0</ele><time>2026-05-01T10:18:06Z</time></trkpt><trkpt lat="44.393858053922536" lon="9.270952819910763"><ele>76.33333333333333</ele><time>2026-05-01T10:18:07Z</time></trkpt><trkpt lat="44.39375010722979" lon="9.271201267377496"><ele>73.66666666666667</ele><time>2026-05-01T10:18:08Z</time></trkpt><trkpt lat="44.393677461788755" lon="9.271459927769461"><ele>71.0</ele><time>2026-05-01T10:18:09Z</time></trkpt><trkpt lat="44.393601753798265" lon="9.271672714984124"><ele>71.0</ele><time>2026-05-01T10:18:10Z</time></trkpt><trkpt lat="44.393518867827325" lon="9.27184859276027"><ele>71.0</ele><time>2026-05-01T10:18:11Z</time></trkpt><trkpt lat="44.393426701661944" lon="9.272007962258348"><ele>71.0</ele><time>2026-05-01T10:18:12Z</time></trkpt><trkpt lat="44.3933022576359" lon="9.272125387295263"><ele>71.0</ele><time>2026-05-01T10:18:13Z</time></trkpt><trkpt lat="44.39312500674566" lon="9.272180164973102"><ele>71.33333333333334</ele><time>2026-05-01T10:18:14Z</time></trkpt><trkpt lat="44.39292080782312" lon="9.272218009344936"><ele>71.66666666666667</ele><time>2026-05-01T10:18:15Z</time></trkpt><trkpt lat="44.392726097689426" lon="9.272255879000792"><ele>72.0</ele><time>2026-05-01T10:18:16Z</time></trkpt><trkpt lat="44.392550015022465" lon="9.272300294045316"><ele>72.0</ele><time>2026-05-01T10:18:17Z</time></trkpt><trkpt lat="44.39238551722686" lon="9.272354136566134"><ele>72.0</ele><time>2026-05-01T10:18:18Z</time></trkpt><trkpt lat="44.392232848085975" lon="9.272438949864497"><ele>72.0</ele><time>2026-05-01T10:18:19Z</time></trkpt><trkpt lat="44.39208642836023" lon="9.272569069381634"><ele>70.66666666666667</ele><time>2026-05-01T10:18:20Z</time></trkpt><trkpt lat="44.39194136985444" lon="9.272769925901198"><ele>69.33333333333334</ele><time>2026-05-01T10:18:21Z</time></trkpt><trkpt lat="44.39181318734779" lon="9.273011385387582"><ele>68.0</ele><time>2026-05-01T10:18:22Z</time></trkpt><trkpt lat="44.39168367406652" lon="9.273278906423952"><ele>68.0</ele><time>2026-05-01T10:18:23Z</time></trkpt><trkpt lat="44.391553376963344" lon="9.273539384447846"><ele>68.0</ele><time>2026-05-01T10:18:24Z</time></trkpt><trkpt lat="44.39142153307313" lon="9.273791269240569"><ele>62.5</ele><time>2026-05-01T10:18:25Z</time></trkpt><trkpt lat="44.39129013471221" lon="9.274048662985383"><ele>57.0</ele><time>2026-05-01T10:18:26Z</time></trkpt><trkpt lat="44.39116295338083" lon="9.274309308870027"><ele>57.0</ele><time>2026-05-01T10:18:27Z</time></trkpt><trkpt lat="44.391058896127866" lon="9.274569122115954"><ele>57.0</ele><time>2026-05-01T10:18:28Z</time></trkpt><trkpt lat="44.390978818868454" lon="9.27482561138936"><ele>57.0</ele><time>2026-05-01T10:18:29Z</time></trkpt><trkpt lat="44.39090838253696" lon="9.27507884378535"><ele>58.33333333333333</ele><time>2026-05-01T10:18:30Z</time></trkpt><trkpt lat="44.39085315766498" lon="9.275322889052639"><ele>59.666666666666664</ele><time>2026-05-01T10:18:31Z</time></trkpt><trkpt lat="44.390779470979155" lon="9.27554291537821"><ele>61.0</ele><time>2026-05-01T10:18:32Z</time></trkpt><trkpt lat="44.39071507717875" lon="9.275751269961704"><ele>62.0</ele><time>2026-05-01T10:18:33Z</time></trkpt><trkpt lat="44.390662998860506" lon="9.275960880112326"><ele>63.0</ele><time>2026-05-01T10:18:34.001Z</time></trkpt><trkpt lat="44.39059289316657" lon="9.276151102293545"><ele>64.0</ele><time>2026-05-01T10:18:35.001Z</time></trkpt><trkpt lat="44.390502367678046" lon="9.27634502562736"><ele>62.0</ele><time>2026-05-01T10:18:36.001Z</time></trkpt><trkpt lat="44.390382767756286" lon="9.276528458370489"><ele>60.0</ele><time>2026-05-01T10:18:37.001Z</time></trkpt><trkpt lat="44.39024884528161" lon="9.27668323346485"><ele>58.0</ele><time>2026-05-01T10:18:38.001Z</time></trkpt><trkpt lat="44.39011721417081" lon="9.276841029154193"><ele>58.0</ele><time>2026-05-01T10:18:39.001Z</time></trkpt><trkpt lat="44.389998927228625" lon="9.276995596191096"><ele>58.0</ele><time>2026-05-01T10:18:40.001Z</time></trkpt><trkpt lat="44.38989951665742" lon="9.277157677178264"><ele>58.0</ele><time>2026-05-01T10:18:41.001Z</time></trkpt><trkpt lat="44.38982175614864" lon="9.277336411432461"><ele>57.0</ele><time>2026-05-01T10:18:42.001Z</time></trkpt><trkpt lat="44.389759413487596" lon="9.27753080499419"><ele>56.0</ele><time>2026-05-01T10:18:43.001Z</time></trkpt><trkpt lat="44.38969925914606" lon="9.277723829109986"><ele>55.0</ele><time>2026-05-01T10:18:44.001Z</time></trkpt><trkpt lat="44.38963108637852" lon="9.277905771315126"><ele>55.0</ele><time>2026-05-01T10:18:45.001Z</time></trkpt><trkpt lat="44.38953541068441" lon="9.278051592059676"><ele>55.0</ele><time>2026-05-01T10:18:46.001Z</time></trkpt><trkpt lat="44.389448586655774" lon="9.27820515370346"><ele>55.0</ele><time>2026-05-01T10:18:47.001Z</time></trkpt><trkpt lat="44.389346615669766" lon="9.278347461457054"><ele>55.0</ele><time>2026-05-01T10:18:48.001Z</time></trkpt><trkpt lat="44.38926118675288" lon="9.278507863777122"><ele>55.0</ele><time>2026-05-01T10:18:49.001Z</time></trkpt><trkpt lat="44.389193959534595" lon="9.278670855108803"><ele>55.0</ele><time>2026-05-01T10:18:50.001Z</time></trkpt><trkpt lat="44.38913807249867" lon="9.278840206408095"><ele>55.0</ele><time>2026-05-01T10:18:51.001Z</time></trkpt><trkpt lat="44.389067943976535" lon="9.27900407771864"><ele>55.0</ele><time>2026-05-01T10:18:52.001Z</time></trkpt><trkpt lat="44.38897686883917" lon="9.279148748115558"><ele>54.0</ele><time>2026-05-01T10:18:53.001Z</time></trkpt><trkpt lat="44.388871589342656" lon="9.27927379204201"><ele>53.0</ele><time>2026-05-01T10:18:54.001Z</time></trkpt><trkpt lat="44.38876237358422" lon="9.279389546260772"><ele>52.0</ele><time>2026-05-01T10:18:55.001Z</time></trkpt><trkpt lat="44.38865392550988" lon="9.27949317517322"><ele>51.0</ele><time>2026-05-01T10:18:56.001Z</time></trkpt><trkpt lat="44.38854569074311" lon="9.279592755139113"><ele>51.0</ele><time>2026-05-01T10:18:57.001Z</time></trkpt><trkpt lat="44.38843769381608" lon="9.27969522893143"><ele>51.0</ele><time>2026-05-01T10:18:58.001Z</time></trkpt><trkpt lat="44.38832964263937" lon="9.279799757859237"><ele>51.0</ele><time>2026-05-01T10:18:59.001Z</time></trkpt><trkpt lat="44.38822326238773" lon="9.279900185241862"><ele>51.0</ele><time>2026-05-01T10:19:00.001Z</time></trkpt><trkpt lat="44.38812218773665" lon="9.279997785159848"><ele>50.75</ele><time>2026-05-01T10:19:01.001Z</time></trkpt><trkpt lat="44.3880198128322" lon="9.28009686856788"><ele>50.5</ele><time>2026-05-01T10:19:02.001Z</time></trkpt><trkpt lat="44.38791615441106" lon="9.280194283025832"><ele>50.25</ele><time>2026-05-01T10:19:03.001Z</time></trkpt><trkpt lat="44.387818411251025" lon="9.280305713913002"><ele>50.0</ele><time>2026-05-01T10:19:04.001Z</time></trkpt><trkpt lat="44.387716323459024" lon="9.280418949140344"><ele>50.0</ele><time>2026-05-01T10:19:05.001Z</time></trkpt><trkpt lat="44.387607266407024" lon="9.280541885513655"><ele>50.0</ele><time>2026-05-01T10:19:06.001Z</time></trkpt><trkpt lat="44.38748669858317" lon="9.280648876601811"><ele>50.0</ele><time>2026-05-01T10:19:07.001Z</time></trkpt><trkpt lat="44.3873523490296" lon="9.280732949000978"><ele>50.0</ele><time>2026-05-01T10:19:08.001Z</time></trkpt><trkpt lat="44.387208517029464" lon="9.280771840357044"><ele>50.25</ele><time>2026-05-01T10:19:09.001Z</time></trkpt><trkpt lat="44.3870626080915" lon="9.280791661833897"><ele>50.5</ele><time>2026-05-01T10:19:10.001Z</time></trkpt><trkpt lat="44.38692312090708" lon="9.28079979506328"><ele>50.75</ele><time>2026-05-01T10:19:11.001Z</time></trkpt><trkpt lat="44.386791412972485" lon="9.280804184740498"><ele>51.0</ele><time>2026-05-01T10:19:12.001Z</time></trkpt><trkpt lat="44.3866601531295" lon="9.280818401729434"><ele>51.0</ele><time>2026-05-01T10:19:13.001Z</time></trkpt><trkpt lat="44.38652863087145" lon="9.280851013233551"><ele>51.0</ele><time>2026-05-01T10:19:14.001Z</time></trkpt><trkpt lat="44.38639805391401" lon="9.280900549437492"><ele>51.0</ele><time>2026-05-01T10:19:15.001Z</time></trkpt><trkpt lat="44.38627285901223" lon="9.28097649469434"><ele>51.0</ele><time>2026-05-01T10:19:16.001Z</time></trkpt><trkpt lat="44.386153393214826" lon="9.28107278729354"><ele>51.0</ele><time>2026-05-01T10:19:17.001Z</time></trkpt><trkpt lat="44.38604257528357" lon="9.281189553277116"><ele>51.0</ele><time>2026-05-01T10:19:18.001Z</time></trkpt><trkpt lat="44.385926140786985" lon="9.281316606569193"><ele>51.0</ele><time>2026-05-01T10:19:19.001Z</time></trkpt><trkpt lat="44.385797784614205" lon="9.28144099225764"><ele>51.0</ele><time>2026-05-01T10:19:20.001Z</time></trkpt><trkpt lat="44.38566412808052" lon="9.281566905445525"><ele>51.66666666666667</ele><time>2026-05-01T10:19:21.001Z</time></trkpt><trkpt lat="44.385523994797545" lon="9.281703618700783"><ele>52.333333333333336</ele><time>2026-05-01T10:19:22.001Z</time></trkpt><trkpt lat="44.385384182964145" lon="9.281839532685467"><ele>53.0</ele><time>2026-05-01T10:19:23.001Z</time></trkpt><trkpt lat="44.38524523677876" lon="9.281977117781034"><ele>53.333333333333336</ele><time>2026-05-01T10:19:24.001Z</time></trkpt><trkpt lat="44.38510910511535" lon="9.282126066876776"><ele>53.66666666666667</ele><time>2026-05-01T10:19:25.001Z</time></trkpt><trkpt lat="44.38498209122419" lon="9.282294757819729"><ele>54.0</ele><time>2026-05-01T10:19:26.002Z</time></trkpt><trkpt lat="44.38485768485086" lon="9.282470583447322"><ele>54.33333333333333</ele><time>2026-05-01T10:19:27.002Z</time></trkpt><trkpt lat="44.384734831800195" lon="9.28264409898463"><ele>54.666666666666664</ele><time>2026-05-01T10:19:28.002Z</time></trkpt><trkpt lat="44.38462001305041" lon="9.28282079853171"><ele>55.0</ele><time>2026-05-01T10:19:29.002Z</time></trkpt><trkpt lat="44.38451141906143" lon="9.282990482064088"><ele>55.0</ele><time>2026-05-01T10:19:30.002Z</time></trkpt><trkpt lat="44.38440384664052" lon="9.283151285852954"><ele>55.0</ele><time>2026-05-01T10:19:31.002Z</time></trkpt><trkpt lat="44.38429749775057" lon="9.283309652999586"><ele>55.0</ele><time>2026-05-01T10:19:32.002Z</time></trkpt><trkpt lat="44.38418961866261" lon="9.28347176854751"><ele>55.0</ele><time>2026-05-01T10:19:33.002Z</time></trkpt><trkpt lat="44.38407801892057" lon="9.28362173215622"><ele>55.0</ele><time>2026-05-01T10:19:34.002Z</time></trkpt><trkpt lat="44.38396676179356" lon="9.283754136129614"><ele>55.0</ele><time>2026-05-01T10:19:35.002Z</time></trkpt><trkpt lat="44.383849291260894" lon="9.283877587542142"><ele>55.0</ele><time>2026-05-01T10:19:36.002Z</time></trkpt><trkpt lat="44.38373087758342" lon="9.284000057927377"><ele>54.0</ele><time>2026-05-01T10:19:37.002Z</time></trkpt><trkpt lat="44.38360694045785" lon="9.284132589238634"><ele>53.0</ele><time>2026-05-01T10:19:38.002Z</time></trkpt><trkpt lat="44.38348076628977" lon="9.28426843121027"><ele>52.0</ele><time>2026-05-01T10:19:39.002Z</time></trkpt><trkpt lat="44.383353580732056" lon="9.284402951520109"><ele>52.0</ele><time>2026-05-01T10:19:40.002Z</time></trkpt><trkpt lat="44.38322475094035" lon="9.284543921652457"><ele>52.0</ele><time>2026-05-01T10:19:41.002Z</time></trkpt><trkpt lat="44.38309606919864" lon="9.284669106268234"><ele>52.0</ele><time>2026-05-01T10:19:42.002Z</time></trkpt><trkpt lat="44.3829736950537" lon="9.284774635338763"><ele>51.75</ele><time>2026-05-01T10:19:43.002Z</time></trkpt><trkpt lat="44.38285881360402" lon="9.284870065218913"><ele>51.5</ele><time>2026-05-01T10:19:44.002Z</time></trkpt><trkpt lat="44.382754595993994" lon="9.284947729614549"><ele>51.25</ele><time>2026-05-01T10:19:45.002Z</time></trkpt><trkpt lat="44.38264856332705" lon="9.285045302682361"><ele>51.0</ele><time>2026-05-01T10:19:46.002Z</time></trkpt><trkpt lat="44.38254962658764" lon="9.285146373241751"><ele>51.0</ele><time>2026-05-01T10:19:47.002Z</time></trkpt><trkpt lat="44.38246619774436" lon="9.285249038792639"><ele>51.0</ele><time>2026-05-01T10:19:48.002Z</time></trkpt><trkpt lat="44.38237867264302" lon="9.285362343338594"><ele>51.0</ele><time>2026-05-01T10:19:49.002Z</time></trkpt><trkpt lat="44.38229564302277" lon="9.285483445871968"><ele>51.0</ele><time>2026-05-01T10:19:50.002Z</time></trkpt><trkpt lat="44.38221154857103" lon="9.285603823820908"><ele>51.75</ele><time>2026-05-01T10:19:51.002Z</time></trkpt><trkpt lat="44.38212661447689" lon="9.285726453548472"><ele>52.5</ele><time>2026-05-01T10:19:52.002Z</time></trkpt><trkpt lat="44.38203806620891" lon="9.285839838939902"><ele>53.25</ele><time>2026-05-01T10:19:53Z</time></trkpt><trkpt lat="44.381952463320225" lon="9.28595360633703"><ele>54.0</ele><time>2026-05-01T10:19:54Z</time></trkpt><trkpt lat="44.38185119124248" lon="9.286098728018032"><ele>54.0</ele><time>2026-05-01T10:19:55Z</time></trkpt><trkpt lat="44.38172347041951" lon="9.286262963435274"><ele>54.0</ele><time>2026-05-01T10:19:56Z</time></trkpt><trkpt lat="44.38159157342263" lon="9.286399415111672"><ele>54.0</ele><time>2026-05-01T10:19:57Z</time></trkpt><trkpt lat="44.38146186379183" lon="9.286511961924667"><ele>54.0</ele><time>2026-05-01T10:19:58Z</time></trkpt><trkpt lat="44.38133092867069" lon="9.28661855592413"><ele>54.0</ele><time>2026-05-01T10:19:59Z</time></trkpt><trkpt lat="44.38120237094907" lon="9.286713342160375"><ele>54.0</ele><time>2026-05-01T10:20:00Z</time></trkpt><trkpt lat="44.38107209306063" lon="9.286802806037537"><ele>54.0</ele><time>2026-05-01T10:20:01Z</time></trkpt><trkpt lat="44.380943527724014" lon="9.286890428933923"><ele>54.0</ele><time>2026-05-01T10:20:02Z</time></trkpt><trkpt lat="44.3808228021597" lon="9.28697939319489"><ele>54.0</ele><time>2026-05-01T10:20:03Z</time></trkpt><trkpt lat="44.38069767406108" lon="9.287057845264744"><ele>54.0</ele><time>2026-05-01T10:20:04Z</time></trkpt><trkpt lat="44.38057315174742" lon="9.28713880550492"><ele>54.0</ele><time>2026-05-01T10:20:05Z</time></trkpt><trkpt lat="44.3804543512337" lon="9.287221363642281"><ele>53.5</ele><time>2026-05-01T10:20:06Z</time></trkpt><trkpt lat="44.380339097398135" lon="9.28730852078771"><ele>53.0</ele><time>2026-05-01T10:20:07Z</time></trkpt><trkpt lat="44.38023121063646" lon="9.287395459692723"><ele>52.5</ele><time>2026-05-01T10:20:08Z</time></trkpt><trkpt lat="44.38012791645318" lon="9.287482522597275"><ele>52.0</ele><time>2026-05-01T10:20:09Z</time></trkpt><trkpt lat="44.38002872150401" lon="9.287580364039982"><ele>51.99999999999999</ele><time>2026-05-01T10:20:10Z</time></trkpt><trkpt lat="44.37993671057033" lon="9.287675737919837"><ele>52.0</ele><time>2026-05-01T10:20:11Z</time></trkpt><trkpt lat="44.37984810613352" lon="9.287760969961226"><ele>52.0</ele><time>2026-05-01T10:20:12Z</time></trkpt><trkpt lat="44.37977619592329" lon="9.287829913521394"><ele>52.0</ele><time>2026-05-01T10:20:13Z</time></trkpt><trkpt lat="44.37972577477681" lon="9.287884491232841"><ele>51.99999999999999</ele><time>2026-05-01T10:20:15Z</time></trkpt><trkpt lat="44.37968640525871" lon="9.28795347944486"><ele>52.0</ele><time>2026-05-01T10:20:23Z</time></trkpt><trkpt lat="44.37961743965111" lon="9.28800851302462"><ele>51.6</ele><time>2026-05-01T10:20:25Z</time></trkpt><trkpt lat="44.37955164231758" lon="9.288076195756094"><ele>51.2</ele><time>2026-05-01T10:20:26Z</time></trkpt><trkpt lat="44.37949646814555" lon="9.28813324684745"><ele>50.8</ele><time>2026-05-01T10:20:27Z</time></trkpt><trkpt lat="44.379416081085715" lon="9.288238688573609"><ele>50.4</ele><time>2026-05-01T10:20:28Z</time></trkpt><trkpt lat="44.37930337897311" lon="9.288348709152288"><ele>50.0</ele><time>2026-05-01T10:20:29Z</time></trkpt><trkpt lat="44.379189431645514" lon="9.288478897730888"><ele>50.0</ele><time>2026-05-01T10:20:30Z</time></trkpt><trkpt lat="44.37906173172545" lon="9.28866025687517"><ele>50.0</ele><time>2026-05-01T10:20:31Z</time></trkpt><trkpt lat="44.37893561616282" lon="9.288849102133637"><ele>50.0</ele><time>2026-05-01T10:20:32Z</time></trkpt><trkpt lat="44.37881058174974" lon="9.289033424800694"><ele>50.0</ele><time>2026-05-01T10:20:33Z</time></trkpt><trkpt lat="44.378678868118875" lon="9.28921996603823"><ele>50.0</ele><time>2026-05-01T10:20:34Z</time></trkpt><trkpt lat="44.37855870386848" lon="9.289404583094255"><ele>50.0</ele><time>2026-05-01T10:20:35.001Z</time></trkpt><trkpt lat="44.378443987938674" lon="9.289601379554052"><ele>52.0</ele><time>2026-05-01T10:20:36.001Z</time></trkpt><trkpt lat="44.37834345093593" lon="9.289826824501262"><ele>54.0</ele><time>2026-05-01T10:20:37.001Z</time></trkpt><trkpt lat="44.37824766516219" lon="9.290080667962775"><ele>56.0</ele><time>2026-05-01T10:20:38.001Z</time></trkpt><trkpt lat="44.37815018732283" lon="9.290334538185308"><ele>56.0</ele><time>2026-05-01T10:20:39.001Z</time></trkpt><trkpt lat="44.378047686013794" lon="9.290572375382073"><ele>56.0</ele><time>2026-05-01T10:20:40.001Z</time></trkpt><trkpt lat="44.3779495748458" lon="9.290818277303922"><ele>56.0</ele><time>2026-05-01T10:20:41.001Z</time></trkpt><trkpt lat="44.37785245391564" lon="9.2910630694564"><ele>56.66666666666667</ele><time>2026-05-01T10:20:42.001Z</time></trkpt><trkpt lat="44.377763488068545" lon="9.291290689673062"><ele>57.33333333333333</ele><time>2026-05-01T10:20:43.001Z</time></trkpt><trkpt lat="44.37767468680723" lon="9.291517242479664"><ele>58.0</ele><time>2026-05-01T10:20:44.001Z</time></trkpt><trkpt lat="44.3775890439049" lon="9.291741390911561"><ele>58.0</ele><time>2026-05-01T10:20:45.001Z</time></trkpt><trkpt lat="44.377504722941424" lon="9.291962380580816"><ele>58.0</ele><time>2026-05-01T10:20:46.001Z</time></trkpt><trkpt lat="44.37742002724558" lon="9.292183457385537"><ele>58.0</ele><time>2026-05-01T10:20:47.001Z</time></trkpt><trkpt lat="44.37733257460383" lon="9.292408944293614"><ele>56.666666666666664</ele><time>2026-05-01T10:20:48.001Z</time></trkpt><trkpt lat="44.377242785593324" lon="9.292640215819661"><ele>55.33333333333333</ele><time>2026-05-01T10:20:49.001Z</time></trkpt><trkpt lat="44.37714717630536" lon="9.292876040647089"><ele>54.0</ele><time>2026-05-01T10:20:50.001Z</time></trkpt><trkpt lat="44.377046508165066" lon="9.293110549103067"><ele>54.0</ele><time>2026-05-01T10:20:51.001Z</time></trkpt><trkpt lat="44.376936941109015" lon="9.293336655341779"><ele>54.0</ele><time>2026-05-01T10:20:52.001Z</time></trkpt><trkpt lat="44.37680514609834" lon="9.293535070196262"><ele>54.0</ele><time>2026-05-01T10:20:53.001Z</time></trkpt><trkpt lat="44.37669281699696" lon="9.293746437239419"><ele>57.0</ele><time>2026-05-01T10:20:54.001Z</time></trkpt><trkpt lat="44.37657168044671" lon="9.293935457298984"><ele>60.0</ele><time>2026-05-01T10:20:55.001Z</time></trkpt><trkpt lat="44.37645309874749" lon="9.29412907622861"><ele>63.0</ele><time>2026-05-01T10:20:56.001Z</time></trkpt><trkpt lat="44.37633741139034" lon="9.294318317260633"><ele>57.666666666666664</ele><time>2026-05-01T10:20:57.001Z</time></trkpt><trkpt lat="44.37621946529002" lon="9.294527468146468"><ele>52.33333333333333</ele><time>2026-05-01T10:20:58.001Z</time></trkpt><trkpt lat="44.376070236424475" lon="9.294737791887133"><ele>47.0</ele><time>2026-05-01T10:20:59.001Z</time></trkpt><trkpt lat="44.37592525559172" lon="9.294976852637355"><ele>47.0</ele><time>2026-05-01T10:21:00.001Z</time></trkpt><trkpt lat="44.37577807683902" lon="9.295219225402924"><ele>47.0</ele><time>2026-05-01T10:21:01.001Z</time></trkpt><trkpt lat="44.37563403086269" lon="9.295453831972505"><ele>47.0</ele><time>2026-05-01T10:21:02.001Z</time></trkpt><trkpt lat="44.37549789054243" lon="9.295703211527549"><ele>45.666666666666664</ele><time>2026-05-01T10:21:03.001Z</time></trkpt><trkpt lat="44.375356027587934" lon="9.295941474636592"><ele>44.333333333333336</ele><time>2026-05-01T10:21:04.001Z</time></trkpt><trkpt lat="44.37522588250949" lon="9.296161065145133"><ele>43.0</ele><time>2026-05-01T10:21:05.001Z</time></trkpt><trkpt lat="44.37510384370178" lon="9.296355153437267"><ele>44.66666666666667</ele><time>2026-05-01T10:21:06.001Z</time></trkpt><trkpt lat="44.37499513125488" lon="9.296554618916023"><ele>46.333333333333336</ele><time>2026-05-01T10:21:07.001Z</time></trkpt><trkpt lat="44.374911615312605" lon="9.296787210944945"><ele>48.0</ele><time>2026-05-01T10:21:08.001Z</time></trkpt><trkpt lat="44.37484569497911" lon="9.297053149138167"><ele>48.33333333333333</ele><time>2026-05-01T10:21:09.001Z</time></trkpt><trkpt lat="44.37478898274721" lon="9.297327067008123"><ele>48.666666666666664</ele><time>2026-05-01T10:21:10.001Z</time></trkpt><trkpt lat="44.37473725461452" lon="9.2975963291056"><ele>49.0</ele><time>2026-05-01T10:21:11.001Z</time></trkpt><trkpt lat="44.3746842090722" lon="9.297868827304294"><ele>45.5</ele><time>2026-05-01T10:21:12.001Z</time></trkpt><trkpt lat="44.37460709193992" lon="9.29815308626513"><ele>42.0</ele><time>2026-05-01T10:21:13.001Z</time></trkpt><trkpt lat="44.37453926394092" lon="9.29846563445051"><ele>42.0</ele><time>2026-05-01T10:21:14.001Z</time></trkpt><trkpt lat="44.37445996727505" lon="9.298779447651714"><ele>42.0</ele><time>2026-05-01T10:21:15.001Z</time></trkpt><trkpt lat="44.37437285012368" lon="9.299084371364094"><ele>43.0</ele><time>2026-05-01T10:21:16.001Z</time></trkpt><trkpt lat="44.37429725609266" lon="9.299368566806203"><ele>44.0</ele><time>2026-05-01T10:21:17.001Z</time></trkpt><trkpt lat="44.374218867397126" lon="9.299641220603709"><ele>45.0</ele><time>2026-05-01T10:21:18.001Z</time></trkpt><trkpt lat="44.37414086753114" lon="9.299922483365247"><ele>46.0</ele><time>2026-05-01T10:21:19.001Z</time></trkpt><trkpt lat="44.3740599383649" lon="9.300196746171494"><ele>47.0</ele><time>2026-05-01T10:21:20.001Z</time></trkpt><trkpt lat="44.373977747241675" lon="9.300470384563765"><ele>48.0</ele><time>2026-05-01T10:21:21.001Z</time></trkpt><trkpt lat="44.37389323854629" lon="9.3007410733298"><ele>46.333333333333336</ele><time>2026-05-01T10:21:22.001Z</time></trkpt><trkpt lat="44.37381633974868" lon="9.301010933181187"><ele>44.66666666666667</ele><time>2026-05-01T10:21:23.001Z</time></trkpt><trkpt lat="44.37374931112989" lon="9.301279444579789"><ele>43.0</ele><time>2026-05-01T10:21:24.001Z</time></trkpt><trkpt lat="44.373693816022644" lon="9.301549106554642"><ele>43.0</ele><time>2026-05-01T10:21:25.002Z</time></trkpt><trkpt lat="44.37364127795577" lon="9.301804801473144"><ele>43.0</ele><time>2026-05-01T10:21:26.002Z</time></trkpt><trkpt lat="44.37360002506267" lon="9.302047574095393"><ele>43.0</ele><time>2026-05-01T10:21:27.002Z</time></trkpt><trkpt lat="44.373557997147074" lon="9.302263712580753"><ele>43.75</ele><time>2026-05-01T10:21:28.002Z</time></trkpt><trkpt lat="44.37351944088124" lon="9.302464421914348"><ele>44.5</ele><time>2026-05-01T10:21:29.002Z</time></trkpt><trkpt lat="44.37348512253374" lon="9.302649058459114"><ele>45.25</ele><time>2026-05-01T10:21:30.002Z</time></trkpt><trkpt lat="44.37344546270372" lon="9.302833470059507"><ele>46.0</ele><time>2026-05-01T10:21:31.002Z</time></trkpt><trkpt lat="44.373389591077604" lon="9.303025288499443"><ele>48.25</ele><time>2026-05-01T10:21:32.002Z</time></trkpt><trkpt lat="44.37331917388057" lon="9.303205709666043"><ele>50.5</ele><time>2026-05-01T10:21:33.002Z</time></trkpt><trkpt lat="44.37325006240788" lon="9.3033710430619"><ele>52.75</ele><time>2026-05-01T10:21:34.002Z</time></trkpt><trkpt lat="44.37317539127927" lon="9.303522627760843"><ele>55.0</ele><time>2026-05-01T10:21:35.002Z</time></trkpt><trkpt lat="44.373086855044825" lon="9.303645583846615"><ele>53.33333333333333</ele><time>2026-05-01T10:21:36.002Z</time></trkpt><trkpt lat="44.37298221866052" lon="9.303759033618181"><ele>51.66666666666667</ele><time>2026-05-01T10:21:37.002Z</time></trkpt><trkpt lat="44.372855362322184" lon="9.303872536593728"><ele>50.0</ele><time>2026-05-01T10:21:38.002Z</time></trkpt><trkpt lat="44.37270386396161" lon="9.303992965907005"><ele>50.0</ele><time>2026-05-01T10:21:39.002Z</time></trkpt><trkpt lat="44.37253256658722" lon="9.304119077707368"><ele>50.0</ele><time>2026-05-01T10:21:40.002Z</time></trkpt><trkpt lat="44.37234968163003" lon="9.304247523922413"><ele>50.0</ele><time>2026-05-01T10:21:41.002Z</time></trkpt><trkpt lat="44.37215738598623" lon="9.304365483153784"><ele>47.66666666666667</ele><time>2026-05-01T10:21:42.002Z</time></trkpt><trkpt lat="44.37198087827827" lon="9.304468525535352"><ele>45.333333333333336</ele><time>2026-05-01T10:21:43.002Z</time></trkpt><trkpt lat="44.371825409033505" lon="9.304567452062106"><ele>43.0</ele><time>2026-05-01T10:21:44.002Z</time></trkpt><trkpt lat="44.371676062987504" lon="9.304671257471647"><ele>41.66666666666667</ele><time>2026-05-01T10:21:45.002Z</time></trkpt><trkpt lat="44.371525285868564" lon="9.304795656159138"><ele>40.333333333333336</ele><time>2026-05-01T10:21:46.002Z</time></trkpt><trkpt lat="44.37137520768177" lon="9.30496707031726"><ele>39.0</ele><time>2026-05-01T10:21:47.002Z</time></trkpt><trkpt lat="44.37122706690605" lon="9.305176172397521"><ele>39.0</ele><time>2026-05-01T10:21:48.002Z</time></trkpt><trkpt lat="44.37108245906953" lon="9.305381278959828"><ele>39.0</ele><time>2026-05-01T10:21:49.002Z</time></trkpt><trkpt lat="44.37094387908691" lon="9.305572853490826"><ele>39.0</ele><time>2026-05-01T10:21:50.002Z</time></trkpt><trkpt lat="44.37081175073751" lon="9.30577253913121"><ele>39.0</ele><time>2026-05-01T10:21:51.002Z</time></trkpt><trkpt lat="44.370687540108534" lon="9.305992462747485"><ele>39.0</ele><time>2026-05-01T10:21:52.002Z</time></trkpt><trkpt lat="44.37059087720226" lon="9.306214241809114"><ele>39.0</ele><time>2026-05-01T10:21:53.002Z</time></trkpt><trkpt lat="44.37052216733649" lon="9.30644020321527"><ele>39.0</ele><time>2026-05-01T10:21:54.002Z</time></trkpt><trkpt lat="44.37048302842346" lon="9.306685437245326"><ele>39.0</ele><time>2026-05-01T10:21:55.002Z</time></trkpt><trkpt lat="44.37047543306048" lon="9.306965663189791"><ele>39.0</ele><time>2026-05-01T10:21:56.002Z</time></trkpt><trkpt lat="44.370496326892095" lon="9.307257172037195"><ele>45.33333333333333</ele><time>2026-05-01T10:21:57.002Z</time></trkpt><trkpt lat="44.37054028077637" lon="9.307518310785255"><ele>51.666666666666664</ele><time>2026-05-01T10:21:58.002Z</time></trkpt><trkpt lat="44.37060989983207" lon="9.307761589925596"><ele>58.0</ele><time>2026-05-01T10:21:59Z</time></trkpt><trkpt lat="44.37071183807544" lon="9.307999666048007"><ele>54.0</ele><time>2026-05-01T10:22:00Z</time></trkpt><trkpt lat="44.37082369518979" lon="9.308230123597072"><ele>50.0</ele><time>2026-05-01T10:22:01Z</time></trkpt><trkpt lat="44.370921797644606" lon="9.308444877923073"><ele>46.0</ele><time>2026-05-01T10:22:02Z</time></trkpt><trkpt lat="44.37101204374702" lon="9.30865875673334"><ele>46.0</ele><time>2026-05-01T10:22:03Z</time></trkpt><trkpt lat="44.371103196899924" lon="9.308879089305737"><ele>46.0</ele><time>2026-05-01T10:22:04Z</time></trkpt><trkpt lat="44.37119295726981" lon="9.309099739138867"><ele>46.0</ele><time>2026-05-01T10:22:05Z</time></trkpt><trkpt lat="44.37128844092981" lon="9.309318322860532"><ele>48.0</ele><time>2026-05-01T10:22:06Z</time></trkpt><trkpt lat="44.3713778291007" lon="9.309528910274285"><ele>50.0</ele><time>2026-05-01T10:22:07Z</time></trkpt><trkpt lat="44.3714604505018" lon="9.309725741736058"><ele>52.0</ele><time>2026-05-01T10:22:08Z</time></trkpt><trkpt lat="44.37153532851199" lon="9.309905177688252"><ele>52.0</ele><time>2026-05-01T10:22:09Z</time></trkpt><trkpt lat="44.371596561722995" lon="9.310061988598871"><ele>52.0</ele><time>2026-05-01T10:22:10Z</time></trkpt><trkpt lat="44.371648223019925" lon="9.310203991868631"><ele>52.0</ele><time>2026-05-01T10:22:11Z</time></trkpt><trkpt lat="44.37169244404877" lon="9.310324453577863"><ele>52.0</ele><time>2026-05-01T10:22:12Z</time></trkpt><trkpt lat="44.37173439177888" lon="9.310449757005085"><ele>52.0</ele><time>2026-05-01T10:22:13Z</time></trkpt><trkpt lat="44.371772934852416" lon="9.310581707038093"><ele>50.0</ele><time>2026-05-01T10:22:14Z</time></trkpt><trkpt lat="44.37180145758533" lon="9.310720670224976"><ele>48.0</ele><time>2026-05-01T10:22:15Z</time></trkpt><trkpt lat="44.37180761600591" lon="9.31087628300527"><ele>46.0</ele><time>2026-05-01T10:22:16Z</time></trkpt><trkpt lat="44.37180232213554" lon="9.311041135262668"><ele>44.0</ele><time>2026-05-01T10:22:17Z</time></trkpt><trkpt lat="44.37178833750169" lon="9.311211819825312"><ele>44.0</ele><time>2026-05-01T10:22:18Z</time></trkpt><trkpt lat="44.37176990884569" lon="9.31138099026737"><ele>44.0</ele><time>2026-05-01T10:22:19Z</time></trkpt><trkpt lat="44.37175111242876" lon="9.311543671836493"><ele>44.0</ele><time>2026-05-01T10:22:20Z</time></trkpt><trkpt lat="44.371730481602484" lon="9.311707503969396"><ele>44.0</ele><time>2026-05-01T10:22:21Z</time></trkpt><trkpt lat="44.37171196404699" lon="9.31186404197154"><ele>44.0</ele><time>2026-05-01T10:22:22Z</time></trkpt><trkpt lat="44.37169931084197" lon="9.312007748584833"><ele>44.0</ele><time>2026-05-01T10:22:23Z</time></trkpt><trkpt lat="44.37168829963277" lon="9.312147984678573"><ele>44.0</ele><time>2026-05-01T10:22:24Z</time></trkpt><trkpt lat="44.37167647409747" lon="9.312290933223812"><ele>44.0</ele><time>2026-05-01T10:22:25Z</time></trkpt><trkpt lat="44.37166099457314" lon="9.31243152425644"><ele>44.0</ele><time>2026-05-01T10:22:26Z</time></trkpt><trkpt lat="44.37164994723657" lon="9.312567760864415"><ele>44.0</ele><time>2026-05-01T10:22:27Z</time></trkpt><trkpt lat="44.371636964287035" lon="9.312710986911178"><ele>44.0</ele><time>2026-05-01T10:22:28Z</time></trkpt><trkpt lat="44.37162106732685" lon="9.31285684195799"><ele>44.0</ele><time>2026-05-01T10:22:29Z</time></trkpt><trkpt lat="44.37161322023339" lon="9.31298809657605"><ele>44.0</ele><time>2026-05-01T10:22:30Z</time></trkpt><trkpt lat="44.37160514413589" lon="9.313114090881953"><ele>44.0</ele><time>2026-05-01T10:22:31Z</time></trkpt><trkpt lat="44.3715955767333" lon="9.313240396926318"><ele>44.5</ele><time>2026-05-01T10:22:32Z</time></trkpt><trkpt lat="44.371584145255824" lon="9.313376872658198"><ele>45.0</ele><time>2026-05-01T10:22:33Z</time></trkpt><trkpt lat="44.37156703312194" lon="9.313530208321732"><ele>45.5</ele><time>2026-05-01T10:22:34Z</time></trkpt><trkpt lat="44.37154404482964" lon="9.31369589213936"><ele>46.0</ele><time>2026-05-01T10:22:35Z</time></trkpt><trkpt lat="44.371510578528294" lon="9.313875476207134"><ele>45.66666666666667</ele><time>2026-05-01T10:22:36Z</time></trkpt><trkpt lat="44.37146980526658" lon="9.314058380417984"><ele>45.333333333333336</ele><time>2026-05-01T10:22:37Z</time></trkpt><trkpt lat="44.37141351880241" lon="9.314259820609031"><ele>45.0</ele><time>2026-05-01T10:22:38Z</time></trkpt><trkpt lat="44.37133535769532" lon="9.314471909355582"><ele>45.0</ele><time>2026-05-01T10:22:39Z</time></trkpt><trkpt lat="44.371231269566366" lon="9.314670977283775"><ele>45.0</ele><time>2026-05-01T10:22:40.001Z</time></trkpt><trkpt lat="44.371108996654726" lon="9.314849047472473"><ele>45.0</ele><time>2026-05-01T10:22:41.001Z</time></trkpt><trkpt lat="44.37097251560111" lon="9.31500987689055"><ele>47.33333333333333</ele><time>2026-05-01T10:22:42.001Z</time></trkpt><trkpt lat="44.37082961662998" lon="9.315158266587844"><ele>49.666666666666664</ele><time>2026-05-01T10:22:43.001Z</time></trkpt><trkpt lat="44.370676946617145" lon="9.315297413468302"><ele>52.0</ele><time>2026-05-01T10:22:44.001Z</time></trkpt><trkpt lat="44.3705327701768" lon="9.315430205694739"><ele>50.0</ele><time>2026-05-01T10:22:45.001Z</time></trkpt><trkpt lat="44.3704091383135" lon="9.3155574276125"><ele>48.0</ele><time>2026-05-01T10:22:46.001Z</time></trkpt><trkpt lat="44.37029685328193" lon="9.3156767593964"><ele>46.0</ele><time>2026-05-01T10:22:47.001Z</time></trkpt><trkpt lat="44.37018093874832" lon="9.315789046000056"><ele>44.0</ele><time>2026-05-01T10:22:48.001Z</time></trkpt><trkpt lat="44.37006539199304" lon="9.315907926145726"><ele>44.0</ele><time>2026-05-01T10:22:49.001Z</time></trkpt><trkpt lat="44.36995420975832" lon="9.316017093182353"><ele>44.0</ele><time>2026-05-01T10:22:50.001Z</time></trkpt><trkpt lat="44.36983846246214" lon="9.31611821553347"><ele>44.0</ele><time>2026-05-01T10:22:51.001Z</time></trkpt><trkpt lat="44.36971464599272" lon="9.316195273172365"><ele>44.0</ele><time>2026-05-01T10:22:52.001Z</time></trkpt><trkpt lat="44.369582839314" lon="9.316249131877175"><ele>42.25</ele><time>2026-05-01T10:22:53.001Z</time></trkpt><trkpt lat="44.36945552954711" lon="9.316274991301475"><ele>40.5</ele><time>2026-05-01T10:22:54.001Z</time></trkpt><trkpt lat="44.369331755499715" lon="9.316304461188496"><ele>38.75</ele><time>2026-05-01T10:22:55.001Z</time></trkpt><trkpt lat="44.36920390314571" lon="9.31633700068629"><ele>37.0</ele><time>2026-05-01T10:22:56.001Z</time></trkpt><trkpt lat="44.369076204884436" lon="9.316375568926114"><ele>37.5</ele><time>2026-05-01T10:22:57.001Z</time></trkpt><trkpt lat="44.368952214368626" lon="9.31642784209668"><ele>38.0</ele><time>2026-05-01T10:22:58.001Z</time></trkpt><trkpt lat="44.36882320447693" lon="9.316490746327533"><ele>38.5</ele><time>2026-05-01T10:22:59.001Z</time></trkpt><trkpt lat="44.368685840001184" lon="9.316592340557554"><ele>39.0</ele><time>2026-05-01T10:23:00.001Z</time></trkpt><trkpt lat="44.36854284132056" lon="9.316748942663459"><ele>39.0</ele><time>2026-05-01T10:23:01.001Z</time></trkpt><trkpt lat="44.3684004359342" lon="9.316928528260384"><ele>39.0</ele><time>2026-05-01T10:23:02.001Z</time></trkpt><trkpt lat="44.368275579069255" lon="9.317093008287323"><ele>39.0</ele><time>2026-05-01T10:23:03.001Z</time></trkpt><trkpt lat="44.36816010465103" lon="9.317242614003153"><ele>38.5</ele><time>2026-05-01T10:23:04.001Z</time></trkpt><trkpt lat="44.36805149730306" lon="9.317379672317212"><ele>38.0</ele><time>2026-05-01T10:23:05.001Z</time></trkpt><trkpt lat="44.3679463323214" lon="9.317507063973821"><ele>37.5</ele><time>2026-05-01T10:23:06.001Z</time></trkpt><trkpt lat="44.36783407125085" lon="9.317642220495872"><ele>37.0</ele><time>2026-05-01T10:23:07.001Z</time></trkpt><trkpt lat="44.36771058386224" lon="9.317767928613508"><ele>37.0</ele><time>2026-05-01T10:23:08.001Z</time></trkpt><trkpt lat="44.36757043274993" lon="9.317874254482733"><ele>37.0</ele><time>2026-05-01T10:23:09.001Z</time></trkpt><trkpt lat="44.36740741082184" lon="9.317983042113639"><ele>37.0</ele><time>2026-05-01T10:23:10.001Z</time></trkpt><trkpt lat="44.36723488980227" lon="9.318080149933204"><ele>39.0</ele><time>2026-05-01T10:23:11.001Z</time></trkpt><trkpt lat="44.367052732096134" lon="9.318171498579519"><ele>41.0</ele><time>2026-05-01T10:23:12.001Z</time></trkpt><trkpt lat="44.36685425764473" lon="9.318287482168635"><ele>43.0</ele><time>2026-05-01T10:23:13.001Z</time></trkpt><trkpt lat="44.36664625554728" lon="9.318419748146512"><ele>43.0</ele><time>2026-05-01T10:23:14.001Z</time></trkpt><trkpt lat="44.36644721974017" lon="9.318566383241208"><ele>43.0</ele><time>2026-05-01T10:23:15.001Z</time></trkpt><trkpt lat="44.36624414010261" lon="9.318717387793933"><ele>44.5</ele><time>2026-05-01T10:23:16.001Z</time></trkpt><trkpt lat="44.366040145103604" lon="9.318878825299398"><ele>46.0</ele><time>2026-05-01T10:23:17.001Z</time></trkpt><trkpt lat="44.365836780207374" lon="9.319048513085706"><ele>46.0</ele><time>2026-05-01T10:23:18.001Z</time></trkpt><trkpt lat="44.3656447194008" lon="9.319241179225624"><ele>46.0</ele><time>2026-05-01T10:23:19.001Z</time></trkpt><trkpt lat="44.365472314164485" lon="9.319443028194543"><ele>44.0</ele><time>2026-05-01T10:23:20.001Z</time></trkpt><trkpt lat="44.36531817649655" lon="9.31963048246899"><ele>42.0</ele><time>2026-05-01T10:23:21.001Z</time></trkpt><trkpt lat="44.365184649216886" lon="9.319824282187007"><ele>40.0</ele><time>2026-05-01T10:23:22.001Z</time></trkpt><trkpt lat="44.365084808219414" lon="9.32005329840203"><ele>40.0</ele><time>2026-05-01T10:23:23.001Z</time></trkpt><trkpt lat="44.365018665604886" lon="9.320313569605233"><ele>40.0</ele><time>2026-05-01T10:23:24.001Z</time></trkpt><trkpt lat="44.36498070580868" lon="9.320610824249451"><ele>40.0</ele><time>2026-05-01T10:23:25.001Z</time></trkpt><trkpt lat="44.36497087595861" lon="9.320927021546364"><ele>41.0</ele><time>2026-05-01T10:23:26.001Z</time></trkpt><trkpt lat="44.36497143497432" lon="9.321237321498739"><ele>42.0</ele><time>2026-05-01T10:23:27.001Z</time></trkpt><trkpt lat="44.36495843418508" lon="9.321537412408956"><ele>43.0</ele><time>2026-05-01T10:23:28.001Z</time></trkpt><trkpt lat="44.36494310937244" lon="9.321833054632897"><ele>43.333333333333336</ele><time>2026-05-01T10:23:29.001Z</time></trkpt><trkpt lat="44.36492825043796" lon="9.322127109045464"><ele>43.666666666666664</ele><time>2026-05-01T10:23:30.001Z</time></trkpt><trkpt lat="44.364915470007276" lon="9.32240403481042"><ele>44.0</ele><time>2026-05-01T10:23:31.002Z</time></trkpt><trkpt lat="44.36491027774373" lon="9.32268639288995"><ele>44.0</ele><time>2026-05-01T10:23:32.002Z</time></trkpt><trkpt lat="44.36493328253181" lon="9.322970204106943"><ele>44.0</ele><time>2026-05-01T10:23:33.002Z</time></trkpt><trkpt lat="44.36498542662678" lon="9.32325753653099"><ele>44.0</ele><time>2026-05-01T10:23:34.002Z</time></trkpt><trkpt lat="44.3650474338377" lon="9.323542258158561"><ele>45.0</ele><time>2026-05-01T10:23:35.002Z</time></trkpt><trkpt lat="44.36510143431553" lon="9.323823311732117"><ele>46.0</ele><time>2026-05-01T10:23:36.002Z</time></trkpt><trkpt lat="44.36516374804982" lon="9.32408379405122"><ele>47.0</ele><time>2026-05-01T10:23:37.002Z</time></trkpt><trkpt lat="44.365241717792" lon="9.324321976706242"><ele>44.666666666666664</ele><time>2026-05-01T10:23:38.002Z</time></trkpt><trkpt lat="44.36533363874746" lon="9.324525280539305"><ele>42.333333333333336</ele><time>2026-05-01T10:23:39.002Z</time></trkpt><trkpt lat="44.36540820923832" lon="9.32471405533842"><ele>40.0</ele><time>2026-05-01T10:23:40.002Z</time></trkpt><trkpt lat="44.365420407341006" lon="9.324907364507729"><ele>38.75</ele><time>2026-05-01T10:23:41.002Z</time></trkpt><trkpt lat="44.365416516508695" lon="9.325091772932694"><ele>37.5</ele><time>2026-05-01T10:23:42.002Z</time></trkpt><trkpt lat="44.36540040830333" lon="9.325266121422937"><ele>36.25</ele><time>2026-05-01T10:23:43.002Z</time></trkpt><trkpt lat="44.36538857846882" lon="9.325429172496193"><ele>35.0</ele><time>2026-05-01T10:23:44.002Z</time></trkpt><trkpt lat="44.3653676502326" lon="9.325571610098883"><ele>35.0</ele><time>2026-05-01T10:23:45.002Z</time></trkpt><trkpt lat="44.36536706928369" lon="9.325710041960399"><ele>35.0</ele><time>2026-05-01T10:23:46.002Z</time></trkpt><trkpt lat="44.365380180687666" lon="9.325865496445742"><ele>35.0</ele><time>2026-05-01T10:23:47.002Z</time></trkpt><trkpt lat="44.365421683056766" lon="9.32602452868225"><ele>35.0</ele><time>2026-05-01T10:23:48.002Z</time></trkpt><trkpt lat="44.36548556226364" lon="9.32618307507833"><ele>37.2</ele><time>2026-05-01T10:23:49.002Z</time></trkpt><trkpt lat="44.36555974871184" lon="9.326324849700095"><ele>39.4</ele><time>2026-05-01T10:23:50.002Z</time></trkpt><trkpt lat="44.36562225206602" lon="9.326456349447321"><ele>41.599999999999994</ele><time>2026-05-01T10:23:51.002Z</time></trkpt><trkpt lat="44.3656698435664" lon="9.326587831106618"><ele>43.8</ele><time>2026-05-01T10:23:52.002Z</time></trkpt><trkpt lat="44.36572352057483" lon="9.32670958090013"><ele>46.0</ele><time>2026-05-01T10:23:53.002Z</time></trkpt><trkpt lat="44.3657801487397" lon="9.32683375837577"><ele>46.0</ele><time>2026-05-01T10:23:54.002Z</time></trkpt><trkpt lat="44.3658460302169" lon="9.326957615859731"><ele>46.0</ele><time>2026-05-01T10:23:55.002Z</time></trkpt><trkpt lat="44.365934343746986" lon="9.327068912654065"><ele>46.0</ele><time>2026-05-01T10:23:56.002Z</time></trkpt><trkpt lat="44.36603576581747" lon="9.327173317537016"><ele>46.0</ele><time>2026-05-01T10:23:57.002Z</time></trkpt><trkpt lat="44.36614185855307" lon="9.32727912635627"><ele>46.75</ele><time>2026-05-01T10:23:58.002Z</time></trkpt><trkpt lat="44.36623215985018" lon="9.327382720041761"><ele>47.5</ele><time>2026-05-01T10:23:59.002Z</time></trkpt><trkpt lat="44.36630779121286" lon="9.32749672921945"><ele>48.25</ele><time>2026-05-01T10:24:00.002Z</time></trkpt><trkpt lat="44.36633874893991" lon="9.327659695888403"><ele>49.0</ele><time>2026-05-01T10:24:01.002Z</time></trkpt><trkpt lat="44.36638190579115" lon="9.327826036635122"><ele>49.0</ele><time>2026-05-01T10:24:02.002Z</time></trkpt><trkpt lat="44.36640911099474" lon="9.328005019370295"><ele>49.0</ele><time>2026-05-01T10:24:03.002Z</time></trkpt><trkpt lat="44.366447352854095" lon="9.32817560839551"><ele>49.0</ele><time>2026-05-01T10:24:04.002Z</time></trkpt><trkpt lat="44.36648178264801" lon="9.32833059520059"><ele>49.0</ele><time>2026-05-01T10:24:05Z</time></trkpt><trkpt lat="44.36650901301847" lon="9.328481388087205"><ele>47.0</ele><time>2026-05-01T10:24:06Z</time></trkpt><trkpt lat="44.36653505985926" lon="9.32862980756441"><ele>45.0</ele><time>2026-05-01T10:24:07Z</time></trkpt><trkpt lat="44.366572050443054" lon="9.328800862529667"><ele>43.0</ele><time>2026-05-01T10:24:08Z</time></trkpt><trkpt lat="44.36660336889643" lon="9.328967891969247"><ele>41.0</ele><time>2026-05-01T10:24:09Z</time></trkpt><trkpt lat="44.366597403127535" lon="9.329156931143809"><ele>40.75</ele><time>2026-05-01T10:24:10Z</time></trkpt><trkpt lat="44.36660077853244" lon="9.329351278531043"><ele>40.5</ele><time>2026-05-01T10:24:11Z</time></trkpt><trkpt lat="44.366598460150996" lon="9.329538889995971"><ele>40.25</ele><time>2026-05-01T10:24:12Z</time></trkpt><trkpt lat="44.36660879833929" lon="9.329715037843163"><ele>40.0</ele><time>2026-05-01T10:24:13Z</time></trkpt><trkpt lat="44.36659816389388" lon="9.32988727880515"><ele>39.6</ele><time>2026-05-01T10:24:14Z</time></trkpt><trkpt lat="44.36659647103948" lon="9.330055005492946"><ele>39.2</ele><time>2026-05-01T10:24:15Z</time></trkpt><trkpt lat="44.36658286558667" lon="9.33021158263887"><ele>38.8</ele><time>2026-05-01T10:24:16Z</time></trkpt><trkpt lat="44.366572776685814" lon="9.330360978603219"><ele>38.4</ele><time>2026-05-01T10:24:17Z</time></trkpt><trkpt lat="44.366556455185844" lon="9.33051028652252"><ele>38.0</ele><time>2026-05-01T10:24:18Z</time></trkpt><trkpt lat="44.36654770470536" lon="9.330663878986615"><ele>38.0</ele><time>2026-05-01T10:24:19Z</time></trkpt><trkpt lat="44.36653125148525" lon="9.330821133702514"><ele>38.0</ele><time>2026-05-01T10:24:20Z</time></trkpt><trkpt lat="44.36648848605186" lon="9.33096293409275"><ele>38.0</ele><time>2026-05-01T10:24:21Z</time></trkpt><trkpt lat="44.366450127047" lon="9.331102615660091"><ele>38.0</ele><time>2026-05-01T10:24:22Z</time></trkpt><trkpt lat="44.366414073388746" lon="9.331243686194378"><ele>38.0</ele><time>2026-05-01T10:24:23Z</time></trkpt><trkpt lat="44.36637260573517" lon="9.331379427965485"><ele>36.8</ele><time>2026-05-01T10:24:24Z</time></trkpt><trkpt lat="44.366334528712244" lon="9.33151761197397"><ele>35.599999999999994</ele><time>2026-05-01T10:24:25Z</time></trkpt><trkpt lat="44.36629717755376" lon="9.331655894470735"><ele>34.400000000000006</ele><time>2026-05-01T10:24:26Z</time></trkpt><trkpt lat="44.3662598197039" lon="9.331790602941604"><ele>33.2</ele><time>2026-05-01T10:24:27Z</time></trkpt><trkpt lat="44.36621844533588" lon="9.331922535916258"><ele>32.0</ele><time>2026-05-01T10:24:28Z</time></trkpt><trkpt lat="44.366177071927254" lon="9.332062934428293"><ele>32.0</ele><time>2026-05-01T10:24:29Z</time></trkpt><trkpt lat="44.36613426557035" lon="9.332204742790397"><ele>32.0</ele><time>2026-05-01T10:24:30Z</time></trkpt><trkpt lat="44.36608902824745" lon="9.332346999762464"><ele>32.0</ele><time>2026-05-01T10:24:31Z</time></trkpt><trkpt lat="44.36604888254838" lon="9.332490276272427"><ele>32.0</ele><time>2026-05-01T10:24:32Z</time></trkpt><trkpt lat="44.366010660721244" lon="9.332637438973155"><ele>32.0</ele><time>2026-05-01T10:24:33Z</time></trkpt><trkpt lat="44.365976569319315" lon="9.332787101614276"><ele>32.5</ele><time>2026-05-01T10:24:34Z</time></trkpt><trkpt lat="44.36594266470133" lon="9.332936184567103"><ele>33.0</ele><time>2026-05-01T10:24:35Z</time></trkpt><trkpt lat="44.36590734385835" lon="9.33308655130932"><ele>33.5</ele><time>2026-05-01T10:24:36Z</time></trkpt><trkpt lat="44.36586686150952" lon="9.333235344551234"><ele>34.0</ele><time>2026-05-01T10:24:37Z</time></trkpt><trkpt lat="44.365816240733565" lon="9.333391761222865"><ele>33.25</ele><time>2026-05-01T10:24:38Z</time></trkpt><trkpt lat="44.365740863102346" lon="9.333543150458075"><ele>32.5</ele><time>2026-05-01T10:24:39Z</time></trkpt><trkpt lat="44.36563278544464" lon="9.333657877704091"><ele>31.75</ele><time>2026-05-01T10:24:40Z</time></trkpt><trkpt lat="44.365523429521744" lon="9.333764192316272"><ele>31.0</ele><time>2026-05-01T10:24:41Z</time></trkpt><trkpt lat="44.3654087162761" lon="9.333891681849973"><ele>35.0</ele><time>2026-05-01T10:24:42Z</time></trkpt><trkpt lat="44.3652830822692" lon="9.333993243044981"><ele>39.0</ele><time>2026-05-01T10:24:43Z</time></trkpt><trkpt lat="44.3651626990143" lon="9.334101182991663"><ele>43.0</ele><time>2026-05-01T10:24:44Z</time></trkpt><trkpt lat="44.365048947611186" lon="9.334209834637045"><ele>47.0</ele><time>2026-05-01T10:24:45Z</time></trkpt><trkpt lat="44.364932661454525" lon="9.334277481516603"><ele>47.0</ele><time>2026-05-01T10:24:46Z</time></trkpt><trkpt lat="44.3648330672899" lon="9.334356393132769"><ele>47.0</ele><time>2026-05-01T10:24:47.001Z</time></trkpt><trkpt lat="44.364713018119076" lon="9.334408251515908"><ele>47.0</ele><time>2026-05-01T10:24:48.001Z</time></trkpt><trkpt lat="44.364563797128625" lon="9.33445059815589"><ele>47.0</ele><time>2026-05-01T10:24:49.001Z</time></trkpt><trkpt lat="44.36440167604658" lon="9.334530473802257"><ele>42.0</ele><time>2026-05-01T10:24:50.001Z</time></trkpt><trkpt lat="44.36422709261012" lon="9.334568538442339"><ele>37.0</ele><time>2026-05-01T10:24:51.001Z</time></trkpt><trkpt lat="44.36406316400594" lon="9.334633428279146"><ele>32.0</ele><time>2026-05-01T10:24:52.001Z</time></trkpt><trkpt lat="44.36390360536853" lon="9.33472022660966"><ele>33.25</ele><time>2026-05-01T10:24:53.001Z</time></trkpt><trkpt lat="44.363747966833266" lon="9.334774783865237"><ele>34.5</ele><time>2026-05-01T10:24:54.001Z</time></trkpt><trkpt lat="44.3636040623111" lon="9.334828319842257"><ele>35.75</ele><time>2026-05-01T10:24:55.001Z</time></trkpt><trkpt lat="44.36347378864476" lon="9.33488424068167"><ele>37.0</ele><time>2026-05-01T10:24:56.001Z</time></trkpt><trkpt lat="44.36334534214141" lon="9.334944514686761"><ele>37.0</ele><time>2026-05-01T10:24:57.001Z</time></trkpt><trkpt lat="44.363210256959626" lon="9.335006481691691"><ele>37.0</ele><time>2026-05-01T10:24:58.001Z</time></trkpt><trkpt lat="44.36306813305444" lon="9.335071968115662"><ele>37.0</ele><time>2026-05-01T10:24:59.001Z</time></trkpt><trkpt lat="44.36294045635023" lon="9.335127769475227"><ele>37.0</ele><time>2026-05-01T10:25:00.001Z</time></trkpt><trkpt lat="44.36280232088788" lon="9.335189842550966"><ele>36.0</ele><time>2026-05-01T10:25:01.001Z</time></trkpt><trkpt lat="44.36264672919474" lon="9.335280666338885"><ele>35.0</ele><time>2026-05-01T10:25:02.001Z</time></trkpt><trkpt lat="44.36246715522381" lon="9.335363618452602"><ele>34.0</ele><time>2026-05-01T10:25:03.001Z</time></trkpt><trkpt lat="44.36229947057023" lon="9.335486334705877"><ele>35.66666666666667</ele><time>2026-05-01T10:25:04.001Z</time></trkpt><trkpt lat="44.36213496216136" lon="9.335563536792892"><ele>37.333333333333336</ele><time>2026-05-01T10:25:05.001Z</time></trkpt><trkpt lat="44.36198716850547" lon="9.33564089871126"><ele>39.0</ele><time>2026-05-01T10:25:06.001Z</time></trkpt><trkpt lat="44.361853117340644" lon="9.335721726207838"><ele>39.0</ele><time>2026-05-01T10:25:07.001Z</time></trkpt><trkpt lat="44.361727228459" lon="9.335815047145529"><ele>39.0</ele><time>2026-05-01T10:25:08.001Z</time></trkpt><trkpt lat="44.361621779694715" lon="9.335933839790878"><ele>39.0</ele><time>2026-05-01T10:25:09.001Z</time></trkpt><trkpt lat="44.361544704305025" lon="9.336092055802053"><ele>39.0</ele><time>2026-05-01T10:25:10.001Z</time></trkpt><trkpt lat="44.36147165431071" lon="9.336275330956674"><ele>36.5</ele><time>2026-05-01T10:25:11.001Z</time></trkpt><trkpt lat="44.36141324379058" lon="9.336452745951181"><ele>34.0</ele><time>2026-05-01T10:25:12.001Z</time></trkpt><trkpt lat="44.36137355328007" lon="9.336619130046682"><ele>31.5</ele><time>2026-05-01T10:25:13.001Z</time></trkpt><trkpt lat="44.361351449019004" lon="9.336777863624185"><ele>29.0</ele><time>2026-05-01T10:25:14.001Z</time></trkpt><trkpt lat="44.36134929054185" lon="9.33693803095813"><ele>33.25</ele><time>2026-05-01T10:25:15.001Z</time></trkpt><trkpt lat="44.36137402518608" lon="9.337100806203601"><ele>37.5</ele><time>2026-05-01T10:25:16.001Z</time></trkpt><trkpt lat="44.36143689533044" lon="9.337268398606795"><ele>41.75</ele><time>2026-05-01T10:25:17.001Z</time></trkpt><trkpt lat="44.36151822743298" lon="9.337475824624272"><ele>46.0</ele><time>2026-05-01T10:25:18.001Z</time></trkpt><trkpt lat="44.36161947555556" lon="9.337701798031636"><ele>46.0</ele><time>2026-05-01T10:25:19.001Z</time></trkpt><trkpt lat="44.36172504233487" lon="9.337950223371612"><ele>46.0</ele><time>2026-05-01T10:25:20.001Z</time></trkpt><trkpt lat="44.36182949841501" lon="9.338199573768906"><ele>46.0</ele><time>2026-05-01T10:25:21.001Z</time></trkpt><trkpt lat="44.361945598748434" lon="9.338444054227727"><ele>46.333333333333336</ele><time>2026-05-01T10:25:22.001Z</time></trkpt><trkpt lat="44.362057978844035" lon="9.338705759203556"><ele>46.666666666666664</ele><time>2026-05-01T10:25:23.001Z</time></trkpt><trkpt lat="44.36217109178115" lon="9.338965988574321"><ele>47.0</ele><time>2026-05-01T10:25:24.001Z</time></trkpt><trkpt lat="44.362279026186336" lon="9.339219415755743"><ele>47.0</ele><time>2026-05-01T10:25:25.001Z</time></trkpt><trkpt lat="44.362377559416416" lon="9.339456782812007"><ele>47.0</ele><time>2026-05-01T10:25:26.001Z</time></trkpt><trkpt lat="44.3624580437077" lon="9.33966931239799"><ele>47.0</ele><time>2026-05-01T10:25:27.001Z</time></trkpt><trkpt lat="44.362505730302274" lon="9.339850168077762"><ele>46.25</ele><time>2026-05-01T10:25:28.001Z</time></trkpt><trkpt lat="44.36252565161953" lon="9.340013214131265"><ele>45.5</ele><time>2026-05-01T10:25:29.001Z</time></trkpt><trkpt lat="44.362502510585024" lon="9.340179274696833"><ele>44.75</ele><time>2026-05-01T10:25:30.001Z</time></trkpt><trkpt lat="44.36244666348507" lon="9.340382032376217"><ele>44.0</ele><time>2026-05-01T10:25:31.001Z</time></trkpt><trkpt lat="44.36231378321008" lon="9.34055902931211"><ele>39.33333333333333</ele><time>2026-05-01T10:25:32.001Z</time></trkpt><trkpt lat="44.362185219890904" lon="9.340755766716555"><ele>34.666666666666664</ele><time>2026-05-01T10:25:33.001Z</time></trkpt><trkpt lat="44.36205004525656" lon="9.340909841488353"><ele>30.0</ele><time>2026-05-01T10:25:34.001Z</time></trkpt><trkpt lat="44.3619515279288" lon="9.341051077093288"><ele>30.0</ele><time>2026-05-01T10:25:35.001Z</time></trkpt><trkpt lat="44.36189901111057" lon="9.341208527369853"><ele>30.0</ele><time>2026-05-01T10:25:36.001Z</time></trkpt><trkpt lat="44.36189228511975" lon="9.341379870318132"><ele>30.0</ele><time>2026-05-01T10:25:37.002Z</time></trkpt><trkpt lat="44.36192758810951" lon="9.341553221032159"><ele>30.0</ele><time>2026-05-01T10:25:38.002Z</time></trkpt><trkpt lat="44.36198653089166" lon="9.341734619772275"><ele>31.0</ele><time>2026-05-01T10:25:39.002Z</time></trkpt><trkpt lat="44.362007568776775" lon="9.341950079574541"><ele>32.0</ele><time>2026-05-01T10:25:40.002Z</time></trkpt><trkpt lat="44.361983636426935" lon="9.342193755604253"><ele>33.0</ele><time>2026-05-01T10:25:41.002Z</time></trkpt><trkpt lat="44.36194187676191" lon="9.34243589653363"><ele>33.5</ele><time>2026-05-01T10:25:42.002Z</time></trkpt><trkpt lat="44.36190144050438" lon="9.34265382250283"><ele>34.0</ele><time>2026-05-01T10:25:43.002Z</time></trkpt><trkpt lat="44.36186000145891" lon="9.34284154729074"><ele>34.5</ele><time>2026-05-01T10:25:44.002Z</time></trkpt><trkpt lat="44.3617991150297" lon="9.343007451102194"><ele>35.0</ele><time>2026-05-01T10:25:45.002Z</time></trkpt><trkpt lat="44.36172191407331" lon="9.34317327019994"><ele>33.666666666666664</ele><time>2026-05-01T10:25:46.002Z</time></trkpt><trkpt lat="44.361606479953764" lon="9.34332291789199"><ele>32.333333333333336</ele><time>2026-05-01T10:25:47.002Z</time></trkpt><trkpt lat="44.36146928231281" lon="9.343473159347738"><ele>31.0</ele><time>2026-05-01T10:25:48.002Z</time></trkpt><trkpt lat="44.361328387074096" lon="9.343619445792575"><ele>31.0</ele><time>2026-05-01T10:25:49.002Z</time></trkpt><trkpt lat="44.36117785946032" lon="9.343765717022084"><ele>31.0</ele><time>2026-05-01T10:25:50.002Z</time></trkpt><trkpt lat="44.36101632271677" lon="9.343877391791224"><ele>31.0</ele><time>2026-05-01T10:25:51.002Z</time></trkpt><trkpt lat="44.360838785927875" lon="9.343965583809418"><ele>36.66666666666667</ele><time>2026-05-01T10:25:52.002Z</time></trkpt><trkpt lat="44.360649818702285" lon="9.34402931079923"><ele>42.333333333333336</ele><time>2026-05-01T10:25:53.002Z</time></trkpt><trkpt lat="44.360454328891294" lon="9.344037477100178"><ele>48.0</ele><time>2026-05-01T10:25:54.002Z</time></trkpt><trkpt lat="44.3602607441545" lon="9.344063581561159"><ele>48.0</ele><time>2026-05-01T10:25:55.002Z</time></trkpt><trkpt lat="44.36005898931717" lon="9.344055517514843"><ele>48.0</ele><time>2026-05-01T10:25:56.002Z</time></trkpt><trkpt lat="44.35985440544418" lon="9.344051001808685"><ele>48.0</ele><time>2026-05-01T10:25:57.002Z</time></trkpt><trkpt lat="44.35965589432843" lon="9.344031965928586"><ele>52.33333333333333</ele><time>2026-05-01T10:25:58.002Z</time></trkpt><trkpt lat="44.35945519196238" lon="9.343976719367516"><ele>56.666666666666664</ele><time>2026-05-01T10:25:59.002Z</time></trkpt><trkpt lat="44.35925488917587" lon="9.343898181846255"><ele>61.0</ele><time>2026-05-01T10:26:00.002Z</time></trkpt><trkpt lat="44.359054383529056" lon="9.343818658334024"><ele>52.0</ele><time>2026-05-01T10:26:01.002Z</time></trkpt><trkpt lat="44.358861511629456" lon="9.343744165874993"><ele>43.0</ele><time>2026-05-01T10:26:02.002Z</time></trkpt><trkpt lat="44.35866710405657" lon="9.343672161350714"><ele>34.0</ele><time>2026-05-01T10:26:03.002Z</time></trkpt><trkpt lat="44.35847670306944" lon="9.34359866188113"><ele>34.0</ele><time>2026-05-01T10:26:04.002Z</time></trkpt><trkpt lat="44.35829164741842" lon="9.343524891561108"><ele>34.0</ele><time>2026-05-01T10:26:05.002Z</time></trkpt><trkpt lat="44.35811682924846" lon="9.343450008928976"><ele>34.0</ele><time>2026-05-01T10:26:06.002Z</time></trkpt><trkpt lat="44.35794015411991" lon="9.343388553829817"><ele>36.66666666666667</ele><time>2026-05-01T10:26:07.002Z</time></trkpt><trkpt lat="44.35775654213918" lon="9.343340668227716"><ele>39.333333333333336</ele><time>2026-05-01T10:26:08.002Z</time></trkpt><trkpt lat="44.35756772468072" lon="9.34331245067101"><ele>42.0</ele><time>2026-05-01T10:26:09.002Z</time></trkpt><trkpt lat="44.35738015882012" lon="9.343294649173945"><ele>39.333333333333336</ele><time>2026-05-01T10:26:10.002Z</time></trkpt><trkpt lat="44.35719085007808" lon="9.343284283971306"><ele>36.66666666666667</ele><time>2026-05-01T10:26:11Z</time></trkpt><trkpt lat="44.357004608155734" lon="9.343258338250285"><ele>34.0</ele><time>2026-05-01T10:26:12Z</time></trkpt><trkpt lat="44.35682393763375" lon="9.34324080071015"><ele>34.0</ele><time>2026-05-01T10:26:13Z</time></trkpt><trkpt lat="44.35663776020855" lon="9.343219951329065"><ele>34.0</ele><time>2026-05-01T10:26:14Z</time></trkpt><trkpt lat="44.35645534082021" lon="9.343198506922342"><ele>34.0</ele><time>2026-05-01T10:26:15Z</time></trkpt><trkpt lat="44.356264155611214" lon="9.34318078930352"><ele>34.333333333333336</ele><time>2026-05-01T10:26:16Z</time></trkpt><trkpt lat="44.356079909358684" lon="9.343156326904907"><ele>34.666666666666664</ele><time>2026-05-01T10:26:17Z</time></trkpt><trkpt lat="44.35589352204667" lon="9.343140103147936"><ele>35.0</ele><time>2026-05-01T10:26:18Z</time></trkpt><trkpt lat="44.3557124682099" lon="9.34312253887899"><ele>34.0</ele><time>2026-05-01T10:26:19Z</time></trkpt><trkpt lat="44.355529408095165" lon="9.343110532490037"><ele>33.0</ele><time>2026-05-01T10:26:20Z</time></trkpt><trkpt lat="44.35533282249249" lon="9.343109963675587"><ele>32.0</ele><time>2026-05-01T10:26:21Z</time></trkpt><trkpt lat="44.35512565360905" lon="9.343110154243693"><ele>32.0</ele><time>2026-05-01T10:26:22Z</time></trkpt><trkpt lat="44.35492614439957" lon="9.34313102768698"><ele>32.0</ele><time>2026-05-01T10:26:23Z</time></trkpt><trkpt lat="44.35472708129005" lon="9.343139520091238"><ele>32.0</ele><time>2026-05-01T10:26:24Z</time></trkpt><trkpt lat="44.35453702227528" lon="9.343159373049236"><ele>30.0</ele><time>2026-05-01T10:26:25Z</time></trkpt><trkpt lat="44.35434113633431" lon="9.34317435990971"><ele>28.0</ele><time>2026-05-01T10:26:26Z</time></trkpt><trkpt lat="44.35414704772428" lon="9.343189001588097"><ele>26.0</ele><time>2026-05-01T10:26:27Z</time></trkpt><trkpt lat="44.353956907252005" lon="9.343205295805273"><ele>26.333333333333332</ele><time>2026-05-01T10:26:28Z</time></trkpt><trkpt lat="44.35376936429078" lon="9.34323574832962"><ele>26.666666666666664</ele><time>2026-05-01T10:26:29Z</time></trkpt><trkpt lat="44.35357978165893" lon="9.343277296629815"><ele>27.0</ele><time>2026-05-01T10:26:30Z</time></trkpt><trkpt lat="44.353403413367396" lon="9.343319997031779"><ele>27.0</ele><time>2026-05-01T10:26:31Z</time></trkpt><trkpt lat="44.353237113832364" lon="9.343360465713445"><ele>27.0</ele><time>2026-05-01T10:26:32Z</time></trkpt><trkpt lat="44.35307051892115" lon="9.343389047460699"><ele>27.0</ele><time>2026-05-01T10:26:33Z</time></trkpt><trkpt lat="44.3529213067405" lon="9.343419943973316"><ele>26.8</ele><time>2026-05-01T10:26:34Z</time></trkpt><trkpt lat="44.3527858346477" lon="9.34344932206222"><ele>26.6</ele><time>2026-05-01T10:26:35Z</time></trkpt><trkpt lat="44.352678284662886" lon="9.343470590247748"><ele>26.400000000000002</ele><time>2026-05-01T10:26:36Z</time></trkpt><trkpt lat="44.35257842791393" lon="9.34349180873724"><ele>26.200000000000003</ele><time>2026-05-01T10:26:37Z</time></trkpt><trkpt lat="44.35249368578169" lon="9.343499070792666"><ele>26.0</ele><time>2026-05-01T10:26:38Z</time></trkpt><trkpt lat="44.35241713200536" lon="9.343515310796771"><ele>25.999999999999996</ele><time>2026-05-01T10:26:39Z</time></trkpt><trkpt lat="44.35234829006277" lon="9.343529833416413"><ele>26.0</ele><time>2026-05-01T10:26:40Z</time></trkpt><trkpt lat="44.352279156769505" lon="9.343542314363319"><ele>26.0</ele><time>2026-05-01T10:26:41Z</time></trkpt><trkpt lat="44.352190726213706" lon="9.343532564463572"><ele>26.0</ele><time>2026-05-01T10:26:42Z</time></trkpt><trkpt lat="44.352090981649795" lon="9.343500202890974"><ele>25.999999999999996</ele><time>2026-05-01T10:26:43Z</time></trkpt><trkpt lat="44.35200124316924" lon="9.343450655434381"><ele>26.0</ele><time>2026-05-01T10:26:44Z</time></trkpt><trkpt lat="44.35191606921535" lon="9.3433954734643"><ele>26.166666666666664</ele><time>2026-05-01T10:26:45Z</time></trkpt><trkpt lat="44.35183043048053" lon="9.343335636379237"><ele>26.333333333333332</ele><time>2026-05-01T10:26:46Z</time></trkpt><trkpt lat="44.35174508102919" lon="9.343279447003914"><ele>26.5</ele><time>2026-05-01T10:26:47Z</time></trkpt><trkpt lat="44.35166787008126" lon="9.343227552222459"><ele>26.666666666666664</ele><time>2026-05-01T10:26:48Z</time></trkpt><trkpt lat="44.35159443887641" lon="9.343179330852534"><ele>26.833333333333332</ele><time>2026-05-01T10:26:49Z</time></trkpt><trkpt lat="44.35151687542756" lon="9.343148901439351"><ele>27.0</ele><time>2026-05-01T10:26:50Z</time></trkpt><trkpt lat="44.351409966591696" lon="9.343091456612326"><ele>26.75</ele><time>2026-05-01T10:26:51Z</time></trkpt><trkpt lat="44.35127819809466" lon="9.342984173532109"><ele>26.5</ele><time>2026-05-01T10:26:52Z</time></trkpt><trkpt lat="44.35114001781213" lon="9.342898237350742"><ele>26.25</ele><time>2026-05-01T10:26:53.001Z</time></trkpt><trkpt lat="44.351026362311174" lon="9.342837940316207"><ele>26.0</ele><time>2026-05-01T10:26:54.001Z</time></trkpt><trkpt lat="44.350904791719664" lon="9.342816254909536"><ele>26.0</ele><time>2026-05-01T10:26:55.001Z</time></trkpt><trkpt lat="44.35078795877765" lon="9.342807464556662"><ele>26.0</ele><time>2026-05-01T10:26:56.001Z</time></trkpt><trkpt lat="44.35068285207376" lon="9.34282678646567"><ele>26.0</ele><time>2026-05-01T10:26:57.001Z</time></trkpt><trkpt lat="44.350591042877724" lon="9.342861906396621"><ele>26.0</ele><time>2026-05-01T10:26:58.001Z</time></trkpt><trkpt lat="44.35051307715325" lon="9.342911826538604"><ele>26.0</ele><time>2026-05-01T10:26:59.001Z</time></trkpt><trkpt lat="44.350445609756214" lon="9.34296889063438"><ele>25.857142857142858</ele><time>2026-05-01T10:27:00.001Z</time></trkpt><trkpt lat="44.35038680978024" lon="9.343029942771807"><ele>25.714285714285715</ele><time>2026-05-01T10:27:01.001Z</time></trkpt><trkpt lat="44.350334033207226" lon="9.343092488650859"><ele>25.571428571428573</ele><time>2026-05-01T10:27:02.001Z</time></trkpt><trkpt lat="44.350286866030714" lon="9.343153876211382"><ele>25.42857142857143</ele><time>2026-05-01T10:27:03.001Z</time></trkpt><trkpt lat="44.35024490462031" lon="9.343221640428933"><ele>25.285714285714285</ele><time>2026-05-01T10:27:04.001Z</time></trkpt><trkpt lat="44.35020558592345" lon="9.343302773171077"><ele>25.142857142857146</ele><time>2026-05-01T10:27:05.001Z</time></trkpt><trkpt lat="44.350173837383565" lon="9.34339789254271"><ele>25.0</ele><time>2026-05-01T10:27:06.001Z</time></trkpt><trkpt lat="44.35014863482593" lon="9.343502523276019"><ele>25.2</ele><time>2026-05-01T10:27:07.001Z</time></trkpt><trkpt lat="44.35013291205725" lon="9.343624293542248"><ele>25.4</ele><time>2026-05-01T10:27:08.001Z</time></trkpt><trkpt lat="44.350115956010136" lon="9.343759297848411"><ele>25.6</ele><time>2026-05-01T10:27:09.001Z</time></trkpt><trkpt lat="44.35010744247551" lon="9.343898505704772"><ele>25.8</ele><time>2026-05-01T10:27:10.001Z</time></trkpt><trkpt lat="44.35009756913044" lon="9.344044645332287"><ele>26.0</ele><time>2026-05-01T10:27:11.001Z</time></trkpt><trkpt lat="44.35008596971637" lon="9.344212945050632"><ele>26.0</ele><time>2026-05-01T10:27:12.001Z</time></trkpt><trkpt lat="44.35005165049605" lon="9.344423022013874"><ele>26.0</ele><time>2026-05-01T10:27:13.001Z</time></trkpt><trkpt lat="44.350030174712636" lon="9.344673239871277"><ele>26.0</ele><time>2026-05-01T10:27:14.001Z</time></trkpt><trkpt lat="44.35000941062076" lon="9.34491516664719"><ele>26.333333333333332</ele><time>2026-05-01T10:27:15.001Z</time></trkpt><trkpt lat="44.34998962471179" lon="9.345145696026046"><ele>26.666666666666664</ele><time>2026-05-01T10:27:16.001Z</time></trkpt><trkpt lat="44.34997165687446" lon="9.34535503652057"><ele>27.0</ele><time>2026-05-01T10:27:17.001Z</time></trkpt><trkpt lat="44.34995338371294" lon="9.345567781432527"><ele>27.0</ele><time>2026-05-01T10:27:18.001Z</time></trkpt><trkpt lat="44.34993542577185" lon="9.34577685640676"><ele>27.0</ele><time>2026-05-01T10:27:19.001Z</time></trkpt><trkpt lat="44.349919188524574" lon="9.345965898195518"><ele>27.0</ele><time>2026-05-01T10:27:20.001Z</time></trkpt><trkpt lat="44.34990299132689" lon="9.34615447379889"><ele>27.0</ele><time>2026-05-01T10:27:21.001Z</time></trkpt><trkpt lat="44.349903343804826" lon="9.346342317111834"><ele>27.0</ele><time>2026-05-01T10:27:22.001Z</time></trkpt><trkpt lat="44.349886500266884" lon="9.346521569504972"><ele>27.0</ele><time>2026-05-01T10:27:23.001Z</time></trkpt><trkpt lat="44.34987123361005" lon="9.346690629617742"><ele>27.0</ele><time>2026-05-01T10:27:24.001Z</time></trkpt><trkpt lat="44.34985395433884" lon="9.346842958315312"><ele>27.0</ele><time>2026-05-01T10:27:25.001Z</time></trkpt><trkpt lat="44.349834486985806" lon="9.346978237235646"><ele>27.0</ele><time>2026-05-01T10:27:26.001Z</time></trkpt><trkpt lat="44.349806809273915" lon="9.347104219551742"><ele>27.000000000000004</ele><time>2026-05-01T10:27:27.001Z</time></trkpt><trkpt lat="44.349762708021636" lon="9.347223285689163"><ele>27.000000000000004</ele><time>2026-05-01T10:27:28.001Z</time></trkpt><trkpt lat="44.34969142336282" lon="9.347343080276474"><ele>27.0</ele><time>2026-05-01T10:27:29.001Z</time></trkpt><trkpt lat="44.34958698618684" lon="9.347440694181621"><ele>27.0</ele><time>2026-05-01T10:27:30.001Z</time></trkpt><trkpt lat="44.34946958519582" lon="9.3474988628116"><ele>25.75</ele><time>2026-05-01T10:27:31.001Z</time></trkpt><trkpt lat="44.34933676321933" lon="9.347525765704194"><ele>24.5</ele><time>2026-05-01T10:27:32.001Z</time></trkpt><trkpt lat="44.34920246256563" lon="9.347540175856363"><ele>23.25</ele><time>2026-05-01T10:27:33.001Z</time></trkpt><trkpt lat="44.34906645763693" lon="9.347575177885425"><ele>22.0</ele><time>2026-05-01T10:27:34.001Z</time></trkpt><trkpt lat="44.348929431309514" lon="9.347608452086313"><ele>22.333333333333332</ele><time>2026-05-01T10:27:35.001Z</time></trkpt><trkpt lat="44.34879697558283" lon="9.347646458746436"><ele>22.666666666666668</ele><time>2026-05-01T10:27:36.001Z</time></trkpt><trkpt lat="44.34864531388021" lon="9.347691717103977"><ele>23.0</ele><time>2026-05-01T10:27:37.001Z</time></trkpt><trkpt lat="44.34846174471433" lon="9.347746105768424"><ele>23.0</ele><time>2026-05-01T10:27:38.001Z</time></trkpt><trkpt lat="44.348271666481594" lon="9.347798813307584"><ele>23.0</ele><time>2026-05-01T10:27:39.001Z</time></trkpt><trkpt lat="44.34811072636292" lon="9.347824479547267"><ele>23.0</ele><time>2026-05-01T10:27:40.001Z</time></trkpt><trkpt lat="44.347990614136016" lon="9.347848399760936"><ele>22.833333333333336</ele><time>2026-05-01T10:27:41.001Z</time></trkpt><trkpt lat="44.3479037154411" lon="9.347865858685225"><ele>22.666666666666668</ele><time>2026-05-01T10:27:42.002Z</time></trkpt><trkpt lat="44.34783514356476" lon="9.347886848156419"><ele>22.5</ele><time>2026-05-01T10:27:43.002Z</time></trkpt><trkpt lat="44.34776864814343" lon="9.347922086959613"><ele>22.333333333333332</ele><time>2026-05-01T10:27:44.002Z</time></trkpt><trkpt lat="44.347673136093306" lon="9.347960187883753"><ele>22.166666666666664</ele><time>2026-05-01T10:27:45.002Z</time></trkpt><trkpt lat="44.34755846473714" lon="9.3479811788331"><ele>22.0</ele><time>2026-05-01T10:27:46.002Z</time></trkpt><trkpt lat="44.347450532082654" lon="9.348006988166208"><ele>22.0</ele><time>2026-05-01T10:27:47.002Z</time></trkpt><trkpt lat="44.347364006654644" lon="9.348030148449405"><ele>22.0</ele><time>2026-05-01T10:27:48.002Z</time></trkpt><trkpt lat="44.34727720259796" lon="9.348049680082177"><ele>22.0</ele><time>2026-05-01T10:27:50.002Z</time></trkpt><trkpt lat="44.347205100169276" lon="9.348063426454221"><ele>22.0</ele><time>2026-05-01T10:27:53.002Z</time></trkpt><trkpt lat="44.347138335624365" lon="9.348082931080285"><ele>22.0</ele><time>2026-05-01T10:28:21Z</time></trkpt><trkpt lat="44.347045462330584" lon="9.348104853178935"><ele>22.0</ele><time>2026-05-01T10:28:22Z</time></trkpt><trkpt lat="44.34694639545019" lon="9.348118748081765"><ele>21.5</ele><time>2026-05-01T10:28:23Z</time></trkpt><trkpt lat="44.34683217683614" lon="9.348139644257989"><ele>21.0</ele><time>2026-05-01T10:28:24Z</time></trkpt><trkpt lat="44.34671035481821" lon="9.348163189862298"><ele>20.5</ele><time>2026-05-01T10:28:25Z</time></trkpt><trkpt lat="44.34658180514433" lon="9.348183300295668"><ele>20.0</ele><time>2026-05-01T10:28:26Z</time></trkpt><trkpt lat="44.346448665038736" lon="9.348214398586405"><ele>20.0</ele><time>2026-05-01T10:28:27Z</time></trkpt><trkpt lat="44.34631153052827" lon="9.348261036772469"><ele>20.0</ele><time>2026-05-01T10:28:28Z</time></trkpt><trkpt lat="44.3461607635264" lon="9.348298954650756"><ele>20.0</ele><time>2026-05-01T10:28:29Z</time></trkpt><trkpt lat="44.34601253004803" lon="9.348336737628117"><ele>20.0</ele><time>2026-05-01T10:28:30Z</time></trkpt><trkpt lat="44.345870465782255" lon="9.348373255449731"><ele>20.0</ele><time>2026-05-01T10:28:31Z</time></trkpt><trkpt lat="44.34574707647899" lon="9.348408583021019"><ele>20.0</ele><time>2026-05-01T10:28:32Z</time></trkpt><trkpt lat="44.345637070155135" lon="9.34844173997532"><ele>20.0</ele><time>2026-05-01T10:28:33Z</time></trkpt><trkpt lat="44.3455400903531" lon="9.348467482928797"><ele>20.0</ele><time>2026-05-01T10:28:34Z</time></trkpt><trkpt lat="44.34545244211022" lon="9.348486471285542"><ele>20.0</ele><time>2026-05-01T10:28:35Z</time></trkpt><trkpt lat="44.34537195086312" lon="9.348502012842204"><ele>22.25</ele><time>2026-05-01T10:28:36Z</time></trkpt><trkpt lat="44.34528928293541" lon="9.34857377472027"><ele>24.5</ele><time>2026-05-01T10:28:37Z</time></trkpt><trkpt lat="44.34526337238471" lon="9.348781907956276"><ele>26.75</ele><time>2026-05-01T10:28:38Z</time></trkpt><trkpt lat="44.34514799722475" lon="9.348942364207385"><ele>29.0</ele><time>2026-05-01T10:28:39Z</time></trkpt><trkpt lat="44.3450297688685" lon="9.349059739496514"><ele>29.0</ele><time>2026-05-01T10:28:40Z</time></trkpt><trkpt lat="44.34492441674896" lon="9.349180557792588"><ele>29.0</ele><time>2026-05-01T10:28:41Z</time></trkpt><trkpt lat="44.344824959306834" lon="9.349298961045353"><ele>29.0</ele><time>2026-05-01T10:28:42Z</time></trkpt><trkpt lat="44.34472195902247" lon="9.349395576389599"><ele>29.0</ele><time>2026-05-01T10:28:43Z</time></trkpt><trkpt lat="44.344598841589494" lon="9.349472264176818"><ele>30.25</ele><time>2026-05-01T10:28:44Z</time></trkpt><trkpt lat="44.34446571014213" lon="9.349528551199832"><ele>31.5</ele><time>2026-05-01T10:28:45Z</time></trkpt><trkpt lat="44.3443283678283" lon="9.349576263209919"><ele>32.75</ele><time>2026-05-01T10:28:46Z</time></trkpt><trkpt lat="44.344200897813465" lon="9.349625061090087"><ele>34.0</ele><time>2026-05-01T10:28:47Z</time></trkpt><trkpt lat="44.344069263348736" lon="9.349669891817923"><ele>33.75</ele><time>2026-05-01T10:28:48Z</time></trkpt><trkpt lat="44.343933487765966" lon="9.349715499445601"><ele>33.5</ele><time>2026-05-01T10:28:49Z</time></trkpt><trkpt lat="44.343796305778035" lon="9.3497590113337"><ele>33.25</ele><time>2026-05-01T10:28:50Z</time></trkpt><trkpt lat="44.343661536150805" lon="9.34981380115993"><ele>33.0</ele><time>2026-05-01T10:28:51Z</time></trkpt><trkpt lat="44.3435313404746" lon="9.349876916519738"><ele>32.75</ele><time>2026-05-01T10:28:52Z</time></trkpt><trkpt lat="44.343394914025744" lon="9.3499254040428"><ele>32.5</ele><time>2026-05-01T10:28:53Z</time></trkpt><trkpt lat="44.34325870027039" lon="9.34997708466165"><ele>32.25</ele><time>2026-05-01T10:28:54.001Z</time></trkpt><trkpt lat="44.34312470552425" lon="9.350027771019203"><ele>32.0</ele><time>2026-05-01T10:28:55.001Z</time></trkpt><trkpt lat="44.34299846686197" lon="9.350076377386863"><ele>32.0</ele><time>2026-05-01T10:28:56.001Z</time></trkpt><trkpt lat="44.34287353895182" lon="9.350119742257831"><ele>32.0</ele><time>2026-05-01T10:28:57.001Z</time></trkpt><trkpt lat="44.342745476676946" lon="9.350143174054233"><ele>32.0</ele><time>2026-05-01T10:28:58.001Z</time></trkpt><trkpt lat="44.34263131302553" lon="9.350092458179663"><ele>32.0</ele><time>2026-05-01T10:28:59.001Z</time></trkpt><trkpt lat="44.34253254233255" lon="9.350021904682391"><ele>32.0</ele><time>2026-05-01T10:29:00.001Z</time></trkpt><trkpt lat="44.34243038879981" lon="9.349907151683414"><ele>32.0</ele><time>2026-05-01T10:29:01.001Z</time></trkpt><trkpt lat="44.34231458883672" lon="9.349776903336359"><ele>32.0</ele><time>2026-05-01T10:29:02.001Z</time></trkpt><trkpt lat="44.34218802100157" lon="9.349663922741792"><ele>32.0</ele><time>2026-05-01T10:29:03.001Z</time></trkpt><trkpt lat="44.34207734939122" lon="9.349526993515932"><ele>30.25</ele><time>2026-05-01T10:29:04.001Z</time></trkpt><trkpt lat="44.34197051261389" lon="9.349405801558436"><ele>28.5</ele><time>2026-05-01T10:29:05.001Z</time></trkpt><trkpt lat="44.34187057335119" lon="9.349294842557288"><ele>26.75</ele><time>2026-05-01T10:29:06.001Z</time></trkpt><trkpt lat="44.341787139421875" lon="9.349165929649738"><ele>25.0</ele><time>2026-05-01T10:29:07.001Z</time></trkpt><trkpt lat="44.3417492178002" lon="9.349000423592129"><ele>27.4</ele><time>2026-05-01T10:29:08.001Z</time></trkpt><trkpt lat="44.341689585389084" lon="9.348856336885557"><ele>29.8</ele><time>2026-05-01T10:29:09.001Z</time></trkpt><trkpt lat="44.34164281078515" lon="9.348739605965545"><ele>32.2</ele><time>2026-05-01T10:29:10.001Z</time></trkpt><trkpt lat="44.341566253488445" lon="9.34866002988709"><ele>34.6</ele><time>2026-05-01T10:29:11.001Z</time></trkpt><trkpt lat="44.3414753627626" lon="9.348636391893764"><ele>37.0</ele><time>2026-05-01T10:29:12.001Z</time></trkpt><trkpt lat="44.34138262980841" lon="9.34866543742355"><ele>36.4</ele><time>2026-05-01T10:29:13.001Z</time></trkpt><trkpt lat="44.341304746907056" lon="9.348740720636977"><ele>35.800000000000004</ele><time>2026-05-01T10:29:14.001Z</time></trkpt><trkpt lat="44.34124541075732" lon="9.34884571452433"><ele>35.2</ele><time>2026-05-01T10:29:15.001Z</time></trkpt><trkpt lat="44.34126310910007" lon="9.349006299389213"><ele>34.6</ele><time>2026-05-01T10:29:16.001Z</time></trkpt><trkpt lat="44.34130153197426" lon="9.349194798364525"><ele>34.0</ele><time>2026-05-01T10:29:17.001Z</time></trkpt><trkpt lat="44.341355953995674" lon="9.34939782910259"><ele>31.75</ele><time>2026-05-01T10:29:18.001Z</time></trkpt><trkpt lat="44.341386535578685" lon="9.349600014886851"><ele>29.5</ele><time>2026-05-01T10:29:19.001Z</time></trkpt><trkpt lat="44.34141510732788" lon="9.34976850272422"><ele>27.25</ele><time>2026-05-01T10:29:20.001Z</time></trkpt><trkpt lat="44.34143142062746" lon="9.349906498910068"><ele>25.0</ele><time>2026-05-01T10:29:21.001Z</time></trkpt><trkpt lat="44.34139655618225" lon="9.350023958218596"><ele>24.0</ele><time>2026-05-01T10:29:22.001Z</time></trkpt><trkpt lat="44.34133523718049" lon="9.350123003423155"><ele>23.0</ele><time>2026-05-01T10:29:23.001Z</time></trkpt><trkpt lat="44.341245330894914" lon="9.35018405847063"><ele>22.0</ele><time>2026-05-01T10:29:24.001Z</time></trkpt><trkpt lat="44.34114478910703" lon="9.350197922331116"><ele>21.0</ele><time>2026-05-01T10:29:25.001Z</time></trkpt><trkpt lat="44.341028499515886" lon="9.350172770761583"><ele>20.0</ele><time>2026-05-01T10:29:26.001Z</time></trkpt><trkpt lat="44.34091188964768" lon="9.350090146012848"><ele>20.0</ele><time>2026-05-01T10:29:27.001Z</time></trkpt><trkpt lat="44.340775049290954" lon="9.350025508156861"><ele>20.0</ele><time>2026-05-01T10:29:28.001Z</time></trkpt><trkpt lat="44.340646236614795" lon="9.34993461589278"><ele>20.0</ele><time>2026-05-01T10:29:29.001Z</time></trkpt><trkpt lat="44.340526015642375" lon="9.349819394310172"><ele>20.0</ele><time>2026-05-01T10:29:30.001Z</time></trkpt><trkpt lat="44.34041116272631" lon="9.34968099267061"><ele>19.75</ele><time>2026-05-01T10:29:31.001Z</time></trkpt><trkpt lat="44.34030597994097" lon="9.349551044137424"><ele>19.5</ele><time>2026-05-01T10:29:32.001Z</time></trkpt><trkpt lat="44.34020781862317" lon="9.34942656124224"><ele>19.25</ele><time>2026-05-01T10:29:33.001Z</time></trkpt><trkpt lat="44.34010964377321" lon="9.349313848035704"><ele>19.0</ele><time>2026-05-01T10:29:34.001Z</time></trkpt><trkpt lat="44.34000964599622" lon="9.349209171489395"><ele>19.0</ele><time>2026-05-01T10:29:35.001Z</time></trkpt><trkpt lat="44.339917911961" lon="9.349119359126453"><ele>19.0</ele><time>2026-05-01T10:29:36.001Z</time></trkpt><trkpt lat="44.33981693973545" lon="9.349057860465487"><ele>19.0</ele><time>2026-05-01T10:29:37.001Z</time></trkpt><trkpt lat="44.33969973565134" lon="9.349016949680449"><ele>19.0</ele><time>2026-05-01T10:29:38.001Z</time></trkpt><trkpt lat="44.339573588198306" lon="9.348986610412698"><ele>18.0</ele><time>2026-05-01T10:29:39.001Z</time></trkpt><trkpt lat="44.33944705764087" lon="9.348955026926989"><ele>17.0</ele><time>2026-05-01T10:29:40.001Z</time></trkpt><trkpt lat="44.33932129620637" lon="9.34892830340237"><ele>16.0</ele><time>2026-05-01T10:29:41.001Z</time></trkpt><trkpt lat="44.339194063826305" lon="9.34890267016131"><ele>15.0</ele><time>2026-05-01T10:29:42.001Z</time></trkpt><trkpt lat="44.33907291763401" lon="9.348870407840165"><ele>17.25</ele><time>2026-05-01T10:29:43.002Z</time></trkpt><trkpt lat="44.33895670704998" lon="9.34883806012268"><ele>19.5</ele><time>2026-05-01T10:29:44.002Z</time></trkpt><trkpt lat="44.33883248656112" lon="9.348800059366082"><ele>21.75</ele><time>2026-05-01T10:29:45.002Z</time></trkpt><trkpt lat="44.33870377514758" lon="9.34876584979261"><ele>24.0</ele><time>2026-05-01T10:29:46.002Z</time></trkpt><trkpt lat="44.338575763110924" lon="9.348726720118616"><ele>24.0</ele><time>2026-05-01T10:29:47.002Z</time></trkpt><trkpt lat="44.33844647427458" lon="9.348691510674385"><ele>24.0</ele><time>2026-05-01T10:29:48.002Z</time></trkpt><trkpt lat="44.33832032026124" lon="9.34865759053546"><ele>24.0</ele><time>2026-05-01T10:29:49.002Z</time></trkpt><trkpt lat="44.33820035772591" lon="9.34864124226615"><ele>24.0</ele><time>2026-05-01T10:29:50.002Z</time></trkpt><trkpt lat="44.33807999959228" lon="9.348630161924348"><ele>23.0</ele><time>2026-05-01T10:29:51.002Z</time></trkpt><trkpt lat="44.337964393763436" lon="9.348626913872737"><ele>22.0</ele><time>2026-05-01T10:29:52.002Z</time></trkpt><trkpt lat="44.33785420096582" lon="9.34862746396593"><ele>21.0</ele><time>2026-05-01T10:29:53.002Z</time></trkpt><trkpt lat="44.33774522734888" lon="9.348620101305888"><ele>20.0</ele><time>2026-05-01T10:29:54.002Z</time></trkpt><trkpt lat="44.33764020174132" lon="9.348606739166037"><ele>19.0</ele><time>2026-05-01T10:29:55.002Z</time></trkpt><trkpt lat="44.337524716131" lon="9.348572872395698"><ele>19.0</ele><time>2026-05-01T10:29:56.002Z</time></trkpt><trkpt lat="44.337410990632236" lon="9.34852809381521"><ele>19.0</ele><time>2026-05-01T10:29:57.002Z</time></trkpt><trkpt lat="44.337296767671425" lon="9.348471359181875"><ele>19.0</ele><time>2026-05-01T10:29:58.002Z</time></trkpt><trkpt lat="44.33718136627742" lon="9.348407790514308"><ele>19.0</ele><time>2026-05-01T10:29:59.002Z</time></trkpt><trkpt lat="44.33707164718358" lon="9.348326152857394"><ele>17.25</ele><time>2026-05-01T10:30:00.002Z</time></trkpt><trkpt lat="44.336965026941726" lon="9.348243840218773"><ele>15.5</ele><time>2026-05-01T10:30:01.002Z</time></trkpt><trkpt lat="44.33685591926201" lon="9.348166438819723"><ele>13.75</ele><time>2026-05-01T10:30:02.002Z</time></trkpt><trkpt lat="44.336742241268624" lon="9.34810521382727"><ele>12.0</ele><time>2026-05-01T10:30:03.002Z</time></trkpt><trkpt lat="44.33662880927872" lon="9.348046297472054"><ele>12.0</ele><time>2026-05-01T10:30:04.002Z</time></trkpt><trkpt lat="44.336521600306284" lon="9.34796830508999"><ele>12.0</ele><time>2026-05-01T10:30:05.002Z</time></trkpt><trkpt lat="44.336411482590385" lon="9.347905070857495"><ele>12.0</ele><time>2026-05-01T10:30:06.002Z</time></trkpt><trkpt lat="44.336302735672746" lon="9.347838235159367"><ele>12.0</ele><time>2026-05-01T10:30:07.002Z</time></trkpt><trkpt lat="44.33619366202185" lon="9.347770460264888"><ele>12.0</ele><time>2026-05-01T10:30:08.002Z</time></trkpt><trkpt lat="44.33608529155785" lon="9.347705941373404"><ele>12.0</ele><time>2026-05-01T10:30:09.002Z</time></trkpt><trkpt lat="44.335973391875235" lon="9.347646945313233"><ele>12.0</ele><time>2026-05-01T10:30:10.002Z</time></trkpt><trkpt lat="44.33587007147246" lon="9.347569422107371"><ele>12.0</ele><time>2026-05-01T10:30:11.002Z</time></trkpt><trkpt lat="44.33576464232285" lon="9.347491312763346"><ele>12.0</ele><time>2026-05-01T10:30:12.002Z</time></trkpt><trkpt lat="44.33566061729089" lon="9.347401609588806"><ele>12.0</ele><time>2026-05-01T10:30:13.002Z</time></trkpt><trkpt lat="44.33556093898964" lon="9.347285588331319"><ele>12.0</ele><time>2026-05-01T10:30:14.002Z</time></trkpt><trkpt lat="44.33548440274597" lon="9.347128571007863"><ele>12.0</ele><time>2026-05-01T10:30:15.002Z</time></trkpt><trkpt lat="44.33539464971466" lon="9.346976919308426"><ele>11.75</ele><time>2026-05-01T10:30:16.002Z</time></trkpt><trkpt lat="44.3353003894681" lon="9.346840528950834"><ele>11.5</ele><time>2026-05-01T10:30:17.002Z</time></trkpt><trkpt lat="44.33522016130654" lon="9.346692023114887"><ele>11.25</ele><time>2026-05-01T10:30:18.002Z</time></trkpt><trkpt lat="44.33513423667018" lon="9.346551496971879"><ele>11.0</ele><time>2026-05-01T10:30:19.002Z</time></trkpt><trkpt lat="44.33503066011828" lon="9.346433786181512"><ele>11.5</ele><time>2026-05-01T10:30:20.002Z</time></trkpt><trkpt lat="44.334906497426886" lon="9.346340981862436"><ele>12.0</ele><time>2026-05-01T10:30:21.002Z</time></trkpt><trkpt lat="44.33477196844451" lon="9.346258591909002"><ele>12.5</ele><time>2026-05-01T10:30:22.002Z</time></trkpt><trkpt lat="44.33462220525677" lon="9.346178737058981"><ele>13.0</ele><time>2026-05-01T10:30:23Z</time></trkpt><trkpt lat="44.33446760630446" lon="9.34610401763905"><ele>13.0</ele><time>2026-05-01T10:30:24Z</time></trkpt><trkpt lat="44.334308233305755" lon="9.346018407912851"><ele>13.0</ele><time>2026-05-01T10:30:25Z</time></trkpt><trkpt lat="44.334152002065814" lon="9.345931969895467"><ele>13.0</ele><time>2026-05-01T10:30:26Z</time></trkpt><trkpt lat="44.33401002424461" lon="9.345819449997942"><ele>13.25</ele><time>2026-05-01T10:30:27Z</time></trkpt><trkpt lat="44.33387914750107" lon="9.345746516571522"><ele>13.5</ele><time>2026-05-01T10:30:28Z</time></trkpt><trkpt lat="44.333767412492264" lon="9.34567151972868"><ele>13.75</ele><time>2026-05-01T10:30:29Z</time></trkpt><trkpt lat="44.333666613270324" lon="9.345633508657594"><ele>14.0</ele><time>2026-05-01T10:30:30Z</time></trkpt><trkpt lat="44.33357327277412" lon="9.345596328540296"><ele>14.0</ele><time>2026-05-01T10:30:31Z</time></trkpt><trkpt lat="44.33346633585858" lon="9.34555389767154"><ele>14.0</ele><time>2026-05-01T10:30:32Z</time></trkpt><trkpt lat="44.33334378675348" lon="9.34552255807299"><ele>14.0</ele><time>2026-05-01T10:30:33Z</time></trkpt><trkpt lat="44.33319986266322" lon="9.345517729166072"><ele>14.0</ele><time>2026-05-01T10:30:34Z</time></trkpt><trkpt lat="44.3330385072082" lon="9.345522081592907"><ele>13.333333333333334</ele><time>2026-05-01T10:30:35Z</time></trkpt><trkpt lat="44.33286950673951" lon="9.345548703154197"><ele>12.666666666666668</ele><time>2026-05-01T10:30:36Z</time></trkpt><trkpt lat="44.33270552123738" lon="9.345570528273388"><ele>12.0</ele><time>2026-05-01T10:30:37Z</time></trkpt><trkpt lat="44.33255984053721" lon="9.345586101645749"><ele>12.0</ele><time>2026-05-01T10:30:38Z</time></trkpt><trkpt lat="44.33242932140999" lon="9.345584169577544"><ele>12.0</ele><time>2026-05-01T10:30:39Z</time></trkpt><trkpt lat="44.332312223815656" lon="9.34556563058132"><ele>12.0</ele><time>2026-05-01T10:30:40Z</time></trkpt><trkpt lat="44.33218475149529" lon="9.34555618189303"><ele>12.0</ele><time>2026-05-01T10:30:41Z</time></trkpt><trkpt lat="44.33205771846503" lon="9.34551756439852"><ele>15.75</ele><time>2026-05-01T10:30:42Z</time></trkpt><trkpt lat="44.33194038796831" lon="9.345480072937395"><ele>19.5</ele><time>2026-05-01T10:30:43Z</time></trkpt><trkpt lat="44.331819795397536" lon="9.345455927744752"><ele>23.25</ele><time>2026-05-01T10:30:44Z</time></trkpt><trkpt lat="44.33169530743525" lon="9.345446984545871"><ele>27.0</ele><time>2026-05-01T10:30:45Z</time></trkpt><trkpt lat="44.33156828319143" lon="9.34545030100851"><ele>27.0</ele><time>2026-05-01T10:30:46Z</time></trkpt><trkpt lat="44.331439828517865" lon="9.345464987637627"><ele>27.0</ele><time>2026-05-01T10:30:47Z</time></trkpt><trkpt lat="44.33130395485833" lon="9.345474628994962"><ele>27.0</ele><time>2026-05-01T10:30:48Z</time></trkpt><trkpt lat="44.331171508943804" lon="9.34546996781186"><ele>27.0</ele><time>2026-05-01T10:30:49Z</time></trkpt><trkpt lat="44.33103492544565" lon="9.34544649400919"><ele>27.25</ele><time>2026-05-01T10:30:50Z</time></trkpt><trkpt lat="44.33089816691476" lon="9.345417991862488"><ele>27.5</ele><time>2026-05-01T10:30:51Z</time></trkpt><trkpt lat="44.330761376883196" lon="9.34540780484136"><ele>27.75</ele><time>2026-05-01T10:30:52Z</time></trkpt><trkpt lat="44.33061973791576" lon="9.345428755757268"><ele>28.0</ele><time>2026-05-01T10:30:53Z</time></trkpt><trkpt lat="44.330486868242275" lon="9.345462672906159"><ele>26.75</ele><time>2026-05-01T10:30:54Z</time></trkpt><trkpt lat="44.33036461437951" lon="9.345485800697636"><ele>25.5</ele><time>2026-05-01T10:30:55Z</time></trkpt><trkpt lat="44.330248616612174" lon="9.345486028038927"><ele>24.25</ele><time>2026-05-01T10:30:56Z</time></trkpt><trkpt lat="44.330131068115264" lon="9.345459810660065"><ele>23.0</ele><time>2026-05-01T10:30:57Z</time></trkpt><trkpt lat="44.330016835325885" lon="9.345428646112856"><ele>23.0</ele><time>2026-05-01T10:30:58Z</time></trkpt><trkpt lat="44.32989743152567" lon="9.34540394386116"><ele>23.0</ele><time>2026-05-01T10:30:59Z</time></trkpt><trkpt lat="44.329774157141024" lon="9.345401611152793"><ele>23.0</ele><time>2026-05-01T10:31:00Z</time></trkpt><trkpt lat="44.329654071359904" lon="9.345414692496854"><ele>23.0</ele><time>2026-05-01T10:31:01Z</time></trkpt><trkpt lat="44.32953652819507" lon="9.345439969252418"><ele>24.25</ele><time>2026-05-01T10:31:02Z</time></trkpt><trkpt lat="44.32941716006812" lon="9.34547537028992"><ele>25.5</ele><time>2026-05-01T10:31:03Z</time></trkpt><trkpt lat="44.3292988583643" lon="9.345515517008309"><ele>26.75</ele><time>2026-05-01T10:31:04Z</time></trkpt><trkpt lat="44.329179167418374" lon="9.345571752384188"><ele>28.0</ele><time>2026-05-01T10:31:05Z</time></trkpt><trkpt lat="44.32907528413355" lon="9.34563376046233"><ele>24.799999999999997</ele><time>2026-05-01T10:31:06Z</time></trkpt><trkpt lat="44.32896990960853" lon="9.345700307786851"><ele>21.599999999999998</ele><time>2026-05-01T10:31:07.001Z</time></trkpt><trkpt lat="44.32886720702021" lon="9.345768920359724"><ele>18.4</ele><time>2026-05-01T10:31:08.001Z</time></trkpt><trkpt lat="44.32877310543703" lon="9.345827742956908"><ele>15.2</ele><time>2026-05-01T10:31:09.001Z</time></trkpt><trkpt lat="44.328681897420736" lon="9.34587197604174"><ele>12.0</ele><time>2026-05-01T10:31:10.001Z</time></trkpt><trkpt lat="44.32859107481132" lon="9.345893670981155"><ele>12.0</ele><time>2026-05-01T10:31:11.001Z</time></trkpt><trkpt lat="44.32849582806983" lon="9.345887510592034"><ele>12.0</ele><time>2026-05-01T10:31:12.001Z</time></trkpt><trkpt lat="44.32839954621613" lon="9.345877602229725"><ele>12.0</ele><time>2026-05-01T10:31:13.001Z</time></trkpt><trkpt lat="44.32829450032655" lon="9.345869320491408"><ele>12.0</ele><time>2026-05-01T10:31:14.001Z</time></trkpt><trkpt lat="44.32817802275733" lon="9.345864695899207"><ele>12.0</ele><time>2026-05-01T10:31:15.001Z</time></trkpt><trkpt lat="44.32806381525515" lon="9.345861166164138"><ele>11.8</ele><time>2026-05-01T10:31:16.001Z</time></trkpt><trkpt lat="44.327960846201826" lon="9.34585926681572"><ele>11.6</ele><time>2026-05-01T10:31:17.001Z</time></trkpt><trkpt lat="44.327861926808815" lon="9.34585444904132"><ele>11.4</ele><time>2026-05-01T10:31:18.001Z</time></trkpt><trkpt lat="44.32776987540325" lon="9.345849924340474"><ele>11.200000000000001</ele><time>2026-05-01T10:31:19.001Z</time></trkpt><trkpt lat="44.327679796300714" lon="9.345845898256"><ele>11.0</ele><time>2026-05-01T10:31:20.001Z</time></trkpt><trkpt lat="44.32759186293832" lon="9.345843565246286"><ele>11.0</ele><time>2026-05-01T10:31:21.001Z</time></trkpt><trkpt lat="44.327504585383736" lon="9.345841508936653"><ele>11.0</ele><time>2026-05-01T10:31:22.001Z</time></trkpt><trkpt lat="44.32741940164872" lon="9.345833675941257"><ele>11.0</ele><time>2026-05-01T10:31:23.001Z</time></trkpt><trkpt lat="44.327333755337726" lon="9.345822742675507"><ele>11.0</ele><time>2026-05-01T10:31:24.001Z</time></trkpt><trkpt lat="44.327241403747024" lon="9.345802412001934"><ele>11.0</ele><time>2026-05-01T10:31:25.001Z</time></trkpt><trkpt lat="44.32715199050509" lon="9.345778233930533"><ele>11.0</ele><time>2026-05-01T10:31:26.001Z</time></trkpt><trkpt lat="44.3270493557975" lon="9.345733989391695"><ele>11.0</ele><time>2026-05-01T10:31:27.001Z</time></trkpt><trkpt lat="44.32692899443161" lon="9.345681402059794"><ele>11.0</ele><time>2026-05-01T10:31:28.001Z</time></trkpt><trkpt lat="44.326809931664705" lon="9.345594015090539"><ele>11.0</ele><time>2026-05-01T10:31:29.001Z</time></trkpt><trkpt lat="44.326689272238305" lon="9.345541574548585"><ele>11.0</ele><time>2026-05-01T10:31:30.001Z</time></trkpt><trkpt lat="44.32658619272452" lon="9.345481329513099"><ele>11.75</ele><time>2026-05-01T10:31:31.001Z</time></trkpt><trkpt lat="44.32648983635445" lon="9.345426550832528"><ele>12.5</ele><time>2026-05-01T10:31:32.001Z</time></trkpt><trkpt lat="44.326391539260726" lon="9.34538331091189"><ele>13.25</ele><time>2026-05-01T10:31:33.001Z</time></trkpt><trkpt lat="44.326286951288" lon="9.345309092805076"><ele>14.0</ele><time>2026-05-01T10:31:34.001Z</time></trkpt><trkpt lat="44.326155622385585" lon="9.345238936621396"><ele>14.0</ele><time>2026-05-01T10:31:35.001Z</time></trkpt><trkpt lat="44.32602031056007" lon="9.345191066906665"><ele>13.999999999999998</ele><time>2026-05-01T10:31:36.001Z</time></trkpt><trkpt lat="44.325905933966304" lon="9.345124039916078"><ele>13.999999999999998</ele><time>2026-05-01T10:31:37.001Z</time></trkpt><trkpt lat="44.325827462968824" lon="9.345077816063592"><ele>14.0</ele><time>2026-05-01T10:31:38.001Z</time></trkpt><trkpt lat="44.32577053833018" lon="9.34503729064283"><ele>14.0</ele><time>2026-05-01T10:31:39.001Z</time></trkpt><trkpt lat="44.32567797245115" lon="9.34501037123983"><ele>13.333333333333334</ele><time>2026-05-01T10:31:40.001Z</time></trkpt><trkpt lat="44.3255588141631" lon="9.344925669107067"><ele>12.666666666666668</ele><time>2026-05-01T10:31:41.001Z</time></trkpt><trkpt lat="44.32540147497925" lon="9.344873200967045"><ele>12.0</ele><time>2026-05-01T10:31:42.001Z</time></trkpt><trkpt lat="44.325237695298334" lon="9.344813276530402"><ele>12.0</ele><time>2026-05-01T10:31:43.001Z</time></trkpt><trkpt lat="44.325066406799834" lon="9.344770158995356"><ele>12.0</ele><time>2026-05-01T10:31:44.001Z</time></trkpt><trkpt lat="44.324906718339335" lon="9.344734879452368"><ele>12.0</ele><time>2026-05-01T10:31:45.001Z</time></trkpt><trkpt lat="44.32474167020015" lon="9.344684314418659"><ele>15.0</ele><time>2026-05-01T10:31:46.001Z</time></trkpt><trkpt lat="44.32459107610759" lon="9.344598342483483"><ele>18.0</ele><time>2026-05-01T10:31:47.001Z</time></trkpt><trkpt lat="44.32443854700139" lon="9.344506422515485"><ele>21.0</ele><time>2026-05-01T10:31:48.001Z</time></trkpt><trkpt lat="44.32428073415137" lon="9.344434996332538"><ele>21.0</ele><time>2026-05-01T10:31:49.001Z</time></trkpt><trkpt lat="44.32411726429443" lon="9.344383857932653"><ele>21.0</ele><time>2026-05-01T10:31:50.001Z</time></trkpt><trkpt lat="44.32395610874174" lon="9.344340233455643"><ele>21.0</ele><time>2026-05-01T10:31:51.001Z</time></trkpt><trkpt lat="44.323801271378706" lon="9.344291871591068"><ele>19.0</ele><time>2026-05-01T10:31:52.002Z</time></trkpt><trkpt lat="44.323648731854725" lon="9.344245087145731"><ele>17.0</ele><time>2026-05-01T10:31:53.002Z</time></trkpt><trkpt lat="44.323497065601785" lon="9.344186189115815"><ele>15.0</ele><time>2026-05-01T10:31:54.002Z</time></trkpt><trkpt lat="44.32335122629028" lon="9.344082289508382"><ele>15.0</ele><time>2026-05-01T10:31:55.002Z</time></trkpt><trkpt lat="44.323206494837734" lon="9.343979461445167"><ele>15.0</ele><time>2026-05-01T10:31:56.002Z</time></trkpt><trkpt lat="44.32307870222152" lon="9.343899627446845"><ele>15.0</ele><time>2026-05-01T10:31:57.002Z</time></trkpt><trkpt lat="44.32298888588907" lon="9.343814782320903"><ele>15.0</ele><time>2026-05-01T10:31:58.002Z</time></trkpt><trkpt lat="44.32289862384206" lon="9.343746822301558"><ele>15.25</ele><time>2026-05-01T10:31:59.002Z</time></trkpt><trkpt lat="44.32279883342808" lon="9.34365030446555"><ele>15.5</ele><time>2026-05-01T10:32:00.002Z</time></trkpt><trkpt lat="44.322669041641745" lon="9.343549619781282"><ele>15.75</ele><time>2026-05-01T10:32:01.002Z</time></trkpt><trkpt lat="44.3225498253969" lon="9.343447317925484"><ele>16.0</ele><time>2026-05-01T10:32:02.002Z</time></trkpt><trkpt lat="44.32242115395548" lon="9.34337450552516"><ele>16.0</ele><time>2026-05-01T10:32:03.002Z</time></trkpt><trkpt lat="44.32229372201246" lon="9.343290621598321"><ele>16.0</ele><time>2026-05-01T10:32:04.002Z</time></trkpt><trkpt lat="44.322156801311074" lon="9.343224593941551"><ele>16.0</ele><time>2026-05-01T10:32:05.002Z</time></trkpt><trkpt lat="44.32202160443888" lon="9.343148307281242"><ele>16.0</ele><time>2026-05-01T10:32:06.002Z</time></trkpt><trkpt lat="44.32190847774988" lon="9.343020051914129"><ele>13.333333333333332</ele><time>2026-05-01T10:32:07.002Z</time></trkpt><trkpt lat="44.3217833252664" lon="9.342906223705246"><ele>10.666666666666666</ele><time>2026-05-01T10:32:08.002Z</time></trkpt><trkpt lat="44.321668379921775" lon="9.342771866401915"><ele>8.0</ele><time>2026-05-01T10:32:09.002Z</time></trkpt><trkpt lat="44.321550088285974" lon="9.342613534738007"><ele>8.0</ele><time>2026-05-01T10:32:10.002Z</time></trkpt><trkpt lat="44.32142468465497" lon="9.342465876505893"><ele>8.0</ele><time>2026-05-01T10:32:11.002Z</time></trkpt><trkpt lat="44.32130501903975" lon="9.342345613962461"><ele>8.0</ele><time>2026-05-01T10:32:12.002Z</time></trkpt><trkpt lat="44.321193213358505" lon="9.342254981213712"><ele>8.0</ele><time>2026-05-01T10:32:13.002Z</time></trkpt><trkpt lat="44.32107881201506" lon="9.342180013260737"><ele>8.5</ele><time>2026-05-01T10:32:14.002Z</time></trkpt><trkpt lat="44.32096070927966" lon="9.342115315900056"><ele>9.0</ele><time>2026-05-01T10:32:15.002Z</time></trkpt><trkpt lat="44.32085763042106" lon="9.342047664217006"><ele>9.5</ele><time>2026-05-01T10:32:16.002Z</time></trkpt><trkpt lat="44.320757889983504" lon="9.341980780109532"><ele>10.0</ele><time>2026-05-01T10:32:17.002Z</time></trkpt><trkpt lat="44.32067093390215" lon="9.341907959127818"><ele>10.0</ele><time>2026-05-01T10:32:18.002Z</time></trkpt><trkpt lat="44.32057224761415" lon="9.341825500469836"><ele>10.0</ele><time>2026-05-01T10:32:19.002Z</time></trkpt><trkpt lat="44.32047312483051" lon="9.341737537039638"><ele>10.0</ele><time>2026-05-01T10:32:20.002Z</time></trkpt><trkpt lat="44.32038396522969" lon="9.3416284761883"><ele>10.0</ele><time>2026-05-01T10:32:21.002Z</time></trkpt><trkpt lat="44.32029423953899" lon="9.34152657112922"><ele>9.8</ele><time>2026-05-01T10:32:22.002Z</time></trkpt><trkpt lat="44.32020585064816" lon="9.341443339703758"><ele>9.6</ele><time>2026-05-01T10:32:23.002Z</time></trkpt><trkpt lat="44.320130769706374" lon="9.34136796033714"><ele>9.4</ele><time>2026-05-01T10:32:24.002Z</time></trkpt><trkpt lat="44.32005476294232" lon="9.341286353369613"><ele>9.2</ele><time>2026-05-01T10:32:25.002Z</time></trkpt><trkpt lat="44.31997050480016" lon="9.341206289895531"><ele>9.0</ele><time>2026-05-01T10:32:26.002Z</time></trkpt><trkpt lat="44.319883403055826" lon="9.341135436106907"><ele>8.8</ele><time>2026-05-01T10:32:27.002Z</time></trkpt><trkpt lat="44.31979210318654" lon="9.34108060400713"><ele>8.600000000000001</ele><time>2026-05-01T10:32:28.002Z</time></trkpt><trkpt lat="44.3197034956723" lon="9.341020139207618"><ele>8.4</ele><time>2026-05-01T10:32:28.999Z</time></trkpt><trkpt lat="44.31960997727239" lon="9.340958662935398"><ele>8.200000000000001</ele><time>2026-05-01T10:32:29.999Z</time></trkpt><trkpt lat="44.319526073537745" lon="9.340884665835015"><ele>8.0</ele><time>2026-05-01T10:32:30.999Z</time></trkpt><trkpt lat="44.3194430014159" lon="9.340814548723198"><ele>7.999999999999999</ele><time>2026-05-01T10:32:31.999Z</time></trkpt><trkpt lat="44.31936327023275" lon="9.34074472531923"><ele>8.0</ele><time>2026-05-01T10:32:32.999Z</time></trkpt><trkpt lat="44.31929399509469" lon="9.340680027870686"><ele>8.0</ele><time>2026-05-01T10:32:33.999Z</time></trkpt><trkpt lat="44.31921973980432" lon="9.340623274448703"><ele>8.0</ele><time>2026-05-01T10:32:34.999Z</time></trkpt><trkpt lat="44.319144312640226" lon="9.340564724561395"><ele>7.999999999999999</ele><time>2026-05-01T10:32:35.999Z</time></trkpt><trkpt lat="44.319064013892" lon="9.340512426148594"><ele>8.0</ele><time>2026-05-01T10:32:36.999Z</time></trkpt><trkpt lat="44.31898862549473" lon="9.340471671186744"><ele>7.999999999999999</ele><time>2026-05-01T10:32:37.999Z</time></trkpt><trkpt lat="44.31892252726483" lon="9.340427302395865"><ele>8.0</ele><time>2026-05-01T10:32:38.999Z</time></trkpt><trkpt lat="44.31886102095555" lon="9.340403172491976"><ele>8.0</ele><time>2026-05-01T10:32:40Z</time></trkpt><trkpt lat="44.31874930628915" lon="9.340358451365738"><ele>8.0</ele><time>2026-05-01T10:32:42Z</time></trkpt><trkpt lat="44.31869233843227" lon="9.3404002279754"><ele>7.999999999999999</ele><time>2026-05-01T10:32:43Z</time></trkpt><trkpt lat="44.318679364766005" lon="9.340493602215597"><ele>8.0</ele><time>2026-05-01T10:32:44Z</time></trkpt><trkpt lat="44.318736272372796" lon="9.340648412310205"><ele>8.0</ele><time>2026-05-01T10:32:46Z</time></trkpt><trkpt lat="44.318732446788935" lon="9.340774473945077"><ele>8.0</ele><time>2026-05-01T10:32:47Z</time></trkpt><trkpt lat="44.318756916180284" lon="9.340890950429976"><ele>8.0</ele><time>2026-05-01T10:32:48Z</time></trkpt><trkpt lat="44.3187576927924" lon="9.341031907932143"><ele>8.0</ele><time>2026-05-01T10:32:49Z</time></trkpt><trkpt lat="44.31873256523413" lon="9.34118411960146"><ele>8.0</ele><time>2026-05-01T10:32:50Z</time></trkpt><trkpt lat="44.31869614874207" lon="9.341332888505065"><ele>7.800000000000001</ele><time>2026-05-01T10:32:51Z</time></trkpt><trkpt lat="44.31864443832304" lon="9.34145381186625"><ele>7.6000000000000005</ele><time>2026-05-01T10:32:52Z</time></trkpt><trkpt lat="44.31860274892825" lon="9.341551108142767"><ele>7.3999999999999995</ele><time>2026-05-01T10:32:53Z</time></trkpt><trkpt lat="44.318534412079934" lon="9.341668726527914"><ele>7.199999999999999</ele><time>2026-05-01T10:32:55Z</time></trkpt><trkpt lat="44.31845608369859" lon="9.341721853462461"><ele>7.0</ele><time>2026-05-01T10:32:57Z</time></trkpt><trkpt lat="44.31836448908173" lon="9.341756868376136"><ele>7.0</ele><time>2026-05-01T10:33:00Z</time></trkpt><trkpt lat="44.318282624003594" lon="9.341740845386466"><ele>6.999999999999999</ele><time>2026-05-01T10:33:01Z</time></trkpt><trkpt lat="44.31819997321391" lon="9.341706677558651"><ele>6.999999999999999</ele><time>2026-05-01T10:33:02Z</time></trkpt><trkpt lat="44.31810535289907" lon="9.341624708630922"><ele>7.0</ele><time>2026-05-01T10:33:03Z</time></trkpt><trkpt lat="44.31800548774742" lon="9.341529305835094"><ele>7.0</ele><time>2026-05-01T10:33:04Z</time></trkpt><trkpt lat="44.31789738744922" lon="9.34141803245153"><ele>6.5</ele><time>2026-05-01T10:33:05Z</time></trkpt><trkpt lat="44.3177930489685" lon="9.341308633439578"><ele>6.0</ele><time>2026-05-01T10:33:06Z</time></trkpt><trkpt lat="44.31767940236297" lon="9.341198442760884"><ele>5.5</ele><time>2026-05-01T10:33:07Z</time></trkpt><trkpt lat="44.31756218140768" lon="9.341089463085567"><ele>5.0</ele><time>2026-05-01T10:33:08Z</time></trkpt><trkpt lat="44.31744529223337" lon="9.340980020444416"><ele>5.0</ele><time>2026-05-01T10:33:09Z</time></trkpt><trkpt lat="44.31732169339067" lon="9.340876206481196"><ele>5.0</ele><time>2026-05-01T10:33:10Z</time></trkpt><trkpt lat="44.31718607908607" lon="9.340748670381945"><ele>5.0</ele><time>2026-05-01T10:33:11Z</time></trkpt><trkpt lat="44.31704540207705" lon="9.340615526608095"><ele>5.0</ele><time>2026-05-01T10:33:12Z</time></trkpt><trkpt lat="44.316904501677" lon="9.340491451677003"><ele>5.0</ele><time>2026-05-01T10:33:13Z</time></trkpt><trkpt lat="44.31677029105512" lon="9.340357619616361"><ele>5.0</ele><time>2026-05-01T10:33:14Z</time></trkpt><trkpt lat="44.31663740238724" lon="9.340240813394892"><ele>5.0</ele><time>2026-05-01T10:33:15.001Z</time></trkpt><trkpt lat="44.316518915114955" lon="9.340120952103023"><ele>5.0</ele><time>2026-05-01T10:33:16.001Z</time></trkpt><trkpt lat="44.31639621460513" lon="9.340008430887469"><ele>5.0</ele><time>2026-05-01T10:33:17.001Z</time></trkpt><trkpt lat="44.31627573489942" lon="9.339886494482432"><ele>5.0</ele><time>2026-05-01T10:33:18.001Z</time></trkpt><trkpt lat="44.316154156392884" lon="9.339754690026549"><ele>4.666666666666667</ele><time>2026-05-01T10:33:19.001Z</time></trkpt><trkpt lat="44.3160333571152" lon="9.339637004669019"><ele>4.333333333333333</ele><time>2026-05-01T10:33:20.001Z</time></trkpt><trkpt lat="44.31590962030297" lon="9.339514123514896"><ele>4.0</ele><time>2026-05-01T10:33:21.001Z</time></trkpt><trkpt lat="44.315785458564925" lon="9.33937915143698"><ele>4.0</ele><time>2026-05-01T10:33:22.001Z</time></trkpt><trkpt lat="44.31566461869349" lon="9.3392365990416"><ele>4.0</ele><time>2026-05-01T10:33:23.001Z</time></trkpt><trkpt lat="44.315551028823975" lon="9.339089501696996"><ele>4.0</ele><time>2026-05-01T10:33:24.001Z</time></trkpt><trkpt lat="44.31544307645489" lon="9.33893409470192"><ele>4.0</ele><time>2026-05-01T10:33:25.001Z</time></trkpt></trkseg><trkseg><trkpt lat="44.31546528038059" lon="9.322828397078963"><ele>6.0</ele><time>2026-05-01T11:27:55.999Z</time></trkpt><trkpt lat="44.31540808885125" lon="9.322747153569443"><ele>6.0</ele><time>2026-05-01T11:28:15.999Z</time></trkpt><trkpt lat="44.315356776848745" lon="9.32279904910485"><ele>6.0</ele><time>2026-05-01T11:28:17.999Z</time></trkpt><trkpt lat="44.31530944901467" lon="9.322915797979789"><ele>6.0</ele><time>2026-05-01T11:28:19.999Z</time></trkpt><trkpt lat="44.31525950454761" lon="9.323040542475942"><ele>6.0</ele><time>2026-05-01T11:28:21.999Z</time></trkpt><trkpt lat="44.315200458089414" lon="9.323160817849166"><ele>6.0</ele><time>2026-05-01T11:28:23.999Z</time></trkpt><trkpt lat="44.31515344591532" lon="9.323324646294784"><ele>6.0</ele><time>2026-05-01T11:28:25.999Z</time></trkpt><trkpt lat="44.315114820890834" lon="9.323413436073363"><ele>6.0</ele><time>2026-05-01T11:28:26.999Z</time></trkpt><trkpt lat="44.31507190507446" lon="9.323513662519517"><ele>6.0</ele><time>2026-05-01T11:28:27.999Z</time></trkpt><trkpt lat="44.31503250070411" lon="9.323613334095187"><ele>6.0</ele><time>2026-05-01T11:28:28.999Z</time></trkpt><trkpt lat="44.31499719543137" lon="9.323714316122109"><ele>6.0</ele><time>2026-05-01T11:28:29.999Z</time></trkpt><trkpt lat="44.314953770440574" lon="9.323815655922674"><ele>6.0</ele><time>2026-05-01T11:28:30.999Z</time></trkpt><trkpt lat="44.314912268922804" lon="9.323921046912357"><ele>6.0</ele><time>2026-05-01T11:28:31.999Z</time></trkpt><trkpt lat="44.314874841094365" lon="9.324022580381303"><ele>6.0</ele><time>2026-05-01T11:28:32.999Z</time></trkpt><trkpt lat="44.314820899038374" lon="9.324128406729852"><ele>6.0</ele><time>2026-05-01T11:28:33.999Z</time></trkpt><trkpt lat="44.31477170504959" lon="9.324239320122016"><ele>6.0</ele><time>2026-05-01T11:28:34.999Z</time></trkpt><trkpt lat="44.314729476264375" lon="9.324351488161268"><ele>6.0</ele><time>2026-05-01T11:28:35.999Z</time></trkpt><trkpt lat="44.31468241451301" lon="9.324461178352719"><ele>5.8</ele><time>2026-05-01T11:28:36.999Z</time></trkpt><trkpt lat="44.31463050203207" lon="9.324567333271212"><ele>5.6</ele><time>2026-05-01T11:28:37.999Z</time></trkpt><trkpt lat="44.314587783176336" lon="9.32467520568399"><ele>5.4</ele><time>2026-05-01T11:28:38.999Z</time></trkpt><trkpt lat="44.314536743365615" lon="9.324783010293167"><ele>5.2</ele><time>2026-05-01T11:28:39.999Z</time></trkpt><trkpt lat="44.31447947130909" lon="9.324886044121055"><ele>5.0</ele><time>2026-05-01T11:28:40.999Z</time></trkpt><trkpt lat="44.31443404046254" lon="9.324992911738647"><ele>5.0</ele><time>2026-05-01T11:28:41.999Z</time></trkpt><trkpt lat="44.31438805432644" lon="9.325086924905502"><ele>5.0</ele><time>2026-05-01T11:28:42.999Z</time></trkpt><trkpt lat="44.314332494305376" lon="9.325192792301783"><ele>5.0</ele><time>2026-05-01T11:28:43.999Z</time></trkpt><trkpt lat="44.31427729500326" lon="9.325316475069059"><ele>5.0</ele><time>2026-05-01T11:28:44.999Z</time></trkpt><trkpt lat="44.31421833043372" lon="9.325456562360747"><ele>5.0</ele><time>2026-05-01T11:28:45.999Z</time></trkpt><trkpt lat="44.31415634763906" lon="9.32559998072193"><ele>6.0</ele><time>2026-05-01T11:28:46.999Z</time></trkpt><trkpt lat="44.31409360842815" lon="9.325741949092468"><ele>7.0</ele><time>2026-05-01T11:28:47.999Z</time></trkpt><trkpt lat="44.314029886473" lon="9.325886626344301"><ele>8.0</ele><time>2026-05-01T11:28:48.999Z</time></trkpt><trkpt lat="44.313958581360865" lon="9.32603953004817"><ele>9.0</ele><time>2026-05-01T11:28:49.999Z</time></trkpt><trkpt lat="44.31390006259108" lon="9.326199709520088"><ele>9.0</ele><time>2026-05-01T11:28:50.999Z</time></trkpt><trkpt lat="44.31383135911168" lon="9.326353060601345"><ele>9.0</ele><time>2026-05-01T11:28:51.999Z</time></trkpt><trkpt lat="44.31377159106489" lon="9.326501910495201"><ele>9.0</ele><time>2026-05-01T11:28:52.999Z</time></trkpt><trkpt lat="44.31370984073464" lon="9.32666109059953"><ele>9.0</ele><time>2026-05-01T11:28:53.999Z</time></trkpt><trkpt lat="44.3136415960237" lon="9.326800793047454"><ele>8.0</ele><time>2026-05-01T11:28:54.999Z</time></trkpt><trkpt lat="44.31358174461709" lon="9.326946076858396"><ele>7.0</ele><time>2026-05-01T11:28:55.995Z</time></trkpt><trkpt lat="44.313504561513874" lon="9.327078135774725"><ele>6.0</ele><time>2026-05-01T11:28:56.995Z</time></trkpt><trkpt lat="44.31344395658509" lon="9.327215608328094"><ele>5.0</ele><time>2026-05-01T11:28:57.995Z</time></trkpt><trkpt lat="44.313398075732074" lon="9.327357223731655"><ele>5.0</ele><time>2026-05-01T11:28:58.996Z</time></trkpt><trkpt lat="44.31332580636717" lon="9.327490702987243"><ele>5.0</ele><time>2026-05-01T11:28:59.996Z</time></trkpt><trkpt lat="44.31326800434346" lon="9.327638183318744"><ele>5.0</ele><time>2026-05-01T11:29:00.996Z</time></trkpt><trkpt lat="44.31319943434569" lon="9.327791706227282"><ele>5.0</ele><time>2026-05-01T11:29:01.996Z</time></trkpt><trkpt lat="44.313124007299514" lon="9.327947589370508"><ele>4.75</ele><time>2026-05-01T11:29:02.996Z</time></trkpt><trkpt lat="44.31305779450435" lon="9.328112061681287"><ele>4.5</ele><time>2026-05-01T11:29:03.996Z</time></trkpt><trkpt lat="44.31298670668816" lon="9.328278007122409"><ele>4.25</ele><time>2026-05-01T11:29:04.996Z</time></trkpt><trkpt lat="44.31291686090413" lon="9.3284422758125"><ele>4.0</ele><time>2026-05-01T11:29:05.996Z</time></trkpt><trkpt lat="44.312853273769434" lon="9.328612744611178"><ele>4.0</ele><time>2026-05-01T11:29:06.996Z</time></trkpt><trkpt lat="44.312810262752414" lon="9.328794488255696"><ele>4.0</ele><time>2026-05-01T11:29:07.997Z</time></trkpt><trkpt lat="44.31277502289881" lon="9.328989647576268"><ele>4.0</ele><time>2026-05-01T11:29:08.997Z</time></trkpt><trkpt lat="44.31273223774638" lon="9.329169839029833"><ele>4.0</ele><time>2026-05-01T11:29:09.997Z</time></trkpt><trkpt lat="44.312699853439106" lon="9.329346389587952"><ele>4.0</ele><time>2026-05-01T11:29:10.997Z</time></trkpt><trkpt lat="44.31266649730233" lon="9.32952231751421"><ele>4.0</ele><time>2026-05-01T11:29:11.997Z</time></trkpt><trkpt lat="44.31262945816711" lon="9.329696466400929"><ele>4.0</ele><time>2026-05-01T11:29:12.997Z</time></trkpt><trkpt lat="44.312594345235475" lon="9.329874359848002"><ele>4.0</ele><time>2026-05-01T11:29:13.997Z</time></trkpt><trkpt lat="44.31255492591387" lon="9.330052284824664"><ele>4.0</ele><time>2026-05-01T11:29:14.997Z</time></trkpt><trkpt lat="44.31251776949143" lon="9.330228902485734"><ele>4.0</ele><time>2026-05-01T11:29:15.997Z</time></trkpt><trkpt lat="44.312483501028524" lon="9.330385613140983"><ele>4.0</ele><time>2026-05-01T11:29:16.998Z</time></trkpt><trkpt lat="44.312454488126654" lon="9.330524813354582"><ele>4.0</ele><time>2026-05-01T11:29:17.998Z</time></trkpt><trkpt lat="44.312430176641335" lon="9.330651771072935"><ele>4.0</ele><time>2026-05-01T11:29:18.998Z</time></trkpt><trkpt lat="44.312402175219" lon="9.330763501567121"><ele>4.666666666666666</ele><time>2026-05-01T11:29:19.998Z</time></trkpt><trkpt lat="44.31237680774766" lon="9.33087110653103"><ele>5.333333333333333</ele><time>2026-05-01T11:29:20.998Z</time></trkpt><trkpt lat="44.312349516439454" lon="9.330983219268942"><ele>6.0</ele><time>2026-05-01T11:29:21.998Z</time></trkpt><trkpt lat="44.312326728501496" lon="9.331108466051534"><ele>6.666666666666666</ele><time>2026-05-01T11:29:22.998Z</time></trkpt><trkpt lat="44.3122996510796" lon="9.331236351571134"><ele>7.333333333333333</ele><time>2026-05-01T11:29:23.998Z</time></trkpt><trkpt lat="44.312270873364405" lon="9.331358489380907"><ele>8.0</ele><time>2026-05-01T11:29:24.998Z</time></trkpt><trkpt lat="44.31224068539016" lon="9.331469363154838"><ele>7.333333333333333</ele><time>2026-05-01T11:29:25.998Z</time></trkpt><trkpt lat="44.312193965080084" lon="9.331567592450016"><ele>6.666666666666666</ele><time>2026-05-01T11:29:26.998Z</time></trkpt><trkpt lat="44.31213416711956" lon="9.331653024099603"><ele>6.0</ele><time>2026-05-01T11:29:27.998Z</time></trkpt><trkpt lat="44.31207838501324" lon="9.331728814946748"><ele>5.333333333333333</ele><time>2026-05-01T11:29:28.998Z</time></trkpt><trkpt lat="44.31201921776865" lon="9.331815060806337"><ele>4.666666666666666</ele><time>2026-05-01T11:29:29.998Z</time></trkpt><trkpt lat="44.31196562259848" lon="9.331915267567737"><ele>4.0</ele><time>2026-05-01T11:29:30.999Z</time></trkpt><trkpt lat="44.311920477042534" lon="9.33203053989964"><ele>3.9999999999999996</ele><time>2026-05-01T11:29:31.999Z</time></trkpt><trkpt lat="44.31189386974497" lon="9.33215501936565"><ele>4.0</ele><time>2026-05-01T11:29:32.999Z</time></trkpt><trkpt lat="44.31187875235793" lon="9.33227442892403"><ele>4.0</ele><time>2026-05-01T11:29:33.999Z</time></trkpt><trkpt lat="44.31186828308785" lon="9.332383404074909"><ele>4.0</ele><time>2026-05-01T11:29:34.999Z</time></trkpt><trkpt lat="44.31185640184501" lon="9.332475049633933"><ele>3.9999999999999996</ele><time>2026-05-01T11:29:35.999Z</time></trkpt><trkpt lat="44.31183497059262" lon="9.332561183174313"><ele>4.0</ele><time>2026-05-01T11:29:37.999Z</time></trkpt><trkpt lat="44.311800338586515" lon="9.332671590485825"><ele>3.6</ele><time>2026-05-01T11:29:42.999Z</time></trkpt><trkpt lat="44.31189396172411" lon="9.332773573086458"><ele>3.2</ele><time>2026-05-01T11:29:43.999Z</time></trkpt><trkpt lat="44.3119533232212" lon="9.332846001543395"><ele>2.8000000000000003</ele><time>2026-05-01T11:29:44.999Z</time></trkpt><trkpt lat="44.31199969757341" lon="9.332921323219322"><ele>2.4000000000000004</ele><time>2026-05-01T11:29:45.999Z</time></trkpt><trkpt lat="44.312051468876405" lon="9.333003384372699"><ele>2.0</ele><time>2026-05-01T11:29:46.999Z</time></trkpt><trkpt lat="44.312139793879815" lon="9.33310626022056"><ele>1.8333333333333333</ele><time>2026-05-01T11:29:48.999Z</time></trkpt><trkpt lat="44.3122187244966" lon="9.333174220260322"><ele>1.6666666666666665</ele><time>2026-05-01T11:29:50.999Z</time></trkpt><trkpt lat="44.312291299881984" lon="9.333228911084495"><ele>1.5</ele><time>2026-05-01T11:29:52.999Z</time></trkpt><trkpt lat="44.31238297823319" lon="9.333307090819387"><ele>1.3333333333333333</ele><time>2026-05-01T11:29:55.999Z</time></trkpt><trkpt lat="44.31243246274779" lon="9.333381040640479"><ele>1.1666666666666665</ele><time>2026-05-01T11:29:56.999Z</time></trkpt><trkpt lat="44.31248986282968" lon="9.333479522042127"><ele>1.0</ele><time>2026-05-01T11:29:57.999Z</time></trkpt><trkpt lat="44.31255311239922" lon="9.333585175254054"><ele>1.0</ele><time>2026-05-01T11:29:58.999Z</time></trkpt><trkpt lat="44.3126203879681" lon="9.333702696860803"><ele>1.0</ele><time>2026-05-01T11:29:59.999Z</time></trkpt><trkpt lat="44.31268473613085" lon="9.333814503491757"><ele>1.0</ele><time>2026-05-01T11:30:00.999Z</time></trkpt><trkpt lat="44.31275385005886" lon="9.333931187653684"><ele>1.0</ele><time>2026-05-01T11:30:01.999Z</time></trkpt><trkpt lat="44.31282431394633" lon="9.334053762059336"><ele>1.0</ele><time>2026-05-01T11:30:02.999Z</time></trkpt><trkpt lat="44.31289601893701" lon="9.334179928924465"><ele>1.3333333333333333</ele><time>2026-05-01T11:30:03.999Z</time></trkpt><trkpt lat="44.31296240870394" lon="9.334299550527732"><ele>1.6666666666666665</ele><time>2026-05-01T11:30:04.999Z</time></trkpt><trkpt lat="44.313020465612375" lon="9.334404937440393"><ele>2.0</ele><time>2026-05-01T11:30:05.999Z</time></trkpt><trkpt lat="44.31307103036769" lon="9.334495080768244"><ele>2.3333333333333335</ele><time>2026-05-01T11:30:07Z</time></trkpt><trkpt lat="44.31311603245745" lon="9.334580398554369"><ele>2.6666666666666665</ele><time>2026-05-01T11:30:08Z</time></trkpt><trkpt lat="44.31315105129085" lon="9.334660658647577"><ele>3.0</ele><time>2026-05-01T11:30:09Z</time></trkpt><trkpt lat="44.31319023416986" lon="9.334754185416116"><ele>4.25</ele><time>2026-05-01T11:30:11Z</time></trkpt><trkpt lat="44.31322755951185" lon="9.334839655792932"><ele>5.5</ele><time>2026-05-01T11:30:13Z</time></trkpt><trkpt lat="44.31328267968001" lon="9.335029075997438"><ele>6.75</ele><time>2026-05-01T11:30:15Z</time></trkpt><trkpt lat="44.31337034521732" lon="9.3351373656133"><ele>8.0</ele><time>2026-05-01T11:30:16Z</time></trkpt><trkpt lat="44.31343899018942" lon="9.335268314040288"><ele>8.0</ele><time>2026-05-01T11:30:17Z</time></trkpt><trkpt lat="44.313507340432345" lon="9.335401621159312"><ele>8.0</ele><time>2026-05-01T11:30:18Z</time></trkpt><trkpt lat="44.3135811138103" lon="9.335551355123275"><ele>8.0</ele><time>2026-05-01T11:30:19Z</time></trkpt><trkpt lat="44.313661678575606" lon="9.335705328938078"><ele>8.0</ele><time>2026-05-01T11:30:20Z</time></trkpt><trkpt lat="44.31374027171516" lon="9.335858652656423"><ele>8.0</ele><time>2026-05-01T11:30:21Z</time></trkpt><trkpt lat="44.31381911126527" lon="9.336017561634968"><ele>8.0</ele><time>2026-05-01T11:30:22Z</time></trkpt><trkpt lat="44.313898606096906" lon="9.336180172348422"><ele>8.0</ele><time>2026-05-01T11:30:23Z</time></trkpt><trkpt lat="44.31397946355625" lon="9.336344648535386"><ele>8.0</ele><time>2026-05-01T11:30:24Z</time></trkpt><trkpt lat="44.31406637840156" lon="9.336519223194687"><ele>6.666666666666666</ele><time>2026-05-01T11:30:25Z</time></trkpt><trkpt lat="44.31415424284937" lon="9.336690925084396"><ele>5.333333333333333</ele><time>2026-05-01T11:30:26Z</time></trkpt><trkpt lat="44.314242052769" lon="9.33686050718348"><ele>4.0</ele><time>2026-05-01T11:30:27Z</time></trkpt><trkpt lat="44.31432792650147" lon="9.337031821207944"><ele>4.0</ele><time>2026-05-01T11:30:28Z</time></trkpt><trkpt lat="44.31441630066823" lon="9.33720727814995"><ele>4.0</ele><time>2026-05-01T11:30:29Z</time></trkpt><trkpt lat="44.31450332700669" lon="9.33738199615258"><ele>4.0</ele><time>2026-05-01T11:30:30Z</time></trkpt><trkpt lat="44.31459165788886" lon="9.33756037143195"><ele>3.333333333333333</ele><time>2026-05-01T11:30:31Z</time></trkpt><trkpt lat="44.31467985219764" lon="9.337739253382445"><ele>2.6666666666666665</ele><time>2026-05-01T11:30:32Z</time></trkpt><trkpt lat="44.314769522283704" lon="9.337919904619309"><ele>2.0</ele><time>2026-05-01T11:30:33Z</time></trkpt><trkpt lat="44.314861638911424" lon="9.338100182301291"><ele>1.6666666666666665</ele><time>2026-05-01T11:30:34Z</time></trkpt><trkpt lat="44.31495056517348" lon="9.33828190191273"><ele>1.3333333333333333</ele><time>2026-05-01T11:30:35Z</time></trkpt><trkpt lat="44.31504244775683" lon="9.33844903126034"><ele>1.0</ele><time>2026-05-01T11:30:36Z</time></trkpt><trkpt lat="44.31514146302045" lon="9.338619303071724"><ele>1.0</ele><time>2026-05-01T11:30:37Z</time></trkpt><trkpt lat="44.3152305347925" lon="9.338800688797717"><ele>1.0</ele><time>2026-05-01T11:30:38Z</time></trkpt><trkpt lat="44.31534178808708" lon="9.338960699943716"><ele>1.0</ele><time>2026-05-01T11:30:39Z</time></trkpt><trkpt lat="44.31545415581805" lon="9.339115285918208"><ele>2.0</ele><time>2026-05-01T11:30:40Z</time></trkpt><trkpt lat="44.315568565659206" lon="9.339270882771865"><ele>3.0</ele><time>2026-05-01T11:30:41Z</time></trkpt><trkpt lat="44.31568799554073" lon="9.339416249133462"><ele>4.0</ele><time>2026-05-01T11:30:42Z</time></trkpt><trkpt lat="44.315814109489956" lon="9.339556016430883"><ele>4.0</ele><time>2026-05-01T11:30:43Z</time></trkpt><trkpt lat="44.31594580982394" lon="9.339691111516839"><ele>4.0</ele><time>2026-05-01T11:30:44Z</time></trkpt><trkpt lat="44.316081207691404" lon="9.339819424239497"><ele>4.0</ele><time>2026-05-01T11:30:45Z</time></trkpt><trkpt lat="44.31621835445108" lon="9.339949806737437"><ele>3.6666666666666665</ele><time>2026-05-01T11:30:46Z</time></trkpt><trkpt lat="44.31635242111018" lon="9.34007877886654"><ele>3.333333333333333</ele><time>2026-05-01T11:30:47Z</time></trkpt><trkpt lat="44.31648509770024" lon="9.34020639194154"><ele>3.0</ele><time>2026-05-01T11:30:48Z</time></trkpt><trkpt lat="44.316617620171506" lon="9.340334086331966"><ele>3.333333333333333</ele><time>2026-05-01T11:30:49Z</time></trkpt><trkpt lat="44.31675161265996" lon="9.340456377083182"><ele>3.6666666666666665</ele><time>2026-05-01T11:30:50Z</time></trkpt><trkpt lat="44.316884419102195" lon="9.3405908267858"><ele>4.0</ele><time>2026-05-01T11:30:51Z</time></trkpt><trkpt lat="44.31701892913986" lon="9.340719857678822"><ele>4.0</ele><time>2026-05-01T11:30:52Z</time></trkpt><trkpt lat="44.317155111509734" lon="9.340856611121897"><ele>4.0</ele><time>2026-05-01T11:30:53Z</time></trkpt><trkpt lat="44.317292789554436" lon="9.340993693180675"><ele>4.0</ele><time>2026-05-01T11:30:54Z</time></trkpt><trkpt lat="44.3174288184176" lon="9.341126768268081"><ele>4.333333333333333</ele><time>2026-05-01T11:30:55Z</time></trkpt><trkpt lat="44.317562322419455" lon="9.341255950813334"><ele>4.666666666666667</ele><time>2026-05-01T11:30:56Z</time></trkpt><trkpt lat="44.31769592997899" lon="9.341385155792398"><ele>5.0</ele><time>2026-05-01T11:30:57Z</time></trkpt><trkpt lat="44.317815952015906" lon="9.341503594446015"><ele>5.0</ele><time>2026-05-01T11:30:58Z</time></trkpt><trkpt lat="44.31792695783776" lon="9.341613736489819"><ele>5.0</ele><time>2026-05-01T11:30:59Z</time></trkpt><trkpt lat="44.31802806607338" lon="9.341709234916491"><ele>5.0</ele><time>2026-05-01T11:31:00Z</time></trkpt><trkpt lat="44.31811980823616" lon="9.34179812906273"><ele>5.0</ele><time>2026-05-01T11:31:01Z</time></trkpt><trkpt lat="44.318197930269946" lon="9.341876114074381"><ele>5.0</ele><time>2026-05-01T11:31:01.996Z</time></trkpt><trkpt lat="44.318259190710066" lon="9.341951873925517"><ele>5.0</ele><time>2026-05-01T11:31:04.996Z</time></trkpt><trkpt lat="44.318333245976916" lon="9.342048379237477"><ele>5.0</ele><time>2026-05-01T11:31:06.996Z</time></trkpt><trkpt lat="44.318366966228616" lon="9.342137540825302"><ele>5.0</ele><time>2026-05-01T11:31:07.996Z</time></trkpt><trkpt lat="44.31837897909917" lon="9.342238269880625"><ele>5.0</ele><time>2026-05-01T11:31:08.997Z</time></trkpt><trkpt lat="44.31836191649345" lon="9.342330598083773"><ele>5.0</ele><time>2026-05-01T11:31:09.997Z</time></trkpt><trkpt lat="44.31831996520714" lon="9.34241803853472"><ele>5.0</ele><time>2026-05-01T11:31:10.997Z</time></trkpt><trkpt lat="44.318263481763964" lon="9.342509045287342"><ele>5.0</ele><time>2026-05-01T11:31:11.997Z</time></trkpt><trkpt lat="44.31820022228508" lon="9.342623815387867"><ele>5.0</ele><time>2026-05-01T11:31:12.997Z</time></trkpt><trkpt lat="44.31813246877558" lon="9.342755438521447"><ele>5.0</ele><time>2026-05-01T11:31:13.997Z</time></trkpt><trkpt lat="44.318065065618505" lon="9.342884227390279"><ele>5.0</ele><time>2026-05-01T11:31:14.997Z</time></trkpt><trkpt lat="44.317999837235966" lon="9.343009583176759"><ele>4.0</ele><time>2026-05-01T11:31:15.997Z</time></trkpt><trkpt lat="44.31794193564706" lon="9.343121628564957"><ele>3.0</ele><time>2026-05-01T11:31:16.997Z</time></trkpt><trkpt lat="44.317886463042285" lon="9.34323291519517"><ele>2.0</ele><time>2026-05-01T11:31:17.998Z</time></trkpt><trkpt lat="44.31783634930047" lon="9.343336440757156"><ele>1.0</ele><time>2026-05-01T11:31:18.998Z</time></trkpt><trkpt lat="44.31779143110447" lon="9.343446372253162"><ele>0.0</ele><time>2026-05-01T11:31:19.998Z</time></trkpt><trkpt lat="44.31775577292132" lon="9.343571148138647"><ele>0.0</ele><time>2026-05-01T11:31:20.998Z</time></trkpt><trkpt lat="44.31772231957891" lon="9.343699954679408"><ele>0.0</ele><time>2026-05-01T11:31:21.998Z</time></trkpt><trkpt lat="44.317679403329215" lon="9.343824000943998"><ele>0.0</ele><time>2026-05-01T11:31:22.998Z</time></trkpt><trkpt lat="44.31764349287283" lon="9.343954059052432"><ele>0.0</ele><time>2026-05-01T11:31:23.998Z</time></trkpt><trkpt lat="44.31760277368321" lon="9.344085826650662"><ele>0.0</ele><time>2026-05-01T11:31:24.998Z</time></trkpt><trkpt lat="44.317560485864874" lon="9.344220613898516"><ele>0.75</ele><time>2026-05-01T11:31:25.998Z</time></trkpt><trkpt lat="44.31751688176769" lon="9.344369053490675"><ele>1.5</ele><time>2026-05-01T11:31:26.998Z</time></trkpt><trkpt lat="44.31747511965385" lon="9.344525864802884"><ele>2.25</ele><time>2026-05-01T11:31:27.998Z</time></trkpt><trkpt lat="44.31742973229342" lon="9.344681237735701"><ele>3.0</ele><time>2026-05-01T11:31:28.999Z</time></trkpt><trkpt lat="44.31738614687079" lon="9.344845885733001"><ele>3.4</ele><time>2026-05-01T11:31:29.999Z</time></trkpt><trkpt lat="44.31733064508785" lon="9.345007296134783"><ele>3.8</ele><time>2026-05-01T11:31:30.999Z</time></trkpt><trkpt lat="44.317284261617914" lon="9.345154065915112"><ele>4.2</ele><time>2026-05-01T11:31:31.999Z</time></trkpt><trkpt lat="44.31724294630737" lon="9.34528425231032"><ele>4.6</ele><time>2026-05-01T11:31:32.999Z</time></trkpt><trkpt lat="44.31720129607411" lon="9.345404489959053"><ele>5.0</ele><time>2026-05-01T11:31:33.999Z</time></trkpt><trkpt lat="44.31716391512715" lon="9.345514923824547"><ele>6.25</ele><time>2026-05-01T11:31:34.999Z</time></trkpt><trkpt lat="44.317130686019944" lon="9.34561115701138"><ele>7.5</ele><time>2026-05-01T11:31:35.999Z</time></trkpt><trkpt lat="44.317074585338545" lon="9.345762107441475"><ele>8.75</ele><time>2026-05-01T11:31:37.999Z</time></trkpt><trkpt lat="44.31700314245917" lon="9.345867121670908"><ele>10.0</ele><time>2026-05-01T11:31:39.999Z</time></trkpt><trkpt lat="44.31683728782754" lon="9.345855157921752"><ele>10.0</ele><time>2026-05-01T11:31:41.999Z</time></trkpt><trkpt lat="44.31674812419512" lon="9.34585002041843"><ele>10.0</ele><time>2026-05-01T11:31:42.999Z</time></trkpt><trkpt lat="44.31667001560814" lon="9.345747287700485"><ele>10.0</ele><time>2026-05-01T11:31:43.999Z</time></trkpt><trkpt lat="44.31658660653463" lon="9.34567799376211"><ele>10.0</ele><time>2026-05-01T11:31:44.999Z</time></trkpt><trkpt lat="44.31649940619748" lon="9.345613271328295"><ele>10.0</ele><time>2026-05-01T11:31:46Z</time></trkpt><trkpt lat="44.316409507252615" lon="9.345543694335875"><ele>8.8</ele><time>2026-05-01T11:31:47Z</time></trkpt><trkpt lat="44.31632400161789" lon="9.345475743299744"><ele>7.6</ele><time>2026-05-01T11:31:48Z</time></trkpt><trkpt lat="44.31623808600357" lon="9.345400842847269"><ele>6.4</ele><time>2026-05-01T11:31:49Z</time></trkpt><trkpt lat="44.316146968602936" lon="9.345324657299848"><ele>5.2</ele><time>2026-05-01T11:31:50Z</time></trkpt><trkpt lat="44.3160529298588" lon="9.345262797678766"><ele>4.0</ele><time>2026-05-01T11:31:51Z</time></trkpt><trkpt lat="44.315937159137974" lon="9.345227149541099"><ele>4.0</ele><time>2026-05-01T11:31:52Z</time></trkpt><trkpt lat="44.315819013504125" lon="9.345211066516343"><ele>4.0</ele><time>2026-05-01T11:31:53Z</time></trkpt><trkpt lat="44.315702750532616" lon="9.345219736678457"><ele>4.0</ele><time>2026-05-01T11:31:54Z</time></trkpt><trkpt lat="44.315585482439225" lon="9.34524285012796"><ele>4.0</ele><time>2026-05-01T11:31:55Z</time></trkpt><trkpt lat="44.31546738221106" lon="9.345269684611335"><ele>3.5</ele><time>2026-05-01T11:31:56Z</time></trkpt><trkpt lat="44.31534809393398" lon="9.345296659201919"><ele>3.0</ele><time>2026-05-01T11:31:57Z</time></trkpt><trkpt lat="44.315233475241975" lon="9.345325604516203"><ele>2.5</ele><time>2026-05-01T11:31:58Z</time></trkpt><trkpt lat="44.31512126501061" lon="9.345353180427798"><ele>2.0</ele><time>2026-05-01T11:31:59Z</time></trkpt><trkpt lat="44.315012539476605" lon="9.34537638834661"><ele>1.9999999999999998</ele><time>2026-05-01T11:32:00Z</time></trkpt><trkpt lat="44.314913352920016" lon="9.345396359022253"><ele>2.0</ele><time>2026-05-01T11:32:01Z</time></trkpt><trkpt lat="44.314823166864485" lon="9.345415011800066"><ele>2.0</ele><time>2026-05-01T11:32:02Z</time></trkpt><trkpt lat="44.31474207808368" lon="9.345427645223893"><ele>2.0</ele><time>2026-05-01T11:32:03Z</time></trkpt><trkpt lat="44.31467517451845" lon="9.345445094806827"><ele>1.9999999999999998</ele><time>2026-05-01T11:32:04Z</time></trkpt><trkpt lat="44.314582269609694" lon="9.345495746571412"><ele>2.0</ele><time>2026-05-01T11:32:06Z</time></trkpt><trkpt lat="44.314512193252604" lon="9.34546103291829"><ele>1.8333333333333333</ele><time>2026-05-01T11:32:09Z</time></trkpt><trkpt lat="44.31450559737412" lon="9.345602227102916"><ele>1.6666666666666665</ele><time>2026-05-01T11:32:10Z</time></trkpt><trkpt lat="44.314546142147414" lon="9.345560347331471"><ele>1.5</ele><time>2026-05-01T11:36:28.001Z</time></trkpt><trkpt lat="44.314505058335925" lon="9.34547335020548"><ele>1.3333333333333333</ele><time>2026-05-01T11:36:35.001Z</time></trkpt><trkpt lat="44.31438980787074" lon="9.345470309149706"><ele>1.1666666666666665</ele><time>2026-05-01T11:36:37.001Z</time></trkpt><trkpt lat="44.31431839315282" lon="9.345488250966788"><ele>1.0</ele><time>2026-05-01T11:36:38.001Z</time></trkpt><trkpt lat="44.31423323527019" lon="9.345507496283638"><ele>1.0</ele><time>2026-05-01T11:36:39.001Z</time></trkpt><trkpt lat="44.31414013886819" lon="9.345530684581922"><ele>1.0</ele><time>2026-05-01T11:36:40.001Z</time></trkpt><trkpt lat="44.31403385106566" lon="9.34555855348603"><ele>1.0</ele><time>2026-05-01T11:36:41.001Z</time></trkpt><trkpt lat="44.31391655030937" lon="9.345600393906848"><ele>1.0</ele><time>2026-05-01T11:36:42.001Z</time></trkpt><trkpt lat="44.313785831350856" lon="9.345638498908754"><ele>2.0</ele><time>2026-05-01T11:36:43.001Z</time></trkpt><trkpt lat="44.3136615043965" lon="9.34567254378725"><ele>3.0</ele><time>2026-05-01T11:36:44.001Z</time></trkpt><trkpt lat="44.31352952926117" lon="9.345700499158722"><ele>4.0</ele><time>2026-05-01T11:36:45.001Z</time></trkpt><trkpt lat="44.31339108905258" lon="9.345726141287821"><ele>5.0</ele><time>2026-05-01T11:36:46.001Z</time></trkpt><trkpt lat="44.31324571435092" lon="9.345751610697457"><ele>5.0</ele><time>2026-05-01T11:36:47.001Z</time></trkpt><trkpt lat="44.313099176482304" lon="9.345782292239921"><ele>5.0</ele><time>2026-05-01T11:36:48.001Z</time></trkpt><trkpt lat="44.31295015606291" lon="9.345813566368948"><ele>5.0</ele><time>2026-05-01T11:36:49.001Z</time></trkpt><trkpt lat="44.31278800892983" lon="9.34584881620012"><ele>4.666666666666667</ele><time>2026-05-01T11:36:50.001Z</time></trkpt><trkpt lat="44.31263404711847" lon="9.34588433324257"><ele>4.333333333333333</ele><time>2026-05-01T11:36:51.001Z</time></trkpt><trkpt lat="44.31248346439621" lon="9.345917785734235"><ele>4.0</ele><time>2026-05-01T11:36:52.001Z</time></trkpt><trkpt lat="44.312325080402324" lon="9.345949944170485"><ele>4.666666666666666</ele><time>2026-05-01T11:36:53.001Z</time></trkpt><trkpt lat="44.312169087608694" lon="9.345979200119455"><ele>5.333333333333333</ele><time>2026-05-01T11:36:54.001Z</time></trkpt><trkpt lat="44.31201105455016" lon="9.346010204768483"><ele>6.0</ele><time>2026-05-01T11:36:55.001Z</time></trkpt><trkpt lat="44.31186717049143" lon="9.346042122759004"><ele>6.0</ele><time>2026-05-01T11:36:56.001Z</time></trkpt><trkpt lat="44.31174184434852" lon="9.346070144882074"><ele>6.0</ele><time>2026-05-01T11:36:57.001Z</time></trkpt><trkpt lat="44.31163460238628" lon="9.346092357132646"><ele>6.0</ele><time>2026-05-01T11:36:58.001Z</time></trkpt><trkpt lat="44.31155808258337" lon="9.346108158716307"><ele>6.0</ele><time>2026-05-01T11:36:59.001Z</time></trkpt><trkpt lat="44.31148927465415" lon="9.346125605497695"><ele>6.0</ele><time>2026-05-01T11:37:01.001Z</time></trkpt><trkpt lat="44.31140307748568" lon="9.346144707919976"><ele>6.4</ele><time>2026-05-01T11:37:05.002Z</time></trkpt><trkpt lat="44.311308906718615" lon="9.346153210791877"><ele>6.8</ele><time>2026-05-01T11:37:07.002Z</time></trkpt><trkpt lat="44.311183324149376" lon="9.346157006106765"><ele>7.200000000000001</ele><time>2026-05-01T11:37:09.002Z</time></trkpt><trkpt lat="44.311133054744786" lon="9.346229008301696"><ele>7.6000000000000005</ele><time>2026-05-01T11:37:10.002Z</time></trkpt><trkpt lat="44.311112410665" lon="9.346342220237442"><ele>8.0</ele><time>2026-05-01T11:37:12.002Z</time></trkpt><trkpt lat="44.310938213031164" lon="9.346423804103566"><ele>8.0</ele><time>2026-05-01T11:37:14.002Z</time></trkpt><trkpt lat="44.31116374800425" lon="9.346350552701884"><ele>8.0</ele><time>2026-05-01T11:37:22Z</time></trkpt><trkpt lat="44.31130767899995" lon="9.346261951658894"><ele>8.0</ele><time>2026-05-01T11:37:51Z</time></trkpt><trkpt lat="44.311431162469844" lon="9.346350646658921"><ele>7.6000000000000005</ele><time>2026-05-01T11:37:53Z</time></trkpt><trkpt lat="44.31153274738754" lon="9.346363388652314"><ele>7.200000000000001</ele><time>2026-05-01T11:37:55Z</time></trkpt><trkpt lat="44.3116093646768" lon="9.346372177396622"><ele>6.8</ele><time>2026-05-01T11:37:57Z</time></trkpt><trkpt lat="44.311717839901895" lon="9.346369173490574"><ele>6.4</ele><time>2026-05-01T11:38:00Z</time></trkpt><trkpt lat="44.31183261971573" lon="9.346360979308244"><ele>6.0</ele><time>2026-05-01T11:38:02Z</time></trkpt><trkpt lat="44.311957773437136" lon="9.346360489429475"><ele>6.666666666666667</ele><time>2026-05-01T11:38:04Z</time></trkpt><trkpt lat="44.31202198237598" lon="9.34638888124185"><ele>7.333333333333334</ele><time>2026-05-01T11:38:05Z</time></trkpt><trkpt lat="44.312092703433194" lon="9.346430119054443"><ele>8.0</ele><time>2026-05-01T11:38:06Z</time></trkpt><trkpt lat="44.31216594254195" lon="9.346459009495279"><ele>8.666666666666668</ele><time>2026-05-01T11:38:07.001Z</time></trkpt><trkpt lat="44.312242186182125" lon="9.346484812134479"><ele>9.333333333333334</ele><time>2026-05-01T11:38:08.001Z</time></trkpt><trkpt lat="44.31230974011838" lon="9.346503870015638"><ele>10.0</ele><time>2026-05-01T11:38:09.001Z</time></trkpt><trkpt lat="44.31241522382906" lon="9.346529605608689"><ele>10.2</ele><time>2026-05-01T11:38:11.001Z</time></trkpt><trkpt lat="44.31247994859611" lon="9.346556877243202"><ele>10.4</ele><time>2026-05-01T11:38:14.001Z</time></trkpt><trkpt lat="44.312576312271425" lon="9.346590449281678"><ele>10.600000000000001</ele><time>2026-05-01T11:38:17.001Z</time></trkpt><trkpt lat="44.31265955215951" lon="9.34664018250449"><ele>10.8</ele><time>2026-05-01T11:38:19.001Z</time></trkpt><trkpt lat="44.312758282672334" lon="9.346673934550115"><ele>11.0</ele><time>2026-05-01T11:38:21.001Z</time></trkpt><trkpt lat="44.31285060364953" lon="9.34670734541239"><ele>11.0</ele><time>2026-05-01T11:38:23.001Z</time></trkpt><trkpt lat="44.312929181241856" lon="9.346730475067766"><ele>11.0</ele><time>2026-05-01T11:38:25.001Z</time></trkpt><trkpt lat="44.31303237694037" lon="9.346772761594677"><ele>11.0</ele><time>2026-05-01T11:38:27.001Z</time></trkpt><trkpt lat="44.31312771134764" lon="9.346812089386946"><ele>11.0</ele><time>2026-05-01T11:38:29.001Z</time></trkpt><trkpt lat="44.31321268919382" lon="9.346843541180773"><ele>11.0</ele><time>2026-05-01T11:38:31.001Z</time></trkpt><trkpt lat="44.31328349563449" lon="9.346874081354883"><ele>11.0</ele><time>2026-05-01T11:38:33.001Z</time></trkpt><trkpt lat="44.313338152517495" lon="9.346928971048955"><ele>9.8</ele><time>2026-05-01T11:38:39.001Z</time></trkpt><trkpt lat="44.313290372554" lon="9.347137367491744"><ele>8.600000000000001</ele><time>2026-05-01T11:38:43.001Z</time></trkpt><trkpt lat="44.31325065990288" lon="9.34720819172355"><ele>7.4</ele><time>2026-05-01T11:38:44.001Z</time></trkpt><trkpt lat="44.31320920210311" lon="9.347358345286601"><ele>6.2</ele><time>2026-05-01T11:38:46.001Z</time></trkpt><trkpt lat="44.313228390297176" lon="9.347505266265207"><ele>5.0</ele><time>2026-05-01T11:38:48.001Z</time></trkpt><trkpt lat="44.31327207387468" lon="9.347650693686575"><ele>4.8</ele><time>2026-05-01T11:38:50.001Z</time></trkpt><trkpt lat="44.313291381916734" lon="9.347789894412392"><ele>4.6</ele><time>2026-05-01T11:38:52.001Z</time></trkpt><trkpt lat="44.31332270042897" lon="9.347919669497694"><ele>4.4</ele><time>2026-05-01T11:38:54.001Z</time></trkpt><trkpt lat="44.31341361917208" lon="9.348053828108828"><ele>4.2</ele><time>2026-05-01T11:38:56.001Z</time></trkpt><trkpt lat="44.31347349081002" lon="9.348151251327163"><ele>4.0</ele><time>2026-05-01T11:38:57.001Z</time></trkpt><trkpt lat="44.31353990610857" lon="9.348246577593704"><ele>4.833333333333333</ele><time>2026-05-01T11:38:58.001Z</time></trkpt><trkpt lat="44.313591822654395" lon="9.348346265690616"><ele>5.666666666666666</ele><time>2026-05-01T11:38:59.001Z</time></trkpt><trkpt lat="44.31360160056968" lon="9.348457381378187"><ele>6.5</ele><time>2026-05-01T11:39:00.001Z</time></trkpt><trkpt lat="44.3136190327165" lon="9.348549749695389"><ele>7.333333333333333</ele><time>2026-05-01T11:39:01.001Z</time></trkpt><trkpt lat="44.31366657078052" lon="9.348690256847519"><ele>8.166666666666666</ele><time>2026-05-01T11:39:03.001Z</time></trkpt><trkpt lat="44.313754042307814" lon="9.348710988524987"><ele>9.0</ele><time>2026-05-01T11:39:04.001Z</time></trkpt><trkpt lat="44.31380590794478" lon="9.348794853158322"><ele>9.8</ele><time>2026-05-01T11:39:05.001Z</time></trkpt><trkpt lat="44.31384550901344" lon="9.348890222597063"><ele>10.600000000000001</ele><time>2026-05-01T11:39:06.001Z</time></trkpt><trkpt lat="44.31388545500449" lon="9.349011003925806"><ele>11.4</ele><time>2026-05-01T11:39:07.001Z</time></trkpt><trkpt lat="44.31394060082789" lon="9.349147940334936"><ele>12.200000000000001</ele><time>2026-05-01T11:39:08.001Z</time></trkpt><trkpt lat="44.3140033087897" lon="9.349296240622975"><ele>13.0</ele><time>2026-05-01T11:39:09.001Z</time></trkpt><trkpt lat="44.31406351989385" lon="9.34942286508711"><ele>13.2</ele><time>2026-05-01T11:39:10.001Z</time></trkpt><trkpt lat="44.31412363630563" lon="9.349549663128665"><ele>13.4</ele><time>2026-05-01T11:39:11.001Z</time></trkpt><trkpt lat="44.31416350996193" lon="9.349673862411725"><ele>13.599999999999998</ele><time>2026-05-01T11:39:12.002Z</time></trkpt><trkpt lat="44.31418416193026" lon="9.349804535408637"><ele>13.799999999999999</ele><time>2026-05-01T11:39:13.002Z</time></trkpt><trkpt lat="44.314187155209375" lon="9.349925561037873"><ele>14.0</ele><time>2026-05-01T11:39:14.002Z</time></trkpt><trkpt lat="44.314179467411776" lon="9.35006746050726"><ele>15.5</ele><time>2026-05-01T11:39:15.002Z</time></trkpt><trkpt lat="44.3141663763187" lon="9.350228694343231"><ele>17.0</ele><time>2026-05-01T11:39:16.002Z</time></trkpt><trkpt lat="44.31415130867748" lon="9.350393583879262"><ele>18.5</ele><time>2026-05-01T11:39:17.002Z</time></trkpt><trkpt lat="44.314141775287226" lon="9.350550413783399"><ele>20.0</ele><time>2026-05-01T11:39:18.002Z</time></trkpt><trkpt lat="44.31413529793359" lon="9.350702543685822"><ele>21.2</ele><time>2026-05-01T11:39:19.002Z</time></trkpt><trkpt lat="44.314133058852654" lon="9.350868676620765"><ele>22.4</ele><time>2026-05-01T11:39:20.002Z</time></trkpt><trkpt lat="44.314138439071115" lon="9.351023801367752"><ele>23.6</ele><time>2026-05-01T11:39:21.002Z</time></trkpt><trkpt lat="44.314149684539736" lon="9.351179326929456"><ele>24.8</ele><time>2026-05-01T11:39:22.002Z</time></trkpt><trkpt lat="44.31416657516148" lon="9.351326580899421"><ele>26.0</ele><time>2026-05-01T11:39:23.002Z</time></trkpt><trkpt lat="44.31416732439833" lon="9.351459042178682"><ele>27.8</ele><time>2026-05-01T11:39:24.002Z</time></trkpt><trkpt lat="44.314151798071556" lon="9.3515800633539"><ele>29.6</ele><time>2026-05-01T11:39:25.002Z</time></trkpt><trkpt lat="44.31412583914068" lon="9.351695017193379"><ele>31.4</ele><time>2026-05-01T11:39:26.002Z</time></trkpt><trkpt lat="44.31406452164087" lon="9.351801024483965"><ele>33.2</ele><time>2026-05-01T11:39:26.999Z</time></trkpt><trkpt lat="44.31401194079154" lon="9.351926022055352"><ele>35.0</ele><time>2026-05-01T11:39:27.999Z</time></trkpt><trkpt lat="44.31394749792577" lon="9.352073044116853"><ele>36.6</ele><time>2026-05-01T11:39:28.999Z</time></trkpt><trkpt lat="44.31388173546164" lon="9.352209724494006"><ele>38.2</ele><time>2026-05-01T11:39:29.999Z</time></trkpt><trkpt lat="44.31380937728861" lon="9.35235028463854"><ele>39.8</ele><time>2026-05-01T11:39:30.999Z</time></trkpt><trkpt lat="44.31374597531898" lon="9.352474637767365"><ele>41.4</ele><time>2026-05-01T11:39:31.999Z</time></trkpt><trkpt lat="44.31369199650219" lon="9.35257634993681"><ele>43.0</ele><time>2026-05-01T11:39:32.999Z</time></trkpt><trkpt lat="44.31364488491623" lon="9.352655093003428"><ele>43.0</ele><time>2026-05-01T11:39:33.999Z</time></trkpt><trkpt lat="44.313590813814784" lon="9.352707626973164"><ele>43.0</ele><time>2026-05-01T11:39:34.999Z</time></trkpt><trkpt lat="44.313491485735014" lon="9.352761179223675"><ele>43.0</ele><time>2026-05-01T11:39:36.999Z</time></trkpt><trkpt lat="44.313425287856184" lon="9.352801087038086"><ele>43.0</ele><time>2026-05-01T11:39:38.999Z</time></trkpt><trkpt lat="44.31333148246563" lon="9.352673603076898"><ele>43.0</ele><time>2026-05-01T11:39:42.999Z</time></trkpt><trkpt lat="44.313262353638706" lon="9.352575586712828"><ele>43.0</ele><time>2026-05-01T11:39:43.999Z</time></trkpt><trkpt lat="44.31317662603376" lon="9.352489274448033"><ele>43.0</ele><time>2026-05-01T11:39:44.999Z</time></trkpt><trkpt lat="44.31310450864583" lon="9.352377884172219"><ele>43.0</ele><time>2026-05-01T11:39:45.999Z</time></trkpt><trkpt lat="44.313026928894466" lon="9.352277848476673"><ele>43.0</ele><time>2026-05-01T11:39:46.999Z</time></trkpt><trkpt lat="44.31293963622878" lon="9.352194771688428"><ele>43.0</ele><time>2026-05-01T11:39:47.999Z</time></trkpt><trkpt lat="44.31283232206015" lon="9.352124299690358"><ele>42.4</ele><time>2026-05-01T11:39:48.999Z</time></trkpt><trkpt lat="44.3127156089123" lon="9.35208011747787"><ele>41.8</ele><time>2026-05-01T11:39:49.999Z</time></trkpt><trkpt lat="44.312615743754485" lon="9.352043194563752"><ele>41.2</ele><time>2026-05-01T11:39:50.999Z</time></trkpt><trkpt lat="44.312539808735565" lon="9.351992718080737"><ele>40.6</ele><time>2026-05-01T11:39:51.999Z</time></trkpt><trkpt lat="44.31248986394781" lon="9.351895659995744"><ele>40.0</ele><time>2026-05-01T11:39:52.999Z</time></trkpt><trkpt lat="44.312454090662605" lon="9.351747157847432"><ele>40.0</ele><time>2026-05-01T11:39:54Z</time></trkpt><trkpt lat="44.312411332834444" lon="9.351558713610002"><ele>40.0</ele><time>2026-05-01T11:39:55Z</time></trkpt><trkpt lat="44.31235757931821" lon="9.351372099917336"><ele>40.0</ele><time>2026-05-01T11:39:56Z</time></trkpt><trkpt lat="44.31228547502329" lon="9.351214781704554"><ele>40.0</ele><time>2026-05-01T11:39:57Z</time></trkpt><trkpt lat="44.31218744546271" lon="9.351096322066104"><ele>38.333333333333336</ele><time>2026-05-01T11:39:58Z</time></trkpt><trkpt lat="44.31206158632419" lon="9.350989396245227"><ele>36.666666666666664</ele><time>2026-05-01T11:39:59Z</time></trkpt><trkpt lat="44.31191674156187" lon="9.350879508939093"><ele>35.0</ele><time>2026-05-01T11:40:00Z</time></trkpt><trkpt lat="44.31177237373667" lon="9.350787185439449"><ele>35.0</ele><time>2026-05-01T11:40:01Z</time></trkpt><trkpt lat="44.311645523066176" lon="9.350710549072852"><ele>35.0</ele><time>2026-05-01T11:40:02Z</time></trkpt><trkpt lat="44.3115426817888" lon="9.350627644272475"><ele>35.0</ele><time>2026-05-01T11:40:03Z</time></trkpt><trkpt lat="44.31146580423604" lon="9.350522957499116"><ele>35.0</ele><time>2026-05-01T11:40:04Z</time></trkpt><trkpt lat="44.31141027370406" lon="9.350407338838835"><ele>35.5</ele><time>2026-05-01T11:40:05Z</time></trkpt><trkpt lat="44.311396036596044" lon="9.350287078477665"><ele>36.0</ele><time>2026-05-01T11:40:06Z</time></trkpt><trkpt lat="44.31142487816057" lon="9.350161930996169"><ele>36.5</ele><time>2026-05-01T11:40:07Z</time></trkpt><trkpt lat="44.311477477202374" lon="9.350047874863563"><ele>37.0</ele><time>2026-05-01T11:40:08Z</time></trkpt><trkpt lat="44.31151513144148" lon="9.34994176647352"><ele>37.5</ele><time>2026-05-01T11:40:09Z</time></trkpt><trkpt lat="44.311504643853716" lon="9.349840075354363"><ele>38.0</ele><time>2026-05-01T11:40:10Z</time></trkpt><trkpt lat="44.31145105096556" lon="9.34974680264826"><ele>36.0</ele><time>2026-05-01T11:40:11Z</time></trkpt><trkpt lat="44.311370249912855" lon="9.34967269879339"><ele>34.0</ele><time>2026-05-01T11:40:12Z</time></trkpt><trkpt lat="44.3112741162908" lon="9.349620053127097"><ele>31.999999999999996</ele><time>2026-05-01T11:40:13Z</time></trkpt><trkpt lat="44.31117839298107" lon="9.349557169357668"><ele>30.0</ele><time>2026-05-01T11:40:14Z</time></trkpt><trkpt lat="44.31107910372172" lon="9.349486895545654"><ele>28.0</ele><time>2026-05-01T11:40:15Z</time></trkpt><trkpt lat="44.31098422655165" lon="9.349401880702931"><ele>28.0</ele><time>2026-05-01T11:40:16Z</time></trkpt><trkpt lat="44.310891221291556" lon="9.349312618444271"><ele>27.999999999999996</ele><time>2026-05-01T11:40:17Z</time></trkpt><trkpt lat="44.310798798329294" lon="9.349218483641144"><ele>27.999999999999996</ele><time>2026-05-01T11:40:18Z</time></trkpt><trkpt lat="44.31071911103023" lon="9.349113870561556"><ele>28.0</ele><time>2026-05-01T11:40:19Z</time></trkpt><trkpt lat="44.310667144676714" lon="9.348996731367142"><ele>28.0</ele><time>2026-05-01T11:40:20Z</time></trkpt><trkpt lat="44.3106415865477" lon="9.348868025566524"><ele>27.000000000000004</ele><time>2026-05-01T11:40:21Z</time></trkpt><trkpt lat="44.31063370825649" lon="9.348739869616242"><ele>26.0</ele><time>2026-05-01T11:40:22Z</time></trkpt><trkpt lat="44.31064969316438" lon="9.34861280265233"><ele>25.0</ele><time>2026-05-01T11:40:23Z</time></trkpt><trkpt lat="44.310674838048705" lon="9.34849738216765"><ele>24.0</ele><time>2026-05-01T11:40:24Z</time></trkpt><trkpt lat="44.310681009018836" lon="9.348407078865105"><ele>23.0</ele><time>2026-05-01T11:40:25Z</time></trkpt><trkpt lat="44.31063858792047" lon="9.348335507641334"><ele>22.0</ele><time>2026-05-01T11:40:26Z</time></trkpt><trkpt lat="44.31056084614699" lon="9.34830385866896"><ele>20.6</ele><time>2026-05-01T11:40:27Z</time></trkpt><trkpt lat="44.31047496002748" lon="9.348318640717102"><ele>19.200000000000003</ele><time>2026-05-01T11:40:28Z</time></trkpt><trkpt lat="44.31040622203983" lon="9.348388119634487"><ele>17.8</ele><time>2026-05-01T11:40:29Z</time></trkpt><trkpt lat="44.31035431565853" lon="9.348476622454772"><ele>16.4</ele><time>2026-05-01T11:40:30Z</time></trkpt><trkpt lat="44.31036067127942" lon="9.348609141003019"><ele>15.0</ele><time>2026-05-01T11:40:31.001Z</time></trkpt><trkpt lat="44.31041907887038" lon="9.348748019429598"><ele>14.25</ele><time>2026-05-01T11:40:32.001Z</time></trkpt><trkpt lat="44.31047446519778" lon="9.348918004200593"><ele>13.5</ele><time>2026-05-01T11:40:33.001Z</time></trkpt><trkpt lat="44.310507699883296" lon="9.349126745096603"><ele>12.75</ele><time>2026-05-01T11:40:34.001Z</time></trkpt><trkpt lat="44.310568568054066" lon="9.349293000595607"><ele>12.0</ele><time>2026-05-01T11:40:35.001Z</time></trkpt><trkpt lat="44.310630732200345" lon="9.349427316320641"><ele>13.6</ele><time>2026-05-01T11:40:36.001Z</time></trkpt><trkpt lat="44.31071733393974" lon="9.3495089656927"><ele>15.2</ele><time>2026-05-01T11:40:37.001Z</time></trkpt><trkpt lat="44.310813575471535" lon="9.349545665902157"><ele>16.8</ele><time>2026-05-01T11:40:38.001Z</time></trkpt><trkpt lat="44.310886634634834" lon="9.34959837741116"><ele>18.4</ele><time>2026-05-01T11:40:39.001Z</time></trkpt><trkpt lat="44.310903240410404" lon="9.349750287012748"><ele>20.0</ele><time>2026-05-01T11:40:41.001Z</time></trkpt><trkpt lat="44.31085377397204" lon="9.3498139108066"><ele>20.0</ele><time>2026-05-01T11:40:42.001Z</time></trkpt><trkpt lat="44.31077844931331" lon="9.349855703533569"><ele>20.0</ele><time>2026-05-01T11:40:43.001Z</time></trkpt><trkpt lat="44.310710718704435" lon="9.349816767756305"><ele>20.0</ele><time>2026-05-01T11:40:44.001Z</time></trkpt><trkpt lat="44.31064626635545" lon="9.349725285987237"><ele>20.0</ele><time>2026-05-01T11:40:45.001Z</time></trkpt><trkpt lat="44.31056433216823" lon="9.349587909216988"><ele>20.0</ele><time>2026-05-01T11:40:46.001Z</time></trkpt><trkpt lat="44.31046655177243" lon="9.349455866851844"><ele>18.75</ele><time>2026-05-01T11:40:47.001Z</time></trkpt><trkpt lat="44.310386593136315" lon="9.349296532110369"><ele>17.5</ele><time>2026-05-01T11:40:48.001Z</time></trkpt><trkpt lat="44.31030669931757" lon="9.349116051126986"><ele>16.25</ele><time>2026-05-01T11:40:49.001Z</time></trkpt><trkpt lat="44.31021430089298" lon="9.348941595855392"><ele>15.0</ele><time>2026-05-01T11:40:50.001Z</time></trkpt><trkpt lat="44.31010594890792" lon="9.348782609849026"><ele>15.0</ele><time>2026-05-01T11:40:51.001Z</time></trkpt><trkpt lat="44.309996208247185" lon="9.348649970172678"><ele>15.0</ele><time>2026-05-01T11:40:52.001Z</time></trkpt><trkpt lat="44.30989423785635" lon="9.348532455695628"><ele>15.0</ele><time>2026-05-01T11:40:53.001Z</time></trkpt><trkpt lat="44.30979868714292" lon="9.34842757192478"><ele>15.0</ele><time>2026-05-01T11:40:54.001Z</time></trkpt><trkpt lat="44.30970201004023" lon="9.348347409482887"><ele>13.4</ele><time>2026-05-01T11:40:55.001Z</time></trkpt><trkpt lat="44.309596450195606" lon="9.34830762541971"><ele>11.8</ele><time>2026-05-01T11:40:56.001Z</time></trkpt><trkpt lat="44.30949135805657" lon="9.348290778267307"><ele>10.2</ele><time>2026-05-01T11:40:57.001Z</time></trkpt><trkpt lat="44.309378885194825" lon="9.348292641233797"><ele>8.6</ele><time>2026-05-01T11:40:58.001Z</time></trkpt><trkpt lat="44.30927761185923" lon="9.348311549855579"><ele>7.0</ele><time>2026-05-01T11:40:59.001Z</time></trkpt><trkpt lat="44.309179890467455" lon="9.348339548252685"><ele>7.000000000000001</ele><time>2026-05-01T11:41:00.001Z</time></trkpt><trkpt lat="44.30909087303277" lon="9.348385506537126"><ele>7.0</ele><time>2026-05-01T11:41:01.001Z</time></trkpt><trkpt lat="44.30902131658582" lon="9.348429251255277"><ele>7.0</ele><time>2026-05-01T11:41:02.001Z</time></trkpt><trkpt lat="44.30894848975735" lon="9.348481538932388"><ele>7.0</ele><time>2026-05-01T11:41:04.001Z</time></trkpt><trkpt lat="44.30887046265371" lon="9.348521091236508"><ele>7.000000000000001</ele><time>2026-05-01T11:41:06.001Z</time></trkpt><trkpt lat="44.308800008600286" lon="9.348571546120677"><ele>7.0</ele><time>2026-05-01T11:41:07.001Z</time></trkpt><trkpt lat="44.30870313314492" lon="9.34864335280758"><ele>7.0</ele><time>2026-05-01T11:41:08.001Z</time></trkpt><trkpt lat="44.308593875811106" lon="9.3487482006101"><ele>7.0</ele><time>2026-05-01T11:41:09.001Z</time></trkpt><trkpt lat="44.308481580889925" lon="9.348831725571237"><ele>7.0</ele><time>2026-05-01T11:41:10.001Z</time></trkpt><trkpt lat="44.30836816054849" lon="9.348923563174143"><ele>7.0</ele><time>2026-05-01T11:41:11.001Z</time></trkpt><trkpt lat="44.3082464101301" lon="9.34899589779721"><ele>6.833333333333334</ele><time>2026-05-01T11:41:12.001Z</time></trkpt><trkpt lat="44.30815800439518" lon="9.349087693372187"><ele>6.666666666666667</ele><time>2026-05-01T11:41:13.001Z</time></trkpt><trkpt lat="44.30809503308152" lon="9.349134950492317"><ele>6.5</ele><time>2026-05-01T11:41:14.001Z</time></trkpt><trkpt lat="44.308036043498156" lon="9.349172423055181"><ele>6.333333333333334</ele><time>2026-05-01T11:41:16.001Z</time></trkpt><trkpt lat="44.30797512387727" lon="9.349272306703384"><ele>6.166666666666667</ele><time>2026-05-01T11:41:22.001Z</time></trkpt><trkpt lat="44.30791793407157" lon="9.349319248193083"><ele>6.0</ele><time>2026-05-01T11:41:23.001Z</time></trkpt><trkpt lat="44.30782715987931" lon="9.349449679834644"><ele>6.833333333333333</ele><time>2026-05-01T11:41:25.002Z</time></trkpt><trkpt lat="44.30777619452385" lon="9.349524342106555"><ele>7.666666666666666</ele><time>2026-05-01T11:41:26.002Z</time></trkpt><trkpt lat="44.307739316841335" lon="9.349615709973762"><ele>8.5</ele><time>2026-05-01T11:41:27.002Z</time></trkpt><trkpt lat="44.3076862058581" lon="9.349684461709792"><ele>9.333333333333332</ele><time>2026-05-01T11:41:28.002Z</time></trkpt><trkpt lat="44.30764364045127" lon="9.349754686913448"><ele>10.166666666666666</ele><time>2026-05-01T11:41:29.002Z</time></trkpt><trkpt lat="44.307583154160646" lon="9.349807371727662"><ele>11.0</ele><time>2026-05-01T11:41:30.002Z</time></trkpt><trkpt lat="44.30747587023326" lon="9.349784332770083"><ele>10.25</ele><time>2026-05-01T11:41:31.002Z</time></trkpt><trkpt lat="44.307333871547314" lon="9.349828513725505"><ele>9.5</ele><time>2026-05-01T11:41:32.002Z</time></trkpt><trkpt lat="44.30719455061231" lon="9.349918044089653"><ele>8.75</ele><time>2026-05-01T11:41:32.999Z</time></trkpt><trkpt lat="44.30706328483046" lon="9.349973331930931"><ele>8.0</ele><time>2026-05-01T11:41:33.999Z</time></trkpt><trkpt lat="44.30693604528708" lon="9.350048056726688"><ele>8.0</ele><time>2026-05-01T11:41:34.999Z</time></trkpt><trkpt lat="44.30682684929856" lon="9.35013831205709"><ele>8.0</ele><time>2026-05-01T11:41:35.999Z</time></trkpt><trkpt lat="44.306734218583195" lon="9.350240118284036"><ele>8.0</ele><time>2026-05-01T11:41:36.999Z</time></trkpt><trkpt lat="44.30665247329008" lon="9.350332083188569"><ele>8.0</ele><time>2026-05-01T11:41:37.999Z</time></trkpt><trkpt lat="44.3065752920531" lon="9.350415538765057"><ele>8.0</ele><time>2026-05-01T11:41:38.999Z</time></trkpt><trkpt lat="44.30650992705526" lon="9.350507696022111"><ele>8.666666666666666</ele><time>2026-05-01T11:41:39.999Z</time></trkpt><trkpt lat="44.30646131987285" lon="9.350612556170423"><ele>9.333333333333332</ele><time>2026-05-01T11:41:40.999Z</time></trkpt><trkpt lat="44.306430540325195" lon="9.350719132913076"><ele>10.0</ele><time>2026-05-01T11:41:41.999Z</time></trkpt><trkpt lat="44.306409417528386" lon="9.35080590561799"><ele>10.666666666666666</ele><time>2026-05-01T11:41:42.999Z</time></trkpt><trkpt lat="44.30632906004041" lon="9.350941553274955"><ele>11.333333333333334</ele><time>2026-05-01T11:41:44.999Z</time></trkpt><trkpt lat="44.30626565884073" lon="9.350994914748496"><ele>12.0</ele><time>2026-05-01T11:41:45.999Z</time></trkpt><trkpt lat="44.30620365843685" lon="9.35107032694472"><ele>12.0</ele><time>2026-05-01T11:41:46.999Z</time></trkpt><trkpt lat="44.30614778781528" lon="9.351142893980166"><ele>12.0</ele><time>2026-05-01T11:41:47.999Z</time></trkpt><trkpt lat="44.306110831762524" lon="9.351224798392524"><ele>12.0</ele><time>2026-05-01T11:41:48.999Z</time></trkpt><trkpt lat="44.30605923291675" lon="9.351335813931453"><ele>12.0</ele><time>2026-05-01T11:41:50.999Z</time></trkpt><trkpt lat="44.30609483244907" lon="9.351476773173303"><ele>12.0</ele><time>2026-05-01T11:41:52.999Z</time></trkpt><trkpt lat="44.306214476413096" lon="9.351503292020505"><ele>13.5</ele><time>2026-05-01T11:41:53.999Z</time></trkpt><trkpt lat="44.30632326115575" lon="9.351568950366657"><ele>15.0</ele><time>2026-05-01T11:41:54.999Z</time></trkpt><trkpt lat="44.30646725744729" lon="9.351642089970078"><ele>16.5</ele><time>2026-05-01T11:41:55.999Z</time></trkpt><trkpt lat="44.30662245375511" lon="9.351698289766045"><ele>18.0</ele><time>2026-05-01T11:41:56.999Z</time></trkpt><trkpt lat="44.3067379287153" lon="9.351756980813445"><ele>20.4</ele><time>2026-05-01T11:41:58Z</time></trkpt><trkpt lat="44.306807830993904" lon="9.351829611099355"><ele>22.8</ele><time>2026-05-01T11:41:59Z</time></trkpt><trkpt lat="44.30686768179645" lon="9.351975684256782"><ele>25.2</ele><time>2026-05-01T11:42:01Z</time></trkpt><trkpt lat="44.306831402847834" lon="9.352073127666431"><ele>27.6</ele><time>2026-05-01T11:42:02Z</time></trkpt><trkpt lat="44.30680052386332" lon="9.352167372692444"><ele>30.0</ele><time>2026-05-01T11:42:03Z</time></trkpt><trkpt lat="44.306692109043794" lon="9.352180598162905"><ele>31.2</ele><time>2026-05-01T11:42:04Z</time></trkpt><trkpt lat="44.30659064019809" lon="9.352233542680825"><ele>32.4</ele><time>2026-05-01T11:42:05Z</time></trkpt><trkpt lat="44.30649753426413" lon="9.352301468272703"><ele>33.6</ele><time>2026-05-01T11:42:06Z</time></trkpt><trkpt lat="44.30640589481784" lon="9.352339955717754"><ele>34.8</ele><time>2026-05-01T11:42:07Z</time></trkpt><trkpt lat="44.3063191856866" lon="9.352387363666395"><ele>36.0</ele><time>2026-05-01T11:42:08Z</time></trkpt><trkpt lat="44.30624300414057" lon="9.35244791000198"><ele>32.5</ele><time>2026-05-01T11:42:09Z</time></trkpt><trkpt lat="44.306174499950906" lon="9.352545690136772"><ele>29.0</ele><time>2026-05-01T11:42:10Z</time></trkpt><trkpt lat="44.30611821128252" lon="9.352691685249635"><ele>25.5</ele><time>2026-05-01T11:42:11Z</time></trkpt><trkpt lat="44.30606490837989" lon="9.352854619982823"><ele>22.0</ele><time>2026-05-01T11:42:12Z</time></trkpt><trkpt lat="44.30602703294253" lon="9.353014183189396"><ele>24.0</ele><time>2026-05-01T11:42:13Z</time></trkpt><trkpt lat="44.30602338403675" lon="9.353187082343025"><ele>26.0</ele><time>2026-05-01T11:42:14Z</time></trkpt><trkpt lat="44.306049136931094" lon="9.353385714605876"><ele>28.0</ele><time>2026-05-01T11:42:15Z</time></trkpt><trkpt lat="44.30606113976578" lon="9.353581399329597"><ele>30.0</ele><time>2026-05-01T11:42:16Z</time></trkpt><trkpt lat="44.30607213620038" lon="9.353730223390928"><ele>30.0</ele><time>2026-05-01T11:42:17Z</time></trkpt><trkpt lat="44.30606985947912" lon="9.353845821722626"><ele>30.0</ele><time>2026-05-01T11:42:18Z</time></trkpt><trkpt lat="44.306070123352406" lon="9.353960126778281"><ele>30.0</ele><time>2026-05-01T11:42:19Z</time></trkpt><trkpt lat="44.30596751166797" lon="9.35400676902193"><ele>30.0</ele><time>2026-05-01T11:42:20Z</time></trkpt><trkpt lat="44.305889887604316" lon="9.354088051994465"><ele>30.0</ele><time>2026-05-01T11:42:21Z</time></trkpt><trkpt lat="44.305823867089885" lon="9.3541281244833"><ele>30.0</ele><time>2026-05-01T11:42:22Z</time></trkpt><trkpt lat="44.30575253777491" lon="9.354119821576749"><ele>28.8</ele><time>2026-05-01T11:42:23Z</time></trkpt><trkpt lat="44.305679320712635" lon="9.354045793144216"><ele>27.6</ele><time>2026-05-01T11:42:24Z</time></trkpt><trkpt lat="44.30559936368131" lon="9.35394733888368"><ele>26.4</ele><time>2026-05-01T11:42:25Z</time></trkpt><trkpt lat="44.30551886070636" lon="9.353859765896598"><ele>25.2</ele><time>2026-05-01T11:42:26Z</time></trkpt><trkpt lat="44.305443484530294" lon="9.353800385976"><ele>24.0</ele><time>2026-05-01T11:42:27Z</time></trkpt><trkpt lat="44.305362604512496" lon="9.353771886658443"><ele>24.0</ele><time>2026-05-01T11:42:28Z</time></trkpt><trkpt lat="44.30526789521555" lon="9.353773865355613"><ele>24.0</ele><time>2026-05-01T11:42:29Z</time></trkpt><trkpt lat="44.30515525567168" lon="9.353799679228002"><ele>24.0</ele><time>2026-05-01T11:42:30.001Z</time></trkpt><trkpt lat="44.30505401245322" lon="9.353848308594658"><ele>24.0</ele><time>2026-05-01T11:42:31.001Z</time></trkpt><trkpt lat="44.30495863081025" lon="9.353907984495606"><ele>24.0</ele><time>2026-05-01T11:42:32.001Z</time></trkpt><trkpt lat="44.30488625323873" lon="9.354002209735881"><ele>26.2</ele><time>2026-05-01T11:42:33.001Z</time></trkpt><trkpt lat="44.30483381854187" lon="9.354124572827688"><ele>28.4</ele><time>2026-05-01T11:42:34.001Z</time></trkpt><trkpt lat="44.30478068660331" lon="9.35426374202446"><ele>30.6</ele><time>2026-05-01T11:42:35.001Z</time></trkpt><trkpt lat="44.30477470927721" lon="9.354409417124634"><ele>32.8</ele><time>2026-05-01T11:42:36.001Z</time></trkpt><trkpt lat="44.30477150267273" lon="9.354539663003914"><ele>35.0</ele><time>2026-05-01T11:42:37.001Z</time></trkpt><trkpt lat="44.30484780246879" lon="9.35465720766163"><ele>34.666666666666664</ele><time>2026-05-01T11:42:38.001Z</time></trkpt><trkpt lat="44.304925086673244" lon="9.354770130536098"><ele>34.33333333333333</ele><time>2026-05-01T11:42:39.001Z</time></trkpt><trkpt lat="44.3049863591542" lon="9.35489477745784"><ele>34.0</ele><time>2026-05-01T11:42:40.001Z</time></trkpt><trkpt lat="44.30504196628446" lon="9.354997308859678"><ele>33.666666666666664</ele><time>2026-05-01T11:42:41.001Z</time></trkpt><trkpt lat="44.30506098707716" lon="9.355087760577844"><ele>33.333333333333336</ele><time>2026-05-01T11:42:42.001Z</time></trkpt><trkpt lat="44.30506317231894" lon="9.355180536609334"><ele>33.0</ele><time>2026-05-01T11:42:43.001Z</time></trkpt><trkpt lat="44.30502562901043" lon="9.355265555199976"><ele>33.0</ele><time>2026-05-01T11:42:44.001Z</time></trkpt><trkpt lat="44.3049440217149" lon="9.355337630754603"><ele>33.0</ele><time>2026-05-01T11:42:45.001Z</time></trkpt><trkpt lat="44.30484635924345" lon="9.355470764815818"><ele>33.0</ele><time>2026-05-01T11:42:46.001Z</time></trkpt><trkpt lat="44.30475692301752" lon="9.355590927146636"><ele>33.0</ele><time>2026-05-01T11:42:47.001Z</time></trkpt><trkpt lat="44.30468001881251" lon="9.355663002643801"><ele>32.25</ele><time>2026-05-01T11:42:48.001Z</time></trkpt><trkpt lat="44.3046027711277" lon="9.355727678789819"><ele>31.5</ele><time>2026-05-01T11:42:49.001Z</time></trkpt><trkpt lat="44.30447979563709" lon="9.355683949642048"><ele>30.75</ele><time>2026-05-01T11:42:50.001Z</time></trkpt><trkpt lat="44.30433267910172" lon="9.355681325100859"><ele>30.0</ele><time>2026-05-01T11:42:51.001Z</time></trkpt><trkpt lat="44.30418691561543" lon="9.355688080277154"><ele>30.0</ele><time>2026-05-01T11:42:52.001Z</time></trkpt><trkpt lat="44.30406278443449" lon="9.3556804786896"><ele>30.0</ele><time>2026-05-01T11:42:53.001Z</time></trkpt><trkpt lat="44.30396062863966" lon="9.355696035267544"><ele>30.0</ele><time>2026-05-01T11:42:54.001Z</time></trkpt><trkpt lat="44.30387930363603" lon="9.355754969826132"><ele>30.0</ele><time>2026-05-01T11:42:55.001Z</time></trkpt><trkpt lat="44.3038098387754" lon="9.355867785304389"><ele>30.0</ele><time>2026-05-01T11:42:56.001Z</time></trkpt><trkpt lat="44.303754514045934" lon="9.356003741060764"><ele>28.25</ele><time>2026-05-01T11:42:57.001Z</time></trkpt><trkpt lat="44.303729403300494" lon="9.356133352858878"><ele>26.5</ele><time>2026-05-01T11:42:58.001Z</time></trkpt><trkpt lat="44.30375110590562" lon="9.356268411518466"><ele>24.75</ele><time>2026-05-01T11:42:59.001Z</time></trkpt><trkpt lat="44.30380945890283" lon="9.35642374212512"><ele>23.0</ele><time>2026-05-01T11:43:00.001Z</time></trkpt><trkpt lat="44.3038393864762" lon="9.356606343823923"><ele>23.0</ele><time>2026-05-01T11:43:01.001Z</time></trkpt><trkpt lat="44.30385786181902" lon="9.356765627902648"><ele>23.0</ele><time>2026-05-01T11:43:02.001Z</time></trkpt><trkpt lat="44.30384706551999" lon="9.356918154744028"><ele>23.0</ele><time>2026-05-01T11:43:03.001Z</time></trkpt><trkpt lat="44.303836314811946" lon="9.357071495601414"><ele>23.0</ele><time>2026-05-01T11:43:04.001Z</time></trkpt><trkpt lat="44.303808784879486" lon="9.357181382698665"><ele>23.0</ele><time>2026-05-01T11:43:05.001Z</time></trkpt><trkpt lat="44.30376360879394" lon="9.357278503872182"><ele>24.2</ele><time>2026-05-01T11:43:06.001Z</time></trkpt><trkpt lat="44.30364314474175" lon="9.357270612419477"><ele>25.4</ele><time>2026-05-01T11:43:07.001Z</time></trkpt><trkpt lat="44.303519985845426" lon="9.357314625893457"><ele>26.599999999999998</ele><time>2026-05-01T11:43:08.001Z</time></trkpt><trkpt lat="44.30341979754252" lon="9.357364308627211"><ele>27.799999999999997</ele><time>2026-05-01T11:43:09.001Z</time></trkpt><trkpt lat="44.30333757160192" lon="9.357401550215434"><ele>29.0</ele><time>2026-05-01T11:43:10.001Z</time></trkpt><trkpt lat="44.30329517992105" lon="9.357529449225865"><ele>29.0</ele><time>2026-05-01T11:43:11.001Z</time></trkpt><trkpt lat="44.30325385176458" lon="9.357669346432663"><ele>29.0</ele><time>2026-05-01T11:43:12.002Z</time></trkpt><trkpt lat="44.30318321997064" lon="9.357801262172254"><ele>29.0</ele><time>2026-05-01T11:43:13.002Z</time></trkpt><trkpt lat="44.30312444926499" lon="9.357945860872166"><ele>29.0</ele><time>2026-05-01T11:43:14.002Z</time></trkpt><trkpt lat="44.303068954739786" lon="9.358082396407424"><ele>26.8</ele><time>2026-05-01T11:43:15.002Z</time></trkpt><trkpt lat="44.303018242075105" lon="9.358217026342281"><ele>24.599999999999998</ele><time>2026-05-01T11:43:16.002Z</time></trkpt><trkpt lat="44.30297417149247" lon="9.358346448877613"><ele>22.4</ele><time>2026-05-01T11:43:17.002Z</time></trkpt><trkpt lat="44.302939031402424" lon="9.35846684926024"><ele>20.2</ele><time>2026-05-01T11:43:18.002Z</time></trkpt><trkpt lat="44.30295040172492" lon="9.358611021779584"><ele>18.0</ele><time>2026-05-01T11:43:19.002Z</time></trkpt><trkpt lat="44.30297321551248" lon="9.35876945514525"><ele>19.25</ele><time>2026-05-01T11:43:20.002Z</time></trkpt><trkpt lat="44.30296413999097" lon="9.358940596327248"><ele>20.5</ele><time>2026-05-01T11:43:21.002Z</time></trkpt><trkpt lat="44.30296230097519" lon="9.359113942618933"><ele>21.75</ele><time>2026-05-01T11:43:22.002Z</time></trkpt><trkpt lat="44.30294536330278" lon="9.359284452486415"><ele>23.0</ele><time>2026-05-01T11:43:23.002Z</time></trkpt><trkpt lat="44.30292454637934" lon="9.35944108724379"><ele>23.0</ele><time>2026-05-01T11:43:24.002Z</time></trkpt><trkpt lat="44.302903824139115" lon="9.359574206844725"><ele>23.0</ele><time>2026-05-01T11:43:25.002Z</time></trkpt><trkpt lat="44.302862617358" lon="9.359650240406962"><ele>23.0</ele><time>2026-05-01T11:43:26.002Z</time></trkpt><trkpt lat="44.30281385955342" lon="9.359723690624234"><ele>23.0</ele><time>2026-05-01T11:43:27.002Z</time></trkpt><trkpt lat="44.30272656066037" lon="9.359759005930256"><ele>23.0</ele><time>2026-05-01T11:43:28.002Z</time></trkpt><trkpt lat="44.302631999284706" lon="9.359810251047037"><ele>23.0</ele><time>2026-05-01T11:43:29.002Z</time></trkpt><trkpt lat="44.30255028718983" lon="9.359856250662022"><ele>22.799999999999997</ele><time>2026-05-01T11:43:30.002Z</time></trkpt><trkpt lat="44.3024684086905" lon="9.359914087979519"><ele>22.6</ele><time>2026-05-01T11:43:31.002Z</time></trkpt><trkpt lat="44.302386488260865" lon="9.360002198933724"><ele>22.4</ele><time>2026-05-01T11:43:32.002Z</time></trkpt><trkpt lat="44.30231857519032" lon="9.360129033418227"><ele>22.200000000000003</ele><time>2026-05-01T11:43:33.002Z</time></trkpt><trkpt lat="44.302225113546356" lon="9.360230043175058"><ele>22.0</ele><time>2026-05-01T11:43:34.002Z</time></trkpt><trkpt lat="44.30214614767904" lon="9.360361847269122"><ele>22.0</ele><time>2026-05-01T11:43:35.002Z</time></trkpt><trkpt lat="44.30207169597609" lon="9.36048839246877"><ele>22.0</ele><time>2026-05-01T11:43:36.002Z</time></trkpt><trkpt lat="44.30202904584597" lon="9.360649523850439"><ele>22.0</ele><time>2026-05-01T11:43:37.002Z</time></trkpt><trkpt lat="44.30197828703012" lon="9.36080791421669"><ele>22.0</ele><time>2026-05-01T11:43:38.002Z</time></trkpt><trkpt lat="44.30194812070128" lon="9.360967988201576"><ele>23.0</ele><time>2026-05-01T11:43:38.999Z</time></trkpt><trkpt lat="44.301949617615776" lon="9.361111915719867"><ele>24.0</ele><time>2026-05-01T11:43:39.999Z</time></trkpt><trkpt lat="44.3019650799071" lon="9.36124642886384"><ele>25.000000000000004</ele><time>2026-05-01T11:43:40.999Z</time></trkpt><trkpt lat="44.30204351340428" lon="9.361367569340837"><ele>26.0</ele><time>2026-05-01T11:43:41.999Z</time></trkpt><trkpt lat="44.30213092477026" lon="9.36149477349751"><ele>27.0</ele><time>2026-05-01T11:43:42.999Z</time></trkpt><trkpt lat="44.3022077322862" lon="9.36163065410563"><ele>27.0</ele><time>2026-05-01T11:43:43.999Z</time></trkpt><trkpt lat="44.302252596020296" lon="9.361746271292349"><ele>27.000000000000004</ele><time>2026-05-01T11:43:44.999Z</time></trkpt><trkpt lat="44.30226358691065" lon="9.361863321826135"><ele>27.000000000000004</ele><time>2026-05-01T11:43:45.999Z</time></trkpt><trkpt lat="44.30221160776197" lon="9.36198320707473"><ele>27.0</ele><time>2026-05-01T11:43:46.999Z</time></trkpt><trkpt lat="44.302162354531234" lon="9.362136322059344"><ele>27.0</ele><time>2026-05-01T11:43:47.999Z</time></trkpt><trkpt lat="44.302125632809954" lon="9.3622893060653"><ele>28.0</ele><time>2026-05-01T11:43:48.999Z</time></trkpt><trkpt lat="44.30213225149493" lon="9.362439286788483"><ele>29.000000000000004</ele><time>2026-05-01T11:43:49.999Z</time></trkpt><trkpt lat="44.30216893802158" lon="9.362582560894651"><ele>30.000000000000004</ele><time>2026-05-01T11:43:50.999Z</time></trkpt><trkpt lat="44.30217561876883" lon="9.362715078301152"><ele>31.0</ele><time>2026-05-01T11:43:51.999Z</time></trkpt><trkpt lat="44.30216884199755" lon="9.362813006790724"><ele>32.0</ele><time>2026-05-01T11:43:52.999Z</time></trkpt><trkpt lat="44.30211671883107" lon="9.362878812846743"><ele>32.0</ele><time>2026-05-01T11:43:53.999Z</time></trkpt><trkpt lat="44.30204501405582" lon="9.362905804704988"><ele>32.0</ele><time>2026-05-01T11:43:54.999Z</time></trkpt><trkpt lat="44.30194251222376" lon="9.362838757661322"><ele>32.0</ele><time>2026-05-01T11:43:55.999Z</time></trkpt><trkpt lat="44.30181070412477" lon="9.362819798913677"><ele>32.0</ele><time>2026-05-01T11:43:56.999Z</time></trkpt><trkpt lat="44.30169613157824" lon="9.36280294011094"><ele>32.0</ele><time>2026-05-01T11:43:58Z</time></trkpt><trkpt lat="44.30160871109808" lon="9.362828454242635"><ele>32.0</ele><time>2026-05-01T11:43:59Z</time></trkpt><trkpt lat="44.30154615877291" lon="9.362908103633185"><ele>32.0</ele><time>2026-05-01T11:44:00Z</time></trkpt><trkpt lat="44.3015063977278" lon="9.363022585539566"><ele>32.0</ele><time>2026-05-01T11:44:01Z</time></trkpt><trkpt lat="44.30149291664259" lon="9.363158155017242"><ele>32.0</ele><time>2026-05-01T11:44:02Z</time></trkpt><trkpt lat="44.30145221800004" lon="9.363294996542932"><ele>32.0</ele><time>2026-05-01T11:44:03Z</time></trkpt><trkpt lat="44.30143023279669" lon="9.363422724789698"><ele>33.0</ele><time>2026-05-01T11:44:04Z</time></trkpt><trkpt lat="44.30144110530141" lon="9.3635324701046"><ele>34.0</ele><time>2026-05-01T11:44:05Z</time></trkpt><trkpt lat="44.3015069869729" lon="9.363609170823866"><ele>35.0</ele><time>2026-05-01T11:44:06Z</time></trkpt><trkpt lat="44.30158065044801" lon="9.363700865997481"><ele>36.0</ele><time>2026-05-01T11:44:07Z</time></trkpt><trkpt lat="44.30164790418351" lon="9.363820579595908"><ele>37.0</ele><time>2026-05-01T11:44:08Z</time></trkpt><trkpt lat="44.30172018707202" lon="9.363925339697133"><ele>37.833333333333336</ele><time>2026-05-01T11:44:09Z</time></trkpt><trkpt lat="44.30177767528783" lon="9.364014241635207"><ele>38.66666666666667</ele><time>2026-05-01T11:44:10Z</time></trkpt><trkpt lat="44.30180539212918" lon="9.364105430705722"><ele>39.5</ele><time>2026-05-01T11:44:11Z</time></trkpt><trkpt lat="44.301741154945" lon="9.36422773651851"><ele>40.333333333333336</ele><time>2026-05-01T11:44:13Z</time></trkpt><trkpt lat="44.30167154432511" lon="9.36424297057494"><ele>41.166666666666664</ele><time>2026-05-01T11:44:14Z</time></trkpt><trkpt lat="44.30157921908938" lon="9.364262310001887"><ele>42.0</ele><time>2026-05-01T11:44:15Z</time></trkpt><trkpt lat="44.301468362577886" lon="9.364250525227636"><ele>37.2</ele><time>2026-05-01T11:44:16Z</time></trkpt><trkpt lat="44.30138863074022" lon="9.364268616935231"><ele>32.400000000000006</ele><time>2026-05-01T11:44:17Z</time></trkpt><trkpt lat="44.301331026702684" lon="9.364318522980925"><ele>27.6</ele><time>2026-05-01T11:44:18Z</time></trkpt><trkpt lat="44.301291160914495" lon="9.364406483469438"><ele>22.8</ele><time>2026-05-01T11:44:19Z</time></trkpt><trkpt lat="44.30123536744811" lon="9.364532827316875"><ele>18.0</ele><time>2026-05-01T11:44:20Z</time></trkpt><trkpt lat="44.301158104218885" lon="9.364679248196886"><ele>22.75</ele><time>2026-05-01T11:44:21Z</time></trkpt><trkpt lat="44.30106631162251" lon="9.364805364253758"><ele>27.5</ele><time>2026-05-01T11:44:22Z</time></trkpt><trkpt lat="44.3009719851964" lon="9.364903475275433"><ele>32.25</ele><time>2026-05-01T11:44:23Z</time></trkpt><trkpt lat="44.30087224190974" lon="9.36495787723984"><ele>37.0</ele><time>2026-05-01T11:44:24Z</time></trkpt><trkpt lat="44.3007700519077" lon="9.364996223904694"><ele>37.0</ele><time>2026-05-01T11:44:25Z</time></trkpt><trkpt lat="44.300656209107714" lon="9.364973039078926"><ele>37.0</ele><time>2026-05-01T11:44:26Z</time></trkpt><trkpt lat="44.30055709906283" lon="9.364959847840998"><ele>37.0</ele><time>2026-05-01T11:44:27Z</time></trkpt><trkpt lat="44.30047824011866" lon="9.364990978493589"><ele>37.0</ele><time>2026-05-01T11:44:28.001Z</time></trkpt><trkpt lat="44.300413702640085" lon="9.365083160512501"><ele>37.0</ele><time>2026-05-01T11:44:29.001Z</time></trkpt><trkpt lat="44.30036530266442" lon="9.365220227243443"><ele>34.75</ele><time>2026-05-01T11:44:30.001Z</time></trkpt><trkpt lat="44.30031635928182" lon="9.365380023558755"><ele>32.5</ele><time>2026-05-01T11:44:31.001Z</time></trkpt><trkpt lat="44.30025782490342" lon="9.3655325241406"><ele>30.25</ele><time>2026-05-01T11:44:32.001Z</time></trkpt><trkpt lat="44.300235251643485" lon="9.365723938092078"><ele>28.0</ele><time>2026-05-01T11:44:33.001Z</time></trkpt><trkpt lat="44.30022800498175" lon="9.365898913044596"><ele>28.0</ele><time>2026-05-01T11:44:34.001Z</time></trkpt><trkpt lat="44.30022158300084" lon="9.366034811562868"><ele>27.999999999999996</ele><time>2026-05-01T11:44:35.001Z</time></trkpt><trkpt lat="44.30020496619044" lon="9.366132207565956"><ele>27.999999999999996</ele><time>2026-05-01T11:44:36.001Z</time></trkpt><trkpt lat="44.30013201808783" lon="9.366185310037096"><ele>28.0</ele><time>2026-05-01T11:44:37.001Z</time></trkpt><trkpt lat="44.30003001649806" lon="9.366162343608366"><ele>28.0</ele><time>2026-05-01T11:44:38.001Z</time></trkpt><trkpt lat="44.29990504585014" lon="9.36618808880028"><ele>28.0</ele><time>2026-05-01T11:44:39.001Z</time></trkpt><trkpt lat="44.299774811134206" lon="9.366226045244614"><ele>27.999999999999996</ele><time>2026-05-01T11:44:40.001Z</time></trkpt><trkpt lat="44.29966874099596" lon="9.366246554429576"><ele>27.999999999999996</ele><time>2026-05-01T11:44:41.001Z</time></trkpt><trkpt lat="44.299595529236946" lon="9.366274064637645"><ele>28.0</ele><time>2026-05-01T11:44:42.001Z</time></trkpt><trkpt lat="44.29954291719408" lon="9.366340629060744"><ele>28.0</ele><time>2026-05-01T11:44:43.001Z</time></trkpt><trkpt lat="44.29948904049959" lon="9.366463080904307"><ele>26.75</ele><time>2026-05-01T11:44:44.001Z</time></trkpt><trkpt lat="44.29942665888398" lon="9.36663341131263"><ele>25.5</ele><time>2026-05-01T11:44:45.001Z</time></trkpt><trkpt lat="44.29933460837692" lon="9.366790508593985"><ele>24.25</ele><time>2026-05-01T11:44:46.001Z</time></trkpt><trkpt lat="44.299247768110675" lon="9.366969109781918"><ele>23.0</ele><time>2026-05-01T11:44:47.001Z</time></trkpt><trkpt lat="44.29916560495349" lon="9.367140781514653"><ele>26.75</ele><time>2026-05-01T11:44:48.001Z</time></trkpt><trkpt lat="44.299097491151244" lon="9.367290318494518"><ele>30.5</ele><time>2026-05-01T11:44:49.001Z</time></trkpt><trkpt lat="44.29905027075333" lon="9.367449844351603"><ele>34.25</ele><time>2026-05-01T11:44:50.001Z</time></trkpt><trkpt lat="44.298998778245476" lon="9.367610939312074"><ele>38.0</ele><time>2026-05-01T11:44:51.001Z</time></trkpt><trkpt lat="44.29894427584714" lon="9.367770548089398"><ele>38.599999999999994</ele><time>2026-05-01T11:44:52.001Z</time></trkpt><trkpt lat="44.29890383437572" lon="9.367912984181118"><ele>39.199999999999996</ele><time>2026-05-01T11:44:53.001Z</time></trkpt><trkpt lat="44.29887018944158" lon="9.368023130613626"><ele>39.8</ele><time>2026-05-01T11:44:54.001Z</time></trkpt><trkpt lat="44.298775638751565" lon="9.368128913201458"><ele>40.4</ele><time>2026-05-01T11:44:56.001Z</time></trkpt><trkpt lat="44.298699465457744" lon="9.368101188102724"><ele>41.0</ele><time>2026-05-01T11:44:57.001Z</time></trkpt><trkpt lat="44.2986278984182" lon="9.368007379440728"><ele>37.0</ele><time>2026-05-01T11:44:58.001Z</time></trkpt><trkpt lat="44.2985287589876" lon="9.367927767423664"><ele>33.0</ele><time>2026-05-01T11:44:59.001Z</time></trkpt><trkpt lat="44.2984562436404" lon="9.367839532096127"><ele>29.0</ele><time>2026-05-01T11:45:00.001Z</time></trkpt><trkpt lat="44.29838074193973" lon="9.367812028847112"><ele>25.0</ele><time>2026-05-01T11:45:01.001Z</time></trkpt><trkpt lat="44.29829079349134" lon="9.367840572856055"><ele>21.0</ele><time>2026-05-01T11:45:02.001Z</time></trkpt><trkpt lat="44.29819070171227" lon="9.36789039749632"><ele>21.0</ele><time>2026-05-01T11:45:03.001Z</time></trkpt><trkpt lat="44.298089934418144" lon="9.367930521021169"><ele>21.0</ele><time>2026-05-01T11:45:04.002Z</time></trkpt><trkpt lat="44.29800543553254" lon="9.368033383244432"><ele>21.0</ele><time>2026-05-01T11:45:05.002Z</time></trkpt><trkpt lat="44.297915589325655" lon="9.368163586784577"><ele>21.0</ele><time>2026-05-01T11:45:06.002Z</time></trkpt><trkpt lat="44.29783310120091" lon="9.3683076313327"><ele>21.0</ele><time>2026-05-01T11:45:07.002Z</time></trkpt><trkpt lat="44.29776506034507" lon="9.368465691658756"><ele>21.0</ele><time>2026-05-01T11:45:08.002Z</time></trkpt><trkpt lat="44.29771730258313" lon="9.368653575877936"><ele>21.0</ele><time>2026-05-01T11:45:09.002Z</time></trkpt><trkpt lat="44.29766125351277" lon="9.36881279537912"><ele>21.0</ele><time>2026-05-01T11:45:10.002Z</time></trkpt><trkpt lat="44.29759478273465" lon="9.368944324272777"><ele>23.200000000000003</ele><time>2026-05-01T11:45:11.002Z</time></trkpt><trkpt lat="44.29753059063599" lon="9.369071497232955"><ele>25.400000000000002</ele><time>2026-05-01T11:45:12.002Z</time></trkpt><trkpt lat="44.297479311876586" lon="9.369185669321768"><ele>27.6</ele><time>2026-05-01T11:45:13.002Z</time></trkpt><trkpt lat="44.29745518181958" lon="9.369305860383045"><ele>29.8</ele><time>2026-05-01T11:45:14.002Z</time></trkpt><trkpt lat="44.2974859931314" lon="9.36942917496223"><ele>32.0</ele><time>2026-05-01T11:45:15.002Z</time></trkpt><trkpt lat="44.29751139811669" lon="9.369542341062218"><ele>32.0</ele><time>2026-05-01T11:45:16.002Z</time></trkpt><trkpt lat="44.29758726326095" lon="9.369662546188025"><ele>32.0</ele><time>2026-05-01T11:45:17.002Z</time></trkpt><trkpt lat="44.29762796957235" lon="9.36981675452343"><ele>32.0</ele><time>2026-05-01T11:45:18.002Z</time></trkpt><trkpt lat="44.29767985749805" lon="9.369970668499418"><ele>32.0</ele><time>2026-05-01T11:45:19.002Z</time></trkpt><trkpt lat="44.29769870265843" lon="9.370097944003161"><ele>32.0</ele><time>2026-05-01T11:45:20.002Z</time></trkpt><trkpt lat="44.29768575851985" lon="9.370199210631956"><ele>32.2</ele><time>2026-05-01T11:45:21.002Z</time></trkpt><trkpt lat="44.29763126321481" lon="9.370276365163281"><ele>32.400000000000006</ele><time>2026-05-01T11:45:22.002Z</time></trkpt><trkpt lat="44.29754808443453" lon="9.370354938092175"><ele>32.599999999999994</ele><time>2026-05-01T11:45:23.002Z</time></trkpt><trkpt lat="44.29743084228356" lon="9.37040754486226"><ele>32.8</ele><time>2026-05-01T11:45:24.002Z</time></trkpt><trkpt lat="44.29730969002208" lon="9.370451840223984"><ele>33.0</ele><time>2026-05-01T11:45:25.002Z</time></trkpt><trkpt lat="44.29720925026122" lon="9.370508750573078"><ele>31.799999999999997</ele><time>2026-05-01T11:45:26.002Z</time></trkpt><trkpt lat="44.297128474076764" lon="9.370550088127436"><ele>30.599999999999998</ele><time>2026-05-01T11:45:27.002Z</time></trkpt><trkpt lat="44.297071980242556" lon="9.370636286358597"><ele>29.400000000000002</ele><time>2026-05-01T11:45:28.002Z</time></trkpt><trkpt lat="44.2970490176706" lon="9.370766848701177"><ele>28.200000000000003</ele><time>2026-05-01T11:45:29.002Z</time></trkpt><trkpt lat="44.29704070263025" lon="9.370923123750451"><ele>27.0</ele><time>2026-05-01T11:45:30.002Z</time></trkpt><trkpt lat="44.29702772306432" lon="9.371075425017636"><ele>27.0</ele><time>2026-05-01T11:45:31.002Z</time></trkpt><trkpt lat="44.296995236428636" lon="9.371197619319732"><ele>27.000000000000004</ele><time>2026-05-01T11:45:32.002Z</time></trkpt><trkpt lat="44.29692715082962" lon="9.371279149747615"><ele>27.000000000000004</ele><time>2026-05-01T11:45:33.002Z</time></trkpt><trkpt lat="44.296842247094304" lon="9.37131881160859"><ele>27.0</ele><time>2026-05-01T11:45:34.002Z</time></trkpt><trkpt lat="44.29675242771647" lon="9.371320216469599"><ele>27.0</ele><time>2026-05-01T11:45:35.002Z</time></trkpt><trkpt lat="44.29665307039382" lon="9.37129164021464"><ele>27.0</ele><time>2026-05-01T11:45:36.002Z</time></trkpt><trkpt lat="44.296558338429485" lon="9.371246903518191"><ele>27.000000000000004</ele><time>2026-05-01T11:45:37.002Z</time></trkpt><trkpt lat="44.29647138997814" lon="9.371220628017875"><ele>27.000000000000004</ele><time>2026-05-01T11:45:38.002Z</time></trkpt><trkpt lat="44.29638698877847" lon="9.371212158138894"><ele>27.0</ele><time>2026-05-01T11:45:39.002Z</time></trkpt><trkpt lat="44.296296892775345" lon="9.371227820981433"><ele>27.0</ele><time>2026-05-01T11:45:40.002Z</time></trkpt><trkpt lat="44.29620557117557" lon="9.37129339709559"><ele>29.0</ele><time>2026-05-01T11:45:41.002Z</time></trkpt><trkpt lat="44.296114557743834" lon="9.371396619980942"><ele>31.0</ele><time>2026-05-01T11:45:42.003Z</time></trkpt><trkpt lat="44.29601585836858" lon="9.371498994949436"><ele>33.0</ele><time>2026-05-01T11:45:43.003Z</time></trkpt><trkpt lat="44.295922543810114" lon="9.371613996780345"><ele>35.0</ele><time>2026-05-01T11:45:44.003Z</time></trkpt><trkpt lat="44.29584914869948" lon="9.371763966680367"><ele>35.0</ele><time>2026-05-01T11:45:44.999Z</time></trkpt><trkpt lat="44.29578334913461" lon="9.371945014934637"><ele>35.0</ele><time>2026-05-01T11:45:45.999Z</time></trkpt><trkpt lat="44.29569048884543" lon="9.372142378659738"><ele>35.0</ele><time>2026-05-01T11:45:46.999Z</time></trkpt><trkpt lat="44.29560206040383" lon="9.372354449939118"><ele>32.666666666666664</ele><time>2026-05-01T11:45:47.999Z</time></trkpt><trkpt lat="44.29552977723385" lon="9.372573694448855"><ele>30.333333333333336</ele><time>2026-05-01T11:45:48.999Z</time></trkpt><trkpt lat="44.295452263676815" lon="9.372771420231897"><ele>28.0</ele><time>2026-05-01T11:45:49.999Z</time></trkpt><trkpt lat="44.29540724440073" lon="9.372984190175764"><ele>31.666666666666668</ele><time>2026-05-01T11:45:50.999Z</time></trkpt><trkpt lat="44.29540328523332" lon="9.37321598130791"><ele>35.333333333333336</ele><time>2026-05-01T11:45:51.999Z</time></trkpt><trkpt lat="44.29537551847608" lon="9.3734502326482"><ele>39.0</ele><time>2026-05-01T11:45:52.999Z</time></trkpt><trkpt lat="44.295323656206136" lon="9.373657364972097"><ele>39.0</ele><time>2026-05-01T11:45:53.999Z</time></trkpt><trkpt lat="44.295285436362896" lon="9.37383592486564"><ele>39.0</ele><time>2026-05-01T11:45:54.999Z</time></trkpt><trkpt lat="44.29525973129262" lon="9.373981627134418"><ele>39.0</ele><time>2026-05-01T11:45:55.999Z</time></trkpt><trkpt lat="44.29526099365091" lon="9.374088968590035"><ele>39.0</ele><time>2026-05-01T11:45:56.999Z</time></trkpt><trkpt lat="44.29527281003046" lon="9.374183903064804"><ele>39.0</ele><time>2026-05-01T11:45:57.999Z</time></trkpt><trkpt lat="44.2953274459246" lon="9.374283864149943"><ele>40.0</ele><time>2026-05-01T11:45:58.999Z</time></trkpt><trkpt lat="44.29539602003444" lon="9.374366530845666"><ele>41.0</ele><time>2026-05-01T11:45:59.999Z</time></trkpt><trkpt lat="44.29546764830357" lon="9.374454517929882"><ele>42.0</ele><time>2026-05-01T11:46:01Z</time></trkpt><trkpt lat="44.295559550164505" lon="9.374525550828174"><ele>43.0</ele><time>2026-05-01T11:46:02Z</time></trkpt><trkpt lat="44.29566353003868" lon="9.374589054710086"><ele>44.0</ele><time>2026-05-01T11:46:03Z</time></trkpt><trkpt lat="44.295736071598206" lon="9.374698387901203"><ele>49.400000000000006</ele><time>2026-05-01T11:46:04Z</time></trkpt><trkpt lat="44.295804430951755" lon="9.374786144889255"><ele>54.8</ele><time>2026-05-01T11:46:05Z</time></trkpt><trkpt lat="44.29586069135081" lon="9.374859866034912"><ele>60.199999999999996</ele><time>2026-05-01T11:46:06Z</time></trkpt><trkpt lat="44.295898164278064" lon="9.374981462884412"><ele>65.6</ele><time>2026-05-01T11:46:08Z</time></trkpt><trkpt lat="44.2957630277562" lon="9.375115191742184"><ele>71.0</ele><time>2026-05-01T11:47:02.002Z</time></trkpt><trkpt lat="44.29569076210036" lon="9.375153708667176"><ele>71.0</ele><time>2026-05-01T11:47:03.002Z</time></trkpt><trkpt lat="44.29562276715758" lon="9.375188984137406"><ele>71.0</ele><time>2026-05-01T11:47:04.002Z</time></trkpt><trkpt lat="44.295545398820956" lon="9.375238605606029"><ele>71.0</ele><time>2026-05-01T11:47:05.002Z</time></trkpt><trkpt lat="44.295473089985805" lon="9.375285467857234"><ele>71.0</ele><time>2026-05-01T11:47:06.002Z</time></trkpt><trkpt lat="44.295427909706774" lon="9.375385765043145"><ele>71.0</ele><time>2026-05-01T11:47:07.002Z</time></trkpt><trkpt lat="44.29541712054455" lon="9.375523265735058"><ele>71.0</ele><time>2026-05-01T11:47:08.002Z</time></trkpt><trkpt lat="44.29546392341722" lon="9.375639982775565"><ele>72.0</ele><time>2026-05-01T11:47:09.002Z</time></trkpt><trkpt lat="44.29554096133282" lon="9.375743645378368"><ele>73.0</ele><time>2026-05-01T11:47:10.002Z</time></trkpt><trkpt lat="44.29561099828504" lon="9.375841884196559"><ele>74.0</ele><time>2026-05-01T11:47:11.002Z</time></trkpt><trkpt lat="44.29568107723821" lon="9.37590059347954"><ele>75.0</ele><time>2026-05-01T11:47:12.002Z</time></trkpt><trkpt lat="44.295687240820286" lon="9.375994152023775"><ele>76.0</ele><time>2026-05-01T11:47:13.002Z</time></trkpt><trkpt lat="44.29564728633064" lon="9.376074565163435"><ele>77.0</ele><time>2026-05-01T11:47:14.002Z</time></trkpt><trkpt lat="44.29556768834494" lon="9.37611134012988"><ele>72.8</ele><time>2026-05-01T11:47:15.002Z</time></trkpt><trkpt lat="44.29545648323279" lon="9.376120179667927"><ele>68.6</ele><time>2026-05-01T11:47:16.002Z</time></trkpt><trkpt lat="44.29531766855761" lon="9.376114083310073"><ele>64.39999999999999</ele><time>2026-05-01T11:47:17.002Z</time></trkpt><trkpt lat="44.29521248591756" lon="9.376118949009788"><ele>60.199999999999996</ele><time>2026-05-01T11:47:18.002Z</time></trkpt><trkpt lat="44.295142657766746" lon="9.376159876678297"><ele>56.0</ele><time>2026-05-01T11:47:19.002Z</time></trkpt><trkpt lat="44.29507807185379" lon="9.37624764766435"><ele>60.0</ele><time>2026-05-01T11:47:20.002Z</time></trkpt><trkpt lat="44.295008964687426" lon="9.376361904468393"><ele>64.0</ele><time>2026-05-01T11:47:21.002Z</time></trkpt><trkpt lat="44.29498131463026" lon="9.37654393082024"><ele>68.0</ele><time>2026-05-01T11:47:22.002Z</time></trkpt><trkpt lat="44.29491329861143" lon="9.376684221595037"><ele>72.0</ele><time>2026-05-01T11:47:23.002Z</time></trkpt><trkpt lat="44.29487836704474" lon="9.376798178648853"><ele>72.0</ele><time>2026-05-01T11:47:24.002Z</time></trkpt><trkpt lat="44.29478582632938" lon="9.3768067871331"><ele>72.0</ele><time>2026-05-01T11:47:25.002Z</time></trkpt><trkpt lat="44.29468639101525" lon="9.376784418900405"><ele>72.0</ele><time>2026-05-01T11:47:26.002Z</time></trkpt><trkpt lat="44.29453411978653" lon="9.376774944086256"><ele>72.0</ele><time>2026-05-01T11:47:27.002Z</time></trkpt><trkpt lat="44.294372672880904" lon="9.376775956581488"><ele>69.75</ele><time>2026-05-01T11:47:28.002Z</time></trkpt><trkpt lat="44.29421669880328" lon="9.376753196108027"><ele>67.5</ele><time>2026-05-01T11:47:29.002Z</time></trkpt><trkpt lat="44.29408290071104" lon="9.376744032598609"><ele>65.25</ele><time>2026-05-01T11:47:30.002Z</time></trkpt><trkpt lat="44.293966096116165" lon="9.376741540418058"><ele>63.0</ele><time>2026-05-01T11:47:31.002Z</time></trkpt><trkpt lat="44.2938772290053" lon="9.376765578276999"><ele>59.8</ele><time>2026-05-01T11:47:32.002Z</time></trkpt><trkpt lat="44.29380438172959" lon="9.376835104120858"><ele>56.599999999999994</ele><time>2026-05-01T11:47:33.002Z</time></trkpt><trkpt lat="44.2937402881508" lon="9.376948071002648"><ele>53.400000000000006</ele><time>2026-05-01T11:47:34.002Z</time></trkpt><trkpt lat="44.293655592269886" lon="9.377035420949712"><ele>50.2</ele><time>2026-05-01T11:47:35.002Z</time></trkpt><trkpt lat="44.29357449460758" lon="9.377090933148422"><ele>47.0</ele><time>2026-05-01T11:47:36.002Z</time></trkpt><trkpt lat="44.293471498102576" lon="9.377069684246878"><ele>47.0</ele><time>2026-05-01T11:47:37.003Z</time></trkpt><trkpt lat="44.293368386008645" lon="9.377071474614871"><ele>47.0</ele><time>2026-05-01T11:47:38.003Z</time></trkpt><trkpt lat="44.29329172370588" lon="9.377111833909227"><ele>47.0</ele><time>2026-05-01T11:47:39.003Z</time></trkpt><trkpt lat="44.29322361147687" lon="9.377147736791642"><ele>47.0</ele><time>2026-05-01T11:47:40.003Z</time></trkpt><trkpt lat="44.29320374514247" lon="9.377296713256724"><ele>47.0</ele><time>2026-05-01T11:47:41.003Z</time></trkpt><trkpt lat="44.293144297109095" lon="9.37738976029568"><ele>49.0</ele><time>2026-05-01T11:47:42.003Z</time></trkpt><trkpt lat="44.29307948454494" lon="9.377438743670645"><ele>51.0</ele><time>2026-05-01T11:47:43.003Z</time></trkpt><trkpt lat="44.29300725412537" lon="9.377412118867378"><ele>53.0</ele><time>2026-05-01T11:47:44.003Z</time></trkpt><trkpt lat="44.29291206452086" lon="9.377354710502084"><ele>55.0</ele><time>2026-05-01T11:47:45.003Z</time></trkpt><trkpt lat="44.29279565686433" lon="9.37725022351389"><ele>57.0</ele><time>2026-05-01T11:47:46.003Z</time></trkpt><trkpt lat="44.29268978650517" lon="9.377179234867162"><ele>57.0</ele><time>2026-05-01T11:47:47.003Z</time></trkpt><trkpt lat="44.292617384266485" lon="9.377160420597043"><ele>57.0</ele><time>2026-05-01T11:47:48.003Z</time></trkpt><trkpt lat="44.29251202503219" lon="9.377273039737837"><ele>57.0</ele><time>2026-05-01T11:47:50.003Z</time></trkpt><trkpt lat="44.2924484383674" lon="9.377385188610093"><ele>57.0</ele><time>2026-05-01T11:47:50.999Z</time></trkpt><trkpt lat="44.29234842518063" lon="9.37748771814538"><ele>57.0</ele><time>2026-05-01T11:47:51.999Z</time></trkpt><trkpt lat="44.29223667214869" lon="9.377567409279163"><ele>48.666666666666664</ele><time>2026-05-01T11:47:52.999Z</time></trkpt><trkpt lat="44.29209861865584" lon="9.377645471813805"><ele>40.33333333333333</ele><time>2026-05-01T11:47:53.999Z</time></trkpt><trkpt lat="44.291970553830716" lon="9.37776549225309"><ele>32.0</ele><time>2026-05-01T11:47:54.999Z</time></trkpt><trkpt lat="44.291844835609034" lon="9.377907455582596"><ele>36.25</ele><time>2026-05-01T11:47:55.999Z</time></trkpt><trkpt lat="44.2917177940701" lon="9.378048389094348"><ele>40.5</ele><time>2026-05-01T11:47:56.999Z</time></trkpt><trkpt lat="44.291614049458104" lon="9.37817641182387"><ele>44.75</ele><time>2026-05-01T11:47:57.999Z</time></trkpt><trkpt lat="44.291525099757926" lon="9.378286206438474"><ele>49.0</ele><time>2026-05-01T11:47:58.999Z</time></trkpt><trkpt lat="44.29145571772306" lon="9.378438374265555"><ele>42.0</ele><time>2026-05-01T11:47:59.999Z</time></trkpt><trkpt lat="44.29140055494581" lon="9.378603694802667"><ele>35.0</ele><time>2026-05-01T11:48:00.999Z</time></trkpt><trkpt lat="44.29132010391667" lon="9.378742907607434"><ele>28.0</ele><time>2026-05-01T11:48:01.999Z</time></trkpt><trkpt lat="44.29123902419248" lon="9.378858201481535"><ele>21.0</ele><time>2026-05-01T11:48:02.999Z</time></trkpt><trkpt lat="44.2911773993281" lon="9.378963661330266"><ele>21.0</ele><time>2026-05-01T11:48:03.999Z</time></trkpt><trkpt lat="44.291134587365406" lon="9.379058902759494"><ele>21.0</ele><time>2026-05-01T11:48:04.999Z</time></trkpt><trkpt lat="44.29114712131058" lon="9.37920741540767"><ele>21.0</ele><time>2026-05-01T11:48:05.999Z</time></trkpt><trkpt lat="44.29117448356114" lon="9.379367830194468"><ele>21.0</ele><time>2026-05-01T11:48:06.999Z</time></trkpt><trkpt lat="44.29123554972992" lon="9.379528091613023"><ele>21.0</ele><time>2026-05-01T11:48:07.999Z</time></trkpt><trkpt lat="44.2912932352197" lon="9.379669708820375"><ele>20.0</ele><time>2026-05-01T11:48:09Z</time></trkpt><trkpt lat="44.29135425643147" lon="9.379755975050083"><ele>19.0</ele><time>2026-05-01T11:48:10Z</time></trkpt><trkpt lat="44.29142186626319" lon="9.379810328497815"><ele>18.0</ele><time>2026-05-01T11:48:11Z</time></trkpt><trkpt lat="44.291476350848015" lon="9.37989200373038"><ele>17.0</ele><time>2026-05-01T11:48:12Z</time></trkpt><trkpt lat="44.291486620556356" lon="9.380020973083445"><ele>16.0</ele><time>2026-05-01T11:48:14Z</time></trkpt><trkpt lat="44.291391165403155" lon="9.380163963458894"><ele>16.0</ele><time>2026-05-01T11:48:16Z</time></trkpt><trkpt lat="44.29131656288689" lon="9.380268411514939"><ele>16.0</ele><time>2026-05-01T11:48:17Z</time></trkpt><trkpt lat="44.29122199250326" lon="9.380357401738012"><ele>16.0</ele><time>2026-05-01T11:48:18Z</time></trkpt><trkpt lat="44.29112729527007" lon="9.380417062251828"><ele>16.0</ele><time>2026-05-01T11:48:19Z</time></trkpt><trkpt lat="44.291054127257006" lon="9.380465334973417"><ele>16.0</ele><time>2026-05-01T11:48:20Z</time></trkpt><trkpt lat="44.291000719351025" lon="9.380524541319856"><ele>15.833333333333332</ele><time>2026-05-01T11:48:21Z</time></trkpt><trkpt lat="44.290971084553604" lon="9.380631177908517"><ele>15.666666666666666</ele><time>2026-05-01T11:48:22Z</time></trkpt><trkpt lat="44.290968639729634" lon="9.380750541934274"><ele>15.5</ele><time>2026-05-01T11:48:23Z</time></trkpt><trkpt lat="44.29100924325277" lon="9.380855901777206"><ele>15.333333333333332</ele><time>2026-05-01T11:48:24Z</time></trkpt><trkpt lat="44.2910932566143" lon="9.380905109316767"><ele>15.166666666666666</ele><time>2026-05-01T11:48:25Z</time></trkpt><trkpt lat="44.291149402562816" lon="9.380991683502192"><ele>15.0</ele><time>2026-05-01T11:48:26Z</time></trkpt><trkpt lat="44.291223480161406" lon="9.3810840944084"><ele>15.0</ele><time>2026-05-01T11:48:27Z</time></trkpt><trkpt lat="44.29130623427258" lon="9.38119201969378"><ele>15.0</ele><time>2026-05-01T11:48:28Z</time></trkpt><trkpt lat="44.29137899202653" lon="9.381287682454406"><ele>15.0</ele><time>2026-05-01T11:48:29Z</time></trkpt><trkpt lat="44.29145741621337" lon="9.381347140754855"><ele>15.0</ele><time>2026-05-01T11:48:30Z</time></trkpt><trkpt lat="44.29152893430132" lon="9.38138297532926"><ele>15.0</ele><time>2026-05-01T11:48:31Z</time></trkpt><trkpt lat="44.291618594966245" lon="9.381377021809348"><ele>15.4</ele><time>2026-05-01T11:48:32Z</time></trkpt><trkpt lat="44.29172520779317" lon="9.381337595464984"><ele>15.8</ele><time>2026-05-01T11:48:33Z</time></trkpt><trkpt lat="44.2918368424375" lon="9.38132842502013"><ele>16.2</ele><time>2026-05-01T11:48:34Z</time></trkpt><trkpt lat="44.291939098350525" lon="9.381341872061206"><ele>16.6</ele><time>2026-05-01T11:48:35.001Z</time></trkpt><trkpt lat="44.29202032439505" lon="9.381396215055263"><ele>17.0</ele><time>2026-05-01T11:48:36.001Z</time></trkpt><trkpt lat="44.29211408941085" lon="9.381467879865593"><ele>17.0</ele><time>2026-05-01T11:48:37.001Z</time></trkpt><trkpt lat="44.29221345133741" lon="9.38153002164075"><ele>17.0</ele><time>2026-05-01T11:48:38.001Z</time></trkpt><trkpt lat="44.29228813266089" lon="9.381608657649416"><ele>17.0</ele><time>2026-05-01T11:48:39.001Z</time></trkpt><trkpt lat="44.29234749253358" lon="9.381678719956058"><ele>17.0</ele><time>2026-05-01T11:48:40.001Z</time></trkpt><trkpt lat="44.29238004152439" lon="9.38176446264949"><ele>17.0</ele><time>2026-05-01T11:48:41.001Z</time></trkpt><trkpt lat="44.29239366990796" lon="9.381873178979653"><ele>17.0</ele><time>2026-05-01T11:48:42.001Z</time></trkpt><trkpt lat="44.292407643545346" lon="9.381979814668266"><ele>17.0</ele><time>2026-05-01T11:48:43.001Z</time></trkpt><trkpt lat="44.29240745107538" lon="9.382130269138525"><ele>17.0</ele><time>2026-05-01T11:48:45.001Z</time></trkpt><trkpt lat="44.292377165815196" lon="9.382225996201687"><ele>17.0</ele><time>2026-05-01T11:48:48.001Z</time></trkpt><trkpt lat="44.29231161666354" lon="9.382226595436068"><ele>17.0</ele><time>2026-05-01T11:48:49.001Z</time></trkpt><trkpt lat="44.29221608633763" lon="9.382241494163688"><ele>17.0</ele><time>2026-05-01T11:48:50.001Z</time></trkpt><trkpt lat="44.29212902771679" lon="9.382190678096563"><ele>17.0</ele><time>2026-05-01T11:48:51.001Z</time></trkpt><trkpt lat="44.29205815224288" lon="9.3820723343312"><ele>17.0</ele><time>2026-05-01T11:48:52.001Z</time></trkpt><trkpt lat="44.291961205395445" lon="9.381977695301272"><ele>17.0</ele><time>2026-05-01T11:48:53.001Z</time></trkpt><trkpt lat="44.29186997609193" lon="9.381854620522963"><ele>17.0</ele><time>2026-05-01T11:48:54.001Z</time></trkpt><trkpt lat="44.291792180320456" lon="9.38175936724712"><ele>17.0</ele><time>2026-05-01T11:48:55.001Z</time></trkpt><trkpt lat="44.29171157213935" lon="9.381718854972247"><ele>17.0</ele><time>2026-05-01T11:48:56.001Z</time></trkpt><trkpt lat="44.29162444860634" lon="9.381729961085586"><ele>17.0</ele><time>2026-05-01T11:48:57.001Z</time></trkpt><trkpt lat="44.29152221411949" lon="9.38176243975785"><ele>17.0</ele><time>2026-05-01T11:48:58.001Z</time></trkpt><trkpt lat="44.29142857074326" lon="9.381817916315436"><ele>17.0</ele><time>2026-05-01T11:48:59.001Z</time></trkpt><trkpt lat="44.29136355246319" lon="9.38186338200335"><ele>17.0</ele><time>2026-05-01T11:49:00.001Z</time></trkpt><trkpt lat="44.29128453511021" lon="9.381909448423858"><ele>17.0</ele><time>2026-05-01T11:49:02.001Z</time></trkpt><trkpt lat="44.291216160446155" lon="9.381936696664452"><ele>17.0</ele><time>2026-05-01T11:49:04.001Z</time></trkpt><trkpt lat="44.29108287878426" lon="9.381985395398516"><ele>16.833333333333336</ele><time>2026-05-01T11:49:06.001Z</time></trkpt><trkpt lat="44.291006874951954" lon="9.381944186393861"><ele>16.666666666666668</ele><time>2026-05-01T11:49:07.002Z</time></trkpt><trkpt lat="44.29094024087485" lon="9.38194049450777"><ele>16.5</ele><time>2026-05-01T11:49:08.002Z</time></trkpt><trkpt lat="44.290862500142595" lon="9.381918934838728"><ele>16.333333333333332</ele><time>2026-05-01T11:49:10.002Z</time></trkpt><trkpt lat="44.290793077502784" lon="9.381872356130119"><ele>16.166666666666664</ele><time>2026-05-01T11:49:12.002Z</time></trkpt><trkpt lat="44.290724219609" lon="9.381772642224735"><ele>16.0</ele><time>2026-05-01T11:49:14.002Z</time></trkpt><trkpt lat="44.29076832141568" lon="9.381836066720343"><ele>16.0</ele><time>2026-05-01T11:49:38.002Z</time></trkpt><trkpt lat="44.290849753130054" lon="9.3819175278242"><ele>16.0</ele><time>2026-05-01T11:49:41.003Z</time></trkpt><trkpt lat="44.29103437258598" lon="9.38194570985572"><ele>16.0</ele><time>2026-05-01T11:49:43.003Z</time></trkpt><trkpt lat="44.29112707795875" lon="9.381970052957653"><ele>16.0</ele><time>2026-05-01T11:49:44.003Z</time></trkpt><trkpt lat="44.29118828747124" lon="9.381946880999307"><ele>16.0</ele><time>2026-05-01T11:49:45.003Z</time></trkpt><trkpt lat="44.29126772799054" lon="9.381921681992607"><ele>16.0</ele><time>2026-05-01T11:49:47.003Z</time></trkpt><trkpt lat="44.291339344845916" lon="9.381901646504515"><ele>16.0</ele><time>2026-05-01T11:49:49.003Z</time></trkpt><trkpt lat="44.291213728850394" lon="9.38191745885684"><ele>16.0</ele><time>2026-05-01T11:49:54.003Z</time></trkpt><trkpt lat="44.29111553437576" lon="9.381936902759971"><ele>16.0</ele><time>2026-05-01T11:49:56.003Z</time></trkpt><trkpt lat="44.29102562251438" lon="9.381915289846004"><ele>16.0</ele><time>2026-05-01T11:49:58Z</time></trkpt><trkpt lat="44.290913499140224" lon="9.38191759478251"><ele>15.999999999999998</ele><time>2026-05-01T11:50:00Z</time></trkpt><trkpt lat="44.290841418570515" lon="9.381885937434152"><ele>16.0</ele><time>2026-05-01T11:50:01Z</time></trkpt><trkpt lat="44.29078857933909" lon="9.381830824094255"><ele>16.0</ele><time>2026-05-01T11:50:02Z</time></trkpt><trkpt lat="44.29074574303209" lon="9.38176035443491"><ele>16.0</ele><time>2026-05-01T11:50:03Z</time></trkpt><trkpt lat="44.29069729649474" lon="9.381667639314001"><ele>15.999999999999998</ele><time>2026-05-01T11:50:04Z</time></trkpt><trkpt lat="44.290631638494936" lon="9.381571118152769"><ele>16.0</ele><time>2026-05-01T11:50:05Z</time></trkpt><trkpt lat="44.290571056711094" lon="9.381452622989015"><ele>15.4</ele><time>2026-05-01T11:50:06Z</time></trkpt><trkpt lat="44.29050434054269" lon="9.381331701700782"><ele>14.8</ele><time>2026-05-01T11:50:07Z</time></trkpt><trkpt lat="44.290440894911356" lon="9.381213271342265"><ele>14.200000000000001</ele><time>2026-05-01T11:50:08Z</time></trkpt><trkpt lat="44.29038313469256" lon="9.381105448900644"><ele>13.600000000000001</ele><time>2026-05-01T11:50:09Z</time></trkpt><trkpt lat="44.29033203519983" lon="9.38100319495874"><ele>13.0</ele><time>2026-05-01T11:50:10Z</time></trkpt><trkpt lat="44.290274521331405" lon="9.380897765206882"><ele>13.0</ele><time>2026-05-01T11:50:11Z</time></trkpt><trkpt lat="44.290216725973174" lon="9.380783178066915"><ele>13.0</ele><time>2026-05-01T11:50:12Z</time></trkpt><trkpt lat="44.29016547646735" lon="9.380661533457582"><ele>13.0</ele><time>2026-05-01T11:50:13Z</time></trkpt><trkpt lat="44.2900984965518" lon="9.38056380514552"><ele>13.0</ele><time>2026-05-01T11:50:14Z</time></trkpt><trkpt lat="44.29004930913439" lon="9.380446567572521"><ele>13.0</ele><time>2026-05-01T11:50:15Z</time></trkpt><trkpt lat="44.29000036638293" lon="9.380354487746041"><ele>12.0</ele><time>2026-05-01T11:50:16Z</time></trkpt><trkpt lat="44.28993676807336" lon="9.380264184983448"><ele>11.0</ele><time>2026-05-01T11:50:17Z</time></trkpt><trkpt lat="44.289889335648716" lon="9.380156646812397"><ele>10.0</ele><time>2026-05-01T11:50:18Z</time></trkpt><trkpt lat="44.2898365766683" lon="9.38007101272582"><ele>9.0</ele><time>2026-05-01T11:50:19Z</time></trkpt><trkpt lat="44.28975741902612" lon="9.379974924661436"><ele>8.0</ele><time>2026-05-01T11:50:21Z</time></trkpt><trkpt lat="44.289835041315236" lon="9.379798743191795"><ele>7.800000000000001</ele><time>2026-05-01T11:50:25Z</time></trkpt><trkpt lat="44.28989203620229" lon="9.379706462608214"><ele>7.6000000000000005</ele><time>2026-05-01T11:50:26Z</time></trkpt><trkpt lat="44.28995193142576" lon="9.379586010211325"><ele>7.3999999999999995</ele><time>2026-05-01T11:50:27Z</time></trkpt><trkpt lat="44.29001226273902" lon="9.379440701581416"><ele>7.199999999999999</ele><time>2026-05-01T11:50:28.001Z</time></trkpt><trkpt lat="44.29007011890087" lon="9.379336848310937"><ele>7.0</ele><time>2026-05-01T11:50:29.001Z</time></trkpt><trkpt lat="44.290108279528695" lon="9.379263441597423"><ele>7.0</ele><time>2026-05-01T11:50:30.001Z</time></trkpt><trkpt lat="44.29014131773121" lon="9.379150359232955"><ele>6.999999999999999</ele><time>2026-05-01T11:50:32.001Z</time></trkpt><trkpt lat="44.29017396087769" lon="9.379054039274656"><ele>6.999999999999999</ele><time>2026-05-01T11:50:33.001Z</time></trkpt><trkpt lat="44.29022064277438" lon="9.37892546134914"><ele>7.0</ele><time>2026-05-01T11:50:34.001Z</time></trkpt><trkpt lat="44.29027274493851" lon="9.378807715664355"><ele>7.0</ele><time>2026-05-01T11:50:35.001Z</time></trkpt><trkpt lat="44.290329330644205" lon="9.378683292431093"><ele>6.25</ele><time>2026-05-01T11:50:36.001Z</time></trkpt><trkpt lat="44.290383961138794" lon="9.378564408566199"><ele>5.5</ele><time>2026-05-01T11:50:37.001Z</time></trkpt><trkpt lat="44.29044693186612" lon="9.37842612375183"><ele>4.75</ele><time>2026-05-01T11:50:38.001Z</time></trkpt><trkpt lat="44.290511776327556" lon="9.378277557027447"><ele>4.0</ele><time>2026-05-01T11:50:39.001Z</time></trkpt><trkpt lat="44.290574996421725" lon="9.378133133921123"><ele>5.2</ele><time>2026-05-01T11:50:40.001Z</time></trkpt><trkpt lat="44.2906385446049" lon="9.378002400107412"><ele>6.4</ele><time>2026-05-01T11:50:41.001Z</time></trkpt><trkpt lat="44.2906860861038" lon="9.377887309526939"><ele>7.6</ele><time>2026-05-01T11:50:42.001Z</time></trkpt><trkpt lat="44.29071361841224" lon="9.37780123739529"><ele>8.8</ele><time>2026-05-01T11:50:43.001Z</time></trkpt><trkpt lat="44.29071459877604" lon="9.377692159733892"><ele>10.0</ele><time>2026-05-01T11:50:46.001Z</time></trkpt><trkpt lat="44.29060247183063" lon="9.37770547986136"><ele>8.5</ele><time>2026-05-01T11:50:50.001Z</time></trkpt><trkpt lat="44.290519587807275" lon="9.37785513368857"><ele>7.0</ele><time>2026-05-01T11:50:51.001Z</time></trkpt><trkpt lat="44.29042753448494" lon="9.378005453672758"><ele>5.5</ele><time>2026-05-01T11:50:52.001Z</time></trkpt><trkpt lat="44.290321775990016" lon="9.378155378520688"><ele>4.0</ele><time>2026-05-01T11:50:53.001Z</time></trkpt><trkpt lat="44.29021149342017" lon="9.378321410237614"><ele>4.0</ele><time>2026-05-01T11:50:54.001Z</time></trkpt><trkpt lat="44.29009878389791" lon="9.378483580567272"><ele>4.0</ele><time>2026-05-01T11:50:55.001Z</time></trkpt><trkpt lat="44.28996971326047" lon="9.378669062719084"><ele>4.0</ele><time>2026-05-01T11:50:56.001Z</time></trkpt><trkpt lat="44.289838889469316" lon="9.378842978135228"><ele>3.333333333333333</ele><time>2026-05-01T11:50:57.001Z</time></trkpt><trkpt lat="44.2897228950078" lon="9.37901436750038"><ele>2.6666666666666665</ele><time>2026-05-01T11:50:58.001Z</time></trkpt><trkpt lat="44.28961378875567" lon="9.379170216459455"><ele>2.0</ele><time>2026-05-01T11:50:59.002Z</time></trkpt><trkpt lat="44.289510456319164" lon="9.37932428505914"><ele>2.0</ele><time>2026-05-01T11:51:00.002Z</time></trkpt><trkpt lat="44.28941310338568" lon="9.3794697462562"><ele>2.0</ele><time>2026-05-01T11:51:01.002Z</time></trkpt><trkpt lat="44.28931133503721" lon="9.379615363498122"><ele>2.0</ele><time>2026-05-01T11:51:02.002Z</time></trkpt><trkpt lat="44.28919585154061" lon="9.37977116407442"><ele>2.0</ele><time>2026-05-01T11:51:03.002Z</time></trkpt><trkpt lat="44.289062067951996" lon="9.379954228593526"><ele>3.0</ele><time>2026-05-01T11:51:04.002Z</time></trkpt><trkpt lat="44.28892158664843" lon="9.380165924551816"><ele>4.0</ele><time>2026-05-01T11:51:05.002Z</time></trkpt><trkpt lat="44.28877521820653" lon="9.380387791315401"><ele>5.0</ele><time>2026-05-01T11:51:06.002Z</time></trkpt><trkpt lat="44.288633224995" lon="9.380601475684879"><ele>9.0</ele><time>2026-05-01T11:51:07.002Z</time></trkpt><trkpt lat="44.28850258665378" lon="9.380792649980014"><ele>13.0</ele><time>2026-05-01T11:51:08.002Z</time></trkpt><trkpt lat="44.28838217721511" lon="9.380955210152363"><ele>17.0</ele><time>2026-05-01T11:51:09.002Z</time></trkpt><trkpt lat="44.288266999967924" lon="9.38109721581017"><ele>17.0</ele><time>2026-05-01T11:51:10.002Z</time></trkpt><trkpt lat="44.2881294487302" lon="9.381194467433488"><ele>17.0</ele><time>2026-05-01T11:51:11.002Z</time></trkpt><trkpt lat="44.28798009737685" lon="9.381290861228363"><ele>17.0</ele><time>2026-05-01T11:51:12.002Z</time></trkpt><trkpt lat="44.287819353267665" lon="9.381385498611493"><ele>18.666666666666668</ele><time>2026-05-01T11:51:13.002Z</time></trkpt><trkpt lat="44.287624882694196" lon="9.381407570278832"><ele>20.333333333333332</ele><time>2026-05-01T11:51:14.002Z</time></trkpt><trkpt lat="44.28743118291048" lon="9.381428843096494"><ele>22.0</ele><time>2026-05-01T11:51:15.002Z</time></trkpt><trkpt lat="44.28724016702972" lon="9.381457302795347"><ele>18.666666666666664</ele><time>2026-05-01T11:51:16.002Z</time></trkpt><trkpt lat="44.28704852894561" lon="9.381470749218787"><ele>15.333333333333332</ele><time>2026-05-01T11:51:17.002Z</time></trkpt><trkpt lat="44.28686010237222" lon="9.381509790225401"><ele>12.0</ele><time>2026-05-01T11:51:18.002Z</time></trkpt><trkpt lat="44.286675513490096" lon="9.38157862413909"><ele>12.0</ele><time>2026-05-01T11:51:19.002Z</time></trkpt><trkpt lat="44.286503389694694" lon="9.3816653692178"><ele>12.0</ele><time>2026-05-01T11:51:20.002Z</time></trkpt><trkpt lat="44.28635053017279" lon="9.381756319744065"><ele>12.0</ele><time>2026-05-01T11:51:21.002Z</time></trkpt><trkpt lat="44.28620801528799" lon="9.381841776093706"><ele>13.0</ele><time>2026-05-01T11:51:22.002Z</time></trkpt><trkpt lat="44.286071439783576" lon="9.381915864967748"><ele>14.0</ele><time>2026-05-01T11:51:23.002Z</time></trkpt><trkpt lat="44.285947426692736" lon="9.381997707286603"><ele>15.0</ele><time>2026-05-01T11:51:24.002Z</time></trkpt><trkpt lat="44.28584311262137" lon="9.382136601761438"><ele>16.0</ele><time>2026-05-01T11:51:25.002Z</time></trkpt><trkpt lat="44.28576620378916" lon="9.382321362232208"><ele>16.0</ele><time>2026-05-01T11:51:26.002Z</time></trkpt><trkpt lat="44.285712927501" lon="9.382498882560578"><ele>16.0</ele><time>2026-05-01T11:51:27.002Z</time></trkpt><trkpt lat="44.28564648922584" lon="9.382652500394435"><ele>16.0</ele><time>2026-05-01T11:51:28.002Z</time></trkpt><trkpt lat="44.28558709302821" lon="9.38281574943487"><ele>16.0</ele><time>2026-05-01T11:51:29.002Z</time></trkpt><trkpt lat="44.285527801979576" lon="9.382983644394248"><ele>13.25</ele><time>2026-05-01T11:51:30.002Z</time></trkpt><trkpt lat="44.28548208309995" lon="9.383168754220288"><ele>10.5</ele><time>2026-05-01T11:51:31.002Z</time></trkpt><trkpt lat="44.28541153061164" lon="9.383347599956755"><ele>7.75</ele><time>2026-05-01T11:51:32.003Z</time></trkpt><trkpt lat="44.28534100731211" lon="9.383532502244469"><ele>5.0</ele><time>2026-05-01T11:51:33.003Z</time></trkpt><trkpt lat="44.28527309217099" lon="9.383713924808664"><ele>10.666666666666666</ele><time>2026-05-01T11:51:34.003Z</time></trkpt><trkpt lat="44.2852179039991" lon="9.38390821349844"><ele>16.333333333333332</ele><time>2026-05-01T11:51:35.003Z</time></trkpt><trkpt lat="44.28516237509259" lon="9.384107059964128"><ele>22.0</ele><time>2026-05-01T11:51:36.003Z</time></trkpt><trkpt lat="44.285076906999365" lon="9.384279852819326"><ele>22.0</ele><time>2026-05-01T11:51:37.003Z</time></trkpt><trkpt lat="44.28499780346564" lon="9.384457956480121"><ele>22.0</ele><time>2026-05-01T11:51:38.003Z</time></trkpt><trkpt lat="44.284913999343246" lon="9.384625047047077"><ele>22.0</ele><time>2026-05-01T11:51:39.003Z</time></trkpt><trkpt lat="44.28482453823465" lon="9.384793756592522"><ele>22.0</ele><time>2026-05-01T11:51:40.003Z</time></trkpt><trkpt lat="44.284733384239274" lon="9.384965658957803"><ele>21.0</ele><time>2026-05-01T11:51:41.003Z</time></trkpt><trkpt lat="44.28464232867397" lon="9.385137375535376"><ele>20.0</ele><time>2026-05-01T11:51:42.003Z</time></trkpt><trkpt lat="44.28455792031614" lon="9.385296556419656"><ele>19.0</ele><time>2026-05-01T11:51:43.003Z</time></trkpt><trkpt lat="44.284469199550685" lon="9.385464731987092"><ele>18.0</ele><time>2026-05-01T11:51:44.003Z</time></trkpt><trkpt lat="44.28437590439766" lon="9.385642158860648"><ele>18.0</ele><time>2026-05-01T11:51:45.003Z</time></trkpt><trkpt lat="44.284277819343934" lon="9.385828348515682"><ele>18.0</ele><time>2026-05-01T11:51:46.003Z</time></trkpt><trkpt lat="44.284160369980086" lon="9.386057417504631"><ele>18.0</ele><time>2026-05-01T11:51:47.003Z</time></trkpt><trkpt lat="44.28405980030279" lon="9.386253563886225"><ele>17.666666666666668</ele><time>2026-05-01T11:51:48.003Z</time></trkpt><trkpt lat="44.28395795286047" lon="9.386453666706082"><ele>17.333333333333336</ele><time>2026-05-01T11:51:49.023Z</time></trkpt><trkpt lat="44.28385903945576" lon="9.386648285702357"><ele>17.0</ele><time>2026-05-01T11:51:50.024Z</time></trkpt><trkpt lat="44.28375994922532" lon="9.386843252915968"><ele>17.0</ele><time>2026-05-01T11:51:51.022Z</time></trkpt><trkpt lat="44.28366116708904" lon="9.387034841042466"><ele>17.0</ele><time>2026-05-01T11:51:52.024Z</time></trkpt><trkpt lat="44.28356510410048" lon="9.38720410471663"><ele>17.0</ele><time>2026-05-01T11:51:53.024Z</time></trkpt><trkpt lat="44.28346313666029" lon="9.387350931491246"><ele>22.0</ele><time>2026-05-01T11:51:54.022Z</time></trkpt><trkpt lat="44.28232151892116" lon="9.388551166690876"><ele>16.333333333333332</ele><time>2026-05-01T11:51:57.184Z</time></trkpt><trkpt lat="44.28224180346154" lon="9.388677734515154"><ele>10.666666666666666</ele><time>2026-05-01T11:52:03.003Z</time></trkpt><trkpt lat="44.28214467996619" lon="9.388858743993275"><ele>5.0</ele><time>2026-05-01T11:52:04.003Z</time></trkpt><trkpt lat="44.281895642933776" lon="9.389258558898202"><ele>5.0</ele><time>2026-05-01T11:52:05.004Z</time></trkpt><trkpt lat="44.28191650400585" lon="9.389431196020652"><ele>5.0</ele><time>2026-05-01T11:52:06Z</time></trkpt><trkpt lat="44.281854423702356" lon="9.389575403855797"><ele>5.0</ele><time>2026-05-01T11:52:07Z</time></trkpt><trkpt lat="44.28177908441575" lon="9.389716382349219"><ele>5.0</ele><time>2026-05-01T11:52:08Z</time></trkpt><trkpt lat="44.28167420291788" lon="9.389858552677484"><ele>5.25</ele><time>2026-05-01T11:52:09Z</time></trkpt><trkpt lat="44.28158287645132" lon="9.390006644830063"><ele>5.5</ele><time>2026-05-01T11:52:10Z</time></trkpt><trkpt lat="44.281485813037385" lon="9.390148497772701"><ele>5.75</ele><time>2026-05-01T11:52:11Z</time></trkpt><trkpt lat="44.2813843762747" lon="9.39029131825696"><ele>6.0</ele><time>2026-05-01T11:52:12Z</time></trkpt><trkpt lat="44.281292999695346" lon="9.390429423559858"><ele>5.5</ele><time>2026-05-01T11:52:13Z</time></trkpt><trkpt lat="44.28118833892754" lon="9.390553759969272"><ele>5.0</ele><time>2026-05-01T11:52:14Z</time></trkpt><trkpt lat="44.281096282630486" lon="9.390686513779142"><ele>4.5</ele><time>2026-05-01T11:52:15Z</time></trkpt><trkpt lat="44.28101536468494" lon="9.390803075752803"><ele>4.0</ele><time>2026-05-01T11:52:16Z</time></trkpt><trkpt lat="44.28094426728209" lon="9.390906058175094"><ele>4.0</ele><time>2026-05-01T11:52:17Z</time></trkpt><trkpt lat="44.280886435074656" lon="9.390987888611047"><ele>4.0</ele><time>2026-05-01T11:52:18Z</time></trkpt><trkpt lat="44.28081086191062" lon="9.391027038331796"><ele>4.0</ele><time>2026-05-01T11:52:19Z</time></trkpt><trkpt lat="44.28072848045969" lon="9.391076918567116"><ele>4.0</ele><time>2026-05-01T11:52:20Z</time></trkpt><trkpt lat="44.280659071192076" lon="9.391169692795232"><ele>4.0</ele><time>2026-05-01T11:52:21Z</time></trkpt><trkpt lat="44.28058368366444" lon="9.391299702768881"><ele>4.0</ele><time>2026-05-01T11:52:22Z</time></trkpt><trkpt lat="44.28049389317093" lon="9.39142984427273"><ele>4.0</ele><time>2026-05-01T11:52:23Z</time></trkpt><trkpt lat="44.28037541293844" lon="9.391534666861897"><ele>4.0</ele><time>2026-05-01T11:52:24Z</time></trkpt><trkpt lat="44.28024396686447" lon="9.391623079772495"><ele>4.0</ele><time>2026-05-01T11:52:25Z</time></trkpt><trkpt lat="44.280111237020826" lon="9.391707305535299"><ele>4.0</ele><time>2026-05-01T11:52:26Z</time></trkpt><trkpt lat="44.27997713930928" lon="9.391797145385612"><ele>4.0</ele><time>2026-05-01T11:52:27Z</time></trkpt><trkpt lat="44.27984600716678" lon="9.391898345648608"><ele>4.0</ele><time>2026-05-01T11:52:28Z</time></trkpt><trkpt lat="44.279712271400754" lon="9.392001645265278"><ele>4.25</ele><time>2026-05-01T11:52:29Z</time></trkpt><trkpt lat="44.27957765818973" lon="9.39210117154127"><ele>4.5</ele><time>2026-05-01T11:52:30Z</time></trkpt><trkpt lat="44.279443947611554" lon="9.39219589711329"><ele>4.75</ele><time>2026-05-01T11:52:31Z</time></trkpt><trkpt lat="44.279320356036315" lon="9.392286445468834"><ele>5.0</ele><time>2026-05-01T11:52:32Z</time></trkpt><trkpt lat="44.279204796649076" lon="9.392372823197787"><ele>5.0</ele><time>2026-05-01T11:52:33Z</time></trkpt><trkpt lat="44.27909042966413" lon="9.39245743441876"><ele>5.0</ele><time>2026-05-01T11:52:34Z</time></trkpt><trkpt lat="44.27897323423155" lon="9.392541592257832"><ele>5.0</ele><time>2026-05-01T11:52:35.001Z</time></trkpt><trkpt lat="44.27885113446003" lon="9.392628362468587"><ele>5.0</ele><time>2026-05-01T11:52:36.001Z</time></trkpt><trkpt lat="44.27872713359676" lon="9.392718916992791"><ele>4.5</ele><time>2026-05-01T11:52:37.001Z</time></trkpt><trkpt lat="44.2786017116235" lon="9.392810883716512"><ele>4.0</ele><time>2026-05-01T11:52:38.001Z</time></trkpt><trkpt lat="44.278475155015414" lon="9.392905616409866"><ele>3.5</ele><time>2026-05-01T11:52:39.001Z</time></trkpt><trkpt lat="44.27834907536611" lon="9.393003409531744"><ele>3.0</ele><time>2026-05-01T11:52:40.001Z</time></trkpt><trkpt lat="44.27821968662228" lon="9.393109112510539"><ele>4.0</ele><time>2026-05-01T11:52:41.001Z</time></trkpt><trkpt lat="44.27809311360405" lon="9.393213036923253"><ele>5.0</ele><time>2026-05-01T11:52:42.001Z</time></trkpt><trkpt lat="44.27796032774925" lon="9.393307869068336"><ele>6.0</ele><time>2026-05-01T11:52:43.001Z</time></trkpt><trkpt lat="44.277824409514835" lon="9.393402355723168"><ele>7.0</ele><time>2026-05-01T11:52:44.001Z</time></trkpt><trkpt lat="44.27768700855678" lon="9.393511886170904"><ele>7.0</ele><time>2026-05-01T11:52:45.001Z</time></trkpt><trkpt lat="44.277552553325144" lon="9.393608645316343"><ele>7.0</ele><time>2026-05-01T11:52:46.001Z</time></trkpt><trkpt lat="44.277415585032564" lon="9.393711417949877"><ele>7.0</ele><time>2026-05-01T11:52:47.001Z</time></trkpt><trkpt lat="44.27728285536789" lon="9.393811692446834"><ele>6.75</ele><time>2026-05-01T11:52:48.001Z</time></trkpt><trkpt lat="44.277155462152166" lon="9.39390093282249"><ele>6.5</ele><time>2026-05-01T11:52:49.001Z</time></trkpt><trkpt lat="44.27703811014502" lon="9.393993560764885"><ele>6.25</ele><time>2026-05-01T11:52:50.001Z</time></trkpt><trkpt lat="44.27690785248584" lon="9.394091456539734"><ele>6.0</ele><time>2026-05-01T11:52:51.001Z</time></trkpt><trkpt lat="44.27677309999014" lon="9.39418940813732"><ele>6.0</ele><time>2026-05-01T11:52:52.001Z</time></trkpt><trkpt lat="44.276630883976786" lon="9.394274321196052"><ele>6.0</ele><time>2026-05-01T11:52:53.001Z</time></trkpt><trkpt lat="44.27649327567164" lon="9.394400980865962"><ele>6.0</ele><time>2026-05-01T11:52:54.001Z</time></trkpt><trkpt lat="44.27635276031572" lon="9.394497323040213"><ele>5.666666666666667</ele><time>2026-05-01T11:52:55.001Z</time></trkpt><trkpt lat="44.276207635825415" lon="9.394598367200112"><ele>5.333333333333334</ele><time>2026-05-01T11:52:56.001Z</time></trkpt><trkpt lat="44.2760515622926" lon="9.394679280973484"><ele>5.0</ele><time>2026-05-01T11:52:57.001Z</time></trkpt><trkpt lat="44.275909700837374" lon="9.394782723366102"><ele>6.0</ele><time>2026-05-01T11:52:58.001Z</time></trkpt><trkpt lat="44.27576502501116" lon="9.39488985119291"><ele>7.0</ele><time>2026-05-01T11:52:59.001Z</time></trkpt><trkpt lat="44.27563478102613" lon="9.395012448290535"><ele>8.0</ele><time>2026-05-01T11:53:00.001Z</time></trkpt><trkpt lat="44.2754989300594" lon="9.39510699443453"><ele>8.0</ele><time>2026-05-01T11:53:01.001Z</time></trkpt><trkpt lat="44.27536911913977" lon="9.395200639459793"><ele>8.0</ele><time>2026-05-01T11:53:02.001Z</time></trkpt><trkpt lat="44.27523638985708" lon="9.395298496995432"><ele>8.0</ele><time>2026-05-01T11:53:03.001Z</time></trkpt><trkpt lat="44.27509700775711" lon="9.395392985398388"><ele>8.0</ele><time>2026-05-01T11:53:04.001Z</time></trkpt><trkpt lat="44.27496413851694" lon="9.395481203938608"><ele>8.0</ele><time>2026-05-01T11:53:05.001Z</time></trkpt><trkpt lat="44.27483956979406" lon="9.395571015212166"><ele>8.0</ele><time>2026-05-01T11:53:06.001Z</time></trkpt><trkpt lat="44.27470758245444" lon="9.395653743424234"><ele>8.0</ele><time>2026-05-01T11:53:07.001Z</time></trkpt><trkpt lat="44.27457894706428" lon="9.395762539454418"><ele>7.333333333333333</ele><time>2026-05-01T11:53:08.002Z</time></trkpt><trkpt lat="44.27443932872985" lon="9.395865851986244"><ele>6.666666666666666</ele><time>2026-05-01T11:53:09.002Z</time></trkpt><trkpt lat="44.27429972654675" lon="9.39596706955912"><ele>6.0</ele><time>2026-05-01T11:53:10.002Z</time></trkpt><trkpt lat="44.27416590343494" lon="9.396067569316173"><ele>6.0</ele><time>2026-05-01T11:53:11.002Z</time></trkpt><trkpt lat="44.274034633892676" lon="9.396170561449292"><ele>6.0</ele><time>2026-05-01T11:53:12.002Z</time></trkpt><trkpt lat="44.27391263879494" lon="9.396264664965512"><ele>6.0</ele><time>2026-05-01T11:53:13.002Z</time></trkpt><trkpt lat="44.273803604219324" lon="9.396349370759031"><ele>6.0</ele><time>2026-05-01T11:53:14.002Z</time></trkpt><trkpt lat="44.27369440900637" lon="9.396429796786776"><ele>5.8</ele><time>2026-05-01T11:53:15.002Z</time></trkpt><trkpt lat="44.273590380758584" lon="9.396511547460966"><ele>5.6</ele><time>2026-05-01T11:53:16.002Z</time></trkpt><trkpt lat="44.273495896334346" lon="9.396588275267057"><ele>5.4</ele><time>2026-05-01T11:53:17.002Z</time></trkpt><trkpt lat="44.27340796697378" lon="9.396650971613443"><ele>5.2</ele><time>2026-05-01T11:53:18.002Z</time></trkpt><trkpt lat="44.27332302072783" lon="9.396706717001361"><ele>5.0</ele><time>2026-05-01T11:53:19.002Z</time></trkpt><trkpt lat="44.273248358051234" lon="9.396756398059651"><ele>5.0</ele><time>2026-05-01T11:53:20.002Z</time></trkpt><trkpt lat="44.27314358361193" lon="9.396815317408311"><ele>5.0</ele><time>2026-05-01T11:53:22.002Z</time></trkpt><trkpt lat="44.27307364672198" lon="9.39683786010202"><ele>5.0</ele><time>2026-05-01T11:53:23.002Z</time></trkpt><trkpt lat="44.2729843369628" lon="9.396863709317016"><ele>5.0</ele><time>2026-05-01T11:53:24.002Z</time></trkpt><trkpt lat="44.272901551576055" lon="9.396963855257187"><ele>5.0</ele><time>2026-05-01T11:53:25.002Z</time></trkpt><trkpt lat="44.272846231905575" lon="9.39712108532986"><ele>5.6</ele><time>2026-05-01T11:53:26.002Z</time></trkpt><trkpt lat="44.27277851797876" lon="9.397240258514383"><ele>6.2</ele><time>2026-05-01T11:53:27.002Z</time></trkpt><trkpt lat="44.27271309867773" lon="9.397353675236618"><ele>6.800000000000001</ele><time>2026-05-01T11:53:28.002Z</time></trkpt><trkpt lat="44.27265185889451" lon="9.397465811754955"><ele>7.4</ele><time>2026-05-01T11:53:29.002Z</time></trkpt><trkpt lat="44.27259614890422" lon="9.397601133543198"><ele>8.0</ele><time>2026-05-01T11:53:30.002Z</time></trkpt><trkpt lat="44.27252937492596" lon="9.397746324692587"><ele>8.0</ele><time>2026-05-01T11:53:31.002Z</time></trkpt><trkpt lat="44.272480921893724" lon="9.397888953156889"><ele>8.0</ele><time>2026-05-01T11:53:32.002Z</time></trkpt><trkpt lat="44.27242171309089" lon="9.39801715964508"><ele>8.0</ele><time>2026-05-01T11:53:33.002Z</time></trkpt><trkpt lat="44.27238209701064" lon="9.398144634081618"><ele>8.0</ele><time>2026-05-01T11:53:34.002Z</time></trkpt><trkpt lat="44.27234327081672" lon="9.39827154908359"><ele>8.0</ele><time>2026-05-01T11:53:35.002Z</time></trkpt><trkpt lat="44.27229524129783" lon="9.39839969801598"><ele>8.0</ele><time>2026-05-01T11:53:36.002Z</time></trkpt><trkpt lat="44.27223208706854" lon="9.39852024924895"><ele>8.0</ele><time>2026-05-01T11:53:37.002Z</time></trkpt><trkpt lat="44.27219760594393" lon="9.398642405804663"><ele>8.0</ele><time>2026-05-01T11:53:38.002Z</time></trkpt><trkpt lat="44.272156870651216" lon="9.398782748458217"><ele>8.0</ele><time>2026-05-01T11:53:39.002Z</time></trkpt><trkpt lat="44.27211852742031" lon="9.398917366484897"><ele>8.0</ele><time>2026-05-01T11:53:40.002Z</time></trkpt><trkpt lat="44.272083946040794" lon="9.399038944387918"><ele>7.800000000000001</ele><time>2026-05-01T11:53:41.003Z</time></trkpt><trkpt lat="44.27205872830959" lon="9.399156341484135"><ele>7.6000000000000005</ele><time>2026-05-01T11:53:42.003Z</time></trkpt><trkpt lat="44.27203810800393" lon="9.399280307779552"><ele>7.3999999999999995</ele><time>2026-05-01T11:53:43.003Z</time></trkpt><trkpt lat="44.27201634339756" lon="9.399421081693008"><ele>7.199999999999999</ele><time>2026-05-01T11:53:44.003Z</time></trkpt><trkpt lat="44.27199541242893" lon="9.399560293917146"><ele>7.0</ele><time>2026-05-01T11:53:45.003Z</time></trkpt><trkpt lat="44.27197697585095" lon="9.399702516840746"><ele>7.0</ele><time>2026-05-01T11:53:46.003Z</time></trkpt><trkpt lat="44.271957653491846" lon="9.399845013059622"><ele>6.999999999999999</ele><time>2026-05-01T11:53:47.003Z</time></trkpt><trkpt lat="44.27193784361267" lon="9.399986495836515"><ele>6.999999999999999</ele><time>2026-05-01T11:53:48.003Z</time></trkpt><trkpt lat="44.27192081176809" lon="9.400133335911415"><ele>7.0</ele><time>2026-05-01T11:53:49.003Z</time></trkpt><trkpt lat="44.2718995863123" lon="9.400279377750497"><ele>7.0</ele><time>2026-05-01T11:53:50.003Z</time></trkpt><trkpt lat="44.271863454420895" lon="9.400422426027596"><ele>6.6</ele><time>2026-05-01T11:53:51.003Z</time></trkpt><trkpt lat="44.27184105905731" lon="9.400571544795536"><ele>6.199999999999999</ele><time>2026-05-01T11:53:52.003Z</time></trkpt><trkpt lat="44.271835641288945" lon="9.400719196873219"><ele>5.8</ele><time>2026-05-01T11:53:53.003Z</time></trkpt><trkpt lat="44.27180766098022" lon="9.400864819266356"><ele>5.4</ele><time>2026-05-01T11:53:54.003Z</time></trkpt><trkpt lat="44.27178437974398" lon="9.401004676755852"><ele>5.0</ele><time>2026-05-01T11:53:55.003Z</time></trkpt><trkpt lat="44.27176706499348" lon="9.401144220434231"><ele>5.0</ele><time>2026-05-01T11:53:56.003Z</time></trkpt><trkpt lat="44.27174659022244" lon="9.401286646140633"><ele>5.0</ele><time>2026-05-01T11:53:57.003Z</time></trkpt><trkpt lat="44.27172115034608" lon="9.401430558774647"><ele>5.0</ele><time>2026-05-01T11:53:58.003Z</time></trkpt><trkpt lat="44.27169970625596" lon="9.401578316272158"><ele>5.0</ele><time>2026-05-01T11:53:59.003Z</time></trkpt><trkpt lat="44.27167972604671" lon="9.401723810259627"><ele>5.0</ele><time>2026-05-01T11:54:00.003Z</time></trkpt><trkpt lat="44.27166045563638" lon="9.40186960775471"><ele>5.2</ele><time>2026-05-01T11:54:01.003Z</time></trkpt><trkpt lat="44.27162643765139" lon="9.402008442712726"><ele>5.4</ele><time>2026-05-01T11:54:02.003Z</time></trkpt><trkpt lat="44.271605285117026" lon="9.40215146862734"><ele>5.6</ele><time>2026-05-01T11:54:03.003Z</time></trkpt><trkpt lat="44.27158726755234" lon="9.402286468363057"><ele>5.8</ele><time>2026-05-01T11:54:04.003Z</time></trkpt><trkpt lat="44.27158428352681" lon="9.402419306699251"><ele>6.0</ele><time>2026-05-01T11:54:05.003Z</time></trkpt><trkpt lat="44.271569246982985" lon="9.4025497391577"><ele>6.166666666666667</ele><time>2026-05-01T11:54:06.003Z</time></trkpt><trkpt lat="44.27155698196063" lon="9.402674942341228"><ele>6.333333333333334</ele><time>2026-05-01T11:54:07.003Z</time></trkpt><trkpt lat="44.27154461835766" lon="9.402793104841361"><ele>6.5</ele><time>2026-05-01T11:54:08.003Z</time></trkpt><trkpt lat="44.2715187453169" lon="9.402913902025672"><ele>6.666666666666667</ele><time>2026-05-01T11:54:09.003Z</time></trkpt><trkpt lat="44.27149239147371" lon="9.403027077931068"><ele>6.833333333333334</ele><time>2026-05-01T11:54:10.003Z</time></trkpt><trkpt lat="44.27147451209866" lon="9.403134607583628"><ele>7.0</ele><time>2026-05-01T11:54:11.003Z</time></trkpt><trkpt lat="44.27147034205022" lon="9.403232268232323"><ele>6.3999999999999995</ele><time>2026-05-01T11:54:12Z</time></trkpt><trkpt lat="44.27146636412229" lon="9.403323954129245"><ele>5.799999999999999</ele><time>2026-05-01T11:54:13Z</time></trkpt><trkpt lat="44.27150961933753" lon="9.40341852535424"><ele>5.2</ele><time>2026-05-01T11:54:14Z</time></trkpt><trkpt lat="44.271594442519174" lon="9.40346851302607"><ele>4.6</ele><time>2026-05-01T11:54:15Z</time></trkpt><trkpt lat="44.27168336229643" lon="9.403524076423357"><ele>4.0</ele><time>2026-05-01T11:54:16Z</time></trkpt><trkpt lat="44.27179183712456" lon="9.403577993810053"><ele>4.0</ele><time>2026-05-01T11:54:17Z</time></trkpt><trkpt lat="44.27191669775244" lon="9.403633367017404"><ele>4.0</ele><time>2026-05-01T11:54:18Z</time></trkpt><trkpt lat="44.27204414810335" lon="9.403661967780492"><ele>4.0</ele><time>2026-05-01T11:54:19Z</time></trkpt><trkpt lat="44.27216849190822" lon="9.403650950383064"><ele>4.0</ele><time>2026-05-01T11:54:20Z</time></trkpt><trkpt lat="44.2722787643252" lon="9.403619231835366"><ele>4.166666666666666</ele><time>2026-05-01T11:54:21Z</time></trkpt><trkpt lat="44.27237068791773" lon="9.403580577470871"><ele>4.333333333333333</ele><time>2026-05-01T11:54:22Z</time></trkpt><trkpt lat="44.272458793577876" lon="9.403551738269238"><ele>4.5</ele><time>2026-05-01T11:54:23Z</time></trkpt><trkpt lat="44.27254055430061" lon="9.403534548116308"><ele>4.666666666666667</ele><time>2026-05-01T11:54:24Z</time></trkpt><trkpt lat="44.272618113311125" lon="9.403535107214935"><ele>4.833333333333334</ele><time>2026-05-01T11:54:25Z</time></trkpt><trkpt lat="44.27270280694269" lon="9.403570346969001"><ele>5.0</ele><time>2026-05-01T11:54:26Z</time></trkpt><trkpt lat="44.27277897664962" lon="9.403640842039463"><ele>5.0</ele><time>2026-05-01T11:54:27Z</time></trkpt><trkpt lat="44.27285070149335" lon="9.40373481258619"><ele>5.0</ele><time>2026-05-01T11:54:28Z</time></trkpt><trkpt lat="44.2729061354559" lon="9.403853170615523"><ele>5.0</ele><time>2026-05-01T11:54:29Z</time></trkpt><trkpt lat="44.2729190081572" lon="9.40397236252349"><ele>5.0</ele><time>2026-05-01T11:54:30Z</time></trkpt><trkpt lat="44.27295305358934" lon="9.404126680436814"><ele>5.0</ele><time>2026-05-01T11:54:31Z</time></trkpt><trkpt lat="44.272969208703365" lon="9.404262763014225"><ele>5.0</ele><time>2026-05-01T11:54:32Z</time></trkpt><trkpt lat="44.272984674906965" lon="9.404403931842143"><ele>5.0</ele><time>2026-05-01T11:54:33Z</time></trkpt><trkpt lat="44.272991219598545" lon="9.404548309903223"><ele>5.0</ele><time>2026-05-01T11:54:34Z</time></trkpt><trkpt lat="44.27298279929378" lon="9.404699306423462"><ele>5.0</ele><time>2026-05-01T11:54:35Z</time></trkpt><trkpt lat="44.2729596783617" lon="9.404847773278314"><ele>5.0</ele><time>2026-05-01T11:54:36Z</time></trkpt><trkpt lat="44.2729069323088" lon="9.404983004610461"><ele>5.0</ele><time>2026-05-01T11:54:37Z</time></trkpt><trkpt lat="44.272872310381864" lon="9.405125283222542"><ele>5.0</ele><time>2026-05-01T11:54:38Z</time></trkpt><trkpt lat="44.27281554440821" lon="9.405253551591342"><ele>5.0</ele><time>2026-05-01T11:54:39Z</time></trkpt><trkpt lat="44.272742957097954" lon="9.405412709286287"><ele>5.0</ele><time>2026-05-01T11:54:40Z</time></trkpt><trkpt lat="44.272655375469355" lon="9.405607303401364"><ele>6.333333333333334</ele><time>2026-05-01T11:54:41.001Z</time></trkpt><trkpt lat="44.272564659692016" lon="9.405809063236694"><ele>7.666666666666667</ele><time>2026-05-01T11:54:42.001Z</time></trkpt><trkpt lat="44.27247841027436" lon="9.406002247180146"><ele>9.0</ele><time>2026-05-01T11:54:43.001Z</time></trkpt><trkpt lat="44.27239370983379" lon="9.406191059799605"><ele>9.0</ele><time>2026-05-01T11:54:44.001Z</time></trkpt><trkpt lat="44.272304883596696" lon="9.406387920071923"><ele>9.0</ele><time>2026-05-01T11:54:45.001Z</time></trkpt><trkpt lat="44.272210483825894" lon="9.406598500033153"><ele>9.0</ele><time>2026-05-01T11:54:46.001Z</time></trkpt><trkpt lat="44.27211490994867" lon="9.40680339081502"><ele>9.0</ele><time>2026-05-01T11:54:47.001Z</time></trkpt><trkpt lat="44.27201818181765" lon="9.407007324268955"><ele>9.0</ele><time>2026-05-01T11:54:48.001Z</time></trkpt><trkpt lat="44.27191820610519" lon="9.407217577515542"><ele>9.0</ele><time>2026-05-01T11:54:49.001Z</time></trkpt><trkpt lat="44.27182225354686" lon="9.40741910446732"><ele>9.0</ele><time>2026-05-01T11:54:50.001Z</time></trkpt><trkpt lat="44.27173196464941" lon="9.407608706779937"><ele>9.0</ele><time>2026-05-01T11:54:51.001Z</time></trkpt><trkpt lat="44.27163906968671" lon="9.407785231456762"><ele>9.0</ele><time>2026-05-01T11:54:52.001Z</time></trkpt><trkpt lat="44.27154098687994" lon="9.40795381245594"><ele>8.0</ele><time>2026-05-01T11:54:53.001Z</time></trkpt><trkpt lat="44.271426960067" lon="9.408113605996915"><ele>7.0</ele><time>2026-05-01T11:54:54.001Z</time></trkpt><trkpt lat="44.2712945207403" lon="9.408233516407902"><ele>6.0</ele><time>2026-05-01T11:54:55.001Z</time></trkpt><trkpt lat="44.27118740690355" lon="9.40836678359088"><ele>6.0</ele><time>2026-05-01T11:54:56.001Z</time></trkpt><trkpt lat="44.27109824277485" lon="9.408476646457387"><ele>6.0</ele><time>2026-05-01T11:54:57.001Z</time></trkpt><trkpt lat="44.27103038449261" lon="9.408559757456889"><ele>6.0</ele><time>2026-05-01T11:54:58.001Z</time></trkpt><trkpt lat="44.270975032214096" lon="9.408655982462694"><ele>6.0</ele><time>2026-05-01T11:54:59.001Z</time></trkpt><trkpt lat="44.27089820513769" lon="9.40873101505484"><ele>6.0</ele><time>2026-05-01T11:55:00.001Z</time></trkpt><trkpt lat="44.270806253791896" lon="9.408785608145122"><ele>6.0</ele><time>2026-05-01T11:55:01.001Z</time></trkpt><trkpt lat="44.270712751096255" lon="9.408811414445891"><ele>6.0</ele><time>2026-05-01T11:55:02.001Z</time></trkpt><trkpt lat="44.27064052994914" lon="9.408856198627875"><ele>6.0</ele><time>2026-05-01T11:55:03.001Z</time></trkpt><trkpt lat="44.270596724465946" lon="9.408944489192884"><ele>6.0</ele><time>2026-05-01T11:55:04.001Z</time></trkpt><trkpt lat="44.27057817588551" lon="9.409067445553644"><ele>6.0</ele><time>2026-05-01T11:55:05.001Z</time></trkpt><trkpt lat="44.27057301464541" lon="9.409221036526146"><ele>9.0</ele><time>2026-05-01T11:55:06.001Z</time></trkpt><trkpt lat="44.27056408469901" lon="9.409407907520285"><ele>12.0</ele><time>2026-05-01T11:55:07.001Z</time></trkpt><trkpt lat="44.27054206879577" lon="9.409592930280983"><ele>15.0</ele><time>2026-05-01T11:55:08.001Z</time></trkpt><trkpt lat="44.2705137347034" lon="9.40976931172497"><ele>18.0</ele><time>2026-05-01T11:55:09.001Z</time></trkpt><trkpt lat="44.27049279667402" lon="9.409948133527493"><ele>18.75</ele><time>2026-05-01T11:55:10.001Z</time></trkpt><trkpt lat="44.27047315459123" lon="9.410129564929766"><ele>19.5</ele><time>2026-05-01T11:55:11.001Z</time></trkpt><trkpt lat="44.270444025210196" lon="9.41031715767032"><ele>20.25</ele><time>2026-05-01T11:55:12.001Z</time></trkpt><trkpt lat="44.27040946853663" lon="9.410502062539136"><ele>21.0</ele><time>2026-05-01T11:55:13.001Z</time></trkpt><trkpt lat="44.270351043504576" lon="9.41067432332807"><ele>18.75</ele><time>2026-05-01T11:55:14.001Z</time></trkpt><trkpt lat="44.27031047724599" lon="9.41084784047651"><ele>16.5</ele><time>2026-05-01T11:55:15.001Z</time></trkpt><trkpt lat="44.27026387830245" lon="9.411018520278846"><ele>14.25</ele><time>2026-05-01T11:55:16.002Z</time></trkpt><trkpt lat="44.270214870017305" lon="9.411190429956749"><ele>12.0</ele><time>2026-05-01T11:55:17.002Z</time></trkpt><trkpt lat="44.27016084708432" lon="9.411369290409265"><ele>10.5</ele><time>2026-05-01T11:55:18.002Z</time></trkpt><trkpt lat="44.27010498649983" lon="9.411554155618266"><ele>9.0</ele><time>2026-05-01T11:55:19.002Z</time></trkpt><trkpt lat="44.27006381751447" lon="9.411745342795209"><ele>7.5</ele><time>2026-05-01T11:55:20.002Z</time></trkpt><trkpt lat="44.270010445374616" lon="9.41192083588085"><ele>6.0</ele><time>2026-05-01T11:55:21.002Z</time></trkpt><trkpt lat="44.269957114618705" lon="9.41209831355163"><ele>6.4</ele><time>2026-05-01T11:55:22.002Z</time></trkpt><trkpt lat="44.26990364806323" lon="9.412274051640646"><ele>6.8</ele><time>2026-05-01T11:55:23.002Z</time></trkpt><trkpt lat="44.26985367565276" lon="9.412441197811969"><ele>7.200000000000001</ele><time>2026-05-01T11:55:24.002Z</time></trkpt><trkpt lat="44.26979636945805" lon="9.412572731763817"><ele>7.6000000000000005</ele><time>2026-05-01T11:55:25.002Z</time></trkpt><trkpt lat="44.26977063382726" lon="9.41265662296556"><ele>8.0</ele><time>2026-05-01T11:55:26.002Z</time></trkpt><trkpt lat="44.26973904999297" lon="9.412759650344746"><ele>8.4</ele><time>2026-05-01T11:56:05.003Z</time></trkpt><trkpt lat="44.26971315829641" lon="9.412844287161318"><ele>8.8</ele><time>2026-05-01T11:56:06.003Z</time></trkpt><trkpt lat="44.2696815968647" lon="9.412947457654614"><ele>9.2</ele><time>2026-05-01T11:56:07.003Z</time></trkpt><trkpt lat="44.26964089028882" lon="9.413080522533395"><ele>9.6</ele><time>2026-05-01T11:56:08.003Z</time></trkpt><trkpt lat="44.269596835782636" lon="9.413228970072293"><ele>10.0</ele><time>2026-05-01T11:56:09.003Z</time></trkpt><trkpt lat="44.26954611304907" lon="9.413382554679195"><ele>10.0</ele><time>2026-05-01T11:56:10.003Z</time></trkpt><trkpt lat="44.26948417093445" lon="9.413554167965382"><ele>10.0</ele><time>2026-05-01T11:56:11.003Z</time></trkpt><trkpt lat="44.269414527297705" lon="9.41373798377976"><ele>10.0</ele><time>2026-05-01T11:56:12.003Z</time></trkpt><trkpt lat="44.269340228741505" lon="9.413931466252782"><ele>10.0</ele><time>2026-05-01T11:56:13.003Z</time></trkpt><trkpt lat="44.269259551579985" lon="9.414138965875479"><ele>9.666666666666668</ele><time>2026-05-01T11:56:14.003Z</time></trkpt><trkpt lat="44.269189174257974" lon="9.414373363731634"><ele>9.333333333333334</ele><time>2026-05-01T11:56:15.003Z</time></trkpt><trkpt lat="44.26909767229011" lon="9.414607585205324"><ele>9.0</ele><time>2026-05-01T11:56:16.003Z</time></trkpt><trkpt lat="44.26900362593226" lon="9.41484338736754"><ele>9.333333333333334</ele><time>2026-05-01T11:56:17.003Z</time></trkpt><trkpt lat="44.268913214679586" lon="9.415068752121527"><ele>9.666666666666668</ele><time>2026-05-01T11:56:18Z</time></trkpt><trkpt lat="44.26883892589458" lon="9.4152753919274"><ele>10.0</ele><time>2026-05-01T11:56:19Z</time></trkpt><trkpt lat="44.26879644456409" lon="9.415468611351967"><ele>9.6</ele><time>2026-05-01T11:56:20Z</time></trkpt><trkpt lat="44.26879317185425" lon="9.415647685743659"><ele>9.2</ele><time>2026-05-01T11:56:21Z</time></trkpt><trkpt lat="44.26880384724858" lon="9.415803836933705"><ele>8.8</ele><time>2026-05-01T11:56:22Z</time></trkpt><trkpt lat="44.26881146161107" lon="9.415942339651153"><ele>8.4</ele><time>2026-05-01T11:56:23Z</time></trkpt><trkpt lat="44.26885323019318" lon="9.416040374728588"><ele>8.0</ele><time>2026-05-01T11:56:24Z</time></trkpt><trkpt lat="44.26890021475387" lon="9.416132515250764"><ele>8.25</ele><time>2026-05-01T11:56:25Z</time></trkpt><trkpt lat="44.268980205513806" lon="9.416222511880022"><ele>8.5</ele><time>2026-05-01T11:56:26Z</time></trkpt><trkpt lat="44.269108849065724" lon="9.416307690930303"><ele>8.75</ele><time>2026-05-01T11:56:27Z</time></trkpt><trkpt lat="44.26925732176214" lon="9.416402290764342"><ele>9.0</ele><time>2026-05-01T11:56:28Z</time></trkpt><trkpt lat="44.26941408352083" lon="9.416509884049054"><ele>9.0</ele><time>2026-05-01T11:56:29Z</time></trkpt><trkpt lat="44.26954907601804" lon="9.416617673917944"><ele>9.0</ele><time>2026-05-01T11:56:30Z</time></trkpt><trkpt lat="44.269675624155525" lon="9.416697712548503"><ele>9.0</ele><time>2026-05-01T11:56:31Z</time></trkpt><trkpt lat="44.269783369028005" lon="9.416795529101186"><ele>9.0</ele><time>2026-05-01T11:56:32Z</time></trkpt><trkpt lat="44.26986912866064" lon="9.416904999045425"><ele>9.0</ele><time>2026-05-01T11:56:33Z</time></trkpt><trkpt lat="44.269914670290824" lon="9.417046240748364"><ele>9.0</ele><time>2026-05-01T11:56:34Z</time></trkpt><trkpt lat="44.26994610945983" lon="9.417175261669351"><ele>9.0</ele><time>2026-05-01T11:56:35Z</time></trkpt><trkpt lat="44.26995490332194" lon="9.417272872737685"><ele>9.0</ele><time>2026-05-01T11:56:36Z</time></trkpt><trkpt lat="44.269972026505286" lon="9.417396571964455"><ele>9.0</ele><time>2026-05-01T11:56:38Z</time></trkpt><trkpt lat="44.26994897862492" lon="9.417546982380916"><ele>9.0</ele><time>2026-05-01T11:56:40Z</time></trkpt><trkpt lat="44.26992088620697" lon="9.41767409131886"><ele>9.0</ele><time>2026-05-01T11:56:41Z</time></trkpt><trkpt lat="44.26986719033476" lon="9.41781307557527"><ele>9.0</ele><time>2026-05-01T11:56:42Z</time></trkpt><trkpt lat="44.269813614981736" lon="9.417964322228446"><ele>9.0</ele><time>2026-05-01T11:56:43Z</time></trkpt><trkpt lat="44.26976942500726" lon="9.41810116941983"><ele>9.0</ele><time>2026-05-01T11:56:44Z</time></trkpt><trkpt lat="44.26973018017827" lon="9.418217641876044"><ele>9.333333333333334</ele><time>2026-05-01T11:56:45Z</time></trkpt><trkpt lat="44.26969373128581" lon="9.418323557247364"><ele>9.666666666666666</ele><time>2026-05-01T11:56:46.001Z</time></trkpt><trkpt lat="44.26965711406018" lon="9.41842466003318"><ele>10.0</ele><time>2026-05-01T11:56:47.001Z</time></trkpt><trkpt lat="44.269627645885656" lon="9.41852166300595"><ele>10.333333333333332</ele><time>2026-05-01T11:56:48.001Z</time></trkpt><trkpt lat="44.26960223259557" lon="9.418617606942131"><ele>10.666666666666666</ele><time>2026-05-01T11:56:49.001Z</time></trkpt><trkpt lat="44.26957305825137" lon="9.418708162987102"><ele>11.0</ele><time>2026-05-01T11:56:50.001Z</time></trkpt><trkpt lat="44.2695449610938" lon="9.41880331072275"><ele>11.200000000000001</ele><time>2026-05-01T11:56:51.001Z</time></trkpt><trkpt lat="44.26951384710771" lon="9.418901287617885"><ele>11.4</ele><time>2026-05-01T11:56:52.001Z</time></trkpt><trkpt lat="44.269472661338156" lon="9.419011402444418"><ele>11.6</ele><time>2026-05-01T11:56:53.001Z</time></trkpt><trkpt lat="44.26942758351583" lon="9.419130709366808"><ele>11.8</ele><time>2026-05-01T11:56:54.001Z</time></trkpt><trkpt lat="44.26937843879322" lon="9.419255811092718"><ele>12.0</ele><time>2026-05-01T11:56:55.001Z</time></trkpt><trkpt lat="44.26933303530386" lon="9.419380324242951"><ele>12.0</ele><time>2026-05-01T11:56:56.001Z</time></trkpt><trkpt lat="44.269292962001366" lon="9.419493221139327"><ele>12.0</ele><time>2026-05-01T11:56:57.001Z</time></trkpt><trkpt lat="44.26925211647026" lon="9.419614938402173"><ele>12.0</ele><time>2026-05-01T11:56:58.001Z</time></trkpt><trkpt lat="44.26920354826639" lon="9.419748030191265"><ele>12.0</ele><time>2026-05-01T11:56:59.001Z</time></trkpt><trkpt lat="44.26915321630753" lon="9.419894664035592"><ele>12.0</ele><time>2026-05-01T11:57:00.001Z</time></trkpt><trkpt lat="44.26910217381167" lon="9.420041557751427"><ele>11.75</ele><time>2026-05-01T11:57:01.001Z</time></trkpt><trkpt lat="44.269046370037394" lon="9.420187231589308"><ele>11.5</ele><time>2026-05-01T11:57:02.001Z</time></trkpt><trkpt lat="44.268994952292296" lon="9.420334747929203"><ele>11.25</ele><time>2026-05-01T11:57:03.001Z</time></trkpt><trkpt lat="44.26894237059604" lon="9.420487662003433"><ele>11.0</ele><time>2026-05-01T11:57:04.001Z</time></trkpt><trkpt lat="44.268886269275946" lon="9.420646138973979"><ele>11.0</ele><time>2026-05-01T11:57:05.001Z</time></trkpt><trkpt lat="44.268832041331834" lon="9.420808081722482"><ele>11.0</ele><time>2026-05-01T11:57:06.001Z</time></trkpt><trkpt lat="44.26877745794991" lon="9.42097138490648"><ele>11.0</ele><time>2026-05-01T11:57:07.001Z</time></trkpt><trkpt lat="44.26872920943912" lon="9.421141190706932"><ele>11.0</ele><time>2026-05-01T11:57:08.001Z</time></trkpt><trkpt lat="44.268680791600374" lon="9.421313025285265"><ele>11.333333333333332</ele><time>2026-05-01T11:57:09.001Z</time></trkpt><trkpt lat="44.26863179058537" lon="9.421489580788014"><ele>11.666666666666666</ele><time>2026-05-01T11:57:10.001Z</time></trkpt><trkpt lat="44.26857336455483" lon="9.421684314370136"><ele>12.0</ele><time>2026-05-01T11:57:11.001Z</time></trkpt><trkpt lat="44.26849111204959" lon="9.421927127428733"><ele>11.5</ele><time>2026-05-01T11:57:12.001Z</time></trkpt><trkpt lat="44.26838758918546" lon="9.422199798694766"><ele>11.0</ele><time>2026-05-01T11:57:13.001Z</time></trkpt><trkpt lat="44.268266145877824" lon="9.422471440744795"><ele>11.0</ele><time>2026-05-01T11:57:14.001Z</time></trkpt><trkpt lat="44.268139567264726" lon="9.422695768848651"><ele>11.0</ele><time>2026-05-01T11:57:15.001Z</time></trkpt><trkpt lat="44.268038726924054" lon="9.422905312524259"><ele>11.0</ele><time>2026-05-01T11:57:16.001Z</time></trkpt><trkpt lat="44.267937117634546" lon="9.423125951445122"><ele>11.333333333333332</ele><time>2026-05-01T11:57:17.001Z</time></trkpt><trkpt lat="44.26784442693215" lon="9.423330659299987"><ele>11.666666666666666</ele><time>2026-05-01T11:57:18.001Z</time></trkpt><trkpt lat="44.26774261879927" lon="9.42353159186491"><ele>12.0</ele><time>2026-05-01T11:57:19.001Z</time></trkpt><trkpt lat="44.26765024316798" lon="9.423740403125707"><ele>12.333333333333332</ele><time>2026-05-01T11:57:20.001Z</time></trkpt><trkpt lat="44.26755582020021" lon="9.423942916782178"><ele>12.666666666666666</ele><time>2026-05-01T11:57:21.001Z</time></trkpt><trkpt lat="44.267466971269855" lon="9.424130815992772"><ele>13.0</ele><time>2026-05-01T11:57:22.001Z</time></trkpt><trkpt lat="44.26738362298751" lon="9.424309325367574"><ele>13.0</ele><time>2026-05-01T11:57:23.002Z</time></trkpt><trkpt lat="44.267306523733154" lon="9.424475107585378"><ele>13.0</ele><time>2026-05-01T11:57:24.002Z</time></trkpt><trkpt lat="44.26723820076985" lon="9.42461703724294"><ele>13.0</ele><time>2026-05-01T11:57:25.002Z</time></trkpt><trkpt lat="44.26717478758005" lon="9.424750316572696"><ele>13.0</ele><time>2026-05-01T11:57:26.002Z</time></trkpt><trkpt lat="44.267115709131104" lon="9.424871845175423"><ele>12.8</ele><time>2026-05-01T11:57:27.002Z</time></trkpt><trkpt lat="44.26706168061215" lon="9.424981688286517"><ele>12.600000000000001</ele><time>2026-05-01T11:57:28.002Z</time></trkpt><trkpt lat="44.26701236378069" lon="9.425083980505942"><ele>12.399999999999999</ele><time>2026-05-01T11:57:29.002Z</time></trkpt><trkpt lat="44.266955454300174" lon="9.425210261087688"><ele>12.2</ele><time>2026-05-01T11:57:30.002Z</time></trkpt><trkpt lat="44.266865344371574" lon="9.425389147039153"><ele>12.0</ele><time>2026-05-01T11:57:31.002Z</time></trkpt><trkpt lat="44.266772898756955" lon="9.425577699215742"><ele>11.333333333333334</ele><time>2026-05-01T11:57:32.002Z</time></trkpt><trkpt lat="44.266682091623366" lon="9.425774970395551"><ele>10.666666666666668</ele><time>2026-05-01T11:57:33.002Z</time></trkpt><trkpt lat="44.26658424374474" lon="9.42598940191554"><ele>10.0</ele><time>2026-05-01T11:57:34.002Z</time></trkpt><trkpt lat="44.266487422493384" lon="9.426202272590968"><ele>11.666666666666668</ele><time>2026-05-01T11:57:35.002Z</time></trkpt><trkpt lat="44.26638948594157" lon="9.426413043992559"><ele>13.333333333333334</ele><time>2026-05-01T11:57:36.002Z</time></trkpt><trkpt lat="44.266287054629025" lon="9.426627851650851"><ele>15.0</ele><time>2026-05-01T11:57:37.002Z</time></trkpt><trkpt lat="44.266185342014495" lon="9.426839662135952"><ele>15.0</ele><time>2026-05-01T11:57:38.002Z</time></trkpt><trkpt lat="44.26609456947545" lon="9.427025502584558"><ele>15.0</ele><time>2026-05-01T11:57:39.002Z</time></trkpt><trkpt lat="44.26603357767465" lon="9.427167796007788"><ele>15.0</ele><time>2026-05-01T11:57:40.002Z</time></trkpt><trkpt lat="44.26599648500575" lon="9.427253942735328"><ele>15.0</ele><time>2026-05-01T11:57:41.002Z</time></trkpt><trkpt lat="44.265945877387594" lon="9.427347475386528"><ele>15.0</ele><time>2026-05-01T11:57:43.002Z</time></trkpt><trkpt lat="44.265915395134826" lon="9.427428019743239"><ele>15.8</ele><time>2026-05-01T11:57:48.002Z</time></trkpt><trkpt lat="44.265877194870676" lon="9.427509732721681"><ele>16.6</ele><time>2026-05-01T11:57:49.002Z</time></trkpt><trkpt lat="44.26582085994161" lon="9.427629064909597"><ele>17.4</ele><time>2026-05-01T11:57:50.002Z</time></trkpt><trkpt lat="44.26575279075648" lon="9.427767602054404"><ele>18.2</ele><time>2026-05-01T11:57:51.002Z</time></trkpt><trkpt lat="44.2656710188789" lon="9.427925632911304"><ele>19.0</ele><time>2026-05-01T11:57:52.002Z</time></trkpt><trkpt lat="44.26559345160957" lon="9.428096980017093"><ele>19.25</ele><time>2026-05-01T11:57:53.002Z</time></trkpt><trkpt lat="44.26551396000287" lon="9.428267210175024"><ele>19.5</ele><time>2026-05-01T11:57:54.002Z</time></trkpt><trkpt lat="44.26543098927078" lon="9.42844000122382"><ele>19.75</ele><time>2026-05-01T11:57:55.002Z</time></trkpt><trkpt lat="44.26534762251074" lon="9.428613946913044"><ele>20.0</ele><time>2026-05-01T11:57:56.002Z</time></trkpt><trkpt lat="44.265260140195366" lon="9.428790714458936"><ele>22.333333333333336</ele><time>2026-05-01T11:57:57.002Z</time></trkpt><trkpt lat="44.265181349799605" lon="9.428962214416371"><ele>24.666666666666668</ele><time>2026-05-01T11:57:58.002Z</time></trkpt><trkpt lat="44.26509341393471" lon="9.429134373467514"><ele>27.0</ele><time>2026-05-01T11:57:59.002Z</time></trkpt><trkpt lat="44.26496193200475" lon="9.42926957929623"><ele>27.0</ele><time>2026-05-01T11:58:00.002Z</time></trkpt><trkpt lat="44.264853225108446" lon="9.429412288437327"><ele>27.0</ele><time>2026-05-01T11:58:01.003Z</time></trkpt><trkpt lat="44.26474859259575" lon="9.429528587930314"><ele>27.0</ele><time>2026-05-01T11:58:02.003Z</time></trkpt><trkpt lat="44.26467363432533" lon="9.429675040778083"><ele>27.0</ele><time>2026-05-01T11:58:03.003Z</time></trkpt><trkpt lat="44.26463646601257" lon="9.429856399803663"><ele>27.0</ele><time>2026-05-01T11:58:04.003Z</time></trkpt><trkpt lat="44.26457661985959" lon="9.430039670136905"><ele>27.0</ele><time>2026-05-01T11:58:05.003Z</time></trkpt><trkpt lat="44.264573362979284" lon="9.430213515455897"><ele>27.0</ele><time>2026-05-01T11:58:06.003Z</time></trkpt><trkpt lat="44.26457577971119" lon="9.430352286696776"><ele>27.0</ele><time>2026-05-01T11:58:07.003Z</time></trkpt><trkpt lat="44.264606165614964" lon="9.430462965161686"><ele>26.75</ele><time>2026-05-01T11:58:08.003Z</time></trkpt><trkpt lat="44.2646685066741" lon="9.430558884595063"><ele>26.5</ele><time>2026-05-01T11:58:09.003Z</time></trkpt><trkpt lat="44.26477304134663" lon="9.43064327925758"><ele>26.25</ele><time>2026-05-01T11:58:10.003Z</time></trkpt><trkpt lat="44.26489683852099" lon="9.43072334806693"><ele>26.0</ele><time>2026-05-01T11:58:11.003Z</time></trkpt><trkpt lat="44.264967598941375" lon="9.430822222463133"><ele>28.6</ele><time>2026-05-01T11:58:12.003Z</time></trkpt><trkpt lat="44.264988169387856" lon="9.430923626667456"><ele>31.200000000000003</ele><time>2026-05-01T11:58:13.003Z</time></trkpt><trkpt lat="44.26499719094511" lon="9.431047057060647"><ele>33.8</ele><time>2026-05-01T11:58:14.003Z</time></trkpt><trkpt lat="44.26490261518167" lon="9.43115811217054"><ele>36.4</ele><time>2026-05-01T11:58:15.003Z</time></trkpt><trkpt lat="44.26484712707869" lon="9.431296250357804"><ele>39.0</ele><time>2026-05-01T11:58:16.003Z</time></trkpt><trkpt lat="44.26484690197391" lon="9.431452620416662"><ele>39.25</ele><time>2026-05-01T11:58:17.003Z</time></trkpt><trkpt lat="44.26492187040178" lon="9.431620217943737"><ele>39.5</ele><time>2026-05-01T11:58:18.003Z</time></trkpt><trkpt lat="44.265006275591595" lon="9.431809974462569"><ele>39.75</ele><time>2026-05-01T11:58:19.003Z</time></trkpt><trkpt lat="44.26506315555425" lon="9.431997816889242"><ele>40.0</ele><time>2026-05-01T11:58:20.003Z</time></trkpt><trkpt lat="44.26509636801947" lon="9.432149147213133"><ele>40.0</ele><time>2026-05-01T11:58:21.003Z</time></trkpt><trkpt lat="44.26513470474541" lon="9.432263264629764"><ele>40.0</ele><time>2026-05-01T11:58:22.003Z</time></trkpt><trkpt lat="44.26518977579805" lon="9.43234181767046"><ele>40.0</ele><time>2026-05-01T11:58:23.003Z</time></trkpt><trkpt lat="44.26526751523584" lon="9.43239783578733"><ele>40.0</ele><time>2026-05-01T11:58:24Z</time></trkpt><trkpt lat="44.26536374411345" lon="9.43243489163014"><ele>40.0</ele><time>2026-05-01T11:58:25Z</time></trkpt><trkpt lat="44.26545237815746" lon="9.432477394950295"><ele>40.0</ele><time>2026-05-01T11:58:26Z</time></trkpt><trkpt lat="44.26552241968219" lon="9.432534366465742"><ele>40.0</ele><time>2026-05-01T11:58:27Z</time></trkpt><trkpt lat="44.26556833944935" lon="9.432624201037374"><ele>40.0</ele><time>2026-05-01T11:58:28Z</time></trkpt><trkpt lat="44.265592270296175" lon="9.432738036333305"><ele>40.0</ele><time>2026-05-01T11:58:29Z</time></trkpt><trkpt lat="44.2655722776583" lon="9.432854100939075"><ele>40.0</ele><time>2026-05-01T11:58:30Z</time></trkpt><trkpt lat="44.26555472429495" lon="9.432968543185734"><ele>40.0</ele><time>2026-05-01T11:58:31Z</time></trkpt><trkpt lat="44.26557150105877" lon="9.43306994010214"><ele>39.833333333333336</ele><time>2026-05-01T11:58:32Z</time></trkpt><trkpt lat="44.26559471047741" lon="9.433172871670532"><ele>39.66666666666667</ele><time>2026-05-01T11:58:33Z</time></trkpt><trkpt lat="44.265645023388295" lon="9.433264886099712"><ele>39.5</ele><time>2026-05-01T11:58:34Z</time></trkpt><trkpt lat="44.26568362037592" lon="9.433373167261651"><ele>39.333333333333336</ele><time>2026-05-01T11:58:35Z</time></trkpt><trkpt lat="44.265687333011385" lon="9.433506719064935"><ele>39.166666666666664</ele><time>2026-05-01T11:58:36Z</time></trkpt><trkpt lat="44.26566166172584" lon="9.433633232519872"><ele>39.0</ele><time>2026-05-01T11:58:37Z</time></trkpt><trkpt lat="44.26557410076873" lon="9.43373824107409"><ele>40.5</ele><time>2026-05-01T11:58:38Z</time></trkpt><trkpt lat="44.26553538672881" lon="9.433937710780317"><ele>42.0</ele><time>2026-05-01T11:58:39Z</time></trkpt><trkpt lat="44.26555652971865" lon="9.434170861436915"><ele>43.5</ele><time>2026-05-01T11:58:40Z</time></trkpt><trkpt lat="44.265519225446575" lon="9.434348411871126"><ele>45.0</ele><time>2026-05-01T11:58:41Z</time></trkpt><trkpt lat="44.26546345861698" lon="9.43447262250095"><ele>45.0</ele><time>2026-05-01T11:58:42Z</time></trkpt><trkpt lat="44.2654362407474" lon="9.434630095678319"><ele>45.0</ele><time>2026-05-01T11:58:43Z</time></trkpt><trkpt lat="44.265457010767335" lon="9.43479442150299"><ele>45.0</ele><time>2026-05-01T11:58:44Z</time></trkpt><trkpt lat="44.265498177359206" lon="9.434974351856113"><ele>45.0</ele><time>2026-05-01T11:58:45Z</time></trkpt><trkpt lat="44.26550625113729" lon="9.435166607298633"><ele>46.25</ele><time>2026-05-01T11:58:46Z</time></trkpt><trkpt lat="44.26548031584053" lon="9.435329167684865"><ele>47.5</ele><time>2026-05-01T11:58:47Z</time></trkpt><trkpt lat="44.2654433765463" lon="9.435526227815657"><ele>48.75</ele><time>2026-05-01T11:58:48Z</time></trkpt><trkpt lat="44.26540091807404" lon="9.435768594041035"><ele>50.0</ele><time>2026-05-01T11:58:49Z</time></trkpt><trkpt lat="44.26534659928447" lon="9.436003996848807"><ele>53.333333333333336</ele><time>2026-05-01T11:58:50Z</time></trkpt><trkpt lat="44.26526438096465" lon="9.436199810767564"><ele>56.66666666666667</ele><time>2026-05-01T11:58:51Z</time></trkpt><trkpt lat="44.2651744124839" lon="9.436376103599668"><ele>60.0</ele><time>2026-05-01T11:58:52Z</time></trkpt><trkpt lat="44.26510450972186" lon="9.436552464752069"><ele>62.75</ele><time>2026-05-01T11:58:53Z</time></trkpt><trkpt lat="44.26503332643847" lon="9.43671497492973"><ele>65.5</ele><time>2026-05-01T11:58:54Z</time></trkpt><trkpt lat="44.26498556494673" lon="9.436897840193533"><ele>68.25</ele><time>2026-05-01T11:58:55Z</time></trkpt><trkpt lat="44.26498650027644" lon="9.43709056736584"><ele>71.0</ele><time>2026-05-01T11:58:56Z</time></trkpt><trkpt lat="44.265044960259026" lon="9.437284321857515"><ele>73.25</ele><time>2026-05-01T11:58:57Z</time></trkpt><trkpt lat="44.265145177328776" lon="9.437473015978597"><ele>75.5</ele><time>2026-05-01T11:58:58Z</time></trkpt><trkpt lat="44.265195933004165" lon="9.43763721156378"><ele>77.75</ele><time>2026-05-01T11:58:59.001Z</time></trkpt><trkpt lat="44.265214549932324" lon="9.43775389071597"><ele>80.0</ele><time>2026-05-01T11:59:00.001Z</time></trkpt><trkpt lat="44.26518497257885" lon="9.43787323391261"><ele>80.0</ele><time>2026-05-01T11:59:01.001Z</time></trkpt><trkpt lat="44.265063229849524" lon="9.437940759496966"><ele>80.0</ele><time>2026-05-01T11:59:02.001Z</time></trkpt><trkpt lat="44.26495222237483" lon="9.438071854556771"><ele>80.0</ele><time>2026-05-01T11:59:03.001Z</time></trkpt><trkpt lat="44.26489943595293" lon="9.438269379875237"><ele>80.0</ele><time>2026-05-01T11:59:04.001Z</time></trkpt><trkpt lat="44.26487667484075" lon="9.438493550182212"><ele>82.5</ele><time>2026-05-01T11:59:05.001Z</time></trkpt><trkpt lat="44.26488092167168" lon="9.438707283568805"><ele>85.0</ele><time>2026-05-01T11:59:06.001Z</time></trkpt><trkpt lat="44.264912195932766" lon="9.438892062932188"><ele>87.5</ele><time>2026-05-01T11:59:07.001Z</time></trkpt><trkpt lat="44.264996707121114" lon="9.439055356150412"><ele>90.0</ele><time>2026-05-01T11:59:08.001Z</time></trkpt><trkpt lat="44.26512845145037" lon="9.439178121776228"><ele>90.5</ele><time>2026-05-01T11:59:09.001Z</time></trkpt><trkpt lat="44.26525530513857" lon="9.439268136882673"><ele>91.0</ele><time>2026-05-01T11:59:10.001Z</time></trkpt><trkpt lat="44.26531297160947" lon="9.439384185577001"><ele>91.5</ele><time>2026-05-01T11:59:11.001Z</time></trkpt><trkpt lat="44.26531879943492" lon="9.439511414575316"><ele>92.0</ele><time>2026-05-01T11:59:12.001Z</time></trkpt><trkpt lat="44.26528393782477" lon="9.439668290182581"><ele>93.66666666666667</ele><time>2026-05-01T11:59:13.001Z</time></trkpt><trkpt lat="44.265210617250574" lon="9.439845162623662"><ele>95.33333333333334</ele><time>2026-05-01T11:59:14.001Z</time></trkpt><trkpt lat="44.265110811635445" lon="9.440045252413723"><ele>97.0</ele><time>2026-05-01T11:59:15.001Z</time></trkpt><trkpt lat="44.26499969259228" lon="9.440252704796134"><ele>97.0</ele><time>2026-05-01T11:59:16.001Z</time></trkpt><trkpt lat="44.26489133350497" lon="9.440445799829904"><ele>97.0</ele><time>2026-05-01T11:59:17.001Z</time></trkpt><trkpt lat="44.26480142510037" lon="9.44062526211073"><ele>97.0</ele><time>2026-05-01T11:59:18.001Z</time></trkpt><trkpt lat="44.26468847764293" lon="9.440734142645281"><ele>98.19999999999999</ele><time>2026-05-01T11:59:19.001Z</time></trkpt><trkpt lat="44.264577058389925" lon="9.440801975347625"><ele>99.4</ele><time>2026-05-01T11:59:20.001Z</time></trkpt><trkpt lat="44.26448296520163" lon="9.440852569352986"><ele>100.6</ele><time>2026-05-01T11:59:21.001Z</time></trkpt><trkpt lat="44.26440707761502" lon="9.440903416310405"><ele>101.80000000000001</ele><time>2026-05-01T11:59:22.001Z</time></trkpt><trkpt lat="44.264339807926675" lon="9.440957536085511"><ele>103.0</ele><time>2026-05-01T11:59:23.001Z</time></trkpt><trkpt lat="44.26426650537276" lon="9.441011074609115"><ele>103.0</ele><time>2026-05-01T11:59:24.001Z</time></trkpt><trkpt lat="44.26417965513584" lon="9.441049777934209"><ele>103.0</ele><time>2026-05-01T11:59:25.001Z</time></trkpt><trkpt lat="44.26408369254182" lon="9.441086656732514"><ele>103.0</ele><time>2026-05-01T11:59:26.001Z</time></trkpt><trkpt lat="44.26399268941033" lon="9.441133539319889"><ele>103.0</ele><time>2026-05-01T11:59:27.001Z</time></trkpt><trkpt lat="44.263902255658465" lon="9.44119254992213"><ele>103.0</ele><time>2026-05-01T11:59:28.001Z</time></trkpt><trkpt lat="44.26384970986619" lon="9.441329216076584"><ele>104.66666666666667</ele><time>2026-05-01T11:59:29.001Z</time></trkpt><trkpt lat="44.26380834581637" lon="9.441435635054237"><ele>106.33333333333334</ele><time>2026-05-01T11:59:30.001Z</time></trkpt><trkpt lat="44.263760720626145" lon="9.441496419077888"><ele>108.0</ele><time>2026-05-01T11:59:31.001Z</time></trkpt><trkpt lat="44.26369878076583" lon="9.441575574281185"><ele>109.66666666666666</ele><time>2026-05-01T11:59:33.001Z</time></trkpt><trkpt lat="44.26362357139114" lon="9.441589473742233"><ele>111.33333333333333</ele><time>2026-05-01T11:59:34.002Z</time></trkpt><trkpt lat="44.26353950681822" lon="9.441622601056759"><ele>113.0</ele><time>2026-05-01T11:59:35.002Z</time></trkpt><trkpt lat="44.26345648661435" lon="9.44168262350686"><ele>113.0</ele><time>2026-05-01T11:59:36.002Z</time></trkpt><trkpt lat="44.263379315696156" lon="9.441729807187384"><ele>113.00000000000001</ele><time>2026-05-01T11:59:37.002Z</time></trkpt><trkpt lat="44.26330956651946" lon="9.441786437229295"><ele>113.00000000000001</ele><time>2026-05-01T11:59:38.002Z</time></trkpt><trkpt lat="44.26325803206325" lon="9.441901814340703"><ele>113.0</ele><time>2026-05-01T11:59:39.002Z</time></trkpt><trkpt lat="44.2632383306458" lon="9.442047343163157"><ele>113.0</ele><time>2026-05-01T11:59:40.002Z</time></trkpt><trkpt lat="44.26322138979703" lon="9.44216930688315"><ele>113.83333333333333</ele><time>2026-05-01T11:59:41.002Z</time></trkpt><trkpt lat="44.26320207423898" lon="9.442279581189114"><ele>114.66666666666666</ele><time>2026-05-01T11:59:42.002Z</time></trkpt><trkpt lat="44.26317407796555" lon="9.44237391417906"><ele>115.5</ele><time>2026-05-01T11:59:43.002Z</time></trkpt><trkpt lat="44.26312261727589" lon="9.442472435713722"><ele>116.33333333333334</ele><time>2026-05-01T11:59:44.002Z</time></trkpt><trkpt lat="44.26305399930085" lon="9.442567561365573"><ele>117.16666666666667</ele><time>2026-05-01T11:59:45.002Z</time></trkpt><trkpt lat="44.262989491201964" lon="9.442664564708613"><ele>118.0</ele><time>2026-05-01T11:59:46.002Z</time></trkpt><trkpt lat="44.26293531780718" lon="9.442748786852558"><ele>118.00000000000001</ele><time>2026-05-01T11:59:47.002Z</time></trkpt><trkpt lat="44.2628852499192" lon="9.442818951966874"><ele>118.0</ele><time>2026-05-01T11:59:48.002Z</time></trkpt><trkpt lat="44.262832968938646" lon="9.442876953070202"><ele>118.0</ele><time>2026-05-01T11:59:49.002Z</time></trkpt><trkpt lat="44.262754899778365" lon="9.44288663418655"><ele>118.0</ele><time>2026-05-01T11:59:50.002Z</time></trkpt><trkpt lat="44.26265486473664" lon="9.442899815147076"><ele>118.00000000000001</ele><time>2026-05-01T11:59:51.002Z</time></trkpt><trkpt lat="44.262548899923516" lon="9.442882983426232"><ele>118.0</ele><time>2026-05-01T11:59:52.002Z</time></trkpt><trkpt lat="44.262466603020385" lon="9.442898697418027"><ele>118.00000000000001</ele><time>2026-05-01T11:59:53.002Z</time></trkpt><trkpt lat="44.262400791853985" lon="9.442944678955183"><ele>118.0</ele><time>2026-05-01T11:59:54.002Z</time></trkpt><trkpt lat="44.26234941617263" lon="9.443004559762125"><ele>118.0</ele><time>2026-05-01T11:59:55.002Z</time></trkpt><trkpt lat="44.26228767115908" lon="9.443079463409058"><ele>118.0</ele><time>2026-05-01T11:59:56.002Z</time></trkpt><trkpt lat="44.26226869139198" lon="9.443202985820566"><ele>118.00000000000001</ele><time>2026-05-01T11:59:57.002Z</time></trkpt><trkpt lat="44.26224172801358" lon="9.443297564786345"><ele>118.0</ele><time>2026-05-01T11:59:58.002Z</time></trkpt><trkpt lat="44.26221194493831" lon="9.443400724219257"><ele>118.66666666666667</ele><time>2026-05-01T11:59:59.002Z</time></trkpt><trkpt lat="44.26217247355252" lon="9.443510645160023"><ele>119.33333333333334</ele><time>2026-05-01T12:00:00.002Z</time></trkpt><trkpt lat="44.262142690050986" lon="9.44362465865632"><ele>120.0</ele><time>2026-05-01T12:00:01.002Z</time></trkpt><trkpt lat="44.26211424219279" lon="9.443732584246622"><ele>120.66666666666666</ele><time>2026-05-01T12:00:02.002Z</time></trkpt><trkpt lat="44.26208745013678" lon="9.443827428266177"><ele>121.33333333333333</ele><time>2026-05-01T12:00:03.002Z</time></trkpt><trkpt lat="44.26205536358005" lon="9.443913543191238"><ele>122.0</ele><time>2026-05-01T12:00:04.002Z</time></trkpt><trkpt lat="44.26201196739019" lon="9.44401012170408"><ele>124.7142857142857</ele><time>2026-05-01T12:00:05.002Z</time></trkpt><trkpt lat="44.26196037560495" lon="9.444087376706644"><ele>127.42857142857142</ele><time>2026-05-01T12:00:06.002Z</time></trkpt><trkpt lat="44.261900490337496" lon="9.444128684906218"><ele>130.14285714285714</ele><time>2026-05-01T12:00:07.002Z</time></trkpt><trkpt lat="44.261838966047094" lon="9.444161508616528"><ele>132.85714285714283</ele><time>2026-05-01T12:00:08.002Z</time></trkpt><trkpt lat="44.26176540168793" lon="9.444096749081002"><ele>135.57142857142856</ele><time>2026-05-01T12:00:09.002Z</time></trkpt><trkpt lat="44.26169100738878" lon="9.444071400016638"><ele>138.28571428571428</ele><time>2026-05-01T12:00:10.003Z</time></trkpt><trkpt lat="44.261621836190606" lon="9.444050829736572"><ele>141.0</ele><time>2026-05-01T12:00:11.003Z</time></trkpt><trkpt lat="44.26155680053129" lon="9.444072193594625"><ele>141.0</ele><time>2026-05-01T12:00:12.003Z</time></trkpt><trkpt lat="44.26148336799963" lon="9.444070772972598"><ele>141.0</ele><time>2026-05-01T12:00:13.003Z</time></trkpt><trkpt lat="44.26140633336217" lon="9.444108064920975"><ele>141.0</ele><time>2026-05-01T12:00:14.003Z</time></trkpt><trkpt lat="44.261320693733154" lon="9.444184856509144"><ele>141.0</ele><time>2026-05-01T12:00:15.003Z</time></trkpt><trkpt lat="44.26122894693065" lon="9.444302067708483"><ele>141.0</ele><time>2026-05-01T12:00:16.003Z</time></trkpt><trkpt lat="44.26114883574489" lon="9.444480760199742"><ele>144.6</ele><time>2026-05-01T12:00:17.003Z</time></trkpt><trkpt lat="44.261120177329566" lon="9.444713722179912"><ele>148.2</ele><time>2026-05-01T12:00:18.003Z</time></trkpt><trkpt lat="44.26106222286366" lon="9.444828164691295"><ele>151.8</ele><time>2026-05-01T12:00:19.003Z</time></trkpt><trkpt lat="44.261018666767654" lon="9.444904736238632"><ele>155.4</ele><time>2026-05-01T12:00:20.003Z</time></trkpt><trkpt lat="44.26092018491245" lon="9.444853703788825"><ele>159.0</ele><time>2026-05-01T12:00:21.003Z</time></trkpt><trkpt lat="44.26077594011656" lon="9.444820136424418"><ele>155.25</ele><time>2026-05-01T12:00:22.003Z</time></trkpt><trkpt lat="44.26060437911147" lon="9.444789159255993"><ele>151.5</ele><time>2026-05-01T12:00:23.003Z</time></trkpt><trkpt lat="44.26044718055337" lon="9.44476924707144"><ele>147.75</ele><time>2026-05-01T12:00:24.003Z</time></trkpt><trkpt lat="44.26033321204437" lon="9.44479017983525"><ele>144.0</ele><time>2026-05-01T12:00:25.003Z</time></trkpt><trkpt lat="44.26023696131775" lon="9.44487192819648"><ele>144.0</ele><time>2026-05-01T12:00:26.003Z</time></trkpt><trkpt lat="44.260150017197596" lon="9.445013591607548"><ele>144.0</ele><time>2026-05-01T12:00:27.003Z</time></trkpt><trkpt lat="44.26009105851527" lon="9.445208601148225"><ele>144.0</ele><time>2026-05-01T12:00:28.003Z</time></trkpt><trkpt lat="44.26007281240545" lon="9.445417380072303"><ele>144.0</ele><time>2026-05-01T12:00:29.003Z</time></trkpt><trkpt lat="44.260090551449686" lon="9.445617222269842"><ele>145.25</ele><time>2026-05-01T12:00:30Z</time></trkpt><trkpt lat="44.260146926782426" lon="9.445808549297368"><ele>146.5</ele><time>2026-05-01T12:00:31Z</time></trkpt><trkpt lat="44.26023693540183" lon="9.44597809599674"><ele>147.75</ele><time>2026-05-01T12:00:32Z</time></trkpt><trkpt lat="44.26034942979912" lon="9.446091779392027"><ele>149.0</ele><time>2026-05-01T12:00:33Z</time></trkpt><trkpt lat="44.26047638880675" lon="9.446158405412929"><ele>149.0</ele><time>2026-05-01T12:00:34Z</time></trkpt><trkpt lat="44.260610783020134" lon="9.446195957275009"><ele>149.0</ele><time>2026-05-01T12:00:35Z</time></trkpt><trkpt lat="44.260744188498656" lon="9.446197485794128"><ele>149.0</ele><time>2026-05-01T12:00:36Z</time></trkpt><trkpt lat="44.26086694418259" lon="9.446144513917151"><ele>149.0</ele><time>2026-05-01T12:00:37Z</time></trkpt><trkpt lat="44.260980211569056" lon="9.446033888335528"><ele>156.66666666666666</ele><time>2026-05-01T12:00:38Z</time></trkpt><trkpt lat="44.2611175287703" lon="9.445886531767314"><ele>164.33333333333334</ele><time>2026-05-01T12:00:39Z</time></trkpt><trkpt lat="44.26129683528957" lon="9.445779122650587"><ele>172.0</ele><time>2026-05-01T12:00:40Z</time></trkpt><trkpt lat="44.26144749848898" lon="9.445646946133456"><ele>173.75</ele><time>2026-05-01T12:00:41Z</time></trkpt><trkpt lat="44.26157825595768" lon="9.445574126494177"><ele>175.5</ele><time>2026-05-01T12:00:42Z</time></trkpt><trkpt lat="44.261691047106595" lon="9.445514488159128"><ele>177.25</ele><time>2026-05-01T12:00:43Z</time></trkpt><trkpt lat="44.26179542050976" lon="9.445480607007353"><ele>179.0</ele><time>2026-05-01T12:00:44Z</time></trkpt><trkpt lat="44.26190040680346" lon="9.445501313223831"><ele>179.0</ele><time>2026-05-01T12:00:45Z</time></trkpt><trkpt lat="44.2620148613251" lon="9.445596654244172"><ele>179.0</ele><time>2026-05-01T12:00:46Z</time></trkpt><trkpt lat="44.262131619320414" lon="9.445729268529053"><ele>179.0</ele><time>2026-05-01T12:00:47Z</time></trkpt><trkpt lat="44.26224315804171" lon="9.445900635143241"><ele>176.33333333333331</ele><time>2026-05-01T12:00:48Z</time></trkpt><trkpt lat="44.26236001185084" lon="9.44607573811005"><ele>173.66666666666666</ele><time>2026-05-01T12:00:49Z</time></trkpt><trkpt lat="44.26248130974074" lon="9.44624026754837"><ele>171.0</ele><time>2026-05-01T12:00:50Z</time></trkpt><trkpt lat="44.2626018307168" lon="9.446371202646928"><ele>177.0</ele><time>2026-05-01T12:00:51Z</time></trkpt><trkpt lat="44.26273131574341" lon="9.446445711448508"><ele>183.0</ele><time>2026-05-01T12:00:52Z</time></trkpt><trkpt lat="44.26288271365847" lon="9.446463868269202"><ele>189.0</ele><time>2026-05-01T12:00:53Z</time></trkpt><trkpt lat="44.26305784618842" lon="9.446453829869828"><ele>187.5</ele><time>2026-05-01T12:00:54Z</time></trkpt><trkpt lat="44.26322967025043" lon="9.446477625614184"><ele>186.0</ele><time>2026-05-01T12:00:55Z</time></trkpt><trkpt lat="44.263365905960555" lon="9.446505249519397"><ele>184.5</ele><time>2026-05-01T12:00:56Z</time></trkpt><trkpt lat="44.26346439214347" lon="9.446548196664242"><ele>183.0</ele><time>2026-05-01T12:00:57Z</time></trkpt><trkpt lat="44.263523948336044" lon="9.446624210683199"><ele>183.0</ele><time>2026-05-01T12:00:58Z</time></trkpt><trkpt lat="44.263529109879826" lon="9.446735168680792"><ele>183.0</ele><time>2026-05-01T12:00:59Z</time></trkpt><trkpt lat="44.2634750422404" lon="9.446832765422942"><ele>183.0</ele><time>2026-05-01T12:01:00Z</time></trkpt><trkpt lat="44.26336559853536" lon="9.446873922503352"><ele>183.0</ele><time>2026-05-01T12:01:01Z</time></trkpt><trkpt lat="44.26324235317142" lon="9.446928244861626"><ele>183.0</ele><time>2026-05-01T12:01:02Z</time></trkpt><trkpt lat="44.26308785462042" lon="9.446964603977767"><ele>185.0</ele><time>2026-05-01T12:01:03Z</time></trkpt><trkpt lat="44.26290813442456" lon="9.446976811542738"><ele>187.0</ele><time>2026-05-01T12:01:04Z</time></trkpt><trkpt lat="44.26275238245478" lon="9.447002707310762"><ele>189.0</ele><time>2026-05-01T12:01:05Z</time></trkpt><trkpt lat="44.26260676813418" lon="9.447045006005109"><ele>185.66666666666666</ele><time>2026-05-01T12:01:06.001Z</time></trkpt><trkpt lat="44.26245073040784" lon="9.447169182969873"><ele>182.33333333333331</ele><time>2026-05-01T12:01:07.001Z</time></trkpt><trkpt lat="44.26227759559583" lon="9.44733354746598"><ele>179.0</ele><time>2026-05-01T12:01:08.001Z</time></trkpt><trkpt lat="44.262087168022724" lon="9.447375766631746"><ele>184.0</ele><time>2026-05-01T12:01:09.001Z</time></trkpt><trkpt lat="44.26194945387591" lon="9.447468058046221"><ele>189.0</ele><time>2026-05-01T12:01:10.001Z</time></trkpt><trkpt lat="44.26184261034806" lon="9.44758371097416"><ele>194.0</ele><time>2026-05-01T12:01:11.001Z</time></trkpt><trkpt lat="44.26176106248065" lon="9.447775452470209"><ele>199.0</ele><time>2026-05-01T12:01:12.001Z</time></trkpt><trkpt lat="44.26171320399932" lon="9.448029946735083"><ele>199.0</ele><time>2026-05-01T12:01:13.001Z</time></trkpt><trkpt lat="44.261688294101745" lon="9.448312488232274"><ele>199.0</ele><time>2026-05-01T12:01:14.001Z</time></trkpt><trkpt lat="44.261671229666064" lon="9.448605021050966"><ele>199.0</ele><time>2026-05-01T12:01:15.001Z</time></trkpt><trkpt lat="44.26165400891401" lon="9.448877608679147"><ele>199.0</ele><time>2026-05-01T12:01:16.001Z</time></trkpt><trkpt lat="44.26162005493076" lon="9.44913611500799"><ele>199.0</ele><time>2026-05-01T12:01:17.001Z</time></trkpt><trkpt lat="44.26154068586992" lon="9.449414499203806"><ele>199.0</ele><time>2026-05-01T12:01:18.001Z</time></trkpt><trkpt lat="44.26145500662382" lon="9.449720433551333"><ele>205.0</ele><time>2026-05-01T12:01:19.001Z</time></trkpt><trkpt lat="44.26139576040558" lon="9.450014527238041"><ele>211.0</ele><time>2026-05-01T12:01:20.001Z</time></trkpt><trkpt lat="44.26133296120794" lon="9.45029231445812"><ele>217.0</ele><time>2026-05-01T12:01:21.001Z</time></trkpt><trkpt lat="44.26134189160968" lon="9.45054910542659"><ele>218.75</ele><time>2026-05-01T12:01:22.001Z</time></trkpt><trkpt lat="44.26134511975333" lon="9.450744436538477"><ele>220.5</ele><time>2026-05-01T12:01:23.001Z</time></trkpt><trkpt lat="44.26129377417168" lon="9.450883934288541"><ele>222.25</ele><time>2026-05-01T12:01:24.001Z</time></trkpt><trkpt lat="44.261209130540024" lon="9.450969417156227"><ele>224.0</ele><time>2026-05-01T12:01:25.001Z</time></trkpt><trkpt lat="44.26109270394041" lon="9.451045837987214"><ele>224.0</ele><time>2026-05-01T12:01:26.001Z</time></trkpt><trkpt lat="44.26095708486614" lon="9.451145551161098"><ele>224.0</ele><time>2026-05-01T12:01:27.001Z</time></trkpt><trkpt lat="44.26085502471444" lon="9.451244423976878"><ele>224.0</ele><time>2026-05-01T12:01:28.001Z</time></trkpt><trkpt lat="44.26075781541942" lon="9.45130699576669"><ele>224.0</ele><time>2026-05-01T12:01:29.001Z</time></trkpt><trkpt lat="44.26064285038219" lon="9.45138291145134"><ele>226.0</ele><time>2026-05-01T12:01:30.001Z</time></trkpt><trkpt lat="44.26053446407771" lon="9.451559481792382"><ele>228.0</ele><time>2026-05-01T12:01:31.001Z</time></trkpt><trkpt lat="44.260469033159396" lon="9.451757725770427"><ele>230.0</ele><time>2026-05-01T12:01:32.001Z</time></trkpt><trkpt lat="44.2603685097685" lon="9.451851927330534"><ele>232.0</ele><time>2026-05-01T12:01:33.001Z</time></trkpt><trkpt lat="44.260270310450046" lon="9.451940733155514"><ele>232.0</ele><time>2026-05-01T12:01:34.001Z</time></trkpt><trkpt lat="44.260159780879434" lon="9.452002712350714"><ele>232.0</ele><time>2026-05-01T12:01:35.001Z</time></trkpt><trkpt lat="44.2600529637397" lon="9.452030116243249"><ele>232.0</ele><time>2026-05-01T12:01:36.001Z</time></trkpt><trkpt lat="44.25996611080072" lon="9.452072905956278"><ele>232.0</ele><time>2026-05-01T12:01:37.001Z</time></trkpt><trkpt lat="44.25989195112921" lon="9.45213184733673"><ele>232.0</ele><time>2026-05-01T12:01:38.001Z</time></trkpt><trkpt lat="44.259836727095845" lon="9.452235314305709"><ele>231.5</ele><time>2026-05-01T12:01:39.001Z</time></trkpt><trkpt lat="44.25984385728849" lon="9.452415393338605"><ele>231.0</ele><time>2026-05-01T12:01:40.001Z</time></trkpt><trkpt lat="44.259857406182846" lon="9.452602532429612"><ele>230.5</ele><time>2026-05-01T12:01:41.002Z</time></trkpt><trkpt lat="44.25990812533852" lon="9.452784489758862"><ele>230.0</ele><time>2026-05-01T12:01:42.002Z</time></trkpt><trkpt lat="44.25996221364193" lon="9.452958350986664"><ele>231.5</ele><time>2026-05-01T12:01:43.002Z</time></trkpt><trkpt lat="44.260020379184745" lon="9.453145318324903"><ele>233.0</ele><time>2026-05-01T12:01:44.002Z</time></trkpt><trkpt lat="44.26007463764884" lon="9.453334022518982"><ele>234.5</ele><time>2026-05-01T12:01:45.002Z</time></trkpt><trkpt lat="44.260123973602454" lon="9.453510518533806"><ele>236.0</ele><time>2026-05-01T12:01:46.002Z</time></trkpt><trkpt lat="44.260166898090255" lon="9.45367254133864"><ele>237.60000000000002</ele><time>2026-05-01T12:01:47.002Z</time></trkpt><trkpt lat="44.26020400501005" lon="9.453813573632953"><ele>239.20000000000002</ele><time>2026-05-01T12:01:48.002Z</time></trkpt><trkpt lat="44.260229182749875" lon="9.453947787141965"><ele>240.79999999999998</ele><time>2026-05-01T12:01:49.002Z</time></trkpt><trkpt lat="44.26023817420677" lon="9.45409704960566"><ele>242.39999999999998</ele><time>2026-05-01T12:01:50.002Z</time></trkpt><trkpt lat="44.2602325474925" lon="9.454254494982644"><ele>244.0</ele><time>2026-05-01T12:01:51.002Z</time></trkpt><trkpt lat="44.26018754778846" lon="9.454403937730225"><ele>244.0</ele><time>2026-05-01T12:01:52.002Z</time></trkpt><trkpt lat="44.260115173965225" lon="9.454590123044943"><ele>244.0</ele><time>2026-05-01T12:01:53.002Z</time></trkpt><trkpt lat="44.26002235956946" lon="9.454816015237334"><ele>244.0</ele><time>2026-05-01T12:01:54.002Z</time></trkpt><trkpt lat="44.25993163762183" lon="9.455035026325616"><ele>242.5</ele><time>2026-05-01T12:01:55.002Z</time></trkpt><trkpt lat="44.25985912292582" lon="9.455210075293527"><ele>241.0</ele><time>2026-05-01T12:01:56.002Z</time></trkpt><trkpt lat="44.2597990540663" lon="9.45535377509166"><ele>239.5</ele><time>2026-05-01T12:01:57.002Z</time></trkpt><trkpt lat="44.25974782207181" lon="9.455476334992646"><ele>238.0</ele><time>2026-05-01T12:01:58.002Z</time></trkpt><trkpt lat="44.25969950044462" lon="9.45559306442943"><ele>237.5</ele><time>2026-05-01T12:01:59.002Z</time></trkpt><trkpt lat="44.25966988040705" lon="9.455731649393153"><ele>237.0</ele><time>2026-05-01T12:02:00.002Z</time></trkpt><trkpt lat="44.25969206932" lon="9.4558879517795"><ele>236.5</ele><time>2026-05-01T12:02:01.002Z</time></trkpt><trkpt lat="44.25976633003876" lon="9.456044083847058"><ele>236.0</ele><time>2026-05-01T12:02:02.002Z</time></trkpt><trkpt lat="44.25980894936177" lon="9.45618629409865"><ele>237.4</ele><time>2026-05-01T12:02:03.002Z</time></trkpt><trkpt lat="44.25981553582975" lon="9.456321909426746"><ele>238.8</ele><time>2026-05-01T12:02:04.002Z</time></trkpt><trkpt lat="44.25980113793416" lon="9.456449945682023"><ele>240.20000000000002</ele><time>2026-05-01T12:02:05.002Z</time></trkpt><trkpt lat="44.25976854256399" lon="9.456593531687643"><ele>241.60000000000002</ele><time>2026-05-01T12:02:06.002Z</time></trkpt><trkpt lat="44.25974157008775" lon="9.456748910510747"><ele>243.0</ele><time>2026-05-01T12:02:07.002Z</time></trkpt><trkpt lat="44.25973506405282" lon="9.456886488948832"><ele>245.0</ele><time>2026-05-01T12:02:08.002Z</time></trkpt><trkpt lat="44.25975425508467" lon="9.457025356926833"><ele>247.0</ele><time>2026-05-01T12:02:09.002Z</time></trkpt><trkpt lat="44.259809884066016" lon="9.4571542324952"><ele>249.0</ele><time>2026-05-01T12:02:10.002Z</time></trkpt><trkpt lat="44.25990411179051" lon="9.457235895448365"><ele>251.0</ele><time>2026-05-01T12:02:11.002Z</time></trkpt><trkpt lat="44.25998514428891" lon="9.457315820793262"><ele>253.0</ele><time>2026-05-01T12:02:12.002Z</time></trkpt><trkpt lat="44.260054496105774" lon="9.457389625560815"><ele>252.99999999999997</ele><time>2026-05-01T12:02:13.002Z</time></trkpt><trkpt lat="44.260111619606356" lon="9.45746799146136"><ele>253.0</ele><time>2026-05-01T12:02:14.002Z</time></trkpt><trkpt lat="44.26015495795227" lon="9.457562724495293"><ele>253.0</ele><time>2026-05-01T12:02:15.002Z</time></trkpt><trkpt lat="44.26017240419084" lon="9.457670595990551"><ele>253.0</ele><time>2026-05-01T12:02:16.002Z</time></trkpt><trkpt lat="44.26015299025046" lon="9.45778332144455"><ele>252.99999999999997</ele><time>2026-05-01T12:02:17.003Z</time></trkpt><trkpt lat="44.26011835397099" lon="9.457901076551044"><ele>253.0</ele><time>2026-05-01T12:02:18.003Z</time></trkpt><trkpt lat="44.26003452886709" lon="9.457983678406846"><ele>250.60000000000002</ele><time>2026-05-01T12:02:19.003Z</time></trkpt><trkpt lat="44.25992915420041" lon="9.458005210611674"><ele>248.20000000000002</ele><time>2026-05-01T12:02:20.003Z</time></trkpt><trkpt lat="44.25982633481334" lon="9.458039561399948"><ele>245.8</ele><time>2026-05-01T12:02:21.003Z</time></trkpt><trkpt lat="44.25973816727968" lon="9.458112729642806"><ele>243.4</ele><time>2026-05-01T12:02:22.003Z</time></trkpt><trkpt lat="44.25965871053051" lon="9.458193971029512"><ele>241.0</ele><time>2026-05-01T12:02:23.003Z</time></trkpt><trkpt lat="44.259583081289705" lon="9.458295737347346"><ele>246.25</ele><time>2026-05-01T12:02:24.003Z</time></trkpt><trkpt lat="44.259532917836395" lon="9.458438671353838"><ele>251.5</ele><time>2026-05-01T12:02:25.003Z</time></trkpt><trkpt lat="44.25951362740051" lon="9.458599527759173"><ele>256.75</ele><time>2026-05-01T12:02:26.003Z</time></trkpt><trkpt lat="44.25952564127432" lon="9.45876046776137"><ele>262.0</ele><time>2026-05-01T12:02:27.003Z</time></trkpt><trkpt lat="44.25954545217988" lon="9.458911609852533"><ele>262.0</ele><time>2026-05-01T12:02:28.003Z</time></trkpt><trkpt lat="44.25956640708011" lon="9.459067477786748"><ele>262.0</ele><time>2026-05-01T12:02:29.003Z</time></trkpt><trkpt lat="44.259576814120265" lon="9.4591931484607"><ele>262.0</ele><time>2026-05-01T12:02:30.003Z</time></trkpt><trkpt lat="44.259571962037846" lon="9.459304961821985"><ele>262.0</ele><time>2026-05-01T12:02:31.003Z</time></trkpt><trkpt lat="44.25953899666693" lon="9.459409301344769"><ele>262.0</ele><time>2026-05-01T12:02:32.003Z</time></trkpt><trkpt lat="44.25945700052187" lon="9.459472607306717"><ele>262.0</ele><time>2026-05-01T12:02:33.003Z</time></trkpt><trkpt lat="44.25934022293136" lon="9.45950760213379"><ele>262.0</ele><time>2026-05-01T12:02:34.003Z</time></trkpt><trkpt lat="44.259174902236474" lon="9.459465394344955"><ele>262.0</ele><time>2026-05-01T12:02:35.003Z</time></trkpt><trkpt lat="44.25898403568717" lon="9.459448875935646"><ele>265.75</ele><time>2026-05-01T12:02:36Z</time></trkpt><trkpt lat="44.258835853538" lon="9.459436051618857"><ele>269.5</ele><time>2026-05-01T12:02:37Z</time></trkpt><trkpt lat="44.258718585408964" lon="9.45944804077869"><ele>273.25</ele><time>2026-05-01T12:02:38Z</time></trkpt><trkpt lat="44.25862448903044" lon="9.459550741603794"><ele>277.0</ele><time>2026-05-01T12:02:39Z</time></trkpt><trkpt lat="44.25861012924644" lon="9.459764983029022"><ele>277.0</ele><time>2026-05-01T12:02:40Z</time></trkpt><trkpt lat="44.25857343939531" lon="9.459949654853936"><ele>277.0</ele><time>2026-05-01T12:02:41Z</time></trkpt><trkpt lat="44.258548655269976" lon="9.460111625894568"><ele>277.0</ele><time>2026-05-01T12:02:42Z</time></trkpt><trkpt lat="44.258519174209006" lon="9.460325398897057"><ele>277.0</ele><time>2026-05-01T12:02:43Z</time></trkpt><trkpt lat="44.258483844656254" lon="9.460510233327444"><ele>276.6</ele><time>2026-05-01T12:02:44Z</time></trkpt><trkpt lat="44.25845231724405" lon="9.460669676281443"><ele>276.2</ele><time>2026-05-01T12:02:45Z</time></trkpt><trkpt lat="44.258431447288494" lon="9.460817419494308"><ele>275.8</ele><time>2026-05-01T12:02:46Z</time></trkpt><trkpt lat="44.2584410085136" lon="9.460969419294246"><ele>275.4</ele><time>2026-05-01T12:02:47Z</time></trkpt><trkpt lat="44.25848749729113" lon="9.46111046894242"><ele>275.0</ele><time>2026-05-01T12:02:48Z</time></trkpt><trkpt lat="44.25853402761789" lon="9.461219026314964"><ele>275.6</ele><time>2026-05-01T12:02:49Z</time></trkpt><trkpt lat="44.2585621697766" lon="9.46132108784122"><ele>276.2</ele><time>2026-05-01T12:02:50Z</time></trkpt><trkpt lat="44.25857170701875" lon="9.461431763323752"><ele>276.8</ele><time>2026-05-01T12:02:51Z</time></trkpt><trkpt lat="44.25859006551759" lon="9.461559100094163"><ele>277.4</ele><time>2026-05-01T12:02:52Z</time></trkpt><trkpt lat="44.25859432741854" lon="9.46169498798253"><ele>278.0</ele><time>2026-05-01T12:02:53Z</time></trkpt><trkpt lat="44.25860684437213" lon="9.461835825696491"><ele>278.0</ele><time>2026-05-01T12:02:54Z</time></trkpt><trkpt lat="44.25861473494462" lon="9.46196957802075"><ele>278.0</ele><time>2026-05-01T12:02:55Z</time></trkpt><trkpt lat="44.258647165551906" lon="9.462081374623109"><ele>278.0</ele><time>2026-05-01T12:02:56Z</time></trkpt><trkpt lat="44.258699776694314" lon="9.462179373413647"><ele>278.0</ele><time>2026-05-01T12:02:57Z</time></trkpt><trkpt lat="44.25878862957106" lon="9.46222397680624"><ele>278.0</ele><time>2026-05-01T12:02:58Z</time></trkpt><trkpt lat="44.25886372622145" lon="9.462277442289574"><ele>278.0</ele><time>2026-05-01T12:02:59Z</time></trkpt><trkpt lat="44.25895098346652" lon="9.462333423176155"><ele>277.6666666666667</ele><time>2026-05-01T12:03:00Z</time></trkpt><trkpt lat="44.25901692439429" lon="9.462407457993105"><ele>277.33333333333337</ele><time>2026-05-01T12:03:01Z</time></trkpt><trkpt lat="44.25905734931415" lon="9.462494808775533"><ele>277.0</ele><time>2026-05-01T12:03:02Z</time></trkpt><trkpt lat="44.25907327065304" lon="9.462598973214636"><ele>276.6666666666667</ele><time>2026-05-01T12:03:03Z</time></trkpt><trkpt lat="44.25906258653592" lon="9.462701050901012"><ele>276.3333333333333</ele><time>2026-05-01T12:03:04Z</time></trkpt><trkpt lat="44.25901454117134" lon="9.46280498335164"><ele>276.0</ele><time>2026-05-01T12:03:05Z</time></trkpt><trkpt lat="44.25892704323682" lon="9.462877012516955"><ele>271.2</ele><time>2026-05-01T12:03:06Z</time></trkpt><trkpt lat="44.25883398569023" lon="9.462949798384889"><ele>266.40000000000003</ele><time>2026-05-01T12:03:07Z</time></trkpt><trkpt lat="44.25874143012713" lon="9.463018221308724"><ele>261.6</ele><time>2026-05-01T12:03:08.001Z</time></trkpt><trkpt lat="44.25866878028416" lon="9.463067495889982"><ele>256.8</ele><time>2026-05-01T12:03:09.001Z</time></trkpt><trkpt lat="44.258589655024224" lon="9.463117974827446"><ele>252.0</ele><time>2026-05-01T12:03:10.001Z</time></trkpt><trkpt lat="44.258504927406236" lon="9.463182689052386"><ele>252.0</ele><time>2026-05-01T12:03:11.001Z</time></trkpt><trkpt lat="44.25840776916409" lon="9.463211013331028"><ele>252.0</ele><time>2026-05-01T12:03:12.001Z</time></trkpt><trkpt lat="44.258311305676976" lon="9.463220813760126"><ele>252.0</ele><time>2026-05-01T12:03:13.001Z</time></trkpt><trkpt lat="44.258222213291866" lon="9.46319973799246"><ele>252.0</ele><time>2026-05-01T12:03:14.001Z</time></trkpt><trkpt lat="44.25813764883744" lon="9.46315082721725"><ele>252.0</ele><time>2026-05-01T12:03:15.001Z</time></trkpt><trkpt lat="44.25805211098267" lon="9.46305974940555"><ele>259.0</ele><time>2026-05-01T12:03:16.001Z</time></trkpt><trkpt lat="44.257962013811046" lon="9.462919608976504"><ele>266.0</ele><time>2026-05-01T12:03:17.001Z</time></trkpt><trkpt lat="44.2578337333788" lon="9.46274400025804"><ele>273.0</ele><time>2026-05-01T12:03:18.001Z</time></trkpt><trkpt lat="44.25771821929388" lon="9.462540440838213"><ele>273.0</ele><time>2026-05-01T12:03:19.001Z</time></trkpt><trkpt lat="44.257625758553" lon="9.462370545770474"><ele>273.0</ele><time>2026-05-01T12:03:20.001Z</time></trkpt><trkpt lat="44.25753654572065" lon="9.462249310421232"><ele>273.0</ele><time>2026-05-01T12:03:21.001Z</time></trkpt><trkpt lat="44.25745053911916" lon="9.462148621305653"><ele>273.0</ele><time>2026-05-01T12:03:22.001Z</time></trkpt><trkpt lat="44.25735617581874" lon="9.462106924671756"><ele>274.5</ele><time>2026-05-01T12:03:23.001Z</time></trkpt><trkpt lat="44.25724929043693" lon="9.462128582623784"><ele>276.0</ele><time>2026-05-01T12:03:24.001Z</time></trkpt><trkpt lat="44.25714421300437" lon="9.462207859667616"><ele>277.5</ele><time>2026-05-01T12:03:25.001Z</time></trkpt><trkpt lat="44.25705717394804" lon="9.46233066603512"><ele>279.0</ele><time>2026-05-01T12:03:26.001Z</time></trkpt><trkpt lat="44.25701504176583" lon="9.462485933108052"><ele>279.0</ele><time>2026-05-01T12:03:27.001Z</time></trkpt><trkpt lat="44.25698034655719" lon="9.46260741337844"><ele>279.0</ele><time>2026-05-01T12:03:28.001Z</time></trkpt><trkpt lat="44.256898127127414" lon="9.462680238421799"><ele>279.0</ele><time>2026-05-01T12:03:29.001Z</time></trkpt><trkpt lat="44.25677007500637" lon="9.462659210223402"><ele>279.0</ele><time>2026-05-01T12:03:30.001Z</time></trkpt><trkpt lat="44.25665570691319" lon="9.462620760092438"><ele>279.0</ele><time>2026-05-01T12:03:31.001Z</time></trkpt><trkpt lat="44.256532137349325" lon="9.462572284345926"><ele>283.8</ele><time>2026-05-01T12:03:32.001Z</time></trkpt><trkpt lat="44.25642914328282" lon="9.4625343296387"><ele>288.59999999999997</ele><time>2026-05-01T12:03:33.001Z</time></trkpt><trkpt lat="44.25634403139882" lon="9.462512739780339"><ele>293.4</ele><time>2026-05-01T12:03:34.001Z</time></trkpt><trkpt lat="44.256261489830585" lon="9.462517952338725"><ele>298.2</ele><time>2026-05-01T12:03:35.001Z</time></trkpt><trkpt lat="44.256165928564876" lon="9.462547517742772"><ele>303.0</ele><time>2026-05-01T12:03:36.001Z</time></trkpt><trkpt lat="44.25609141110708" lon="9.462713111126325"><ele>303.0</ele><time>2026-05-01T12:03:37.001Z</time></trkpt><trkpt lat="44.25602021397379" lon="9.462840887256297"><ele>303.0</ele><time>2026-05-01T12:03:38.001Z</time></trkpt><trkpt lat="44.255943189614335" lon="9.462947125844586"><ele>303.0</ele><time>2026-05-01T12:03:39.001Z</time></trkpt><trkpt lat="44.25587399016126" lon="9.463059042222415"><ele>303.0</ele><time>2026-05-01T12:03:40.001Z</time></trkpt><trkpt lat="44.25581228058126" lon="9.463161175932276"><ele>303.0</ele><time>2026-05-01T12:03:41.001Z</time></trkpt><trkpt lat="44.255764245121554" lon="9.463254645623348"><ele>301.2</ele><time>2026-05-01T12:03:42.001Z</time></trkpt><trkpt lat="44.255726461078524" lon="9.463362859674206"><ele>299.4</ele><time>2026-05-01T12:03:43.002Z</time></trkpt><trkpt lat="44.255715631110746" lon="9.463501473641866"><ele>297.59999999999997</ele><time>2026-05-01T12:03:44.002Z</time></trkpt><trkpt lat="44.255739020967084" lon="9.463649024206685"><ele>295.8</ele><time>2026-05-01T12:03:45.002Z</time></trkpt><trkpt lat="44.255835683409764" lon="9.463797080909472"><ele>294.0</ele><time>2026-05-01T12:03:46.002Z</time></trkpt><trkpt lat="44.255939562888194" lon="9.463995903635654"><ele>294.0</ele><time>2026-05-01T12:03:47.002Z</time></trkpt><trkpt lat="44.25604924378924" lon="9.464183036514294"><ele>294.0</ele><time>2026-05-01T12:03:48.002Z</time></trkpt><trkpt lat="44.25616155897273" lon="9.464355188441647"><ele>294.0</ele><time>2026-05-01T12:03:49.002Z</time></trkpt><trkpt lat="44.25627807253484" lon="9.464499812031033"><ele>294.0</ele><time>2026-05-01T12:03:50.002Z</time></trkpt><trkpt lat="44.25640520072697" lon="9.46460885716086"><ele>294.0</ele><time>2026-05-01T12:03:51.002Z</time></trkpt><trkpt lat="44.25651054664559" lon="9.4647460379717"><ele>294.0</ele><time>2026-05-01T12:03:52.002Z</time></trkpt><trkpt lat="44.256580225302066" lon="9.464918967022191"><ele>294.0</ele><time>2026-05-01T12:03:53.002Z</time></trkpt><trkpt lat="44.25662777165508" lon="9.465071389039561"><ele>288.75</ele><time>2026-05-01T12:03:54.002Z</time></trkpt><trkpt lat="44.256670565779864" lon="9.465216457303036"><ele>283.5</ele><time>2026-05-01T12:03:55.002Z</time></trkpt><trkpt lat="44.256679284337444" lon="9.465384508396063"><ele>278.25</ele><time>2026-05-01T12:03:56.002Z</time></trkpt><trkpt lat="44.25663448724608" lon="9.465563014632066"><ele>273.0</ele><time>2026-05-01T12:03:57.002Z</time></trkpt><trkpt lat="44.25655796996275" lon="9.465773031451748"><ele>273.0</ele><time>2026-05-01T12:03:58.002Z</time></trkpt><trkpt lat="44.25646679836202" lon="9.465986787905171"><ele>273.0</ele><time>2026-05-01T12:03:59.002Z</time></trkpt><trkpt lat="44.25638596819701" lon="9.46620319057464"><ele>273.0</ele><time>2026-05-01T12:04:00.002Z</time></trkpt><trkpt lat="44.256325664003775" lon="9.46642477826485"><ele>286.0</ele><time>2026-05-01T12:04:01.002Z</time></trkpt><trkpt lat="44.25629348154163" lon="9.466660901298457"><ele>299.0</ele><time>2026-05-01T12:04:02.002Z</time></trkpt><trkpt lat="44.25627962254276" lon="9.466858464744785"><ele>312.0</ele><time>2026-05-01T12:04:03.002Z</time></trkpt><trkpt lat="44.25628359740756" lon="9.466981366077826"><ele>325.0</ele><time>2026-05-01T12:04:04.002Z</time></trkpt><trkpt lat="44.25630154241258" lon="9.467088777563582"><ele>327.25</ele><time>2026-05-01T12:04:05.002Z</time></trkpt><trkpt lat="44.256393647976026" lon="9.467175228675956"><ele>329.5</ele><time>2026-05-01T12:04:06.002Z</time></trkpt><trkpt lat="44.256528279500735" lon="9.467260774980723"><ele>331.75</ele><time>2026-05-01T12:04:07.002Z</time></trkpt><trkpt lat="44.2566489105362" lon="9.46735677539622"><ele>334.0</ele><time>2026-05-01T12:04:08.002Z</time></trkpt><trkpt lat="44.25675120245973" lon="9.467507984706097"><ele>327.3333333333333</ele><time>2026-05-01T12:04:09.002Z</time></trkpt><trkpt lat="44.25682333370559" lon="9.467702055393937"><ele>320.6666666666667</ele><time>2026-05-01T12:04:10.002Z</time></trkpt><trkpt lat="44.25692240837261" lon="9.467913005451775"><ele>314.0</ele><time>2026-05-01T12:04:11.002Z</time></trkpt><trkpt lat="44.25705465053871" lon="9.468029592280859"><ele>314.0</ele><time>2026-05-01T12:04:12.002Z</time></trkpt><trkpt lat="44.257179813792746" lon="9.468111557879928"><ele>314.0</ele><time>2026-05-01T12:04:13.002Z</time></trkpt><trkpt lat="44.25724110691382" lon="9.46823701271378"><ele>314.0</ele><time>2026-05-01T12:04:14.002Z</time></trkpt><trkpt lat="44.25723170815611" lon="9.468386630768169"><ele>314.0</ele><time>2026-05-01T12:04:15.002Z</time></trkpt><trkpt lat="44.25718394083542" lon="9.468543436022093"><ele>314.0</ele><time>2026-05-01T12:04:16.002Z</time></trkpt><trkpt lat="44.2570774350935" lon="9.468658826562322"><ele>314.0</ele><time>2026-05-01T12:04:17.002Z</time></trkpt><trkpt lat="44.25693821672582" lon="9.468793652226351"><ele>314.0</ele><time>2026-05-01T12:04:18.003Z</time></trkpt><trkpt lat="44.256830422264926" lon="9.469006778895523"><ele>313.75</ele><time>2026-05-01T12:04:19.003Z</time></trkpt><trkpt lat="44.256729599749875" lon="9.469235266797279"><ele>313.5</ele><time>2026-05-01T12:04:20.003Z</time></trkpt><trkpt lat="44.25666807556683" lon="9.469402555570587"><ele>313.25</ele><time>2026-05-01T12:04:21.003Z</time></trkpt><trkpt lat="44.25664868550619" lon="9.469518728577174"><ele>313.0</ele><time>2026-05-01T12:04:22.003Z</time></trkpt><trkpt lat="44.25669090629338" lon="9.469648002474663"><ele>311.66666666666663</ele><time>2026-05-01T12:04:23.003Z</time></trkpt><trkpt lat="44.25678259535784" lon="9.469838130173354"><ele>310.3333333333333</ele><time>2026-05-01T12:04:24.003Z</time></trkpt><trkpt lat="44.25686728357785" lon="9.47007458215182"><ele>309.0</ele><time>2026-05-01T12:04:25.003Z</time></trkpt><trkpt lat="44.25695558813972" lon="9.470318868428711"><ele>314.3333333333333</ele><time>2026-05-01T12:04:26.003Z</time></trkpt><trkpt lat="44.257040412882546" lon="9.47052259192507"><ele>319.66666666666663</ele><time>2026-05-01T12:04:27.003Z</time></trkpt><trkpt lat="44.25711070858371" lon="9.470693565496983"><ele>325.0</ele><time>2026-05-01T12:04:28.003Z</time></trkpt><trkpt lat="44.25727112575473" lon="9.470797933239515"><ele>313.66666666666663</ele><time>2026-05-01T12:04:29.003Z</time></trkpt><trkpt lat="44.257456212974006" lon="9.470901439717196"><ele>302.3333333333333</ele><time>2026-05-01T12:04:30.003Z</time></trkpt><trkpt lat="44.25764076990294" lon="9.471046710526911"><ele>291.0</ele><time>2026-05-01T12:04:31.003Z</time></trkpt><trkpt lat="44.25783837307801" lon="9.471193586286313"><ele>290.0</ele><time>2026-05-01T12:04:32.003Z</time></trkpt><trkpt lat="44.25802151107975" lon="9.471336184444334"><ele>289.0</ele><time>2026-05-01T12:04:33.003Z</time></trkpt><trkpt lat="44.2581674625215" lon="9.471490218340774"><ele>288.0</ele><time>2026-05-01T12:04:34.003Z</time></trkpt><trkpt lat="44.25828029956294" lon="9.471661725464745"><ele>288.0</ele><time>2026-05-01T12:04:35.003Z</time></trkpt><trkpt lat="44.25837443847068" lon="9.47183750941731"><ele>288.0</ele><time>2026-05-01T12:04:36.003Z</time></trkpt><trkpt lat="44.25844524553907" lon="9.472006926777246"><ele>288.0</ele><time>2026-05-01T12:04:37.003Z</time></trkpt><trkpt lat="44.25848338534672" lon="9.472152380342676"><ele>288.0</ele><time>2026-05-01T12:04:38.003Z</time></trkpt><trkpt lat="44.25848503193426" lon="9.47227837998889"><ele>289.5</ele><time>2026-05-01T12:04:39.003Z</time></trkpt><trkpt lat="44.25845738908299" lon="9.472402558072814"><ele>291.0</ele><time>2026-05-01T12:04:40.003Z</time></trkpt><trkpt lat="44.25839948400521" lon="9.47254590741087"><ele>292.5</ele><time>2026-05-01T12:04:41.003Z</time></trkpt><trkpt lat="44.258259391472485" lon="9.472639025737667"><ele>294.0</ele><time>2026-05-01T12:04:42Z</time></trkpt><trkpt lat="44.25810874856448" lon="9.472764011305182"><ele>295.3333333333333</ele><time>2026-05-01T12:04:43Z</time></trkpt><trkpt lat="44.25794751695637" lon="9.472903567116548"><ele>296.66666666666663</ele><time>2026-05-01T12:04:44Z</time></trkpt><trkpt lat="44.257770187938156" lon="9.473073141211108"><ele>298.0</ele><time>2026-05-01T12:04:45Z</time></trkpt><trkpt lat="44.2575779417312" lon="9.473239271786959"><ele>298.0</ele><time>2026-05-01T12:04:46Z</time></trkpt><trkpt lat="44.25740686447499" lon="9.47339255321876"><ele>298.0</ele><time>2026-05-01T12:04:47Z</time></trkpt><trkpt lat="44.257266424465875" lon="9.473504398683962"><ele>298.0</ele><time>2026-05-01T12:04:48Z</time></trkpt><trkpt lat="44.257144150928525" lon="9.47355492736825"><ele>300.75</ele><time>2026-05-01T12:04:49Z</time></trkpt><trkpt lat="44.2570315718875" lon="9.473562731667524"><ele>303.5</ele><time>2026-05-01T12:04:50Z</time></trkpt><trkpt lat="44.25692755172" lon="9.473466672818796"><ele>306.25</ele><time>2026-05-01T12:04:51Z</time></trkpt><trkpt lat="44.25678750335897" lon="9.47335039567167"><ele>309.0</ele><time>2026-05-01T12:04:52Z</time></trkpt><trkpt lat="44.25665549756552" lon="9.473254696101414"><ele>309.0</ele><time>2026-05-01T12:04:53Z</time></trkpt><trkpt lat="44.256563881372685" lon="9.473181605415142"><ele>309.0</ele><time>2026-05-01T12:04:54Z</time></trkpt><trkpt lat="44.25646693919344" lon="9.473195463605288"><ele>309.0</ele><time>2026-05-01T12:04:55Z</time></trkpt><trkpt lat="44.25638553988764" lon="9.473293734189285"><ele>309.0</ele><time>2026-05-01T12:04:56Z</time></trkpt><trkpt lat="44.256346927730036" lon="9.473450360110736"><ele>309.0</ele><time>2026-05-01T12:04:57Z</time></trkpt><trkpt lat="44.25636408947567" lon="9.473630479651234"><ele>304.0</ele><time>2026-05-01T12:04:58Z</time></trkpt><trkpt lat="44.25642033374309" lon="9.473827676861646"><ele>299.0</ele><time>2026-05-01T12:04:59Z</time></trkpt><trkpt lat="44.256478243821526" lon="9.474054043871275"><ele>294.0</ele><time>2026-05-01T12:05:00Z</time></trkpt><trkpt lat="44.25652601128989" lon="9.474312509895457"><ele>294.0</ele><time>2026-05-01T12:05:01Z</time></trkpt><trkpt lat="44.25656191835007" lon="9.474576090471169"><ele>294.0</ele><time>2026-05-01T12:05:02Z</time></trkpt><trkpt lat="44.25656612574073" lon="9.474832174106943"><ele>294.0</ele><time>2026-05-01T12:05:03Z</time></trkpt><trkpt lat="44.25658913425753" lon="9.475033618683343"><ele>293.5</ele><time>2026-05-01T12:05:04Z</time></trkpt><trkpt lat="44.25654093030786" lon="9.475183017041601"><ele>293.0</ele><time>2026-05-01T12:05:05.001Z</time></trkpt><trkpt lat="44.256490989235836" lon="9.47532105029967"><ele>292.5</ele><time>2026-05-01T12:05:06.001Z</time></trkpt><trkpt lat="44.256356159442575" lon="9.475384905300324"><ele>292.0</ele><time>2026-05-01T12:05:07.001Z</time></trkpt><trkpt lat="44.25622212261164" lon="9.475370753851125"><ele>296.0</ele><time>2026-05-01T12:05:08.001Z</time></trkpt><trkpt lat="44.2560860043456" lon="9.475344333109206"><ele>300.0</ele><time>2026-05-01T12:05:09.001Z</time></trkpt><trkpt lat="44.25596296552563" lon="9.475346123864139"><ele>304.0</ele><time>2026-05-01T12:05:10.001Z</time></trkpt><trkpt lat="44.25586918053116" lon="9.475362982353749"><ele>308.0</ele><time>2026-05-01T12:05:11.001Z</time></trkpt><trkpt lat="44.25580018705614" lon="9.475471787721903"><ele>308.0</ele><time>2026-05-01T12:05:12.001Z</time></trkpt><trkpt lat="44.25577183183227" lon="9.47563112884587"><ele>308.0</ele><time>2026-05-01T12:05:13.001Z</time></trkpt><trkpt lat="44.25578472025647" lon="9.4758384211745"><ele>308.0</ele><time>2026-05-01T12:05:14.001Z</time></trkpt><trkpt lat="44.25581637848366" lon="9.476076015503104"><ele>308.0</ele><time>2026-05-01T12:05:15.001Z</time></trkpt><trkpt lat="44.25582994590192" lon="9.476288366008186"><ele>309.6666666666667</ele><time>2026-05-01T12:05:16.001Z</time></trkpt><trkpt lat="44.25580042728961" lon="9.476475153148487"><ele>311.3333333333333</ele><time>2026-05-01T12:05:17.001Z</time></trkpt><trkpt lat="44.25569594610099" lon="9.47664245913366"><ele>313.0</ele><time>2026-05-01T12:05:18.001Z</time></trkpt><trkpt lat="44.25558159035059" lon="9.476838812178963"><ele>313.0</ele><time>2026-05-01T12:05:19.001Z</time></trkpt><trkpt lat="44.25552132914063" lon="9.477069543655261"><ele>313.0</ele><time>2026-05-01T12:05:20.001Z</time></trkpt><trkpt lat="44.255496519049586" lon="9.477321213414108"><ele>313.0</ele><time>2026-05-01T12:05:21.001Z</time></trkpt><trkpt lat="44.25548578769079" lon="9.477593223490336"><ele>310.0</ele><time>2026-05-01T12:05:22.001Z</time></trkpt><trkpt lat="44.25544948311826" lon="9.477810237002508"><ele>307.0</ele><time>2026-05-01T12:05:23.001Z</time></trkpt><trkpt lat="44.25541353671624" lon="9.477982225076838"><ele>304.0</ele><time>2026-05-01T12:05:24.001Z</time></trkpt><trkpt lat="44.2553218656169" lon="9.478100959525644"><ele>301.0</ele><time>2026-05-01T12:05:25.001Z</time></trkpt><trkpt lat="44.25519094138414" lon="9.478209342574287"><ele>299.66666666666663</ele><time>2026-05-01T12:05:26.001Z</time></trkpt><trkpt lat="44.255092424500965" lon="9.478380075747467"><ele>298.3333333333333</ele><time>2026-05-01T12:05:27.001Z</time></trkpt><trkpt lat="44.25501366213798" lon="9.478592490709952"><ele>297.0</ele><time>2026-05-01T12:05:28.001Z</time></trkpt><trkpt lat="44.25496692380915" lon="9.47886662844578"><ele>297.0</ele><time>2026-05-01T12:05:29.001Z</time></trkpt><trkpt lat="44.25492300248504" lon="9.479126140776582"><ele>297.0</ele><time>2026-05-01T12:05:30.001Z</time></trkpt><trkpt lat="44.25482829059775" lon="9.479311840988395"><ele>297.0</ele><time>2026-05-01T12:05:31.001Z</time></trkpt><trkpt lat="44.25473555288192" lon="9.479488995723528"><ele>288.6666666666667</ele><time>2026-05-01T12:05:32.001Z</time></trkpt><trkpt lat="44.254686236772145" lon="9.47968165065598"><ele>280.33333333333337</ele><time>2026-05-01T12:05:33.001Z</time></trkpt><trkpt lat="44.254665091418765" lon="9.479923487210302"><ele>272.0</ele><time>2026-05-01T12:05:34.001Z</time></trkpt><trkpt lat="44.254665128233995" lon="9.480204891248222"><ele>272.6666666666667</ele><time>2026-05-01T12:05:35.001Z</time></trkpt><trkpt lat="44.254660304568105" lon="9.48050116673908"><ele>273.3333333333333</ele><time>2026-05-01T12:05:36.001Z</time></trkpt><trkpt lat="44.254641356056666" lon="9.48074807483214"><ele>274.0</ele><time>2026-05-01T12:05:37.001Z</time></trkpt><trkpt lat="44.254636536297106" lon="9.480942658893271"><ele>274.0</ele><time>2026-05-01T12:05:38.001Z</time></trkpt><trkpt lat="44.25467308279332" lon="9.48108540466951"><ele>274.0</ele><time>2026-05-01T12:05:39.001Z</time></trkpt><trkpt lat="44.25475952629616" lon="9.481203968119182"><ele>274.0</ele><time>2026-05-01T12:05:40.001Z</time></trkpt><trkpt lat="44.25489674600201" lon="9.481307825794184"><ele>274.0</ele><time>2026-05-01T12:05:41.001Z</time></trkpt><trkpt lat="44.25506104275184" lon="9.481407998432733"><ele>276.3333333333333</ele><time>2026-05-01T12:05:42.001Z</time></trkpt><trkpt lat="44.25523948504805" lon="9.48150691420857"><ele>278.6666666666667</ele><time>2026-05-01T12:05:43.001Z</time></trkpt><trkpt lat="44.255417561635625" lon="9.48163364149297"><ele>281.0</ele><time>2026-05-01T12:05:44.001Z</time></trkpt><trkpt lat="44.255575293585515" lon="9.481725380598652"><ele>284.33333333333337</ele><time>2026-05-01T12:05:45.002Z</time></trkpt><trkpt lat="44.255680826161" lon="9.481887741211894"><ele>287.6666666666667</ele><time>2026-05-01T12:05:46.002Z</time></trkpt><trkpt lat="44.25578524692936" lon="9.482104209385538"><ele>291.0</ele><time>2026-05-01T12:05:47.002Z</time></trkpt><trkpt lat="44.255911574784825" lon="9.482340813861367"><ele>291.0</ele><time>2026-05-01T12:05:48.002Z</time></trkpt><trkpt lat="44.25604747418121" lon="9.482572847371081"><ele>291.0</ele><time>2026-05-01T12:05:49.002Z</time></trkpt><trkpt lat="44.25613174000249" lon="9.482812428026588"><ele>291.0</ele><time>2026-05-01T12:05:50.002Z</time></trkpt><trkpt lat="44.25617364105731" lon="9.483070216090507"><ele>286.3333333333333</ele><time>2026-05-01T12:05:51.002Z</time></trkpt><trkpt lat="44.25622310877878" lon="9.483357294282907"><ele>281.66666666666663</ele><time>2026-05-01T12:05:52.002Z</time></trkpt><trkpt lat="44.256316778381425" lon="9.483625064468562"><ele>277.0</ele><time>2026-05-01T12:05:53.002Z</time></trkpt><trkpt lat="44.256445839105936" lon="9.483864257981097"><ele>282.0</ele><time>2026-05-01T12:05:54.002Z</time></trkpt><trkpt lat="44.25657445371628" lon="9.484066438525314"><ele>287.0</ele><time>2026-05-01T12:05:55.002Z</time></trkpt><trkpt lat="44.2566211297809" lon="9.484282237796522"><ele>292.0</ele><time>2026-05-01T12:05:56.002Z</time></trkpt><trkpt lat="44.25661878551377" lon="9.484526384493975"><ele>290.0</ele><time>2026-05-01T12:05:57.002Z</time></trkpt><trkpt lat="44.25661944705526" lon="9.48481890445056"><ele>288.0</ele><time>2026-05-01T12:05:58.002Z</time></trkpt><trkpt lat="44.25662848529593" lon="9.485106048901354"><ele>286.0</ele><time>2026-05-01T12:05:59.002Z</time></trkpt><trkpt lat="44.25662234122375" lon="9.485364687792112"><ele>285.66666666666663</ele><time>2026-05-01T12:06:00.002Z</time></trkpt><trkpt lat="44.25665323096016" lon="9.485585287067634"><ele>285.3333333333333</ele><time>2026-05-01T12:06:01.002Z</time></trkpt><trkpt lat="44.256722181794494" lon="9.485784322498809"><ele>285.0</ele><time>2026-05-01T12:06:02.002Z</time></trkpt><trkpt lat="44.2568406578728" lon="9.48595304424261"><ele>285.0</ele><time>2026-05-01T12:06:03.002Z</time></trkpt><trkpt lat="44.25699485922895" lon="9.486095351906433"><ele>285.0</ele><time>2026-05-01T12:06:04.002Z</time></trkpt><trkpt lat="44.257135844317446" lon="9.48623366385537"><ele>285.0</ele><time>2026-05-01T12:06:05.002Z</time></trkpt><trkpt lat="44.257212337987376" lon="9.486415216890363"><ele>282.5</ele><time>2026-05-01T12:06:06.002Z</time></trkpt><trkpt lat="44.257268685440216" lon="9.486603744592593"><ele>280.0</ele><time>2026-05-01T12:06:07.002Z</time></trkpt><trkpt lat="44.25728276065762" lon="9.48680215510184"><ele>277.5</ele><time>2026-05-01T12:06:08.002Z</time></trkpt><trkpt lat="44.25722476135061" lon="9.486992044676402"><ele>275.0</ele><time>2026-05-01T12:06:09.002Z</time></trkpt><trkpt lat="44.25717015716851" lon="9.487230873555252"><ele>273.6666666666667</ele><time>2026-05-01T12:06:10.002Z</time></trkpt><trkpt lat="44.257126995763976" lon="9.487467891454564"><ele>272.3333333333333</ele><time>2026-05-01T12:06:11.002Z</time></trkpt><trkpt lat="44.2570883624946" lon="9.487665416483802"><ele>271.0</ele><time>2026-05-01T12:06:12.002Z</time></trkpt><trkpt lat="44.257018295327846" lon="9.487843998282859"><ele>269.0</ele><time>2026-05-01T12:06:13.002Z</time></trkpt><trkpt lat="44.25713719302935" lon="9.488062904504385"><ele>267.0</ele><time>2026-05-01T12:06:14.002Z</time></trkpt><trkpt lat="44.257246436442486" lon="9.488257314301565"><ele>265.0</ele><time>2026-05-01T12:06:15.002Z</time></trkpt><trkpt lat="44.25737446749901" lon="9.488466527694847"><ele>276.3333333333333</ele><time>2026-05-01T12:06:16.002Z</time></trkpt><trkpt lat="44.257514024654924" lon="9.488667617513496"><ele>287.6666666666667</ele><time>2026-05-01T12:06:17.002Z</time></trkpt><trkpt lat="44.25764211217819" lon="9.48885192865955"><ele>299.0</ele><time>2026-05-01T12:06:18.002Z</time></trkpt><trkpt lat="44.257705241447546" lon="9.489046112182175"><ele>299.0</ele><time>2026-05-01T12:06:19.002Z</time></trkpt><trkpt lat="44.25771861429867" lon="9.489240565071668"><ele>299.0</ele><time>2026-05-01T12:06:20.002Z</time></trkpt><trkpt lat="44.257718951721756" lon="9.489474948331218"><ele>299.0</ele><time>2026-05-01T12:06:21.002Z</time></trkpt><trkpt lat="44.25771131371687" lon="9.489745978815915"><ele>300.33333333333337</ele><time>2026-05-01T12:06:22.003Z</time></trkpt><trkpt lat="44.25767980042579" lon="9.490027257298724"><ele>301.6666666666667</ele><time>2026-05-01T12:06:23.003Z</time></trkpt><trkpt lat="44.257639870252305" lon="9.490309892961431"><ele>303.0</ele><time>2026-05-01T12:06:24.003Z</time></trkpt><trkpt lat="44.257608712582794" lon="9.490603521936855"><ele>306.3333333333333</ele><time>2026-05-01T12:06:25.003Z</time></trkpt><trkpt lat="44.2575660932329" lon="9.49089197215813"><ele>309.66666666666663</ele><time>2026-05-01T12:06:26.003Z</time></trkpt><trkpt lat="44.25752544457244" lon="9.491173941344103"><ele>313.0</ele><time>2026-05-01T12:06:27.003Z</time></trkpt><trkpt lat="44.25748460162135" lon="9.491436490269825"><ele>314.5</ele><time>2026-05-01T12:06:28.003Z</time></trkpt><trkpt lat="44.25746111545698" lon="9.491656628393258"><ele>316.0</ele><time>2026-05-01T12:06:29.003Z</time></trkpt><trkpt lat="44.25746105885313" lon="9.491844324332511"><ele>317.5</ele><time>2026-05-01T12:06:30.003Z</time></trkpt><trkpt lat="44.257514830453516" lon="9.492034182820465"><ele>319.0</ele><time>2026-05-01T12:06:31.003Z</time></trkpt><trkpt lat="44.257609927808424" lon="9.492241325064738"><ele>319.0</ele><time>2026-05-01T12:06:32.003Z</time></trkpt><trkpt lat="44.257683103625865" lon="9.492485646571268"><ele>319.0</ele><time>2026-05-01T12:06:33.003Z</time></trkpt><trkpt lat="44.25772018789639" lon="9.49273858339971"><ele>319.0</ele><time>2026-05-01T12:06:34.003Z</time></trkpt><trkpt lat="44.257752909416624" lon="9.492967582573282"><ele>320.25</ele><time>2026-05-01T12:06:35.003Z</time></trkpt><trkpt lat="44.25778275432898" lon="9.49316391525397"><ele>321.5</ele><time>2026-05-01T12:06:36.003Z</time></trkpt><trkpt lat="44.257817075688465" lon="9.493334078473035"><ele>322.75</ele><time>2026-05-01T12:06:37.003Z</time></trkpt><trkpt lat="44.25779894639965" lon="9.49349445199779"><ele>324.0</ele><time>2026-05-01T12:06:38.003Z</time></trkpt><trkpt lat="44.25773030913295" lon="9.493649845529136"><ele>326.0</ele><time>2026-05-01T12:06:39.003Z</time></trkpt><trkpt lat="44.25762227923811" lon="9.493807738700717"><ele>328.0</ele><time>2026-05-01T12:06:40.003Z</time></trkpt><trkpt lat="44.25751092813885" lon="9.493979388531404"><ele>330.0</ele><time>2026-05-01T12:06:41.003Z</time></trkpt><trkpt lat="44.25743471619195" lon="9.494176301610434"><ele>330.0</ele><time>2026-05-01T12:06:42.003Z</time></trkpt><trkpt lat="44.257407682390976" lon="9.4944016635166"><ele>330.0</ele><time>2026-05-01T12:06:43.003Z</time></trkpt><trkpt lat="44.25742618331735" lon="9.49466093782798"><ele>330.0</ele><time>2026-05-01T12:06:44.003Z</time></trkpt><trkpt lat="44.25747120857286" lon="9.494940359025982"><ele>330.0</ele><time>2026-05-01T12:06:45.003Z</time></trkpt><trkpt lat="44.257502220397775" lon="9.495231888988904"><ele>330.0</ele><time>2026-05-01T12:06:46.003Z</time></trkpt><trkpt lat="44.257510937901635" lon="9.495525567921598"><ele>330.0</ele><time>2026-05-01T12:06:47.003Z</time></trkpt><trkpt lat="44.25753785617087" lon="9.495843917566773"><ele>330.0</ele><time>2026-05-01T12:06:48.001Z</time></trkpt><trkpt lat="44.25756585393568" lon="9.496174791936241"><ele>330.0</ele><time>2026-05-01T12:06:49.001Z</time></trkpt><trkpt lat="44.25759420563053" lon="9.496510719576575"><ele>330.6666666666667</ele><time>2026-05-01T12:06:50.001Z</time></trkpt><trkpt lat="44.25762087884957" lon="9.496830503156438"><ele>331.33333333333337</ele><time>2026-05-01T12:06:51.001Z</time></trkpt><trkpt lat="44.2576487626506" lon="9.497123814206677"><ele>332.0</ele><time>2026-05-01T12:06:52.001Z</time></trkpt><trkpt lat="44.257708235825525" lon="9.497388646428861"><ele>332.6666666666667</ele><time>2026-05-01T12:06:53.001Z</time></trkpt><trkpt lat="44.25779009927862" lon="9.497627137508273"><ele>333.3333333333333</ele><time>2026-05-01T12:06:54.001Z</time></trkpt><trkpt lat="44.257883220493504" lon="9.497822430661362"><ele>334.0</ele><time>2026-05-01T12:06:55.001Z</time></trkpt><trkpt lat="44.257898313906765" lon="9.498008076917994"><ele>334.66666666666663</ele><time>2026-05-01T12:06:56.001Z</time></trkpt><trkpt lat="44.25784307527911" lon="9.498195468726776"><ele>335.3333333333333</ele><time>2026-05-01T12:06:57.001Z</time></trkpt><trkpt lat="44.2578402094415" lon="9.498433812680366"><ele>336.0</ele><time>2026-05-01T12:06:58.001Z</time></trkpt><trkpt lat="44.25785311937199" lon="9.49869298505855"><ele>337.6666666666667</ele><time>2026-05-01T12:06:59.001Z</time></trkpt><trkpt lat="44.25783487179228" lon="9.498946025606534"><ele>339.33333333333337</ele><time>2026-05-01T12:07:00.001Z</time></trkpt><trkpt lat="44.2577808683851" lon="9.499225902524477"><ele>341.0</ele><time>2026-05-01T12:07:01.001Z</time></trkpt><trkpt lat="44.25772656746554" lon="9.49950650362476"><ele>345.6666666666667</ele><time>2026-05-01T12:07:02.001Z</time></trkpt><trkpt lat="44.25766931490179" lon="9.499798684605981"><ele>350.3333333333333</ele><time>2026-05-01T12:07:03.001Z</time></trkpt><trkpt lat="44.25761423413911" lon="9.500078855158785"><ele>355.0</ele><time>2026-05-01T12:07:04.001Z</time></trkpt><trkpt lat="44.257550589338905" lon="9.500309205670483"><ele>351.3333333333333</ele><time>2026-05-01T12:07:05.001Z</time></trkpt><trkpt lat="44.25745933660809" lon="9.50048125276382"><ele>347.6666666666667</ele><time>2026-05-01T12:07:06.001Z</time></trkpt><trkpt lat="44.25731541841058" lon="9.500648789780817"><ele>344.0</ele><time>2026-05-01T12:07:07.001Z</time></trkpt><trkpt lat="44.25722153246377" lon="9.500897799318151"><ele>344.0</ele><time>2026-05-01T12:07:08.001Z</time></trkpt><trkpt lat="44.25711349080126" lon="9.501148125578604"><ele>344.0</ele><time>2026-05-01T12:07:09.001Z</time></trkpt><trkpt lat="44.257035363475424" lon="9.50137878075894"><ele>344.0</ele><time>2026-05-01T12:07:10.001Z</time></trkpt><trkpt lat="44.25697541948611" lon="9.501558532418432"><ele>345.0</ele><time>2026-05-01T12:07:11.001Z</time></trkpt><trkpt lat="44.2569286286957" lon="9.501693402034293"><ele>346.0</ele><time>2026-05-01T12:07:12.001Z</time></trkpt><trkpt lat="44.256930525271876" lon="9.501836767079935"><ele>347.0</ele><time>2026-05-01T12:07:13.001Z</time></trkpt><trkpt lat="44.257011807271894" lon="9.501988455400141"><ele>348.0</ele><time>2026-05-01T12:07:14.001Z</time></trkpt><trkpt lat="44.257100646457424" lon="9.502146631220533"><ele>348.0</ele><time>2026-05-01T12:07:15.001Z</time></trkpt><trkpt lat="44.25719625073505" lon="9.502276789011502"><ele>348.0</ele><time>2026-05-01T12:07:16.001Z</time></trkpt><trkpt lat="44.25727082919042" lon="9.502378929557167"><ele>348.0</ele><time>2026-05-01T12:07:17.001Z</time></trkpt><trkpt lat="44.25733716044436" lon="9.50246226552036"><ele>348.0</ele><time>2026-05-01T12:07:18.001Z</time></trkpt><trkpt lat="44.25740826870234" lon="9.502542533044796"><ele>348.0</ele><time>2026-05-01T12:07:19.001Z</time></trkpt><trkpt lat="44.25749555882945" lon="9.502610969343662"><ele>354.5</ele><time>2026-05-01T12:07:20.001Z</time></trkpt><trkpt lat="44.25759010365562" lon="9.502655943953068"><ele>361.0</ele><time>2026-05-01T12:07:21.001Z</time></trkpt><trkpt lat="44.257688964088686" lon="9.502704193698216"><ele>367.5</ele><time>2026-05-01T12:07:22.001Z</time></trkpt><trkpt lat="44.25779199205778" lon="9.502771744262086"><ele>374.0</ele><time>2026-05-01T12:07:23.001Z</time></trkpt><trkpt lat="44.25789867555641" lon="9.502880436996518"><ele>376.25</ele><time>2026-05-01T12:07:24.001Z</time></trkpt><trkpt lat="44.25798774104826" lon="9.502978212372415"><ele>378.5</ele><time>2026-05-01T12:07:25.001Z</time></trkpt><trkpt lat="44.258071769028795" lon="9.50307045624427"><ele>380.75</ele><time>2026-05-01T12:07:26.001Z</time></trkpt><trkpt lat="44.25816431227888" lon="9.503172034652298"><ele>383.0</ele><time>2026-05-01T12:07:27.001Z</time></trkpt><trkpt lat="44.258264351544916" lon="9.503281592232014"><ele>383.0</ele><time>2026-05-01T12:07:28.001Z</time></trkpt><trkpt lat="44.25838357196481" lon="9.503385718945246"><ele>383.0</ele><time>2026-05-01T12:07:29.001Z</time></trkpt><trkpt lat="44.25850471177385" lon="9.503526838094242"><ele>383.0</ele><time>2026-05-01T12:07:30.001Z</time></trkpt><trkpt lat="44.25863662518321" lon="9.503668014906676"><ele>386.0</ele><time>2026-05-01T12:07:31.001Z</time></trkpt><trkpt lat="44.258771216796276" lon="9.5038147466296"><ele>389.0</ele><time>2026-05-01T12:07:32.001Z</time></trkpt><trkpt lat="44.258889849960184" lon="9.503943468918028"><ele>392.0</ele><time>2026-05-01T12:07:33.001Z</time></trkpt><trkpt lat="44.25898071097141" lon="9.504055020961946"><ele>395.0</ele><time>2026-05-01T12:07:34.001Z</time></trkpt><trkpt lat="44.259047829927376" lon="9.50418007414661"><ele>395.0</ele><time>2026-05-01T12:07:35.001Z</time></trkpt><trkpt lat="44.259064569572445" lon="9.50434583233219"><ele>395.0</ele><time>2026-05-01T12:07:36.001Z</time></trkpt><trkpt lat="44.259041637504815" lon="9.504507465998278"><ele>395.0</ele><time>2026-05-01T12:07:37.001Z</time></trkpt><trkpt lat="44.25899980571734" lon="9.504651719643798"><ele>395.0</ele><time>2026-05-01T12:07:38.001Z</time></trkpt><trkpt lat="44.258965428432774" lon="9.504775196278088"><ele>395.0</ele><time>2026-05-01T12:07:39.001Z</time></trkpt><trkpt lat="44.25894220854067" lon="9.504916680450487"><ele>388.0</ele><time>2026-05-01T12:07:41.001Z</time></trkpt><trkpt lat="44.25890032032916" lon="9.50501513798816"><ele>381.0</ele><time>2026-05-01T12:07:43.001Z</time></trkpt><trkpt lat="44.258868142177654" lon="9.5051607227326"><ele>374.0</ele><time>2026-05-01T12:09:13.001Z</time></trkpt><trkpt lat="44.258856187908556" lon="9.505280940075453"><ele>367.0</ele><time>2026-05-01T12:09:14.001Z</time></trkpt><trkpt lat="44.25888905962187" lon="9.505436811410089"><ele>360.0</ele><time>2026-05-01T12:09:15.001Z</time></trkpt><trkpt lat="44.258912664513026" lon="9.505601905018658"><ele>360.0</ele><time>2026-05-01T12:09:16.001Z</time></trkpt><trkpt lat="44.25894616206758" lon="9.505770853514134"><ele>360.0</ele><time>2026-05-01T12:09:17.001Z</time></trkpt><trkpt lat="44.25898318130885" lon="9.50595879816569"><ele>360.0</ele><time>2026-05-01T12:09:18.001Z</time></trkpt><trkpt lat="44.259024708105656" lon="9.506154130203287"><ele>360.0</ele><time>2026-05-01T12:09:19.001Z</time></trkpt><trkpt lat="44.25905027138663" lon="9.50636411020844"><ele>369.75</ele><time>2026-05-01T12:09:20.001Z</time></trkpt><trkpt lat="44.25908663911091" lon="9.506578054774193"><ele>379.5</ele><time>2026-05-01T12:09:21.001Z</time></trkpt><trkpt lat="44.259114927484774" lon="9.506787346755635"><ele>389.25</ele><time>2026-05-01T12:09:22.001Z</time></trkpt><trkpt lat="44.25910307126706" lon="9.506972167735263"><ele>399.0</ele><time>2026-05-01T12:09:23.001Z</time></trkpt><trkpt lat="44.259051681771986" lon="9.507139474536443"><ele>401.25</ele><time>2026-05-01T12:09:24.001Z</time></trkpt><trkpt lat="44.25896582417831" lon="9.50728054427323"><ele>403.5</ele><time>2026-05-01T12:09:25.001Z</time></trkpt><trkpt lat="44.25882988633356" lon="9.507310999002366"><ele>405.75</ele><time>2026-05-01T12:09:26.001Z</time></trkpt><trkpt lat="44.25876060308385" lon="9.507394216389075"><ele>408.0</ele><time>2026-05-01T12:09:27.001Z</time></trkpt><trkpt lat="44.25868605739244" lon="9.5075227523505"><ele>403.33333333333337</ele><time>2026-05-01T12:09:28.001Z</time></trkpt><trkpt lat="44.25861793266867" lon="9.50772389261903"><ele>398.6666666666667</ele><time>2026-05-01T12:09:29.001Z</time></trkpt><trkpt lat="44.258558222737506" lon="9.507976471648028"><ele>394.0</ele><time>2026-05-01T12:09:30.001Z</time></trkpt><trkpt lat="44.25847796599284" lon="9.508210846343472"><ele>394.0</ele><time>2026-05-01T12:09:31.001Z</time></trkpt><trkpt lat="44.258413577491766" lon="9.50842195234765"><ele>394.0</ele><time>2026-05-01T12:09:32.001Z</time></trkpt><trkpt lat="44.2583691396692" lon="9.50861447166276"><ele>394.0</ele><time>2026-05-01T12:09:33.001Z</time></trkpt><trkpt lat="44.258315076121924" lon="9.508794760364127"><ele>394.0</ele><time>2026-05-01T12:09:34.001Z</time></trkpt><trkpt lat="44.25826534835772" lon="9.508958137898656"><ele>396.75</ele><time>2026-05-01T12:09:35.001Z</time></trkpt><trkpt lat="44.258215748016006" lon="9.509118065153782"><ele>399.5</ele><time>2026-05-01T12:09:36.001Z</time></trkpt><trkpt lat="44.258164466675524" lon="9.509274354269909"><ele>402.25</ele><time>2026-05-01T12:09:37.001Z</time></trkpt><trkpt lat="44.25812216646376" lon="9.509429744655218"><ele>405.0</ele><time>2026-05-01T12:09:38.001Z</time></trkpt><trkpt lat="44.25807379480558" lon="9.50957620943895"><ele>400.0</ele><time>2026-05-01T12:09:39.001Z</time></trkpt><trkpt lat="44.25802552966587" lon="9.509719818380331"><ele>395.0</ele><time>2026-05-01T12:09:40.001Z</time></trkpt><trkpt lat="44.25797964505693" lon="9.50985289177059"><ele>390.0</ele><time>2026-05-01T12:09:41.001Z</time></trkpt><trkpt lat="44.25794092417692" lon="9.509992604249177"><ele>385.0</ele><time>2026-05-01T12:09:42.001Z</time></trkpt><trkpt lat="44.25790681051239" lon="9.510137484367357"><ele>380.0</ele><time>2026-05-01T12:09:43.001Z</time></trkpt><trkpt lat="44.257865817238354" lon="9.51029188827223"><ele>382.5</ele><time>2026-05-01T12:09:44.001Z</time></trkpt><trkpt lat="44.2578256297881" lon="9.51045295473251"><ele>385.0</ele><time>2026-05-01T12:09:45.001Z</time></trkpt><trkpt lat="44.2577927477039" lon="9.510620658693746"><ele>387.5</ele><time>2026-05-01T12:09:46.001Z</time></trkpt><trkpt lat="44.25777574981652" lon="9.510804478205738"><ele>390.0</ele><time>2026-05-01T12:09:47.001Z</time></trkpt><trkpt lat="44.25776378044003" lon="9.511000022678934"><ele>390.0</ele><time>2026-05-01T12:09:48.002Z</time></trkpt><trkpt lat="44.25776211296909" lon="9.511206508073906"><ele>390.0</ele><time>2026-05-01T12:09:49.002Z</time></trkpt><trkpt lat="44.257756589583266" lon="9.51141517138783"><ele>390.0</ele><time>2026-05-01T12:09:50.002Z</time></trkpt><trkpt lat="44.25775438711151" lon="9.511604955480712"><ele>390.0</ele><time>2026-05-01T12:09:51.002Z</time></trkpt><trkpt lat="44.257745320077156" lon="9.51177131111302"><ele>391.75</ele><time>2026-05-01T12:09:52.002Z</time></trkpt><trkpt lat="44.25768207202287" lon="9.511916774240392"><ele>393.5</ele><time>2026-05-01T12:09:53.002Z</time></trkpt><trkpt lat="44.257585632944206" lon="9.512063784671577"><ele>395.25</ele><time>2026-05-01T12:09:54.002Z</time></trkpt><trkpt lat="44.25747763420316" lon="9.512233993484433"><ele>397.0</ele><time>2026-05-01T12:09:55.002Z</time></trkpt><trkpt lat="44.25734859210697" lon="9.512363212682516"><ele>394.33333333333337</ele><time>2026-05-01T12:09:56.002Z</time></trkpt><trkpt lat="44.257202281020184" lon="9.512487990541944"><ele>391.66666666666663</ele><time>2026-05-01T12:09:57.002Z</time></trkpt><trkpt lat="44.25705491251297" lon="9.512573291994903"><ele>389.0</ele><time>2026-05-01T12:09:58.002Z</time></trkpt><trkpt lat="44.25694827888958" lon="9.512677477697641"><ele>389.0</ele><time>2026-05-01T12:09:59.002Z</time></trkpt><trkpt lat="44.256881259852875" lon="9.512799966094905"><ele>389.0</ele><time>2026-05-01T12:10:00.002Z</time></trkpt><trkpt lat="44.256856397219316" lon="9.512948051667381"><ele>389.0</ele><time>2026-05-01T12:10:01.002Z</time></trkpt><trkpt lat="44.25687852300277" lon="9.513104471480455"><ele>389.0</ele><time>2026-05-01T12:10:02.002Z</time></trkpt><trkpt lat="44.25695198476533" lon="9.51327435464679"><ele>389.3333333333333</ele><time>2026-05-01T12:10:03.002Z</time></trkpt><trkpt lat="44.25704958347937" lon="9.51345644062028"><ele>389.66666666666663</ele><time>2026-05-01T12:10:04.002Z</time></trkpt><trkpt lat="44.25712545260665" lon="9.513685428133304"><ele>390.0</ele><time>2026-05-01T12:10:05.002Z</time></trkpt><trkpt lat="44.25717798893453" lon="9.513926173009121"><ele>390.0</ele><time>2026-05-01T12:10:06.002Z</time></trkpt><trkpt lat="44.25723535888513" lon="9.514141649078258"><ele>390.0</ele><time>2026-05-01T12:10:07.002Z</time></trkpt><trkpt lat="44.257280645485196" lon="9.514322965677472"><ele>390.0</ele><time>2026-05-01T12:10:08.002Z</time></trkpt><trkpt lat="44.257367066471055" lon="9.514461964761576"><ele>390.0</ele><time>2026-05-01T12:10:09.002Z</time></trkpt><trkpt lat="44.257508408127194" lon="9.514554118657442"><ele>398.0</ele><time>2026-05-01T12:10:10.002Z</time></trkpt><trkpt lat="44.25767455778634" lon="9.514602712465917"><ele>406.0</ele><time>2026-05-01T12:10:11.002Z</time></trkpt><trkpt lat="44.25778989682298" lon="9.514727754895052"><ele>414.0</ele><time>2026-05-01T12:10:12.002Z</time></trkpt><trkpt lat="44.2578734261803" lon="9.514896411400247"><ele>414.0</ele><time>2026-05-01T12:10:13.002Z</time></trkpt><trkpt lat="44.25793905529946" lon="9.515106703261173"><ele>414.0</ele><time>2026-05-01T12:10:14.002Z</time></trkpt><trkpt lat="44.2579888503965" lon="9.515336964386421"><ele>414.0</ele><time>2026-05-01T12:10:15.002Z</time></trkpt><trkpt lat="44.258023055485" lon="9.515528162048826"><ele>413.0</ele><time>2026-05-01T12:10:16.002Z</time></trkpt><trkpt lat="44.258036962021485" lon="9.515694645160155"><ele>412.0</ele><time>2026-05-01T12:10:17.002Z</time></trkpt><trkpt lat="44.2580357010448" lon="9.515840059269026"><ele>411.0</ele><time>2026-05-01T12:10:18.002Z</time></trkpt><trkpt lat="44.25802336008188" lon="9.516009649537946"><ele>410.0</ele><time>2026-05-01T12:10:19.002Z</time></trkpt><trkpt lat="44.25800701223583" lon="9.516208167185273"><ele>411.3333333333333</ele><time>2026-05-01T12:10:20.002Z</time></trkpt><trkpt lat="44.2579764124821" lon="9.516431738918353"><ele>412.66666666666663</ele><time>2026-05-01T12:10:21.002Z</time></trkpt><trkpt lat="44.2579504671187" lon="9.516666098775413"><ele>414.0</ele><time>2026-05-01T12:10:22.002Z</time></trkpt><trkpt lat="44.25792423499347" lon="9.516873745418415"><ele>414.0</ele><time>2026-05-01T12:10:23.002Z</time></trkpt><trkpt lat="44.25790545477376" lon="9.517041237617036"><ele>414.0</ele><time>2026-05-01T12:10:24.002Z</time></trkpt><trkpt lat="44.257889459483785" lon="9.517185321883671"><ele>414.0</ele><time>2026-05-01T12:10:25.002Z</time></trkpt><trkpt lat="44.25787701186848" lon="9.517304224651015"><ele>414.0</ele><time>2026-05-01T12:10:26.002Z</time></trkpt><trkpt lat="44.2578605593927" lon="9.517438798177759"><ele>414.0</ele><time>2026-05-01T12:10:27.002Z</time></trkpt><trkpt lat="44.25783963487008" lon="9.517591270869264"><ele>415.5</ele><time>2026-05-01T12:10:28.002Z</time></trkpt><trkpt lat="44.2578211361741" lon="9.517771061836623"><ele>417.0</ele><time>2026-05-01T12:10:29.002Z</time></trkpt><trkpt lat="44.25780401881434" lon="9.517953994455398"><ele>418.5</ele><time>2026-05-01T12:10:30.002Z</time></trkpt><trkpt lat="44.25778406162463" lon="9.51814163982022"><ele>420.0</ele><time>2026-05-01T12:10:31.002Z</time></trkpt><trkpt lat="44.257758303228485" lon="9.518339875110803"><ele>424.0</ele><time>2026-05-01T12:10:32.002Z</time></trkpt><trkpt lat="44.25770393428427" lon="9.518558212359435"><ele>428.0</ele><time>2026-05-01T12:10:33.003Z</time></trkpt><trkpt lat="44.25765782779541" lon="9.518791211202165"><ele>432.0</ele><time>2026-05-01T12:10:34.003Z</time></trkpt><trkpt lat="44.257599883435276" lon="9.518965550022246"><ele>433.6</ele><time>2026-05-01T12:10:35.003Z</time></trkpt><trkpt lat="44.25756024882244" lon="9.519117319025952"><ele>435.20000000000005</ele><time>2026-05-01T12:10:36.003Z</time></trkpt><trkpt lat="44.257526113535654" lon="9.519251445841466"><ele>436.8</ele><time>2026-05-01T12:10:37.003Z</time></trkpt><trkpt lat="44.25748890291031" lon="9.519384653054676"><ele>438.4</ele><time>2026-05-01T12:10:38.003Z</time></trkpt><trkpt lat="44.257450732818334" lon="9.519525188385169"><ele>440.0</ele><time>2026-05-01T12:10:39.003Z</time></trkpt><trkpt lat="44.25741391969241" lon="9.519666102807529"><ele>441.25</ele><time>2026-05-01T12:10:40.003Z</time></trkpt><trkpt lat="44.25738323662885" lon="9.519829140694366"><ele>442.5</ele><time>2026-05-01T12:10:41.003Z</time></trkpt><trkpt lat="44.25735762478844" lon="9.520008371048204"><ele>443.75</ele><time>2026-05-01T12:10:42.003Z</time></trkpt><trkpt lat="44.25733862161302" lon="9.520183538632368"><ele>445.0</ele><time>2026-05-01T12:10:43.003Z</time></trkpt><trkpt lat="44.257323363152295" lon="9.520357268492972"><ele>447.25</ele><time>2026-05-01T12:10:44.003Z</time></trkpt><trkpt lat="44.257319576293725" lon="9.520536533908052"><ele>449.5</ele><time>2026-05-01T12:10:45.003Z</time></trkpt><trkpt lat="44.257322505145645" lon="9.52071412352714"><ele>451.75</ele><time>2026-05-01T12:10:46.003Z</time></trkpt><trkpt lat="44.25732925162914" lon="9.520899288786044"><ele>454.0</ele><time>2026-05-01T12:10:47.003Z</time></trkpt><trkpt lat="44.25733839041307" lon="9.521088884930608"><ele>452.75</ele><time>2026-05-01T12:10:48.003Z</time></trkpt><trkpt lat="44.257343277910884" lon="9.521289149162737"><ele>451.5</ele><time>2026-05-01T12:10:49.003Z</time></trkpt><trkpt lat="44.25732890010094" lon="9.521492427454039"><ele>450.25</ele><time>2026-05-01T12:10:50.003Z</time></trkpt><trkpt lat="44.25725811529453" lon="9.521691159907286"><ele>449.0</ele><time>2026-05-01T12:10:51.003Z</time></trkpt><trkpt lat="44.2571442532056" lon="9.521876557859766"><ele>449.0</ele><time>2026-05-01T12:10:52.003Z</time></trkpt><trkpt lat="44.257023424231036" lon="9.522056800218996"><ele>449.0</ele><time>2026-05-01T12:10:53.003Z</time></trkpt><trkpt lat="44.2569255641608" lon="9.522273397732638"><ele>449.0</ele><time>2026-05-01T12:10:54.003Z</time></trkpt><trkpt lat="44.2568372503269" lon="9.522527776353765"><ele>453.3333333333333</ele><time>2026-05-01T12:10:55.003Z</time></trkpt><trkpt lat="44.256752813425415" lon="9.522782414122355"><ele>457.66666666666663</ele><time>2026-05-01T12:10:56.003Z</time></trkpt><trkpt lat="44.256667778406694" lon="9.523028767547865"><ele>462.0</ele><time>2026-05-01T12:10:57.003Z</time></trkpt><trkpt lat="44.25659005606425" lon="9.523268999281122"><ele>466.66666666666663</ele><time>2026-05-01T12:10:58.003Z</time></trkpt><trkpt lat="44.25652364309839" lon="9.523512288433231"><ele>471.3333333333333</ele><time>2026-05-01T12:10:59.003Z</time></trkpt><trkpt lat="44.25649244158122" lon="9.523777034324238"><ele>476.0</ele><time>2026-05-01T12:11:00Z</time></trkpt><trkpt lat="44.25647661644647" lon="9.524024442907008"><ele>475.66666666666663</ele><time>2026-05-01T12:11:01Z</time></trkpt><trkpt lat="44.25649151414242" lon="9.524238924311135"><ele>475.33333333333337</ele><time>2026-05-01T12:11:02Z</time></trkpt><trkpt lat="44.25648188358384" lon="9.524446895249817"><ele>475.0</ele><time>2026-05-01T12:11:03Z</time></trkpt><trkpt lat="44.25641101651592" lon="9.524627526110045"><ele>475.0</ele><time>2026-05-01T12:11:04Z</time></trkpt><trkpt lat="44.25627471669862" lon="9.524779588881495"><ele>475.0</ele><time>2026-05-01T12:11:05Z</time></trkpt><trkpt lat="44.25613809741662" lon="9.524934685048581"><ele>475.0</ele><time>2026-05-01T12:11:06Z</time></trkpt><trkpt lat="44.256012203152075" lon="9.525131673487177"><ele>475.0</ele><time>2026-05-01T12:11:07Z</time></trkpt><trkpt lat="44.2559026487452" lon="9.525378326047045"><ele>475.0</ele><time>2026-05-01T12:11:08Z</time></trkpt><trkpt lat="44.25580954319657" lon="9.5256253097447"><ele>475.0</ele><time>2026-05-01T12:11:09Z</time></trkpt><trkpt lat="44.255754486002935" lon="9.525889133925018"><ele>480.33333333333337</ele><time>2026-05-01T12:11:10Z</time></trkpt><trkpt lat="44.25573033310413" lon="9.5261888485643"><ele>485.66666666666663</ele><time>2026-05-01T12:11:11Z</time></trkpt><trkpt lat="44.25572448370086" lon="9.526474620353845"><ele>491.0</ele><time>2026-05-01T12:11:12Z</time></trkpt><trkpt lat="44.25569491408545" lon="9.526721077007343"><ele>493.5</ele><time>2026-05-01T12:11:13Z</time></trkpt><trkpt lat="44.255676599640545" lon="9.52694845078695"><ele>496.0</ele><time>2026-05-01T12:11:14Z</time></trkpt><trkpt lat="44.25562931179961" lon="9.52713322317099"><ele>498.5</ele><time>2026-05-01T12:11:15Z</time></trkpt><trkpt lat="44.255548176657136" lon="9.527291800935213"><ele>501.0</ele><time>2026-05-01T12:11:16Z</time></trkpt><trkpt lat="44.255410585222016" lon="9.527410172498659"><ele>501.0</ele><time>2026-05-01T12:11:17Z</time></trkpt><trkpt lat="44.25524435556179" lon="9.527561633247199"><ele>501.0</ele><time>2026-05-01T12:11:18Z</time></trkpt><trkpt lat="44.255077824235414" lon="9.527743028014182"><ele>501.0</ele><time>2026-05-01T12:11:19Z</time></trkpt><trkpt lat="44.25492204992606" lon="9.527926899269758"><ele>503.33333333333337</ele><time>2026-05-01T12:11:20Z</time></trkpt><trkpt lat="44.25476483648747" lon="9.528149249882844"><ele>505.6666666666667</ele><time>2026-05-01T12:11:21Z</time></trkpt><trkpt lat="44.25460908778293" lon="9.528374777671829"><ele>508.0</ele><time>2026-05-01T12:11:22Z</time></trkpt><trkpt lat="44.254436971153446" lon="9.528581855533883"><ele>518.0</ele><time>2026-05-01T12:11:23Z</time></trkpt><trkpt lat="44.25424376545996" lon="9.528768445024824"><ele>528.0</ele><time>2026-05-01T12:11:24Z</time></trkpt><trkpt lat="44.25410892172395" lon="9.52900595166072"><ele>528.0</ele><time>2026-05-01T12:11:25Z</time></trkpt><trkpt lat="44.25398826350593" lon="9.529218882439576"><ele>528.0</ele><time>2026-05-01T12:11:26.001Z</time></trkpt><trkpt lat="44.25386086135521" lon="9.529375953211956"><ele>528.0</ele><time>2026-05-01T12:11:27.001Z</time></trkpt><trkpt lat="44.25374770581175" lon="9.529518295241443"><ele>531.75</ele><time>2026-05-01T12:11:28.001Z</time></trkpt><trkpt lat="44.25365509733281" lon="9.529621007242197"><ele>535.5</ele><time>2026-05-01T12:11:29.001Z</time></trkpt><trkpt lat="44.2535440424906" lon="9.529654323828755"><ele>539.25</ele><time>2026-05-01T12:11:30.001Z</time></trkpt><trkpt lat="44.253403757015704" lon="9.529600465626432"><ele>543.0</ele><time>2026-05-01T12:11:31.001Z</time></trkpt><trkpt lat="44.25324199730066" lon="9.529563748265168"><ele>542.0</ele><time>2026-05-01T12:11:32.001Z</time></trkpt><trkpt lat="44.25309441030143" lon="9.529437838479947"><ele>541.0</ele><time>2026-05-01T12:11:33.001Z</time></trkpt><trkpt lat="44.25293842918719" lon="9.52932535302561"><ele>540.0</ele><time>2026-05-01T12:11:34.001Z</time></trkpt><trkpt lat="44.252787476818085" lon="9.529188288155474"><ele>540.0</ele><time>2026-05-01T12:11:35.001Z</time></trkpt><trkpt lat="44.25263324762297" lon="9.5290686584685"><ele>540.0</ele><time>2026-05-01T12:11:36.001Z</time></trkpt><trkpt lat="44.25250677712068" lon="9.528978190365525"><ele>540.0</ele><time>2026-05-01T12:11:37.001Z</time></trkpt><trkpt lat="44.252406760231224" lon="9.528911306542065"><ele>540.0</ele><time>2026-05-01T12:11:38.001Z</time></trkpt><trkpt lat="44.252331873724344" lon="9.528882579030546"><ele>540.0</ele><time>2026-05-01T12:11:39.001Z</time></trkpt><trkpt lat="44.252271314426324" lon="9.528918270996403"><ele>540.0</ele><time>2026-05-01T12:11:40.001Z</time></trkpt><trkpt lat="44.25223237739689" lon="9.529125555083313"><ele>540.0</ele><time>2026-05-01T12:11:42.001Z</time></trkpt><trkpt lat="44.25231735330286" lon="9.529252078282765"><ele>540.0</ele><time>2026-05-01T12:11:43.001Z</time></trkpt><trkpt lat="44.25243022521978" lon="9.529352605183883"><ele>540.0</ele><time>2026-05-01T12:11:44.001Z</time></trkpt><trkpt lat="44.25257144096941" lon="9.529466605594221"><ele>540.0</ele><time>2026-05-01T12:11:45.001Z</time></trkpt><trkpt lat="44.252709970077156" lon="9.529633953401742"><ele>540.0</ele><time>2026-05-01T12:11:46.001Z</time></trkpt><trkpt lat="44.252864648344534" lon="9.52979460357896"><ele>541.0</ele><time>2026-05-01T12:11:47.001Z</time></trkpt><trkpt lat="44.2530250382597" lon="9.529961240276327"><ele>542.0</ele><time>2026-05-01T12:11:48.001Z</time></trkpt><trkpt lat="44.25320544891908" lon="9.53012275843753"><ele>543.0</ele><time>2026-05-01T12:11:49.001Z</time></trkpt><trkpt lat="44.253358124530955" lon="9.530311475463176"><ele>548.25</ele><time>2026-05-01T12:11:50.001Z</time></trkpt><trkpt lat="44.253473888131246" lon="9.530433771506727"><ele>553.5</ele><time>2026-05-01T12:11:51.001Z</time></trkpt><trkpt lat="44.25357951019373" lon="9.530525547820892"><ele>558.75</ele><time>2026-05-01T12:11:52.001Z</time></trkpt><trkpt lat="44.2536157566555" lon="9.530701003314407"><ele>564.0</ele><time>2026-05-01T12:11:53.001Z</time></trkpt><trkpt lat="44.25365731453145" lon="9.530908046050156"><ele>564.0</ele><time>2026-05-01T12:11:54.001Z</time></trkpt><trkpt lat="44.253698220459185" lon="9.53111702643574"><ele>564.0</ele><time>2026-05-01T12:11:55.001Z</time></trkpt><trkpt lat="44.253730747300466" lon="9.531300107196445"><ele>564.0</ele><time>2026-05-01T12:11:56.001Z</time></trkpt><trkpt lat="44.25374179257607" lon="9.531445909399473"><ele>564.0</ele><time>2026-05-01T12:11:57.001Z</time></trkpt><trkpt lat="44.25366144344709" lon="9.531558474387191"><ele>566.0</ele><time>2026-05-01T12:11:58.001Z</time></trkpt><trkpt lat="44.25354406812933" lon="9.531667911524208"><ele>568.0</ele><time>2026-05-01T12:11:59.001Z</time></trkpt><trkpt lat="44.25340180521773" lon="9.53179143085656"><ele>570.0</ele><time>2026-05-01T12:12:00.001Z</time></trkpt><trkpt lat="44.253276936383976" lon="9.531917224783562"><ele>570.0</ele><time>2026-05-01T12:12:01.001Z</time></trkpt><trkpt lat="44.25319839252355" lon="9.532004261153514"><ele>570.0</ele><time>2026-05-01T12:12:02.001Z</time></trkpt><trkpt lat="44.25318969109523" lon="9.532109578418611"><ele>570.0</ele><time>2026-05-01T12:12:03.001Z</time></trkpt><trkpt lat="44.25322490051034" lon="9.532250273837676"><ele>570.0</ele><time>2026-05-01T12:12:04.001Z</time></trkpt><trkpt lat="44.25331380817676" lon="9.532402389522353"><ele>570.0</ele><time>2026-05-01T12:12:05.001Z</time></trkpt><trkpt lat="44.25341512436326" lon="9.532590652219765"><ele>571.3333333333334</ele><time>2026-05-01T12:12:06.001Z</time></trkpt><trkpt lat="44.253517506948796" lon="9.532781459664644"><ele>572.6666666666667</ele><time>2026-05-01T12:12:07.001Z</time></trkpt><trkpt lat="44.25360359488641" lon="9.532963139656205"><ele>574.0</ele><time>2026-05-01T12:12:08.001Z</time></trkpt><trkpt lat="44.25365862000598" lon="9.533152807702507"><ele>574.0</ele><time>2026-05-01T12:12:09.001Z</time></trkpt><trkpt lat="44.253650398491565" lon="9.53335386405369"><ele>574.0</ele><time>2026-05-01T12:12:10.001Z</time></trkpt><trkpt lat="44.25360364455448" lon="9.533565132636065"><ele>574.0</ele><time>2026-05-01T12:12:11.001Z</time></trkpt><trkpt lat="44.253632132541995" lon="9.533754930471448"><ele>574.0</ele><time>2026-05-01T12:12:12.001Z</time></trkpt><trkpt lat="44.25368527966037" lon="9.53393801277018"><ele>575.75</ele><time>2026-05-01T12:12:13.001Z</time></trkpt><trkpt lat="44.25377646951274" lon="9.534098954879541"><ele>577.5</ele><time>2026-05-01T12:12:14.002Z</time></trkpt><trkpt lat="44.25383580440333" lon="9.534234545265027"><ele>579.25</ele><time>2026-05-01T12:12:15.002Z</time></trkpt><trkpt lat="44.25382219265295" lon="9.534384911946214"><ele>581.0</ele><time>2026-05-01T12:12:16.002Z</time></trkpt><trkpt lat="44.253714147048264" lon="9.534533890588081"><ele>577.3333333333333</ele><time>2026-05-01T12:12:17.002Z</time></trkpt><trkpt lat="44.253622974063205" lon="9.534760577279014"><ele>573.6666666666666</ele><time>2026-05-01T12:12:18.002Z</time></trkpt><trkpt lat="44.253552147671485" lon="9.535021409406927"><ele>570.0</ele><time>2026-05-01T12:12:19.002Z</time></trkpt><trkpt lat="44.25348825411667" lon="9.535278080312183"><ele>567.3333333333334</ele><time>2026-05-01T12:12:20.002Z</time></trkpt><trkpt lat="44.25346298207075" lon="9.535515334676878"><ele>564.6666666666667</ele><time>2026-05-01T12:12:21.002Z</time></trkpt><trkpt lat="44.25348010683892" lon="9.535751621232807"><ele>562.0</ele><time>2026-05-01T12:12:22.002Z</time></trkpt><trkpt lat="44.25350340230081" lon="9.53600680620119"><ele>560.0</ele><time>2026-05-01T12:12:23.002Z</time></trkpt><trkpt lat="44.25349214244437" lon="9.53627884757194"><ele>558.0</ele><time>2026-05-01T12:12:24.002Z</time></trkpt><trkpt lat="44.253467255366665" lon="9.536550888661068"><ele>556.0</ele><time>2026-05-01T12:12:25.002Z</time></trkpt><trkpt lat="44.25344175138" lon="9.53681848119307"><ele>555.0</ele><time>2026-05-01T12:12:26.002Z</time></trkpt><trkpt lat="44.2534017795359" lon="9.537073648861638"><ele>554.0</ele><time>2026-05-01T12:12:27.002Z</time></trkpt><trkpt lat="44.253367157426304" lon="9.537307982851228"><ele>553.0</ele><time>2026-05-01T12:12:28.002Z</time></trkpt><trkpt lat="44.25334736299804" lon="9.537518180359147"><ele>553.0</ele><time>2026-05-01T12:12:29.002Z</time></trkpt><trkpt lat="44.25336291528305" lon="9.537703419615227"><ele>553.0</ele><time>2026-05-01T12:12:30.002Z</time></trkpt><trkpt lat="44.253427133369904" lon="9.537869948624314"><ele>553.0</ele><time>2026-05-01T12:12:31.002Z</time></trkpt><trkpt lat="44.2535357110993" lon="9.538012277121947"><ele>553.0</ele><time>2026-05-01T12:12:32.002Z</time></trkpt><trkpt lat="44.25368063762654" lon="9.53811644794127"><ele>550.0</ele><time>2026-05-01T12:12:33.002Z</time></trkpt><trkpt lat="44.25378715594126" lon="9.538230827538808"><ele>547.0</ele><time>2026-05-01T12:12:34.002Z</time></trkpt><trkpt lat="44.25381008666561" lon="9.538419695436717"><ele>544.0</ele><time>2026-05-01T12:12:35.002Z</time></trkpt><trkpt lat="44.25383544107139" lon="9.53864730566711"><ele>541.0</ele><time>2026-05-01T12:12:36.002Z</time></trkpt><trkpt lat="44.25388857078088" lon="9.538894069804684"><ele>549.3333333333334</ele><time>2026-05-01T12:12:37.002Z</time></trkpt><trkpt lat="44.253970896270644" lon="9.539129077556211"><ele>557.6666666666666</ele><time>2026-05-01T12:12:38.002Z</time></trkpt><trkpt lat="44.25409089545134" lon="9.539358902382542"><ele>566.0</ele><time>2026-05-01T12:12:39.002Z</time></trkpt><trkpt lat="44.254154948022496" lon="9.539612308042253"><ele>566.0</ele><time>2026-05-01T12:12:40.002Z</time></trkpt><trkpt lat="44.25420051753803" lon="9.539841447790852"><ele>566.0</ele><time>2026-05-01T12:12:41.002Z</time></trkpt><trkpt lat="44.25420247080551" lon="9.54006108021455"><ele>566.0</ele><time>2026-05-01T12:12:42.002Z</time></trkpt><trkpt lat="44.254180806776034" lon="9.540329895139699"><ele>567.0</ele><time>2026-05-01T12:12:43.002Z</time></trkpt><trkpt lat="44.2541714774269" lon="9.540599915058062"><ele>568.0</ele><time>2026-05-01T12:12:44.002Z</time></trkpt><trkpt lat="44.25412906407206" lon="9.54083578746706"><ele>569.0</ele><time>2026-05-01T12:12:45.002Z</time></trkpt><trkpt lat="44.25407715972543" lon="9.541077970813937"><ele>573.3333333333333</ele><time>2026-05-01T12:12:46.002Z</time></trkpt><trkpt lat="44.25396276561262" lon="9.541301322423053"><ele>577.6666666666666</ele><time>2026-05-01T12:12:47.002Z</time></trkpt><trkpt lat="44.25385266954727" lon="9.541554511917987"><ele>582.0</ele><time>2026-05-01T12:12:48.002Z</time></trkpt><trkpt lat="44.25373518904054" lon="9.541791622222034"><ele>568.6666666666666</ele><time>2026-05-01T12:12:49.002Z</time></trkpt><trkpt lat="44.25365481320937" lon="9.542039124660997"><ele>555.3333333333333</ele><time>2026-05-01T12:12:50.002Z</time></trkpt><trkpt lat="44.25361275699079" lon="9.542276481944764"><ele>542.0</ele><time>2026-05-01T12:12:51.002Z</time></trkpt><trkpt lat="44.25360668282086" lon="9.542505249071082"><ele>542.0</ele><time>2026-05-01T12:12:52.002Z</time></trkpt><trkpt lat="44.25364811319708" lon="9.542714497868811"><ele>542.0</ele><time>2026-05-01T12:12:53.002Z</time></trkpt><trkpt lat="44.25373154304787" lon="9.542902463300594"><ele>542.0</ele><time>2026-05-01T12:12:54.002Z</time></trkpt><trkpt lat="44.25385316016556" lon="9.543089710310875"><ele>552.3333333333333</ele><time>2026-05-01T12:12:55.002Z</time></trkpt><trkpt lat="44.25399469327907" lon="9.543260463314885"><ele>562.6666666666666</ele><time>2026-05-01T12:12:56.002Z</time></trkpt><trkpt lat="44.254102606000124" lon="9.543416304958944"><ele>573.0</ele><time>2026-05-01T12:12:57.002Z</time></trkpt><trkpt lat="44.25412694521906" lon="9.543614297318776"><ele>571.0</ele><time>2026-05-01T12:12:58.002Z</time></trkpt><trkpt lat="44.25411645240999" lon="9.54385293227509"><ele>569.0</ele><time>2026-05-01T12:12:59.003Z</time></trkpt><trkpt lat="44.25413880183292" lon="9.544127931992271"><ele>567.0</ele><time>2026-05-01T12:13:00.003Z</time></trkpt><trkpt lat="44.25415965799002" lon="9.54441458032939"><ele>565.6666666666666</ele><time>2026-05-01T12:13:01.003Z</time></trkpt><trkpt lat="44.254217113580935" lon="9.544711756203217"><ele>564.3333333333333</ele><time>2026-05-01T12:13:02.003Z</time></trkpt><trkpt lat="44.25430123444174" lon="9.54500774645937"><ele>563.0</ele><time>2026-05-01T12:13:03.003Z</time></trkpt><trkpt lat="44.25439607525919" lon="9.545274183449996"><ele>563.0</ele><time>2026-05-01T12:13:04.003Z</time></trkpt><trkpt lat="44.25445866712251" lon="9.545510674057113"><ele>563.0</ele><time>2026-05-01T12:13:05.003Z</time></trkpt><trkpt lat="44.25446044758388" lon="9.545761087214972"><ele>563.0</ele><time>2026-05-01T12:13:06Z</time></trkpt><trkpt lat="44.254449349443384" lon="9.546031958029493"><ele>566.0</ele><time>2026-05-01T12:13:07Z</time></trkpt><trkpt lat="44.25443250385789" lon="9.546317149759172"><ele>569.0</ele><time>2026-05-01T12:13:08Z</time></trkpt><trkpt lat="44.25437886150459" lon="9.546578168606928"><ele>572.0</ele><time>2026-05-01T12:13:09Z</time></trkpt><trkpt lat="44.25429544692511" lon="9.546819198763837"><ele>575.6666666666666</ele><time>2026-05-01T12:13:10Z</time></trkpt><trkpt lat="44.2542140179073" lon="9.547048102058275"><ele>579.3333333333334</ele><time>2026-05-01T12:13:11Z</time></trkpt><trkpt lat="44.254073344296394" lon="9.547197144801366"><ele>583.0</ele><time>2026-05-01T12:13:12Z</time></trkpt><trkpt lat="44.25395490140128" lon="9.547362158286749"><ele>572.0</ele><time>2026-05-01T12:13:13Z</time></trkpt><trkpt lat="44.25386545633123" lon="9.547483591280265"><ele>561.0</ele><time>2026-05-01T12:13:14Z</time></trkpt><trkpt lat="44.2538317594084" lon="9.547633998516257"><ele>550.0</ele><time>2026-05-01T12:13:15Z</time></trkpt><trkpt lat="44.253848695248244" lon="9.547836971501392"><ele>539.0</ele><time>2026-05-01T12:13:16Z</time></trkpt><trkpt lat="44.25386459905995" lon="9.548073150057878"><ele>538.6666666666666</ele><time>2026-05-01T12:13:17Z</time></trkpt><trkpt lat="44.25388160569338" lon="9.548304818702274"><ele>538.3333333333334</ele><time>2026-05-01T12:13:18Z</time></trkpt><trkpt lat="44.253931528989426" lon="9.548490324195786"><ele>538.0</ele><time>2026-05-01T12:13:19Z</time></trkpt><trkpt lat="44.25401712579344" lon="9.54866602729666"><ele>546.3333333333334</ele><time>2026-05-01T12:13:20Z</time></trkpt><trkpt lat="44.25416663308025" lon="9.548824116722232"><ele>554.6666666666666</ele><time>2026-05-01T12:13:21Z</time></trkpt><trkpt lat="44.254327357042825" lon="9.548986519924672"><ele>563.0</ele><time>2026-05-01T12:13:22Z</time></trkpt><trkpt lat="44.25449148069638" lon="9.549158961938591"><ele>563.0</ele><time>2026-05-01T12:13:23Z</time></trkpt><trkpt lat="44.25462884133917" lon="9.549312956223723"><ele>563.0</ele><time>2026-05-01T12:13:24Z</time></trkpt><trkpt lat="44.254776157712314" lon="9.549424372771524"><ele>563.0</ele><time>2026-05-01T12:13:25Z</time></trkpt><trkpt lat="44.254945316993414" lon="9.549493790890892"><ele>563.5</ele><time>2026-05-01T12:13:26Z</time></trkpt><trkpt lat="44.255102437197785" lon="9.549536828580926"><ele>564.0</ele><time>2026-05-01T12:13:27Z</time></trkpt><trkpt lat="44.25521509794621" lon="9.549619596396573"><ele>564.5</ele><time>2026-05-01T12:13:28Z</time></trkpt><trkpt lat="44.25529283937346" lon="9.549743665933018"><ele>565.0</ele><time>2026-05-01T12:13:29Z</time></trkpt><trkpt lat="44.25531271603018" lon="9.549909168613805"><ele>565.0</ele><time>2026-05-01T12:13:30Z</time></trkpt><trkpt lat="44.25532947791287" lon="9.550120243934666"><ele>565.0</ele><time>2026-05-01T12:13:31Z</time></trkpt><trkpt lat="44.25532790842953" lon="9.550357044030234"><ele>565.0</ele><time>2026-05-01T12:13:32Z</time></trkpt><trkpt lat="44.25530328111702" lon="9.550608370704262"><ele>566.6666666666667</ele><time>2026-05-01T12:13:33Z</time></trkpt><trkpt lat="44.25525082322958" lon="9.55082269767897"><ele>568.3333333333334</ele><time>2026-05-01T12:13:34Z</time></trkpt><trkpt lat="44.25514192428181" lon="9.55101449980912"><ele>570.0</ele><time>2026-05-01T12:13:35Z</time></trkpt><trkpt lat="44.25501461144519" lon="9.551222610612403"><ele>565.6666666666666</ele><time>2026-05-01T12:13:36Z</time></trkpt><trkpt lat="44.25490064095136" lon="9.551450798620682"><ele>561.3333333333333</ele><time>2026-05-01T12:13:37Z</time></trkpt><trkpt lat="44.25476279865187" lon="9.551667497123427"><ele>557.0</ele><time>2026-05-01T12:13:38Z</time></trkpt><trkpt lat="44.25463186127011" lon="9.55188899617191"><ele>562.0</ele><time>2026-05-01T12:13:39Z</time></trkpt><trkpt lat="44.25450502017744" lon="9.552101969495546"><ele>567.0</ele><time>2026-05-01T12:13:40Z</time></trkpt><trkpt lat="44.25437762657351" lon="9.552308490388954"><ele>572.0</ele><time>2026-05-01T12:13:41Z</time></trkpt><trkpt lat="44.25426632885125" lon="9.552507631966568"><ele>572.0</ele><time>2026-05-01T12:13:42Z</time></trkpt><trkpt lat="44.25417946136706" lon="9.552731472936902"><ele>572.0</ele><time>2026-05-01T12:13:43.001Z</time></trkpt><trkpt lat="44.25412283763977" lon="9.552985681389904"><ele>572.0</ele><time>2026-05-01T12:13:44.001Z</time></trkpt><trkpt lat="44.25409471783414" lon="9.553246797445093"><ele>577.6666666666666</ele><time>2026-05-01T12:13:45.001Z</time></trkpt><trkpt lat="44.254073728683665" lon="9.553502225207765"><ele>583.3333333333334</ele><time>2026-05-01T12:13:46.001Z</time></trkpt><trkpt lat="44.254028877462105" lon="9.55373842605795"><ele>589.0</ele><time>2026-05-01T12:13:47.001Z</time></trkpt><trkpt lat="44.254012921367604" lon="9.553978993478994"><ele>592.0</ele><time>2026-05-01T12:13:48.001Z</time></trkpt><trkpt lat="44.2539761228705" lon="9.554218542352055"><ele>595.0</ele><time>2026-05-01T12:13:49.001Z</time></trkpt><trkpt lat="44.25394587934826" lon="9.554475909657985"><ele>598.0</ele><time>2026-05-01T12:13:50.001Z</time></trkpt><trkpt lat="44.25391644138046" lon="9.554679710572815"><ele>593.4</ele><time>2026-05-01T12:13:51.001Z</time></trkpt><trkpt lat="44.253882080473176" lon="9.554847464185247"><ele>588.8</ele><time>2026-05-01T12:13:52.001Z</time></trkpt><trkpt lat="44.25386280110605" lon="9.554992087384516"><ele>584.2</ele><time>2026-05-01T12:13:53.001Z</time></trkpt><trkpt lat="44.25384455308377" lon="9.555129455537504"><ele>579.6</ele><time>2026-05-01T12:13:54.001Z</time></trkpt><trkpt lat="44.253840001270305" lon="9.555277955576772"><ele>575.0</ele><time>2026-05-01T12:13:55.001Z</time></trkpt><trkpt lat="44.25381239671623" lon="9.555446630695378"><ele>575.0</ele><time>2026-05-01T12:13:56.001Z</time></trkpt><trkpt lat="44.25378820850788" lon="9.55564284663696"><ele>575.0</ele><time>2026-05-01T12:13:57.001Z</time></trkpt><trkpt lat="44.253755932914174" lon="9.555864182546284"><ele>575.0</ele><time>2026-05-01T12:13:58.001Z</time></trkpt><trkpt lat="44.25372617331362" lon="9.556110560036094"><ele>579.3333333333333</ele><time>2026-05-01T12:13:59.001Z</time></trkpt><trkpt lat="44.25369446925923" lon="9.556362253954141"><ele>583.6666666666666</ele><time>2026-05-01T12:14:00.001Z</time></trkpt><trkpt lat="44.25366035418996" lon="9.556601190964114"><ele>588.0</ele><time>2026-05-01T12:14:01.001Z</time></trkpt><trkpt lat="44.25362003172364" lon="9.556795774960143"><ele>588.0</ele><time>2026-05-01T12:14:02.001Z</time></trkpt><trkpt lat="44.25352508729716" lon="9.556938796017283"><ele>588.0</ele><time>2026-05-01T12:14:03.001Z</time></trkpt><trkpt lat="44.25343566655704" lon="9.557078500107963"><ele>588.0</ele><time>2026-05-01T12:14:04.001Z</time></trkpt><trkpt lat="44.253352857249105" lon="9.557234164074929"><ele>588.0</ele><time>2026-05-01T12:14:05.001Z</time></trkpt><trkpt lat="44.253312691642606" lon="9.557473767323321"><ele>593.6666666666666</ele><time>2026-05-01T12:14:06.001Z</time></trkpt><trkpt lat="44.25325951700697" lon="9.55772458800897"><ele>599.3333333333333</ele><time>2026-05-01T12:14:07.001Z</time></trkpt><trkpt lat="44.253133630441674" lon="9.55793844574182"><ele>605.0</ele><time>2026-05-01T12:14:08.001Z</time></trkpt><trkpt lat="44.25301199268417" lon="9.558156305159661"><ele>607.0</ele><time>2026-05-01T12:14:09.001Z</time></trkpt><trkpt lat="44.25291649593248" lon="9.55829840176592"><ele>609.0</ele><time>2026-05-01T12:14:10.001Z</time></trkpt><trkpt lat="44.2528193915067" lon="9.558385272825394"><ele>611.0</ele><time>2026-05-01T12:14:11.001Z</time></trkpt><trkpt lat="44.25270036353295" lon="9.558377370127614"><ele>613.0</ele><time>2026-05-01T12:14:12.001Z</time></trkpt><trkpt lat="44.252567048123744" lon="9.558331431828048"><ele>613.0</ele><time>2026-05-01T12:14:13.001Z</time></trkpt><trkpt lat="44.252418755284914" lon="9.558298836592481"><ele>613.0</ele><time>2026-05-01T12:14:14.001Z</time></trkpt><trkpt lat="44.252307084823435" lon="9.558295736057547"><ele>613.0</ele><time>2026-05-01T12:14:15.001Z</time></trkpt><trkpt lat="44.25222207209756" lon="9.55837978883316"><ele>613.0</ele><time>2026-05-01T12:14:16.001Z</time></trkpt><trkpt lat="44.25215523940716" lon="9.55852280600334"><ele>604.6666666666667</ele><time>2026-05-01T12:14:17.001Z</time></trkpt><trkpt lat="44.25214120579958" lon="9.558717753306981"><ele>596.3333333333334</ele><time>2026-05-01T12:14:18.001Z</time></trkpt><trkpt lat="44.25217294903019" lon="9.558929570050571"><ele>588.0</ele><time>2026-05-01T12:14:19.001Z</time></trkpt><trkpt lat="44.252228281571945" lon="9.559173817356966"><ele>588.0</ele><time>2026-05-01T12:14:20.001Z</time></trkpt><trkpt lat="44.25226137061104" lon="9.559451116081389"><ele>588.0</ele><time>2026-05-01T12:14:21.001Z</time></trkpt><trkpt lat="44.252302045979924" lon="9.559731976488504"><ele>588.0</ele><time>2026-05-01T12:14:22.001Z</time></trkpt><trkpt lat="44.25234435284447" lon="9.560000164914605"><ele>599.6666666666666</ele><time>2026-05-01T12:14:23.001Z</time></trkpt><trkpt lat="44.25237543281675" lon="9.560237501462609"><ele>611.3333333333333</ele><time>2026-05-01T12:14:24.001Z</time></trkpt><trkpt lat="44.252346933796915" lon="9.56042340433273"><ele>623.0</ele><time>2026-05-01T12:14:25.001Z</time></trkpt><trkpt lat="44.25228988046892" lon="9.560638856516723"><ele>612.0</ele><time>2026-05-01T12:14:26.001Z</time></trkpt><trkpt lat="44.25222662068673" lon="9.56087867205027"><ele>601.0</ele><time>2026-05-01T12:14:27.002Z</time></trkpt><trkpt lat="44.25213058657843" lon="9.561106513468076"><ele>590.0</ele><time>2026-05-01T12:14:28.002Z</time></trkpt><trkpt lat="44.252012275362546" lon="9.561294629339194"><ele>590.0</ele><time>2026-05-01T12:14:29.002Z</time></trkpt><trkpt lat="44.251934865621486" lon="9.561474592755681"><ele>590.0</ele><time>2026-05-01T12:14:30.002Z</time></trkpt><trkpt lat="44.2518974739152" lon="9.561669891314963"><ele>590.0</ele><time>2026-05-01T12:14:31.002Z</time></trkpt><trkpt lat="44.251917852171175" lon="9.561855753628278"><ele>590.0</ele><time>2026-05-01T12:14:32.002Z</time></trkpt><trkpt lat="44.25198207368529" lon="9.562015808946672"><ele>588.0</ele><time>2026-05-01T12:14:33.002Z</time></trkpt><trkpt lat="44.25207749248469" lon="9.562176310098508"><ele>586.0</ele><time>2026-05-01T12:14:34.002Z</time></trkpt><trkpt lat="44.25213168625506" lon="9.56234384773065"><ele>584.0</ele><time>2026-05-01T12:14:35.002Z</time></trkpt><trkpt lat="44.25212233847595" lon="9.562516993811782"><ele>582.0</ele><time>2026-05-01T12:14:36.002Z</time></trkpt><trkpt lat="44.252099707509274" lon="9.562748949083211"><ele>583.0</ele><time>2026-05-01T12:14:37.002Z</time></trkpt><trkpt lat="44.252074851862716" lon="9.563020075287747"><ele>584.0</ele><time>2026-05-01T12:14:38.002Z</time></trkpt><trkpt lat="44.25204789043516" lon="9.563300269463351"><ele>585.0</ele><time>2026-05-01T12:14:39.002Z</time></trkpt><trkpt lat="44.252028779224254" lon="9.563562440462153"><ele>586.5</ele><time>2026-05-01T12:14:40.002Z</time></trkpt><trkpt lat="44.25197688538127" lon="9.563784016431121"><ele>588.0</ele><time>2026-05-01T12:14:41.002Z</time></trkpt><trkpt lat="44.25191844117587" lon="9.563965609405594"><ele>589.5</ele><time>2026-05-01T12:14:42.002Z</time></trkpt><trkpt lat="44.251898159537944" lon="9.564136484192115"><ele>591.0</ele><time>2026-05-01T12:14:43.002Z</time></trkpt><trkpt lat="44.25193754750351" lon="9.56433899421274"><ele>588.0</ele><time>2026-05-01T12:14:44.002Z</time></trkpt><trkpt lat="44.252018907965045" lon="9.564553080650516"><ele>585.0</ele><time>2026-05-01T12:14:45.002Z</time></trkpt><trkpt lat="44.25208194601345" lon="9.564777329040961"><ele>582.0</ele><time>2026-05-01T12:14:46.002Z</time></trkpt><trkpt lat="44.25214933128088" lon="9.564960720912236"><ele>582.0</ele><time>2026-05-01T12:14:47.002Z</time></trkpt><trkpt lat="44.25217433666635" lon="9.565150982708163"><ele>582.0</ele><time>2026-05-01T12:14:48.002Z</time></trkpt><trkpt lat="44.252122942616296" lon="9.565355900516666"><ele>582.0</ele><time>2026-05-01T12:14:49.002Z</time></trkpt><trkpt lat="44.2520794981567" lon="9.565614107749184"><ele>585.6666666666666</ele><time>2026-05-01T12:14:50.002Z</time></trkpt><trkpt lat="44.25203647118396" lon="9.565864499364618"><ele>589.3333333333333</ele><time>2026-05-01T12:14:51.002Z</time></trkpt><trkpt lat="44.25201232115634" lon="9.566073320848579"><ele>593.0</ele><time>2026-05-01T12:14:52.002Z</time></trkpt><trkpt lat="44.251969248284446" lon="9.56622249178295"><ele>598.25</ele><time>2026-05-01T12:14:53.002Z</time></trkpt><trkpt lat="44.25190178335848" lon="9.566326208000362"><ele>603.5</ele><time>2026-05-01T12:14:54.002Z</time></trkpt><trkpt lat="44.25179332392565" lon="9.566386603911296"><ele>608.75</ele><time>2026-05-01T12:14:55.002Z</time></trkpt><trkpt lat="44.25165216112203" lon="9.566371560857917"><ele>614.0</ele><time>2026-05-01T12:14:56.002Z</time></trkpt><trkpt lat="44.25153330740293" lon="9.566405689122195"><ele>611.75</ele><time>2026-05-01T12:14:57.002Z</time></trkpt><trkpt lat="44.25141857908724" lon="9.566446769048515"><ele>609.5</ele><time>2026-05-01T12:14:58.002Z</time></trkpt><trkpt lat="44.25132298413848" lon="9.566568076962877"><ele>607.25</ele><time>2026-05-01T12:14:59.002Z</time></trkpt><trkpt lat="44.25125291565302" lon="9.566776786736622"><ele>605.0</ele><time>2026-05-01T12:15:00.002Z</time></trkpt><trkpt lat="44.25119610149153" lon="9.567033749447905"><ele>605.0</ele><time>2026-05-01T12:15:01.002Z</time></trkpt><trkpt lat="44.251129215596045" lon="9.567306702109015"><ele>605.0</ele><time>2026-05-01T12:15:02.002Z</time></trkpt><trkpt lat="44.25104180268422" lon="9.567550062322013"><ele>605.0</ele><time>2026-05-01T12:15:03.002Z</time></trkpt><trkpt lat="44.25098184387995" lon="9.567743762921237"><ele>603.8</ele><time>2026-05-01T12:15:04.002Z</time></trkpt><trkpt lat="44.25093232681533" lon="9.567874566672314"><ele>602.6</ele><time>2026-05-01T12:15:05.002Z</time></trkpt><trkpt lat="44.25087026197649" lon="9.567962019757136"><ele>601.4</ele><time>2026-05-01T12:15:06.002Z</time></trkpt><trkpt lat="44.2507537605982" lon="9.567989331110882"><ele>600.2</ele><time>2026-05-01T12:15:07.002Z</time></trkpt><trkpt lat="44.2506263228286" lon="9.567949111709925"><ele>599.0</ele><time>2026-05-01T12:15:08.002Z</time></trkpt><trkpt lat="44.250502473994686" lon="9.567811089181724"><ele>599.0</ele><time>2026-05-01T12:15:09.002Z</time></trkpt><trkpt lat="44.25033944792053" lon="9.56772234361593"><ele>599.0</ele><time>2026-05-01T12:15:10.002Z</time></trkpt><trkpt lat="44.25016094036803" lon="9.567625885942292"><ele>599.0</ele><time>2026-05-01T12:15:11.002Z</time></trkpt><trkpt lat="44.24998947749308" lon="9.567568604318764"><ele>599.0</ele><time>2026-05-01T12:15:12Z</time></trkpt><trkpt lat="44.24985979894258" lon="9.567545494396292"><ele>599.0</ele><time>2026-05-01T12:15:13Z</time></trkpt><trkpt lat="44.249752500829956" lon="9.567573285169027"><ele>599.0</ele><time>2026-05-01T12:15:14Z</time></trkpt><trkpt lat="44.249668252669586" lon="9.567664718735818"><ele>599.0</ele><time>2026-05-01T12:15:15Z</time></trkpt><trkpt lat="44.249608746923485" lon="9.567808400062024"><ele>596.6666666666666</ele><time>2026-05-01T12:15:16Z</time></trkpt><trkpt lat="44.24957681824748" lon="9.567994159137395"><ele>594.3333333333334</ele><time>2026-05-01T12:15:17Z</time></trkpt><trkpt lat="44.24959138559786" lon="9.568221614705386"><ele>592.0</ele><time>2026-05-01T12:15:18Z</time></trkpt><trkpt lat="44.24962570217913" lon="9.568469810976026"><ele>592.6666666666667</ele><time>2026-05-01T12:15:19Z</time></trkpt><trkpt lat="44.249630635077146" lon="9.568743429211205"><ele>593.3333333333334</ele><time>2026-05-01T12:15:20Z</time></trkpt><trkpt lat="44.249644966913515" lon="9.56901371578316"><ele>594.0</ele><time>2026-05-01T12:15:21Z</time></trkpt><trkpt lat="44.249651549559" lon="9.56924092671512"><ele>594.0</ele><time>2026-05-01T12:15:22Z</time></trkpt><trkpt lat="44.24961671368397" lon="9.569428286381163"><ele>594.0</ele><time>2026-05-01T12:15:23Z</time></trkpt><trkpt lat="44.249528836133344" lon="9.569609041376195"><ele>594.0</ele><time>2026-05-01T12:15:24Z</time></trkpt><trkpt lat="44.24942797984598" lon="9.569833616108836"><ele>598.3333333333334</ele><time>2026-05-01T12:15:25Z</time></trkpt><trkpt lat="44.24932698300606" lon="9.570059172591213"><ele>602.6666666666667</ele><time>2026-05-01T12:15:26Z</time></trkpt><trkpt lat="44.24922182077147" lon="9.57029102727946"><ele>607.0</ele><time>2026-05-01T12:15:27Z</time></trkpt><trkpt lat="44.249131132953224" lon="9.570531779224314"><ele>600.6666666666667</ele><time>2026-05-01T12:15:28Z</time></trkpt><trkpt lat="44.249012158172306" lon="9.570765335261141"><ele>594.3333333333334</ele><time>2026-05-01T12:15:29Z</time></trkpt><trkpt lat="44.24884541600854" lon="9.57094665628549"><ele>588.0</ele><time>2026-05-01T12:15:30Z</time></trkpt><trkpt lat="44.248683543499055" lon="9.571140170318898"><ele>595.0</ele><time>2026-05-01T12:15:31Z</time></trkpt><trkpt lat="44.24854580238844" lon="9.571318602072115"><ele>602.0</ele><time>2026-05-01T12:15:32Z</time></trkpt><trkpt lat="44.24843131301857" lon="9.571460140051286"><ele>609.0</ele><time>2026-05-01T12:15:33Z</time></trkpt><trkpt lat="44.24834771539905" lon="9.571567006252092"><ele>609.0</ele><time>2026-05-01T12:15:34Z</time></trkpt><trkpt lat="44.24828925080007" lon="9.571671420281415"><ele>609.0</ele><time>2026-05-01T12:15:35Z</time></trkpt><trkpt lat="44.24829808830825" lon="9.571857802478634"><ele>609.0</ele><time>2026-05-01T12:15:36Z</time></trkpt><trkpt lat="44.24830264717534" lon="9.572062557088131"><ele>609.0</ele><time>2026-05-01T12:15:37Z</time></trkpt><trkpt lat="44.248305183544275" lon="9.572266503626528"><ele>608.0</ele><time>2026-05-01T12:15:38Z</time></trkpt><trkpt lat="44.248328685131064" lon="9.572438021399346"><ele>607.0</ele><time>2026-05-01T12:15:39Z</time></trkpt><trkpt lat="44.248399454786984" lon="9.57257719384021"><ele>606.0</ele><time>2026-05-01T12:15:40Z</time></trkpt><trkpt lat="44.24850121559037" lon="9.572678422608048"><ele>605.0</ele><time>2026-05-01T12:15:41Z</time></trkpt><trkpt lat="44.24864069991974" lon="9.572752316225142"><ele>600.0</ele><time>2026-05-01T12:15:42Z</time></trkpt><trkpt lat="44.24875006344378" lon="9.572916881673224"><ele>595.0</ele><time>2026-05-01T12:15:43Z</time></trkpt><trkpt lat="44.248848502748714" lon="9.573116227977172"><ele>590.0</ele><time>2026-05-01T12:15:44Z</time></trkpt><trkpt lat="44.24892271564033" lon="9.573292217331925"><ele>590.0</ele><time>2026-05-01T12:15:45Z</time></trkpt><trkpt lat="44.24894876968418" lon="9.573434694074265"><ele>590.0</ele><time>2026-05-01T12:15:46Z</time></trkpt><trkpt lat="44.24891445578839" lon="9.573580186517729"><ele>590.0</ele><time>2026-05-01T12:15:47Z</time></trkpt><trkpt lat="44.24887158789237" lon="9.573779576439449"><ele>590.0</ele><time>2026-05-01T12:15:48Z</time></trkpt><trkpt lat="44.24883199958175" lon="9.57401332550559"><ele>591.6666666666666</ele><time>2026-05-01T12:15:49Z</time></trkpt><trkpt lat="44.24875258306303" lon="9.574190548192592"><ele>593.3333333333334</ele><time>2026-05-01T12:15:50Z</time></trkpt><trkpt lat="44.248634502474395" lon="9.574317891808303"><ele>595.0</ele><time>2026-05-01T12:15:51Z</time></trkpt><trkpt lat="44.24848088754025" lon="9.574468030387884"><ele>594.6666666666667</ele><time>2026-05-01T12:15:52Z</time></trkpt><trkpt lat="44.248323662027964" lon="9.574649316499979"><ele>594.3333333333334</ele><time>2026-05-01T12:15:53.001Z</time></trkpt><trkpt lat="44.24814730736893" lon="9.574813528289356"><ele>594.0</ele><time>2026-05-01T12:15:54.001Z</time></trkpt><trkpt lat="44.24796601858805" lon="9.574995097536627"><ele>594.0</ele><time>2026-05-01T12:15:55.001Z</time></trkpt><trkpt lat="44.24778170815157" lon="9.575175156322468"><ele>594.0</ele><time>2026-05-01T12:15:56.001Z</time></trkpt><trkpt lat="44.24759193473629" lon="9.575351706849318"><ele>590.3333333333334</ele><time>2026-05-01T12:15:57.001Z</time></trkpt><trkpt lat="44.24741663068131" lon="9.575511841914434"><ele>586.6666666666667</ele><time>2026-05-01T12:15:58.001Z</time></trkpt><trkpt lat="44.24727623261216" lon="9.575653980772497"><ele>583.0</ele><time>2026-05-01T12:15:59.001Z</time></trkpt><trkpt lat="44.247167386910256" lon="9.575816598019737"><ele>583.0</ele><time>2026-05-01T12:16:00.001Z</time></trkpt><trkpt lat="44.247100559353626" lon="9.57603809245605"><ele>583.0</ele><time>2026-05-01T12:16:01.001Z</time></trkpt><trkpt lat="44.24705271321264" lon="9.576321925020203"><ele>583.0</ele><time>2026-05-01T12:16:02.001Z</time></trkpt><trkpt lat="44.24697277896854" lon="9.576600617311387"><ele>590.0</ele><time>2026-05-01T12:16:03.001Z</time></trkpt><trkpt lat="44.24689058650282" lon="9.576827826617995"><ele>597.0</ele><time>2026-05-01T12:16:04.001Z</time></trkpt><trkpt lat="44.246803805562436" lon="9.577000302904683"><ele>604.0</ele><time>2026-05-01T12:16:05.001Z</time></trkpt><trkpt lat="44.246695552624566" lon="9.577135900209731"><ele>606.6666666666667</ele><time>2026-05-01T12:16:06.001Z</time></trkpt><trkpt lat="44.24655196246733" lon="9.577162433512427"><ele>609.3333333333334</ele><time>2026-05-01T12:16:07.001Z</time></trkpt><trkpt lat="44.24637444022021" lon="9.577172464711513"><ele>612.0</ele><time>2026-05-01T12:16:08.001Z</time></trkpt><trkpt lat="44.246166588927046" lon="9.57720324963358"><ele>612.0</ele><time>2026-05-01T12:16:09.001Z</time></trkpt><trkpt lat="44.24594644635714" lon="9.577238496772294"><ele>612.0</ele><time>2026-05-01T12:16:10.001Z</time></trkpt><trkpt lat="44.24571984717167" lon="9.577265582527515"><ele>612.0</ele><time>2026-05-01T12:16:11.001Z</time></trkpt><trkpt lat="44.245517153320456" lon="9.57731393700549"><ele>605.6666666666666</ele><time>2026-05-01T12:16:12.001Z</time></trkpt><trkpt lat="44.245318938667296" lon="9.577407137429164"><ele>599.3333333333333</ele><time>2026-05-01T12:16:13.001Z</time></trkpt><trkpt lat="44.24512664755435" lon="9.577571754258775"><ele>593.0</ele><time>2026-05-01T12:16:14.001Z</time></trkpt><trkpt lat="44.24494604974821" lon="9.5777451561886"><ele>596.5</ele><time>2026-05-01T12:16:15.001Z</time></trkpt><trkpt lat="44.2448239198007" lon="9.577887401452863"><ele>600.0</ele><time>2026-05-01T12:16:16.001Z</time></trkpt><trkpt lat="44.24474131719325" lon="9.578031266774634"><ele>603.5</ele><time>2026-05-01T12:16:17.001Z</time></trkpt><trkpt lat="44.24469920670009" lon="9.578218634287888"><ele>607.0</ele><time>2026-05-01T12:16:18.001Z</time></trkpt><trkpt lat="44.244688790616735" lon="9.578460000164277"><ele>597.3333333333334</ele><time>2026-05-01T12:16:19.001Z</time></trkpt><trkpt lat="44.24465695584336" lon="9.57870476710747"><ele>587.6666666666666</ele><time>2026-05-01T12:16:20.001Z</time></trkpt><trkpt lat="44.24462853727003" lon="9.578919188682734"><ele>578.0</ele><time>2026-05-01T12:16:21.001Z</time></trkpt><trkpt lat="44.24455297199174" lon="9.579067827378664"><ele>578.0</ele><time>2026-05-01T12:16:22.001Z</time></trkpt><trkpt lat="44.24445564143078" lon="9.579206424763598"><ele>578.0</ele><time>2026-05-01T12:16:23.001Z</time></trkpt><trkpt lat="44.244365781328" lon="9.579334895606328"><ele>578.0</ele><time>2026-05-01T12:16:24.001Z</time></trkpt><trkpt lat="44.244306178456924" lon="9.579453695907697"><ele>578.0</ele><time>2026-05-01T12:16:25.001Z</time></trkpt><trkpt lat="44.244250167108206" lon="9.579570787933653"><ele>581.1999999999999</ele><time>2026-05-01T12:16:26.001Z</time></trkpt><trkpt lat="44.244218329096796" lon="9.579710984059089"><ele>584.4</ele><time>2026-05-01T12:16:27.001Z</time></trkpt><trkpt lat="44.24421187436268" lon="9.579859425995659"><ele>587.5999999999999</ele><time>2026-05-01T12:16:28.001Z</time></trkpt><trkpt lat="44.24422022086839" lon="9.58000668499073"><ele>590.8</ele><time>2026-05-01T12:16:29.001Z</time></trkpt><trkpt lat="44.24428332367501" lon="9.580137208893406"><ele>594.0</ele><time>2026-05-01T12:16:30.001Z</time></trkpt><trkpt lat="44.24432112761281" lon="9.580288320584405"><ele>593.3333333333334</ele><time>2026-05-01T12:16:31.001Z</time></trkpt><trkpt lat="44.24438316896099" lon="9.580453566046552"><ele>592.6666666666667</ele><time>2026-05-01T12:16:32.001Z</time></trkpt><trkpt lat="44.24445395290281" lon="9.580642097263228"><ele>592.0</ele><time>2026-05-01T12:16:33.001Z</time></trkpt><trkpt lat="44.24453345291821" lon="9.580856552773048"><ele>592.0</ele><time>2026-05-01T12:16:34.001Z</time></trkpt><trkpt lat="44.24461370109628" lon="9.581072992090142"><ele>592.0</ele><time>2026-05-01T12:16:35.001Z</time></trkpt><trkpt lat="44.24469554778102" lon="9.581293633857475"><ele>592.0</ele><time>2026-05-01T12:16:36.002Z</time></trkpt><trkpt lat="44.24477682236849" lon="9.581511009388796"><ele>592.3333333333334</ele><time>2026-05-01T12:16:37.002Z</time></trkpt><trkpt lat="44.24485888118507" lon="9.58172962959392"><ele>592.6666666666666</ele><time>2026-05-01T12:16:38.002Z</time></trkpt><trkpt lat="44.24494391155789" lon="9.581958410104978"><ele>593.0</ele><time>2026-05-01T12:16:39.002Z</time></trkpt><trkpt lat="44.24504484814259" lon="9.582185646307448"><ele>591.6666666666666</ele><time>2026-05-01T12:16:40.002Z</time></trkpt><trkpt lat="44.24513432645974" lon="9.582424057965078"><ele>590.3333333333334</ele><time>2026-05-01T12:16:41.002Z</time></trkpt><trkpt lat="44.24523792637178" lon="9.582668659926643"><ele>589.0</ele><time>2026-05-01T12:16:42.002Z</time></trkpt><trkpt lat="44.24539905049614" lon="9.582880598733949"><ele>588.6666666666667</ele><time>2026-05-01T12:16:43.002Z</time></trkpt><trkpt lat="44.24559598714597" lon="9.583042113399927"><ele>588.3333333333334</ele><time>2026-05-01T12:16:44.002Z</time></trkpt><trkpt lat="44.245771785230026" lon="9.583172427889851"><ele>588.0</ele><time>2026-05-01T12:16:45.002Z</time></trkpt><trkpt lat="44.24588065540632" lon="9.583297339342982"><ele>588.0</ele><time>2026-05-01T12:16:46.002Z</time></trkpt><trkpt lat="44.24597856874066" lon="9.583500553985946"><ele>588.0</ele><time>2026-05-01T12:16:47.002Z</time></trkpt><trkpt lat="44.246096611130916" lon="9.583653282204711"><ele>588.0</ele><time>2026-05-01T12:16:48.002Z</time></trkpt><trkpt lat="44.24617954348416" lon="9.583780765727912"><ele>588.0</ele><time>2026-05-01T12:16:49.002Z</time></trkpt><trkpt lat="44.24629403877388" lon="9.583829255684426"><ele>588.0</ele><time>2026-05-01T12:16:50.002Z</time></trkpt><trkpt lat="44.24643798804515" lon="9.583815717388195"><ele>588.0</ele><time>2026-05-01T12:16:51.002Z</time></trkpt><trkpt lat="44.24659337033861" lon="9.583755001465567"><ele>588.0</ele><time>2026-05-01T12:16:52.002Z</time></trkpt><trkpt lat="44.24672763748328" lon="9.583727471849345"><ele>588.0</ele><time>2026-05-01T12:16:53.002Z</time></trkpt><trkpt lat="44.24682121173875" lon="9.583830585552162"><ele>588.0</ele><time>2026-05-01T12:16:54.002Z</time></trkpt><trkpt lat="44.24689207179769" lon="9.583967632055467"><ele>588.0</ele><time>2026-05-01T12:16:55.002Z</time></trkpt><trkpt lat="44.24693278023897" lon="9.584152168843966"><ele>588.0</ele><time>2026-05-01T12:16:56.002Z</time></trkpt><trkpt lat="44.24697983994523" lon="9.58437476895734"><ele>585.6666666666666</ele><time>2026-05-01T12:16:57.002Z</time></trkpt><trkpt lat="44.24703310436963" lon="9.584621722230997"><ele>583.3333333333333</ele><time>2026-05-01T12:16:58.002Z</time></trkpt><trkpt lat="44.247092865490885" lon="9.584898796334983"><ele>581.0</ele><time>2026-05-01T12:16:59.002Z</time></trkpt><trkpt lat="44.247155330287875" lon="9.58518987045984"><ele>579.3333333333333</ele><time>2026-05-01T12:17:00.002Z</time></trkpt><trkpt lat="44.24722529008827" lon="9.58543797167855"><ele>577.6666666666666</ele><time>2026-05-01T12:17:01.002Z</time></trkpt><trkpt lat="44.24727975912936" lon="9.585654864061379"><ele>576.0</ele><time>2026-05-01T12:17:02.002Z</time></trkpt><trkpt lat="44.24737757204479" lon="9.585820514229887"><ele>578.25</ele><time>2026-05-01T12:17:03.002Z</time></trkpt><trkpt lat="44.247515751776376" lon="9.585947892704745"><ele>580.5</ele><time>2026-05-01T12:17:04.002Z</time></trkpt><trkpt lat="44.24758297608753" lon="9.586101768383823"><ele>582.75</ele><time>2026-05-01T12:17:05.002Z</time></trkpt><trkpt lat="44.247589635262365" lon="9.586268668408849"><ele>585.0</ele><time>2026-05-01T12:17:06.002Z</time></trkpt><trkpt lat="44.24754645295451" lon="9.586432300153062"><ele>585.0</ele><time>2026-05-01T12:17:07.002Z</time></trkpt><trkpt lat="44.24753106418607" lon="9.586606586328053"><ele>585.0</ele><time>2026-05-01T12:17:08.002Z</time></trkpt><trkpt lat="44.2475361239008" lon="9.586811624606074"><ele>585.0</ele><time>2026-05-01T12:17:09.002Z</time></trkpt><trkpt lat="44.24759130344573" lon="9.58703442199615"><ele>585.0</ele><time>2026-05-01T12:17:10.002Z</time></trkpt><trkpt lat="44.247698806256" lon="9.587237185150535"><ele>584.2</ele><time>2026-05-01T12:17:11.002Z</time></trkpt><trkpt lat="44.24781442000381" lon="9.587377183840518"><ele>583.4</ele><time>2026-05-01T12:17:12.002Z</time></trkpt><trkpt lat="44.247868236453364" lon="9.587502604595146"><ele>582.6</ele><time>2026-05-01T12:17:13.002Z</time></trkpt><trkpt lat="44.247873034228846" lon="9.587616380187013"><ele>581.8</ele><time>2026-05-01T12:17:14.002Z</time></trkpt><trkpt lat="44.24782418406844" lon="9.587737836869042"><ele>581.0</ele><time>2026-05-01T12:17:15.002Z</time></trkpt><trkpt lat="44.24771418292961" lon="9.587841943992686"><ele>584.6666666666666</ele><time>2026-05-01T12:17:16.002Z</time></trkpt><trkpt lat="44.247609339225335" lon="9.588027222011512"><ele>588.3333333333334</ele><time>2026-05-01T12:17:17.002Z</time></trkpt><trkpt lat="44.24746992374126" lon="9.588210685666812"><ele>592.0</ele><time>2026-05-01T12:17:18Z</time></trkpt><trkpt lat="44.24734848960318" lon="9.588394997532227"><ele>581.0</ele><time>2026-05-01T12:17:19Z</time></trkpt><trkpt lat="44.24726210741106" lon="9.588581603633047"><ele>570.0</ele><time>2026-05-01T12:17:20Z</time></trkpt><trkpt lat="44.247206875165375" lon="9.588832029002159"><ele>559.0</ele><time>2026-05-01T12:17:21Z</time></trkpt><trkpt lat="44.24717680253285" lon="9.58910462023587"><ele>558.0</ele><time>2026-05-01T12:17:22Z</time></trkpt><trkpt lat="44.247174843551136" lon="9.58933769327237"><ele>557.0</ele><time>2026-05-01T12:17:23Z</time></trkpt><trkpt lat="44.2472177035492" lon="9.589530151287429"><ele>556.0</ele><time>2026-05-01T12:17:24Z</time></trkpt><trkpt lat="44.247307679521185" lon="9.58971854801791"><ele>561.25</ele><time>2026-05-01T12:17:25Z</time></trkpt><trkpt lat="44.247426758467086" lon="9.58988357348809"><ele>566.5</ele><time>2026-05-01T12:17:26Z</time></trkpt><trkpt lat="44.24747590806472" lon="9.59005630359322"><ele>571.75</ele><time>2026-05-01T12:17:27Z</time></trkpt><trkpt lat="44.24744480242267" lon="9.590225933241667"><ele>577.0</ele><time>2026-05-01T12:17:28Z</time></trkpt><trkpt lat="44.24739382911878" lon="9.590409682766268"><ele>577.0</ele><time>2026-05-01T12:17:29Z</time></trkpt><trkpt lat="44.2473898971628" lon="9.590579915003866"><ele>577.0</ele><time>2026-05-01T12:17:30Z</time></trkpt><trkpt lat="44.247409968135635" lon="9.590731323985924"><ele>577.0</ele><time>2026-05-01T12:17:31Z</time></trkpt><trkpt lat="44.24750659821037" lon="9.590902848411371"><ele>577.0</ele><time>2026-05-01T12:17:32Z</time></trkpt><trkpt lat="44.247644632166235" lon="9.591090607996485"><ele>572.0</ele><time>2026-05-01T12:17:33Z</time></trkpt><trkpt lat="44.24777996169302" lon="9.591299595240688"><ele>567.0</ele><time>2026-05-01T12:17:34Z</time></trkpt><trkpt lat="44.24787885007617" lon="9.591473260774748"><ele>562.0</ele><time>2026-05-01T12:17:35Z</time></trkpt><trkpt lat="44.24792858325681" lon="9.591623868716162"><ele>562.0</ele><time>2026-05-01T12:17:36Z</time></trkpt><trkpt lat="44.247944595915584" lon="9.591789628720116"><ele>562.0</ele><time>2026-05-01T12:17:37Z</time></trkpt><trkpt lat="44.24789398660689" lon="9.591968645246181"><ele>562.0</ele><time>2026-05-01T12:17:38Z</time></trkpt><trkpt lat="44.2477828388321" lon="9.592165561818645"><ele>562.0</ele><time>2026-05-01T12:17:39Z</time></trkpt><trkpt lat="44.247659565452125" lon="9.592400652003162"><ele>563.6666666666667</ele><time>2026-05-01T12:17:40Z</time></trkpt><trkpt lat="44.24754242093156" lon="9.592647787051977"><ele>565.3333333333334</ele><time>2026-05-01T12:17:41Z</time></trkpt><trkpt lat="44.247428351853245" lon="9.592849931814756"><ele>567.0</ele><time>2026-05-01T12:17:42Z</time></trkpt><trkpt lat="44.24734302181479" lon="9.593031895407016"><ele>567.25</ele><time>2026-05-01T12:17:43Z</time></trkpt><trkpt lat="44.24728305177655" lon="9.593200045258907"><ele>567.5</ele><time>2026-05-01T12:17:44Z</time></trkpt><trkpt lat="44.24727276528906" lon="9.59338506274175"><ele>567.75</ele><time>2026-05-01T12:17:45Z</time></trkpt><trkpt lat="44.24732253829621" lon="9.593584427391148"><ele>568.0</ele><time>2026-05-01T12:17:46Z</time></trkpt><trkpt lat="44.24741604838401" lon="9.593794024042719"><ele>568.0</ele><time>2026-05-01T12:17:47Z</time></trkpt><trkpt lat="44.24750676166472" lon="9.59400759910058"><ele>568.0</ele><time>2026-05-01T12:17:48Z</time></trkpt><trkpt lat="44.24756155087792" lon="9.594205127236881"><ele>568.0</ele><time>2026-05-01T12:17:49Z</time></trkpt><trkpt lat="44.247527520844635" lon="9.59441115754047"><ele>566.6666666666667</ele><time>2026-05-01T12:17:50Z</time></trkpt><trkpt lat="44.2474861073064" lon="9.594690599341511"><ele>565.3333333333334</ele><time>2026-05-01T12:17:51Z</time></trkpt><trkpt lat="44.24745600473776" lon="9.595001914049016"><ele>564.0</ele><time>2026-05-01T12:17:52Z</time></trkpt><trkpt lat="44.24740395710813" lon="9.595291155405533"><ele>563.75</ele><time>2026-05-01T12:17:53Z</time></trkpt><trkpt lat="44.24737256684608" lon="9.595531631403999"><ele>563.5</ele><time>2026-05-01T12:17:54Z</time></trkpt><trkpt lat="44.24734293049565" lon="9.595720867585522"><ele>563.25</ele><time>2026-05-01T12:17:55Z</time></trkpt><trkpt lat="44.247386035193465" lon="9.595898906122473"><ele>563.0</ele><time>2026-05-01T12:17:56Z</time></trkpt><trkpt lat="44.24747139147431" lon="9.59606036897354"><ele>555.6666666666666</ele><time>2026-05-01T12:17:57Z</time></trkpt><trkpt lat="44.24760110512969" lon="9.5962307397042"><ele>548.3333333333334</ele><time>2026-05-01T12:17:58Z</time></trkpt><trkpt lat="44.247743801430936" lon="9.59636063562991"><ele>541.0</ele><time>2026-05-01T12:17:59.001Z</time></trkpt><trkpt lat="44.24787570079662" lon="9.596438893275433"><ele>541.0</ele><time>2026-05-01T12:18:00.001Z</time></trkpt><trkpt lat="44.248025969126886" lon="9.596463989943526"><ele>541.0</ele><time>2026-05-01T12:18:01.001Z</time></trkpt><trkpt lat="44.24819267836035" lon="9.596409691988388"><ele>541.0</ele><time>2026-05-01T12:18:02.001Z</time></trkpt><trkpt lat="44.24832132027303" lon="9.596396001412263"><ele>545.75</ele><time>2026-05-01T12:18:03.001Z</time></trkpt><trkpt lat="44.248412241778595" lon="9.596441295927237"><ele>550.5</ele><time>2026-05-01T12:18:04.001Z</time></trkpt><trkpt lat="44.24848218171214" lon="9.596530326375225"><ele>555.25</ele><time>2026-05-01T12:18:05.001Z</time></trkpt><trkpt lat="44.248471719432665" lon="9.596709222025643"><ele>560.0</ele><time>2026-05-01T12:18:06.001Z</time></trkpt><trkpt lat="44.248520550644535" lon="9.596907376433292"><ele>553.0</ele><time>2026-05-01T12:18:07.001Z</time></trkpt><trkpt lat="44.24856491225156" lon="9.597111316474196"><ele>546.0</ele><time>2026-05-01T12:18:08.001Z</time></trkpt><trkpt lat="44.248690097824266" lon="9.597287273731284"><ele>539.0</ele><time>2026-05-01T12:18:09.001Z</time></trkpt><trkpt lat="44.248845691744144" lon="9.597445806259474"><ele>539.0</ele><time>2026-05-01T12:18:10.001Z</time></trkpt><trkpt lat="44.24893656984161" lon="9.59764233312832"><ele>539.0</ele><time>2026-05-01T12:18:11.001Z</time></trkpt><trkpt lat="44.248982705454054" lon="9.597851067733114"><ele>539.0</ele><time>2026-05-01T12:18:12.001Z</time></trkpt><trkpt lat="44.248989994993664" lon="9.598098383650116"><ele>543.3333333333333</ele><time>2026-05-01T12:18:13.001Z</time></trkpt><trkpt lat="44.24899418788152" lon="9.598388199116417"><ele>547.6666666666666</ele><time>2026-05-01T12:18:14.001Z</time></trkpt><trkpt lat="44.24900974929702" lon="9.598675605395611"><ele>552.0</ele><time>2026-05-01T12:18:15.001Z</time></trkpt><trkpt lat="44.249010719904746" lon="9.598960449449503"><ele>552.0</ele><time>2026-05-01T12:18:16.001Z</time></trkpt><trkpt lat="44.24901522781556" lon="9.59921005903157"><ele>552.0</ele><time>2026-05-01T12:18:17.001Z</time></trkpt><trkpt lat="44.24902544666935" lon="9.599427363670742"><ele>552.0</ele><time>2026-05-01T12:18:18.001Z</time></trkpt><trkpt lat="44.249067780759276" lon="9.599632519281181"><ele>548.6666666666666</ele><time>2026-05-01T12:18:19.001Z</time></trkpt><trkpt lat="44.24916903355279" lon="9.599857265602306"><ele>545.3333333333333</ele><time>2026-05-01T12:18:20.001Z</time></trkpt><trkpt lat="44.24928962913106" lon="9.600103398539584"><ele>542.0</ele><time>2026-05-01T12:18:21.001Z</time></trkpt><trkpt lat="44.249397055438436" lon="9.600389545139757"><ele>537.0</ele><time>2026-05-01T12:18:22.001Z</time></trkpt><trkpt lat="44.24952079488084" lon="9.600639169909586"><ele>532.0</ele><time>2026-05-01T12:18:23.001Z</time></trkpt><trkpt lat="44.24961431354119" lon="9.60087438995485"><ele>527.0</ele><time>2026-05-01T12:18:24.001Z</time></trkpt><trkpt lat="44.24969947729045" lon="9.6010885939415"><ele>528.0</ele><time>2026-05-01T12:18:25.001Z</time></trkpt><trkpt lat="44.24977793508669" lon="9.601243638994703"><ele>529.0</ele><time>2026-05-01T12:18:26.001Z</time></trkpt><trkpt lat="44.249874454729955" lon="9.60133335219188"><ele>530.0</ele><time>2026-05-01T12:18:27.001Z</time></trkpt><trkpt lat="44.25000163965627" lon="9.60135716441936"><ele>531.0</ele><time>2026-05-01T12:18:28.001Z</time></trkpt><trkpt lat="44.250142008813285" lon="9.601352202130126"><ele>531.0</ele><time>2026-05-01T12:18:29.001Z</time></trkpt><trkpt lat="44.25026478977208" lon="9.601405943401863"><ele>531.0</ele><time>2026-05-01T12:18:30.001Z</time></trkpt><trkpt lat="44.250346132798214" lon="9.60157794767913"><ele>531.0</ele><time>2026-05-01T12:18:31.001Z</time></trkpt><trkpt lat="44.25044496737361" lon="9.60180315580982"><ele>534.6666666666666</ele><time>2026-05-01T12:18:32.001Z</time></trkpt><trkpt lat="44.250572627378006" lon="9.602017111870307"><ele>538.3333333333333</ele><time>2026-05-01T12:18:33.001Z</time></trkpt><trkpt lat="44.250704686078805" lon="9.60217607393555"><ele>542.0</ele><time>2026-05-01T12:18:34.001Z</time></trkpt><trkpt lat="44.25081873027393" lon="9.602265531749692"><ele>542.0</ele><time>2026-05-01T12:18:35.001Z</time></trkpt><trkpt lat="44.25086492414196" lon="9.60235808154707"><ele>542.0</ele><time>2026-05-01T12:18:36.001Z</time></trkpt><trkpt lat="44.250837552298115" lon="9.602502196237639"><ele>542.0</ele><time>2026-05-01T12:18:37.001Z</time></trkpt><trkpt lat="44.250789212074636" lon="9.602641427268868"><ele>542.0</ele><time>2026-05-01T12:18:38.001Z</time></trkpt><trkpt lat="44.250660158980466" lon="9.602713672345445"><ele>542.0</ele><time>2026-05-01T12:18:39.001Z</time></trkpt><trkpt lat="44.25058367866539" lon="9.602848216276678"><ele>541.5</ele><time>2026-05-01T12:18:40.002Z</time></trkpt><trkpt lat="44.250533896958956" lon="9.602990878175298"><ele>541.0</ele><time>2026-05-01T12:18:41.002Z</time></trkpt><trkpt lat="44.25055065991256" lon="9.603179496266458"><ele>540.5</ele><time>2026-05-01T12:18:42.002Z</time></trkpt><trkpt lat="44.250619443587674" lon="9.60339138233641"><ele>540.0</ele><time>2026-05-01T12:18:43.002Z</time></trkpt><trkpt lat="44.25070619702788" lon="9.603607880975858"><ele>540.5</ele><time>2026-05-01T12:18:44.002Z</time></trkpt><trkpt lat="44.25071306910144" lon="9.603784255110053"><ele>541.0</ele><time>2026-05-01T12:18:45.002Z</time></trkpt><trkpt lat="44.25069862408025" lon="9.603915365095864"><ele>541.5</ele><time>2026-05-01T12:18:46.002Z</time></trkpt><trkpt lat="44.25062618902755" lon="9.604017305011965"><ele>542.0</ele><time>2026-05-01T12:18:47.002Z</time></trkpt><trkpt lat="44.25050096591278" lon="9.60409000838003"><ele>536.6666666666666</ele><time>2026-05-01T12:18:48.002Z</time></trkpt><trkpt lat="44.25034450292279" lon="9.604189764742854"><ele>531.3333333333334</ele><time>2026-05-01T12:18:49.002Z</time></trkpt><trkpt lat="44.2501979951252" lon="9.604371051664456"><ele>526.0</ele><time>2026-05-01T12:18:50.002Z</time></trkpt><trkpt lat="44.25004788485353" lon="9.604591777484478"><ele>526.0</ele><time>2026-05-01T12:18:51.002Z</time></trkpt><trkpt lat="44.2499279017577" lon="9.604787976731462"><ele>526.0</ele><time>2026-05-01T12:18:52.002Z</time></trkpt><trkpt lat="44.249847924678306" lon="9.604985981171678"><ele>526.0</ele><time>2026-05-01T12:18:53.002Z</time></trkpt><trkpt lat="44.24982202232755" lon="9.605192604065103"><ele>525.0</ele><time>2026-05-01T12:18:54.002Z</time></trkpt><trkpt lat="44.24983344593418" lon="9.605386418643889"><ele>524.0</ele><time>2026-05-01T12:18:55.002Z</time></trkpt><trkpt lat="44.24988857652313" lon="9.605564574802687"><ele>523.0</ele><time>2026-05-01T12:18:56.002Z</time></trkpt><trkpt lat="44.249998690522006" lon="9.605729357493642"><ele>522.0</ele><time>2026-05-01T12:18:57.002Z</time></trkpt><trkpt lat="44.250120926257324" lon="9.605875827031484"><ele>522.0</ele><time>2026-05-01T12:18:58.002Z</time></trkpt><trkpt lat="44.25017566875871" lon="9.606055474258056"><ele>522.0</ele><time>2026-05-01T12:18:59.002Z</time></trkpt><trkpt lat="44.25016759364187" lon="9.606244134139919"><ele>522.0</ele><time>2026-05-01T12:19:00.002Z</time></trkpt><trkpt lat="44.250125709555284" lon="9.60648666754713"><ele>520.3333333333334</ele><time>2026-05-01T12:19:01.002Z</time></trkpt><trkpt lat="44.25008369677254" lon="9.606771450822873"><ele>518.6666666666667</ele><time>2026-05-01T12:19:02.002Z</time></trkpt><trkpt lat="44.250040880850044" lon="9.607069920004704"><ele>517.0</ele><time>2026-05-01T12:19:03.002Z</time></trkpt><trkpt lat="44.25001025612959" lon="9.6073894290591"><ele>517.0</ele><time>2026-05-01T12:19:04.002Z</time></trkpt><trkpt lat="44.24994940502401" lon="9.607711297289617"><ele>517.0</ele><time>2026-05-01T12:19:05.002Z</time></trkpt><trkpt lat="44.24990419240875" lon="9.608028366974956"><ele>517.3333333333334</ele><time>2026-05-01T12:19:06.002Z</time></trkpt><trkpt lat="44.24986163898258" lon="9.608328536088411"><ele>517.6666666666666</ele><time>2026-05-01T12:19:07.002Z</time></trkpt><trkpt lat="44.249823270360416" lon="9.608592643520728"><ele>518.0</ele><time>2026-05-01T12:19:08.002Z</time></trkpt><trkpt lat="44.249769584289716" lon="9.608797500552708"><ele>509.66666666666663</ele><time>2026-05-01T12:19:09.002Z</time></trkpt><trkpt lat="44.24966198420045" lon="9.60893663868786"><ele>501.33333333333337</ele><time>2026-05-01T12:19:10.002Z</time></trkpt><trkpt lat="44.24953499069569" lon="9.609111002519887"><ele>493.0</ele><time>2026-05-01T12:19:11.002Z</time></trkpt><trkpt lat="44.24942446143889" lon="9.609316485734377"><ele>497.33333333333337</ele><time>2026-05-01T12:19:12.002Z</time></trkpt><trkpt lat="44.249329005200735" lon="9.609544586976199"><ele>501.66666666666663</ele><time>2026-05-01T12:19:13.002Z</time></trkpt><trkpt lat="44.249278318492934" lon="9.609799388001425"><ele>506.0</ele><time>2026-05-01T12:19:14.002Z</time></trkpt><trkpt lat="44.2492468325109" lon="9.610058838040286"><ele>506.0</ele><time>2026-05-01T12:19:15.002Z</time></trkpt><trkpt lat="44.249195935353654" lon="9.61028907676143"><ele>506.0</ele><time>2026-05-01T12:19:16.002Z</time></trkpt><trkpt lat="44.249129132538684" lon="9.610494362775222"><ele>506.0</ele><time>2026-05-01T12:19:17.002Z</time></trkpt><trkpt lat="44.24905969758258" lon="9.610686400223948"><ele>504.0</ele><time>2026-05-01T12:19:18.002Z</time></trkpt><trkpt lat="44.24899892717657" lon="9.61089549977707"><ele>502.0</ele><time>2026-05-01T12:19:19.002Z</time></trkpt><trkpt lat="44.248923817486514" lon="9.611082157026418"><ele>500.0</ele><time>2026-05-01T12:19:20.002Z</time></trkpt><trkpt lat="44.24885309491365" lon="9.611259823326364"><ele>500.0</ele><time>2026-05-01T12:19:21.002Z</time></trkpt><trkpt lat="44.2487657025622" lon="9.611407593096791"><ele>500.0</ele><time>2026-05-01T12:19:22.003Z</time></trkpt><trkpt lat="44.24868744022377" lon="9.611553218620687"><ele>500.0</ele><time>2026-05-01T12:19:23.003Z</time></trkpt><trkpt lat="44.24859489260196" lon="9.611673337594675"><ele>500.0</ele><time>2026-05-01T12:19:24Z</time></trkpt><trkpt lat="44.24848377322668" lon="9.611758533369352"><ele>500.0</ele><time>2026-05-01T12:19:25Z</time></trkpt><trkpt lat="44.248381999219745" lon="9.611860898053171"><ele>500.0</ele><time>2026-05-01T12:19:26Z</time></trkpt><trkpt lat="44.24827898874944" lon="9.611952307215983"><ele>500.0</ele><time>2026-05-01T12:19:27Z</time></trkpt><trkpt lat="44.24819786505142" lon="9.612086560623048"><ele>500.0</ele><time>2026-05-01T12:19:28Z</time></trkpt><trkpt lat="44.248164192657725" lon="9.612262572067644"><ele>501.3333333333333</ele><time>2026-05-01T12:19:29Z</time></trkpt><trkpt lat="44.248182423804145" lon="9.612462918323057"><ele>502.66666666666663</ele><time>2026-05-01T12:19:30Z</time></trkpt><trkpt lat="44.24824237723566" lon="9.612687256487922"><ele>504.0</ele><time>2026-05-01T12:19:31Z</time></trkpt><trkpt lat="44.24831417589874" lon="9.612925816592732"><ele>504.0</ele><time>2026-05-01T12:19:32Z</time></trkpt><trkpt lat="44.24835141200718" lon="9.613162942811948"><ele>504.0</ele><time>2026-05-01T12:19:33Z</time></trkpt><trkpt lat="44.248368700617924" lon="9.61336516581583"><ele>504.0</ele><time>2026-05-01T12:19:34Z</time></trkpt><trkpt lat="44.24835701197766" lon="9.613555293885392"><ele>506.66666666666663</ele><time>2026-05-01T12:19:35Z</time></trkpt><trkpt lat="44.24829171950974" lon="9.613710017088493"><ele>509.3333333333333</ele><time>2026-05-01T12:19:36Z</time></trkpt><trkpt lat="44.24820630441119" lon="9.613907754860227"><ele>512.0</ele><time>2026-05-01T12:19:37Z</time></trkpt><trkpt lat="44.248114392485824" lon="9.614095392769375"><ele>504.0</ele><time>2026-05-01T12:19:38Z</time></trkpt><trkpt lat="44.24799823394243" lon="9.614225222792394"><ele>496.0</ele><time>2026-05-01T12:19:39Z</time></trkpt><trkpt lat="44.24785599986095" lon="9.614318248049486"><ele>488.0</ele><time>2026-05-01T12:19:40Z</time></trkpt><trkpt lat="44.247732108817225" lon="9.61442457786036"><ele>491.25</ele><time>2026-05-01T12:19:41Z</time></trkpt><trkpt lat="44.24763888845005" lon="9.614536916656347"><ele>494.5</ele><time>2026-05-01T12:19:42Z</time></trkpt><trkpt lat="44.24758344059019" lon="9.614706901520371"><ele>497.75</ele><time>2026-05-01T12:19:43Z</time></trkpt><trkpt lat="44.24756683325167" lon="9.614945636300966"><ele>501.0</ele><time>2026-05-01T12:19:44Z</time></trkpt><trkpt lat="44.247527260537844" lon="9.615187454274714"><ele>503.5</ele><time>2026-05-01T12:19:45Z</time></trkpt><trkpt lat="44.24749904305848" lon="9.615399426585377"><ele>506.0</ele><time>2026-05-01T12:19:46Z</time></trkpt><trkpt lat="44.24746152810118" lon="9.615572670532977"><ele>508.5</ele><time>2026-05-01T12:19:47Z</time></trkpt><trkpt lat="44.24740158819475" lon="9.615708108244474"><ele>511.0</ele><time>2026-05-01T12:19:48Z</time></trkpt><trkpt lat="44.247322565750174" lon="9.615842229135064"><ele>507.0</ele><time>2026-05-01T12:19:49Z</time></trkpt><trkpt lat="44.24722437613752" lon="9.615950754018511"><ele>503.0</ele><time>2026-05-01T12:19:50Z</time></trkpt><trkpt lat="44.24712909862671" lon="9.61604510587494"><ele>499.0</ele><time>2026-05-01T12:19:51Z</time></trkpt><trkpt lat="44.24699973943864" lon="9.616047660250295"><ele>495.0</ele><time>2026-05-01T12:19:52Z</time></trkpt><trkpt lat="44.24686812279595" lon="9.61604837508205"><ele>495.0</ele><time>2026-05-01T12:19:53Z</time></trkpt><trkpt lat="44.24675443246083" lon="9.616081467895302"><ele>495.0</ele><time>2026-05-01T12:19:54Z</time></trkpt><trkpt lat="44.24666534927659" lon="9.616149793394914"><ele>495.0</ele><time>2026-05-01T12:19:55Z</time></trkpt><trkpt lat="44.24658089788568" lon="9.616256445407485"><ele>495.0</ele><time>2026-05-01T12:19:56Z</time></trkpt><trkpt lat="44.24655194909399" lon="9.616420231101232"><ele>495.5</ele><time>2026-05-01T12:19:57Z</time></trkpt><trkpt lat="44.24655906177313" lon="9.616575495715985"><ele>496.0</ele><time>2026-05-01T12:19:58Z</time></trkpt><trkpt lat="44.24659849688445" lon="9.616725152080665"><ele>496.5</ele><time>2026-05-01T12:19:59Z</time></trkpt><trkpt lat="44.24666022243128" lon="9.616863860532535"><ele>497.0</ele><time>2026-05-01T12:20:00Z</time></trkpt><trkpt lat="44.246688825729684" lon="9.617026038129922"><ele>495.3333333333333</ele><time>2026-05-01T12:20:01Z</time></trkpt><trkpt lat="44.24670045219778" lon="9.617201814936326"><ele>493.66666666666663</ele><time>2026-05-01T12:20:02.001Z</time></trkpt><trkpt lat="44.24669088972578" lon="9.617428245647663"><ele>492.0</ele><time>2026-05-01T12:20:03.001Z</time></trkpt><trkpt lat="44.246676202615845" lon="9.617660047498664"><ele>490.33333333333337</ele><time>2026-05-01T12:20:04.001Z</time></trkpt><trkpt lat="44.24666220122935" lon="9.617881079541931"><ele>488.6666666666667</ele><time>2026-05-01T12:20:05.001Z</time></trkpt><trkpt lat="44.24664849782075" lon="9.618097408557343"><ele>487.0</ele><time>2026-05-01T12:20:06.001Z</time></trkpt><trkpt lat="44.246635864312566" lon="9.618297773075364"><ele>487.0</ele><time>2026-05-01T12:20:07.001Z</time></trkpt><trkpt lat="44.24662622686983" lon="9.618490363930425"><ele>487.0</ele><time>2026-05-01T12:20:08.001Z</time></trkpt><trkpt lat="44.24662028579455" lon="9.618673859508272"><ele>487.0</ele><time>2026-05-01T12:20:09.001Z</time></trkpt><trkpt lat="44.24663803867002" lon="9.618848740081145"><ele>487.0</ele><time>2026-05-01T12:20:10.001Z</time></trkpt><trkpt lat="44.246701837571216" lon="9.619015651756497"><ele>485.5</ele><time>2026-05-01T12:20:11.001Z</time></trkpt><trkpt lat="44.24679279933356" lon="9.61914587950935"><ele>484.0</ele><time>2026-05-01T12:20:12.001Z</time></trkpt><trkpt lat="44.246868885122815" lon="9.619294985786953"><ele>482.5</ele><time>2026-05-01T12:20:13.001Z</time></trkpt><trkpt lat="44.246929172665354" lon="9.61947668062907"><ele>481.0</ele><time>2026-05-01T12:20:14.001Z</time></trkpt><trkpt lat="44.24697092992758" lon="9.619683763937367"><ele>479.0</ele><time>2026-05-01T12:20:15.001Z</time></trkpt><trkpt lat="44.24698628318681" lon="9.619890495246327"><ele>477.0</ele><time>2026-05-01T12:20:16.001Z</time></trkpt><trkpt lat="44.24698564383959" lon="9.620088271559643"><ele>475.0</ele><time>2026-05-01T12:20:17.001Z</time></trkpt><trkpt lat="44.246992150793005" lon="9.620281779398088"><ele>473.0</ele><time>2026-05-01T12:20:18.001Z</time></trkpt><trkpt lat="44.24698413873912" lon="9.620469644148402"><ele>472.0</ele><time>2026-05-01T12:20:19.001Z</time></trkpt><trkpt lat="44.24696011417459" lon="9.620653986135812"><ele>471.0</ele><time>2026-05-01T12:20:20.001Z</time></trkpt><trkpt lat="44.24695454716863" lon="9.620839758184054"><ele>470.0</ele><time>2026-05-01T12:20:21.001Z</time></trkpt><trkpt lat="44.2469607028168" lon="9.620999938785518"><ele>469.0</ele><time>2026-05-01T12:20:22.001Z</time></trkpt><trkpt lat="44.24698022058544" lon="9.621120960187882"><ele>468.33333333333337</ele><time>2026-05-01T12:20:23.001Z</time></trkpt><trkpt lat="44.24700552802056" lon="9.621222368831562"><ele>467.6666666666667</ele><time>2026-05-01T12:20:24.001Z</time></trkpt><trkpt lat="44.247047623469534" lon="9.621332511189486"><ele>467.0</ele><time>2026-05-01T12:20:26.001Z</time></trkpt><trkpt lat="44.24708513684153" lon="9.621418369755148"><ele>466.33333333333337</ele><time>2026-05-01T12:20:30.001Z</time></trkpt><trkpt lat="44.247137792228024" lon="9.621538923425462"><ele>465.6666666666667</ele><time>2026-05-01T12:20:32.001Z</time></trkpt><trkpt lat="44.247187633285556" lon="9.62161009928868"><ele>465.0</ele><time>2026-05-01T12:20:33.001Z</time></trkpt><trkpt lat="44.247212945993006" lon="9.621716645851299"><ele>465.0</ele><time>2026-05-01T12:20:34.001Z</time></trkpt><trkpt lat="44.24723628417379" lon="9.621850941786253"><ele>465.0</ele><time>2026-05-01T12:20:35.001Z</time></trkpt><trkpt lat="44.24723879717081" lon="9.62200320833396"><ele>465.0</ele><time>2026-05-01T12:20:36.001Z</time></trkpt><trkpt lat="44.247210211840574" lon="9.622171743974175"><ele>465.0</ele><time>2026-05-01T12:20:37.001Z</time></trkpt><trkpt lat="44.24713903594135" lon="9.622326152218607"><ele>464.5</ele><time>2026-05-01T12:20:38.001Z</time></trkpt><trkpt lat="44.247105869033234" lon="9.622520033986442"><ele>464.0</ele><time>2026-05-01T12:20:39.001Z</time></trkpt><trkpt lat="44.247043558472924" lon="9.622683504283652"><ele>463.5</ele><time>2026-05-01T12:20:40.001Z</time></trkpt><trkpt lat="44.24700736239525" lon="9.622839363222566"><ele>463.0</ele><time>2026-05-01T12:20:41.001Z</time></trkpt><trkpt lat="44.24694670258073" lon="9.622965025769098"><ele>465.5</ele><time>2026-05-01T12:20:42.001Z</time></trkpt><trkpt lat="44.24684817334685" lon="9.623055509726209"><ele>468.0</ele><time>2026-05-01T12:20:43.002Z</time></trkpt><trkpt lat="44.246737618204136" lon="9.623131021659564"><ele>470.5</ele><time>2026-05-01T12:20:44.002Z</time></trkpt><trkpt lat="44.24661593189983" lon="9.623208542757823"><ele>473.0</ele><time>2026-05-01T12:20:45.002Z</time></trkpt><trkpt lat="44.24650244584729" lon="9.623293885314702"><ele>469.5</ele><time>2026-05-01T12:20:46.002Z</time></trkpt><trkpt lat="44.246389639309555" lon="9.62334005342889"><ele>466.0</ele><time>2026-05-01T12:20:47.002Z</time></trkpt><trkpt lat="44.2462776013193" lon="9.623342381148987"><ele>462.5</ele><time>2026-05-01T12:20:48.002Z</time></trkpt><trkpt lat="44.24615730042979" lon="9.623297739611347"><ele>459.0</ele><time>2026-05-01T12:20:49.002Z</time></trkpt><trkpt lat="44.24605466279248" lon="9.623253481625705"><ele>459.0</ele><time>2026-05-01T12:20:50.002Z</time></trkpt><trkpt lat="44.245958452730555" lon="9.623261511903477"><ele>459.0</ele><time>2026-05-01T12:20:51.002Z</time></trkpt><trkpt lat="44.24586939541492" lon="9.623317783834317"><ele>459.0</ele><time>2026-05-01T12:20:52.002Z</time></trkpt><trkpt lat="44.245810267163215" lon="9.62344923337758"><ele>459.0</ele><time>2026-05-01T12:20:53.002Z</time></trkpt><trkpt lat="44.24579719301739" lon="9.623592900902525"><ele>459.0</ele><time>2026-05-01T12:20:54.002Z</time></trkpt><trkpt lat="44.245825965716136" lon="9.623733110054495"><ele>457.75</ele><time>2026-05-01T12:20:55.002Z</time></trkpt><trkpt lat="44.2459402944328" lon="9.623825881224525"><ele>456.5</ele><time>2026-05-01T12:20:56.002Z</time></trkpt><trkpt lat="44.24605152418206" lon="9.623937489038648"><ele>455.25</ele><time>2026-05-01T12:20:57.002Z</time></trkpt><trkpt lat="44.246149401903494" lon="9.624119234270522"><ele>454.0</ele><time>2026-05-01T12:20:58.002Z</time></trkpt><trkpt lat="44.2462366350905" lon="9.624337499265799"><ele>448.0</ele><time>2026-05-01T12:20:59.002Z</time></trkpt><trkpt lat="44.246320261858344" lon="9.624557779929273"><ele>442.0</ele><time>2026-05-01T12:21:00.002Z</time></trkpt><trkpt lat="44.2463729638787" lon="9.624745867107665"><ele>436.0</ele><time>2026-05-01T12:21:01.002Z</time></trkpt><trkpt lat="44.24637727255629" lon="9.624937085096564"><ele>436.0</ele><time>2026-05-01T12:21:02.002Z</time></trkpt><trkpt lat="44.24635944104458" lon="9.625176465474366"><ele>436.0</ele><time>2026-05-01T12:21:03.002Z</time></trkpt><trkpt lat="44.24640538356168" lon="9.625414849000208"><ele>436.0</ele><time>2026-05-01T12:21:04.002Z</time></trkpt><trkpt lat="44.246451237614544" lon="9.625630174497921"><ele>431.75</ele><time>2026-05-01T12:21:05.002Z</time></trkpt><trkpt lat="44.2465058998125" lon="9.625806805810056"><ele>427.5</ele><time>2026-05-01T12:21:06.002Z</time></trkpt><trkpt lat="44.24648590852248" lon="9.625966256936692"><ele>423.25</ele><time>2026-05-01T12:21:07.002Z</time></trkpt><trkpt lat="44.246402084837044" lon="9.626093597568044"><ele>419.0</ele><time>2026-05-01T12:21:08.002Z</time></trkpt><trkpt lat="44.246329528296044" lon="9.626240169985783"><ele>415.25</ele><time>2026-05-01T12:21:09.002Z</time></trkpt><trkpt lat="44.24630109395473" lon="9.626385353011653"><ele>411.5</ele><time>2026-05-01T12:21:10.002Z</time></trkpt><trkpt lat="44.24629633128546" lon="9.626514921302327"><ele>407.75</ele><time>2026-05-01T12:21:11.002Z</time></trkpt><trkpt lat="44.24639253236624" lon="9.626637549141178"><ele>404.0</ele><time>2026-05-01T12:21:12.002Z</time></trkpt><trkpt lat="44.246514756277506" lon="9.626762284770455"><ele>414.25</ele><time>2026-05-01T12:21:13.002Z</time></trkpt><trkpt lat="44.246629538366975" lon="9.62692148996835"><ele>424.5</ele><time>2026-05-01T12:21:14.002Z</time></trkpt><trkpt lat="44.24671691917388" lon="9.627044536967432"><ele>434.75</ele><time>2026-05-01T12:21:15.002Z</time></trkpt><trkpt lat="44.24677754277191" lon="9.627155183537878"><ele>445.0</ele><time>2026-05-01T12:21:16.002Z</time></trkpt><trkpt lat="44.24675566182521" lon="9.627306670803636"><ele>445.0</ele><time>2026-05-01T12:21:17.002Z</time></trkpt><trkpt lat="44.246711507394316" lon="9.627482578137144"><ele>445.0</ele><time>2026-05-01T12:21:18.002Z</time></trkpt><trkpt lat="44.246696452076954" lon="9.627678457151802"><ele>445.0</ele><time>2026-05-01T12:21:19.002Z</time></trkpt><trkpt lat="44.24667183936256" lon="9.627836372506895"><ele>445.0</ele><time>2026-05-01T12:21:20.002Z</time></trkpt><trkpt lat="44.24668238558504" lon="9.627992544422671"><ele>444.8</ele><time>2026-05-01T12:21:21.002Z</time></trkpt><trkpt lat="44.246725799507715" lon="9.628136529557636"><ele>444.6</ele><time>2026-05-01T12:21:22.003Z</time></trkpt><trkpt lat="44.24678676352075" lon="9.628260568919291"><ele>444.4</ele><time>2026-05-01T12:21:23.003Z</time></trkpt><trkpt lat="44.24680465940366" lon="9.628397798628425"><ele>444.2</ele><time>2026-05-01T12:21:24.003Z</time></trkpt><trkpt lat="44.24680017522016" lon="9.628538146065873"><ele>444.0</ele><time>2026-05-01T12:21:25.003Z</time></trkpt><trkpt lat="44.24671685934419" lon="9.628713473203534"><ele>444.0</ele><time>2026-05-01T12:21:26.003Z</time></trkpt><trkpt lat="44.246666924377266" lon="9.628911309422573"><ele>444.0</ele><time>2026-05-01T12:21:27.003Z</time></trkpt><trkpt lat="44.24661179372931" lon="9.629089290374427"><ele>444.0</ele><time>2026-05-01T12:21:28.003Z</time></trkpt><trkpt lat="44.24655915702761" lon="9.62925214302709"><ele>444.0</ele><time>2026-05-01T12:21:29Z</time></trkpt><trkpt lat="44.24649230653278" lon="9.629402700915401"><ele>437.79999999999995</ele><time>2026-05-01T12:21:30Z</time></trkpt><trkpt lat="44.24640227303107" lon="9.629516659988955"><ele>431.59999999999997</ele><time>2026-05-01T12:21:31Z</time></trkpt><trkpt lat="44.246289961389515" lon="9.629566462162074"><ele>425.4</ele><time>2026-05-01T12:21:32Z</time></trkpt><trkpt lat="44.2461842400868" lon="9.62959980905272"><ele>419.2</ele><time>2026-05-01T12:21:33Z</time></trkpt><trkpt lat="44.246108905707885" lon="9.629678882198522"><ele>413.0</ele><time>2026-05-01T12:21:34Z</time></trkpt><trkpt lat="44.24606967912199" lon="9.62981486936473"><ele>413.0</ele><time>2026-05-01T12:21:35Z</time></trkpt><trkpt lat="44.24605426252131" lon="9.63000615771331"><ele>413.0</ele><time>2026-05-01T12:21:36Z</time></trkpt><trkpt lat="44.24605166532305" lon="9.63018844769201"><ele>413.0</ele><time>2026-05-01T12:21:37Z</time></trkpt><trkpt lat="44.246040465530854" lon="9.630346524756996"><ele>413.0</ele><time>2026-05-01T12:21:38Z</time></trkpt><trkpt lat="44.24601418125683" lon="9.630495314428291"><ele>415.4</ele><time>2026-05-01T12:21:39Z</time></trkpt><trkpt lat="44.24595770195235" lon="9.630621261492669"><ele>417.79999999999995</ele><time>2026-05-01T12:21:40Z</time></trkpt><trkpt lat="44.245879522520966" lon="9.630716182789918"><ele>420.2</ele><time>2026-05-01T12:21:41Z</time></trkpt><trkpt lat="44.24577887027214" lon="9.630775175933783"><ele>422.6</ele><time>2026-05-01T12:21:42Z</time></trkpt><trkpt lat="44.24566511114257" lon="9.630803837448742"><ele>425.0</ele><time>2026-05-01T12:21:43Z</time></trkpt><trkpt lat="44.24555807601573" lon="9.630779734228325"><ele>420.0</ele><time>2026-05-01T12:21:44Z</time></trkpt><trkpt lat="44.24546247655027" lon="9.63072880165351"><ele>415.0</ele><time>2026-05-01T12:21:45Z</time></trkpt><trkpt lat="44.24537303571891" lon="9.63068931991695"><ele>410.0</ele><time>2026-05-01T12:21:46Z</time></trkpt><trkpt lat="44.24527994766435" lon="9.630722386745127"><ele>405.0</ele><time>2026-05-01T12:21:47Z</time></trkpt><trkpt lat="44.2452099277692" lon="9.630824520735201"><ele>400.0</ele><time>2026-05-01T12:21:48Z</time></trkpt><trkpt lat="44.245167130097194" lon="9.630956699123093"><ele>400.0</ele><time>2026-05-01T12:21:49Z</time></trkpt><trkpt lat="44.24516557908038" lon="9.63110706908905"><ele>400.0</ele><time>2026-05-01T12:21:50Z</time></trkpt><trkpt lat="44.24516898606359" lon="9.631242624883903"><ele>400.0</ele><time>2026-05-01T12:21:51Z</time></trkpt><trkpt lat="44.24515336839748" lon="9.63138869307096"><ele>400.0</ele><time>2026-05-01T12:21:52Z</time></trkpt><trkpt lat="44.24510393903834" lon="9.631532792739895"><ele>400.0</ele><time>2026-05-01T12:21:53Z</time></trkpt><trkpt lat="44.24502730173145" lon="9.6316586041178"><ele>399.25</ele><time>2026-05-01T12:21:54Z</time></trkpt><trkpt lat="44.24493033211666" lon="9.631746339428032"><ele>398.5</ele><time>2026-05-01T12:21:55Z</time></trkpt><trkpt lat="44.244821196996924" lon="9.631796461749603"><ele>397.75</ele><time>2026-05-01T12:21:56Z</time></trkpt><trkpt lat="44.244699412879996" lon="9.631807857500908"><ele>397.0</ele><time>2026-05-01T12:21:57Z</time></trkpt><trkpt lat="44.24458105863548" lon="9.631807199241742"><ele>397.0</ele><time>2026-05-01T12:21:58Z</time></trkpt><trkpt lat="44.244473557781" lon="9.631830389680507"><ele>397.0</ele><time>2026-05-01T12:21:59Z</time></trkpt><trkpt lat="44.24437374478673" lon="9.63186929156822"><ele>397.0</ele><time>2026-05-01T12:22:00Z</time></trkpt><trkpt lat="44.24429614408918" lon="9.631931429875294"><ele>397.0</ele><time>2026-05-01T12:22:01Z</time></trkpt><trkpt lat="44.244247067705075" lon="9.632018349655578"><ele>397.0</ele><time>2026-05-01T12:22:02Z</time></trkpt><trkpt lat="44.24424088772625" lon="9.632137094686842"><ele>396.75</ele><time>2026-05-01T12:22:03Z</time></trkpt><trkpt lat="44.24426807779873" lon="9.632287881853003"><ele>396.5</ele><time>2026-05-01T12:22:04Z</time></trkpt><trkpt lat="44.244316127026096" lon="9.63244935048065"><ele>396.25</ele><time>2026-05-01T12:22:05Z</time></trkpt><trkpt lat="44.24438129683815" lon="9.63259373964632"><ele>396.0</ele><time>2026-05-01T12:22:06Z</time></trkpt><trkpt lat="44.244467147514555" lon="9.63270235635334"><ele>396.0</ele><time>2026-05-01T12:22:07Z</time></trkpt><trkpt lat="44.24456649894282" lon="9.632797126251251"><ele>396.0</ele><time>2026-05-01T12:22:08Z</time></trkpt><trkpt lat="44.24466316386624" lon="9.632889013677188"><ele>396.0</ele><time>2026-05-01T12:22:09Z</time></trkpt><trkpt lat="44.24476843496105" lon="9.632955569932886"><ele>396.0</ele><time>2026-05-01T12:22:10.001Z</time></trkpt><trkpt lat="44.2449052450818" lon="9.632986810596401"><ele>395.5</ele><time>2026-05-01T12:22:11.001Z</time></trkpt><trkpt lat="44.245040990822474" lon="9.632972512595114"><ele>395.0</ele><time>2026-05-01T12:22:12.001Z</time></trkpt><trkpt lat="44.24516125205767" lon="9.632994216888436"><ele>394.5</ele><time>2026-05-01T12:22:13.001Z</time></trkpt><trkpt lat="44.24527300827668" lon="9.633035835660102"><ele>394.0</ele><time>2026-05-01T12:22:14.001Z</time></trkpt><trkpt lat="44.245362946005976" lon="9.63312030836468"><ele>394.0</ele><time>2026-05-01T12:22:15.001Z</time></trkpt><trkpt lat="44.24544504792335" lon="9.633193521420417"><ele>394.0</ele><time>2026-05-01T12:22:16.001Z</time></trkpt><trkpt lat="44.245507042399865" lon="9.633267321648079"><ele>394.0</ele><time>2026-05-01T12:22:17.001Z</time></trkpt><trkpt lat="44.24554398901954" lon="9.633358404902138"><ele>394.0</ele><time>2026-05-01T12:22:18.001Z</time></trkpt><trkpt lat="44.2454930744918" lon="9.633497281250424"><ele>394.0</ele><time>2026-05-01T12:22:19.001Z</time></trkpt><trkpt lat="44.24541870910224" lon="9.633662726372254"><ele>390.33333333333337</ele><time>2026-05-01T12:22:20.001Z</time></trkpt><trkpt lat="44.24534292499049" lon="9.633849293114087"><ele>386.6666666666667</ele><time>2026-05-01T12:22:21.001Z</time></trkpt><trkpt lat="44.24527314183905" lon="9.634056630394058"><ele>383.0</ele><time>2026-05-01T12:22:22.001Z</time></trkpt><trkpt lat="44.24520937847708" lon="9.63424247455134"><ele>383.0</ele><time>2026-05-01T12:22:23.001Z</time></trkpt><trkpt lat="44.245187960815855" lon="9.634416235720028"><ele>383.0</ele><time>2026-05-01T12:22:24.001Z</time></trkpt><trkpt lat="44.24519217357751" lon="9.634585068200556"><ele>383.0</ele><time>2026-05-01T12:22:25.001Z</time></trkpt><trkpt lat="44.24515579145956" lon="9.634746189186133"><ele>383.0</ele><time>2026-05-01T12:22:26.001Z</time></trkpt><trkpt lat="44.24509596792734" lon="9.63488014882918"><ele>382.4</ele><time>2026-05-01T12:22:27.001Z</time></trkpt><trkpt lat="44.24502753789825" lon="9.635012263576193"><ele>381.79999999999995</ele><time>2026-05-01T12:22:28.001Z</time></trkpt><trkpt lat="44.244984475829185" lon="9.635149779313231"><ele>381.2</ele><time>2026-05-01T12:22:29.001Z</time></trkpt><trkpt lat="44.244946049083936" lon="9.635277647993433"><ele>380.6</ele><time>2026-05-01T12:22:30.001Z</time></trkpt><trkpt lat="44.244913724588585" lon="9.635404601842497"><ele>380.0</ele><time>2026-05-01T12:22:31.001Z</time></trkpt><trkpt lat="44.24489840535974" lon="9.635520511564946"><ele>380.0</ele><time>2026-05-01T12:22:32.001Z</time></trkpt><trkpt lat="44.24494773039476" lon="9.635631212509924"><ele>380.0</ele><time>2026-05-01T12:22:33.001Z</time></trkpt><trkpt lat="44.2450229738588" lon="9.635725084150279"><ele>380.0</ele><time>2026-05-01T12:22:34.001Z</time></trkpt><trkpt lat="44.24514631811758" lon="9.635769497617181"><ele>380.0</ele><time>2026-05-01T12:22:35.001Z</time></trkpt><trkpt lat="44.245296034559466" lon="9.635785368890938"><ele>380.0</ele><time>2026-05-01T12:22:36.001Z</time></trkpt><trkpt lat="44.2454247778253" lon="9.635799790778895"><ele>380.0</ele><time>2026-05-01T12:22:37.001Z</time></trkpt><trkpt lat="44.245541230621875" lon="9.63582250354043"><ele>380.0</ele><time>2026-05-01T12:22:38.001Z</time></trkpt><trkpt lat="44.24563905643958" lon="9.635849085852247"><ele>380.0</ele><time>2026-05-01T12:22:39.001Z</time></trkpt><trkpt lat="44.245714460095606" lon="9.63590945809599"><ele>380.0</ele><time>2026-05-01T12:22:40.001Z</time></trkpt><trkpt lat="44.245769283553315" lon="9.636013976708718"><ele>381.25</ele><time>2026-05-01T12:22:41.001Z</time></trkpt><trkpt lat="44.24577400856859" lon="9.63617021352149"><ele>382.5</ele><time>2026-05-01T12:22:42.001Z</time></trkpt><trkpt lat="44.24576304421191" lon="9.636338861822006"><ele>383.75</ele><time>2026-05-01T12:22:43.001Z</time></trkpt><trkpt lat="44.245737828520376" lon="9.636494290030516"><ele>385.0</ele><time>2026-05-01T12:22:44.001Z</time></trkpt><trkpt lat="44.24566850683371" lon="9.636624179831415"><ele>378.75</ele><time>2026-05-01T12:22:45.001Z</time></trkpt><trkpt lat="44.24559567399051" lon="9.636742701332286"><ele>372.5</ele><time>2026-05-01T12:22:46.001Z</time></trkpt><trkpt lat="44.2455261351237" lon="9.636880938357798"><ele>366.25</ele><time>2026-05-01T12:22:47.001Z</time></trkpt><trkpt lat="44.24550985618572" lon="9.637127864187423"><ele>360.0</ele><time>2026-05-01T12:22:48.001Z</time></trkpt><trkpt lat="44.24548040758719" lon="9.637369188427897"><ele>357.3333333333333</ele><time>2026-05-01T12:22:49.001Z</time></trkpt><trkpt lat="44.24545586914717" lon="9.637582130205294"><ele>354.66666666666663</ele><time>2026-05-01T12:22:50.001Z</time></trkpt><trkpt lat="44.245450330627115" lon="9.637773388223703"><ele>352.0</ele><time>2026-05-01T12:22:51.002Z</time></trkpt><trkpt lat="44.24547172325934" lon="9.637994665281214"><ele>350.3333333333333</ele><time>2026-05-01T12:22:52.002Z</time></trkpt><trkpt lat="44.245523249440915" lon="9.638274216374734"><ele>348.6666666666667</ele><time>2026-05-01T12:22:53.002Z</time></trkpt><trkpt lat="44.24556369085338" lon="9.638559239272695"><ele>347.0</ele><time>2026-05-01T12:22:54.002Z</time></trkpt><trkpt lat="44.24559072209238" lon="9.63880970584725"><ele>347.0</ele><time>2026-05-01T12:22:55.002Z</time></trkpt><trkpt lat="44.245617242546984" lon="9.63900975191903"><ele>347.0</ele><time>2026-05-01T12:22:56.002Z</time></trkpt><trkpt lat="44.24561985804521" lon="9.63915035762899"><ele>347.0</ele><time>2026-05-01T12:22:57.002Z</time></trkpt><trkpt lat="44.24561422601666" lon="9.639260768958232"><ele>347.0</ele><time>2026-05-01T12:22:58.002Z</time></trkpt><trkpt lat="44.24557764445629" lon="9.639374785179855"><ele>347.0</ele><time>2026-05-01T12:22:59.002Z</time></trkpt><trkpt lat="44.245477054162286" lon="9.639462667106926"><ele>346.5</ele><time>2026-05-01T12:23:00.002Z</time></trkpt><trkpt lat="44.24539122703629" lon="9.639601291659215"><ele>346.0</ele><time>2026-05-01T12:23:01.002Z</time></trkpt><trkpt lat="44.24531420181071" lon="9.639696430875443"><ele>345.5</ele><time>2026-05-01T12:23:02.002Z</time></trkpt><trkpt lat="44.245259068546474" lon="9.639823926808441"><ele>345.0</ele><time>2026-05-01T12:23:03.002Z</time></trkpt><trkpt lat="44.245235023758745" lon="9.639973597147305"><ele>345.0</ele><time>2026-05-01T12:23:04.002Z</time></trkpt><trkpt lat="44.24525517556014" lon="9.640137823704574"><ele>345.0</ele><time>2026-05-01T12:23:05.002Z</time></trkpt><trkpt lat="44.24531018147277" lon="9.640298334769213"><ele>345.0</ele><time>2026-05-01T12:23:06.002Z</time></trkpt><trkpt lat="44.245406946807684" lon="9.64045372344543"><ele>345.0</ele><time>2026-05-01T12:23:07.002Z</time></trkpt><trkpt lat="44.245539399647484" lon="9.640638875812408"><ele>351.0</ele><time>2026-05-01T12:23:08.002Z</time></trkpt><trkpt lat="44.245695826178576" lon="9.640863366066258"><ele>357.0</ele><time>2026-05-01T12:23:09.002Z</time></trkpt><trkpt lat="44.24587941035421" lon="9.641095182538976"><ele>352.0</ele><time>2026-05-01T12:23:10.002Z</time></trkpt><trkpt lat="44.24604172858881" lon="9.641339413230796"><ele>347.0</ele><time>2026-05-01T12:23:11.002Z</time></trkpt><trkpt lat="44.24617427332666" lon="9.641558443294588"><ele>342.0</ele><time>2026-05-01T12:23:12.002Z</time></trkpt><trkpt lat="44.24623370292544" lon="9.64179365219335"><ele>339.3333333333333</ele><time>2026-05-01T12:23:13.002Z</time></trkpt><trkpt lat="44.24627309788025" lon="9.642044762568842"><ele>336.66666666666663</ele><time>2026-05-01T12:23:14.002Z</time></trkpt><trkpt lat="44.24632450685231" lon="9.642268294355139"><ele>334.0</ele><time>2026-05-01T12:23:15.002Z</time></trkpt><trkpt lat="44.24639168302304" lon="9.642476991855746"><ele>330.66666666666663</ele><time>2026-05-01T12:23:16.002Z</time></trkpt><trkpt lat="44.246524414027014" lon="9.642646516072336"><ele>327.3333333333333</ele><time>2026-05-01T12:23:17.002Z</time></trkpt><trkpt lat="44.24669312057347" lon="9.642795949604716"><ele>324.0</ele><time>2026-05-01T12:23:18.002Z</time></trkpt><trkpt lat="44.24684862167237" lon="9.642909653763954"><ele>324.0</ele><time>2026-05-01T12:23:19.002Z</time></trkpt><trkpt lat="44.246992615604164" lon="9.64295732890554"><ele>324.0</ele><time>2026-05-01T12:23:20.002Z</time></trkpt><trkpt lat="44.24714343838518" lon="9.642941039828575"><ele>324.0</ele><time>2026-05-01T12:23:21.002Z</time></trkpt><trkpt lat="44.24729274788381" lon="9.642868480857171"><ele>329.0</ele><time>2026-05-01T12:23:22.002Z</time></trkpt><trkpt lat="44.247415583522475" lon="9.642765263103279"><ele>334.0</ele><time>2026-05-01T12:23:23.002Z</time></trkpt><trkpt lat="44.24749116939522" lon="9.642646272966811"><ele>339.0</ele><time>2026-05-01T12:23:24.002Z</time></trkpt><trkpt lat="44.24756589122497" lon="9.642557694036185"><ele>344.0</ele><time>2026-05-01T12:23:25.002Z</time></trkpt><trkpt lat="44.24765318144496" lon="9.642545749599567"><ele>349.0</ele><time>2026-05-01T12:23:26.002Z</time></trkpt><trkpt lat="44.247754413949416" lon="9.642609498074467"><ele>349.0</ele><time>2026-05-01T12:23:27.002Z</time></trkpt><trkpt lat="44.24782469699252" lon="9.642770895726136"><ele>349.0</ele><time>2026-05-01T12:23:28.003Z</time></trkpt><trkpt lat="44.247903560073425" lon="9.642979894267974"><ele>349.0</ele><time>2026-05-01T12:23:29.003Z</time></trkpt><trkpt lat="44.24800361378552" lon="9.643218501195603"><ele>346.0</ele><time>2026-05-01T12:23:30.003Z</time></trkpt><trkpt lat="44.24809045609651" lon="9.643486673099618"><ele>343.0</ele><time>2026-05-01T12:23:31.003Z</time></trkpt><trkpt lat="44.24813409991616" lon="9.643767980794902"><ele>340.0</ele><time>2026-05-01T12:23:32.003Z</time></trkpt><trkpt lat="44.24817689781583" lon="9.64403252945567"><ele>340.0</ele><time>2026-05-01T12:23:33.003Z</time></trkpt><trkpt lat="44.24817925720037" lon="9.64425779486199"><ele>340.0</ele><time>2026-05-01T12:23:34.003Z</time></trkpt><trkpt lat="44.248107388924105" lon="9.644447735306704"><ele>340.0</ele><time>2026-05-01T12:23:35Z</time></trkpt><trkpt lat="44.24802249394027" lon="9.644674760959937"><ele>336.66666666666663</ele><time>2026-05-01T12:23:36Z</time></trkpt><trkpt lat="44.24789895033685" lon="9.644891335612131"><ele>333.3333333333333</ele><time>2026-05-01T12:23:37Z</time></trkpt><trkpt lat="44.24776774352323" lon="9.645111327419963"><ele>330.0</ele><time>2026-05-01T12:23:38Z</time></trkpt><trkpt lat="44.24762212091218" lon="9.645329578424485"><ele>330.0</ele><time>2026-05-01T12:23:39Z</time></trkpt><trkpt lat="44.24747132156927" lon="9.645555926630749"><ele>330.0</ele><time>2026-05-01T12:23:40Z</time></trkpt><trkpt lat="44.24727609389661" lon="9.645729779050711"><ele>324.6666666666667</ele><time>2026-05-01T12:23:41Z</time></trkpt><trkpt lat="44.24708889442108" lon="9.645916195961409"><ele>319.33333333333337</ele><time>2026-05-01T12:23:42Z</time></trkpt><trkpt lat="44.24691838128915" lon="9.646081958262018"><ele>314.0</ele><time>2026-05-01T12:23:43Z</time></trkpt><trkpt lat="44.24677940387694" lon="9.646293558186018"><ele>314.0</ele><time>2026-05-01T12:23:44Z</time></trkpt><trkpt lat="44.24667057663946" lon="9.646556989313744"><ele>314.0</ele><time>2026-05-01T12:23:45Z</time></trkpt><trkpt lat="44.246593196603094" lon="9.646848823131556"><ele>314.0</ele><time>2026-05-01T12:23:46Z</time></trkpt><trkpt lat="44.24653079629713" lon="9.647108523905146"><ele>313.25</ele><time>2026-05-01T12:23:47Z</time></trkpt><trkpt lat="44.24649028940256" lon="9.647297324698615"><ele>312.5</ele><time>2026-05-01T12:23:48Z</time></trkpt><trkpt lat="44.24648045562398" lon="9.647438302256015"><ele>311.75</ele><time>2026-05-01T12:23:49Z</time></trkpt><trkpt lat="44.246529501008766" lon="9.64757250237222"><ele>311.0</ele><time>2026-05-01T12:23:50Z</time></trkpt><trkpt lat="44.24662922110829" lon="9.647746790854772"><ele>308.6666666666667</ele><time>2026-05-01T12:23:51Z</time></trkpt><trkpt lat="44.246733755816216" lon="9.647941987254423"><ele>306.3333333333333</ele><time>2026-05-01T12:23:52Z</time></trkpt><trkpt lat="44.246795713425044" lon="9.648122919209074"><ele>304.0</ele><time>2026-05-01T12:23:53Z</time></trkpt><trkpt lat="44.24678657916733" lon="9.648319305169869"><ele>304.0</ele><time>2026-05-01T12:23:54Z</time></trkpt><trkpt lat="44.24676186651813" lon="9.648546374646873"><ele>304.0</ele><time>2026-05-01T12:23:55Z</time></trkpt><trkpt lat="44.246743485301906" lon="9.648815580874425"><ele>304.0</ele><time>2026-05-01T12:23:56Z</time></trkpt><trkpt lat="44.246641381409106" lon="9.649075545177716"><ele>303.5</ele><time>2026-05-01T12:23:57Z</time></trkpt><trkpt lat="44.2465376442357" lon="9.649358546976963"><ele>303.0</ele><time>2026-05-01T12:23:58Z</time></trkpt><trkpt lat="44.24643184281423" lon="9.649650233069037"><ele>297.3333333333333</ele><time>2026-05-01T12:23:59Z</time></trkpt><trkpt lat="44.24635369877066" lon="9.649899691484778"><ele>291.66666666666663</ele><time>2026-05-01T12:24:00Z</time></trkpt><trkpt lat="44.246267642986766" lon="9.650065542301078"><ele>286.0</ele><time>2026-05-01T12:24:01Z</time></trkpt><trkpt lat="44.246168858664" lon="9.650180593514115"><ele>286.0</ele><time>2026-05-01T12:24:02Z</time></trkpt><trkpt lat="44.24602380033519" lon="9.650198846982024"><ele>286.0</ele><time>2026-05-01T12:24:03Z</time></trkpt><trkpt lat="44.245839271159014" lon="9.65024793667489"><ele>286.0</ele><time>2026-05-01T12:24:04Z</time></trkpt><trkpt lat="44.245667800029516" lon="9.650304864633368"><ele>281.66666666666663</ele><time>2026-05-01T12:24:05Z</time></trkpt><trkpt lat="44.245518053482876" lon="9.650359238851603"><ele>277.3333333333333</ele><time>2026-05-01T12:24:06Z</time></trkpt><trkpt lat="44.245373932127556" lon="9.650504699585285"><ele>273.0</ele><time>2026-05-01T12:24:07Z</time></trkpt><trkpt lat="44.245238788096735" lon="9.650678924529288"><ele>273.0</ele><time>2026-05-01T12:24:08Z</time></trkpt><trkpt lat="44.245152509406516" lon="9.650826434780615"><ele>273.0</ele><time>2026-05-01T12:24:09Z</time></trkpt><trkpt lat="44.245107868321504" lon="9.650974876133672"><ele>273.0</ele><time>2026-05-01T12:24:10.001Z</time></trkpt><trkpt lat="44.245103277987454" lon="9.651183165837555"><ele>273.0</ele><time>2026-05-01T12:24:11.001Z</time></trkpt><trkpt lat="44.24513219205479" lon="9.651451220326003"><ele>272.6666666666667</ele><time>2026-05-01T12:24:12.001Z</time></trkpt><trkpt lat="44.245161269957926" lon="9.65174662032472"><ele>272.33333333333337</ele><time>2026-05-01T12:24:13.001Z</time></trkpt><trkpt lat="44.24518392577329" lon="9.652040252661227"><ele>272.0</ele><time>2026-05-01T12:24:14.001Z</time></trkpt><trkpt lat="44.245193543247446" lon="9.652279928613499"><ele>272.5</ele><time>2026-05-01T12:24:15.001Z</time></trkpt><trkpt lat="44.24519363977518" lon="9.652471676892766"><ele>273.0</ele><time>2026-05-01T12:24:16.001Z</time></trkpt><trkpt lat="44.24515008724313" lon="9.65261543902623"><ele>273.5</ele><time>2026-05-01T12:24:17.001Z</time></trkpt><trkpt lat="44.24504533572127" lon="9.652686120297647"><ele>274.0</ele><time>2026-05-01T12:24:18.001Z</time></trkpt><trkpt lat="44.244917783687086" lon="9.652721339665893"><ele>272.0</ele><time>2026-05-01T12:24:19.001Z</time></trkpt><trkpt lat="44.244755707603325" lon="9.65283164391086"><ele>270.0</ele><time>2026-05-01T12:24:20.001Z</time></trkpt><trkpt lat="44.24456289047526" lon="9.652916660024244"><ele>268.0</ele><time>2026-05-01T12:24:21.001Z</time></trkpt><trkpt lat="44.24436465003329" lon="9.653018459169841"><ele>268.0</ele><time>2026-05-01T12:24:22.001Z</time></trkpt><trkpt lat="44.24420087434842" lon="9.653107049205783"><ele>268.0</ele><time>2026-05-01T12:24:23.001Z</time></trkpt><trkpt lat="44.24407429759823" lon="9.65318804499522"><ele>268.0</ele><time>2026-05-01T12:24:24.001Z</time></trkpt><trkpt lat="44.24398330624683" lon="9.653274749361563"><ele>268.0</ele><time>2026-05-01T12:24:25.001Z</time></trkpt><trkpt lat="44.2439221781404" lon="9.653385799398565"><ele>268.0</ele><time>2026-05-01T12:24:26.001Z</time></trkpt><trkpt lat="44.24391157331934" lon="9.653557644967579"><ele>268.0</ele><time>2026-05-01T12:24:27.001Z</time></trkpt><trkpt lat="44.24393017182818" lon="9.653762834058586"><ele>268.0</ele><time>2026-05-01T12:24:28.001Z</time></trkpt><trkpt lat="44.24398269642056" lon="9.65402093736178"><ele>268.0</ele><time>2026-05-01T12:24:29.001Z</time></trkpt><trkpt lat="44.24404295740895" lon="9.654302800720858"><ele>268.0</ele><time>2026-05-01T12:24:30.001Z</time></trkpt><trkpt lat="44.24406492662939" lon="9.654548169764082"><ele>268.0</ele><time>2026-05-01T12:24:31.001Z</time></trkpt><trkpt lat="44.244066330188886" lon="9.654742584090702"><ele>266.75</ele><time>2026-05-01T12:24:32.001Z</time></trkpt><trkpt lat="44.24402517834645" lon="9.654896962092662"><ele>265.5</ele><time>2026-05-01T12:24:33.001Z</time></trkpt><trkpt lat="44.24393244035013" lon="9.655019310321704"><ele>264.25</ele><time>2026-05-01T12:24:34.001Z</time></trkpt><trkpt lat="44.24377001505007" lon="9.655112766018489"><ele>263.0</ele><time>2026-05-01T12:24:35.001Z</time></trkpt><trkpt lat="44.24359039928108" lon="9.655247503536541"><ele>257.0</ele><time>2026-05-01T12:24:36.001Z</time></trkpt><trkpt lat="44.24344687806186" lon="9.65537010544343"><ele>251.0</ele><time>2026-05-01T12:24:37.001Z</time></trkpt><trkpt lat="44.243317809321056" lon="9.655471373076669"><ele>245.0</ele><time>2026-05-01T12:24:38.001Z</time></trkpt><trkpt lat="44.24323153454855" lon="9.655620464950902"><ele>245.0</ele><time>2026-05-01T12:24:39.001Z</time></trkpt><trkpt lat="44.24316478072023" lon="9.655814744022281"><ele>245.0</ele><time>2026-05-01T12:24:40.001Z</time></trkpt><trkpt lat="44.24312922347141" lon="9.65602629523607"><ele>245.0</ele><time>2026-05-01T12:24:41.001Z</time></trkpt><trkpt lat="44.24313014642281" lon="9.6562307505753"><ele>243.0</ele><time>2026-05-01T12:24:42.001Z</time></trkpt><trkpt lat="44.243190659181955" lon="9.656430557056085"><ele>241.0</ele><time>2026-05-01T12:24:43.001Z</time></trkpt><trkpt lat="44.24327389765815" lon="9.656625540920917"><ele>239.0</ele><time>2026-05-01T12:24:44.001Z</time></trkpt><trkpt lat="44.24335073570722" lon="9.656796876127936"><ele>239.2</ele><time>2026-05-01T12:24:45.001Z</time></trkpt><trkpt lat="44.24338479540513" lon="9.656954265701707"><ele>239.39999999999998</ele><time>2026-05-01T12:24:46.001Z</time></trkpt><trkpt lat="44.24341318033074" lon="9.657064369595172"><ele>239.6</ele><time>2026-05-01T12:24:47.001Z</time></trkpt><trkpt lat="44.24337451550683" lon="9.657196937403452"><ele>239.8</ele><time>2026-05-01T12:24:48.001Z</time></trkpt><trkpt lat="44.24329097069783" lon="9.657317032293179"><ele>240.0</ele><time>2026-05-01T12:24:49.002Z</time></trkpt><trkpt lat="44.2431773202885" lon="9.657398862810291"><ele>232.0</ele><time>2026-05-01T12:24:50.002Z</time></trkpt><trkpt lat="44.24308373552892" lon="9.657482622433406"><ele>224.0</ele><time>2026-05-01T12:24:51.002Z</time></trkpt><trkpt lat="44.24300806676502" lon="9.657613386749388"><ele>216.0</ele><time>2026-05-01T12:24:52.002Z</time></trkpt><trkpt lat="44.24300091336203" lon="9.657845339943488"><ele>208.0</ele><time>2026-05-01T12:24:53.002Z</time></trkpt><trkpt lat="44.24298166993052" lon="9.65812719965688"><ele>208.0</ele><time>2026-05-01T12:24:54.002Z</time></trkpt><trkpt lat="44.242958317490306" lon="9.658420055471904"><ele>208.0</ele><time>2026-05-01T12:24:55.002Z</time></trkpt><trkpt lat="44.242938774739336" lon="9.65867851862176"><ele>208.0</ele><time>2026-05-01T12:24:56.002Z</time></trkpt><trkpt lat="44.242920640131565" lon="9.658914742029708"><ele>208.4</ele><time>2026-05-01T12:24:57.002Z</time></trkpt><trkpt lat="44.242919190434144" lon="9.65912975712339"><ele>208.8</ele><time>2026-05-01T12:24:58.002Z</time></trkpt><trkpt lat="44.24288141437163" lon="9.65928081864647"><ele>209.2</ele><time>2026-05-01T12:24:59.002Z</time></trkpt><trkpt lat="44.24285609192403" lon="9.659384392905444"><ele>209.6</ele><time>2026-05-01T12:25:00.002Z</time></trkpt><trkpt lat="44.24277173044164" lon="9.659454970428397"><ele>210.0</ele><time>2026-05-01T12:25:01.002Z</time></trkpt><trkpt lat="44.242622977201385" lon="9.659456709738492"><ele>215.66666666666669</ele><time>2026-05-01T12:25:02.002Z</time></trkpt><trkpt lat="44.2424339989737" lon="9.659574504527178"><ele>221.33333333333334</ele><time>2026-05-01T12:25:03.002Z</time></trkpt><trkpt lat="44.24227408902221" lon="9.659721054962962"><ele>227.0</ele><time>2026-05-01T12:25:04.002Z</time></trkpt><trkpt lat="44.242143607435615" lon="9.659920635825841"><ele>216.33333333333334</ele><time>2026-05-01T12:25:05.002Z</time></trkpt><trkpt lat="44.242019813408135" lon="9.660084508818953"><ele>205.66666666666669</ele><time>2026-05-01T12:25:06.002Z</time></trkpt><trkpt lat="44.24191601815667" lon="9.660236614544596"><ele>195.0</ele><time>2026-05-01T12:25:07.002Z</time></trkpt><trkpt lat="44.241840084058765" lon="9.660407495545398"><ele>195.0</ele><time>2026-05-01T12:25:08.002Z</time></trkpt><trkpt lat="44.24181256847425" lon="9.66059483028367"><ele>195.0</ele><time>2026-05-01T12:25:09.002Z</time></trkpt><trkpt lat="44.241793518246084" lon="9.660748544434728"><ele>195.0</ele><time>2026-05-01T12:25:10.002Z</time></trkpt><trkpt lat="44.24175371294864" lon="9.660839759360233"><ele>195.0</ele><time>2026-05-01T12:25:11.002Z</time></trkpt><trkpt lat="44.24163980215873" lon="9.660880102315195"><ele>195.0</ele><time>2026-05-01T12:25:13.002Z</time></trkpt><trkpt lat="44.24158011259192" lon="9.660797950595747"><ele>195.0</ele><time>2026-05-01T12:25:14.002Z</time></trkpt><trkpt lat="44.2415602990513" lon="9.660670526703143"><ele>195.0</ele><time>2026-05-01T12:25:15.002Z</time></trkpt><trkpt lat="44.24161875294902" lon="9.660507715206261"><ele>195.0</ele><time>2026-05-01T12:25:16.002Z</time></trkpt><trkpt lat="44.24169371002365" lon="9.660266355711338"><ele>195.0</ele><time>2026-05-01T12:25:17.002Z</time></trkpt><trkpt lat="44.24180694144335" lon="9.66003334285902"><ele>193.0</ele><time>2026-05-01T12:25:18.002Z</time></trkpt><trkpt lat="44.24193743479239" lon="9.65978223161848"><ele>191.0</ele><time>2026-05-01T12:25:19.002Z</time></trkpt><trkpt lat="44.24205405825894" lon="9.659569916919335"><ele>189.0</ele><time>2026-05-01T12:25:20.002Z</time></trkpt><trkpt lat="44.24212988137075" lon="9.6594207218174"><ele>187.25</ele><time>2026-05-01T12:25:21.002Z</time></trkpt><trkpt lat="44.242158325267276" lon="9.659307283801407"><ele>185.5</ele><time>2026-05-01T12:25:22.002Z</time></trkpt><trkpt lat="44.24213840674282" lon="9.659193761827835"><ele>183.75</ele><time>2026-05-01T12:25:23.002Z</time></trkpt><trkpt lat="44.24205079145696" lon="9.65907130536945"><ele>182.0</ele><time>2026-05-01T12:25:24.002Z</time></trkpt><trkpt lat="44.24191201438185" lon="9.65895560524998"><ele>182.0</ele><time>2026-05-01T12:25:25.002Z</time></trkpt><trkpt lat="44.2417711308164" lon="9.658820900114554"><ele>182.0</ele><time>2026-05-01T12:25:26.002Z</time></trkpt><trkpt lat="44.24168555427557" lon="9.6586406076303"><ele>182.0</ele><time>2026-05-01T12:25:27.002Z</time></trkpt><trkpt lat="44.241634992927594" lon="9.658459739943456"><ele>182.25</ele><time>2026-05-01T12:25:28.003Z</time></trkpt><trkpt lat="44.24164418786314" lon="9.658269143789154"><ele>182.5</ele><time>2026-05-01T12:25:29.003Z</time></trkpt><trkpt lat="44.24169385230108" lon="9.658075951826483"><ele>182.75</ele><time>2026-05-01T12:25:30.003Z</time></trkpt><trkpt lat="44.241708934343436" lon="9.657925638580869"><ele>183.0</ele><time>2026-05-01T12:25:31.003Z</time></trkpt><trkpt lat="44.24168347181549" lon="9.657806088097296"><ele>183.75</ele><time>2026-05-01T12:25:32.003Z</time></trkpt><trkpt lat="44.24160942129339" lon="9.657719503790616"><ele>184.5</ele><time>2026-05-01T12:25:33.003Z</time></trkpt><trkpt lat="44.24149306839161" lon="9.657684916089872"><ele>185.25</ele><time>2026-05-01T12:25:34.003Z</time></trkpt><trkpt lat="44.24136576758401" lon="9.657724539183205"><ele>186.0</ele><time>2026-05-01T12:25:35.003Z</time></trkpt><trkpt lat="44.24122639940094" lon="9.657818388275555"><ele>181.75</ele><time>2026-05-01T12:25:36.003Z</time></trkpt><trkpt lat="44.241080334954596" lon="9.657905227080457"><ele>177.5</ele><time>2026-05-01T12:25:37.003Z</time></trkpt><trkpt lat="44.24094455343718" lon="9.65793292444107"><ele>173.25</ele><time>2026-05-01T12:25:38.003Z</time></trkpt><trkpt lat="44.24080178159123" lon="9.657903216611631"><ele>169.0</ele><time>2026-05-01T12:25:39.003Z</time></trkpt><trkpt lat="44.24065954810601" lon="9.657823816298512"><ele>170.0</ele><time>2026-05-01T12:25:40.003Z</time></trkpt><trkpt lat="44.24050815585694" lon="9.657764289038232"><ele>171.0</ele><time>2026-05-01T12:25:41Z</time></trkpt><trkpt lat="44.24035801839532" lon="9.657690055330097"><ele>172.0</ele><time>2026-05-01T12:25:42Z</time></trkpt><trkpt lat="44.240225407811636" lon="9.65760907603114"><ele>172.0</ele><time>2026-05-01T12:25:43Z</time></trkpt><trkpt lat="44.24010670297178" lon="9.657496552897518"><ele>172.0</ele><time>2026-05-01T12:25:44Z</time></trkpt><trkpt lat="44.24002677473867" lon="9.657329772433481"><ele>172.0</ele><time>2026-05-01T12:25:45Z</time></trkpt><trkpt lat="44.239921675082236" lon="9.657194075535692"><ele>172.0</ele><time>2026-05-01T12:25:46Z</time></trkpt><trkpt lat="44.23982867314625" lon="9.65703540001637"><ele>171.0</ele><time>2026-05-01T12:25:47Z</time></trkpt><trkpt lat="44.23972425403237" lon="9.656864108219926"><ele>170.0</ele><time>2026-05-01T12:25:48Z</time></trkpt><trkpt lat="44.23961032256658" lon="9.65669200056071"><ele>169.0</ele><time>2026-05-01T12:25:49Z</time></trkpt><trkpt lat="44.23948800810405" lon="9.656500616124816"><ele>169.0</ele><time>2026-05-01T12:25:50Z</time></trkpt><trkpt lat="44.239360633962846" lon="9.656298003927404"><ele>169.0</ele><time>2026-05-01T12:25:51Z</time></trkpt><trkpt lat="44.23923749847766" lon="9.65609767743074"><ele>169.0</ele><time>2026-05-01T12:25:52Z</time></trkpt><trkpt lat="44.23912127688459" lon="9.655904861183876"><ele>169.33333333333334</ele><time>2026-05-01T12:25:53Z</time></trkpt><trkpt lat="44.23901811224234" lon="9.65573516012738"><ele>169.66666666666666</ele><time>2026-05-01T12:25:54Z</time></trkpt><trkpt lat="44.238912722601555" lon="9.655570926298926"><ele>170.0</ele><time>2026-05-01T12:25:55Z</time></trkpt><trkpt lat="44.238805065634494" lon="9.655394668289823"><ele>172.5</ele><time>2026-05-01T12:25:56Z</time></trkpt><trkpt lat="44.238700647496735" lon="9.655242916689177"><ele>175.0</ele><time>2026-05-01T12:25:57Z</time></trkpt><trkpt lat="44.23858239714508" lon="9.655146961418932"><ele>177.5</ele><time>2026-05-01T12:25:58Z</time></trkpt><trkpt lat="44.238441405671836" lon="9.655143859218654"><ele>180.0</ele><time>2026-05-01T12:25:59Z</time></trkpt><trkpt lat="44.238295490919974" lon="9.655195028082407"><ele>180.75</ele><time>2026-05-01T12:26:00Z</time></trkpt><trkpt lat="44.23816135293901" lon="9.655299819358"><ele>181.5</ele><time>2026-05-01T12:26:01Z</time></trkpt><trkpt lat="44.23807179930216" lon="9.655434097619311"><ele>182.25</ele><time>2026-05-01T12:26:02Z</time></trkpt><trkpt lat="44.23802283973855" lon="9.655618947108362"><ele>183.0</ele><time>2026-05-01T12:26:03Z</time></trkpt><trkpt lat="44.2379928973324" lon="9.655848208924082"><ele>189.66666666666669</ele><time>2026-05-01T12:26:04Z</time></trkpt><trkpt lat="44.2379719032727" lon="9.656101292500695"><ele>196.33333333333334</ele><time>2026-05-01T12:26:05Z</time></trkpt><trkpt lat="44.237929610831756" lon="9.656333649990195"><ele>203.0</ele><time>2026-05-01T12:26:06Z</time></trkpt><trkpt lat="44.23787247511796" lon="9.656517118479567"><ele>203.4</ele><time>2026-05-01T12:26:07Z</time></trkpt><trkpt lat="44.23778355687118" lon="9.65663753822158"><ele>203.8</ele><time>2026-05-01T12:26:08Z</time></trkpt><trkpt lat="44.23765366987306" lon="9.656644261506722"><ele>204.2</ele><time>2026-05-01T12:26:09Z</time></trkpt><trkpt lat="44.237564935093744" lon="9.65672672687083"><ele>204.6</ele><time>2026-05-01T12:26:10Z</time></trkpt><trkpt lat="44.23749486855249" lon="9.656797053148804"><ele>205.0</ele><time>2026-05-01T12:26:11Z</time></trkpt><trkpt lat="44.23747196602061" lon="9.656937190129923"><ele>205.75</ele><time>2026-05-01T12:26:12Z</time></trkpt><trkpt lat="44.23750131063252" lon="9.657104319774138"><ele>206.5</ele><time>2026-05-01T12:26:13Z</time></trkpt><trkpt lat="44.2375624644065" lon="9.657293384538283"><ele>207.25</ele><time>2026-05-01T12:26:14Z</time></trkpt><trkpt lat="44.23762830628076" lon="9.657508092510293"><ele>208.0</ele><time>2026-05-01T12:26:15Z</time></trkpt><trkpt lat="44.23767858250989" lon="9.65775180087466"><ele>211.0</ele><time>2026-05-01T12:26:16.001Z</time></trkpt><trkpt lat="44.23772253440396" lon="9.657941252982402"><ele>214.0</ele><time>2026-05-01T12:26:17.001Z</time></trkpt><trkpt lat="44.23779319994224" lon="9.658059503121416"><ele>217.0</ele><time>2026-05-01T12:26:18.001Z</time></trkpt><trkpt lat="44.23790827948655" lon="9.658133777983185"><ele>220.0</ele><time>2026-05-01T12:26:19.001Z</time></trkpt><trkpt lat="44.23804433825069" lon="9.658222108471072"><ele>216.5</ele><time>2026-05-01T12:26:20.001Z</time></trkpt><trkpt lat="44.23814476365253" lon="9.658348709195941"><ele>213.0</ele><time>2026-05-01T12:26:21.001Z</time></trkpt><trkpt lat="44.23819929441544" lon="9.658492847449024"><ele>209.5</ele><time>2026-05-01T12:26:22.001Z</time></trkpt><trkpt lat="44.238208152909905" lon="9.658645064439044"><ele>206.0</ele><time>2026-05-01T12:26:23.001Z</time></trkpt><trkpt lat="44.23816979373763" lon="9.658781819356312"><ele>213.0</ele><time>2026-05-01T12:26:24.001Z</time></trkpt><trkpt lat="44.2380908709528" lon="9.658934545299505"><ele>220.0</ele><time>2026-05-01T12:26:25.001Z</time></trkpt><trkpt lat="44.237989619943036" lon="9.659105520713265"><ele>227.0</ele><time>2026-05-01T12:26:26.001Z</time></trkpt><trkpt lat="44.23787688600849" lon="9.659303492195528"><ele>225.0</ele><time>2026-05-01T12:26:27.001Z</time></trkpt><trkpt lat="44.23774141742252" lon="9.659507886524104"><ele>223.0</ele><time>2026-05-01T12:26:28.001Z</time></trkpt><trkpt lat="44.23763647228874" lon="9.659677453370751"><ele>221.0</ele><time>2026-05-01T12:26:29.001Z</time></trkpt><trkpt lat="44.23753674913473" lon="9.65976587331497"><ele>221.0</ele><time>2026-05-01T12:26:30.001Z</time></trkpt><trkpt lat="44.23742493077125" lon="9.659798999325657"><ele>221.0</ele><time>2026-05-01T12:26:31.001Z</time></trkpt><trkpt lat="44.23728518747615" lon="9.659795302689668"><ele>221.0</ele><time>2026-05-01T12:26:32.001Z</time></trkpt><trkpt lat="44.23715218191973" lon="9.65968110891879"><ele>221.0</ele><time>2026-05-01T12:26:33.001Z</time></trkpt><trkpt lat="44.23702230138694" lon="9.659620828753358"><ele>223.20000000000002</ele><time>2026-05-01T12:26:34.001Z</time></trkpt><trkpt lat="44.236935197594036" lon="9.659601413689954"><ele>225.40000000000003</ele><time>2026-05-01T12:26:35.001Z</time></trkpt><trkpt lat="44.236866903710386" lon="9.65968594049168"><ele>227.6</ele><time>2026-05-01T12:26:36.001Z</time></trkpt><trkpt lat="44.23683672462797" lon="9.65980744634258"><ele>229.8</ele><time>2026-05-01T12:26:37.001Z</time></trkpt><trkpt lat="44.23685921529454" lon="9.659963323949011"><ele>232.0</ele><time>2026-05-01T12:26:38.001Z</time></trkpt><trkpt lat="44.236876936036595" lon="9.660116813304718"><ele>232.0</ele><time>2026-05-01T12:26:39.001Z</time></trkpt><trkpt lat="44.23682933166253" lon="9.660226238381034"><ele>232.0</ele><time>2026-05-01T12:26:40.001Z</time></trkpt><trkpt lat="44.23673597782774" lon="9.660274195968519"><ele>232.0</ele><time>2026-05-01T12:26:41.001Z</time></trkpt><trkpt lat="44.236612392532976" lon="9.660253956031532"><ele>232.0</ele><time>2026-05-01T12:26:42.001Z</time></trkpt><trkpt lat="44.23645709620258" lon="9.660237730420349"><ele>234.0</ele><time>2026-05-01T12:26:43.001Z</time></trkpt><trkpt lat="44.236287257384355" lon="9.660216810473836"><ele>236.0</ele><time>2026-05-01T12:26:44.001Z</time></trkpt><trkpt lat="44.23611056193426" lon="9.660117086096168"><ele>238.0</ele><time>2026-05-01T12:26:45.001Z</time></trkpt><trkpt lat="44.23591399073509" lon="9.660057841443338"><ele>238.0</ele><time>2026-05-01T12:26:46.001Z</time></trkpt><trkpt lat="44.23571390976808" lon="9.659988748113086"><ele>238.0</ele><time>2026-05-01T12:26:47.001Z</time></trkpt><trkpt lat="44.23549225598912" lon="9.659948250510476"><ele>238.0</ele><time>2026-05-01T12:26:48.001Z</time></trkpt><trkpt lat="44.235264239313715" lon="9.65991751290676"><ele>239.5</ele><time>2026-05-01T12:26:49.001Z</time></trkpt><trkpt lat="44.23503343688811" lon="9.659879842249136"><ele>241.0</ele><time>2026-05-01T12:26:50.001Z</time></trkpt><trkpt lat="44.23480597487138" lon="9.659839541600757"><ele>246.0</ele><time>2026-05-01T12:26:51.001Z</time></trkpt><trkpt lat="44.23459871607154" lon="9.659802479553559"><ele>251.0</ele><time>2026-05-01T12:26:52.001Z</time></trkpt><trkpt lat="44.23442710861683" lon="9.659800878602077"><ele>256.0</ele><time>2026-05-01T12:26:53.001Z</time></trkpt><trkpt lat="44.23428243725343" lon="9.659861760890019"><ele>256.0</ele><time>2026-05-01T12:26:54.001Z</time></trkpt><trkpt lat="44.23415680683516" lon="9.659976149845665"><ele>256.0</ele><time>2026-05-01T12:26:55.002Z</time></trkpt><trkpt lat="44.23405449818108" lon="9.660124942672217"><ele>256.0</ele><time>2026-05-01T12:26:56.002Z</time></trkpt><trkpt lat="44.23397429762222" lon="9.660328212734644"><ele>261.0</ele><time>2026-05-01T12:26:57.002Z</time></trkpt><trkpt lat="44.23391221316815" lon="9.660573363143358"><ele>266.0</ele><time>2026-05-01T12:26:58.002Z</time></trkpt><trkpt lat="44.233867913573384" lon="9.660845795539773"><ele>271.0</ele><time>2026-05-01T12:26:59.002Z</time></trkpt><trkpt lat="44.233817843321276" lon="9.661119781834852"><ele>271.0</ele><time>2026-05-01T12:27:00.002Z</time></trkpt><trkpt lat="44.23375651381922" lon="9.66139655339551"><ele>271.0</ele><time>2026-05-01T12:27:01.002Z</time></trkpt><trkpt lat="44.23367631611393" lon="9.661682710046497"><ele>271.0</ele><time>2026-05-01T12:27:02.002Z</time></trkpt><trkpt lat="44.2335842197391" lon="9.661965524152912"><ele>271.3333333333333</ele><time>2026-05-01T12:27:03.002Z</time></trkpt><trkpt lat="44.233492242843454" lon="9.662234884229118"><ele>271.6666666666667</ele><time>2026-05-01T12:27:04.002Z</time></trkpt><trkpt lat="44.23339930046234" lon="9.662501384863534"><ele>272.0</ele><time>2026-05-01T12:27:05.002Z</time></trkpt><trkpt lat="44.233305022234376" lon="9.662760549779772"><ele>269.0</ele><time>2026-05-01T12:27:06.002Z</time></trkpt><trkpt lat="44.233215097584704" lon="9.66302071511831"><ele>266.0</ele><time>2026-05-01T12:27:07.002Z</time></trkpt><trkpt lat="44.23313616889426" lon="9.663290757623939"><ele>263.0</ele><time>2026-05-01T12:27:08.002Z</time></trkpt><trkpt lat="44.23308751427256" lon="9.663554810013785"><ele>270.0</ele><time>2026-05-01T12:27:09.002Z</time></trkpt><trkpt lat="44.233067210617875" lon="9.663809447164743"><ele>277.0</ele><time>2026-05-01T12:27:10.002Z</time></trkpt><trkpt lat="44.23301919639029" lon="9.664007891753325"><ele>284.0</ele><time>2026-05-01T12:27:11.002Z</time></trkpt><trkpt lat="44.2329333099312" lon="9.664173985281968"><ele>284.0</ele><time>2026-05-01T12:27:12.002Z</time></trkpt><trkpt lat="44.23280565066521" lon="9.66436819721542"><ele>284.0</ele><time>2026-05-01T12:27:13.002Z</time></trkpt><trkpt lat="44.232658542356745" lon="9.664555681847679"><ele>284.0</ele><time>2026-05-01T12:27:14.002Z</time></trkpt><trkpt lat="44.232490390821845" lon="9.664735144279195"><ele>283.6666666666667</ele><time>2026-05-01T12:27:15.002Z</time></trkpt><trkpt lat="44.23231263403587" lon="9.664904767514038"><ele>283.3333333333333</ele><time>2026-05-01T12:27:16.002Z</time></trkpt><trkpt lat="44.23215081160927" lon="9.665075194674712"><ele>283.0</ele><time>2026-05-01T12:27:17.002Z</time></trkpt><trkpt lat="44.23199654489653" lon="9.665210611400456"><ele>279.0</ele><time>2026-05-01T12:27:18.002Z</time></trkpt><trkpt lat="44.23185012364864" lon="9.665290364224111"><ele>275.0</ele><time>2026-05-01T12:27:19.002Z</time></trkpt><trkpt lat="44.23169965474557" lon="9.665373471759915"><ele>271.0</ele><time>2026-05-01T12:27:20.002Z</time></trkpt><trkpt lat="44.23154006416663" lon="9.665411743822862"><ele>266.0</ele><time>2026-05-01T12:27:21.002Z</time></trkpt><trkpt lat="44.23135228996877" lon="9.665432229544356"><ele>261.0</ele><time>2026-05-01T12:27:22.002Z</time></trkpt><trkpt lat="44.23116174994447" lon="9.665453404269575"><ele>256.0</ele><time>2026-05-01T12:27:23.002Z</time></trkpt><trkpt lat="44.23099904188915" lon="9.66548973203941"><ele>256.0</ele><time>2026-05-01T12:27:24.002Z</time></trkpt><trkpt lat="44.23087749312857" lon="9.665484951795662"><ele>256.0</ele><time>2026-05-01T12:27:25.002Z</time></trkpt><trkpt lat="44.2307750105964" lon="9.665436872477827"><ele>256.0</ele><time>2026-05-01T12:27:26.002Z</time></trkpt><trkpt lat="44.23069159003793" lon="9.66529364433636"><ele>256.0</ele><time>2026-05-01T12:27:27.002Z</time></trkpt><trkpt lat="44.23057705537037" lon="9.665166806588687"><ele>256.25</ele><time>2026-05-01T12:27:28.002Z</time></trkpt><trkpt lat="44.23048730479641" lon="9.665076302184838"><ele>256.5</ele><time>2026-05-01T12:27:29.002Z</time></trkpt><trkpt lat="44.230380507793726" lon="9.665086743723794"><ele>256.75</ele><time>2026-05-01T12:27:30.002Z</time></trkpt><trkpt lat="44.230259686479585" lon="9.665165405403172"><ele>257.0</ele><time>2026-05-01T12:27:31.002Z</time></trkpt><trkpt lat="44.230115870605246" lon="9.665324119228877"><ele>257.0</ele><time>2026-05-01T12:27:32.002Z</time></trkpt><trkpt lat="44.22995783551002" lon="9.665488294916397"><ele>257.0</ele><time>2026-05-01T12:27:33.003Z</time></trkpt><trkpt lat="44.22978052112545" lon="9.665686458526523"><ele>257.0</ele><time>2026-05-01T12:27:34.003Z</time></trkpt><trkpt lat="44.22960927120033" lon="9.66592988089671"><ele>254.33333333333334</ele><time>2026-05-01T12:27:35.003Z</time></trkpt><trkpt lat="44.22946231155716" lon="9.666197605923097"><ele>251.66666666666669</ele><time>2026-05-01T12:27:36.003Z</time></trkpt><trkpt lat="44.229318888617996" lon="9.666394939476767"><ele>249.0</ele><time>2026-05-01T12:27:37.003Z</time></trkpt><trkpt lat="44.22922497655852" lon="9.666576027864238"><ele>249.0</ele><time>2026-05-01T12:27:38.003Z</time></trkpt><trkpt lat="44.22913253928167" lon="9.666714136062065"><ele>248.99999999999997</ele><time>2026-05-01T12:27:39.003Z</time></trkpt><trkpt lat="44.22905711696619" lon="9.66680948789968"><ele>248.99999999999997</ele><time>2026-05-01T12:27:40.003Z</time></trkpt><trkpt lat="44.22897694237761" lon="9.666854778955631"><ele>249.0</ele><time>2026-05-01T12:27:41.003Z</time></trkpt><trkpt lat="44.2288589465764" lon="9.66682437474116"><ele>249.0</ele><time>2026-05-01T12:27:42.003Z</time></trkpt><trkpt lat="44.22870122395066" lon="9.666768640233744"><ele>247.66666666666669</ele><time>2026-05-01T12:27:43.003Z</time></trkpt><trkpt lat="44.228517808058676" lon="9.66674801105046"><ele>246.33333333333334</ele><time>2026-05-01T12:27:44.003Z</time></trkpt><trkpt lat="44.228343008370956" lon="9.666694447392562"><ele>245.0</ele><time>2026-05-01T12:27:45.003Z</time></trkpt><trkpt lat="44.22818855946744" lon="9.66660429187919"><ele>245.0</ele><time>2026-05-01T12:27:46.003Z</time></trkpt><trkpt lat="44.22804637426031" lon="9.666470150976917"><ele>245.0</ele><time>2026-05-01T12:27:47Z</time></trkpt><trkpt lat="44.227932600388186" lon="9.666351723294364"><ele>245.0</ele><time>2026-05-01T12:27:48Z</time></trkpt><trkpt lat="44.22783357064383" lon="9.666273284730568"><ele>245.0</ele><time>2026-05-01T12:27:49Z</time></trkpt><trkpt lat="44.22773013068411" lon="9.666242691035919"><ele>245.0</ele><time>2026-05-01T12:27:50Z</time></trkpt><trkpt lat="44.22761476334567" lon="9.666297842852622"><ele>245.0</ele><time>2026-05-01T12:27:51Z</time></trkpt><trkpt lat="44.22751203679967" lon="9.666399877934321"><ele>245.0</ele><time>2026-05-01T12:27:52Z</time></trkpt><trkpt lat="44.227461141733315" lon="9.666548382570207"><ele>245.0</ele><time>2026-05-01T12:27:53Z</time></trkpt><trkpt lat="44.227465596622736" lon="9.666718530970552"><ele>245.0</ele><time>2026-05-01T12:27:54Z</time></trkpt><trkpt lat="44.227527113934784" lon="9.666890336742505"><ele>245.0</ele><time>2026-05-01T12:27:55Z</time></trkpt><trkpt lat="44.22764873730494" lon="9.667060468701584"><ele>245.0</ele><time>2026-05-01T12:27:56Z</time></trkpt><trkpt lat="44.227804249897396" lon="9.667251218145351"><ele>243.0</ele><time>2026-05-01T12:27:57Z</time></trkpt><trkpt lat="44.22794541921831" lon="9.667487158234735"><ele>241.0</ele><time>2026-05-01T12:27:58Z</time></trkpt><trkpt lat="44.228108437096736" lon="9.66770430910441"><ele>239.0</ele><time>2026-05-01T12:27:59Z</time></trkpt><trkpt lat="44.228260031559316" lon="9.667966622150452"><ele>239.0</ele><time>2026-05-01T12:28:00Z</time></trkpt><trkpt lat="44.228439168117816" lon="9.668209784892289"><ele>239.0</ele><time>2026-05-01T12:28:01Z</time></trkpt><trkpt lat="44.22859603452715" lon="9.668478240739105"><ele>239.5</ele><time>2026-05-01T12:28:02Z</time></trkpt><trkpt lat="44.22876316102436" lon="9.668727929446922"><ele>240.0</ele><time>2026-05-01T12:28:03Z</time></trkpt><trkpt lat="44.22891854014348" lon="9.668990397784322"><ele>234.5</ele><time>2026-05-01T12:28:04Z</time></trkpt><trkpt lat="44.22905036834469" lon="9.669279472012919"><ele>229.0</ele><time>2026-05-01T12:28:05Z</time></trkpt><trkpt lat="44.2291793230355" lon="9.669567930830265"><ele>229.0</ele><time>2026-05-01T12:28:06Z</time></trkpt><trkpt lat="44.229299632183505" lon="9.6698349948307"><ele>229.0</ele><time>2026-05-01T12:28:07Z</time></trkpt><trkpt lat="44.2294157754627" lon="9.670089866525938"><ele>229.0</ele><time>2026-05-01T12:28:08Z</time></trkpt><trkpt lat="44.229531504679336" lon="9.670344859581506"><ele>227.0</ele><time>2026-05-01T12:28:09Z</time></trkpt><trkpt lat="44.22964552497449" lon="9.670600361862633"><ele>225.0</ele><time>2026-05-01T12:28:10Z</time></trkpt><trkpt lat="44.22975907629843" lon="9.670859520276645"><ele>223.0</ele><time>2026-05-01T12:28:11Z</time></trkpt><trkpt lat="44.229830465294754" lon="9.67113788004693"><ele>223.0</ele><time>2026-05-01T12:28:12Z</time></trkpt><trkpt lat="44.22988255239829" lon="9.67139755751763"><ele>223.0</ele><time>2026-05-01T12:28:13Z</time></trkpt><trkpt lat="44.22992821584369" lon="9.671585516572666"><ele>223.0</ele><time>2026-05-01T12:28:14Z</time></trkpt><trkpt lat="44.22998919066175" lon="9.671725672664271"><ele>223.0</ele><time>2026-05-01T12:28:15Z</time></trkpt><trkpt lat="44.23009234192696" lon="9.671821605534664"><ele>223.0</ele><time>2026-05-01T12:28:16.001Z</time></trkpt><trkpt lat="44.23023575613432" lon="9.671851915369688"><ele>223.0</ele><time>2026-05-01T12:28:17.001Z</time></trkpt><trkpt lat="44.23037691155813" lon="9.67190550949745"><ele>223.0</ele><time>2026-05-01T12:28:18.001Z</time></trkpt><trkpt lat="44.230482147053195" lon="9.672039407141035"><ele>220.0</ele><time>2026-05-01T12:28:19.001Z</time></trkpt><trkpt lat="44.230579171915934" lon="9.672222079363861"><ele>217.0</ele><time>2026-05-01T12:28:20.001Z</time></trkpt><trkpt lat="44.23064893655459" lon="9.672402075159184"><ele>214.0</ele><time>2026-05-01T12:28:21.001Z</time></trkpt><trkpt lat="44.230680412818344" lon="9.672602385287353"><ele>214.66666666666666</ele><time>2026-05-01T12:28:22.001Z</time></trkpt><trkpt lat="44.2307167214031" lon="9.672858946338158"><ele>215.33333333333331</ele><time>2026-05-01T12:28:23.001Z</time></trkpt><trkpt lat="44.230805890818345" lon="9.673102482619862"><ele>216.0</ele><time>2026-05-01T12:28:24.001Z</time></trkpt><trkpt lat="44.23093354046221" lon="9.673324995179211"><ele>216.0</ele><time>2026-05-01T12:28:25.001Z</time></trkpt><trkpt lat="44.231005041471164" lon="9.673603441884813"><ele>216.0</ele><time>2026-05-01T12:28:26.001Z</time></trkpt><trkpt lat="44.23105067803711" lon="9.673961459375636"><ele>223.0</ele><time>2026-05-01T12:28:27.001Z</time></trkpt><trkpt lat="44.23117098531383" lon="9.674311786635824"><ele>230.0</ele><time>2026-05-01T12:28:28.001Z</time></trkpt><trkpt lat="44.23128758258292" lon="9.674660201977286"><ele>233.0</ele><time>2026-05-01T12:28:29.001Z</time></trkpt><trkpt lat="44.23137821357114" lon="9.674981850697844"><ele>236.0</ele><time>2026-05-01T12:28:30.001Z</time></trkpt><trkpt lat="44.23147258083451" lon="9.675271092268071"><ele>218.0</ele><time>2026-05-01T12:28:31.001Z</time></trkpt><trkpt lat="44.23156068456625" lon="9.675551322300068"><ele>200.0</ele><time>2026-05-01T12:28:32.001Z</time></trkpt><trkpt lat="44.23160151528496" lon="9.67589072135765"><ele>201.0</ele><time>2026-05-01T12:28:33.001Z</time></trkpt><trkpt lat="44.23165304542214" lon="9.676236799537737"><ele>202.0</ele><time>2026-05-01T12:28:34.001Z</time></trkpt><trkpt lat="44.231696569431044" lon="9.676546106102302"><ele>202.0</ele><time>2026-05-01T12:28:35.001Z</time></trkpt><trkpt lat="44.23174060328505" lon="9.676829589103592"><ele>202.0</ele><time>2026-05-01T12:28:36.001Z</time></trkpt><trkpt lat="44.23169501603475" lon="9.677116449451008"><ele>202.0</ele><time>2026-05-01T12:28:37.001Z</time></trkpt><trkpt lat="44.23164862153587" lon="9.677409810861176"><ele>202.66666666666666</ele><time>2026-05-01T12:28:38.001Z</time></trkpt><trkpt lat="44.23162133371332" lon="9.677657294812434"><ele>203.33333333333331</ele><time>2026-05-01T12:28:39.001Z</time></trkpt><trkpt lat="44.23159539066049" lon="9.677859838351699"><ele>204.0</ele><time>2026-05-01T12:28:40.001Z</time></trkpt><trkpt lat="44.231610373996716" lon="9.678044775450259"><ele>204.0</ele><time>2026-05-01T12:28:41.001Z</time></trkpt><trkpt lat="44.23167992698636" lon="9.67822899429507"><ele>204.0</ele><time>2026-05-01T12:28:42.001Z</time></trkpt><trkpt lat="44.23180623860734" lon="9.6784064759701"><ele>204.0</ele><time>2026-05-01T12:28:43.001Z</time></trkpt><trkpt lat="44.231958710587925" lon="9.678597384914355"><ele>204.0</ele><time>2026-05-01T12:28:44.001Z</time></trkpt><trkpt lat="44.23207351596883" lon="9.678856529078516"><ele>204.0</ele><time>2026-05-01T12:28:45.001Z</time></trkpt><trkpt lat="44.232179197014354" lon="9.679138050766294"><ele>204.0</ele><time>2026-05-01T12:28:46.001Z</time></trkpt><trkpt lat="44.23228265600863" lon="9.679384955443942"><ele>201.0</ele><time>2026-05-01T12:28:47.001Z</time></trkpt><trkpt lat="44.232346691824574" lon="9.679634268367447"><ele>198.0</ele><time>2026-05-01T12:28:48.001Z</time></trkpt><trkpt lat="44.2324242560614" lon="9.679857520744367"><ele>195.0</ele><time>2026-05-01T12:28:49.001Z</time></trkpt><trkpt lat="44.232312052748945" lon="9.680199218869719"><ele>196.66666666666669</ele><time>2026-05-01T12:28:50.001Z</time></trkpt><trkpt lat="44.232270133990816" lon="9.680475145189636"><ele>198.33333333333334</ele><time>2026-05-01T12:28:51.001Z</time></trkpt><trkpt lat="44.232205017357174" lon="9.680772967352446"><ele>200.0</ele><time>2026-05-01T12:28:52.001Z</time></trkpt><trkpt lat="44.23213607250701" lon="9.681080597843545"><ele>198.66666666666669</ele><time>2026-05-01T12:28:53.001Z</time></trkpt><trkpt lat="44.23207350674497" lon="9.681388840355263"><ele>197.33333333333331</ele><time>2026-05-01T12:28:54.001Z</time></trkpt><trkpt lat="44.232018269412784" lon="9.681681188551945"><ele>196.0</ele><time>2026-05-01T12:28:55.001Z</time></trkpt><trkpt lat="44.23197497301996" lon="9.68195562080551"><ele>194.33333333333331</ele><time>2026-05-01T12:28:56.001Z</time></trkpt><trkpt lat="44.23194209211708" lon="9.6822297702567"><ele>192.66666666666666</ele><time>2026-05-01T12:28:57.002Z</time></trkpt><trkpt lat="44.23194030946962" lon="9.682492267829382"><ele>191.0</ele><time>2026-05-01T12:28:58.002Z</time></trkpt><trkpt lat="44.231983116370564" lon="9.682770401741886"><ele>189.0</ele><time>2026-05-01T12:28:59.002Z</time></trkpt><trkpt lat="44.23204627227988" lon="9.683056928778113"><ele>187.0</ele><time>2026-05-01T12:29:00.002Z</time></trkpt><trkpt lat="44.232101112623454" lon="9.683320913181188"><ele>185.0</ele><time>2026-05-01T12:29:01.002Z</time></trkpt><trkpt lat="44.23213289413934" lon="9.683548185508304"><ele>184.5</ele><time>2026-05-01T12:29:02.002Z</time></trkpt><trkpt lat="44.23212319169443" lon="9.683749986359437"><ele>184.0</ele><time>2026-05-01T12:29:03.002Z</time></trkpt><trkpt lat="44.23206618581966" lon="9.68392523802008"><ele>183.5</ele><time>2026-05-01T12:29:04.002Z</time></trkpt><trkpt lat="44.23196141127372" lon="9.684065325884466"><ele>183.0</ele><time>2026-05-01T12:29:05.002Z</time></trkpt><trkpt lat="44.23182176146702" lon="9.68418433565838"><ele>183.0</ele><time>2026-05-01T12:29:06.002Z</time></trkpt><trkpt lat="44.23165402692066" lon="9.684311051021698"><ele>183.0</ele><time>2026-05-01T12:29:07.002Z</time></trkpt><trkpt lat="44.23147065198236" lon="9.684434677946792"><ele>183.0</ele><time>2026-05-01T12:29:08.002Z</time></trkpt><trkpt lat="44.23128841854169" lon="9.684575016904159"><ele>182.0</ele><time>2026-05-01T12:29:09.002Z</time></trkpt><trkpt lat="44.231092913578024" lon="9.684731663534263"><ele>181.0</ele><time>2026-05-01T12:29:10.002Z</time></trkpt><trkpt lat="44.23089243210132" lon="9.684905911324078"><ele>181.0</ele><time>2026-05-01T12:29:11.002Z</time></trkpt><trkpt lat="44.23069431675573" lon="9.685064505343469"><ele>181.0</ele><time>2026-05-01T12:29:12.002Z</time></trkpt><trkpt lat="44.230511920543655" lon="9.685204466280778"><ele>181.0</ele><time>2026-05-01T12:29:13.002Z</time></trkpt><trkpt lat="44.23032943879632" lon="9.685307054197963"><ele>182.0</ele><time>2026-05-01T12:29:14.002Z</time></trkpt><trkpt lat="44.23013069285076" lon="9.685368308310863"><ele>183.0</ele><time>2026-05-01T12:29:15.002Z</time></trkpt><trkpt lat="44.22992482377421" lon="9.685404180232632"><ele>184.0</ele><time>2026-05-01T12:29:16.002Z</time></trkpt><trkpt lat="44.22971216385485" lon="9.685441135236251"><ele>179.66666666666669</ele><time>2026-05-01T12:29:17.002Z</time></trkpt><trkpt lat="44.22950773965602" lon="9.68548877934838"><ele>175.33333333333334</ele><time>2026-05-01T12:29:18.002Z</time></trkpt><trkpt lat="44.22932177020382" lon="9.685536224754774"><ele>171.0</ele><time>2026-05-01T12:29:19.002Z</time></trkpt><trkpt lat="44.22914675832226" lon="9.685599003051337"><ele>171.0</ele><time>2026-05-01T12:29:20.002Z</time></trkpt><trkpt lat="44.228978991286034" lon="9.685730768135063"><ele>171.0</ele><time>2026-05-01T12:29:21.002Z</time></trkpt><trkpt lat="44.2288229060682" lon="9.68589191120223"><ele>171.0</ele><time>2026-05-01T12:29:22.002Z</time></trkpt><trkpt lat="44.22869701526044" lon="9.686060286497899"><ele>168.33333333333334</ele><time>2026-05-01T12:29:23.002Z</time></trkpt><trkpt lat="44.22860140098145" lon="9.686259330331763"><ele>165.66666666666669</ele><time>2026-05-01T12:29:24.002Z</time></trkpt><trkpt lat="44.22853306116723" lon="9.68650939127107"><ele>163.0</ele><time>2026-05-01T12:29:25.002Z</time></trkpt><trkpt lat="44.22846871271074" lon="9.686769269009421"><ele>161.66666666666669</ele><time>2026-05-01T12:29:26.002Z</time></trkpt><trkpt lat="44.22837336435038" lon="9.686987066603846"><ele>160.33333333333334</ele><time>2026-05-01T12:29:27.002Z</time></trkpt><trkpt lat="44.2282468355494" lon="9.687165003393282"><ele>159.0</ele><time>2026-05-01T12:29:28.002Z</time></trkpt><trkpt lat="44.228085000627644" lon="9.68729837406852"><ele>159.0</ele><time>2026-05-01T12:29:29.002Z</time></trkpt><trkpt lat="44.22792321272798" lon="9.687404890429102"><ele>159.0</ele><time>2026-05-01T12:29:30.002Z</time></trkpt><trkpt lat="44.22778403959297" lon="9.68752592880646"><ele>159.0</ele><time>2026-05-01T12:29:31.002Z</time></trkpt><trkpt lat="44.227662276315066" lon="9.68770014362375"><ele>158.33333333333334</ele><time>2026-05-01T12:29:32.002Z</time></trkpt><trkpt lat="44.227578864199636" lon="9.687924094784202"><ele>157.66666666666669</ele><time>2026-05-01T12:29:33.002Z</time></trkpt><trkpt lat="44.227515833547734" lon="9.688136534841744"><ele>157.0</ele><time>2026-05-01T12:29:34.002Z</time></trkpt><trkpt lat="44.22745152205299" lon="9.688322104661065"><ele>157.0</ele><time>2026-05-01T12:29:35.002Z</time></trkpt><trkpt lat="44.22738146920051" lon="9.688494304011217"><ele>157.0</ele><time>2026-05-01T12:29:36.002Z</time></trkpt><trkpt lat="44.22731069168076" lon="9.68865432909486"><ele>157.0</ele><time>2026-05-01T12:29:37.003Z</time></trkpt><trkpt lat="44.227243587707875" lon="9.68880566347998"><ele>157.0</ele><time>2026-05-01T12:29:38.003Z</time></trkpt><trkpt lat="44.2271810073523" lon="9.688953890445788"><ele>156.75</ele><time>2026-05-01T12:29:39.003Z</time></trkpt><trkpt lat="44.2271198959156" lon="9.689099595213717"><ele>156.5</ele><time>2026-05-01T12:29:40.003Z</time></trkpt><trkpt lat="44.22706101720954" lon="9.689239487866312"><ele>156.25</ele><time>2026-05-01T12:29:41.003Z</time></trkpt><trkpt lat="44.22700322621988" lon="9.68938509547043"><ele>156.0</ele><time>2026-05-01T12:29:42.003Z</time></trkpt><trkpt lat="44.226946088762354" lon="9.689542965155129"><ele>156.0</ele><time>2026-05-01T12:29:43.003Z</time></trkpt><trkpt lat="44.2268954845967" lon="9.689710510945574"><ele>156.0</ele><time>2026-05-01T12:29:44.003Z</time></trkpt><trkpt lat="44.2268555862516" lon="9.689885444053159"><ele>156.0</ele><time>2026-05-01T12:29:45.003Z</time></trkpt><trkpt lat="44.22682907996718" lon="9.690057720768436"><ele>156.0</ele><time>2026-05-01T12:29:46.003Z</time></trkpt><trkpt lat="44.226771783533636" lon="9.690209406774722"><ele>155.5</ele><time>2026-05-01T12:29:47.003Z</time></trkpt><trkpt lat="44.22675787684319" lon="9.690394999499901"><ele>155.0</ele><time>2026-05-01T12:29:48.003Z</time></trkpt><trkpt lat="44.22675837335255" lon="9.690597379762812"><ele>154.5</ele><time>2026-05-01T12:29:49.003Z</time></trkpt><trkpt lat="44.22676328142949" lon="9.690807215841494"><ele>154.0</ele><time>2026-05-01T12:29:50.003Z</time></trkpt><trkpt lat="44.22675014827467" lon="9.691019514005585"><ele>156.0</ele><time>2026-05-01T12:29:51.003Z</time></trkpt><trkpt lat="44.22672021505619" lon="9.69124480544535"><ele>158.0</ele><time>2026-05-01T12:29:52.003Z</time></trkpt><trkpt lat="44.22667870359478" lon="9.691487605670426"><ele>160.0</ele><time>2026-05-01T12:29:53Z</time></trkpt><trkpt lat="44.22661247812176" lon="9.691753446727075"><ele>159.33333333333334</ele><time>2026-05-01T12:29:54Z</time></trkpt><trkpt lat="44.22652289825195" lon="9.69203440810028"><ele>158.66666666666666</ele><time>2026-05-01T12:29:55Z</time></trkpt><trkpt lat="44.22640623159709" lon="9.692297309800137"><ele>158.0</ele><time>2026-05-01T12:29:56Z</time></trkpt><trkpt lat="44.22631833739709" lon="9.69253366822968"><ele>158.0</ele><time>2026-05-01T12:29:57Z</time></trkpt><trkpt lat="44.22621976807134" lon="9.69272994695065"><ele>158.0</ele><time>2026-05-01T12:29:58Z</time></trkpt><trkpt lat="44.22612355009455" lon="9.69291252633352"><ele>158.0</ele><time>2026-05-01T12:29:59Z</time></trkpt><trkpt lat="44.22598093831333" lon="9.693055142423667"><ele>157.33333333333331</ele><time>2026-05-01T12:30:00Z</time></trkpt><trkpt lat="44.2258006112334" lon="9.69318541373843"><ele>156.66666666666666</ele><time>2026-05-01T12:30:01Z</time></trkpt><trkpt lat="44.22560637253926" lon="9.693309453708874"><ele>156.0</ele><time>2026-05-01T12:30:02Z</time></trkpt><trkpt lat="44.225415383090734" lon="9.693433667568437"><ele>156.0</ele><time>2026-05-01T12:30:03Z</time></trkpt><trkpt lat="44.22521712777975" lon="9.693561017682988"><ele>156.0</ele><time>2026-05-01T12:30:04Z</time></trkpt><trkpt lat="44.22501391941736" lon="9.693687617118371"><ele>156.0</ele><time>2026-05-01T12:30:05Z</time></trkpt><trkpt lat="44.22480747315151" lon="9.693812971142478"><ele>153.66666666666666</ele><time>2026-05-01T12:30:06Z</time></trkpt><trkpt lat="44.224597322573736" lon="9.693935726173908"><ele>151.33333333333331</ele><time>2026-05-01T12:30:07Z</time></trkpt><trkpt lat="44.22440028068342" lon="9.69405436050819"><ele>149.0</ele><time>2026-05-01T12:30:08Z</time></trkpt><trkpt lat="44.224226876471874" lon="9.694168778777213"><ele>149.0</ele><time>2026-05-01T12:30:09Z</time></trkpt><trkpt lat="44.224065726224765" lon="9.694271537039272"><ele>149.0</ele><time>2026-05-01T12:30:10Z</time></trkpt><trkpt lat="44.223926607219035" lon="9.694360641193589"><ele>149.0</ele><time>2026-05-01T12:30:11Z</time></trkpt><trkpt lat="44.22380643872008" lon="9.694450945541371"><ele>149.0</ele><time>2026-05-01T12:30:12Z</time></trkpt><trkpt lat="44.22371334440285" lon="9.69455546726094"><ele>149.0</ele><time>2026-05-01T12:30:13Z</time></trkpt><trkpt lat="44.22366040606668" lon="9.694688100526518"><ele>149.0</ele><time>2026-05-01T12:30:14Z</time></trkpt><trkpt lat="44.22366889912054" lon="9.694857464702753"><ele>149.0</ele><time>2026-05-01T12:30:15Z</time></trkpt><trkpt lat="44.22372216816571" lon="9.695035045447842"><ele>149.0</ele><time>2026-05-01T12:30:16Z</time></trkpt><trkpt lat="44.223816450481" lon="9.695222619472212"><ele>149.0</ele><time>2026-05-01T12:30:17Z</time></trkpt><trkpt lat="44.223950900713895" lon="9.69541925379271"><ele>149.0</ele><time>2026-05-01T12:30:18Z</time></trkpt><trkpt lat="44.22409251076461" lon="9.695643606575569"><ele>147.33333333333331</ele><time>2026-05-01T12:30:19Z</time></trkpt><trkpt lat="44.22423126112279" lon="9.69588182797948"><ele>145.66666666666666</ele><time>2026-05-01T12:30:20Z</time></trkpt><trkpt lat="44.224339824901946" lon="9.696095174041144"><ele>144.0</ele><time>2026-05-01T12:30:21Z</time></trkpt><trkpt lat="44.22441933629934" lon="9.696308986104318"><ele>142.66666666666666</ele><time>2026-05-01T12:30:22Z</time></trkpt><trkpt lat="44.22447121233956" lon="9.696545040856805"><ele>141.33333333333331</ele><time>2026-05-01T12:30:23Z</time></trkpt><trkpt lat="44.224498471404594" lon="9.69680193867109"><ele>140.0</ele><time>2026-05-01T12:30:24.001Z</time></trkpt><trkpt lat="44.22451374202497" lon="9.69703560896324"><ele>140.0</ele><time>2026-05-01T12:30:25.001Z</time></trkpt><trkpt lat="44.22451702201035" lon="9.697239489258514"><ele>140.0</ele><time>2026-05-01T12:30:26.001Z</time></trkpt><trkpt lat="44.2244799591564" lon="9.697431432548946"><ele>140.0</ele><time>2026-05-01T12:30:27.001Z</time></trkpt><trkpt lat="44.22439838029413" lon="9.697624056308225"><ele>140.0</ele><time>2026-05-01T12:30:28.001Z</time></trkpt><trkpt lat="44.22428321868487" lon="9.697790511593169"><ele>140.0</ele><time>2026-05-01T12:30:29.001Z</time></trkpt><trkpt lat="44.22412523686125" lon="9.69792756240767"><ele>140.0</ele><time>2026-05-01T12:30:30.001Z</time></trkpt><trkpt lat="44.22394431238938" lon="9.698062368729978"><ele>140.0</ele><time>2026-05-01T12:30:31.001Z</time></trkpt><trkpt lat="44.223756035556036" lon="9.698228540600795"><ele>140.0</ele><time>2026-05-01T12:30:32.001Z</time></trkpt><trkpt lat="44.223598325932066" lon="9.698449553744304"><ele>140.0</ele><time>2026-05-01T12:30:33.001Z</time></trkpt><trkpt lat="44.22347324967648" lon="9.69871889982829"><ele>139.0</ele><time>2026-05-01T12:30:34.001Z</time></trkpt><trkpt lat="44.223366983666935" lon="9.699031917675338"><ele>138.0</ele><time>2026-05-01T12:30:35.001Z</time></trkpt><trkpt lat="44.22327112457568" lon="9.699353122900074"><ele>136.5</ele><time>2026-05-01T12:30:36.001Z</time></trkpt><trkpt lat="44.22316692432216" lon="9.69966237206221"><ele>135.0</ele><time>2026-05-01T12:30:37.001Z</time></trkpt><trkpt lat="44.22305292460819" lon="9.699969763516235"><ele>134.0</ele><time>2026-05-01T12:30:38.001Z</time></trkpt><trkpt lat="44.22293799423425" lon="9.700280539695731"><ele>133.0</ele><time>2026-05-01T12:30:39.001Z</time></trkpt><trkpt lat="44.222822769118544" lon="9.7005840610446"><ele>133.0</ele><time>2026-05-01T12:30:40.001Z</time></trkpt><trkpt lat="44.22270625925521" lon="9.700890564847466"><ele>133.0</ele><time>2026-05-01T12:30:41.001Z</time></trkpt><trkpt lat="44.22259554221646" lon="9.70118750354339"><ele>136.0</ele><time>2026-05-01T12:30:42.001Z</time></trkpt><trkpt lat="44.22248001758076" lon="9.701484276350193"><ele>139.0</ele><time>2026-05-01T12:30:43.001Z</time></trkpt><trkpt lat="44.222367712865555" lon="9.701781562188122"><ele>136.5</ele><time>2026-05-01T12:30:44.001Z</time></trkpt><trkpt lat="44.22225351330641" lon="9.702084937233469"><ele>134.0</ele><time>2026-05-01T12:30:45.001Z</time></trkpt><trkpt lat="44.222142186930974" lon="9.702386360082018"><ele>134.0</ele><time>2026-05-01T12:30:46.001Z</time></trkpt><trkpt lat="44.22203518277592" lon="9.702692006203016"><ele>134.0</ele><time>2026-05-01T12:30:47.001Z</time></trkpt><trkpt lat="44.22192626341848" lon="9.703001084457817"><ele>134.5</ele><time>2026-05-01T12:30:48.001Z</time></trkpt><trkpt lat="44.2218142171835" lon="9.703308176529246"><ele>135.0</ele><time>2026-05-01T12:30:49.001Z</time></trkpt><trkpt lat="44.22169828442126" lon="9.703615484950436"><ele>134.5</ele><time>2026-05-01T12:30:50.001Z</time></trkpt><trkpt lat="44.221574346327216" lon="9.703917613813147"><ele>134.0</ele><time>2026-05-01T12:30:51.001Z</time></trkpt><trkpt lat="44.22144734713177" lon="9.704218764660885"><ele>132.0</ele><time>2026-05-01T12:30:52.001Z</time></trkpt><trkpt lat="44.22131789148838" lon="9.7045196278544"><ele>130.0</ele><time>2026-05-01T12:30:53.001Z</time></trkpt><trkpt lat="44.22119519931014" lon="9.704814803437088"><ele>130.0</ele><time>2026-05-01T12:30:54.001Z</time></trkpt><trkpt lat="44.22107015972648" lon="9.705088796922812"><ele>130.0</ele><time>2026-05-01T12:30:55.001Z</time></trkpt><trkpt lat="44.22093229943188" lon="9.705354592603872"><ele>130.0</ele><time>2026-05-01T12:30:56.001Z</time></trkpt><trkpt lat="44.22076144214802" lon="9.705585985212961"><ele>130.0</ele><time>2026-05-01T12:30:57.001Z</time></trkpt><trkpt lat="44.22061113108485" lon="9.705840374561946"><ele>129.33333333333334</ele><time>2026-05-01T12:30:58.001Z</time></trkpt><trkpt lat="44.22047247273209" lon="9.7060802048716"><ele>128.66666666666666</ele><time>2026-05-01T12:30:59.001Z</time></trkpt><trkpt lat="44.22035150043392" lon="9.706293026126705"><ele>128.0</ele><time>2026-05-01T12:31:00.001Z</time></trkpt><trkpt lat="44.22024732991995" lon="9.7064814167313"><ele>128.0</ele><time>2026-05-01T12:31:01.001Z</time></trkpt><trkpt lat="44.22017836883366" lon="9.706675446156854"><ele>128.0</ele><time>2026-05-01T12:31:02.001Z</time></trkpt><trkpt lat="44.220137693862895" lon="9.706866885910568"><ele>128.0</ele><time>2026-05-01T12:31:03.001Z</time></trkpt><trkpt lat="44.22015351953622" lon="9.707079967359933"><ele>126.66666666666666</ele><time>2026-05-01T12:31:04.002Z</time></trkpt><trkpt lat="44.22022099821531" lon="9.70730329071863"><ele>125.33333333333334</ele><time>2026-05-01T12:31:05.002Z</time></trkpt><trkpt lat="44.22028061731652" lon="9.707539038611241"><ele>124.0</ele><time>2026-05-01T12:31:06.002Z</time></trkpt><trkpt lat="44.22030924476482" lon="9.707757509474524"><ele>123.33333333333334</ele><time>2026-05-01T12:31:07.002Z</time></trkpt><trkpt lat="44.22028779363651" lon="9.707971275032147"><ele>122.66666666666666</ele><time>2026-05-01T12:31:08.002Z</time></trkpt><trkpt lat="44.22022026566188" lon="9.708189270150598"><ele>122.0</ele><time>2026-05-01T12:31:09.002Z</time></trkpt><trkpt lat="44.2201257030252" lon="9.708428505539565"><ele>124.33333333333333</ele><time>2026-05-01T12:31:10.002Z</time></trkpt><trkpt lat="44.22001811755664" lon="9.708684630614876"><ele>126.66666666666666</ele><time>2026-05-01T12:31:11.002Z</time></trkpt><trkpt lat="44.2199220180307" lon="9.70895901352673"><ele>129.0</ele><time>2026-05-01T12:31:12.002Z</time></trkpt><trkpt lat="44.21981208659968" lon="9.709213950874986"><ele>129.66666666666666</ele><time>2026-05-01T12:31:13.002Z</time></trkpt><trkpt lat="44.21972284777919" lon="9.709485438309349"><ele>130.33333333333331</ele><time>2026-05-01T12:31:14.002Z</time></trkpt><trkpt lat="44.21965914880858" lon="9.709785067726095"><ele>131.0</ele><time>2026-05-01T12:31:15.002Z</time></trkpt><trkpt lat="44.21961275382288" lon="9.710107773913471"><ele>128.5</ele><time>2026-05-01T12:31:16.002Z</time></trkpt><trkpt lat="44.219540456150284" lon="9.710413467080057"><ele>126.0</ele><time>2026-05-01T12:31:17.002Z</time></trkpt><trkpt lat="44.219483871326425" lon="9.710721051865214"><ele>126.0</ele><time>2026-05-01T12:31:18.002Z</time></trkpt><trkpt lat="44.21942850407319" lon="9.711021819645962"><ele>126.0</ele><time>2026-05-01T12:31:19.002Z</time></trkpt><trkpt lat="44.219375360725735" lon="9.711307473064593"><ele>126.0</ele><time>2026-05-01T12:31:20.002Z</time></trkpt><trkpt lat="44.21932398114031" lon="9.71158364594795"><ele>123.0</ele><time>2026-05-01T12:31:21.002Z</time></trkpt><trkpt lat="44.21927483493201" lon="9.711847814100954"><ele>120.0</ele><time>2026-05-01T12:31:22.002Z</time></trkpt><trkpt lat="44.21922890779474" lon="9.71209523293421"><ele>117.0</ele><time>2026-05-01T12:31:23.002Z</time></trkpt><trkpt lat="44.21918517652215" lon="9.712330993249706"><ele>116.66666666666666</ele><time>2026-05-01T12:31:24.002Z</time></trkpt><trkpt lat="44.219141648742436" lon="9.712568274557487"><ele>116.33333333333333</ele><time>2026-05-01T12:31:25.002Z</time></trkpt><trkpt lat="44.219108857375026" lon="9.712835425576282"><ele>116.0</ele><time>2026-05-01T12:31:26.002Z</time></trkpt><trkpt lat="44.219043901696985" lon="9.713102390005666"><ele>116.0</ele><time>2026-05-01T12:31:27.002Z</time></trkpt><trkpt lat="44.219027874829884" lon="9.713393214151864"><ele>116.0</ele><time>2026-05-01T12:31:28.002Z</time></trkpt><trkpt lat="44.21901438901655" lon="9.71366538347749"><ele>116.0</ele><time>2026-05-01T12:31:29.002Z</time></trkpt><trkpt lat="44.218993410898825" lon="9.71391282550572"><ele>116.33333333333333</ele><time>2026-05-01T12:31:30.002Z</time></trkpt><trkpt lat="44.21898084802254" lon="9.714161277096355"><ele>116.66666666666666</ele><time>2026-05-01T12:31:31.002Z</time></trkpt><trkpt lat="44.21896808013888" lon="9.71441378305079"><ele>117.0</ele><time>2026-05-01T12:31:32.002Z</time></trkpt><trkpt lat="44.218963206761934" lon="9.714673181547195"><ele>115.66666666666666</ele><time>2026-05-01T12:31:33.002Z</time></trkpt><trkpt lat="44.21893601963015" lon="9.714927446073165"><ele>114.33333333333333</ele><time>2026-05-01T12:31:34.002Z</time></trkpt><trkpt lat="44.21891883016569" lon="9.715179719931074"><ele>113.0</ele><time>2026-05-01T12:31:35.002Z</time></trkpt><trkpt lat="44.2189253509714" lon="9.71542077790922"><ele>113.66666666666666</ele><time>2026-05-01T12:31:36.002Z</time></trkpt><trkpt lat="44.218971029457435" lon="9.71565221733566"><ele>114.33333333333334</ele><time>2026-05-01T12:31:37.002Z</time></trkpt><trkpt lat="44.21906118371106" lon="9.715863916054841"><ele>115.0</ele><time>2026-05-01T12:31:38.002Z</time></trkpt><trkpt lat="44.219177096451" lon="9.716038999166711"><ele>112.33333333333334</ele><time>2026-05-01T12:31:39.002Z</time></trkpt><trkpt lat="44.219316296455474" lon="9.716161425157253"><ele>109.66666666666666</ele><time>2026-05-01T12:31:40.002Z</time></trkpt><trkpt lat="44.219479550768135" lon="9.71625849780693"><ele>107.0</ele><time>2026-05-01T12:31:41.002Z</time></trkpt><trkpt lat="44.219640075911215" lon="9.716336171413932"><ele>107.0</ele><time>2026-05-01T12:31:42.003Z</time></trkpt><trkpt lat="44.21977686947538" lon="9.716401637533506"><ele>107.0</ele><time>2026-05-01T12:31:43.003Z</time></trkpt><trkpt lat="44.21989307323733" lon="9.716475767620107"><ele>107.0</ele><time>2026-05-01T12:31:44.003Z</time></trkpt><trkpt lat="44.22000879739022" lon="9.716549015601819"><ele>107.0</ele><time>2026-05-01T12:31:45.003Z</time></trkpt><trkpt lat="44.220123070930214" lon="9.716623891245924"><ele>107.0</ele><time>2026-05-01T12:31:46.003Z</time></trkpt><trkpt lat="44.22024044028337" lon="9.716699139478095"><ele>107.0</ele><time>2026-05-01T12:31:47.003Z</time></trkpt><trkpt lat="44.22035875892717" lon="9.716774743282139"><ele>107.0</ele><time>2026-05-01T12:31:48.003Z</time></trkpt><trkpt lat="44.220475536180736" lon="9.716849334240147"><ele>107.0</ele><time>2026-05-01T12:31:49.003Z</time></trkpt><trkpt lat="44.22059179560523" lon="9.716924003178196"><ele>107.0</ele><time>2026-05-01T12:31:50.003Z</time></trkpt><trkpt lat="44.220708028104525" lon="9.716998793758787"><ele>107.0</ele><time>2026-05-01T12:31:51.003Z</time></trkpt><trkpt lat="44.22082401648143" lon="9.717069269189711"><ele>107.0</ele><time>2026-05-01T12:31:52.003Z</time></trkpt><trkpt lat="44.22093700826334" lon="9.717135478793159"><ele>107.0</ele><time>2026-05-01T12:31:53.003Z</time></trkpt><trkpt lat="44.22105136296654" lon="9.71720222001844"><ele>107.0</ele><time>2026-05-01T12:31:54.003Z</time></trkpt><trkpt lat="44.221156064199675" lon="9.717269494031587"><ele>107.0</ele><time>2026-05-01T12:31:55.003Z</time></trkpt><trkpt lat="44.22125787598553" lon="9.71733385953469"><ele>107.0</ele><time>2026-05-01T12:31:56.003Z</time></trkpt><trkpt lat="44.221360392558665" lon="9.717406838963516"><ele>107.0</ele><time>2026-05-01T12:31:57.003Z</time></trkpt><trkpt lat="44.22146269541433" lon="9.717471216231244"><ele>107.0</ele><time>2026-05-01T12:31:58Z</time></trkpt><trkpt lat="44.22156995205396" lon="9.717540629783262"><ele>107.0</ele><time>2026-05-01T12:31:59Z</time></trkpt><trkpt lat="44.22167569530318" lon="9.717606535244817"><ele>107.0</ele><time>2026-05-01T12:32:00Z</time></trkpt><trkpt lat="44.22178438971097" lon="9.71767317675165"><ele>107.0</ele><time>2026-05-01T12:32:01Z</time></trkpt><trkpt lat="44.221892081055415" lon="9.71774008946767"><ele>106.75</ele><time>2026-05-01T12:32:02Z</time></trkpt><trkpt lat="44.22200043320596" lon="9.717807154443054"><ele>106.5</ele><time>2026-05-01T12:32:03Z</time></trkpt><trkpt lat="44.22211646422382" lon="9.717886216558396"><ele>106.25</ele><time>2026-05-01T12:32:04Z</time></trkpt><trkpt lat="44.222238354277586" lon="9.717989370261341"><ele>106.0</ele><time>2026-05-01T12:32:05Z</time></trkpt><trkpt lat="44.22235159779581" lon="9.718116547432691"><ele>105.75</ele><time>2026-05-01T12:32:06Z</time></trkpt><trkpt lat="44.22242397880418" lon="9.71829132856191"><ele>105.5</ele><time>2026-05-01T12:32:07Z</time></trkpt><trkpt lat="44.22249779025007" lon="9.71847207407202"><ele>105.25</ele><time>2026-05-01T12:32:08Z</time></trkpt><trkpt lat="44.22256880430812" lon="9.718648763916336"><ele>105.0</ele><time>2026-05-01T12:32:09Z</time></trkpt><trkpt lat="44.22264711231749" lon="9.718809983520117"><ele>104.5</ele><time>2026-05-01T12:32:10Z</time></trkpt><trkpt lat="44.222701670388865" lon="9.71897510848516"><ele>104.0</ele><time>2026-05-01T12:32:11Z</time></trkpt><trkpt lat="44.222764778736284" lon="9.719130284617254"><ele>103.5</ele><time>2026-05-01T12:32:12Z</time></trkpt><trkpt lat="44.222820020350056" lon="9.719287376951188"><ele>103.0</ele><time>2026-05-01T12:32:13Z</time></trkpt><trkpt lat="44.22284495611006" lon="9.719459452745268"><ele>102.75</ele><time>2026-05-01T12:32:14Z</time></trkpt><trkpt lat="44.22280437184273" lon="9.719631017864117"><ele>102.5</ele><time>2026-05-01T12:32:15Z</time></trkpt><trkpt lat="44.22276748515438" lon="9.719809573261038"><ele>102.25</ele><time>2026-05-01T12:32:16Z</time></trkpt><trkpt lat="44.22272968313948" lon="9.719991636212088"><ele>102.0</ele><time>2026-05-01T12:32:17Z</time></trkpt><trkpt lat="44.22269430462869" lon="9.720162661821844"><ele>102.75</ele><time>2026-05-01T12:32:18Z</time></trkpt><trkpt lat="44.222683065831156" lon="9.72033534330074"><ele>103.5</ele><time>2026-05-01T12:32:19Z</time></trkpt><trkpt lat="44.222659703648965" lon="9.720508349115116"><ele>104.25</ele><time>2026-05-01T12:32:20Z</time></trkpt><trkpt lat="44.222642971432734" lon="9.720692637892633"><ele>105.0</ele><time>2026-05-01T12:32:21Z</time></trkpt><trkpt lat="44.22264265561215" lon="9.720895086931543"><ele>106.0</ele><time>2026-05-01T12:32:22Z</time></trkpt><trkpt lat="44.22266591843319" lon="9.721121185303096"><ele>107.0</ele><time>2026-05-01T12:32:23Z</time></trkpt><trkpt lat="44.22270711087688" lon="9.721361813034845"><ele>108.0</ele><time>2026-05-01T12:32:24Z</time></trkpt><trkpt lat="44.22275212678387" lon="9.721613512774617"><ele>108.0</ele><time>2026-05-01T12:32:25Z</time></trkpt><trkpt lat="44.22278935018998" lon="9.721858344050588"><ele>108.0</ele><time>2026-05-01T12:32:26Z</time></trkpt><trkpt lat="44.22283166540921" lon="9.722102393163848"><ele>108.0</ele><time>2026-05-01T12:32:27Z</time></trkpt><trkpt lat="44.22287305253811" lon="9.722346461782715"><ele>108.33333333333334</ele><time>2026-05-01T12:32:28Z</time></trkpt><trkpt lat="44.22291166813644" lon="9.72259085267409"><ele>108.66666666666667</ele><time>2026-05-01T12:32:29Z</time></trkpt><trkpt lat="44.2229475878114" lon="9.722815507867251"><ele>109.0</ele><time>2026-05-01T12:32:30Z</time></trkpt><trkpt lat="44.222984643128505" lon="9.723031189423772"><ele>109.0</ele><time>2026-05-01T12:32:31.001Z</time></trkpt><trkpt lat="44.2230205228534" lon="9.723254071924707"><ele>109.0</ele><time>2026-05-01T12:32:32.001Z</time></trkpt><trkpt lat="44.22304600487929" lon="9.72347743415662"><ele>109.0</ele><time>2026-05-01T12:32:33.001Z</time></trkpt><trkpt lat="44.22305245238251" lon="9.72370127806923"><ele>109.0</ele><time>2026-05-01T12:32:34.001Z</time></trkpt><trkpt lat="44.22304412477354" lon="9.723922942018945"><ele>109.0</ele><time>2026-05-01T12:32:35.001Z</time></trkpt><trkpt lat="44.223030805981445" lon="9.724129595944968"><ele>109.0</ele><time>2026-05-01T12:32:36.001Z</time></trkpt><trkpt lat="44.22301917671763" lon="9.724324100248033"><ele>109.0</ele><time>2026-05-01T12:32:37.001Z</time></trkpt><trkpt lat="44.223002409934445" lon="9.724506628918213"><ele>108.5</ele><time>2026-05-01T12:32:38.001Z</time></trkpt><trkpt lat="44.22295626196235" lon="9.724686019311305"><ele>108.0</ele><time>2026-05-01T12:32:39.001Z</time></trkpt><trkpt lat="44.222860522327245" lon="9.724831852415708"><ele>107.5</ele><time>2026-05-01T12:32:40.001Z</time></trkpt><trkpt lat="44.22276658004795" lon="9.724984240642698"><ele>107.0</ele><time>2026-05-01T12:32:41.001Z</time></trkpt><trkpt lat="44.22267081209399" lon="9.725146149530504"><ele>105.33333333333333</ele><time>2026-05-01T12:32:42.001Z</time></trkpt><trkpt lat="44.22257851386971" lon="9.72532688067733"><ele>103.66666666666666</ele><time>2026-05-01T12:32:43.001Z</time></trkpt><trkpt lat="44.222474823359434" lon="9.725510430703308"><ele>102.0</ele><time>2026-05-01T12:32:44.001Z</time></trkpt><trkpt lat="44.22236688485324" lon="9.725692026309838"><ele>103.0</ele><time>2026-05-01T12:32:45.001Z</time></trkpt><trkpt lat="44.222258445486446" lon="9.725872597747976"><ele>104.0</ele><time>2026-05-01T12:32:46.001Z</time></trkpt><trkpt lat="44.222137556089024" lon="9.726041660667896"><ele>105.0</ele><time>2026-05-01T12:32:47.001Z</time></trkpt><trkpt lat="44.22203353651203" lon="9.726215221604726"><ele>105.0</ele><time>2026-05-01T12:32:48.001Z</time></trkpt><trkpt lat="44.221944443163515" lon="9.726397592915635"><ele>105.0</ele><time>2026-05-01T12:32:49.001Z</time></trkpt><trkpt lat="44.22183844462298" lon="9.726557597283144"><ele>105.0</ele><time>2026-05-01T12:32:50.001Z</time></trkpt><trkpt lat="44.221746784328055" lon="9.726718312858496"><ele>105.0</ele><time>2026-05-01T12:32:51.001Z</time></trkpt><trkpt lat="44.221653040845496" lon="9.726865939015477"><ele>105.0</ele><time>2026-05-01T12:32:52.001Z</time></trkpt><trkpt lat="44.221563284334756" lon="9.727019699476767"><ele>105.0</ele><time>2026-05-01T12:32:53.001Z</time></trkpt><trkpt lat="44.221468200949765" lon="9.72717782210773"><ele>105.0</ele><time>2026-05-01T12:32:54.001Z</time></trkpt><trkpt lat="44.2213668103305" lon="9.72735041480292"><ele>105.33333333333334</ele><time>2026-05-01T12:32:55.001Z</time></trkpt><trkpt lat="44.22125960579909" lon="9.727528507307724"><ele>105.66666666666667</ele><time>2026-05-01T12:32:56.001Z</time></trkpt><trkpt lat="44.221149780284534" lon="9.727714346138917"><ele>106.0</ele><time>2026-05-01T12:32:57.001Z</time></trkpt><trkpt lat="44.22103451368749" lon="9.727906547142952"><ele>106.0</ele><time>2026-05-01T12:32:58.001Z</time></trkpt><trkpt lat="44.22091657669169" lon="9.728107708545172"><ele>106.0</ele><time>2026-05-01T12:32:59.001Z</time></trkpt><trkpt lat="44.22079719127332" lon="9.728318460964177"><ele>106.0</ele><time>2026-05-01T12:33:00.001Z</time></trkpt><trkpt lat="44.220670637082904" lon="9.728532697924301"><ele>107.66666666666667</ele><time>2026-05-01T12:33:01.001Z</time></trkpt><trkpt lat="44.220540085301906" lon="9.728751086503886"><ele>109.33333333333334</ele><time>2026-05-01T12:33:02.001Z</time></trkpt><trkpt lat="44.220393139256466" lon="9.72896546228617"><ele>111.0</ele><time>2026-05-01T12:33:03.001Z</time></trkpt><trkpt lat="44.22025862349761" lon="9.729224466873218"><ele>107.5</ele><time>2026-05-01T12:33:04.001Z</time></trkpt><trkpt lat="44.220104666823865" lon="9.729485229635241"><ele>104.0</ele><time>2026-05-01T12:33:05.001Z</time></trkpt><trkpt lat="44.21994677789281" lon="9.729744432911763"><ele>110.66666666666666</ele><time>2026-05-01T12:33:06.001Z</time></trkpt><trkpt lat="44.21980817345083" lon="9.729970391185086"><ele>117.33333333333334</ele><time>2026-05-01T12:33:07.001Z</time></trkpt><trkpt lat="44.21968707633319" lon="9.730168957083096"><ele>124.0</ele><time>2026-05-01T12:33:08.001Z</time></trkpt><trkpt lat="44.2195932408369" lon="9.730362781448152"><ele>124.0</ele><time>2026-05-01T12:33:09.001Z</time></trkpt><trkpt lat="44.21953656968873" lon="9.730584204928448"><ele>124.0</ele><time>2026-05-01T12:33:10.001Z</time></trkpt><trkpt lat="44.21951394279541" lon="9.730865905917213"><ele>124.0</ele><time>2026-05-01T12:33:11.001Z</time></trkpt><trkpt lat="44.21951017185612" lon="9.731177716866751"><ele>125.5</ele><time>2026-05-01T12:33:12.002Z</time></trkpt><trkpt lat="44.21951648517964" lon="9.731491717996045"><ele>127.0</ele><time>2026-05-01T12:33:13.002Z</time></trkpt><trkpt lat="44.21956043442955" lon="9.731802138672304"><ele>128.0</ele><time>2026-05-01T12:33:14.002Z</time></trkpt><trkpt lat="44.219610022889356" lon="9.732123999018343"><ele>129.0</ele><time>2026-05-01T12:33:15.002Z</time></trkpt><trkpt lat="44.21966109664582" lon="9.73240709450514"><ele>130.0</ele><time>2026-05-01T12:33:16.002Z</time></trkpt><trkpt lat="44.21970306822269" lon="9.732637405072788"><ele>132.66666666666669</ele><time>2026-05-01T12:33:17.002Z</time></trkpt><trkpt lat="44.21975585171886" lon="9.732840689833358"><ele>135.33333333333334</ele><time>2026-05-01T12:33:18.002Z</time></trkpt><trkpt lat="44.219792695854" lon="9.733036550828539"><ele>138.0</ele><time>2026-05-01T12:33:19.002Z</time></trkpt><trkpt lat="44.21983355179563" lon="9.733239403417945"><ele>131.66666666666666</ele><time>2026-05-01T12:33:20.002Z</time></trkpt><trkpt lat="44.219897063217815" lon="9.733441028164354"><ele>125.33333333333333</ele><time>2026-05-01T12:33:21.002Z</time></trkpt><trkpt lat="44.22001342292751" lon="9.733647335102669"><ele>119.0</ele><time>2026-05-01T12:33:22.002Z</time></trkpt><trkpt lat="44.22015228307005" lon="9.733882791604117"><ele>119.0</ele><time>2026-05-01T12:33:23.002Z</time></trkpt><trkpt lat="44.22030725130433" lon="9.734141220499184"><ele>119.0</ele><time>2026-05-01T12:33:24.002Z</time></trkpt><trkpt lat="44.22045239830186" lon="9.734383601277884"><ele>124.66666666666666</ele><time>2026-05-01T12:33:25.002Z</time></trkpt><trkpt lat="44.22057854468546" lon="9.734598937134248"><ele>130.33333333333334</ele><time>2026-05-01T12:33:26.002Z</time></trkpt><trkpt lat="44.22068378267009" lon="9.734819035919204"><ele>136.0</ele><time>2026-05-01T12:33:27.002Z</time></trkpt><trkpt lat="44.22077477947584" lon="9.735048857639137"><ele>127.0</ele><time>2026-05-01T12:33:28.002Z</time></trkpt><trkpt lat="44.22084958809692" lon="9.735291855611209"><ele>118.0</ele><time>2026-05-01T12:33:29.002Z</time></trkpt><trkpt lat="44.220900378323975" lon="9.735540128582295"><ele>109.0</ele><time>2026-05-01T12:33:30.002Z</time></trkpt><trkpt lat="44.22092973058029" lon="9.735790443926861"><ele>109.0</ele><time>2026-05-01T12:33:31.002Z</time></trkpt><trkpt lat="44.220946939079425" lon="9.736005842711405"><ele>109.0</ele><time>2026-05-01T12:33:32.002Z</time></trkpt><trkpt lat="44.2209177736586" lon="9.736196915121113"><ele>109.0</ele><time>2026-05-01T12:33:33.002Z</time></trkpt><trkpt lat="44.22086362112688" lon="9.736397223171984"><ele>109.0</ele><time>2026-05-01T12:33:34.002Z</time></trkpt><trkpt lat="44.2208175504443" lon="9.736598207437533"><ele>108.66666666666667</ele><time>2026-05-01T12:33:35.002Z</time></trkpt><trkpt lat="44.220805087117014" lon="9.736819486261957"><ele>108.33333333333334</ele><time>2026-05-01T12:33:36.002Z</time></trkpt><trkpt lat="44.220814463176204" lon="9.737024717310373"><ele>108.0</ele><time>2026-05-01T12:33:37.002Z</time></trkpt><trkpt lat="44.22083010852461" lon="9.737232107661955"><ele>108.0</ele><time>2026-05-01T12:33:38.002Z</time></trkpt><trkpt lat="44.220831988687884" lon="9.737446175745896"><ele>108.0</ele><time>2026-05-01T12:33:39.002Z</time></trkpt><trkpt lat="44.22084358501009" lon="9.737667709962253"><ele>108.0</ele><time>2026-05-01T12:33:40.002Z</time></trkpt><trkpt lat="44.22085580269446" lon="9.737916554523913"><ele>108.66666666666666</ele><time>2026-05-01T12:33:41.002Z</time></trkpt><trkpt lat="44.22086910846892" lon="9.738187300955984"><ele>109.33333333333333</ele><time>2026-05-01T12:33:42.002Z</time></trkpt><trkpt lat="44.220883022046806" lon="9.738470413450086"><ele>110.0</ele><time>2026-05-01T12:33:43.002Z</time></trkpt><trkpt lat="44.2208968113822" lon="9.73875099866963"><ele>110.33333333333333</ele><time>2026-05-01T12:33:44.002Z</time></trkpt><trkpt lat="44.22091124362276" lon="9.739054432951338"><ele>110.66666666666666</ele><time>2026-05-01T12:33:45.002Z</time></trkpt><trkpt lat="44.22092587622941" lon="9.739361307907712"><ele>111.0</ele><time>2026-05-01T12:33:46.002Z</time></trkpt><trkpt lat="44.220947711957436" lon="9.739644232630697"><ele>112.0</ele><time>2026-05-01T12:33:47.002Z</time></trkpt><trkpt lat="44.22099349198684" lon="9.739927705435774"><ele>113.0</ele><time>2026-05-01T12:33:48.002Z</time></trkpt><trkpt lat="44.221048354611234" lon="9.74021363231915"><ele>114.0</ele><time>2026-05-01T12:33:49.002Z</time></trkpt><trkpt lat="44.221128927297855" lon="9.740497215270159"><ele>118.5</ele><time>2026-05-01T12:33:50.003Z</time></trkpt><trkpt lat="44.221241280777384" lon="9.740777003549267"><ele>123.0</ele><time>2026-05-01T12:33:51.003Z</time></trkpt><trkpt lat="44.22135226903821" lon="9.7410575268758"><ele>127.0</ele><time>2026-05-01T12:33:52.003Z</time></trkpt><trkpt lat="44.22140093503099" lon="9.741386141101"><ele>131.0</ele><time>2026-05-01T12:33:53.003Z</time></trkpt><trkpt lat="44.22146586364966" lon="9.741741914989037"><ele>116.0</ele><time>2026-05-01T12:33:54.003Z</time></trkpt><trkpt lat="44.22153805815757" lon="9.742084924874714"><ele>101.0</ele><time>2026-05-01T12:33:55.003Z</time></trkpt><trkpt lat="44.221601284625066" lon="9.742422604909159"><ele>105.5</ele><time>2026-05-01T12:33:56.003Z</time></trkpt><trkpt lat="44.22166156811249" lon="9.742739118203462"><ele>110.0</ele><time>2026-05-01T12:33:57.003Z</time></trkpt><trkpt lat="44.22173015427904" lon="9.743050988121533"><ele>110.0</ele><time>2026-05-01T12:33:58.003Z</time></trkpt><trkpt lat="44.22179328660915" lon="9.743359856283881"><ele>110.0</ele><time>2026-05-01T12:33:59.003Z</time></trkpt><trkpt lat="44.22185719085585" lon="9.743662523953105"><ele>116.66666666666666</ele><time>2026-05-01T12:34:00.003Z</time></trkpt><trkpt lat="44.22191703515345" lon="9.743955365837051"><ele>123.33333333333334</ele><time>2026-05-01T12:34:01.003Z</time></trkpt><trkpt lat="44.22197463951541" lon="9.74423466781524"><ele>130.0</ele><time>2026-05-01T12:34:02.003Z</time></trkpt><trkpt lat="44.22203743596181" lon="9.74448220547523"><ele>135.33333333333334</ele><time>2026-05-01T12:34:03.003Z</time></trkpt><trkpt lat="44.22211930677246" lon="9.744694938110976"><ele>140.66666666666666</ele><time>2026-05-01T12:34:04Z</time></trkpt><trkpt lat="44.22222201314713" lon="9.744886907530315"><ele>146.0</ele><time>2026-05-01T12:34:05Z</time></trkpt><trkpt lat="44.22235630384138" lon="9.745045486443065"><ele>134.66666666666666</ele><time>2026-05-01T12:34:06Z</time></trkpt><trkpt lat="44.22250364924536" lon="9.745176988675935"><ele>123.33333333333334</ele><time>2026-05-01T12:34:07Z</time></trkpt><trkpt lat="44.22260144097901" lon="9.745338614339504"><ele>112.0</ele><time>2026-05-01T12:34:08Z</time></trkpt><trkpt lat="44.22267615760175" lon="9.745526092088822"><ele>112.0</ele><time>2026-05-01T12:34:09Z</time></trkpt><trkpt lat="44.222705567252795" lon="9.745750032902242"><ele>112.0</ele><time>2026-05-01T12:34:10Z</time></trkpt><trkpt lat="44.22269435599156" lon="9.745984848237494"><ele>112.0</ele><time>2026-05-01T12:34:11Z</time></trkpt><trkpt lat="44.22265064468884" lon="9.746257045970342"><ele>112.33333333333334</ele><time>2026-05-01T12:34:12Z</time></trkpt><trkpt lat="44.22260640648646" lon="9.746552586901393"><ele>112.66666666666666</ele><time>2026-05-01T12:34:13Z</time></trkpt><trkpt lat="44.22257149820385" lon="9.746845168579501"><ele>113.0</ele><time>2026-05-01T12:34:14Z</time></trkpt><trkpt lat="44.222533231858975" lon="9.747100196150326"><ele>113.33333333333333</ele><time>2026-05-01T12:34:15Z</time></trkpt><trkpt lat="44.22250028942433" lon="9.747343971391661"><ele>113.66666666666666</ele><time>2026-05-01T12:34:16Z</time></trkpt><trkpt lat="44.22248083766458" lon="9.74759661553591"><ele>114.0</ele><time>2026-05-01T12:34:17Z</time></trkpt><trkpt lat="44.222510384309544" lon="9.747863680535172"><ele>114.0</ele><time>2026-05-01T12:34:18Z</time></trkpt><trkpt lat="44.222570244268695" lon="9.748141702100616"><ele>114.0</ele><time>2026-05-01T12:34:19Z</time></trkpt><trkpt lat="44.222654691909746" lon="9.748427131246558"><ele>114.0</ele><time>2026-05-01T12:34:20Z</time></trkpt><trkpt lat="44.22275092273528" lon="9.748725251822787"><ele>119.33333333333334</ele><time>2026-05-01T12:34:21Z</time></trkpt><trkpt lat="44.2228325479443" lon="9.749018210921962"><ele>124.66666666666667</ele><time>2026-05-01T12:34:22Z</time></trkpt><trkpt lat="44.22290684986785" lon="9.749282450868384"><ele>130.0</ele><time>2026-05-01T12:34:23Z</time></trkpt><trkpt lat="44.22298605835311" lon="9.749515981236646"><ele>137.0</ele><time>2026-05-01T12:34:24Z</time></trkpt><trkpt lat="44.22309298840897" lon="9.749721870145242"><ele>144.0</ele><time>2026-05-01T12:34:25Z</time></trkpt><trkpt lat="44.2232150714859" lon="9.749914577005544"><ele>151.0</ele><time>2026-05-01T12:34:26Z</time></trkpt><trkpt lat="44.22333284363627" lon="9.750098654795512"><ele>139.33333333333334</ele><time>2026-05-01T12:34:27Z</time></trkpt><trkpt lat="44.223444176319546" lon="9.750288656268538"><ele>127.66666666666666</ele><time>2026-05-01T12:34:28Z</time></trkpt><trkpt lat="44.22355134328701" lon="9.750479334465991"><ele>116.0</ele><time>2026-05-01T12:34:29Z</time></trkpt><trkpt lat="44.223644657912544" lon="9.75065184576297"><ele>116.0</ele><time>2026-05-01T12:34:30Z</time></trkpt><trkpt lat="44.22368550646725" lon="9.75083496974274"><ele>116.0</ele><time>2026-05-01T12:34:31Z</time></trkpt><trkpt lat="44.223693092676335" lon="9.7510237620293"><ele>116.0</ele><time>2026-05-01T12:34:32Z</time></trkpt><trkpt lat="44.22366396706388" lon="9.751226801222723"><ele>116.0</ele><time>2026-05-01T12:34:33Z</time></trkpt><trkpt lat="44.22360622843467" lon="9.751426397937895"><ele>112.33333333333333</ele><time>2026-05-01T12:34:34Z</time></trkpt><trkpt lat="44.223487754709204" lon="9.751589002979472"><ele>108.66666666666666</ele><time>2026-05-01T12:34:35Z</time></trkpt><trkpt lat="44.22334791898515" lon="9.75178329495566"><ele>105.0</ele><time>2026-05-01T12:34:36Z</time></trkpt><trkpt lat="44.22319895142405" lon="9.752004211226282"><ele>115.5</ele><time>2026-05-01T12:34:37.001Z</time></trkpt><trkpt lat="44.22306697395343" lon="9.752252954399381"><ele>126.0</ele><time>2026-05-01T12:34:38.001Z</time></trkpt><trkpt lat="44.22291700517736" lon="9.752506465661602"><ele>119.0</ele><time>2026-05-01T12:34:39.001Z</time></trkpt><trkpt lat="44.22276480583049" lon="9.752728488473098"><ele>112.0</ele><time>2026-05-01T12:34:40.001Z</time></trkpt><trkpt lat="44.222632709254476" lon="9.75295068366076"><ele>105.0</ele><time>2026-05-01T12:34:41.001Z</time></trkpt><trkpt lat="44.22250346108869" lon="9.753166486241188"><ele>105.0</ele><time>2026-05-01T12:34:42.001Z</time></trkpt><trkpt lat="44.22238242364544" lon="9.753372581519715"><ele>105.0</ele><time>2026-05-01T12:34:43.001Z</time></trkpt><trkpt lat="44.22226924886288" lon="9.753560309163598"><ele>105.0</ele><time>2026-05-01T12:34:44.001Z</time></trkpt><trkpt lat="44.222162639273485" lon="9.753725433038536"><ele>100.0</ele><time>2026-05-01T12:34:45.001Z</time></trkpt><trkpt lat="44.22204046086845" lon="9.753832954207644"><ele>95.0</ele><time>2026-05-01T12:34:46.001Z</time></trkpt><trkpt lat="44.22190368067089" lon="9.75392432372114"><ele>90.0</ele><time>2026-05-01T12:34:47.001Z</time></trkpt><trkpt lat="44.22175248295541" lon="9.753988001977387"><ele>90.0</ele><time>2026-05-01T12:34:48.001Z</time></trkpt><trkpt lat="44.22159232018909" lon="9.754036098078455"><ele>90.0</ele><time>2026-05-01T12:34:49.001Z</time></trkpt><trkpt lat="44.221434522017475" lon="9.754101751619803"><ele>90.0</ele><time>2026-05-01T12:34:50.001Z</time></trkpt><trkpt lat="44.22128550499053" lon="9.75411918839257"><ele>87.66666666666667</ele><time>2026-05-01T12:34:51.001Z</time></trkpt><trkpt lat="44.22116470354669" lon="9.754063809383236"><ele>85.33333333333334</ele><time>2026-05-01T12:34:52.001Z</time></trkpt><trkpt lat="44.221022422840115" lon="9.753968434631236"><ele>83.0</ele><time>2026-05-01T12:34:53.001Z</time></trkpt><trkpt lat="44.220873124409415" lon="9.753836695777833"><ele>83.0</ele><time>2026-05-01T12:34:54.001Z</time></trkpt><trkpt lat="44.2207196239346" lon="9.75368022595071"><ele>83.0</ele><time>2026-05-01T12:34:55.001Z</time></trkpt><trkpt lat="44.22056997239708" lon="9.753511691640346"><ele>83.0</ele><time>2026-05-01T12:34:56.001Z</time></trkpt><trkpt lat="44.220407638932315" lon="9.753329893444173"><ele>84.33333333333334</ele><time>2026-05-01T12:34:57.001Z</time></trkpt><trkpt lat="44.2202406706687" lon="9.75313937112012"><ele>85.66666666666667</ele><time>2026-05-01T12:34:58.001Z</time></trkpt><trkpt lat="44.22006683919369" lon="9.752952864363975"><ele>87.0</ele><time>2026-05-01T12:34:59.001Z</time></trkpt><trkpt lat="44.21989670832291" lon="9.752771807842722"><ele>88.33333333333333</ele><time>2026-05-01T12:35:00.001Z</time></trkpt><trkpt lat="44.21974862814794" lon="9.75260622113635"><ele>89.66666666666666</ele><time>2026-05-01T12:35:01.001Z</time></trkpt><trkpt lat="44.21962558393259" lon="9.752471846696073"><ele>91.0</ele><time>2026-05-01T12:35:02.001Z</time></trkpt><trkpt lat="44.219520594412494" lon="9.752385392861209"><ele>91.0</ele><time>2026-05-01T12:35:03.001Z</time></trkpt><trkpt lat="44.21940213335088" lon="9.7523551614967"><ele>91.0</ele><time>2026-05-01T12:35:04.001Z</time></trkpt><trkpt lat="44.21925886728739" lon="9.752387871577593"><ele>91.0</ele><time>2026-05-01T12:35:05.001Z</time></trkpt><trkpt lat="44.21908928776524" lon="9.75245186894916"><ele>91.0</ele><time>2026-05-01T12:35:06.001Z</time></trkpt><trkpt lat="44.21889870880564" lon="9.75252086314894"><ele>92.0</ele><time>2026-05-01T12:35:07.001Z</time></trkpt><trkpt lat="44.21869795426978" lon="9.752553314245274"><ele>93.0</ele><time>2026-05-01T12:35:08.001Z</time></trkpt><trkpt lat="44.218530128257626" lon="9.752610561063783"><ele>94.0</ele><time>2026-05-01T12:35:09.001Z</time></trkpt><trkpt lat="44.21837485958196" lon="9.752551938178435"><ele>94.0</ele><time>2026-05-01T12:35:10.001Z</time></trkpt><trkpt lat="44.21820009201579" lon="9.752479063089341"><ele>94.0</ele><time>2026-05-01T12:35:11.001Z</time></trkpt><trkpt lat="44.21800375046896" lon="9.752416589859038"><ele>94.0</ele><time>2026-05-01T12:35:12.001Z</time></trkpt><trkpt lat="44.21780779862956" lon="9.752326271289153"><ele>93.0</ele><time>2026-05-01T12:35:13.001Z</time></trkpt><trkpt lat="44.217606065777446" lon="9.752241382382426"><ele>92.0</ele><time>2026-05-01T12:35:14.001Z</time></trkpt><trkpt lat="44.217389051601096" lon="9.752183807403515"><ele>91.0</ele><time>2026-05-01T12:35:15.001Z</time></trkpt><trkpt lat="44.21716840866465" lon="9.752166789542873"><ele>93.33333333333333</ele><time>2026-05-01T12:35:16.001Z</time></trkpt><trkpt lat="44.2169695958524" lon="9.752180369762435"><ele>95.66666666666666</ele><time>2026-05-01T12:35:17.002Z</time></trkpt><trkpt lat="44.21678746702457" lon="9.75218826981383"><ele>98.0</ele><time>2026-05-01T12:35:18.002Z</time></trkpt><trkpt lat="44.216621444866384" lon="9.752223550062801"><ele>103.0</ele><time>2026-05-01T12:35:19.002Z</time></trkpt><trkpt lat="44.216459933416274" lon="9.752340455768763"><ele>108.0</ele><time>2026-05-01T12:35:20.002Z</time></trkpt><trkpt lat="44.21627612375542" lon="9.752495846052664"><ele>113.0</ele><time>2026-05-01T12:35:21.002Z</time></trkpt><trkpt lat="44.216066940355525" lon="9.75260829612409"><ele>103.0</ele><time>2026-05-01T12:35:22.002Z</time></trkpt><trkpt lat="44.21588156363856" lon="9.752719940659714"><ele>93.0</ele><time>2026-05-01T12:35:23.002Z</time></trkpt><trkpt lat="44.215711964647525" lon="9.75278841896602"><ele>83.0</ele><time>2026-05-01T12:35:24.002Z</time></trkpt><trkpt lat="44.21553616492024" lon="9.75278033794829"><ele>83.0</ele><time>2026-05-01T12:35:25.002Z</time></trkpt><trkpt lat="44.215336828656504" lon="9.752751468435665"><ele>83.0</ele><time>2026-05-01T12:35:26.002Z</time></trkpt><trkpt lat="44.21514065156444" lon="9.752750864879756"><ele>83.0</ele><time>2026-05-01T12:35:27.002Z</time></trkpt><trkpt lat="44.214950694885104" lon="9.7528036279297"><ele>90.5</ele><time>2026-05-01T12:35:28.002Z</time></trkpt><trkpt lat="44.214737756927136" lon="9.752927451877575"><ele>98.0</ele><time>2026-05-01T12:35:29.002Z</time></trkpt><trkpt lat="44.21451629498891" lon="9.753047902855839"><ele>98.0</ele><time>2026-05-01T12:35:30.002Z</time></trkpt><trkpt lat="44.214284891133964" lon="9.753163349365156"><ele>98.0</ele><time>2026-05-01T12:35:31.002Z</time></trkpt><trkpt lat="44.21405670875709" lon="9.753282156662436"><ele>103.0</ele><time>2026-05-01T12:35:32.002Z</time></trkpt><trkpt lat="44.213829517943495" lon="9.753394266929815"><ele>108.0</ele><time>2026-05-01T12:35:33.002Z</time></trkpt><trkpt lat="44.21362421205287" lon="9.7534962642495"><ele>100.33333333333333</ele><time>2026-05-01T12:35:34.002Z</time></trkpt><trkpt lat="44.21345579705937" lon="9.753579008282484"><ele>92.66666666666666</ele><time>2026-05-01T12:35:35.002Z</time></trkpt><trkpt lat="44.21331995305136" lon="9.7536470921904"><ele>85.0</ele><time>2026-05-01T12:35:36.002Z</time></trkpt><trkpt lat="44.21319824368054" lon="9.753739059261846"><ele>96.33333333333333</ele><time>2026-05-01T12:35:37.002Z</time></trkpt><trkpt lat="44.21309130099229" lon="9.75388681095296"><ele>107.66666666666666</ele><time>2026-05-01T12:35:38.002Z</time></trkpt><trkpt lat="44.21301618713806" lon="9.75409746184243"><ele>119.0</ele><time>2026-05-01T12:35:39.002Z</time></trkpt><trkpt lat="44.21296667029373" lon="9.754326959797202"><ele>126.33333333333333</ele><time>2026-05-01T12:35:40.002Z</time></trkpt><trkpt lat="44.212946562446135" lon="9.754597001447864"><ele>133.66666666666666</ele><time>2026-05-01T12:35:41.002Z</time></trkpt><trkpt lat="44.21295074647351" lon="9.754892956303896"><ele>141.0</ele><time>2026-05-01T12:35:42.002Z</time></trkpt><trkpt lat="44.21295244985686" lon="9.755212920930358"><ele>145.0</ele><time>2026-05-01T12:35:43.002Z</time></trkpt><trkpt lat="44.21292006469293" lon="9.755535057300529"><ele>149.0</ele><time>2026-05-01T12:35:44.002Z</time></trkpt><trkpt lat="44.21293206028861" lon="9.755858863982338"><ele>154.5</ele><time>2026-05-01T12:35:45.002Z</time></trkpt><trkpt lat="44.2129563397527" lon="9.756204953984039"><ele>160.0</ele><time>2026-05-01T12:35:46.002Z</time></trkpt><trkpt lat="44.213010592894946" lon="9.75654773000669"><ele>166.5</ele><time>2026-05-01T12:35:47.002Z</time></trkpt><trkpt lat="44.213082634583515" lon="9.756877963843081"><ele>173.0</ele><time>2026-05-01T12:35:48.002Z</time></trkpt><trkpt lat="44.213172133035606" lon="9.757165760060413"><ele>148.0</ele><time>2026-05-01T12:35:49.002Z</time></trkpt><trkpt lat="44.21323482629911" lon="9.757418092676968"><ele>123.0</ele><time>2026-05-01T12:35:50.002Z</time></trkpt><trkpt lat="44.213287961024655" lon="9.757649962689769"><ele>98.0</ele><time>2026-05-01T12:35:51.002Z</time></trkpt><trkpt lat="44.21329204827758" lon="9.757871650135552"><ele>98.0</ele><time>2026-05-01T12:35:52.002Z</time></trkpt><trkpt lat="44.21327767707382" lon="9.758125732652635"><ele>98.0</ele><time>2026-05-01T12:35:53.002Z</time></trkpt><trkpt lat="44.21326087929614" lon="9.75840977863864"><ele>98.0</ele><time>2026-05-01T12:35:54.002Z</time></trkpt><trkpt lat="44.21324414083496" lon="9.758709024964055"><ele>97.33333333333333</ele><time>2026-05-01T12:35:55.002Z</time></trkpt><trkpt lat="44.21323018527259" lon="9.758995114214835"><ele>96.66666666666666</ele><time>2026-05-01T12:35:56.002Z</time></trkpt><trkpt lat="44.213216143313055" lon="9.759277448034464"><ele>96.0</ele><time>2026-05-01T12:35:57.003Z</time></trkpt><trkpt lat="44.21320087745122" lon="9.759568283486661"><ele>95.33333333333333</ele><time>2026-05-01T12:35:58.003Z</time></trkpt><trkpt lat="44.2131838989294" lon="9.759860196312355"><ele>94.66666666666666</ele><time>2026-05-01T12:35:59.003Z</time></trkpt><trkpt lat="44.213160765854724" lon="9.760148176085789"><ele>94.0</ele><time>2026-05-01T12:36:00.003Z</time></trkpt><trkpt lat="44.21311194482688" lon="9.760423414507729"><ele>99.0</ele><time>2026-05-01T12:36:01.003Z</time></trkpt><trkpt lat="44.213038470939175" lon="9.760689951436012"><ele>104.0</ele><time>2026-05-01T12:36:02.003Z</time></trkpt><trkpt lat="44.21295152026633" lon="9.760946318865566"><ele>109.0</ele><time>2026-05-01T12:36:03.003Z</time></trkpt><trkpt lat="44.212864370528514" lon="9.761200533272541"><ele>109.0</ele><time>2026-05-01T12:36:04.003Z</time></trkpt><trkpt lat="44.212776876493486" lon="9.761456016937338"><ele>109.0</ele><time>2026-05-01T12:36:05.003Z</time></trkpt><trkpt lat="44.21269038353594" lon="9.761705851693527"><ele>109.0</ele><time>2026-05-01T12:36:06.003Z</time></trkpt><trkpt lat="44.21259750266167" lon="9.76191915636059"><ele>110.33333333333334</ele><time>2026-05-01T12:36:07.003Z</time></trkpt><trkpt lat="44.21247557657303" lon="9.762094930966574"><ele>111.66666666666666</ele><time>2026-05-01T12:36:08.003Z</time></trkpt><trkpt lat="44.2123207410827" lon="9.762250729809516"><ele>113.0</ele><time>2026-05-01T12:36:09.003Z</time></trkpt><trkpt lat="44.21216510455487" lon="9.76241574810721"><ele>113.0</ele><time>2026-05-01T12:36:10Z</time></trkpt><trkpt lat="44.212017645501284" lon="9.762619804225395"><ele>113.0</ele><time>2026-05-01T12:36:11Z</time></trkpt><trkpt lat="44.211886662678914" lon="9.762839752314907"><ele>113.0</ele><time>2026-05-01T12:36:12Z</time></trkpt><trkpt lat="44.21177755101989" lon="9.763108853382484"><ele>106.33333333333333</ele><time>2026-05-01T12:36:13Z</time></trkpt><trkpt lat="44.21165644634034" lon="9.763361133324675"><ele>99.66666666666666</ele><time>2026-05-01T12:36:14Z</time></trkpt><trkpt lat="44.21155285766938" lon="9.763599769636933"><ele>93.0</ele><time>2026-05-01T12:36:15Z</time></trkpt><trkpt lat="44.211470110075716" lon="9.763788267493068"><ele>91.0</ele><time>2026-05-01T12:36:16Z</time></trkpt><trkpt lat="44.21140107872712" lon="9.763934599430902"><ele>89.0</ele><time>2026-05-01T12:36:17Z</time></trkpt><trkpt lat="44.21132942004224" lon="9.764034154911975"><ele>87.0</ele><time>2026-05-01T12:36:18Z</time></trkpt><trkpt lat="44.21122902193121" lon="9.764088288891013"><ele>85.0</ele><time>2026-05-01T12:36:19Z</time></trkpt><trkpt lat="44.21111266576037" lon="9.764116684751631"><ele>85.0</ele><time>2026-05-01T12:36:20Z</time></trkpt><trkpt lat="44.21097178665529" lon="9.764025898521837"><ele>85.0</ele><time>2026-05-01T12:36:21Z</time></trkpt><trkpt lat="44.21079560497033" lon="9.763941627020767"><ele>85.0</ele><time>2026-05-01T12:36:22Z</time></trkpt><trkpt lat="44.21060036813181" lon="9.763859954047396"><ele>82.66666666666666</ele><time>2026-05-01T12:36:23Z</time></trkpt><trkpt lat="44.21041034706207" lon="9.76376741100148"><ele>80.33333333333333</ele><time>2026-05-01T12:36:24Z</time></trkpt><trkpt lat="44.210204719564544" lon="9.76367363572105"><ele>78.0</ele><time>2026-05-01T12:36:25Z</time></trkpt><trkpt lat="44.20999171023594" lon="9.763577269564642"><ele>84.66666666666666</ele><time>2026-05-01T12:36:26Z</time></trkpt><trkpt lat="44.209779924814356" lon="9.763474778473329"><ele>91.33333333333333</ele><time>2026-05-01T12:36:27Z</time></trkpt><trkpt lat="44.209575660765154" lon="9.763384174614258"><ele>98.0</ele><time>2026-05-01T12:36:28Z</time></trkpt><trkpt lat="44.20935891536274" lon="9.763337234215086"><ele>98.0</ele><time>2026-05-01T12:36:29Z</time></trkpt><trkpt lat="44.20910675043253" lon="9.763355413674157"><ele>98.0</ele><time>2026-05-01T12:36:30Z</time></trkpt><trkpt lat="44.208849576549035" lon="9.763389891798719"><ele>96.5</ele><time>2026-05-01T12:36:31Z</time></trkpt><trkpt lat="44.208598829238326" lon="9.763418087998426"><ele>95.0</ele><time>2026-05-01T12:36:32Z</time></trkpt><trkpt lat="44.2083616274315" lon="9.763429350933981"><ele>91.33333333333334</ele><time>2026-05-01T12:36:33Z</time></trkpt><trkpt lat="44.20814600793662" lon="9.763441889802614"><ele>87.66666666666667</ele><time>2026-05-01T12:36:34Z</time></trkpt><trkpt lat="44.2079520099237" lon="9.76344494089557"><ele>84.0</ele><time>2026-05-01T12:36:35Z</time></trkpt><trkpt lat="44.207773148738575" lon="9.763367254094097"><ele>84.0</ele><time>2026-05-01T12:36:36Z</time></trkpt><trkpt lat="44.20756976299118" lon="9.763284335095571"><ele>84.0</ele><time>2026-05-01T12:36:37.001Z</time></trkpt><trkpt lat="44.207353600354715" lon="9.763212019802594"><ele>84.0</ele><time>2026-05-01T12:36:38.001Z</time></trkpt><trkpt lat="44.20713946897878" lon="9.763109619621769"><ele>79.0</ele><time>2026-05-01T12:36:39.001Z</time></trkpt><trkpt lat="44.20692503330196" lon="9.763017944162184"><ele>74.0</ele><time>2026-05-01T12:36:40.001Z</time></trkpt><trkpt lat="44.206697282377654" lon="9.762929377927074"><ele>71.5</ele><time>2026-05-01T12:36:41.001Z</time></trkpt><trkpt lat="44.2064531531229" lon="9.76281420315904"><ele>69.0</ele><time>2026-05-01T12:36:42.001Z</time></trkpt><trkpt lat="44.206212252448886" lon="9.762715575243748"><ele>71.66666666666667</ele><time>2026-05-01T12:36:43.001Z</time></trkpt><trkpt lat="44.205994276610014" lon="9.76262592796231"><ele>74.33333333333334</ele><time>2026-05-01T12:36:44.001Z</time></trkpt><trkpt lat="44.20580050236484" lon="9.76256553080019"><ele>77.0</ele><time>2026-05-01T12:36:45.001Z</time></trkpt><trkpt lat="44.205633190711126" lon="9.76247334972485"><ele>77.0</ele><time>2026-05-01T12:36:46.001Z</time></trkpt><trkpt lat="44.20546580187137" lon="9.762424887166185"><ele>77.0</ele><time>2026-05-01T12:36:47.001Z</time></trkpt><trkpt lat="44.20530840701437" lon="9.762359246718104"><ele>77.0</ele><time>2026-05-01T12:36:48.001Z</time></trkpt><trkpt lat="44.20516363253113" lon="9.762256423038219"><ele>77.0</ele><time>2026-05-01T12:36:49.001Z</time></trkpt><trkpt lat="44.20501291850901" lon="9.762129335541276"><ele>77.0</ele><time>2026-05-01T12:36:50.001Z</time></trkpt><trkpt lat="44.204856296975535" lon="9.7619844896041"><ele>77.0</ele><time>2026-05-01T12:36:51.001Z</time></trkpt><trkpt lat="44.20471402497597" lon="9.761824995495674"><ele>80.66666666666667</ele><time>2026-05-01T12:36:52.001Z</time></trkpt><trkpt lat="44.20457108852388" lon="9.76172549333668"><ele>84.33333333333333</ele><time>2026-05-01T12:36:53.001Z</time></trkpt><trkpt lat="44.20441024494179" lon="9.761710227832932"><ele>88.0</ele><time>2026-05-01T12:36:54.001Z</time></trkpt><trkpt lat="44.20422295244317" lon="9.761770010604144"><ele>88.0</ele><time>2026-05-01T12:36:55.001Z</time></trkpt><trkpt lat="44.20400927194208" lon="9.761817977050057"><ele>88.0</ele><time>2026-05-01T12:36:56.001Z</time></trkpt><trkpt lat="44.20378225377674" lon="9.761865644996567"><ele>88.0</ele><time>2026-05-01T12:36:57.001Z</time></trkpt><trkpt lat="44.20353405589747" lon="9.761917662535716"><ele>82.0</ele><time>2026-05-01T12:36:58.001Z</time></trkpt><trkpt lat="44.20328153195466" lon="9.761969718817937"><ele>76.0</ele><time>2026-05-01T12:36:59.001Z</time></trkpt><trkpt lat="44.20305511265356" lon="9.762033202532468"><ele>76.0</ele><time>2026-05-01T12:37:00.001Z</time></trkpt><trkpt lat="44.20284965858587" lon="9.762067120793388"><ele>76.0</ele><time>2026-05-01T12:37:01.001Z</time></trkpt><trkpt lat="44.20262923562438" lon="9.762096689594882"><ele>76.0</ele><time>2026-05-01T12:37:02.001Z</time></trkpt><trkpt lat="44.20240728761102" lon="9.762141187897614"><ele>77.66666666666666</ele><time>2026-05-01T12:37:03.001Z</time></trkpt><trkpt lat="44.20219376425701" lon="9.762186237564276"><ele>79.33333333333333</ele><time>2026-05-01T12:37:04.001Z</time></trkpt><trkpt lat="44.20200017115406" lon="9.762237405590376"><ele>81.0</ele><time>2026-05-01T12:37:05.001Z</time></trkpt><trkpt lat="44.20183026753487" lon="9.762308316405804"><ele>81.0</ele><time>2026-05-01T12:37:06.001Z</time></trkpt><trkpt lat="44.20164295961972" lon="9.762343416358759"><ele>81.0</ele><time>2026-05-01T12:37:07.001Z</time></trkpt><trkpt lat="44.201468885993954" lon="9.76238880601102"><ele>81.0</ele><time>2026-05-01T12:37:08.001Z</time></trkpt><trkpt lat="44.2012866068092" lon="9.762441408158855"><ele>78.0</ele><time>2026-05-01T12:37:09.001Z</time></trkpt><trkpt lat="44.201132677291255" lon="9.762572589811596"><ele>75.0</ele><time>2026-05-01T12:37:10.001Z</time></trkpt><trkpt lat="44.20099441677428" lon="9.762655601358349"><ele>72.0</ele><time>2026-05-01T12:37:11.001Z</time></trkpt><trkpt lat="44.20086448519525" lon="9.762795810063427"><ele>72.0</ele><time>2026-05-01T12:37:12.001Z</time></trkpt><trkpt lat="44.20070961122235" lon="9.762953642309848"><ele>72.0</ele><time>2026-05-01T12:37:13.001Z</time></trkpt><trkpt lat="44.200565647113805" lon="9.763091399283534"><ele>72.0</ele><time>2026-05-01T12:37:14.001Z</time></trkpt><trkpt lat="44.20042764830962" lon="9.763209588242791"><ele>71.5</ele><time>2026-05-01T12:37:15.001Z</time></trkpt><trkpt lat="44.20029541604975" lon="9.763304282564862"><ele>71.0</ele><time>2026-05-01T12:37:16.001Z</time></trkpt><trkpt lat="44.20016866175283" lon="9.763416637365756"><ele>70.5</ele><time>2026-05-01T12:37:17.001Z</time></trkpt><trkpt lat="44.200042702962705" lon="9.763530007258245"><ele>70.0</ele><time>2026-05-01T12:37:18.001Z</time></trkpt><trkpt lat="44.19991720838149" lon="9.763646841960176"><ele>78.0</ele><time>2026-05-01T12:37:19.001Z</time></trkpt><trkpt lat="44.1997923728754" lon="9.763771091616546"><ele>86.0</ele><time>2026-05-01T12:37:20.002Z</time></trkpt><trkpt lat="44.199672930686575" lon="9.76390267591226"><ele>94.0</ele><time>2026-05-01T12:37:21.002Z</time></trkpt><trkpt lat="44.199552083696254" lon="9.76404690623736"><ele>94.0</ele><time>2026-05-01T12:37:22.002Z</time></trkpt><trkpt lat="44.19943498946257" lon="9.764189396861802"><ele>94.0</ele><time>2026-05-01T12:37:23.002Z</time></trkpt><trkpt lat="44.1993254111076" lon="9.764325373442546"><ele>94.0</ele><time>2026-05-01T12:37:24.002Z</time></trkpt><trkpt lat="44.199227414108236" lon="9.764458075850118"><ele>94.0</ele><time>2026-05-01T12:37:25.002Z</time></trkpt><trkpt lat="44.19913322532105" lon="9.764591511085834"><ele>94.25</ele><time>2026-05-01T12:37:26.002Z</time></trkpt><trkpt lat="44.199050031673906" lon="9.764728519195534"><ele>94.5</ele><time>2026-05-01T12:37:27.002Z</time></trkpt><trkpt lat="44.19897420292315" lon="9.764879872582595"><ele>94.75</ele><time>2026-05-01T12:37:28.002Z</time></trkpt><trkpt lat="44.19889660760869" lon="9.765019171560235"><ele>95.0</ele><time>2026-05-01T12:37:29.002Z</time></trkpt><trkpt lat="44.198818132859934" lon="9.765148590064166"><ele>89.75</ele><time>2026-05-01T12:37:30.002Z</time></trkpt><trkpt lat="44.198738101129905" lon="9.765277297715855"><ele>84.5</ele><time>2026-05-01T12:37:31.002Z</time></trkpt><trkpt lat="44.198657572857826" lon="9.765406307268744"><ele>79.25</ele><time>2026-05-01T12:37:32.002Z</time></trkpt><trkpt lat="44.19857480946666" lon="9.765525561673126"><ele>74.0</ele><time>2026-05-01T12:37:33.002Z</time></trkpt><trkpt lat="44.198487997629016" lon="9.765640611305534"><ele>74.0</ele><time>2026-05-01T12:37:34.002Z</time></trkpt><trkpt lat="44.19839046192211" lon="9.765745762905915"><ele>74.0</ele><time>2026-05-01T12:37:35.002Z</time></trkpt><trkpt lat="44.198281250804406" lon="9.76585880512713"><ele>74.0</ele><time>2026-05-01T12:37:36.002Z</time></trkpt><trkpt lat="44.19816915215192" lon="9.765980416895669"><ele>74.0</ele><time>2026-05-01T12:37:37.002Z</time></trkpt><trkpt lat="44.1980616350746" lon="9.766099696577383"><ele>73.5</ele><time>2026-05-01T12:37:38.002Z</time></trkpt><trkpt lat="44.19795478001057" lon="9.766219443983982"><ele>73.0</ele><time>2026-05-01T12:37:39.002Z</time></trkpt><trkpt lat="44.19785498427361" lon="9.766334411091655"><ele>72.5</ele><time>2026-05-01T12:37:40.002Z</time></trkpt><trkpt lat="44.1977608567792" lon="9.766439759915883"><ele>72.0</ele><time>2026-05-01T12:37:41.002Z</time></trkpt><trkpt lat="44.19769506894291" lon="9.766510423541638"><ele>72.0</ele><time>2026-05-01T12:37:42.002Z</time></trkpt><trkpt lat="44.19760114273663" lon="9.76662259678098"><ele>72.0</ele><time>2026-05-01T12:37:44.002Z</time></trkpt><trkpt lat="44.197547768895774" lon="9.766680386650776"><ele>72.0</ele><time>2026-05-01T12:37:45.002Z</time></trkpt><trkpt lat="44.19749542106739" lon="9.766739516251707"><ele>72.0</ele><time>2026-05-01T12:37:46.002Z</time></trkpt><trkpt lat="44.19740396476908" lon="9.76683850772494"><ele>72.0</ele><time>2026-05-01T12:37:48.002Z</time></trkpt><trkpt lat="44.19731747831613" lon="9.766948468521624"><ele>71.4</ele><time>2026-05-01T12:37:50.002Z</time></trkpt><trkpt lat="44.1972837949491" lon="9.767026288981874"><ele>70.80000000000001</ele><time>2026-05-01T12:37:51.002Z</time></trkpt><trkpt lat="44.19728543049987" lon="9.767120631596008"><ele>70.2</ele><time>2026-05-01T12:37:52.002Z</time></trkpt><trkpt lat="44.197324363112706" lon="9.767231798491878"><ele>69.60000000000001</ele><time>2026-05-01T12:37:53.002Z</time></trkpt><trkpt lat="44.197402661765096" lon="9.767352033427207"><ele>69.0</ele><time>2026-05-01T12:37:54.002Z</time></trkpt><trkpt lat="44.19749833139286" lon="9.76748967058948"><ele>69.0</ele><time>2026-05-01T12:37:55.002Z</time></trkpt><trkpt lat="44.197597038117195" lon="9.76764079452685"><ele>69.0</ele><time>2026-05-01T12:37:56.002Z</time></trkpt><trkpt lat="44.197694913307735" lon="9.767812735278518"><ele>69.0</ele><time>2026-05-01T12:37:57.002Z</time></trkpt><trkpt lat="44.19778624245957" lon="9.767985536417529"><ele>68.33333333333333</ele><time>2026-05-01T12:37:58.002Z</time></trkpt><trkpt lat="44.19786504928007" lon="9.768140034633461"><ele>67.66666666666666</ele><time>2026-05-01T12:37:59.003Z</time></trkpt><trkpt lat="44.19796150314015" lon="9.76830768705159"><ele>67.0</ele><time>2026-05-01T12:38:00.003Z</time></trkpt><trkpt lat="44.19807439368659" lon="9.768491858721523"><ele>66.0</ele><time>2026-05-01T12:38:01.003Z</time></trkpt><trkpt lat="44.198175861634034" lon="9.768689374658152"><ele>65.0</ele><time>2026-05-01T12:38:02.003Z</time></trkpt><trkpt lat="44.198273695487124" lon="9.768910949748616"><ele>64.0</ele><time>2026-05-01T12:38:03.003Z</time></trkpt><trkpt lat="44.198386198405125" lon="9.769136106667231"><ele>64.33333333333333</ele><time>2026-05-01T12:38:04.003Z</time></trkpt><trkpt lat="44.19850530723958" lon="9.769361289448018"><ele>64.66666666666667</ele><time>2026-05-01T12:38:05.003Z</time></trkpt><trkpt lat="44.19862391496316" lon="9.769579661311525"><ele>65.0</ele><time>2026-05-01T12:38:06.003Z</time></trkpt><trkpt lat="44.19874545104988" lon="9.769803613089211"><ele>65.0</ele><time>2026-05-01T12:38:07.003Z</time></trkpt><trkpt lat="44.198857658648244" lon="9.770014962111938"><ele>65.0</ele><time>2026-05-01T12:38:08.003Z</time></trkpt><trkpt lat="44.1989486439089" lon="9.770233039904554"><ele>65.0</ele><time>2026-05-01T12:38:09.003Z</time></trkpt><trkpt lat="44.199005372330895" lon="9.770478708997585"><ele>70.66666666666667</ele><time>2026-05-01T12:38:10.003Z</time></trkpt><trkpt lat="44.199040112136686" lon="9.770759920615168"><ele>76.33333333333333</ele><time>2026-05-01T12:38:11.003Z</time></trkpt><trkpt lat="44.19906284385949" lon="9.771048905157674"><ele>82.0</ele><time>2026-05-01T12:38:12.003Z</time></trkpt><trkpt lat="44.19907998473419" lon="9.771333745548311"><ele>82.0</ele><time>2026-05-01T12:38:13.003Z</time></trkpt><trkpt lat="44.19909926814166" lon="9.771593464821454"><ele>82.0</ele><time>2026-05-01T12:38:14.003Z</time></trkpt><trkpt lat="44.19911972509937" lon="9.771839948627735"><ele>82.0</ele><time>2026-05-01T12:38:15.003Z</time></trkpt><trkpt lat="44.19914154922409" lon="9.772072437276758"><ele>79.66666666666666</ele><time>2026-05-01T12:38:16.001Z</time></trkpt><trkpt lat="44.19917315920086" lon="9.772293565640185"><ele>77.33333333333333</ele><time>2026-05-01T12:38:17.001Z</time></trkpt><trkpt lat="44.199228551036455" lon="9.772518675347962"><ele>75.0</ele><time>2026-05-01T12:38:18.001Z</time></trkpt><trkpt lat="44.199315494663885" lon="9.772725566101677"><ele>72.0</ele><time>2026-05-01T12:38:19.001Z</time></trkpt><trkpt lat="44.19942313030908" lon="9.772910672133047"><ele>69.0</ele><time>2026-05-01T12:38:20.001Z</time></trkpt><trkpt lat="44.19954483361776" lon="9.773042934637646"><ele>66.0</ele><time>2026-05-01T12:38:21.001Z</time></trkpt><trkpt lat="44.19970707212984" lon="9.77315859138886"><ele>69.33333333333333</ele><time>2026-05-01T12:38:22.001Z</time></trkpt><trkpt lat="44.199904218410325" lon="9.77326396080734"><ele>72.66666666666666</ele><time>2026-05-01T12:38:23Z</time></trkpt><trkpt lat="44.20010782281864" lon="9.77338010728398"><ele>76.0</ele><time>2026-05-01T12:38:24.001Z</time></trkpt><trkpt lat="44.200294402314526" lon="9.77349988373816"><ele>75.33333333333333</ele><time>2026-05-01T12:38:25Z</time></trkpt><trkpt lat="44.20047736883747" lon="9.773617976131579"><ele>74.66666666666667</ele><time>2026-05-01T12:38:26Z</time></trkpt><trkpt lat="44.20066831862934" lon="9.77373672663485"><ele>74.0</ele><time>2026-05-01T12:38:27Z</time></trkpt><trkpt lat="44.200856616691205" lon="9.7738565875835"><ele>74.0</ele><time>2026-05-01T12:38:28Z</time></trkpt><trkpt lat="44.20104638869552" lon="9.773971859865513"><ele>74.0</ele><time>2026-05-01T12:38:29Z</time></trkpt><trkpt lat="44.20124967473236" lon="9.774071057509316"><ele>74.0</ele><time>2026-05-01T12:38:30Z</time></trkpt><trkpt lat="44.20145300521725" lon="9.77414974044553"><ele>71.66666666666667</ele><time>2026-05-01T12:38:31Z</time></trkpt><trkpt lat="44.20163759160994" lon="9.774215176987873"><ele>69.33333333333333</ele><time>2026-05-01T12:38:32Z</time></trkpt><trkpt lat="44.201799222186594" lon="9.77428962012734"><ele>67.0</ele><time>2026-05-01T12:38:33Z</time></trkpt><trkpt lat="44.20193155568019" lon="9.77442716565581"><ele>67.0</ele><time>2026-05-01T12:38:34Z</time></trkpt><trkpt lat="44.202049847184064" lon="9.77460500998578"><ele>67.0</ele><time>2026-05-01T12:38:35Z</time></trkpt><trkpt lat="44.202173076154544" lon="9.77481193272138"><ele>67.0</ele><time>2026-05-01T12:38:36Z</time></trkpt><trkpt lat="44.20231461354582" lon="9.775006537557537"><ele>69.0</ele><time>2026-05-01T12:38:37Z</time></trkpt><trkpt lat="44.202436303557754" lon="9.775216356973871"><ele>71.0</ele><time>2026-05-01T12:38:38.001Z</time></trkpt><trkpt lat="44.20255176941075" lon="9.775393115262366"><ele>73.0</ele><time>2026-05-01T12:38:39.001Z</time></trkpt><trkpt lat="44.20262971183954" lon="9.77559145338177"><ele>73.0</ele><time>2026-05-01T12:38:40.001Z</time></trkpt><trkpt lat="44.202694024989114" lon="9.775815881791551"><ele>73.0</ele><time>2026-05-01T12:38:41.001Z</time></trkpt><trkpt lat="44.20276935030036" lon="9.77606537080976"><ele>73.0</ele><time>2026-05-01T12:38:42.001Z</time></trkpt><trkpt lat="44.20287178433493" lon="9.77629794324656"><ele>71.0</ele><time>2026-05-01T12:38:43.001Z</time></trkpt><trkpt lat="44.20297795933909" lon="9.776520646111644"><ele>69.0</ele><time>2026-05-01T12:38:44.001Z</time></trkpt><trkpt lat="44.203085089489754" lon="9.776721174368694"><ele>67.0</ele><time>2026-05-01T12:38:45.001Z</time></trkpt><trkpt lat="44.203156220816" lon="9.776927905595873"><ele>72.66666666666666</ele><time>2026-05-01T12:38:46.001Z</time></trkpt><trkpt lat="44.203224396054175" lon="9.777121886599755"><ele>78.33333333333333</ele><time>2026-05-01T12:38:47.001Z</time></trkpt><trkpt lat="44.203256419543166" lon="9.777339027285114"><ele>84.0</ele><time>2026-05-01T12:38:48.001Z</time></trkpt><trkpt lat="44.20327031298987" lon="9.777572136574275"><ele>83.66666666666667</ele><time>2026-05-01T12:38:49.001Z</time></trkpt><trkpt lat="44.20327850864056" lon="9.777821145401717"><ele>83.33333333333334</ele><time>2026-05-01T12:38:50.001Z</time></trkpt><trkpt lat="44.20330013983904" lon="9.778060401723302"><ele>83.0</ele><time>2026-05-01T12:38:51.001Z</time></trkpt><trkpt lat="44.203311020566865" lon="9.778290099541259"><ele>83.0</ele><time>2026-05-01T12:38:52.001Z</time></trkpt><trkpt lat="44.20332095926108" lon="9.77848404222399"><ele>83.0</ele><time>2026-05-01T12:38:53.001Z</time></trkpt><trkpt lat="44.20332494655807" lon="9.778647535879513"><ele>83.0</ele><time>2026-05-01T12:38:54.001Z</time></trkpt><trkpt lat="44.203306617841534" lon="9.778803784609533"><ele>83.0</ele><time>2026-05-01T12:38:55.001Z</time></trkpt><trkpt lat="44.20326019173743" lon="9.778943842110168"><ele>83.25</ele><time>2026-05-01T12:38:56.001Z</time></trkpt><trkpt lat="44.20318569528349" lon="9.779067186498258"><ele>83.5</ele><time>2026-05-01T12:38:57.001Z</time></trkpt><trkpt lat="44.203085760244264" lon="9.779176980302163"><ele>83.75</ele><time>2026-05-01T12:38:58.001Z</time></trkpt><trkpt lat="44.202981588606775" lon="9.779286438157639"><ele>84.0</ele><time>2026-05-01T12:38:59.001Z</time></trkpt><trkpt lat="44.20289156356295" lon="9.779417334242506"><ele>79.33333333333333</ele><time>2026-05-01T12:39:00.001Z</time></trkpt><trkpt lat="44.20281275426212" lon="9.77957343341269"><ele>74.66666666666666</ele><time>2026-05-01T12:39:01.001Z</time></trkpt><trkpt lat="44.20274660732226" lon="9.779761130755894"><ele>70.0</ele><time>2026-05-01T12:39:02.001Z</time></trkpt><trkpt lat="44.202687458028194" lon="9.779998699127459"><ele>71.66666666666666</ele><time>2026-05-01T12:39:03.001Z</time></trkpt><trkpt lat="44.202640322721784" lon="9.780280371265052"><ele>73.33333333333333</ele><time>2026-05-01T12:39:04.001Z</time></trkpt><trkpt lat="44.20259050612025" lon="9.780589086992155"><ele>75.0</ele><time>2026-05-01T12:39:05.001Z</time></trkpt><trkpt lat="44.202527329559" lon="9.780918648831726"><ele>77.5</ele><time>2026-05-01T12:39:06.001Z</time></trkpt><trkpt lat="44.202455017433195" lon="9.781248044859392"><ele>80.0</ele><time>2026-05-01T12:39:07.001Z</time></trkpt><trkpt lat="44.202377446568946" lon="9.781570298295891"><ele>73.0</ele><time>2026-05-01T12:39:08.001Z</time></trkpt><trkpt lat="44.20229818692656" lon="9.78188005500558"><ele>66.0</ele><time>2026-05-01T12:39:09.001Z</time></trkpt><trkpt lat="44.202225086247495" lon="9.78218433630062"><ele>66.0</ele><time>2026-05-01T12:39:10.001Z</time></trkpt><trkpt lat="44.20215720965489" lon="9.782488103845786"><ele>66.0</ele><time>2026-05-01T12:39:11.001Z</time></trkpt><trkpt lat="44.20209251746006" lon="9.782787725983606"><ele>66.33333333333333</ele><time>2026-05-01T12:39:12.001Z</time></trkpt><trkpt lat="44.20203218552284" lon="9.783074958696588"><ele>66.66666666666666</ele><time>2026-05-01T12:39:13.001Z</time></trkpt><trkpt lat="44.201970297060626" lon="9.78334695402683"><ele>67.0</ele><time>2026-05-01T12:39:14.001Z</time></trkpt><trkpt lat="44.201913909989514" lon="9.78360798259286"><ele>67.66666666666666</ele><time>2026-05-01T12:39:15.001Z</time></trkpt><trkpt lat="44.20186932333686" lon="9.78383548953493"><ele>68.33333333333333</ele><time>2026-05-01T12:39:16.001Z</time></trkpt><trkpt lat="44.20184892240149" lon="9.784048438363172"><ele>69.0</ele><time>2026-05-01T12:39:17.001Z</time></trkpt><trkpt lat="44.20186241568127" lon="9.784262880769047"><ele>68.66666666666667</ele><time>2026-05-01T12:39:18.001Z</time></trkpt><trkpt lat="44.201919557941885" lon="9.784486981079732"><ele>68.33333333333334</ele><time>2026-05-01T12:39:19.001Z</time></trkpt><trkpt lat="44.20199534394977" lon="9.784716396350985"><ele>68.0</ele><time>2026-05-01T12:39:20.001Z</time></trkpt><trkpt lat="44.202088527609455" lon="9.784945028464874"><ele>68.0</ele><time>2026-05-01T12:39:21.001Z</time></trkpt><trkpt lat="44.202186106986176" lon="9.785163726618388"><ele>68.0</ele><time>2026-05-01T12:39:22.001Z</time></trkpt><trkpt lat="44.20230432425171" lon="9.785316990158542"><ele>68.0</ele><time>2026-05-01T12:39:23.001Z</time></trkpt><trkpt lat="44.20243096823822" lon="9.785431732537232"><ele>68.25</ele><time>2026-05-01T12:39:24.001Z</time></trkpt><trkpt lat="44.202549247295046" lon="9.785524737217992"><ele>68.5</ele><time>2026-05-01T12:39:25.001Z</time></trkpt><trkpt lat="44.20267780017279" lon="9.785573877730565"><ele>68.75</ele><time>2026-05-01T12:39:26.001Z</time></trkpt><trkpt lat="44.2028225398358" lon="9.785569261322186"><ele>69.0</ele><time>2026-05-01T12:39:27.001Z</time></trkpt><trkpt lat="44.20298832602514" lon="9.78551413255712"><ele>68.66666666666667</ele><time>2026-05-01T12:39:28.002Z</time></trkpt><trkpt lat="44.20316487171131" lon="9.785466521042956"><ele>68.33333333333334</ele><time>2026-05-01T12:39:29.002Z</time></trkpt><trkpt lat="44.20334308087362" lon="9.785433560778333"><ele>68.0</ele><time>2026-05-01T12:39:30.002Z</time></trkpt><trkpt lat="44.20350626576582" lon="9.785403369464836"><ele>68.0</ele><time>2026-05-01T12:39:31.002Z</time></trkpt><trkpt lat="44.20365942831523" lon="9.785386404906994"><ele>68.0</ele><time>2026-05-01T12:39:32.002Z</time></trkpt><trkpt lat="44.203799923711586" lon="9.785388919070797"><ele>68.0</ele><time>2026-05-01T12:39:33.002Z</time></trkpt><trkpt lat="44.20391686097852" lon="9.785410542210382"><ele>68.0</ele><time>2026-05-01T12:39:34.002Z</time></trkpt><trkpt lat="44.20400835997257" lon="9.785450245555964"><ele>67.5</ele><time>2026-05-01T12:39:35.002Z</time></trkpt><trkpt lat="44.204084847487266" lon="9.785523793959568"><ele>67.0</ele><time>2026-05-01T12:39:36.002Z</time></trkpt><trkpt lat="44.204140162427635" lon="9.785627834753443"><ele>66.5</ele><time>2026-05-01T12:39:37.002Z</time></trkpt><trkpt lat="44.204180921703674" lon="9.785702222802719"><ele>66.0</ele><time>2026-05-01T12:39:38.002Z</time></trkpt><trkpt lat="44.204242585938225" lon="9.78572474032864"><ele>65.5</ele><time>2026-05-01T12:39:39.002Z</time></trkpt><trkpt lat="44.20431479619702" lon="9.785687645296159"><ele>65.0</ele><time>2026-05-01T12:39:40.002Z</time></trkpt><trkpt lat="44.20439253655833" lon="9.785612727668209"><ele>65.0</ele><time>2026-05-01T12:39:41.002Z</time></trkpt><trkpt lat="44.20449554376246" lon="9.785544701840086"><ele>65.0</ele><time>2026-05-01T12:39:42.002Z</time></trkpt><trkpt lat="44.20464068156454" lon="9.785544585447367"><ele>65.0</ele><time>2026-05-01T12:39:43.002Z</time></trkpt><trkpt lat="44.20480036496342" lon="9.785578755417582"><ele>65.0</ele><time>2026-05-01T12:39:44.002Z</time></trkpt><trkpt lat="44.20497793302865" lon="9.78564016514302"><ele>66.0</ele><time>2026-05-01T12:39:45.002Z</time></trkpt><trkpt lat="44.2051513584077" lon="9.785696759010305"><ele>67.0</ele><time>2026-05-01T12:39:46.002Z</time></trkpt><trkpt lat="44.20531903897788" lon="9.785739472824783"><ele>68.0</ele><time>2026-05-01T12:39:47.002Z</time></trkpt><trkpt lat="44.20549092871669" lon="9.785782362433665"><ele>69.33333333333334</ele><time>2026-05-01T12:39:48.002Z</time></trkpt><trkpt lat="44.205662778532556" lon="9.785820547660455"><ele>70.66666666666667</ele><time>2026-05-01T12:39:49.002Z</time></trkpt><trkpt lat="44.205835851104226" lon="9.785864866021717"><ele>72.0</ele><time>2026-05-01T12:39:50.002Z</time></trkpt><trkpt lat="44.20600437753414" lon="9.785908189664461"><ele>72.0</ele><time>2026-05-01T12:39:51.002Z</time></trkpt><trkpt lat="44.20616748909745" lon="9.785955110451978"><ele>72.0</ele><time>2026-05-01T12:39:52.002Z</time></trkpt><trkpt lat="44.206301517403" lon="9.786012859426263"><ele>72.0</ele><time>2026-05-01T12:39:53.002Z</time></trkpt><trkpt lat="44.20643885880188" lon="9.786106861910397"><ele>72.0</ele><time>2026-05-01T12:39:54.002Z</time></trkpt><trkpt lat="44.206564674924465" lon="9.786232876013951"><ele>72.0</ele><time>2026-05-01T12:39:55.002Z</time></trkpt><trkpt lat="44.20664378700513" lon="9.786417264156286"><ele>72.0</ele><time>2026-05-01T12:39:56.002Z</time></trkpt><trkpt lat="44.20672587214717" lon="9.786602667622537"><ele>72.0</ele><time>2026-05-01T12:39:57.002Z</time></trkpt><trkpt lat="44.20678196933344" lon="9.786812669989477"><ele>72.0</ele><time>2026-05-01T12:39:58.002Z</time></trkpt><trkpt lat="44.20682203858399" lon="9.787069346932569"><ele>72.0</ele><time>2026-05-01T12:39:59.002Z</time></trkpt><trkpt lat="44.206852846071854" lon="9.787351788053257"><ele>71.66666666666667</ele><time>2026-05-01T12:40:00.002Z</time></trkpt><trkpt lat="44.20688211857631" lon="9.787641963450959"><ele>71.33333333333334</ele><time>2026-05-01T12:40:01.002Z</time></trkpt><trkpt lat="44.206908671253" lon="9.787923901344506"><ele>71.0</ele><time>2026-05-01T12:40:02.002Z</time></trkpt><trkpt lat="44.206935052296515" lon="9.788190725896015"><ele>70.66666666666667</ele><time>2026-05-01T12:40:03.002Z</time></trkpt><trkpt lat="44.206932792221195" lon="9.788443391132862"><ele>70.33333333333333</ele><time>2026-05-01T12:40:04.002Z</time></trkpt><trkpt lat="44.20689697292268" lon="9.788713919923246"><ele>70.0</ele><time>2026-05-01T12:40:05.002Z</time></trkpt><trkpt lat="44.20686849258587" lon="9.789000281561885"><ele>69.66666666666666</ele><time>2026-05-01T12:40:06.002Z</time></trkpt><trkpt lat="44.20686801735839" lon="9.789292952391406"><ele>69.33333333333333</ele><time>2026-05-01T12:40:07.002Z</time></trkpt><trkpt lat="44.20684290544373" lon="9.78959818690702"><ele>69.0</ele><time>2026-05-01T12:40:08.002Z</time></trkpt><trkpt lat="44.20677895207984" lon="9.789930177895833"><ele>70.0</ele><time>2026-05-01T12:40:09.002Z</time></trkpt><trkpt lat="44.20676876877108" lon="9.790269394710135"><ele>71.0</ele><time>2026-05-01T12:40:10.003Z</time></trkpt><trkpt lat="44.206737913812034" lon="9.790610692717275"><ele>71.0</ele><time>2026-05-01T12:40:11.003Z</time></trkpt><trkpt lat="44.20668069476975" lon="9.79096577154073"><ele>71.0</ele><time>2026-05-01T12:40:12.003Z</time></trkpt><trkpt lat="44.206682638808395" lon="9.791338710650212"><ele>70.66666666666667</ele><time>2026-05-01T12:40:13.003Z</time></trkpt><trkpt lat="44.20668355253323" lon="9.791664331370715"><ele>70.33333333333333</ele><time>2026-05-01T12:40:14.003Z</time></trkpt><trkpt lat="44.20670939539255" lon="9.791928861843342"><ele>70.0</ele><time>2026-05-01T12:40:15.003Z</time></trkpt><trkpt lat="44.20675926285936" lon="9.79214856544953"><ele>68.0</ele><time>2026-05-01T12:40:16.003Z</time></trkpt><trkpt lat="44.206844391004495" lon="9.792352612057774"><ele>66.0</ele><time>2026-05-01T12:40:17.003Z</time></trkpt><trkpt lat="44.206967506439874" lon="9.792562997346023"><ele>64.0</ele><time>2026-05-01T12:40:18.003Z</time></trkpt><trkpt lat="44.20705323793549" lon="9.792819731666016"><ele>63.33333333333333</ele><time>2026-05-01T12:40:19.003Z</time></trkpt><trkpt lat="44.20711788177629" lon="9.793111422524573"><ele>62.66666666666667</ele><time>2026-05-01T12:40:20.003Z</time></trkpt><trkpt lat="44.207178322621104" lon="9.793393679335612"><ele>62.0</ele><time>2026-05-01T12:40:21.003Z</time></trkpt><trkpt lat="44.20723192519583" lon="9.793658029376354"><ele>61.66666666666667</ele><time>2026-05-01T12:40:22Z</time></trkpt><trkpt lat="44.20727448346416" lon="9.79392736593101"><ele>61.33333333333333</ele><time>2026-05-01T12:40:23Z</time></trkpt><trkpt lat="44.207290488128905" lon="9.794208662207575"><ele>61.0</ele><time>2026-05-01T12:40:24Z</time></trkpt><trkpt lat="44.207275193417736" lon="9.794471184329208"><ele>61.0</ele><time>2026-05-01T12:40:25Z</time></trkpt><trkpt lat="44.207246394863205" lon="9.79474998611707"><ele>61.0</ele><time>2026-05-01T12:40:26Z</time></trkpt><trkpt lat="44.207215969124206" lon="9.795057527688309"><ele>61.0</ele><time>2026-05-01T12:40:27Z</time></trkpt><trkpt lat="44.207218154518344" lon="9.795385096022098"><ele>61.0</ele><time>2026-05-01T12:40:28Z</time></trkpt><trkpt lat="44.20722180954128" lon="9.795720686015319"><ele>61.0</ele><time>2026-05-01T12:40:29Z</time></trkpt><trkpt lat="44.20720752937606" lon="9.796063396071842"><ele>61.0</ele><time>2026-05-01T12:40:30Z</time></trkpt><trkpt lat="44.207202159137466" lon="9.796409961788106"><ele>61.0</ele><time>2026-05-01T12:40:31Z</time></trkpt><trkpt lat="44.207200420453574" lon="9.796737464535001"><ele>61.33333333333333</ele><time>2026-05-01T12:40:32Z</time></trkpt><trkpt lat="44.207177286024034" lon="9.797035745044004"><ele>61.66666666666667</ele><time>2026-05-01T12:40:33Z</time></trkpt><trkpt lat="44.20711428386984" lon="9.797323017390868"><ele>62.0</ele><time>2026-05-01T12:40:34Z</time></trkpt><trkpt lat="44.207048063186825" lon="9.797624142341213"><ele>62.5</ele><time>2026-05-01T12:40:35Z</time></trkpt><trkpt lat="44.206981438718365" lon="9.797931389117878"><ele>63.0</ele><time>2026-05-01T12:40:36Z</time></trkpt><trkpt lat="44.20691572567499" lon="9.798234432763953"><ele>65.5</ele><time>2026-05-01T12:40:37Z</time></trkpt><trkpt lat="44.20684980754217" lon="9.798538319928818"><ele>68.0</ele><time>2026-05-01T12:40:38Z</time></trkpt><trkpt lat="44.20678459545062" lon="9.798837277721304"><ele>68.0</ele><time>2026-05-01T12:40:39Z</time></trkpt><trkpt lat="44.20671887224738" lon="9.799138578659033"><ele>68.0</ele><time>2026-05-01T12:40:40Z</time></trkpt><trkpt lat="44.20665109837069" lon="9.799439391853776"><ele>70.33333333333334</ele><time>2026-05-01T12:40:41Z</time></trkpt><trkpt lat="44.20658275358034" lon="9.799734548102847"><ele>72.66666666666667</ele><time>2026-05-01T12:40:42Z</time></trkpt><trkpt lat="44.206514149756366" lon="9.800030823183377"><ele>75.0</ele><time>2026-05-01T12:40:43Z</time></trkpt><trkpt lat="44.20644819650447" lon="9.80031565144589"><ele>71.66666666666667</ele><time>2026-05-01T12:40:44Z</time></trkpt><trkpt lat="44.20638271436753" lon="9.800598445127546"><ele>68.33333333333334</ele><time>2026-05-01T12:40:45Z</time></trkpt><trkpt lat="44.206325779330676" lon="9.800876028332599"><ele>65.0</ele><time>2026-05-01T12:40:46Z</time></trkpt><trkpt lat="44.20621792460548" lon="9.801107147499701"><ele>65.0</ele><time>2026-05-01T12:40:47Z</time></trkpt><trkpt lat="44.20608429139909" lon="9.801321817751562"><ele>65.0</ele><time>2026-05-01T12:40:48Z</time></trkpt><trkpt lat="44.20592550200775" lon="9.80155392765534"><ele>65.0</ele><time>2026-05-01T12:40:49Z</time></trkpt><trkpt lat="44.205761952836056" lon="9.801793790938977"><ele>64.5</ele><time>2026-05-01T12:40:50Z</time></trkpt><trkpt lat="44.20559750684466" lon="9.802024474850128"><ele>64.0</ele><time>2026-05-01T12:40:51Z</time></trkpt><trkpt lat="44.20542971721321" lon="9.802251864781141"><ele>64.0</ele><time>2026-05-01T12:40:52Z</time></trkpt><trkpt lat="44.205261462995054" lon="9.80248188062326"><ele>64.0</ele><time>2026-05-01T12:40:53Z</time></trkpt><trkpt lat="44.20508776409573" lon="9.802715129524055"><ele>63.0</ele><time>2026-05-01T12:40:54Z</time></trkpt><trkpt lat="44.20491448673363" lon="9.802950326004073"><ele>62.0</ele><time>2026-05-01T12:40:55Z</time></trkpt><trkpt lat="44.2047460654501" lon="9.80318808295715"><ele>62.0</ele><time>2026-05-01T12:40:56Z</time></trkpt><trkpt lat="44.20458278932795" lon="9.803420636743368"><ele>62.0</ele><time>2026-05-01T12:40:57Z</time></trkpt><trkpt lat="44.2044134668353" lon="9.803650183415048"><ele>69.5</ele><time>2026-05-01T12:40:58Z</time></trkpt><trkpt lat="44.20423096604833" lon="9.803863940860692"><ele>77.0</ele><time>2026-05-01T12:40:59Z</time></trkpt><trkpt lat="44.204038920408316" lon="9.804055230334738"><ele>76.5</ele><time>2026-05-01T12:41:00Z</time></trkpt><trkpt lat="44.20383787358059" lon="9.804242035129084"><ele>76.0</ele><time>2026-05-01T12:41:01.001Z</time></trkpt><trkpt lat="44.20365241233376" lon="9.804429878460764"><ele>76.0</ele><time>2026-05-01T12:41:02.001Z</time></trkpt><trkpt lat="44.20347765004787" lon="9.804609348635655"><ele>76.0</ele><time>2026-05-01T12:41:03.001Z</time></trkpt><trkpt lat="44.203306753003794" lon="9.804783130658732"><ele>76.0</ele><time>2026-05-01T12:41:04.001Z</time></trkpt><trkpt lat="44.20313661114342" lon="9.804949761163877"><ele>75.66666666666666</ele><time>2026-05-01T12:41:05.001Z</time></trkpt><trkpt lat="44.202968509633756" lon="9.805121833528334"><ele>75.33333333333333</ele><time>2026-05-01T12:41:06.001Z</time></trkpt><trkpt lat="44.2027950478986" lon="9.805295363962191"><ele>75.0</ele><time>2026-05-01T12:41:07.001Z</time></trkpt><trkpt lat="44.20262575482242" lon="9.805470787346595"><ele>75.0</ele><time>2026-05-01T12:41:08.001Z</time></trkpt><trkpt lat="44.20245844035344" lon="9.805646989718387"><ele>75.0</ele><time>2026-05-01T12:41:09.001Z</time></trkpt><trkpt lat="44.20229246132231" lon="9.805817106394818"><ele>75.0</ele><time>2026-05-01T12:41:10.001Z</time></trkpt><trkpt lat="44.2021282109747" lon="9.805994088086"><ele>73.33333333333333</ele><time>2026-05-01T12:41:11.001Z</time></trkpt><trkpt lat="44.20196082648002" lon="9.806160062106823"><ele>71.66666666666666</ele><time>2026-05-01T12:41:12.001Z</time></trkpt><trkpt lat="44.201790413212336" lon="9.806332440453856"><ele>70.0</ele><time>2026-05-01T12:41:13.001Z</time></trkpt><trkpt lat="44.20162154767894" lon="9.806501495741543"><ele>68.33333333333333</ele><time>2026-05-01T12:41:14.001Z</time></trkpt><trkpt lat="44.20145440956602" lon="9.80669626757487"><ele>66.66666666666667</ele><time>2026-05-01T12:41:15.001Z</time></trkpt><trkpt lat="44.20130731073452" lon="9.806943815089227"><ele>65.0</ele><time>2026-05-01T12:41:16.001Z</time></trkpt><trkpt lat="44.201184906971086" lon="9.807201346299461"><ele>65.0</ele><time>2026-05-01T12:41:17.001Z</time></trkpt><trkpt lat="44.20103518185277" lon="9.807443947385936"><ele>65.0</ele><time>2026-05-01T12:41:18.001Z</time></trkpt><trkpt lat="44.200851426111655" lon="9.807647666689803"><ele>61.0</ele><time>2026-05-01T12:41:19.001Z</time></trkpt><trkpt lat="44.20067996710001" lon="9.80786716613119"><ele>57.0</ele><time>2026-05-01T12:41:20.001Z</time></trkpt><trkpt lat="44.200541200533195" lon="9.808132357134491"><ele>57.0</ele><time>2026-05-01T12:41:21.001Z</time></trkpt><trkpt lat="44.20041757279608" lon="9.808408088163535"><ele>57.0</ele><time>2026-05-01T12:41:22.001Z</time></trkpt><trkpt lat="44.20028719655146" lon="9.808667079793299"><ele>58.33333333333333</ele><time>2026-05-01T12:41:23.001Z</time></trkpt><trkpt lat="44.20015514950526" lon="9.808911567006438"><ele>59.666666666666664</ele><time>2026-05-01T12:41:24.001Z</time></trkpt><trkpt lat="44.20003018762926" lon="9.8091464308235"><ele>61.0</ele><time>2026-05-01T12:41:25.001Z</time></trkpt><trkpt lat="44.199916208409554" lon="9.809375932425455"><ele>60.0</ele><time>2026-05-01T12:41:26.001Z</time></trkpt><trkpt lat="44.19982933001415" lon="9.809604646464877"><ele>59.0</ele><time>2026-05-01T12:41:27.001Z</time></trkpt><trkpt lat="44.19978209538972" lon="9.809843550618874"><ele>58.0</ele><time>2026-05-01T12:41:28.001Z</time></trkpt><trkpt lat="44.19976452312696" lon="9.810079490932427"><ele>57.666666666666664</ele><time>2026-05-01T12:41:29.001Z</time></trkpt><trkpt lat="44.199771074338464" lon="9.810323051127167"><ele>57.33333333333333</ele><time>2026-05-01T12:41:30.001Z</time></trkpt><trkpt lat="44.199805236589974" lon="9.810593596436957"><ele>57.0</ele><time>2026-05-01T12:41:31.001Z</time></trkpt><trkpt lat="44.19984477433472" lon="9.810858964014933"><ele>57.33333333333333</ele><time>2026-05-01T12:41:32.001Z</time></trkpt><trkpt lat="44.199876366260206" lon="9.811097224017553"><ele>57.666666666666664</ele><time>2026-05-01T12:41:33.001Z</time></trkpt><trkpt lat="44.19990407030987" lon="9.811328782816002"><ele>58.0</ele><time>2026-05-01T12:41:34.001Z</time></trkpt><trkpt lat="44.19994359626001" lon="9.811535666483651"><ele>58.0</ele><time>2026-05-01T12:41:35.001Z</time></trkpt><trkpt lat="44.19999796579506" lon="9.81171652631454"><ele>58.0</ele><time>2026-05-01T12:41:36.001Z</time></trkpt><trkpt lat="44.200042836765526" lon="9.811869168114454"><ele>58.0</ele><time>2026-05-01T12:41:37.001Z</time></trkpt><trkpt lat="44.20004886794912" lon="9.812018275142165"><ele>58.0</ele><time>2026-05-01T12:41:38.001Z</time></trkpt><trkpt lat="44.20002588765725" lon="9.81217884108992"><ele>57.666666666666664</ele><time>2026-05-01T12:41:39.001Z</time></trkpt><trkpt lat="44.199965071166254" lon="9.81235694495857"><ele>57.33333333333333</ele><time>2026-05-01T12:41:40.001Z</time></trkpt><trkpt lat="44.19989792400491" lon="9.812566462692281"><ele>57.0</ele><time>2026-05-01T12:41:41.001Z</time></trkpt><trkpt lat="44.19984068393731" lon="9.812793108092412"><ele>56.33333333333333</ele><time>2026-05-01T12:41:42.001Z</time></trkpt><trkpt lat="44.199786961383055" lon="9.813022618365572"><ele>55.666666666666664</ele><time>2026-05-01T12:41:43.001Z</time></trkpt><trkpt lat="44.19973011234489" lon="9.813270255955036"><ele>55.0</ele><time>2026-05-01T12:41:44.001Z</time></trkpt><trkpt lat="44.19967190054384" lon="9.813528830099155"><ele>55.0</ele><time>2026-05-01T12:41:45.001Z</time></trkpt><trkpt lat="44.19960859385958" lon="9.813791062303364"><ele>55.0</ele><time>2026-05-01T12:41:46.002Z</time></trkpt><trkpt lat="44.19954765972521" lon="9.814053612518567"><ele>55.0</ele><time>2026-05-01T12:41:47.002Z</time></trkpt><trkpt lat="44.19948388096702" lon="9.814314707244915"><ele>55.33333333333333</ele><time>2026-05-01T12:41:48.002Z</time></trkpt><trkpt lat="44.19941823065334" lon="9.814568789912837"><ele>55.66666666666667</ele><time>2026-05-01T12:41:49.002Z</time></trkpt><trkpt lat="44.19936093978707" lon="9.814837359035469"><ele>56.0</ele><time>2026-05-01T12:41:50.002Z</time></trkpt><trkpt lat="44.19933855078988" lon="9.81513084356477"><ele>57.5</ele><time>2026-05-01T12:41:51.002Z</time></trkpt><trkpt lat="44.19934116138546" lon="9.81545452346716"><ele>59.0</ele><time>2026-05-01T12:41:52.002Z</time></trkpt><trkpt lat="44.19931164535254" lon="9.815777553556499"><ele>60.5</ele><time>2026-05-01T12:41:53.002Z</time></trkpt><trkpt lat="44.199276099413346" lon="9.816107214047479"><ele>62.0</ele><time>2026-05-01T12:41:54.002Z</time></trkpt><trkpt lat="44.199219107294766" lon="9.816427694671129"><ele>62.0</ele><time>2026-05-01T12:41:55.002Z</time></trkpt><trkpt lat="44.19914183671273" lon="9.816741552076449"><ele>62.0</ele><time>2026-05-01T12:41:56.002Z</time></trkpt><trkpt lat="44.19904747695479" lon="9.81703425023635"><ele>58.0</ele><time>2026-05-01T12:41:57.002Z</time></trkpt><trkpt lat="44.19896742259862" lon="9.817344165119321"><ele>54.0</ele><time>2026-05-01T12:41:58.002Z</time></trkpt><trkpt lat="44.198930986833425" lon="9.81765656919422"><ele>54.0</ele><time>2026-05-01T12:41:59.002Z</time></trkpt><trkpt lat="44.19885495515158" lon="9.817924726843541"><ele>54.0</ele><time>2026-05-01T12:42:00.002Z</time></trkpt><trkpt lat="44.198757798484905" lon="9.818133468112638"><ele>54.0</ele><time>2026-05-01T12:42:01.002Z</time></trkpt><trkpt lat="44.198643226136454" lon="9.818305692260582"><ele>54.0</ele><time>2026-05-01T12:42:02.002Z</time></trkpt><trkpt lat="44.19858729992938" lon="9.818479691987239"><ele>54.0</ele><time>2026-05-01T12:42:03.002Z</time></trkpt><trkpt lat="44.19854947015606" lon="9.818658088152826"><ele>54.0</ele><time>2026-05-01T12:42:04.002Z</time></trkpt><trkpt lat="44.19855871211841" lon="9.818889072609583"><ele>54.0</ele><time>2026-05-01T12:42:05.002Z</time></trkpt><trkpt lat="44.19858104171812" lon="9.819151370309424"><ele>54.33333333333333</ele><time>2026-05-01T12:42:06.002Z</time></trkpt><trkpt lat="44.198611059917326" lon="9.819433323732065"><ele>54.666666666666664</ele><time>2026-05-01T12:42:07.002Z</time></trkpt><trkpt lat="44.19861653934695" lon="9.819726982849012"><ele>55.0</ele><time>2026-05-01T12:42:08.002Z</time></trkpt><trkpt lat="44.19865175103596" lon="9.820024933795002"><ele>54.0</ele><time>2026-05-01T12:42:09.002Z</time></trkpt><trkpt lat="44.19867031162834" lon="9.820327988268692"><ele>53.0</ele><time>2026-05-01T12:42:10.002Z</time></trkpt><trkpt lat="44.19867111177016" lon="9.820631549745823"><ele>52.0</ele><time>2026-05-01T12:42:11.002Z</time></trkpt><trkpt lat="44.19868761083728" lon="9.82090993642541"><ele>51.666666666666664</ele><time>2026-05-01T12:42:12.002Z</time></trkpt><trkpt lat="44.1987314200059" lon="9.821156105513602"><ele>51.33333333333333</ele><time>2026-05-01T12:42:13.002Z</time></trkpt><trkpt lat="44.19877754818384" lon="9.821381745830216"><ele>51.0</ele><time>2026-05-01T12:42:14.002Z</time></trkpt><trkpt lat="44.198855632992085" lon="9.82158102231756"><ele>51.0</ele><time>2026-05-01T12:42:15.002Z</time></trkpt><trkpt lat="44.19897230872055" lon="9.821778201503594"><ele>51.0</ele><time>2026-05-01T12:42:16.002Z</time></trkpt><trkpt lat="44.1991181932676" lon="9.82198375416673"><ele>51.0</ele><time>2026-05-01T12:42:17.002Z</time></trkpt><trkpt lat="44.199229928042115" lon="9.822223861740506"><ele>52.66666666666667</ele><time>2026-05-01T12:42:18.002Z</time></trkpt><trkpt lat="44.19931940187455" lon="9.822448487514965"><ele>54.333333333333336</ele><time>2026-05-01T12:42:19.002Z</time></trkpt><trkpt lat="44.19940006841994" lon="9.822632185800396"><ele>56.0</ele><time>2026-05-01T12:42:20.002Z</time></trkpt><trkpt lat="44.19951705698683" lon="9.822763614837339"><ele>56.0</ele><time>2026-05-01T12:42:21.002Z</time></trkpt><trkpt lat="44.1996518297906" lon="9.822895766199176"><ele>56.0</ele><time>2026-05-01T12:42:22.002Z</time></trkpt><trkpt lat="44.199812281035776" lon="9.823012540685808"><ele>56.0</ele><time>2026-05-01T12:42:23.002Z</time></trkpt><trkpt lat="44.199924161407" lon="9.82316086998237"><ele>56.75</ele><time>2026-05-01T12:42:24.003Z</time></trkpt><trkpt lat="44.20001756456935" lon="9.823293831247934"><ele>57.5</ele><time>2026-05-01T12:42:25.003Z</time></trkpt><trkpt lat="44.200060154359306" lon="9.823447154516213"><ele>58.25</ele><time>2026-05-01T12:42:26.003Z</time></trkpt><trkpt lat="44.20008441138135" lon="9.823617293272276"><ele>59.0</ele><time>2026-05-01T12:42:27.003Z</time></trkpt><trkpt lat="44.20007495349603" lon="9.823828986415384"><ele>59.0</ele><time>2026-05-01T12:42:28Z</time></trkpt><trkpt lat="44.200069665928574" lon="9.824088695266736"><ele>59.0</ele><time>2026-05-01T12:42:29Z</time></trkpt><trkpt lat="44.200063806292" lon="9.82436755144856"><ele>59.0</ele><time>2026-05-01T12:42:30Z</time></trkpt><trkpt lat="44.20005740280399" lon="9.824669748686672"><ele>58.0</ele><time>2026-05-01T12:42:31Z</time></trkpt><trkpt lat="44.20005255325622" lon="9.824972611938446"><ele>57.0</ele><time>2026-05-01T12:42:32Z</time></trkpt><trkpt lat="44.200048556867586" lon="9.825284330262027"><ele>56.0</ele><time>2026-05-01T12:42:33Z</time></trkpt><trkpt lat="44.200044421929974" lon="9.825563673791216"><ele>56.0</ele><time>2026-05-01T12:42:34Z</time></trkpt><trkpt lat="44.2000409470448" lon="9.825783542267013"><ele>56.0</ele><time>2026-05-01T12:42:35Z</time></trkpt><trkpt lat="44.20003827259494" lon="9.8259527643386"><ele>56.0</ele><time>2026-05-01T12:42:36Z</time></trkpt><trkpt lat="44.20003571986698" lon="9.82611724887123"><ele>56.0</ele><time>2026-05-01T12:42:37Z</time></trkpt><trkpt lat="44.2000329642152" lon="9.826285297070852"><ele>57.5</ele><time>2026-05-01T12:42:38Z</time></trkpt><trkpt lat="44.2000298611967" lon="9.826441084525339"><ele>59.0</ele><time>2026-05-01T12:42:39Z</time></trkpt><trkpt lat="44.200026895801486" lon="9.826603362008417"><ele>60.5</ele><time>2026-05-01T12:42:40Z</time></trkpt><trkpt lat="44.200023818087274" lon="9.826771351760785"><ele>62.0</ele><time>2026-05-01T12:42:41Z</time></trkpt><trkpt lat="44.20002071215922" lon="9.826940881511932"><ele>63.75</ele><time>2026-05-01T12:42:42Z</time></trkpt><trkpt lat="44.200017821512695" lon="9.827114272983225"><ele>65.5</ele><time>2026-05-01T12:42:43Z</time></trkpt><trkpt lat="44.20001544124976" lon="9.827302888521704"><ele>67.25</ele><time>2026-05-01T12:42:44Z</time></trkpt><trkpt lat="44.200012879479154" lon="9.827505886952904"><ele>69.0</ele><time>2026-05-01T12:42:45Z</time></trkpt><trkpt lat="44.2000103371373" lon="9.82770734586356"><ele>70.25</ele><time>2026-05-01T12:42:46Z</time></trkpt><trkpt lat="44.20000643363248" lon="9.82790505555781"><ele>71.5</ele><time>2026-05-01T12:42:47Z</time></trkpt><trkpt lat="44.200002453075086" lon="9.828076989433738"><ele>72.75</ele><time>2026-05-01T12:42:48Z</time></trkpt><trkpt lat="44.199997249608515" lon="9.828231313453397"><ele>74.0</ele><time>2026-05-01T12:42:49Z</time></trkpt><trkpt lat="44.199982610362305" lon="9.82838862228091"><ele>75.0</ele><time>2026-05-01T12:42:50Z</time></trkpt><trkpt lat="44.199961207471766" lon="9.82856750892082"><ele>76.0</ele><time>2026-05-01T12:42:51Z</time></trkpt><trkpt lat="44.199937239655824" lon="9.828741302000601"><ele>77.0</ele><time>2026-05-01T12:42:52Z</time></trkpt><trkpt lat="44.19991105032261" lon="9.82890918615857"><ele>78.0</ele><time>2026-05-01T12:42:53Z</time></trkpt><trkpt lat="44.19988119163588" lon="9.829074212789507"><ele>78.0</ele><time>2026-05-01T12:42:54Z</time></trkpt><trkpt lat="44.19984767698742" lon="9.829243174505876"><ele>78.0</ele><time>2026-05-01T12:42:55Z</time></trkpt><trkpt lat="44.199827978177694" lon="9.82942433989448"><ele>78.0</ele><time>2026-05-01T12:42:56Z</time></trkpt><trkpt lat="44.19979090884753" lon="9.829606597182348"><ele>78.0</ele><time>2026-05-01T12:42:57Z</time></trkpt><trkpt lat="44.19973794425909" lon="9.829787778455017"><ele>72.0</ele><time>2026-05-01T12:42:58Z</time></trkpt><trkpt lat="44.1997013100205" lon="9.829979605303176"><ele>66.0</ele><time>2026-05-01T12:42:59Z</time></trkpt><trkpt lat="44.19966610408" lon="9.830176524643967"><ele>60.0</ele><time>2026-05-01T12:43:00Z</time></trkpt><trkpt lat="44.199648220779764" lon="9.830385758920283"><ele>54.0</ele><time>2026-05-01T12:43:01Z</time></trkpt><trkpt lat="44.19961143435316" lon="9.830597323491105"><ele>54.0</ele><time>2026-05-01T12:43:02Z</time></trkpt><trkpt lat="44.19962872256865" lon="9.830808950524393"><ele>54.0</ele><time>2026-05-01T12:43:03Z</time></trkpt><trkpt lat="44.19964464793994" lon="9.831003023866561"><ele>54.0</ele><time>2026-05-01T12:43:04Z</time></trkpt><trkpt lat="44.19962884679307" lon="9.831196315148205"><ele>54.0</ele><time>2026-05-01T12:43:05Z</time></trkpt><trkpt lat="44.19961993382381" lon="9.831434231700843"><ele>53.66666666666667</ele><time>2026-05-01T12:43:06Z</time></trkpt><trkpt lat="44.19964861016609" lon="9.831659294467636"><ele>53.333333333333336</ele><time>2026-05-01T12:43:07Z</time></trkpt><trkpt lat="44.19969618973768" lon="9.831887130249882"><ele>53.0</ele><time>2026-05-01T12:43:08Z</time></trkpt><trkpt lat="44.199769265094695" lon="9.83212016873186"><ele>52.0</ele><time>2026-05-01T12:43:09Z</time></trkpt><trkpt lat="44.19978433236659" lon="9.832360343531203"><ele>51.0</ele><time>2026-05-01T12:43:10.001Z</time></trkpt><trkpt lat="44.19981022242108" lon="9.832608890696436"><ele>50.0</ele><time>2026-05-01T12:43:11.001Z</time></trkpt><trkpt lat="44.19983343602437" lon="9.832847615175158"><ele>57.66666666666667</ele><time>2026-05-01T12:43:12.001Z</time></trkpt><trkpt lat="44.19987553527609" lon="9.833083286615592"><ele>65.33333333333333</ele><time>2026-05-01T12:43:13.001Z</time></trkpt><trkpt lat="44.19990324528657" lon="9.83331186105865"><ele>73.0</ele><time>2026-05-01T12:43:14.001Z</time></trkpt><trkpt lat="44.19993246100108" lon="9.833509120714012"><ele>73.0</ele><time>2026-05-01T12:43:15.001Z</time></trkpt><trkpt lat="44.19992987761993" lon="9.833681315050852"><ele>73.0</ele><time>2026-05-01T12:43:16.001Z</time></trkpt><trkpt lat="44.19989863202658" lon="9.833828184335717"><ele>73.0</ele><time>2026-05-01T12:43:17.001Z</time></trkpt><trkpt lat="44.19984123749049" lon="9.833996062273126"><ele>73.0</ele><time>2026-05-01T12:43:18.001Z</time></trkpt><trkpt lat="44.199799077692646" lon="9.83418994564228"><ele>63.666666666666664</ele><time>2026-05-01T12:43:19.001Z</time></trkpt><trkpt lat="44.199778156699765" lon="9.834393689605522"><ele>54.33333333333333</ele><time>2026-05-01T12:43:20.001Z</time></trkpt><trkpt lat="44.19975572564126" lon="9.834612173940963"><ele>45.0</ele><time>2026-05-01T12:43:21.001Z</time></trkpt><trkpt lat="44.199734075902086" lon="9.834834957532399"><ele>45.0</ele><time>2026-05-01T12:43:22.001Z</time></trkpt><trkpt lat="44.19969058098812" lon="9.835059388318353"><ele>45.0</ele><time>2026-05-01T12:43:23.001Z</time></trkpt><trkpt lat="44.1996720255969" lon="9.835297172287992"><ele>45.0</ele><time>2026-05-01T12:43:24.001Z</time></trkpt><trkpt lat="44.19968015966933" lon="9.835540757599507"><ele>45.0</ele><time>2026-05-01T12:43:25.001Z</time></trkpt><trkpt lat="44.19968385709534" lon="9.835792028190028"><ele>45.0</ele><time>2026-05-01T12:43:26.001Z</time></trkpt><trkpt lat="44.19969386303161" lon="9.836045921737895"><ele>45.0</ele><time>2026-05-01T12:43:27.001Z</time></trkpt><trkpt lat="44.19969970092545" lon="9.836311366024036"><ele>45.0</ele><time>2026-05-01T12:43:28.001Z</time></trkpt><trkpt lat="44.19971988947702" lon="9.836579926939669"><ele>45.0</ele><time>2026-05-01T12:43:29.001Z</time></trkpt><trkpt lat="44.19975512268362" lon="9.836847371282305"><ele>45.0</ele><time>2026-05-01T12:43:30.001Z</time></trkpt><trkpt lat="44.199797802057596" lon="9.837118317500513"><ele>46.33333333333333</ele><time>2026-05-01T12:43:31.001Z</time></trkpt><trkpt lat="44.19984012175325" lon="9.837389362323703"><ele>47.666666666666664</ele><time>2026-05-01T12:43:32.001Z</time></trkpt><trkpt lat="44.199867084487174" lon="9.837649507013124"><ele>49.0</ele><time>2026-05-01T12:43:33.001Z</time></trkpt><trkpt lat="44.19987528245003" lon="9.83789001614307"><ele>49.0</ele><time>2026-05-01T12:43:34.001Z</time></trkpt><trkpt lat="44.199881507767024" lon="9.838122966182308"><ele>49.0</ele><time>2026-05-01T12:43:35.001Z</time></trkpt><trkpt lat="44.19987905047613" lon="9.838355094563617"><ele>49.0</ele><time>2026-05-01T12:43:36.001Z</time></trkpt><trkpt lat="44.19990417971854" lon="9.838572314123805"><ele>49.25</ele><time>2026-05-01T12:43:37.001Z</time></trkpt><trkpt lat="44.19992767675147" lon="9.838753484860451"><ele>49.5</ele><time>2026-05-01T12:43:38.001Z</time></trkpt><trkpt lat="44.19997079612957" lon="9.838915131225543"><ele>49.75</ele><time>2026-05-01T12:43:39.001Z</time></trkpt><trkpt lat="44.20001850969937" lon="9.839064772796508"><ele>50.0</ele><time>2026-05-01T12:43:40.001Z</time></trkpt><trkpt lat="44.20006484680443" lon="9.839186196592241"><ele>49.8</ele><time>2026-05-01T12:43:41.001Z</time></trkpt><trkpt lat="44.20009793329049" lon="9.839313497113258"><ele>49.6</ele><time>2026-05-01T12:43:42.001Z</time></trkpt><trkpt lat="44.200129378623295" lon="9.839428535480653"><ele>49.400000000000006</ele><time>2026-05-01T12:43:43.001Z</time></trkpt><trkpt lat="44.20016465856459" lon="9.839549380475882"><ele>49.2</ele><time>2026-05-01T12:43:44.001Z</time></trkpt><trkpt lat="44.200200496942614" lon="9.839673118599451"><ele>49.0</ele><time>2026-05-01T12:43:45.001Z</time></trkpt><trkpt lat="44.20022761173203" lon="9.83981633327901"><ele>49.0</ele><time>2026-05-01T12:43:46.001Z</time></trkpt><trkpt lat="44.20024897509414" lon="9.839975886337529"><ele>49.0</ele><time>2026-05-01T12:43:47.001Z</time></trkpt><trkpt lat="44.200264396942394" lon="9.840135463694633"><ele>49.0</ele><time>2026-05-01T12:43:48.001Z</time></trkpt><trkpt lat="44.20028149212294" lon="9.840294288606293"><ele>49.0</ele><time>2026-05-01T12:43:49.001Z</time></trkpt><trkpt lat="44.20030422389271" lon="9.84045265750237"><ele>48.800000000000004</ele><time>2026-05-01T12:43:50.001Z</time></trkpt><trkpt lat="44.200342100816286" lon="9.840602838840239"><ele>48.6</ele><time>2026-05-01T12:43:51.002Z</time></trkpt><trkpt lat="44.200390903845545" lon="9.84074509363992"><ele>48.4</ele><time>2026-05-01T12:43:52.002Z</time></trkpt><trkpt lat="44.20044869131868" lon="9.840874496811853"><ele>48.2</ele><time>2026-05-01T12:43:53.002Z</time></trkpt><trkpt lat="44.20050660201856" lon="9.840996384956968"><ele>48.0</ele><time>2026-05-01T12:43:54.002Z</time></trkpt><trkpt lat="44.20056064991205" lon="9.841120826285303"><ele>47.8</ele><time>2026-05-01T12:43:55.002Z</time></trkpt><trkpt lat="44.200604472772866" lon="9.841249683227623"><ele>47.599999999999994</ele><time>2026-05-01T12:43:56.002Z</time></trkpt><trkpt lat="44.20063554312055" lon="9.841383477105564"><ele>47.400000000000006</ele><time>2026-05-01T12:43:57.002Z</time></trkpt><trkpt lat="44.20065248683407" lon="9.841514470531598"><ele>47.2</ele><time>2026-05-01T12:43:58.002Z</time></trkpt><trkpt lat="44.20064228943183" lon="9.841640255328068"><ele>47.0</ele><time>2026-05-01T12:43:59.002Z</time></trkpt><trkpt lat="44.20064718798921" lon="9.841751042490108"><ele>47.0</ele><time>2026-05-01T12:44:00.002Z</time></trkpt><trkpt lat="44.20064948890762" lon="9.841858044289454"><ele>47.0</ele><time>2026-05-01T12:44:01.002Z</time></trkpt><trkpt lat="44.200667903557644" lon="9.841965277737762"><ele>47.0</ele><time>2026-05-01T12:44:02.002Z</time></trkpt><trkpt lat="44.20066752595349" lon="9.842079303249303"><ele>47.0</ele><time>2026-05-01T12:44:03.002Z</time></trkpt><trkpt lat="44.20066933717702" lon="9.842203870283186"><ele>47.0</ele><time>2026-05-01T12:44:04.002Z</time></trkpt><trkpt lat="44.20066567543359" lon="9.8423327933584"><ele>47.0</ele><time>2026-05-01T12:44:05.002Z</time></trkpt><trkpt lat="44.200681046449276" lon="9.842475099754715"><ele>48.25</ele><time>2026-05-01T12:44:06.002Z</time></trkpt><trkpt lat="44.20069448718671" lon="9.842628052539967"><ele>49.5</ele><time>2026-05-01T12:44:07.002Z</time></trkpt><trkpt lat="44.2007079944024" lon="9.842784486750755"><ele>50.75</ele><time>2026-05-01T12:44:08.002Z</time></trkpt><trkpt lat="44.20072195106635" lon="9.842946784721851"><ele>52.0</ele><time>2026-05-01T12:44:09.002Z</time></trkpt><trkpt lat="44.20074750533297" lon="9.843112861475634"><ele>52.0</ele><time>2026-05-01T12:44:10.002Z</time></trkpt><trkpt lat="44.20077338391009" lon="9.843280889185252"><ele>52.0</ele><time>2026-05-01T12:44:11.002Z</time></trkpt><trkpt lat="44.200798159350974" lon="9.843440895623738"><ele>52.0</ele><time>2026-05-01T12:44:12.002Z</time></trkpt><trkpt lat="44.20080842674436" lon="9.843604507628324"><ele>52.0</ele><time>2026-05-01T12:44:13.002Z</time></trkpt><trkpt lat="44.200771933420214" lon="9.843763151680259"><ele>53.25</ele><time>2026-05-01T12:44:14.002Z</time></trkpt><trkpt lat="44.20074320417949" lon="9.843923478099741"><ele>54.5</ele><time>2026-05-01T12:44:15.002Z</time></trkpt><trkpt lat="44.200720156019464" lon="9.844080845904267"><ele>55.75</ele><time>2026-05-01T12:44:16.002Z</time></trkpt><trkpt lat="44.20068398944332" lon="9.844229606703756"><ele>57.0</ele><time>2026-05-01T12:44:17.002Z</time></trkpt><trkpt lat="44.2006377710591" lon="9.844375341189206"><ele>54.25</ele><time>2026-05-01T12:44:18.002Z</time></trkpt><trkpt lat="44.20056288728012" lon="9.844494619746264"><ele>51.5</ele><time>2026-05-01T12:44:19.002Z</time></trkpt><trkpt lat="44.200487892157064" lon="9.844617054357538"><ele>48.75</ele><time>2026-05-01T12:44:20.002Z</time></trkpt><trkpt lat="44.200420135871724" lon="9.844748001140687"><ele>46.0</ele><time>2026-05-01T12:44:21.002Z</time></trkpt><trkpt lat="44.20037043690862" lon="9.844903899018174"><ele>46.0</ele><time>2026-05-01T12:44:22.002Z</time></trkpt><trkpt lat="44.20030699569025" lon="9.845061269059112"><ele>46.0</ele><time>2026-05-01T12:44:23.002Z</time></trkpt><trkpt lat="44.20023320180641" lon="9.845244896807898"><ele>46.0</ele><time>2026-05-01T12:44:24.002Z</time></trkpt><trkpt lat="44.20015995921096" lon="9.845418125897917"><ele>46.0</ele><time>2026-05-01T12:44:25.002Z</time></trkpt><trkpt lat="44.20008015179972" lon="9.845552307666434"><ele>46.0</ele><time>2026-05-01T12:44:26.002Z</time></trkpt><trkpt lat="44.200018331749376" lon="9.845680124387247"><ele>46.0</ele><time>2026-05-01T12:44:27.002Z</time></trkpt><trkpt lat="44.199954613670236" lon="9.845810450026015"><ele>46.0</ele><time>2026-05-01T12:44:28.002Z</time></trkpt><trkpt lat="44.19987341507646" lon="9.845978573951383"><ele>46.0</ele><time>2026-05-01T12:44:29.002Z</time></trkpt><trkpt lat="44.19978117139721" lon="9.84617781323232"><ele>46.0</ele><time>2026-05-01T12:44:30.002Z</time></trkpt><trkpt lat="44.199714504333805" lon="9.84643348447412"><ele>46.0</ele><time>2026-05-01T12:44:31.002Z</time></trkpt><trkpt lat="44.19964045818432" lon="9.846692086073837"><ele>46.0</ele><time>2026-05-01T12:44:32.003Z</time></trkpt><trkpt lat="44.19957080269009" lon="9.846970373981696"><ele>47.5</ele><time>2026-05-01T12:44:33.003Z</time></trkpt><trkpt lat="44.19949697779332" lon="9.847273640011524"><ele>49.0</ele><time>2026-05-01T12:44:33.999Z</time></trkpt><trkpt lat="44.19942721135948" lon="9.847572457183173"><ele>49.666666666666664</ele><time>2026-05-01T12:44:34.999Z</time></trkpt><trkpt lat="44.19936790857237" lon="9.84786644590862"><ele>50.33333333333333</ele><time>2026-05-01T12:44:35.999Z</time></trkpt><trkpt lat="44.19931656490972" lon="9.84815150232871"><ele>51.0</ele><time>2026-05-01T12:44:36.999Z</time></trkpt><trkpt lat="44.199271202049616" lon="9.848414663948672"><ele>50.25</ele><time>2026-05-01T12:44:37.999Z</time></trkpt><trkpt lat="44.199217234072776" lon="9.848651579524407"><ele>49.5</ele><time>2026-05-01T12:44:38.999Z</time></trkpt><trkpt lat="44.19916901625145" lon="9.848855468942759"><ele>48.75</ele><time>2026-05-01T12:44:39.999Z</time></trkpt><trkpt lat="44.19911371357421" lon="9.848977049639126"><ele>48.0</ele><time>2026-05-01T12:44:40.999Z</time></trkpt><trkpt lat="44.19905256658766" lon="9.849055412211605"><ele>46.333333333333336</ele><time>2026-05-01T12:44:41.999Z</time></trkpt><trkpt lat="44.19899394919847" lon="9.84910446768551"><ele>44.666666666666664</ele><time>2026-05-01T12:44:42.999Z</time></trkpt><trkpt lat="44.198910532784375" lon="9.84914624975034"><ele>43.0</ele><time>2026-05-01T12:44:44.999Z</time></trkpt><trkpt lat="44.19882300175649" lon="9.849167771666604"><ele>41.33333333333333</ele><time>2026-05-01T12:44:46.999Z</time></trkpt><trkpt lat="44.19872654209136" lon="9.849169771951964"><ele>39.666666666666664</ele><time>2026-05-01T12:45:45.001Z</time></trkpt><trkpt lat="44.19864747837858" lon="9.849188920573456"><ele>38.0</ele><time>2026-05-01T12:45:46.001Z</time></trkpt><trkpt lat="44.19855644407006" lon="9.849143932623786"><ele>38.0</ele><time>2026-05-01T12:45:47.001Z</time></trkpt><trkpt lat="44.19843867635855" lon="9.849141082553738"><ele>38.0</ele><time>2026-05-01T12:45:48.001Z</time></trkpt><trkpt lat="44.19830785368727" lon="9.849137916543913"><ele>38.0</ele><time>2026-05-01T12:45:49.001Z</time></trkpt><trkpt lat="44.19817592300554" lon="9.8491344395285"><ele>38.0</ele><time>2026-05-01T12:45:50.001Z</time></trkpt><trkpt lat="44.19802696789033" lon="9.84913012198811"><ele>39.0</ele><time>2026-05-01T12:45:51.001Z</time></trkpt><trkpt lat="44.19786811508639" lon="9.84912499513077"><ele>40.0</ele><time>2026-05-01T12:45:52.001Z</time></trkpt><trkpt lat="44.197710523340206" lon="9.849120196873889"><ele>41.0</ele><time>2026-05-01T12:45:53.001Z</time></trkpt><trkpt lat="44.1975657886277" lon="9.84911579007949"><ele>41.0</ele><time>2026-05-01T12:45:54.001Z</time></trkpt><trkpt lat="44.19743948939961" lon="9.849111944597924"><ele>41.0</ele><time>2026-05-01T12:45:55.001Z</time></trkpt><trkpt lat="44.197335755528485" lon="9.849106116081023"><ele>41.0</ele><time>2026-05-01T12:45:56.001Z</time></trkpt><trkpt lat="44.19725446007333" lon="9.849108540569318"><ele>41.0</ele><time>2026-05-01T12:45:57.002Z</time></trkpt><trkpt lat="44.197193768212365" lon="9.84913791989746"><ele>41.0</ele><time>2026-05-01T12:45:58.002Z</time></trkpt><trkpt lat="44.19713905998727" lon="9.849209321369763"><ele>45.0</ele><time>2026-05-01T12:45:59.002Z</time></trkpt><trkpt lat="44.19710678581969" lon="9.84936028599088"><ele>49.0</ele><time>2026-05-01T12:46:00.002Z</time></trkpt><trkpt lat="44.19706355265157" lon="9.849537650449056"><ele>53.0</ele><time>2026-05-01T12:46:01.002Z</time></trkpt><trkpt lat="44.19702378031106" lon="9.849737931877135"><ele>57.0</ele><time>2026-05-01T12:46:02.002Z</time></trkpt><trkpt lat="44.19697835817942" lon="9.849929736219085"><ele>54.66666666666667</ele><time>2026-05-01T12:46:03.002Z</time></trkpt><trkpt lat="44.19692223122432" lon="9.850132205120598"><ele>52.333333333333336</ele><time>2026-05-01T12:46:04.002Z</time></trkpt><trkpt lat="44.1968566169148" lon="9.85035884695482"><ele>50.0</ele><time>2026-05-01T12:46:05.002Z</time></trkpt><trkpt lat="44.196790766323666" lon="9.850594384522784"><ele>50.0</ele><time>2026-05-01T12:46:06.002Z</time></trkpt><trkpt lat="44.19673145293112" lon="9.850820220758923"><ele>50.0</ele><time>2026-05-01T12:46:07.002Z</time></trkpt><trkpt lat="44.19668740353834" lon="9.851003648749122"><ele>50.0</ele><time>2026-05-01T12:46:08.002Z</time></trkpt><trkpt lat="44.19664516728276" lon="9.851137407875452"><ele>50.0</ele><time>2026-05-01T12:46:09.002Z</time></trkpt><trkpt lat="44.19658566620568" lon="9.851234889547564"><ele>50.5</ele><time>2026-05-01T12:46:10.002Z</time></trkpt><trkpt lat="44.19647632173782" lon="9.8512715730043"><ele>51.0</ele><time>2026-05-01T12:46:11.002Z</time></trkpt><trkpt lat="44.19636241573268" lon="9.85137282903396"><ele>51.5</ele><time>2026-05-01T12:46:12.002Z</time></trkpt><trkpt lat="44.196254489910984" lon="9.851489029002913"><ele>52.0</ele><time>2026-05-01T12:46:13.002Z</time></trkpt><trkpt lat="44.19618862141661" lon="9.851648746283747"><ele>50.0</ele><time>2026-05-01T12:46:14.002Z</time></trkpt><trkpt lat="44.19614329501645" lon="9.851806682210793"><ele>48.0</ele><time>2026-05-01T12:46:15.002Z</time></trkpt><trkpt lat="44.19607745599893" lon="9.851928134720056"><ele>46.0</ele><time>2026-05-01T12:46:16.002Z</time></trkpt><trkpt lat="44.19596627357823" lon="9.851973945119422"><ele>44.0</ele><time>2026-05-01T12:46:17.002Z</time></trkpt><trkpt lat="44.19584880536155" lon="9.85199940699807"><ele>44.0</ele><time>2026-05-01T12:46:18.002Z</time></trkpt><trkpt lat="44.19570754605651" lon="9.852035121961261"><ele>44.0</ele><time>2026-05-01T12:46:19.002Z</time></trkpt><trkpt lat="44.195551786408814" lon="9.852073785708718"><ele>44.0</ele><time>2026-05-01T12:46:20.002Z</time></trkpt><trkpt lat="44.19538438365284" lon="9.852127511552611"><ele>45.666666666666664</ele><time>2026-05-01T12:46:21.002Z</time></trkpt><trkpt lat="44.19522036881449" lon="9.852165555871721"><ele>47.33333333333333</ele><time>2026-05-01T12:46:22.002Z</time></trkpt><trkpt lat="44.195051122440624" lon="9.85218288949862"><ele>49.0</ele><time>2026-05-01T12:46:23.002Z</time></trkpt><trkpt lat="44.19488004503379" lon="9.852177278799859"><ele>49.666666666666664</ele><time>2026-05-01T12:46:24.002Z</time></trkpt><trkpt lat="44.19469358958553" lon="9.8521657035461"><ele>50.33333333333333</ele><time>2026-05-01T12:46:25.002Z</time></trkpt><trkpt lat="44.194503806163326" lon="9.852167029414248"><ele>51.0</ele><time>2026-05-01T12:46:26.002Z</time></trkpt><trkpt lat="44.194332396799844" lon="9.85216600699885"><ele>51.0</ele><time>2026-05-01T12:46:27.002Z</time></trkpt><trkpt lat="44.1941779155147" lon="9.852158852882734"><ele>51.0</ele><time>2026-05-01T12:46:28.002Z</time></trkpt><trkpt lat="44.19403854604726" lon="9.852140651536445"><ele>51.0</ele><time>2026-05-01T12:46:29.002Z</time></trkpt><trkpt lat="44.193936172774315" lon="9.852117500404843"><ele>51.0</ele><time>2026-05-01T12:46:30.002Z</time></trkpt><trkpt lat="44.19385550457577" lon="9.852068272750856"><ele>50.25</ele><time>2026-05-01T12:46:31.002Z</time></trkpt><trkpt lat="44.19379225548754" lon="9.851994747223888"><ele>49.5</ele><time>2026-05-01T12:46:32.002Z</time></trkpt><trkpt lat="44.1937231391586" lon="9.851890692520024"><ele>48.75</ele><time>2026-05-01T12:46:33.002Z</time></trkpt><trkpt lat="44.19362679496041" lon="9.85177445076732"><ele>48.0</ele><time>2026-05-01T12:46:34.002Z</time></trkpt><trkpt lat="44.1935247249907" lon="9.851635370353337"><ele>48.0</ele><time>2026-05-01T12:46:35.003Z</time></trkpt><trkpt lat="44.19341329908014" lon="9.85148839795135"><ele>48.0</ele><time>2026-05-01T12:46:36.003Z</time></trkpt><trkpt lat="44.19330010047043" lon="9.851351795138896"><ele>48.0</ele><time>2026-05-01T12:46:37.003Z</time></trkpt><trkpt lat="44.19318826298463" lon="9.851235197711834"><ele>48.0</ele><time>2026-05-01T12:46:38.003Z</time></trkpt><trkpt lat="44.19306006180736" lon="9.851151855685497"><ele>48.25</ele><time>2026-05-01T12:46:39.003Z</time></trkpt><trkpt lat="44.19293673839162" lon="9.851112560679239"><ele>48.5</ele><time>2026-05-01T12:46:40Z</time></trkpt><trkpt lat="44.192828828589704" lon="9.851119416574043"><ele>48.75</ele><time>2026-05-01T12:46:41Z</time></trkpt><trkpt lat="44.19272543174276" lon="9.851170480934988"><ele>49.0</ele><time>2026-05-01T12:46:42Z</time></trkpt><trkpt lat="44.19262124575163" lon="9.851279227454738"><ele>49.0</ele><time>2026-05-01T12:46:43Z</time></trkpt><trkpt lat="44.19248894458616" lon="9.851381459319544"><ele>49.0</ele><time>2026-05-01T12:46:44Z</time></trkpt><trkpt lat="44.19234885375556" lon="9.851502526088222"><ele>49.0</ele><time>2026-05-01T12:46:45Z</time></trkpt><trkpt lat="44.19219535739493" lon="9.851632543315933"><ele>49.0</ele><time>2026-05-01T12:46:46Z</time></trkpt><trkpt lat="44.192030367408755" lon="9.85174825649763"><ele>49.0</ele><time>2026-05-01T12:46:47Z</time></trkpt><trkpt lat="44.19185575013552" lon="9.851862691651865"><ele>49.0</ele><time>2026-05-01T12:46:48Z</time></trkpt><trkpt lat="44.19167792993707" lon="9.851977782999366"><ele>49.0</ele><time>2026-05-01T12:46:49Z</time></trkpt><trkpt lat="44.19150835408646" lon="9.852083117158177"><ele>49.0</ele><time>2026-05-01T12:46:50Z</time></trkpt><trkpt lat="44.19132384507926" lon="9.852195426990635"><ele>49.0</ele><time>2026-05-01T12:46:51Z</time></trkpt><trkpt lat="44.191144466755695" lon="9.852302687559877"><ele>49.666666666666664</ele><time>2026-05-01T12:46:52Z</time></trkpt><trkpt lat="44.19096249808103" lon="9.852411269404058"><ele>50.33333333333333</ele><time>2026-05-01T12:46:53Z</time></trkpt><trkpt lat="44.19078832916404" lon="9.852513227290109"><ele>51.0</ele><time>2026-05-01T12:46:54Z</time></trkpt><trkpt lat="44.19062765733076" lon="9.85260335927449"><ele>50.5</ele><time>2026-05-01T12:46:55Z</time></trkpt><trkpt lat="44.190479151033344" lon="9.852654981352055"><ele>50.0</ele><time>2026-05-01T12:46:56Z</time></trkpt><trkpt lat="44.190335726885735" lon="9.852659658811158"><ele>49.5</ele><time>2026-05-01T12:46:57Z</time></trkpt><trkpt lat="44.19018484601173" lon="9.852670108941476"><ele>49.0</ele><time>2026-05-01T12:46:58Z</time></trkpt><trkpt lat="44.19003647799631" lon="9.852555336780487"><ele>49.666666666666664</ele><time>2026-05-01T12:46:59Z</time></trkpt><trkpt lat="44.18986300189448" lon="9.852466631822603"><ele>50.33333333333333</ele><time>2026-05-01T12:47:00Z</time></trkpt><trkpt lat="44.18968807380051" lon="9.852375817115048"><ele>51.0</ele><time>2026-05-01T12:47:01Z</time></trkpt><trkpt lat="44.18951466756321" lon="9.8523076576844"><ele>51.0</ele><time>2026-05-01T12:47:02Z</time></trkpt><trkpt lat="44.18934954116375" lon="9.85222486887071"><ele>51.0</ele><time>2026-05-01T12:47:03Z</time></trkpt><trkpt lat="44.18919097013788" lon="9.852118257724248"><ele>51.0</ele><time>2026-05-01T12:47:04Z</time></trkpt><trkpt lat="44.18901226741808" lon="9.852067482705328"><ele>51.66666666666667</ele><time>2026-05-01T12:47:05Z</time></trkpt><trkpt lat="44.18882548330644" lon="9.852035262243783"><ele>52.333333333333336</ele><time>2026-05-01T12:47:06Z</time></trkpt><trkpt lat="44.18862577533622" lon="9.852052994376082"><ele>53.0</ele><time>2026-05-01T12:47:07Z</time></trkpt><trkpt lat="44.1884133272909" lon="9.852090972098683"><ele>53.0</ele><time>2026-05-01T12:47:08Z</time></trkpt><trkpt lat="44.18820551433206" lon="9.852127101182612"><ele>53.0</ele><time>2026-05-01T12:47:09Z</time></trkpt><trkpt lat="44.187995275856494" lon="9.852126902364672"><ele>53.0</ele><time>2026-05-01T12:47:10Z</time></trkpt><trkpt lat="44.18779490028556" lon="9.85214343692299"><ele>53.66666666666667</ele><time>2026-05-01T12:47:11Z</time></trkpt><trkpt lat="44.187603476187434" lon="9.85217671795768"><ele>54.33333333333333</ele><time>2026-05-01T12:47:12Z</time></trkpt><trkpt lat="44.18741296364057" lon="9.852174459309822"><ele>55.0</ele><time>2026-05-01T12:47:13.001Z</time></trkpt><trkpt lat="44.18721982641809" lon="9.852189261469215"><ele>57.5</ele><time>2026-05-01T12:47:14.001Z</time></trkpt><trkpt lat="44.187048109605115" lon="9.852217370348319"><ele>60.0</ele><time>2026-05-01T12:47:15.001Z</time></trkpt><trkpt lat="44.18691274203754" lon="9.852232927010377"><ele>62.5</ele><time>2026-05-01T12:47:16.001Z</time></trkpt><trkpt lat="44.18682312951743" lon="9.85228278460068"><ele>65.0</ele><time>2026-05-01T12:47:17.001Z</time></trkpt><trkpt lat="44.186733425111875" lon="9.852401703865914"><ele>65.0</ele><time>2026-05-01T12:47:18.001Z</time></trkpt><trkpt lat="44.186639221099334" lon="9.852575074922447"><ele>65.0</ele><time>2026-05-01T12:47:19.001Z</time></trkpt><trkpt lat="44.186532434007376" lon="9.85275620732648"><ele>65.0</ele><time>2026-05-01T12:47:20.001Z</time></trkpt><trkpt lat="44.1864078050311" lon="9.852905331918334"><ele>63.25</ele><time>2026-05-01T12:47:21.001Z</time></trkpt><trkpt lat="44.18629062957276" lon="9.853011670401475"><ele>61.5</ele><time>2026-05-01T12:47:22.001Z</time></trkpt><trkpt lat="44.1861712800184" lon="9.853089311083963"><ele>59.75</ele><time>2026-05-01T12:47:23.001Z</time></trkpt><trkpt lat="44.18604257684443" lon="9.85312118160809"><ele>58.0</ele><time>2026-05-01T12:47:24.001Z</time></trkpt><trkpt lat="44.18590828180762" lon="9.853124961114766"><ele>58.0</ele><time>2026-05-01T12:47:25.001Z</time></trkpt><trkpt lat="44.18575953651444" lon="9.853123761624962"><ele>58.0</ele><time>2026-05-01T12:47:26.001Z</time></trkpt><trkpt lat="44.185600085240694" lon="9.853139416805579"><ele>58.0</ele><time>2026-05-01T12:47:27.001Z</time></trkpt><trkpt lat="44.185436020880566" lon="9.853142717036604"><ele>56.666666666666664</ele><time>2026-05-01T12:47:28.001Z</time></trkpt><trkpt lat="44.185272621364305" lon="9.853148297565836"><ele>55.33333333333333</ele><time>2026-05-01T12:47:29.001Z</time></trkpt><trkpt lat="44.18511315269536" lon="9.853128529191512"><ele>54.0</ele><time>2026-05-01T12:47:30.001Z</time></trkpt><trkpt lat="44.18495433517863" lon="9.853127506736328"><ele>54.33333333333333</ele><time>2026-05-01T12:47:31.001Z</time></trkpt><trkpt lat="44.18479130681306" lon="9.853145843837623"><ele>54.666666666666664</ele><time>2026-05-01T12:47:32.001Z</time></trkpt><trkpt lat="44.184624685957715" lon="9.853145573513"><ele>55.0</ele><time>2026-05-01T12:47:33.001Z</time></trkpt><trkpt lat="44.184455255397964" lon="9.853152339089407"><ele>55.0</ele><time>2026-05-01T12:47:34.001Z</time></trkpt><trkpt lat="44.18429154918278" lon="9.853192539136108"><ele>55.0</ele><time>2026-05-01T12:47:35.001Z</time></trkpt><trkpt lat="44.184143040873266" lon="9.853270469458431"><ele>55.0</ele><time>2026-05-01T12:47:36.001Z</time></trkpt><trkpt lat="44.18401665819768" lon="9.85339042936249"><ele>51.25</ele><time>2026-05-01T12:47:37.001Z</time></trkpt><trkpt lat="44.18389705369191" lon="9.85351138181691"><ele>47.5</ele><time>2026-05-01T12:47:38.001Z</time></trkpt><trkpt lat="44.183772588615916" lon="9.853536985980565"><ele>43.75</ele><time>2026-05-01T12:47:39.001Z</time></trkpt><trkpt lat="44.183643423305476" lon="9.85353562323918"><ele>40.0</ele><time>2026-05-01T12:47:40.001Z</time></trkpt><trkpt lat="44.183512129796526" lon="9.853487033683072"><ele>40.0</ele><time>2026-05-01T12:47:41.001Z</time></trkpt><trkpt lat="44.18336480067802" lon="9.853456433900595"><ele>40.0</ele><time>2026-05-01T12:47:42.001Z</time></trkpt><trkpt lat="44.183220398291525" lon="9.853470293715295"><ele>40.0</ele><time>2026-05-01T12:47:43.001Z</time></trkpt><trkpt lat="44.183075734148446" lon="9.853514735215668"><ele>40.0</ele><time>2026-05-01T12:47:44.001Z</time></trkpt><trkpt lat="44.18293424105132" lon="9.853577385117676"><ele>39.75</ele><time>2026-05-01T12:47:45.001Z</time></trkpt><trkpt lat="44.18280019927699" lon="9.853591130360249"><ele>39.5</ele><time>2026-05-01T12:47:46.001Z</time></trkpt><trkpt lat="44.182659305461975" lon="9.853573138286505"><ele>39.25</ele><time>2026-05-01T12:47:47.001Z</time></trkpt><trkpt lat="44.182505966247476" lon="9.853559866057445"><ele>39.0</ele><time>2026-05-01T12:47:48.001Z</time></trkpt><trkpt lat="44.18234950012151" lon="9.853521320802692"><ele>39.666666666666664</ele><time>2026-05-01T12:47:49.001Z</time></trkpt><trkpt lat="44.182188664846635" lon="9.853500918787159"><ele>40.33333333333333</ele><time>2026-05-01T12:47:50.001Z</time></trkpt><trkpt lat="44.18202972514582" lon="9.853508820845741"><ele>41.0</ele><time>2026-05-01T12:47:51.002Z</time></trkpt><trkpt lat="44.18186482216907" lon="9.85355781698343"><ele>41.0</ele><time>2026-05-01T12:47:52.002Z</time></trkpt><trkpt lat="44.1817023254068" lon="9.853619654436413"><ele>41.0</ele><time>2026-05-01T12:47:53.002Z</time></trkpt><trkpt lat="44.18152851220941" lon="9.853672519846905"><ele>41.0</ele><time>2026-05-01T12:47:54.002Z</time></trkpt><trkpt lat="44.181341499632616" lon="9.853697929236654"><ele>41.33333333333333</ele><time>2026-05-01T12:47:55.002Z</time></trkpt><trkpt lat="44.181137017417804" lon="9.85374656800134"><ele>41.666666666666664</ele><time>2026-05-01T12:47:56.002Z</time></trkpt><trkpt lat="44.18093291178628" lon="9.85379829173016"><ele>42.0</ele><time>2026-05-01T12:47:57.002Z</time></trkpt><trkpt lat="44.180756174101454" lon="9.853844552831344"><ele>42.0</ele><time>2026-05-01T12:47:58.002Z</time></trkpt><trkpt lat="44.18060727163475" lon="9.85390034538422"><ele>42.0</ele><time>2026-05-01T12:47:59.002Z</time></trkpt><trkpt lat="44.18047295795691" lon="9.853871833342401"><ele>42.0</ele><time>2026-05-01T12:48:00.002Z</time></trkpt><trkpt lat="44.180338711840115" lon="9.853815217564206"><ele>42.0</ele><time>2026-05-01T12:48:01.002Z</time></trkpt><trkpt lat="44.180189361668305" lon="9.853745111925182"><ele>42.0</ele><time>2026-05-01T12:48:02.002Z</time></trkpt><trkpt lat="44.18002442796285" lon="9.853714065459364"><ele>42.0</ele><time>2026-05-01T12:48:03.002Z</time></trkpt><trkpt lat="44.179846267057954" lon="9.853738091227106"><ele>42.0</ele><time>2026-05-01T12:48:04.002Z</time></trkpt><trkpt lat="44.179670189412114" lon="9.853795089118563"><ele>42.333333333333336</ele><time>2026-05-01T12:48:05.002Z</time></trkpt><trkpt lat="44.17951307385765" lon="9.853844473884452"><ele>42.66666666666667</ele><time>2026-05-01T12:48:06.002Z</time></trkpt><trkpt lat="44.17936711676976" lon="9.853902438031286"><ele>43.0</ele><time>2026-05-01T12:48:07.002Z</time></trkpt><trkpt lat="44.179233192575616" lon="9.853985649594971"><ele>43.0</ele><time>2026-05-01T12:48:08.002Z</time></trkpt><trkpt lat="44.17909950146662" lon="9.85404602837027"><ele>43.0</ele><time>2026-05-01T12:48:09.002Z</time></trkpt><trkpt lat="44.17898157183745" lon="9.85412222617303"><ele>43.0</ele><time>2026-05-01T12:48:10.002Z</time></trkpt><trkpt lat="44.178870610194274" lon="9.854210808876331"><ele>43.0</ele><time>2026-05-01T12:48:11.002Z</time></trkpt><trkpt lat="44.17875026447972" lon="9.854274061140096"><ele>42.0</ele><time>2026-05-01T12:48:12.002Z</time></trkpt><trkpt lat="44.17863688441044" lon="9.854339165553204"><ele>41.0</ele><time>2026-05-01T12:48:13.002Z</time></trkpt><trkpt lat="44.17853153595071" lon="9.854405252486519"><ele>40.0</ele><time>2026-05-01T12:48:14.002Z</time></trkpt><trkpt lat="44.178424798375644" lon="9.854471208597241"><ele>39.0</ele><time>2026-05-01T12:48:15.002Z</time></trkpt><trkpt lat="44.178316488347065" lon="9.85453197008839"><ele>39.0</ele><time>2026-05-01T12:48:16.002Z</time></trkpt><trkpt lat="44.178194319911775" lon="9.8545843056596"><ele>39.0</ele><time>2026-05-01T12:48:17.002Z</time></trkpt><trkpt lat="44.178061978167925" lon="9.854590990596893"><ele>39.0</ele><time>2026-05-01T12:48:18.002Z</time></trkpt><trkpt lat="44.17792519289176" lon="9.85462383638882"><ele>39.0</ele><time>2026-05-01T12:48:19.002Z</time></trkpt><trkpt lat="44.177787930112586" lon="9.854632421577286"><ele>40.5</ele><time>2026-05-01T12:48:20.002Z</time></trkpt><trkpt lat="44.177649844154146" lon="9.85467738301432"><ele>42.0</ele><time>2026-05-01T12:48:21.002Z</time></trkpt><trkpt lat="44.17751001267925" lon="9.854750723044482"><ele>43.5</ele><time>2026-05-01T12:48:22.002Z</time></trkpt><trkpt lat="44.177368053441434" lon="9.854832614666718"><ele>45.0</ele><time>2026-05-01T12:48:23.002Z</time></trkpt><trkpt lat="44.17722183596213" lon="9.854920281189425"><ele>43.0</ele><time>2026-05-01T12:48:24.002Z</time></trkpt><trkpt lat="44.17707488871658" lon="9.855013761007028"><ele>41.0</ele><time>2026-05-01T12:48:25.002Z</time></trkpt><trkpt lat="44.17692457419141" lon="9.855112072041042"><ele>39.0</ele><time>2026-05-01T12:48:26.002Z</time></trkpt><trkpt lat="44.176765441058826" lon="9.855214438303923"><ele>39.0</ele><time>2026-05-01T12:48:27.002Z</time></trkpt><trkpt lat="44.17660649793873" lon="9.855333031269138"><ele>39.0</ele><time>2026-05-01T12:48:28.002Z</time></trkpt><trkpt lat="44.17645585030752" lon="9.855437921108226"><ele>39.0</ele><time>2026-05-01T12:48:29.002Z</time></trkpt><trkpt lat="44.17631580906504" lon="9.85553932842164"><ele>41.5</ele><time>2026-05-01T12:48:30.003Z</time></trkpt><trkpt lat="44.17617981867792" lon="9.85562885718194"><ele>44.0</ele><time>2026-05-01T12:48:31.003Z</time></trkpt><trkpt lat="44.17605641781745" lon="9.855717403149429"><ele>46.5</ele><time>2026-05-01T12:48:32.003Z</time></trkpt><trkpt lat="44.175937657141105" lon="9.855801229790934"><ele>49.0</ele><time>2026-05-01T12:48:33.003Z</time></trkpt><trkpt lat="44.175814435784915" lon="9.855887050276262"><ele>51.666666666666664</ele><time>2026-05-01T12:48:34.003Z</time></trkpt><trkpt lat="44.17567013218472" lon="9.855953310781244"><ele>54.33333333333333</ele><time>2026-05-01T12:48:35.003Z</time></trkpt><trkpt lat="44.17551557304015" lon="9.856039500873134"><ele>57.0</ele><time>2026-05-01T12:48:36.003Z</time></trkpt><trkpt lat="44.17535085931209" lon="9.856118692632686"><ele>51.333333333333336</ele><time>2026-05-01T12:48:37.003Z</time></trkpt><trkpt lat="44.17517035199334" lon="9.856197651674666"><ele>45.66666666666667</ele><time>2026-05-01T12:48:38.003Z</time></trkpt><trkpt lat="44.174980700509344" lon="9.856280345858295"><ele>40.0</ele><time>2026-05-01T12:48:39.003Z</time></trkpt><trkpt lat="44.17479764130668" lon="9.856360165535481"><ele>40.0</ele><time>2026-05-01T12:48:40.003Z</time></trkpt><trkpt lat="44.17463374403288" lon="9.856431242750128"><ele>40.0</ele><time>2026-05-01T12:48:41.003Z</time></trkpt><trkpt lat="44.17448573674624" lon="9.856513395940233"><ele>40.0</ele><time>2026-05-01T12:48:42.003Z</time></trkpt><trkpt lat="44.17434253728376" lon="9.856568845355493"><ele>40.0</ele><time>2026-05-01T12:48:43.003Z</time></trkpt><trkpt lat="44.17420131697024" lon="9.856594349570406"><ele>40.0</ele><time>2026-05-01T12:48:44.003Z</time></trkpt><trkpt lat="44.17405008713355" lon="9.856556512867416"><ele>40.0</ele><time>2026-05-01T12:48:45.003Z</time></trkpt><trkpt lat="44.173895176339904" lon="9.856505045050293"><ele>38.66666666666667</ele><time>2026-05-01T12:48:46Z</time></trkpt><trkpt lat="44.1737292204074" lon="9.856443431284827"><ele>37.333333333333336</ele><time>2026-05-01T12:48:47Z</time></trkpt><trkpt lat="44.173550951950524" lon="9.856396528468006"><ele>36.0</ele><time>2026-05-01T12:48:48Z</time></trkpt><trkpt lat="44.17336941978847" lon="9.856328391976023"><ele>36.0</ele><time>2026-05-01T12:48:49Z</time></trkpt><trkpt lat="44.17319923318802" lon="9.85626182148925"><ele>36.0</ele><time>2026-05-01T12:48:50Z</time></trkpt><trkpt lat="44.17303631032286" lon="9.856206661949948"><ele>36.0</ele><time>2026-05-01T12:48:51Z</time></trkpt><trkpt lat="44.172869481639594" lon="9.856145188419116"><ele>35.333333333333336</ele><time>2026-05-01T12:48:52Z</time></trkpt><trkpt lat="44.17270134851602" lon="9.856086905486245"><ele>34.66666666666667</ele><time>2026-05-01T12:48:53Z</time></trkpt><trkpt lat="44.17256183674648" lon="9.856046949228064"><ele>34.0</ele><time>2026-05-01T12:48:54Z</time></trkpt><trkpt lat="44.172404509797616" lon="9.856033146685215"><ele>35.0</ele><time>2026-05-01T12:48:55Z</time></trkpt><trkpt lat="44.17225515307515" lon="9.856076039116223"><ele>36.0</ele><time>2026-05-01T12:48:56Z</time></trkpt><trkpt lat="44.17209214746755" lon="9.856147777623764"><ele>37.0</ele><time>2026-05-01T12:48:57Z</time></trkpt><trkpt lat="44.17191265742903" lon="9.856194293343012"><ele>37.0</ele><time>2026-05-01T12:48:58Z</time></trkpt><trkpt lat="44.17173346988903" lon="9.856256867771682"><ele>37.0</ele><time>2026-05-01T12:48:59Z</time></trkpt><trkpt lat="44.171545201317464" lon="9.856322455934706"><ele>37.0</ele><time>2026-05-01T12:49:00Z</time></trkpt><trkpt lat="44.17136535340979" lon="9.85638141668743"><ele>37.66666666666667</ele><time>2026-05-01T12:49:01Z</time></trkpt><trkpt lat="44.1711916594055" lon="9.8564373917671"><ele>38.333333333333336</ele><time>2026-05-01T12:49:02Z</time></trkpt><trkpt lat="44.171038684191466" lon="9.856486212291571"><ele>39.0</ele><time>2026-05-01T12:49:03Z</time></trkpt><trkpt lat="44.17089364009848" lon="9.856532501653602"><ele>39.0</ele><time>2026-05-01T12:49:04Z</time></trkpt><trkpt lat="44.17075555451437" lon="9.85657734707123"><ele>39.0</ele><time>2026-05-01T12:49:05Z</time></trkpt><trkpt lat="44.17062697432893" lon="9.856620105746423"><ele>39.0</ele><time>2026-05-01T12:49:06Z</time></trkpt><trkpt lat="44.17049584635473" lon="9.8566824671163"><ele>39.0</ele><time>2026-05-01T12:49:07Z</time></trkpt><trkpt lat="44.17037148986043" lon="9.856733496778588"><ele>38.0</ele><time>2026-05-01T12:49:08Z</time></trkpt><trkpt lat="44.170235095085424" lon="9.856780444694571"><ele>37.0</ele><time>2026-05-01T12:49:09Z</time></trkpt><trkpt lat="44.1700930883308" lon="9.856826414511195"><ele>36.0</ele><time>2026-05-01T12:49:10Z</time></trkpt><trkpt lat="44.16995658116172" lon="9.856875712817406"><ele>35.0</ele><time>2026-05-01T12:49:11Z</time></trkpt><trkpt lat="44.16981164351966" lon="9.856901272476998"><ele>35.0</ele><time>2026-05-01T12:49:12Z</time></trkpt><trkpt lat="44.1696539130012" lon="9.856972607593859"><ele>35.0</ele><time>2026-05-01T12:49:13Z</time></trkpt><trkpt lat="44.169485309246404" lon="9.857023674211778"><ele>35.0</ele><time>2026-05-01T12:49:14Z</time></trkpt><trkpt lat="44.16931625988327" lon="9.857086058551934"><ele>35.0</ele><time>2026-05-01T12:49:15.001Z</time></trkpt><trkpt lat="44.169156278591494" lon="9.85714026084266"><ele>35.0</ele><time>2026-05-01T12:49:16.001Z</time></trkpt><trkpt lat="44.16900263057011" lon="9.857190453297823"><ele>35.0</ele><time>2026-05-01T12:49:17.001Z</time></trkpt><trkpt lat="44.168857434374104" lon="9.8572417488752"><ele>33.75</ele><time>2026-05-01T12:49:18.001Z</time></trkpt><trkpt lat="44.16871517060869" lon="9.85728476127514"><ele>32.5</ele><time>2026-05-01T12:49:19.001Z</time></trkpt><trkpt lat="44.16858098179265" lon="9.85736651919936"><ele>31.25</ele><time>2026-05-01T12:49:20.001Z</time></trkpt><trkpt lat="44.16845305910078" lon="9.857485423184768"><ele>30.0</ele><time>2026-05-01T12:49:21.001Z</time></trkpt><trkpt lat="44.16834756188155" lon="9.857641505209054"><ele>30.0</ele><time>2026-05-01T12:49:22.001Z</time></trkpt><trkpt lat="44.16825607248362" lon="9.857814490257187"><ele>30.0</ele><time>2026-05-01T12:49:23.001Z</time></trkpt><trkpt lat="44.16815410143855" lon="9.857957003990375"><ele>30.0</ele><time>2026-05-01T12:49:24.001Z</time></trkpt><trkpt lat="44.1680699918473" lon="9.858131487656292"><ele>30.0</ele><time>2026-05-01T12:49:25.001Z</time></trkpt><trkpt lat="44.167971050024796" lon="9.858298098478839"><ele>29.0</ele><time>2026-05-01T12:49:26.001Z</time></trkpt><trkpt lat="44.1678533440478" lon="9.85845651981458"><ele>28.0</ele><time>2026-05-01T12:49:27.001Z</time></trkpt><trkpt lat="44.16775142722039" lon="9.85862540037943"><ele>27.0</ele><time>2026-05-01T12:49:28.001Z</time></trkpt><trkpt lat="44.16764860617784" lon="9.858795779268053"><ele>27.0</ele><time>2026-05-01T12:49:29.001Z</time></trkpt><trkpt lat="44.16754608506542" lon="9.858965661161806"><ele>27.0</ele><time>2026-05-01T12:49:30.001Z</time></trkpt><trkpt lat="44.16743697387164" lon="9.859146463114223"><ele>27.0</ele><time>2026-05-01T12:49:31.001Z</time></trkpt><trkpt lat="44.16733111728105" lon="9.859321872023695"><ele>27.666666666666664</ele><time>2026-05-01T12:49:32.001Z</time></trkpt><trkpt lat="44.16723716911885" lon="9.859509548911792"><ele>28.333333333333332</ele><time>2026-05-01T12:49:33.001Z</time></trkpt><trkpt lat="44.16712960502747" lon="9.859679191540145"><ele>29.0</ele><time>2026-05-01T12:49:34.001Z</time></trkpt><trkpt lat="44.167027297542056" lon="9.85985109618393"><ele>29.0</ele><time>2026-05-01T12:49:35.001Z</time></trkpt><trkpt lat="44.16692172603672" lon="9.860030272037777"><ele>29.0</ele><time>2026-05-01T12:49:36.001Z</time></trkpt><trkpt lat="44.16682206847437" lon="9.860187579414385"><ele>29.0</ele><time>2026-05-01T12:49:37.001Z</time></trkpt><trkpt lat="44.166706019323435" lon="9.860321897305168"><ele>29.0</ele><time>2026-05-01T12:49:38.001Z</time></trkpt><trkpt lat="44.16658930875518" lon="9.86046039965394"><ele>29.0</ele><time>2026-05-01T12:49:39.001Z</time></trkpt><trkpt lat="44.16645624554338" lon="9.860559893237614"><ele>29.0</ele><time>2026-05-01T12:49:40.001Z</time></trkpt><trkpt lat="44.166314546793856" lon="9.860642375452445"><ele>29.0</ele><time>2026-05-01T12:49:41.001Z</time></trkpt><trkpt lat="44.16616646267262" lon="9.860753317199642"><ele>29.0</ele><time>2026-05-01T12:49:42.001Z</time></trkpt><trkpt lat="44.16600262304674" lon="9.860847926059629"><ele>29.0</ele><time>2026-05-01T12:49:43.001Z</time></trkpt><trkpt lat="44.16584006139578" lon="9.860947944673171"><ele>29.0</ele><time>2026-05-01T12:49:44.001Z</time></trkpt><trkpt lat="44.16568493598439" lon="9.861045884339237"><ele>29.0</ele><time>2026-05-01T12:49:45.001Z</time></trkpt><trkpt lat="44.16553715132836" lon="9.861138857010657"><ele>29.0</ele><time>2026-05-01T12:49:46.001Z</time></trkpt><trkpt lat="44.16538608925957" lon="9.86120538408646"><ele>29.0</ele><time>2026-05-01T12:49:47.001Z</time></trkpt><trkpt lat="44.165242306362465" lon="9.861313568714792"><ele>29.0</ele><time>2026-05-01T12:49:48.001Z</time></trkpt><trkpt lat="44.16509697345023" lon="9.86140028001551"><ele>29.0</ele><time>2026-05-01T12:49:49.001Z</time></trkpt><trkpt lat="44.1649505436337" lon="9.86148483100172"><ele>29.0</ele><time>2026-05-01T12:49:50.001Z</time></trkpt><trkpt lat="44.164805822264846" lon="9.861576267636469"><ele>29.0</ele><time>2026-05-01T12:49:51.001Z</time></trkpt><trkpt lat="44.16466016872106" lon="9.861667188799164"><ele>29.0</ele><time>2026-05-01T12:49:52.001Z</time></trkpt><trkpt lat="44.16452514015853" lon="9.861746111654456"><ele>28.75</ele><time>2026-05-01T12:49:53.001Z</time></trkpt><trkpt lat="44.164402102659544" lon="9.861799360583733"><ele>28.5</ele><time>2026-05-01T12:49:54.002Z</time></trkpt><trkpt lat="44.164303848288945" lon="9.861887851130769"><ele>28.25</ele><time>2026-05-01T12:49:55.002Z</time></trkpt><trkpt lat="44.16419839509058" lon="9.861949293122048"><ele>28.0</ele><time>2026-05-01T12:49:56.002Z</time></trkpt><trkpt lat="44.16408853202186" lon="9.86201184184681"><ele>28.5</ele><time>2026-05-01T12:49:57.002Z</time></trkpt><trkpt lat="44.16398416075837" lon="9.86207228016487"><ele>29.0</ele><time>2026-05-01T12:49:58.002Z</time></trkpt><trkpt lat="44.16388247484498" lon="9.862131954674938"><ele>29.5</ele><time>2026-05-01T12:49:59.002Z</time></trkpt><trkpt lat="44.163777501953476" lon="9.862196063713432"><ele>30.0</ele><time>2026-05-01T12:50:00.002Z</time></trkpt><trkpt lat="44.163668882633694" lon="9.862241697895119"><ele>30.0</ele><time>2026-05-01T12:50:01.002Z</time></trkpt><trkpt lat="44.1635715941048" lon="9.862300735517204"><ele>30.0</ele><time>2026-05-01T12:50:02.002Z</time></trkpt><trkpt lat="44.16346982785296" lon="9.862362490356533"><ele>30.0</ele><time>2026-05-01T12:50:03.002Z</time></trkpt><trkpt lat="44.16336204311771" lon="9.862427897389543"><ele>30.0</ele><time>2026-05-01T12:50:04.002Z</time></trkpt><trkpt lat="44.1632603884214" lon="9.86250960047912"><ele>29.8</ele><time>2026-05-01T12:50:05.002Z</time></trkpt><trkpt lat="44.16316659464796" lon="9.862570516135873"><ele>29.6</ele><time>2026-05-01T12:50:06.002Z</time></trkpt><trkpt lat="44.16306663757164" lon="9.862607158404666"><ele>29.4</ele><time>2026-05-01T12:50:07.002Z</time></trkpt><trkpt lat="44.16297529421352" lon="9.862682995476174"><ele>29.2</ele><time>2026-05-01T12:50:08.002Z</time></trkpt><trkpt lat="44.16287324426518" lon="9.862740721740645"><ele>29.0</ele><time>2026-05-01T12:50:09.002Z</time></trkpt><trkpt lat="44.162766862047704" lon="9.862805527229579"><ele>28.75</ele><time>2026-05-01T12:50:10.002Z</time></trkpt><trkpt lat="44.16266327110463" lon="9.8628663732229"><ele>28.5</ele><time>2026-05-01T12:50:11.002Z</time></trkpt><trkpt lat="44.162558594146105" lon="9.862932944024475"><ele>28.25</ele><time>2026-05-01T12:50:12.002Z</time></trkpt><trkpt lat="44.16245616096477" lon="9.863000986531405"><ele>28.0</ele><time>2026-05-01T12:50:13.002Z</time></trkpt><trkpt lat="44.16234732654364" lon="9.863061042963247"><ele>28.0</ele><time>2026-05-01T12:50:14.002Z</time></trkpt><trkpt lat="44.162238141795456" lon="9.863128740289156"><ele>28.0</ele><time>2026-05-01T12:50:15.002Z</time></trkpt><trkpt lat="44.16212759120138" lon="9.863193537783287"><ele>28.0</ele><time>2026-05-01T12:50:16.002Z</time></trkpt><trkpt lat="44.1620198988315" lon="9.863258929660802"><ele>28.0</ele><time>2026-05-01T12:50:17.002Z</time></trkpt><trkpt lat="44.16190566215502" lon="9.863326677237923"><ele>28.0</ele><time>2026-05-01T12:50:18.002Z</time></trkpt><trkpt lat="44.16179420586076" lon="9.863399253463108"><ele>28.0</ele><time>2026-05-01T12:50:19.002Z</time></trkpt><trkpt lat="44.16168306612051" lon="9.863473520026684"><ele>28.0</ele><time>2026-05-01T12:50:20.002Z</time></trkpt><trkpt lat="44.16156373362285" lon="9.863545513679167"><ele>28.0</ele><time>2026-05-01T12:50:21.002Z</time></trkpt><trkpt lat="44.161438892312724" lon="9.863615299816153"><ele>28.25</ele><time>2026-05-01T12:50:22.002Z</time></trkpt><trkpt lat="44.161312222466286" lon="9.863690385553866"><ele>28.5</ele><time>2026-05-01T12:50:23.002Z</time></trkpt><trkpt lat="44.16117867704435" lon="9.86376561843914"><ele>28.75</ele><time>2026-05-01T12:50:24.002Z</time></trkpt><trkpt lat="44.16104581600184" lon="9.863844928802456"><ele>29.0</ele><time>2026-05-01T12:50:25.002Z</time></trkpt><trkpt lat="44.160910257017754" lon="9.863926921335173"><ele>29.0</ele><time>2026-05-01T12:50:26.002Z</time></trkpt><trkpt lat="44.16078221969996" lon="9.864007931879138"><ele>29.0</ele><time>2026-05-01T12:50:27.002Z</time></trkpt><trkpt lat="44.16066196725675" lon="9.864085423303846"><ele>29.0</ele><time>2026-05-01T12:50:28.002Z</time></trkpt><trkpt lat="44.16054652460055" lon="9.864150779156779"><ele>29.0</ele><time>2026-05-01T12:50:29.002Z</time></trkpt><trkpt lat="44.16043334461274" lon="9.864223348236036"><ele>29.25</ele><time>2026-05-01T12:50:30.002Z</time></trkpt><trkpt lat="44.160317156148466" lon="9.864297645688987"><ele>29.5</ele><time>2026-05-01T12:50:31.002Z</time></trkpt><trkpt lat="44.160202725339765" lon="9.864374710784896"><ele>29.75</ele><time>2026-05-01T12:50:32.003Z</time></trkpt><trkpt lat="44.16008810342619" lon="9.864461239194673"><ele>30.0</ele><time>2026-05-01T12:50:33.003Z</time></trkpt><trkpt lat="44.15998986573289" lon="9.86458222648479"><ele>30.0</ele><time>2026-05-01T12:50:34.003Z</time></trkpt><trkpt lat="44.15990720039649" lon="9.864728218727743"><ele>30.0</ele><time>2026-05-01T12:50:35.003Z</time></trkpt><trkpt lat="44.159818063877644" lon="9.864867393814327"><ele>30.0</ele><time>2026-05-01T12:50:36.003Z</time></trkpt><trkpt lat="44.1597403550104" lon="9.865013096689362"><ele>30.0</ele><time>2026-05-01T12:50:37.003Z</time></trkpt><trkpt lat="44.15966297725176" lon="9.865164249158349"><ele>30.5</ele><time>2026-05-01T12:50:38.003Z</time></trkpt><trkpt lat="44.15958153966015" lon="9.865315326605923"><ele>31.0</ele><time>2026-05-01T12:50:39.003Z</time></trkpt><trkpt lat="44.15950064640658" lon="9.86546373501455"><ele>31.5</ele><time>2026-05-01T12:50:40.003Z</time></trkpt><trkpt lat="44.15942340611786" lon="9.86561880681789"><ele>32.0</ele><time>2026-05-01T12:50:41.003Z</time></trkpt><trkpt lat="44.15935276234698" lon="9.865778327768128"><ele>32.0</ele><time>2026-05-01T12:50:42.003Z</time></trkpt><trkpt lat="44.159280079841615" lon="9.865935685668331"><ele>32.0</ele><time>2026-05-01T12:50:43.003Z</time></trkpt><trkpt lat="44.159204795823" lon="9.866089076926052"><ele>32.0</ele><time>2026-05-01T12:50:44.003Z</time></trkpt><trkpt lat="44.15912535446719" lon="9.86624257020285"><ele>32.0</ele><time>2026-05-01T12:50:45.003Z</time></trkpt><trkpt lat="44.15904061511006" lon="9.866406136507726"><ele>31.666666666666664</ele><time>2026-05-01T12:50:46.003Z</time></trkpt><trkpt lat="44.15895602216926" lon="9.866575684729392"><ele>31.333333333333336</ele><time>2026-05-01T12:50:47.003Z</time></trkpt><trkpt lat="44.15887028054492" lon="9.86675441955779"><ele>31.0</ele><time>2026-05-01T12:50:48.003Z</time></trkpt><trkpt lat="44.158769010287564" lon="9.866913204344469"><ele>31.0</ele><time>2026-05-01T12:50:49.003Z</time></trkpt><trkpt lat="44.158682728047914" lon="9.867090716090104"><ele>31.0</ele><time>2026-05-01T12:50:50.003Z</time></trkpt><trkpt lat="44.15860710527301" lon="9.867281277824123"><ele>31.0</ele><time>2026-05-01T12:50:51.003Z</time></trkpt><trkpt lat="44.1585505408992" lon="9.86747676375998"><ele>30.333333333333336</ele><time>2026-05-01T12:50:52Z</time></trkpt><trkpt lat="44.15850165152413" lon="9.867686167931886"><ele>29.666666666666664</ele><time>2026-05-01T12:50:53Z</time></trkpt><trkpt lat="44.15846773201752" lon="9.867905224583977"><ele>29.0</ele><time>2026-05-01T12:50:54Z</time></trkpt><trkpt lat="44.15844353702888" lon="9.868125598318766"><ele>29.0</ele><time>2026-05-01T12:50:55Z</time></trkpt><trkpt lat="44.15843338282347" lon="9.868359283614037"><ele>29.0</ele><time>2026-05-01T12:50:56Z</time></trkpt><trkpt lat="44.15844744824009" lon="9.868593065451762"><ele>29.0</ele><time>2026-05-01T12:50:57Z</time></trkpt><trkpt lat="44.15848463528494" lon="9.868819401285466"><ele>28.75</ele><time>2026-05-01T12:50:58Z</time></trkpt><trkpt lat="44.15850984170276" lon="9.869051630381701"><ele>28.5</ele><time>2026-05-01T12:50:59Z</time></trkpt><trkpt lat="44.15853104619113" lon="9.869253195746216"><ele>28.25</ele><time>2026-05-01T12:51:00Z</time></trkpt><trkpt lat="44.15855061986974" lon="9.869437551596599"><ele>28.0</ele><time>2026-05-01T12:51:01Z</time></trkpt><trkpt lat="44.158563575622026" lon="9.869607592733411"><ele>27.75</ele><time>2026-05-01T12:51:02Z</time></trkpt><trkpt lat="44.15858928594128" lon="9.869781709952623"><ele>27.5</ele><time>2026-05-01T12:51:03Z</time></trkpt><trkpt lat="44.158613674531665" lon="9.869958202493804"><ele>27.25</ele><time>2026-05-01T12:51:04Z</time></trkpt><trkpt lat="44.158634610339135" lon="9.870137791976395"><ele>27.0</ele><time>2026-05-01T12:51:05Z</time></trkpt><trkpt lat="44.15864973545458" lon="9.870330391621408"><ele>26.5</ele><time>2026-05-01T12:51:06Z</time></trkpt><trkpt lat="44.15867683701617" lon="9.8705206289249"><ele>26.0</ele><time>2026-05-01T12:51:07Z</time></trkpt><trkpt lat="44.15868322850584" lon="9.870718274263316"><ele>25.5</ele><time>2026-05-01T12:51:08Z</time></trkpt><trkpt lat="44.15870781948341" lon="9.870913800997407"><ele>25.0</ele><time>2026-05-01T12:51:09Z</time></trkpt><trkpt lat="44.15873327775289" lon="9.871116816610483"><ele>24.75</ele><time>2026-05-01T12:51:10Z</time></trkpt><trkpt lat="44.158771521054206" lon="9.871311917887862"><ele>24.5</ele><time>2026-05-01T12:51:11Z</time></trkpt><trkpt lat="44.158794422983995" lon="9.871514296776605"><ele>24.25</ele><time>2026-05-01T12:51:12Z</time></trkpt><trkpt lat="44.158816395534224" lon="9.87172169187693"><ele>24.0</ele><time>2026-05-01T12:51:13Z</time></trkpt><trkpt lat="44.158840836546645" lon="9.871925714541085"><ele>23.5</ele><time>2026-05-01T12:51:14Z</time></trkpt><trkpt lat="44.15886553498561" lon="9.872128194718059"><ele>23.0</ele><time>2026-05-01T12:51:15Z</time></trkpt><trkpt lat="44.158889250874026" lon="9.872329300857881"><ele>22.5</ele><time>2026-05-01T12:51:16Z</time></trkpt><trkpt lat="44.15891203162635" lon="9.872532420287204"><ele>22.0</ele><time>2026-05-01T12:51:17Z</time></trkpt><trkpt lat="44.15893674148578" lon="9.872742401111513"><ele>22.0</ele><time>2026-05-01T12:51:18Z</time></trkpt><trkpt lat="44.15895697025494" lon="9.8729589205643"><ele>22.0</ele><time>2026-05-01T12:51:19Z</time></trkpt><trkpt lat="44.15897886968611" lon="9.873175006644344"><ele>22.0</ele><time>2026-05-01T12:51:20Z</time></trkpt><trkpt lat="44.15900354676039" lon="9.873392173211792"><ele>21.75</ele><time>2026-05-01T12:51:21Z</time></trkpt><trkpt lat="44.15902751958647" lon="9.873598494689805"><ele>21.5</ele><time>2026-05-01T12:51:22Z</time></trkpt><trkpt lat="44.15904689161381" lon="9.873781933111408"><ele>21.25</ele><time>2026-05-01T12:51:23.001Z</time></trkpt><trkpt lat="44.15905559540301" lon="9.873948878139075"><ele>21.0</ele><time>2026-05-01T12:51:24.001Z</time></trkpt><trkpt lat="44.159049543941435" lon="9.87410439021192"><ele>21.0</ele><time>2026-05-01T12:51:25.001Z</time></trkpt><trkpt lat="44.159010362000025" lon="9.874253640217452"><ele>21.0</ele><time>2026-05-01T12:51:26.001Z</time></trkpt><trkpt lat="44.158955759183435" lon="9.874403562833749"><ele>21.0</ele><time>2026-05-01T12:51:27.001Z</time></trkpt><trkpt lat="44.15887239100693" lon="9.87454564550793"><ele>21.0</ele><time>2026-05-01T12:51:28.001Z</time></trkpt><trkpt lat="44.15875067481376" lon="9.874676206824603"><ele>21.333333333333332</ele><time>2026-05-01T12:51:29.001Z</time></trkpt><trkpt lat="44.1586202956379" lon="9.874828365068977"><ele>21.666666666666664</ele><time>2026-05-01T12:51:30.001Z</time></trkpt><trkpt lat="44.15847866472433" lon="9.874993527054563"><ele>22.0</ele><time>2026-05-01T12:51:31.001Z</time></trkpt><trkpt lat="44.158330526089706" lon="9.875166582228307"><ele>22.0</ele><time>2026-05-01T12:51:32.001Z</time></trkpt><trkpt lat="44.15818673297678" lon="9.875334513160883"><ele>22.0</ele><time>2026-05-01T12:51:33.001Z</time></trkpt><trkpt lat="44.158055605199834" lon="9.875512445495733"><ele>22.0</ele><time>2026-05-01T12:51:34.001Z</time></trkpt><trkpt lat="44.15792718306295" lon="9.875659387860807"><ele>22.0</ele><time>2026-05-01T12:51:35.001Z</time></trkpt><trkpt lat="44.15779795100517" lon="9.87580296861677"><ele>22.0</ele><time>2026-05-01T12:51:36.001Z</time></trkpt><trkpt lat="44.15767125179868" lon="9.875941015284354"><ele>22.0</ele><time>2026-05-01T12:51:37.001Z</time></trkpt><trkpt lat="44.15755406350079" lon="9.87608138362931"><ele>22.0</ele><time>2026-05-01T12:51:38.001Z</time></trkpt><trkpt lat="44.15744194835126" lon="9.876213171084194"><ele>22.0</ele><time>2026-05-01T12:51:39.001Z</time></trkpt><trkpt lat="44.15733053015008" lon="9.876347374627546"><ele>22.0</ele><time>2026-05-01T12:51:40.001Z</time></trkpt><trkpt lat="44.15721905756895" lon="9.876478778854223"><ele>22.0</ele><time>2026-05-01T12:51:41.001Z</time></trkpt><trkpt lat="44.1571060549982" lon="9.876601164222174"><ele>22.25</ele><time>2026-05-01T12:51:42.001Z</time></trkpt><trkpt lat="44.15699781361158" lon="9.876734602441251"><ele>22.5</ele><time>2026-05-01T12:51:43.001Z</time></trkpt><trkpt lat="44.15688573052405" lon="9.87685659724676"><ele>22.75</ele><time>2026-05-01T12:51:44.001Z</time></trkpt><trkpt lat="44.15677763074052" lon="9.876986149743678"><ele>23.0</ele><time>2026-05-01T12:51:45.001Z</time></trkpt><trkpt lat="44.156666782743706" lon="9.877118593915236"><ele>23.333333333333336</ele><time>2026-05-01T12:51:46.001Z</time></trkpt><trkpt lat="44.15655160184758" lon="9.87725172084268"><ele>23.666666666666668</ele><time>2026-05-01T12:51:47.001Z</time></trkpt><trkpt lat="44.156434537222616" lon="9.877384575025086"><ele>24.0</ele><time>2026-05-01T12:51:48.001Z</time></trkpt><trkpt lat="44.156316605004754" lon="9.87752222222166"><ele>24.0</ele><time>2026-05-01T12:51:49.001Z</time></trkpt><trkpt lat="44.156196616655045" lon="9.877663634019338"><ele>24.0</ele><time>2026-05-01T12:51:50.001Z</time></trkpt><trkpt lat="44.156064102203494" lon="9.877787106814425"><ele>24.0</ele><time>2026-05-01T12:51:51.001Z</time></trkpt><trkpt lat="44.15594240299932" lon="9.877927775025785"><ele>24.0</ele><time>2026-05-01T12:51:52.001Z</time></trkpt><trkpt lat="44.15584342358596" lon="9.878085497292666"><ele>24.0</ele><time>2026-05-01T12:51:53.001Z</time></trkpt><trkpt lat="44.15574112379165" lon="9.878209264449941"><ele>24.0</ele><time>2026-05-01T12:51:54.001Z</time></trkpt><trkpt lat="44.15563788714847" lon="9.878319162690438"><ele>24.0</ele><time>2026-05-01T12:51:55.001Z</time></trkpt><trkpt lat="44.155518795271945" lon="9.878468981033368"><ele>23.0</ele><time>2026-05-01T12:51:56.001Z</time></trkpt><trkpt lat="44.155359422189505" lon="9.878598425090464"><ele>22.0</ele><time>2026-05-01T12:51:57.001Z</time></trkpt><trkpt lat="44.15521980203484" lon="9.878757990689948"><ele>21.0</ele><time>2026-05-01T12:51:58.001Z</time></trkpt><trkpt lat="44.15510099206872" lon="9.878923035006483"><ele>21.0</ele><time>2026-05-01T12:51:59.001Z</time></trkpt><trkpt lat="44.15498162629972" lon="9.8790472061634"><ele>21.0</ele><time>2026-05-01T12:52:00.001Z</time></trkpt><trkpt lat="44.15487085057599" lon="9.879161742357063"><ele>21.0</ele><time>2026-05-01T12:52:01.001Z</time></trkpt><trkpt lat="44.154769383323675" lon="9.879262333514074"><ele>21.0</ele><time>2026-05-01T12:52:02.002Z</time></trkpt><trkpt lat="44.15467422556538" lon="9.879347349427317"><ele>21.0</ele><time>2026-05-01T12:52:03.002Z</time></trkpt><trkpt lat="44.1545825513485" lon="9.879443822707026"><ele>21.0</ele><time>2026-05-01T12:52:04.002Z</time></trkpt><trkpt lat="44.15449039689626" lon="9.879587524724966"><ele>21.0</ele><time>2026-05-01T12:52:05.002Z</time></trkpt><trkpt lat="44.154384366986854" lon="9.879741503518161"><ele>21.0</ele><time>2026-05-01T12:52:06.002Z</time></trkpt><trkpt lat="44.15426200517767" lon="9.879885343953244"><ele>21.0</ele><time>2026-05-01T12:52:07.002Z</time></trkpt><trkpt lat="44.154130333613615" lon="9.88002819613716"><ele>21.0</ele><time>2026-05-01T12:52:08.002Z</time></trkpt><trkpt lat="44.15400576671544" lon="9.880171862574269"><ele>21.0</ele><time>2026-05-01T12:52:09.002Z</time></trkpt><trkpt lat="44.15387766754793" lon="9.88031880062678"><ele>23.0</ele><time>2026-05-01T12:52:10.002Z</time></trkpt><trkpt lat="44.15374235798669" lon="9.88047016354552"><ele>25.0</ele><time>2026-05-01T12:52:11.002Z</time></trkpt><trkpt lat="44.15360570587719" lon="9.88062903564136"><ele>27.0</ele><time>2026-05-01T12:52:12.002Z</time></trkpt><trkpt lat="44.1534765562207" lon="9.880774198683827"><ele>27.0</ele><time>2026-05-01T12:52:13.002Z</time></trkpt><trkpt lat="44.15336717336212" lon="9.88092383133189"><ele>27.0</ele><time>2026-05-01T12:52:14.002Z</time></trkpt><trkpt lat="44.153276882797314" lon="9.881079897605568"><ele>27.0</ele><time>2026-05-01T12:52:15.002Z</time></trkpt><trkpt lat="44.15321065431364" lon="9.881288962390329"><ele>31.333333333333336</ele><time>2026-05-01T12:52:16.002Z</time></trkpt><trkpt lat="44.153161311237895" lon="9.881536865745327"><ele>35.66666666666667</ele><time>2026-05-01T12:52:17.002Z</time></trkpt><trkpt lat="44.153117060447045" lon="9.881796387339959"><ele>40.0</ele><time>2026-05-01T12:52:18.002Z</time></trkpt><trkpt lat="44.153064201866066" lon="9.882046490004827"><ele>40.66666666666667</ele><time>2026-05-01T12:52:19.002Z</time></trkpt><trkpt lat="44.153005190524304" lon="9.882289742033262"><ele>41.333333333333336</ele><time>2026-05-01T12:52:20.002Z</time></trkpt><trkpt lat="44.15293833880463" lon="9.882518380623376"><ele>42.0</ele><time>2026-05-01T12:52:21.002Z</time></trkpt><trkpt lat="44.152832129293984" lon="9.88270724991048"><ele>39.333333333333336</ele><time>2026-05-01T12:52:22.002Z</time></trkpt><trkpt lat="44.152735777686736" lon="9.882895224644122"><ele>36.66666666666667</ele><time>2026-05-01T12:52:23.002Z</time></trkpt><trkpt lat="44.152648895678304" lon="9.88309476792597"><ele>34.0</ele><time>2026-05-01T12:52:24.002Z</time></trkpt><trkpt lat="44.152548652706926" lon="9.88326714300747"><ele>34.0</ele><time>2026-05-01T12:52:25.002Z</time></trkpt><trkpt lat="44.15245527469504" lon="9.883417546310403"><ele>34.0</ele><time>2026-05-01T12:52:26.002Z</time></trkpt><trkpt lat="44.15236784462692" lon="9.883574904788187"><ele>34.0</ele><time>2026-05-01T12:52:27.002Z</time></trkpt><trkpt lat="44.15227992619987" lon="9.883727505840065"><ele>34.0</ele><time>2026-05-01T12:52:28.002Z</time></trkpt><trkpt lat="44.15219572233612" lon="9.883872792267093"><ele>35.75</ele><time>2026-05-01T12:52:29.002Z</time></trkpt><trkpt lat="44.15210302082153" lon="9.88398307794729"><ele>37.5</ele><time>2026-05-01T12:52:30.002Z</time></trkpt><trkpt lat="44.15203233072187" lon="9.88410722127708"><ele>39.25</ele><time>2026-05-01T12:52:31.002Z</time></trkpt><trkpt lat="44.15195698827253" lon="9.88421574654628"><ele>41.0</ele><time>2026-05-01T12:52:32.002Z</time></trkpt><trkpt lat="44.1518751813318" lon="9.884320084863424"><ele>37.0</ele><time>2026-05-01T12:52:33.002Z</time></trkpt><trkpt lat="44.15179418635904" lon="9.884425622024333"><ele>33.0</ele><time>2026-05-01T12:52:34.002Z</time></trkpt><trkpt lat="44.15171492920618" lon="9.884534170453746"><ele>29.0</ele><time>2026-05-01T12:52:35.002Z</time></trkpt><trkpt lat="44.151630757373546" lon="9.884641393971416"><ele>25.0</ele><time>2026-05-01T12:52:36.002Z</time></trkpt><trkpt lat="44.15154862850817" lon="9.884752700660727"><ele>29.25</ele><time>2026-05-01T12:52:37.002Z</time></trkpt><trkpt lat="44.1514737949604" lon="9.884869234495007"><ele>33.5</ele><time>2026-05-01T12:52:38.002Z</time></trkpt><trkpt lat="44.151405744092116" lon="9.885010792943115"><ele>37.75</ele><time>2026-05-01T12:52:39.002Z</time></trkpt><trkpt lat="44.1513275084417" lon="9.885196896324892"><ele>42.0</ele><time>2026-05-01T12:52:40.002Z</time></trkpt><trkpt lat="44.151263380641446" lon="9.885416127221905"><ele>42.0</ele><time>2026-05-01T12:52:41.003Z</time></trkpt><trkpt lat="44.15121507654777" lon="9.885602388764301"><ele>42.0</ele><time>2026-05-01T12:52:42.003Z</time></trkpt><trkpt lat="44.151173242050774" lon="9.885766840684544"><ele>42.0</ele><time>2026-05-01T12:52:43.003Z</time></trkpt><trkpt lat="44.151120006441154" lon="9.885908734275757"><ele>42.0</ele><time>2026-05-01T12:52:44.003Z</time></trkpt><trkpt lat="44.15104883063147" lon="9.886039671551645"><ele>42.333333333333336</ele><time>2026-05-01T12:52:45.003Z</time></trkpt><trkpt lat="44.15094969328806" lon="9.886162094521366"><ele>42.66666666666667</ele><time>2026-05-01T12:52:46.003Z</time></trkpt><trkpt lat="44.150813712091015" lon="9.886257503672196"><ele>43.0</ele><time>2026-05-01T12:52:47.003Z</time></trkpt><trkpt lat="44.15065706469139" lon="9.886376678917278"><ele>43.0</ele><time>2026-05-01T12:52:48.003Z</time></trkpt><trkpt lat="44.150470563866826" lon="9.886496776458399"><ele>43.0</ele><time>2026-05-01T12:52:49.003Z</time></trkpt><trkpt lat="44.150265559594345" lon="9.88664165012905"><ele>43.0</ele><time>2026-05-01T12:52:50.003Z</time></trkpt><trkpt lat="44.150066069147904" lon="9.886801605906198"><ele>41.333333333333336</ele><time>2026-05-01T12:52:51.003Z</time></trkpt><trkpt lat="44.14989124843177" lon="9.886958570405309"><ele>39.666666666666664</ele><time>2026-05-01T12:52:52.003Z</time></trkpt><trkpt lat="44.14973300250844" lon="9.887113827625008"><ele>38.0</ele><time>2026-05-01T12:52:53.003Z</time></trkpt><trkpt lat="44.14958702269075" lon="9.887269277786638"><ele>38.0</ele><time>2026-05-01T12:52:54.003Z</time></trkpt><trkpt lat="44.14946072597547" lon="9.887446114324609"><ele>38.0</ele><time>2026-05-01T12:52:55.003Z</time></trkpt><trkpt lat="44.14935871680335" lon="9.88764599056393"><ele>38.0</ele><time>2026-05-01T12:52:56.003Z</time></trkpt><trkpt lat="44.14928272267757" lon="9.88784082356286"><ele>35.25</ele><time>2026-05-01T12:52:57.003Z</time></trkpt><trkpt lat="44.14921790454786" lon="9.888011164017783"><ele>32.5</ele><time>2026-05-01T12:52:58Z</time></trkpt><trkpt lat="44.14916045281717" lon="9.888146621627543"><ele>29.75</ele><time>2026-05-01T12:52:59Z</time></trkpt><trkpt lat="44.14909700435473" lon="9.888270030833704"><ele>27.0</ele><time>2026-05-01T12:53:00Z</time></trkpt><trkpt lat="44.149024052504586" lon="9.888383257432984"><ele>30.0</ele><time>2026-05-01T12:53:01Z</time></trkpt><trkpt lat="44.1489403567859" lon="9.888504200715342"><ele>33.0</ele><time>2026-05-01T12:53:02Z</time></trkpt><trkpt lat="44.14884791881017" lon="9.888631191312657"><ele>36.0</ele><time>2026-05-01T12:53:03Z</time></trkpt><trkpt lat="44.14875273898984" lon="9.888758523330138"><ele>39.0</ele><time>2026-05-01T12:53:04Z</time></trkpt><trkpt lat="44.148655194888654" lon="9.88887796713567"><ele>39.0</ele><time>2026-05-01T12:53:05Z</time></trkpt><trkpt lat="44.14855601267391" lon="9.888994806653624"><ele>39.0</ele><time>2026-05-01T12:53:06Z</time></trkpt><trkpt lat="44.14845438754658" lon="9.889113642115163"><ele>39.0</ele><time>2026-05-01T12:53:07Z</time></trkpt><trkpt lat="44.14835271170433" lon="9.889231672946762"><ele>39.0</ele><time>2026-05-01T12:53:08Z</time></trkpt><trkpt lat="44.148247049838666" lon="9.88933057126196"><ele>38.75</ele><time>2026-05-01T12:53:09Z</time></trkpt><trkpt lat="44.14816390856326" lon="9.889445337003334"><ele>38.5</ele><time>2026-05-01T12:53:10Z</time></trkpt><trkpt lat="44.14807105851594" lon="9.889539760574602"><ele>38.25</ele><time>2026-05-01T12:53:11Z</time></trkpt><trkpt lat="44.147973803992265" lon="9.889631942644327"><ele>38.0</ele><time>2026-05-01T12:53:12Z</time></trkpt><trkpt lat="44.14787568503021" lon="9.889728697876603"><ele>38.0</ele><time>2026-05-01T12:53:13Z</time></trkpt><trkpt lat="44.14777396854465" lon="9.889831474403616"><ele>38.0</ele><time>2026-05-01T12:53:14Z</time></trkpt><trkpt lat="44.147672267512384" lon="9.88993407118108"><ele>38.0</ele><time>2026-05-01T12:53:15Z</time></trkpt><trkpt lat="44.14756229841288" lon="9.890006464900747"><ele>38.0</ele><time>2026-05-01T12:53:16Z</time></trkpt><trkpt lat="44.14745548473279" lon="9.890092756595292"><ele>35.33333333333333</ele><time>2026-05-01T12:53:17Z</time></trkpt><trkpt lat="44.14732854940717" lon="9.89022642404087"><ele>32.666666666666664</ele><time>2026-05-01T12:53:18Z</time></trkpt><trkpt lat="44.14719220797142" lon="9.890355922202385"><ele>30.0</ele><time>2026-05-01T12:53:19Z</time></trkpt><trkpt lat="44.147074673464964" lon="9.890475242802639"><ele>30.0</ele><time>2026-05-01T12:53:20Z</time></trkpt><trkpt lat="44.14696985312174" lon="9.890580870877418"><ele>30.0</ele><time>2026-05-01T12:53:21Z</time></trkpt><trkpt lat="44.146870640085076" lon="9.890672664754506"><ele>30.0</ele><time>2026-05-01T12:53:22Z</time></trkpt><trkpt lat="44.1467727180604" lon="9.890743711405444"><ele>30.0</ele><time>2026-05-01T12:53:23Z</time></trkpt><trkpt lat="44.14666946034717" lon="9.890792096271026"><ele>30.0</ele><time>2026-05-01T12:53:24Z</time></trkpt><trkpt lat="44.14656206071635" lon="9.890815283102295"><ele>30.0</ele><time>2026-05-01T12:53:25Z</time></trkpt><trkpt lat="44.1464479406623" lon="9.890834728802147"><ele>30.0</ele><time>2026-05-01T12:53:26Z</time></trkpt><trkpt lat="44.14632732705258" lon="9.89086066419912"><ele>30.0</ele><time>2026-05-01T12:53:27Z</time></trkpt><trkpt lat="44.14618957453259" lon="9.89097632701939"><ele>28.0</ele><time>2026-05-01T12:53:28Z</time></trkpt><trkpt lat="44.14603373379522" lon="9.89111479612789"><ele>26.0</ele><time>2026-05-01T12:53:29Z</time></trkpt><trkpt lat="44.14587091014297" lon="9.891244853243453"><ele>24.0</ele><time>2026-05-01T12:53:30Z</time></trkpt><trkpt lat="44.145724807988984" lon="9.891343796600992"><ele>30.75</ele><time>2026-05-01T12:53:31.001Z</time></trkpt><trkpt lat="44.14559106175226" lon="9.891441434117295"><ele>37.5</ele><time>2026-05-01T12:53:32.001Z</time></trkpt><trkpt lat="44.14547423737802" lon="9.891531183826919"><ele>44.25</ele><time>2026-05-01T12:53:33.001Z</time></trkpt><trkpt lat="44.14536262057752" lon="9.891624260696611"><ele>51.0</ele><time>2026-05-01T12:53:34.001Z</time></trkpt><trkpt lat="44.14527321659487" lon="9.891740408885646"><ele>43.666666666666664</ele><time>2026-05-01T12:53:35.001Z</time></trkpt><trkpt lat="44.145172957960334" lon="9.891908210056988"><ele>36.33333333333333</ele><time>2026-05-01T12:53:36.001Z</time></trkpt><trkpt lat="44.145059649270785" lon="9.89211423664394"><ele>29.0</ele><time>2026-05-01T12:53:37.001Z</time></trkpt><trkpt lat="44.14493817356135" lon="9.892349409185107"><ele>31.0</ele><time>2026-05-01T12:53:38.001Z</time></trkpt><trkpt lat="44.14480534165699" lon="9.892590586528744"><ele>33.0</ele><time>2026-05-01T12:53:39.001Z</time></trkpt><trkpt lat="44.144679335631345" lon="9.89281373236094"><ele>35.0</ele><time>2026-05-01T12:53:40.001Z</time></trkpt><trkpt lat="44.1445580062014" lon="9.893021042038315"><ele>35.0</ele><time>2026-05-01T12:53:41.001Z</time></trkpt><trkpt lat="44.14441066206481" lon="9.893189662626206"><ele>35.0</ele><time>2026-05-01T12:53:42.001Z</time></trkpt><trkpt lat="44.1442615431517" lon="9.893339990164487"><ele>35.0</ele><time>2026-05-01T12:53:43.001Z</time></trkpt><trkpt lat="44.14410317990583" lon="9.893469133304055"><ele>32.33333333333333</ele><time>2026-05-01T12:53:44.001Z</time></trkpt><trkpt lat="44.14395190798202" lon="9.893603962858977"><ele>29.666666666666664</ele><time>2026-05-01T12:53:45.001Z</time></trkpt><trkpt lat="44.14378763968689" lon="9.893715913057921"><ele>27.0</ele><time>2026-05-01T12:53:46.001Z</time></trkpt><trkpt lat="44.143597940856736" lon="9.89383099697428"><ele>27.0</ele><time>2026-05-01T12:53:47.001Z</time></trkpt><trkpt lat="44.14340982725379" lon="9.89394009794708"><ele>27.0</ele><time>2026-05-01T12:53:48.001Z</time></trkpt><trkpt lat="44.14324028920428" lon="9.894041170284291"><ele>27.0</ele><time>2026-05-01T12:53:49.001Z</time></trkpt><trkpt lat="44.14309908477745" lon="9.894139568250674"><ele>25.0</ele><time>2026-05-01T12:53:50.001Z</time></trkpt><trkpt lat="44.142961781066504" lon="9.89422590936929"><ele>23.0</ele><time>2026-05-01T12:53:51.001Z</time></trkpt><trkpt lat="44.14284523577166" lon="9.894423990192593"><ele>21.0</ele><time>2026-05-01T12:53:52.001Z</time></trkpt><trkpt lat="44.142737574038165" lon="9.894661710597402"><ele>21.0</ele><time>2026-05-01T12:53:53.001Z</time></trkpt><trkpt lat="44.14262784700277" lon="9.894910950502114"><ele>21.0</ele><time>2026-05-01T12:53:54.001Z</time></trkpt><trkpt lat="44.142523131674295" lon="9.895140740492037"><ele>21.0</ele><time>2026-05-01T12:53:55.001Z</time></trkpt><trkpt lat="44.142407626357205" lon="9.895330674628756"><ele>21.0</ele><time>2026-05-01T12:53:56.001Z</time></trkpt><trkpt lat="44.142267298238764" lon="9.895498332245642"><ele>21.0</ele><time>2026-05-01T12:53:57.001Z</time></trkpt><trkpt lat="44.142101351872164" lon="9.895659042504763"><ele>21.0</ele><time>2026-05-01T12:53:58.001Z</time></trkpt><trkpt lat="44.14191825725606" lon="9.89581350228962"><ele>19.5</ele><time>2026-05-01T12:53:59.001Z</time></trkpt><trkpt lat="44.14172650540366" lon="9.89599128401538"><ele>18.0</ele><time>2026-05-01T12:54:00.001Z</time></trkpt><trkpt lat="44.14152758860811" lon="9.896139801938487"><ele>17.666666666666668</ele><time>2026-05-01T12:54:01.001Z</time></trkpt><trkpt lat="44.141350536127234" lon="9.896273051970617"><ele>17.333333333333336</ele><time>2026-05-01T12:54:02.001Z</time></trkpt><trkpt lat="44.14118240028965" lon="9.89638483418292"><ele>17.0</ele><time>2026-05-01T12:54:03.001Z</time></trkpt><trkpt lat="44.14100885533481" lon="9.896467715868065"><ele>17.0</ele><time>2026-05-01T12:54:04.001Z</time></trkpt><trkpt lat="44.140816372939284" lon="9.896466893577257"><ele>17.0</ele><time>2026-05-01T12:54:05.001Z</time></trkpt><trkpt lat="44.140616109622044" lon="9.89645246144254"><ele>17.0</ele><time>2026-05-01T12:54:06.001Z</time></trkpt><trkpt lat="44.140405906560744" lon="9.896454378159099"><ele>20.666666666666668</ele><time>2026-05-01T12:54:07.001Z</time></trkpt><trkpt lat="44.14019718582889" lon="9.89643499316655"><ele>24.333333333333336</ele><time>2026-05-01T12:54:08.001Z</time></trkpt><trkpt lat="44.13999686484804" lon="9.896468715455583"><ele>28.0</ele><time>2026-05-01T12:54:09.002Z</time></trkpt><trkpt lat="44.13981115912487" lon="9.896568364356439"><ele>26.0</ele><time>2026-05-01T12:54:10.002Z</time></trkpt><trkpt lat="44.139633713295645" lon="9.896711453821258"><ele>24.0</ele><time>2026-05-01T12:54:11.002Z</time></trkpt><trkpt lat="44.139454045397734" lon="9.896884129281176"><ele>22.0</ele><time>2026-05-01T12:54:12.002Z</time></trkpt><trkpt lat="44.139264871682734" lon="9.897082358958272"><ele>22.0</ele><time>2026-05-01T12:54:13.002Z</time></trkpt><trkpt lat="44.139056649815245" lon="9.897258575933126"><ele>22.0</ele><time>2026-05-01T12:54:14.002Z</time></trkpt><trkpt lat="44.138863288223256" lon="9.89745857468469"><ele>20.5</ele><time>2026-05-01T12:54:15.002Z</time></trkpt><trkpt lat="44.13868364614866" lon="9.897640580311837"><ele>19.0</ele><time>2026-05-01T12:54:16.002Z</time></trkpt><trkpt lat="44.13848905266986" lon="9.897805202715357"><ele>19.0</ele><time>2026-05-01T12:54:17.002Z</time></trkpt><trkpt lat="44.138305145543775" lon="9.897960749605545"><ele>19.0</ele><time>2026-05-01T12:54:18.002Z</time></trkpt><trkpt lat="44.13813090648579" lon="9.898088021137326"><ele>19.0</ele><time>2026-05-01T12:54:19.002Z</time></trkpt><trkpt lat="44.13795833620358" lon="9.898224470859681"><ele>19.333333333333332</ele><time>2026-05-01T12:54:20.002Z</time></trkpt><trkpt lat="44.1378133985678" lon="9.898403123487308"><ele>19.666666666666668</ele><time>2026-05-01T12:54:21.002Z</time></trkpt><trkpt lat="44.13767486236405" lon="9.898595276320549"><ele>20.0</ele><time>2026-05-01T12:54:22.002Z</time></trkpt><trkpt lat="44.13752799501097" lon="9.898760888141073"><ele>20.0</ele><time>2026-05-01T12:54:23.002Z</time></trkpt><trkpt lat="44.13739348803814" lon="9.898890466572386"><ele>20.0</ele><time>2026-05-01T12:54:24.002Z</time></trkpt><trkpt lat="44.13725906180425" lon="9.898993284502717"><ele>20.0</ele><time>2026-05-01T12:54:25.002Z</time></trkpt><trkpt lat="44.1371052422032" lon="9.899090537724271"><ele>20.333333333333336</ele><time>2026-05-01T12:54:26.002Z</time></trkpt><trkpt lat="44.13694287393699" lon="9.899185805134978"><ele>20.666666666666668</ele><time>2026-05-01T12:54:27.002Z</time></trkpt><trkpt lat="44.13677728127934" lon="9.899278088130153"><ele>21.0</ele><time>2026-05-01T12:54:28.002Z</time></trkpt><trkpt lat="44.13663135218648" lon="9.899383142933848"><ele>20.25</ele><time>2026-05-01T12:54:29.002Z</time></trkpt><trkpt lat="44.136489892646125" lon="9.899459817023558"><ele>19.5</ele><time>2026-05-01T12:54:30.002Z</time></trkpt><trkpt lat="44.13635214119126" lon="9.899535068259881"><ele>18.75</ele><time>2026-05-01T12:54:31.002Z</time></trkpt><trkpt lat="44.13621749648857" lon="9.899607097981349"><ele>18.0</ele><time>2026-05-01T12:54:32.002Z</time></trkpt><trkpt lat="44.136095392864455" lon="9.899654873940147"><ele>18.0</ele><time>2026-05-01T12:54:33.002Z</time></trkpt><trkpt lat="44.13596984604333" lon="9.899695386145252"><ele>18.0</ele><time>2026-05-01T12:54:34.002Z</time></trkpt><trkpt lat="44.13585312131609" lon="9.899749193850557"><ele>18.0</ele><time>2026-05-01T12:54:35.002Z</time></trkpt><trkpt lat="44.13574952058127" lon="9.899760656705881"><ele>18.0</ele><time>2026-05-01T12:54:36.002Z</time></trkpt><trkpt lat="44.13566006134218" lon="9.899740534935605"><ele>18.0</ele><time>2026-05-01T12:54:37.002Z</time></trkpt><trkpt lat="44.135583373597356" lon="9.89973833927107"><ele>19.666666666666668</ele><time>2026-05-01T12:54:38.002Z</time></trkpt><trkpt lat="44.13551291617923" lon="9.899763993651243"><ele>21.333333333333336</ele><time>2026-05-01T12:54:39.002Z</time></trkpt><trkpt lat="44.13544860116329" lon="9.899805759209244"><ele>23.0</ele><time>2026-05-01T12:54:40.002Z</time></trkpt><trkpt lat="44.13538807853095" lon="9.899852194570283"><ele>24.666666666666668</ele><time>2026-05-01T12:54:41.002Z</time></trkpt><trkpt lat="44.13533198753313" lon="9.899895698540053"><ele>26.333333333333336</ele><time>2026-05-01T12:54:42.002Z</time></trkpt><trkpt lat="44.135278211097855" lon="9.900037294593568"><ele>28.0</ele><time>2026-05-01T12:54:44.002Z</time></trkpt><trkpt lat="44.13530215356316" lon="9.900124164816255"><ele>26.4</ele><time>2026-05-01T12:54:45.002Z</time></trkpt><trkpt lat="44.135358672121605" lon="9.900193922743808"><ele>24.799999999999997</ele><time>2026-05-01T12:54:46.002Z</time></trkpt><trkpt lat="44.135441075184715" lon="9.900255801164036"><ele>23.2</ele><time>2026-05-01T12:54:47.002Z</time></trkpt><trkpt lat="44.13554930525968" lon="9.90032477759668"><ele>21.6</ele><time>2026-05-01T12:54:48.003Z</time></trkpt><trkpt lat="44.1356496692856" lon="9.900424533737214"><ele>20.0</ele><time>2026-05-01T12:54:49.003Z</time></trkpt><trkpt lat="44.135742204135" lon="9.900547662683989"><ele>20.0</ele><time>2026-05-01T12:54:50.003Z</time></trkpt><trkpt lat="44.13582295184883" lon="9.900687540989674"><ele>20.0</ele><time>2026-05-01T12:54:51.003Z</time></trkpt><trkpt lat="44.135877772457405" lon="9.900832260494001"><ele>20.0</ele><time>2026-05-01T12:54:52.003Z</time></trkpt><trkpt lat="44.13590971772294" lon="9.900998399538217"><ele>20.0</ele><time>2026-05-01T12:54:53.003Z</time></trkpt><trkpt lat="44.13591770061933" lon="9.901195115276376"><ele>19.25</ele><time>2026-05-01T12:54:54.003Z</time></trkpt><trkpt lat="44.13590035671285" lon="9.90140989744074"><ele>18.5</ele><time>2026-05-01T12:54:55.003Z</time></trkpt><trkpt lat="44.13586259266371" lon="9.901602883075013"><ele>17.75</ele><time>2026-05-01T12:54:56.003Z</time></trkpt><trkpt lat="44.135809799300716" lon="9.90177756851984"><ele>17.0</ele><time>2026-05-01T12:54:57.003Z</time></trkpt><trkpt lat="44.135748882692816" lon="9.901948461881103"><ele>22.5</ele><time>2026-05-01T12:54:58.003Z</time></trkpt><trkpt lat="44.135683059498646" lon="9.902119315706633"><ele>28.0</ele><time>2026-05-01T12:54:59.003Z</time></trkpt><trkpt lat="44.13561645412501" lon="9.902285489927888"><ele>33.5</ele><time>2026-05-01T12:55:00.003Z</time></trkpt><trkpt lat="44.135551993132" lon="9.90244949319021"><ele>39.0</ele><time>2026-05-01T12:55:01.003Z</time></trkpt><trkpt lat="44.13548617787523" lon="9.902614116293675"><ele>39.0</ele><time>2026-05-01T12:55:02.003Z</time></trkpt><trkpt lat="44.135418643900344" lon="9.902782817070122"><ele>39.0</ele><time>2026-05-01T12:55:03Z</time></trkpt><trkpt lat="44.135349755056346" lon="9.902943697574903"><ele>39.0</ele><time>2026-05-01T12:55:04Z</time></trkpt><trkpt lat="44.135285725886796" lon="9.903094464973316"><ele>39.0</ele><time>2026-05-01T12:55:05Z</time></trkpt><trkpt lat="44.13521957723866" lon="9.903231703966329"><ele>39.0</ele><time>2026-05-01T12:55:06Z</time></trkpt><trkpt lat="44.13514503215037" lon="9.903369551247279"><ele>39.0</ele><time>2026-05-01T12:55:07Z</time></trkpt><trkpt lat="44.13506447613278" lon="9.9035145019378"><ele>39.0</ele><time>2026-05-01T12:55:08Z</time></trkpt><trkpt lat="44.13497847961253" lon="9.90365159672589"><ele>39.0</ele><time>2026-05-01T12:55:09Z</time></trkpt><trkpt lat="44.13488327409134" lon="9.903764965381862"><ele>40.25</ele><time>2026-05-01T12:55:10Z</time></trkpt><trkpt lat="44.13476828674295" lon="9.903887255372322"><ele>41.5</ele><time>2026-05-01T12:55:11Z</time></trkpt><trkpt lat="44.13466537883309" lon="9.904004509811053"><ele>42.75</ele><time>2026-05-01T12:55:12Z</time></trkpt><trkpt lat="44.13455576271882" lon="9.904133037543744"><ele>44.0</ele><time>2026-05-01T12:55:13Z</time></trkpt><trkpt lat="44.13443897888479" lon="9.904274469103141"><ele>38.33333333333333</ele><time>2026-05-01T12:55:14Z</time></trkpt><trkpt lat="44.13431629602755" lon="9.904420991243756"><ele>32.666666666666664</ele><time>2026-05-01T12:55:15Z</time></trkpt><trkpt lat="44.1341823248038" lon="9.904574199299319"><ele>27.0</ele><time>2026-05-01T12:55:16Z</time></trkpt><trkpt lat="44.13402865975272" lon="9.90469911780077"><ele>27.0</ele><time>2026-05-01T12:55:17Z</time></trkpt><trkpt lat="44.13385477154224" lon="9.90478889355769"><ele>27.0</ele><time>2026-05-01T12:55:18Z</time></trkpt><trkpt lat="44.133673466904334" lon="9.90484653054121"><ele>27.0</ele><time>2026-05-01T12:55:19Z</time></trkpt><trkpt lat="44.1334859791082" lon="9.904863183394669"><ele>27.0</ele><time>2026-05-01T12:55:20Z</time></trkpt><trkpt lat="44.13327840043031" lon="9.904853000818871"><ele>27.0</ele><time>2026-05-01T12:55:21Z</time></trkpt><trkpt lat="44.133068867920294" lon="9.904845462067597"><ele>27.0</ele><time>2026-05-01T12:55:22Z</time></trkpt><trkpt lat="44.13285742936726" lon="9.904850429174072"><ele>28.333333333333336</ele><time>2026-05-01T12:55:23Z</time></trkpt><trkpt lat="44.132646954374025" lon="9.90486747554085"><ele>29.666666666666668</ele><time>2026-05-01T12:55:24Z</time></trkpt><trkpt lat="44.13243421648373" lon="9.904900309683857"><ele>31.0</ele><time>2026-05-01T12:55:25Z</time></trkpt><trkpt lat="44.13222714252669" lon="9.90495474580778"><ele>31.666666666666668</ele><time>2026-05-01T12:55:26Z</time></trkpt><trkpt lat="44.132021857694085" lon="9.905015718522536"><ele>32.333333333333336</ele><time>2026-05-01T12:55:27Z</time></trkpt><trkpt lat="44.13182262168241" lon="9.905079706691946"><ele>33.0</ele><time>2026-05-01T12:55:28Z</time></trkpt><trkpt lat="44.13162719771595" lon="9.90516198517004"><ele>28.333333333333332</ele><time>2026-05-01T12:55:29Z</time></trkpt><trkpt lat="44.13144151729462" lon="9.905261254083303"><ele>23.666666666666664</ele><time>2026-05-01T12:55:30Z</time></trkpt><trkpt lat="44.131229654248195" lon="9.905414764723403"><ele>19.0</ele><time>2026-05-01T12:55:31Z</time></trkpt><trkpt lat="44.13104836263127" lon="9.9055623177449"><ele>19.0</ele><time>2026-05-01T12:55:32Z</time></trkpt><trkpt lat="44.130875227703356" lon="9.905690107522721"><ele>19.0</ele><time>2026-05-01T12:55:33Z</time></trkpt><trkpt lat="44.13069009771927" lon="9.905726874376489"><ele>19.0</ele><time>2026-05-01T12:55:34Z</time></trkpt><trkpt lat="44.13053964105539" lon="9.905820840282505"><ele>18.0</ele><time>2026-05-01T12:55:35Z</time></trkpt><trkpt lat="44.13040280420648" lon="9.90590650524748"><ele>17.0</ele><time>2026-05-01T12:55:36Z</time></trkpt><trkpt lat="44.130273031426725" lon="9.905988910312633"><ele>16.0</ele><time>2026-05-01T12:55:37.001Z</time></trkpt><trkpt lat="44.130136586840564" lon="9.906075551939956"><ele>15.0</ele><time>2026-05-01T12:55:38.001Z</time></trkpt><trkpt lat="44.13000173568277" lon="9.906161181747851"><ele>17.75</ele><time>2026-05-01T12:55:39.001Z</time></trkpt><trkpt lat="44.12987625808887" lon="9.90624085939"><ele>20.5</ele><time>2026-05-01T12:55:40.001Z</time></trkpt><trkpt lat="44.12975538988686" lon="9.906317384203453"><ele>23.25</ele><time>2026-05-01T12:55:41.001Z</time></trkpt><trkpt lat="44.129635189884304" lon="9.906393318248709"><ele>26.0</ele><time>2026-05-01T12:55:42.001Z</time></trkpt><trkpt lat="44.12951705159236" lon="9.906468174170842"><ele>26.0</ele><time>2026-05-01T12:55:43.001Z</time></trkpt><trkpt lat="44.1294029760518" lon="9.90654049628238"><ele>26.0</ele><time>2026-05-01T12:55:44.001Z</time></trkpt><trkpt lat="44.129290597588124" lon="9.906611418986785"><ele>26.0</ele><time>2026-05-01T12:55:45.001Z</time></trkpt><trkpt lat="44.12918244639921" lon="9.906679485420437"><ele>26.0</ele><time>2026-05-01T12:55:46.001Z</time></trkpt><trkpt lat="44.12907284687438" lon="9.906748463384659"><ele>23.6</ele><time>2026-05-01T12:55:47.001Z</time></trkpt><trkpt lat="44.1289700439958" lon="9.906813163781688"><ele>21.200000000000003</ele><time>2026-05-01T12:55:48.001Z</time></trkpt><trkpt lat="44.12886829297186" lon="9.906877202184178"><ele>18.799999999999997</ele><time>2026-05-01T12:55:49.001Z</time></trkpt><trkpt lat="44.12877358259694" lon="9.906959746316817"><ele>16.4</ele><time>2026-05-01T12:55:50.001Z</time></trkpt><trkpt lat="44.12866861127011" lon="9.907015531758766"><ele>14.0</ele><time>2026-05-01T12:55:51.001Z</time></trkpt><trkpt lat="44.128567587596535" lon="9.907081949635744"><ele>14.0</ele><time>2026-05-01T12:55:52.001Z</time></trkpt><trkpt lat="44.12845611062544" lon="9.90714893323492"><ele>14.0</ele><time>2026-05-01T12:55:53.001Z</time></trkpt><trkpt lat="44.12834190493717" lon="9.907217411315324"><ele>14.0</ele><time>2026-05-01T12:55:54.001Z</time></trkpt><trkpt lat="44.128228317603764" lon="9.907285737398892"><ele>14.0</ele><time>2026-05-01T12:55:55.001Z</time></trkpt><trkpt lat="44.128112900204925" lon="9.907360288940785"><ele>13.5</ele><time>2026-05-01T12:55:56.001Z</time></trkpt><trkpt lat="44.12799842788356" lon="9.907434187926352"><ele>13.0</ele><time>2026-05-01T12:55:57.001Z</time></trkpt><trkpt lat="44.12788763732287" lon="9.90750078469751"><ele>12.5</ele><time>2026-05-01T12:55:58.001Z</time></trkpt><trkpt lat="44.127781866384865" lon="9.907567910837043"><ele>12.0</ele><time>2026-05-01T12:55:59.001Z</time></trkpt><trkpt lat="44.1276742728433" lon="9.907635214714384"><ele>12.0</ele><time>2026-05-01T12:56:00.001Z</time></trkpt><trkpt lat="44.12756486149393" lon="9.907704751166493"><ele>12.0</ele><time>2026-05-01T12:56:01.001Z</time></trkpt><trkpt lat="44.12745781767808" lon="9.907775715254761"><ele>12.0</ele><time>2026-05-01T12:56:02.001Z</time></trkpt><trkpt lat="44.12734925736806" lon="9.907844549652962"><ele>12.0</ele><time>2026-05-01T12:56:03.001Z</time></trkpt><trkpt lat="44.12723989461732" lon="9.907910308775929"><ele>13.2</ele><time>2026-05-01T12:56:04.001Z</time></trkpt><trkpt lat="44.1271374533135" lon="9.907979532152751"><ele>14.399999999999999</ele><time>2026-05-01T12:56:05.001Z</time></trkpt><trkpt lat="44.12704050362668" lon="9.908046135573136"><ele>15.600000000000001</ele><time>2026-05-01T12:56:06.001Z</time></trkpt><trkpt lat="44.126945271539626" lon="9.90811130508398"><ele>16.8</ele><time>2026-05-01T12:56:07.001Z</time></trkpt><trkpt lat="44.12684615529571" lon="9.908178750711622"><ele>18.0</ele><time>2026-05-01T12:56:08.001Z</time></trkpt><trkpt lat="44.126738571412844" lon="9.908222521408744"><ele>18.0</ele><time>2026-05-01T12:56:09.001Z</time></trkpt><trkpt lat="44.126643085375505" lon="9.908307994640813"><ele>18.0</ele><time>2026-05-01T12:56:10.001Z</time></trkpt><trkpt lat="44.12653370955065" lon="9.908352019575027"><ele>18.0</ele><time>2026-05-01T12:56:11.001Z</time></trkpt><trkpt lat="44.12643351042592" lon="9.908415198488688"><ele>18.0</ele><time>2026-05-01T12:56:12.001Z</time></trkpt><trkpt lat="44.12634548803011" lon="9.908494722740649"><ele>18.0</ele><time>2026-05-01T12:56:13.001Z</time></trkpt><trkpt lat="44.126257750118114" lon="9.908551211525737"><ele>17.0</ele><time>2026-05-01T12:56:14.001Z</time></trkpt><trkpt lat="44.12616577253788" lon="9.908594079349228"><ele>16.0</ele><time>2026-05-01T12:56:15.002Z</time></trkpt><trkpt lat="44.12607964332586" lon="9.908652461645874"><ele>15.0</ele><time>2026-05-01T12:56:16.002Z</time></trkpt><trkpt lat="44.12599257147459" lon="9.908706007989093"><ele>14.0</ele><time>2026-05-01T12:56:17.002Z</time></trkpt><trkpt lat="44.12590588575481" lon="9.908758421300929"><ele>13.0</ele><time>2026-05-01T12:56:18.002Z</time></trkpt><trkpt lat="44.12581212746613" lon="9.908814834624822"><ele>14.600000000000001</ele><time>2026-05-01T12:56:19.002Z</time></trkpt><trkpt lat="44.12571886302097" lon="9.90887734348177"><ele>16.200000000000003</ele><time>2026-05-01T12:56:20.002Z</time></trkpt><trkpt lat="44.125618109104245" lon="9.908934016428956"><ele>17.8</ele><time>2026-05-01T12:56:21.002Z</time></trkpt><trkpt lat="44.12552187724191" lon="9.908994008070827"><ele>19.400000000000002</ele><time>2026-05-01T12:56:22.002Z</time></trkpt><trkpt lat="44.12542609222298" lon="9.909051275672807"><ele>21.0</ele><time>2026-05-01T12:56:23.002Z</time></trkpt><trkpt lat="44.1253342202625" lon="9.909106593360699"><ele>21.0</ele><time>2026-05-01T12:56:24.002Z</time></trkpt><trkpt lat="44.12524561693031" lon="9.909164083867754"><ele>21.0</ele><time>2026-05-01T12:56:25.002Z</time></trkpt><trkpt lat="44.12515802442666" lon="9.909223999535612"><ele>21.0</ele><time>2026-05-01T12:56:26.002Z</time></trkpt><trkpt lat="44.125068164853715" lon="9.909283469555866"><ele>21.0</ele><time>2026-05-01T12:56:27.002Z</time></trkpt><trkpt lat="44.12497681376155" lon="9.909344933581496"><ele>21.0</ele><time>2026-05-01T12:56:28.002Z</time></trkpt><trkpt lat="44.12488394880935" lon="9.909402781720573"><ele>19.400000000000002</ele><time>2026-05-01T12:56:29.002Z</time></trkpt><trkpt lat="44.12479049210486" lon="9.909458085975974"><ele>17.8</ele><time>2026-05-01T12:56:30.002Z</time></trkpt><trkpt lat="44.12470192544497" lon="9.909519412531896"><ele>16.200000000000003</ele><time>2026-05-01T12:56:31.002Z</time></trkpt><trkpt lat="44.12461350617517" lon="9.909578130785965"><ele>14.600000000000001</ele><time>2026-05-01T12:56:32.002Z</time></trkpt><trkpt lat="44.12452383996192" lon="9.90963588852848"><ele>13.0</ele><time>2026-05-01T12:56:33.002Z</time></trkpt><trkpt lat="44.12443105619989" lon="9.909692566825052"><ele>13.0</ele><time>2026-05-01T12:56:34.002Z</time></trkpt><trkpt lat="44.124335560169946" lon="9.909751730593253"><ele>13.0</ele><time>2026-05-01T12:56:35.002Z</time></trkpt><trkpt lat="44.124233757634144" lon="9.90981427627142"><ele>13.0</ele><time>2026-05-01T12:56:36.002Z</time></trkpt><trkpt lat="44.12412812945213" lon="9.909879344440519"><ele>13.0</ele><time>2026-05-01T12:56:37.002Z</time></trkpt><trkpt lat="44.12401891855695" lon="9.909950365791193"><ele>12.75</ele><time>2026-05-01T12:56:38.002Z</time></trkpt><trkpt lat="44.12390976472181" lon="9.91002424363022"><ele>12.5</ele><time>2026-05-01T12:56:39.002Z</time></trkpt><trkpt lat="44.123805710814906" lon="9.91008676009467"><ele>12.25</ele><time>2026-05-01T12:56:40.002Z</time></trkpt><trkpt lat="44.123702650832676" lon="9.910150572843584"><ele>12.0</ele><time>2026-05-01T12:56:41.002Z</time></trkpt><trkpt lat="44.12359964058333" lon="9.91021216602464"><ele>12.0</ele><time>2026-05-01T12:56:42.002Z</time></trkpt><trkpt lat="44.123499230052396" lon="9.910274072225153"><ele>12.0</ele><time>2026-05-01T12:56:43.002Z</time></trkpt><trkpt lat="44.12339557271493" lon="9.910337531988098"><ele>12.0</ele><time>2026-05-01T12:56:44.002Z</time></trkpt><trkpt lat="44.12329472416797" lon="9.910404328786305"><ele>12.0</ele><time>2026-05-01T12:56:45.002Z</time></trkpt><trkpt lat="44.12318806735744" lon="9.910472971271277"><ele>12.0</ele><time>2026-05-01T12:56:46.002Z</time></trkpt><trkpt lat="44.123087317037744" lon="9.910540130984533"><ele>12.0</ele><time>2026-05-01T12:56:47.002Z</time></trkpt><trkpt lat="44.12298847314664" lon="9.910605268831391"><ele>12.0</ele><time>2026-05-01T12:56:48.002Z</time></trkpt><trkpt lat="44.12288649160836" lon="9.910647301595"><ele>12.0</ele><time>2026-05-01T12:56:49.002Z</time></trkpt><trkpt lat="44.122794825664975" lon="9.91073095184693"><ele>12.0</ele><time>2026-05-01T12:56:50.002Z</time></trkpt><trkpt lat="44.122694765401945" lon="9.910792850343148"><ele>12.0</ele><time>2026-05-01T12:56:51.002Z</time></trkpt><trkpt lat="44.122592701122656" lon="9.910854602068904"><ele>12.0</ele><time>2026-05-01T12:56:52.002Z</time></trkpt><trkpt lat="44.12249201865529" lon="9.910919202956196"><ele>12.0</ele><time>2026-05-01T12:56:53.002Z</time></trkpt><trkpt lat="44.12238775984465" lon="9.910983815329697"><ele>12.0</ele><time>2026-05-01T12:56:54.003Z</time></trkpt><trkpt lat="44.12227937000623" lon="9.911043534694047"><ele>12.0</ele><time>2026-05-01T12:56:55.003Z</time></trkpt><trkpt lat="44.12217263611275" lon="9.911116081622534"><ele>12.0</ele><time>2026-05-01T12:56:56.003Z</time></trkpt><trkpt lat="44.12206299737275" lon="9.911184424168239"><ele>12.0</ele><time>2026-05-01T12:56:57.003Z</time></trkpt><trkpt lat="44.1219538213024" lon="9.911252664897875"><ele>12.0</ele><time>2026-05-01T12:56:58.003Z</time></trkpt><trkpt lat="44.12184141712607" lon="9.911319609828997"><ele>12.0</ele><time>2026-05-01T12:56:59.003Z</time></trkpt><trkpt lat="44.121728927300744" lon="9.911392708322282"><ele>12.0</ele><time>2026-05-01T12:57:00.003Z</time></trkpt><trkpt lat="44.12161541832362" lon="9.911467350407781"><ele>12.0</ele><time>2026-05-01T12:57:01.003Z</time></trkpt><trkpt lat="44.1215032465276" lon="9.911541850358082"><ele>12.0</ele><time>2026-05-01T12:57:02.003Z</time></trkpt><trkpt lat="44.12139232609486" lon="9.911619703247007"><ele>11.75</ele><time>2026-05-01T12:57:03.003Z</time></trkpt><trkpt lat="44.121275193583806" lon="9.9116939032825"><ele>11.5</ele><time>2026-05-01T12:57:04.003Z</time></trkpt><trkpt lat="44.121160863132864" lon="9.911788023622144"><ele>11.25</ele><time>2026-05-01T12:57:05.003Z</time></trkpt><trkpt lat="44.12105299200144" lon="9.911896924574682"><ele>11.0</ele><time>2026-05-01T12:57:06.003Z</time></trkpt><trkpt lat="44.1209492983796" lon="9.912008441242957"><ele>11.0</ele><time>2026-05-01T12:57:07.003Z</time></trkpt><trkpt lat="44.120849094432" lon="9.912131291948628"><ele>11.0</ele><time>2026-05-01T12:57:08.003Z</time></trkpt><trkpt lat="44.120751234242064" lon="9.912247857090403"><ele>11.0</ele><time>2026-05-01T12:57:09Z</time></trkpt><trkpt lat="44.120653258524705" lon="9.912349397697456"><ele>11.0</ele><time>2026-05-01T12:57:10Z</time></trkpt><trkpt lat="44.12055273936056" lon="9.912444963431366"><ele>10.75</ele><time>2026-05-01T12:57:11Z</time></trkpt><trkpt lat="44.120454114059704" lon="9.912530714122978"><ele>10.5</ele><time>2026-05-01T12:57:12Z</time></trkpt><trkpt lat="44.12035216312455" lon="9.912606316673454"><ele>10.25</ele><time>2026-05-01T12:57:13Z</time></trkpt><trkpt lat="44.12023748897542" lon="9.912631947408693"><ele>10.0</ele><time>2026-05-01T12:57:14Z</time></trkpt><trkpt lat="44.12012112858056" lon="9.912670543736905"><ele>10.0</ele><time>2026-05-01T12:57:15Z</time></trkpt><trkpt lat="44.12000887060434" lon="9.912726807873515"><ele>10.0</ele><time>2026-05-01T12:57:16Z</time></trkpt><trkpt lat="44.11989725877973" lon="9.91275982415094"><ele>10.0</ele><time>2026-05-01T12:57:17Z</time></trkpt><trkpt lat="44.119787583326605" lon="9.912802050007313"><ele>10.0</ele><time>2026-05-01T12:57:18Z</time></trkpt><trkpt lat="44.119678176468014" lon="9.912838617075016"><ele>10.25</ele><time>2026-05-01T12:57:19Z</time></trkpt><trkpt lat="44.11957233730975" lon="9.912878347347625"><ele>10.5</ele><time>2026-05-01T12:57:20Z</time></trkpt><trkpt lat="44.119459695179366" lon="9.912892925217378"><ele>10.75</ele><time>2026-05-01T12:57:21Z</time></trkpt><trkpt lat="44.11934590675491" lon="9.912927953474652"><ele>11.0</ele><time>2026-05-01T12:57:22Z</time></trkpt><trkpt lat="44.119231675803746" lon="9.912963803412145"><ele>11.0</ele><time>2026-05-01T12:57:23Z</time></trkpt><trkpt lat="44.11912645158634" lon="9.912996753698277"><ele>11.0</ele><time>2026-05-01T12:57:24Z</time></trkpt><trkpt lat="44.11902145597947" lon="9.913029033581466"><ele>11.0</ele><time>2026-05-01T12:57:25Z</time></trkpt><trkpt lat="44.11891589172362" lon="9.91306148833815"><ele>11.0</ele><time>2026-05-01T12:57:26Z</time></trkpt><trkpt lat="44.11879684228572" lon="9.913083497516123"><ele>11.0</ele><time>2026-05-01T12:57:27Z</time></trkpt><trkpt lat="44.118664181589985" lon="9.913089165878263"><ele>11.0</ele><time>2026-05-01T12:57:28Z</time></trkpt><trkpt lat="44.11852638881042" lon="9.91307906850205"><ele>11.0</ele><time>2026-05-01T12:57:29Z</time></trkpt><trkpt lat="44.11837797846531" lon="9.91305982674081"><ele>11.0</ele><time>2026-05-01T12:57:30Z</time></trkpt><trkpt lat="44.11823226979367" lon="9.913029727076559"><ele>11.0</ele><time>2026-05-01T12:57:31Z</time></trkpt><trkpt lat="44.11809104451772" lon="9.91298831673837"><ele>11.0</ele><time>2026-05-01T12:57:32Z</time></trkpt><trkpt lat="44.11795935770671" lon="9.912930258837294"><ele>11.0</ele><time>2026-05-01T12:57:33Z</time></trkpt><trkpt lat="44.117835980145834" lon="9.912865782298315"><ele>11.0</ele><time>2026-05-01T12:57:34Z</time></trkpt><trkpt lat="44.117723889827786" lon="9.912804765240656"><ele>11.0</ele><time>2026-05-01T12:57:35Z</time></trkpt><trkpt lat="44.117612140788694" lon="9.912765101641861"><ele>11.0</ele><time>2026-05-01T12:57:36Z</time></trkpt><trkpt lat="44.11751870490355" lon="9.91270474456281"><ele>11.0</ele><time>2026-05-01T12:57:37Z</time></trkpt><trkpt lat="44.117428272565114" lon="9.912651357080994"><ele>11.0</ele><time>2026-05-01T12:57:38Z</time></trkpt><trkpt lat="44.11732697052079" lon="9.912600497658106"><ele>11.0</ele><time>2026-05-01T12:57:39Z</time></trkpt><trkpt lat="44.11721826539199" lon="9.912544622827102"><ele>11.0</ele><time>2026-05-01T12:57:40.001Z</time></trkpt><trkpt lat="44.117091504847274" lon="9.912476859653077"><ele>12.25</ele><time>2026-05-01T12:57:41.001Z</time></trkpt><trkpt lat="44.11695579874301" lon="9.912382411054189"><ele>13.5</ele><time>2026-05-01T12:57:42.001Z</time></trkpt><trkpt lat="44.1168353935654" lon="9.912335470326711"><ele>14.75</ele><time>2026-05-01T12:57:43.001Z</time></trkpt><trkpt lat="44.11672911449779" lon="9.912270463489635"><ele>16.0</ele><time>2026-05-01T12:57:44.001Z</time></trkpt><trkpt lat="44.11662621537184" lon="9.912204792452455"><ele>16.6</ele><time>2026-05-01T12:57:45.001Z</time></trkpt><trkpt lat="44.116529791295044" lon="9.912147413527597"><ele>17.200000000000003</ele><time>2026-05-01T12:57:46.001Z</time></trkpt><trkpt lat="44.1164425658695" lon="9.912107271643597"><ele>17.799999999999997</ele><time>2026-05-01T12:57:47.001Z</time></trkpt><trkpt lat="44.116372626662546" lon="9.91208410521189"><ele>18.4</ele><time>2026-05-01T12:57:48.001Z</time></trkpt><trkpt lat="44.11624695737473" lon="9.912095900508778"><ele>19.0</ele><time>2026-05-01T12:57:50.001Z</time></trkpt><trkpt lat="44.11618182586604" lon="9.912095837426907"><ele>19.0</ele><time>2026-05-01T12:57:51.001Z</time></trkpt><trkpt lat="44.116105850755204" lon="9.91212151312204"><ele>19.0</ele><time>2026-05-01T12:57:52.001Z</time></trkpt><trkpt lat="44.11603531121843" lon="9.912180703708819"><ele>19.0</ele><time>2026-05-01T12:57:53.001Z</time></trkpt><trkpt lat="44.11597791842079" lon="9.912279119363356"><ele>19.0</ele><time>2026-05-01T12:57:54.001Z</time></trkpt><trkpt lat="44.11593246821788" lon="9.912419076187627"><ele>19.0</ele><time>2026-05-01T12:57:55.001Z</time></trkpt><trkpt lat="44.11587852753379" lon="9.912589180133073"><ele>18.0</ele><time>2026-05-01T12:57:56.001Z</time></trkpt><trkpt lat="44.11579608228664" lon="9.912741731247449"><ele>17.0</ele><time>2026-05-01T12:57:57.001Z</time></trkpt><trkpt lat="44.11572605977137" lon="9.91288062576875"><ele>16.0</ele><time>2026-05-01T12:57:58.001Z</time></trkpt><trkpt lat="44.11564871737316" lon="9.912985554534337"><ele>15.0</ele><time>2026-05-01T12:57:59.001Z</time></trkpt><trkpt lat="44.11554881074077" lon="9.913086826659653"><ele>13.666666666666666</ele><time>2026-05-01T12:58:00.001Z</time></trkpt><trkpt lat="44.11540790685162" lon="9.913195244956578"><ele>12.333333333333332</ele><time>2026-05-01T12:58:01.001Z</time></trkpt><trkpt lat="44.1152435095862" lon="9.913320705991564"><ele>11.0</ele><time>2026-05-01T12:58:02.001Z</time></trkpt><trkpt lat="44.11507060285324" lon="9.913459709089558"><ele>11.0</ele><time>2026-05-01T12:58:03.001Z</time></trkpt><trkpt lat="44.114910758938564" lon="9.913631444568761"><ele>11.0</ele><time>2026-05-01T12:58:04.001Z</time></trkpt><trkpt lat="44.114725702311524" lon="9.913805965241444"><ele>11.0</ele><time>2026-05-01T12:58:05.001Z</time></trkpt><trkpt lat="44.114533266394965" lon="9.914009833240357"><ele>11.5</ele><time>2026-05-01T12:58:06.001Z</time></trkpt><trkpt lat="44.11435252122345" lon="9.9142120730815"><ele>12.0</ele><time>2026-05-01T12:58:07.001Z</time></trkpt><trkpt lat="44.114178592820736" lon="9.914403885355677"><ele>16.0</ele><time>2026-05-01T12:58:08.001Z</time></trkpt><trkpt lat="44.11401771549746" lon="9.914587138674191"><ele>20.0</ele><time>2026-05-01T12:58:09.001Z</time></trkpt><trkpt lat="44.11386911110472" lon="9.914768942877064"><ele>24.0</ele><time>2026-05-01T12:58:10.001Z</time></trkpt><trkpt lat="44.11368145111512" lon="9.914944068929007"><ele>24.666666666666664</ele><time>2026-05-01T12:58:11.001Z</time></trkpt><trkpt lat="44.11351392809276" lon="9.915151561558902"><ele>25.333333333333332</ele><time>2026-05-01T12:58:12.001Z</time></trkpt><trkpt lat="44.11336158563734" lon="9.915341743702784"><ele>26.0</ele><time>2026-05-01T12:58:13.001Z</time></trkpt><trkpt lat="44.113223415890296" lon="9.915514737106276"><ele>26.0</ele><time>2026-05-01T12:58:14.001Z</time></trkpt><trkpt lat="44.11309265094229" lon="9.915680429624683"><ele>26.0</ele><time>2026-05-01T12:58:15.001Z</time></trkpt><trkpt lat="44.112972345875946" lon="9.915830092329912"><ele>26.0</ele><time>2026-05-01T12:58:16.001Z</time></trkpt><trkpt lat="44.11285034740807" lon="9.91596161989003"><ele>24.0</ele><time>2026-05-01T12:58:17.001Z</time></trkpt><trkpt lat="44.112734572121056" lon="9.916071769475234"><ele>22.0</ele><time>2026-05-01T12:58:18.001Z</time></trkpt><trkpt lat="44.11261617556539" lon="9.916169975207145"><ele>20.0</ele><time>2026-05-01T12:58:19.001Z</time></trkpt><trkpt lat="44.11250591861304" lon="9.91625836987595"><ele>18.0</ele><time>2026-05-01T12:58:20.002Z</time></trkpt><trkpt lat="44.112396460599456" lon="9.916344329573244"><ele>18.0</ele><time>2026-05-01T12:58:21.002Z</time></trkpt><trkpt lat="44.11229014717196" lon="9.916427818347119"><ele>18.0</ele><time>2026-05-01T12:58:22.002Z</time></trkpt><trkpt lat="44.11218875680767" lon="9.916507440738826"><ele>18.0</ele><time>2026-05-01T12:58:23.002Z</time></trkpt><trkpt lat="44.11209584859804" lon="9.916581896440006"><ele>18.0</ele><time>2026-05-01T12:58:24.002Z</time></trkpt><trkpt lat="44.112001970815314" lon="9.916657044941218"><ele>18.0</ele><time>2026-05-01T12:58:25.002Z</time></trkpt><trkpt lat="44.11190718175251" lon="9.916732922633079"><ele>18.0</ele><time>2026-05-01T12:58:26.002Z</time></trkpt><trkpt lat="44.11181039685139" lon="9.916810396992545"><ele>18.0</ele><time>2026-05-01T12:58:27.002Z</time></trkpt><trkpt lat="44.11171189213887" lon="9.916889032641842"><ele>18.0</ele><time>2026-05-01T12:58:28.002Z</time></trkpt><trkpt lat="44.11161384661618" lon="9.916967329424255"><ele>18.0</ele><time>2026-05-01T12:58:29.002Z</time></trkpt><trkpt lat="44.111510893224256" lon="9.917051012885175"><ele>17.6</ele><time>2026-05-01T12:58:30.002Z</time></trkpt><trkpt lat="44.11141483861344" lon="9.917128605506628"><ele>17.200000000000003</ele><time>2026-05-01T12:58:31.002Z</time></trkpt><trkpt lat="44.11132051536052" lon="9.91720375489407"><ele>16.8</ele><time>2026-05-01T12:58:32.002Z</time></trkpt><trkpt lat="44.111223387035174" lon="9.917280847930444"><ele>16.400000000000002</ele><time>2026-05-01T12:58:33.002Z</time></trkpt><trkpt lat="44.111134671633636" lon="9.917378164904472"><ele>16.0</ele><time>2026-05-01T12:58:34.002Z</time></trkpt><trkpt lat="44.111040195273716" lon="9.91745111164043"><ele>16.0</ele><time>2026-05-01T12:58:35.002Z</time></trkpt><trkpt lat="44.11094924209457" lon="9.917524268122055"><ele>16.0</ele><time>2026-05-01T12:58:36.002Z</time></trkpt><trkpt lat="44.1108649009163" lon="9.917595489644286"><ele>16.0</ele><time>2026-05-01T12:58:37.002Z</time></trkpt><trkpt lat="44.11077045214252" lon="9.917643844757853"><ele>16.0</ele><time>2026-05-01T12:58:38.002Z</time></trkpt><trkpt lat="44.110679013236165" lon="9.917716817876098"><ele>16.0</ele><time>2026-05-01T12:58:39.002Z</time></trkpt><trkpt lat="44.11059120996998" lon="9.917788319923567"><ele>15.200000000000001</ele><time>2026-05-01T12:58:40.002Z</time></trkpt><trkpt lat="44.11050824504065" lon="9.917862656623837"><ele>14.400000000000002</ele><time>2026-05-01T12:58:41.002Z</time></trkpt><trkpt lat="44.11042957656307" lon="9.917967093588315"><ele>13.6</ele><time>2026-05-01T12:58:42.002Z</time></trkpt><trkpt lat="44.11034138180127" lon="9.918062057707088"><ele>12.8</ele><time>2026-05-01T12:58:43.002Z</time></trkpt><trkpt lat="44.11025259909875" lon="9.918166300444033"><ele>12.0</ele><time>2026-05-01T12:58:44.002Z</time></trkpt><trkpt lat="44.110169666854155" lon="9.918271564131516"><ele>12.0</ele><time>2026-05-01T12:58:45.002Z</time></trkpt><trkpt lat="44.11008175638616" lon="9.918365531000545"><ele>12.0</ele><time>2026-05-01T12:58:46.002Z</time></trkpt><trkpt lat="44.11000205726322" lon="9.918470354129136"><ele>12.0</ele><time>2026-05-01T12:58:47.002Z</time></trkpt><trkpt lat="44.10992506904211" lon="9.918571611843461"><ele>12.0</ele><time>2026-05-01T12:58:48.002Z</time></trkpt><trkpt lat="44.10984677438608" lon="9.918674587744583"><ele>12.0</ele><time>2026-05-01T12:58:49.002Z</time></trkpt><trkpt lat="44.10977133985684" lon="9.918775066896876"><ele>12.399999999999999</ele><time>2026-05-01T12:58:50.002Z</time></trkpt><trkpt lat="44.109699135564796" lon="9.918871303353363"><ele>12.799999999999999</ele><time>2026-05-01T12:58:51.002Z</time></trkpt><trkpt lat="44.10963534028415" lon="9.9189755998793"><ele>13.2</ele><time>2026-05-01T12:58:52.002Z</time></trkpt><trkpt lat="44.109559686569874" lon="9.919069687802414"><ele>13.6</ele><time>2026-05-01T12:58:53.002Z</time></trkpt><trkpt lat="44.109483410345014" lon="9.919169257780368"><ele>14.0</ele><time>2026-05-01T12:58:54.002Z</time></trkpt><trkpt lat="44.10940329300761" lon="9.91926839687768"><ele>14.2</ele><time>2026-05-01T12:58:55.002Z</time></trkpt><trkpt lat="44.10932468137567" lon="9.919373096128435"><ele>14.399999999999999</ele><time>2026-05-01T12:58:56.002Z</time></trkpt><trkpt lat="44.109242813794665" lon="9.91948006634684"><ele>14.6</ele><time>2026-05-01T12:58:57.002Z</time></trkpt><trkpt lat="44.109161250917026" lon="9.919583280528522"><ele>14.8</ele><time>2026-05-01T12:58:58.002Z</time></trkpt><trkpt lat="44.10908273902169" lon="9.919690775947469"><ele>15.0</ele><time>2026-05-01T12:58:59.003Z</time></trkpt><trkpt lat="44.10901715108411" lon="9.919828981939684"><ele>15.75</ele><time>2026-05-01T12:59:00.003Z</time></trkpt><trkpt lat="44.10898319485918" lon="9.920002009927323"><ele>16.5</ele><time>2026-05-01T12:59:01.003Z</time></trkpt><trkpt lat="44.108989231459475" lon="9.920190252150935"><ele>17.25</ele><time>2026-05-01T12:59:02.003Z</time></trkpt><trkpt lat="44.10904647624261" lon="9.92038680181582"><ele>18.0</ele><time>2026-05-01T12:59:03.003Z</time></trkpt><trkpt lat="44.10912838500365" lon="9.92057073562125"><ele>18.0</ele><time>2026-05-01T12:59:04.003Z</time></trkpt><trkpt lat="44.10919849201534" lon="9.920739598525792"><ele>18.0</ele><time>2026-05-01T12:59:05.003Z</time></trkpt><trkpt lat="44.10923972344341" lon="9.92094326376695"><ele>18.0</ele><time>2026-05-01T12:59:06.003Z</time></trkpt><trkpt lat="44.10924236895114" lon="9.92117303582447"><ele>17.666666666666668</ele><time>2026-05-01T12:59:07.003Z</time></trkpt><trkpt lat="44.10916485136672" lon="9.921413167008657"><ele>17.333333333333336</ele><time>2026-05-01T12:59:08.003Z</time></trkpt><trkpt lat="44.10913642052877" lon="9.921669655503717"><ele>17.0</ele><time>2026-05-01T12:59:09.003Z</time></trkpt><trkpt lat="44.10910730973384" lon="9.921933163501302"><ele>15.333333333333334</ele><time>2026-05-01T12:59:10.003Z</time></trkpt><trkpt lat="44.10907860910163" lon="9.922192887500094"><ele>13.666666666666668</ele><time>2026-05-01T12:59:11.003Z</time></trkpt><trkpt lat="44.109079383430725" lon="9.922461009312563"><ele>12.0</ele><time>2026-05-01T12:59:12.003Z</time></trkpt><trkpt lat="44.10908794170666" lon="9.92272522487283"><ele>11.333333333333334</ele><time>2026-05-01T12:59:13.003Z</time></trkpt><trkpt lat="44.109124222526034" lon="9.92300629134415"><ele>10.666666666666668</ele><time>2026-05-01T12:59:14.003Z</time></trkpt><trkpt lat="44.109176475273124" lon="9.923297154395769"><ele>10.0</ele><time>2026-05-01T12:59:15Z</time></trkpt><trkpt lat="44.10923150978208" lon="9.923596145615866"><ele>12.0</ele><time>2026-05-01T12:59:16Z</time></trkpt><trkpt lat="44.10928396882031" lon="9.923900253938674"><ele>14.0</ele><time>2026-05-01T12:59:17Z</time></trkpt><trkpt lat="44.109335423980475" lon="9.924204926446805"><ele>16.0</ele><time>2026-05-01T12:59:18Z</time></trkpt><trkpt lat="44.10938529496918" lon="9.924513166467113"><ele>23.0</ele><time>2026-05-01T12:59:19Z</time></trkpt><trkpt lat="44.10943596205253" lon="9.924817623382442"><ele>30.0</ele><time>2026-05-01T12:59:20Z</time></trkpt><trkpt lat="44.10948733047443" lon="9.925123491294409"><ele>35.666666666666664</ele><time>2026-05-01T12:59:21Z</time></trkpt><trkpt lat="44.10952124470151" lon="9.925424832844252"><ele>41.33333333333333</ele><time>2026-05-01T12:59:22Z</time></trkpt><trkpt lat="44.109566556287234" lon="9.925716069014602"><ele>47.0</ele><time>2026-05-01T12:59:23Z</time></trkpt><trkpt lat="44.109596345055785" lon="9.926004006759042"><ele>46.0</ele><time>2026-05-01T12:59:24Z</time></trkpt><trkpt lat="44.10961230084805" lon="9.926300351262558"><ele>45.0</ele><time>2026-05-01T12:59:25Z</time></trkpt><trkpt lat="44.109618069916685" lon="9.926590464363652"><ele>44.0</ele><time>2026-05-01T12:59:26Z</time></trkpt><trkpt lat="44.10960324817237" lon="9.92688817707132"><ele>44.0</ele><time>2026-05-01T12:59:27Z</time></trkpt><trkpt lat="44.109576862483664" lon="9.927186624043005"><ele>44.0</ele><time>2026-05-01T12:59:28Z</time></trkpt><trkpt lat="44.10953357599293" lon="9.927488640439986"><ele>44.0</ele><time>2026-05-01T12:59:29Z</time></trkpt><trkpt lat="44.1094792327039" lon="9.927796505303522"><ele>37.33333333333333</ele><time>2026-05-01T12:59:30Z</time></trkpt><trkpt lat="44.10940657688392" lon="9.928083729167584"><ele>30.666666666666664</ele><time>2026-05-01T12:59:31Z</time></trkpt><trkpt lat="44.109302414373595" lon="9.928353301545759"><ele>24.0</ele><time>2026-05-01T12:59:32Z</time></trkpt><trkpt lat="44.10917095893715" lon="9.928605030272864"><ele>22.0</ele><time>2026-05-01T12:59:33Z</time></trkpt><trkpt lat="44.10904261581012" lon="9.928840263164236"><ele>20.0</ele><time>2026-05-01T12:59:34Z</time></trkpt><trkpt lat="44.108924319201975" lon="9.929057892950345"><ele>18.0</ele><time>2026-05-01T12:59:35Z</time></trkpt><trkpt lat="44.108815820917854" lon="9.929257822952108"><ele>18.0</ele><time>2026-05-01T12:59:36Z</time></trkpt><trkpt lat="44.108713403354706" lon="9.929446145836407"><ele>18.0</ele><time>2026-05-01T12:59:37Z</time></trkpt><trkpt lat="44.10861586078118" lon="9.929625504666193"><ele>18.0</ele><time>2026-05-01T12:59:38Z</time></trkpt><trkpt lat="44.108524666241344" lon="9.929793190885393"><ele>18.0</ele><time>2026-05-01T12:59:39Z</time></trkpt><trkpt lat="44.10844059911369" lon="9.929947771454186"><ele>18.0</ele><time>2026-05-01T12:59:40Z</time></trkpt><trkpt lat="44.10835962472254" lon="9.93009666513003"><ele>18.0</ele><time>2026-05-01T12:59:41Z</time></trkpt><trkpt lat="44.10828708759271" lon="9.93026462889431"><ele>18.0</ele><time>2026-05-01T12:59:42Z</time></trkpt><trkpt lat="44.10819440786293" lon="9.930414849788098"><ele>17.75</ele><time>2026-05-01T12:59:43Z</time></trkpt><trkpt lat="44.10811486837299" lon="9.930571847298413"><ele>17.5</ele><time>2026-05-01T12:59:44Z</time></trkpt><trkpt lat="44.10802848133" lon="9.93071643462929"><ele>17.25</ele><time>2026-05-01T12:59:45Z</time></trkpt><trkpt lat="44.10795906251032" lon="9.930852747357047"><ele>17.0</ele><time>2026-05-01T12:59:46Z</time></trkpt><trkpt lat="44.10789220473813" lon="9.930969167252261"><ele>17.0</ele><time>2026-05-01T12:59:47Z</time></trkpt><trkpt lat="44.10783214514795" lon="9.93107892792101"><ele>17.0</ele><time>2026-05-01T12:59:48Z</time></trkpt><trkpt lat="44.107774188519016" lon="9.931185031159536"><ele>17.0</ele><time>2026-05-01T12:59:49.001Z</time></trkpt><trkpt lat="44.10771887432364" lon="9.931287482516481"><ele>17.0</ele><time>2026-05-01T12:59:50.001Z</time></trkpt><trkpt lat="44.107664092553534" lon="9.93139128329457"><ele>17.0</ele><time>2026-05-01T12:59:51.001Z</time></trkpt><trkpt lat="44.10760042650587" lon="9.931506756261179"><ele>17.0</ele><time>2026-05-01T12:59:52.001Z</time></trkpt><trkpt lat="44.107522890175716" lon="9.931643266409145"><ele>17.0</ele><time>2026-05-01T12:59:53.001Z</time></trkpt><trkpt lat="44.10744297747058" lon="9.931807988344524"><ele>17.0</ele><time>2026-05-01T12:59:54.001Z</time></trkpt><trkpt lat="44.10733762372132" lon="9.931997324105517"><ele>17.0</ele><time>2026-05-01T12:59:55.001Z</time></trkpt><trkpt lat="44.10723760045725" lon="9.93217062778163"><ele>18.5</ele><time>2026-05-01T12:59:56.001Z</time></trkpt><trkpt lat="44.10715338162601" lon="9.932316573687418"><ele>20.0</ele><time>2026-05-01T12:59:57.001Z</time></trkpt><trkpt lat="44.1070676555595" lon="9.932457327149063"><ele>21.5</ele><time>2026-05-01T12:59:58.001Z</time></trkpt><trkpt lat="44.10698017639708" lon="9.932618438559539"><ele>23.0</ele><time>2026-05-01T12:59:59.001Z</time></trkpt><trkpt lat="44.10689510489752" lon="9.932797878845598"><ele>23.0</ele><time>2026-05-01T13:00:00.001Z</time></trkpt><trkpt lat="44.10681287768477" lon="9.93297726405709"><ele>23.0</ele><time>2026-05-01T13:00:01.001Z</time></trkpt><trkpt lat="44.10673850220251" lon="9.933148490380566"><ele>23.0</ele><time>2026-05-01T13:00:02.001Z</time></trkpt><trkpt lat="44.106681593482364" lon="9.933307195254992"><ele>23.0</ele><time>2026-05-01T13:00:03.001Z</time></trkpt><trkpt lat="44.10663346723872" lon="9.933454400554925"><ele>21.25</ele><time>2026-05-01T13:00:04.001Z</time></trkpt><trkpt lat="44.10658339670371" lon="9.93361494984236"><ele>19.5</ele><time>2026-05-01T13:00:05.001Z</time></trkpt><trkpt lat="44.106523150734766" lon="9.933774016575796"><ele>17.75</ele><time>2026-05-01T13:00:06.001Z</time></trkpt><trkpt lat="44.10648313785095" lon="9.933921488188583"><ele>16.0</ele><time>2026-05-01T13:00:07.001Z</time></trkpt><trkpt lat="44.10644263395334" lon="9.934069513429424"><ele>14.0</ele><time>2026-05-01T13:00:08.001Z</time></trkpt><trkpt lat="44.106404217136394" lon="9.934227609510446"><ele>12.0</ele><time>2026-05-01T13:00:09.001Z</time></trkpt><trkpt lat="44.10636879704988" lon="9.934400300867493"><ele>10.0</ele><time>2026-05-01T13:00:10.001Z</time></trkpt><trkpt lat="44.10633465665739" lon="9.934589395715646"><ele>8.0</ele><time>2026-05-01T13:00:11.001Z</time></trkpt><trkpt lat="44.10629773814124" lon="9.934816837229633"><ele>8.0</ele><time>2026-05-01T13:00:12.001Z</time></trkpt><trkpt lat="44.10625471223151" lon="9.935051390611077"><ele>8.0</ele><time>2026-05-01T13:00:13.001Z</time></trkpt><trkpt lat="44.106211436656885" lon="9.935265612644917"><ele>8.0</ele><time>2026-05-01T13:00:14.001Z</time></trkpt><trkpt lat="44.10617789463073" lon="9.935464159366223"><ele>7.0</ele><time>2026-05-01T13:00:15.001Z</time></trkpt><trkpt lat="44.106138026512575" lon="9.935679547801893"><ele>6.0</ele><time>2026-05-01T13:00:16.001Z</time></trkpt><trkpt lat="44.10610000057701" lon="9.935918000945644"><ele>5.0</ele><time>2026-05-01T13:00:17.001Z</time></trkpt><trkpt lat="44.106059997915835" lon="9.936167214758374"><ele>4.333333333333334</ele><time>2026-05-01T13:00:18.001Z</time></trkpt><trkpt lat="44.106015521603844" lon="9.936416476408462"><ele>3.666666666666667</ele><time>2026-05-01T13:00:19.001Z</time></trkpt><trkpt lat="44.105967249136896" lon="9.936668983517574"><ele>3.0</ele><time>2026-05-01T13:00:20.001Z</time></trkpt><trkpt lat="44.105915982764635" lon="9.936938491383176"><ele>2.0</ele><time>2026-05-01T13:00:21.001Z</time></trkpt><trkpt lat="44.10586405713003" lon="9.937236699747842"><ele>1.0</ele><time>2026-05-01T13:00:22.001Z</time></trkpt><trkpt lat="44.10580855698429" lon="9.937559581316407"><ele>3.5</ele><time>2026-05-01T13:00:23.001Z</time></trkpt><trkpt lat="44.10575238037694" lon="9.93788292887538"><ele>6.0</ele><time>2026-05-01T13:00:24.001Z</time></trkpt><trkpt lat="44.10569301882013" lon="9.938219817917599"><ele>6.5</ele><time>2026-05-01T13:00:25.001Z</time></trkpt><trkpt lat="44.10563073909018" lon="9.93856512954534"><ele>7.0</ele><time>2026-05-01T13:00:26.002Z</time></trkpt><trkpt lat="44.10557091961306" lon="9.938885348779124"><ele>7.0</ele><time>2026-05-01T13:00:27.002Z</time></trkpt><trkpt lat="44.1055152016154" lon="9.939179265272502"><ele>7.0</ele><time>2026-05-01T13:00:28.002Z</time></trkpt><trkpt lat="44.10546456835524" lon="9.939457887333328"><ele>7.0</ele><time>2026-05-01T13:00:29.002Z</time></trkpt><trkpt lat="44.105414555720124" lon="9.939752198716134"><ele>7.0</ele><time>2026-05-01T13:00:30.002Z</time></trkpt><trkpt lat="44.105363058880336" lon="9.9400421199587"><ele>7.0</ele><time>2026-05-01T13:00:31.002Z</time></trkpt><trkpt lat="44.10531368090836" lon="9.940334982699492"><ele>7.0</ele><time>2026-05-01T13:00:32.002Z</time></trkpt><trkpt lat="44.105263438241565" lon="9.94062596324581"><ele>7.0</ele><time>2026-05-01T13:00:33.002Z</time></trkpt><trkpt lat="44.10521111562544" lon="9.940917067142854"><ele>7.0</ele><time>2026-05-01T13:00:34.002Z</time></trkpt><trkpt lat="44.105158901372604" lon="9.941211963849465"><ele>7.0</ele><time>2026-05-01T13:00:35.002Z</time></trkpt><trkpt lat="44.1051073943153" lon="9.941512583822384"><ele>7.333333333333334</ele><time>2026-05-01T13:00:36.002Z</time></trkpt><trkpt lat="44.10505712085637" lon="9.941817422603517"><ele>7.666666666666666</ele><time>2026-05-01T13:00:37.002Z</time></trkpt><trkpt lat="44.10500886403964" lon="9.942122430938692"><ele>8.0</ele><time>2026-05-01T13:00:38.002Z</time></trkpt><trkpt lat="44.10495890395329" lon="9.942425175819203"><ele>8.0</ele><time>2026-05-01T13:00:39.002Z</time></trkpt><trkpt lat="44.10491261421683" lon="9.942715134706615"><ele>8.0</ele><time>2026-05-01T13:00:40.002Z</time></trkpt><trkpt lat="44.10485164957868" lon="9.942980153852677"><ele>8.0</ele><time>2026-05-01T13:00:41.002Z</time></trkpt><trkpt lat="44.10480437073868" lon="9.943244290239742"><ele>7.666666666666666</ele><time>2026-05-01T13:00:42.002Z</time></trkpt><trkpt lat="44.10475739854295" lon="9.943508106014649"><ele>7.333333333333334</ele><time>2026-05-01T13:00:43.002Z</time></trkpt><trkpt lat="44.104710590416026" lon="9.943769520972625"><ele>7.0</ele><time>2026-05-01T13:00:44.002Z</time></trkpt><trkpt lat="44.10466325940558" lon="9.944026204483112"><ele>7.333333333333334</ele><time>2026-05-01T13:00:45.002Z</time></trkpt><trkpt lat="44.1046464692718" lon="9.944284050010275"><ele>7.666666666666666</ele><time>2026-05-01T13:00:46.002Z</time></trkpt><trkpt lat="44.10460830697807" lon="9.944520562547925"><ele>8.0</ele><time>2026-05-01T13:00:47.002Z</time></trkpt><trkpt lat="44.1045784661" lon="9.944761080495379"><ele>8.0</ele><time>2026-05-01T13:00:48.002Z</time></trkpt><trkpt lat="44.10456558967812" lon="9.945010489381405"><ele>8.0</ele><time>2026-05-01T13:00:49.002Z</time></trkpt><trkpt lat="44.1045673925322" lon="9.94526360345227"><ele>8.0</ele><time>2026-05-01T13:00:50.002Z</time></trkpt><trkpt lat="44.104588519690815" lon="9.945516224993892"><ele>8.0</ele><time>2026-05-01T13:00:51.002Z</time></trkpt><trkpt lat="44.104632463896124" lon="9.945765062694795"><ele>8.0</ele><time>2026-05-01T13:00:52.002Z</time></trkpt><trkpt lat="44.104692280822846" lon="9.946002698180656"><ele>8.0</ele><time>2026-05-01T13:00:53.002Z</time></trkpt><trkpt lat="44.104757839098326" lon="9.946216500842947"><ele>8.0</ele><time>2026-05-01T13:00:54.002Z</time></trkpt><trkpt lat="44.10480996925594" lon="9.946409334621714"><ele>8.0</ele><time>2026-05-01T13:00:55.002Z</time></trkpt><trkpt lat="44.10485300024338" lon="9.946586921492235"><ele>8.0</ele><time>2026-05-01T13:00:56.002Z</time></trkpt><trkpt lat="44.104886452361676" lon="9.946756688582216"><ele>8.0</ele><time>2026-05-01T13:00:57.002Z</time></trkpt><trkpt lat="44.104921002694866" lon="9.946891952066103"><ele>7.833333333333333</ele><time>2026-05-01T13:00:58.002Z</time></trkpt><trkpt lat="44.1049413036781" lon="9.947024238794432"><ele>7.666666666666666</ele><time>2026-05-01T13:00:59.002Z</time></trkpt><trkpt lat="44.10496886413003" lon="9.947142181208253"><ele>7.5</ele><time>2026-05-01T13:01:00.002Z</time></trkpt><trkpt lat="44.104981062216254" lon="9.947240171830709"><ele>7.333333333333334</ele><time>2026-05-01T13:01:01.002Z</time></trkpt><trkpt lat="44.10497238216305" lon="9.947354008599502"><ele>7.166666666666667</ele><time>2026-05-01T13:01:02.002Z</time></trkpt><trkpt lat="44.10496085298123" lon="9.947466294563089"><ele>7.0</ele><time>2026-05-01T13:01:03.002Z</time></trkpt><trkpt lat="44.10496400041548" lon="9.947585497266946"><ele>6.6</ele><time>2026-05-01T13:01:04.003Z</time></trkpt><trkpt lat="44.10498868619005" lon="9.94769453568324"><ele>6.199999999999999</ele><time>2026-05-01T13:01:05.003Z</time></trkpt><trkpt lat="44.10503121923754" lon="9.947799263331667"><ele>5.8</ele><time>2026-05-01T13:01:06.003Z</time></trkpt><trkpt lat="44.10509044638923" lon="9.947929943338817"><ele>5.4</ele><time>2026-05-01T13:01:07.003Z</time></trkpt><trkpt lat="44.10516174245223" lon="9.948085369305126"><ele>5.0</ele><time>2026-05-01T13:01:08.003Z</time></trkpt><trkpt lat="44.1052122744095" lon="9.94828024723003"><ele>5.333333333333334</ele><time>2026-05-01T13:01:09.003Z</time></trkpt><trkpt lat="44.10527008504704" lon="9.94849100050354"><ele>5.666666666666667</ele><time>2026-05-01T13:01:10.003Z</time></trkpt><trkpt lat="44.10532715124267" lon="9.948706507774876"><ele>6.0</ele><time>2026-05-01T13:01:11.003Z</time></trkpt><trkpt lat="44.105379759299105" lon="9.948914960652582"><ele>6.0</ele><time>2026-05-01T13:01:12.003Z</time></trkpt><trkpt lat="44.105430494245546" lon="9.949121428351328"><ele>6.0</ele><time>2026-05-01T13:01:13.003Z</time></trkpt><trkpt lat="44.10547778531647" lon="9.949315123565224"><ele>6.0</ele><time>2026-05-01T13:01:14.003Z</time></trkpt><trkpt lat="44.10553125508689" lon="9.949484742935931"><ele>6.0</ele><time>2026-05-01T13:01:15.003Z</time></trkpt><trkpt lat="44.1055664868511" lon="9.949657931115965"><ele>5.75</ele><time>2026-05-01T13:01:16.003Z</time></trkpt><trkpt lat="44.10560891152456" lon="9.94983600318893"><ele>5.5</ele><time>2026-05-01T13:01:17.003Z</time></trkpt><trkpt lat="44.1056528389278" lon="9.950009443125447"><ele>5.25</ele><time>2026-05-01T13:01:18.003Z</time></trkpt><trkpt lat="44.105694851313594" lon="9.950184659670624"><ele>5.0</ele><time>2026-05-01T13:01:19.003Z</time></trkpt><trkpt lat="44.10573477533319" lon="9.950359103393133"><ele>5.5</ele><time>2026-05-01T13:01:20.003Z</time></trkpt><trkpt lat="44.10577217186828" lon="9.950529778517152"><ele>6.0</ele><time>2026-05-01T13:01:21Z</time></trkpt><trkpt lat="44.1058051330881" lon="9.950694715584524"><ele>6.5</ele><time>2026-05-01T13:01:22Z</time></trkpt><trkpt lat="44.105845487400416" lon="9.950871559249876"><ele>7.0</ele><time>2026-05-01T13:01:23Z</time></trkpt><trkpt lat="44.105887196032135" lon="9.951057450109964"><ele>7.0</ele><time>2026-05-01T13:01:24Z</time></trkpt><trkpt lat="44.105928984462416" lon="9.951242116200236"><ele>7.0</ele><time>2026-05-01T13:01:25Z</time></trkpt><trkpt lat="44.10597012073044" lon="9.951431671780743"><ele>7.0</ele><time>2026-05-01T13:01:26Z</time></trkpt><trkpt lat="44.10601393547587" lon="9.951618473612442"><ele>7.0</ele><time>2026-05-01T13:01:27Z</time></trkpt><trkpt lat="44.10605432805379" lon="9.951791105427436"><ele>6.75</ele><time>2026-05-01T13:01:28Z</time></trkpt><trkpt lat="44.10609249714449" lon="9.951960874520328"><ele>6.5</ele><time>2026-05-01T13:01:29Z</time></trkpt><trkpt lat="44.10613227673703" lon="9.95212567301315"><ele>6.25</ele><time>2026-05-01T13:01:30Z</time></trkpt><trkpt lat="44.106173342203164" lon="9.952293701676822"><ele>6.0</ele><time>2026-05-01T13:01:31Z</time></trkpt><trkpt lat="44.106213923689324" lon="9.952461747164998"><ele>6.25</ele><time>2026-05-01T13:01:32Z</time></trkpt><trkpt lat="44.10625316530593" lon="9.952628362081189"><ele>6.5</ele><time>2026-05-01T13:01:33Z</time></trkpt><trkpt lat="44.10629339495187" lon="9.952794360758041"><ele>6.75</ele><time>2026-05-01T13:01:34Z</time></trkpt><trkpt lat="44.106334988157194" lon="9.952955629518499"><ele>7.0</ele><time>2026-05-01T13:01:35Z</time></trkpt><trkpt lat="44.106376462989644" lon="9.95311814529555"><ele>7.0</ele><time>2026-05-01T13:01:36Z</time></trkpt><trkpt lat="44.10641901601399" lon="9.953279209700508"><ele>7.0</ele><time>2026-05-01T13:01:37Z</time></trkpt><trkpt lat="44.10646011845649" lon="9.95344736517217"><ele>7.0</ele><time>2026-05-01T13:01:38Z</time></trkpt><trkpt lat="44.1065004298884" lon="9.953615350208228"><ele>7.0</ele><time>2026-05-01T13:01:39Z</time></trkpt><trkpt lat="44.10654174371831" lon="9.953771499438654"><ele>7.6</ele><time>2026-05-01T13:01:40Z</time></trkpt><trkpt lat="44.10658438978201" lon="9.953917860861397"><ele>8.2</ele><time>2026-05-01T13:01:41Z</time></trkpt><trkpt lat="44.106630581831794" lon="9.954053891348815"><ele>8.8</ele><time>2026-05-01T13:01:42Z</time></trkpt><trkpt lat="44.1066752208358" lon="9.95418386802871"><ele>9.4</ele><time>2026-05-01T13:01:43Z</time></trkpt><trkpt lat="44.1067131701957" lon="9.954323955104428"><ele>10.0</ele><time>2026-05-01T13:01:44Z</time></trkpt><trkpt lat="44.10674185581835" lon="9.95447409736148"><ele>10.25</ele><time>2026-05-01T13:01:45Z</time></trkpt><trkpt lat="44.10675865759254" lon="9.954633676095503"><ele>10.5</ele><time>2026-05-01T13:01:46Z</time></trkpt><trkpt lat="44.10676045389646" lon="9.954804278799314"><ele>10.75</ele><time>2026-05-01T13:01:47Z</time></trkpt><trkpt lat="44.10673814190757" lon="9.954969365963153"><ele>11.0</ele><time>2026-05-01T13:01:48Z</time></trkpt><trkpt lat="44.106694235764834" lon="9.95512011455293"><ele>11.0</ele><time>2026-05-01T13:01:49Z</time></trkpt><trkpt lat="44.106629139731886" lon="9.955250188819086"><ele>11.0</ele><time>2026-05-01T13:01:50Z</time></trkpt><trkpt lat="44.106547368547375" lon="9.955368560287214"><ele>11.0</ele><time>2026-05-01T13:01:51Z</time></trkpt><trkpt lat="44.106475085926355" lon="9.95549523323755"><ele>11.0</ele><time>2026-05-01T13:01:52Z</time></trkpt><trkpt lat="44.10641289536545" lon="9.955575520160256"><ele>11.0</ele><time>2026-05-01T13:01:53Z</time></trkpt><trkpt lat="44.106447487978905" lon="9.955649109011286"><ele>11.0</ele><time>2026-05-01T13:01:54Z</time></trkpt><trkpt lat="44.106576116356514" lon="9.955722628524716"><ele>11.0</ele><time>2026-05-01T13:01:57Z</time></trkpt><trkpt lat="44.10669732831495" lon="9.95568711507398"><ele>11.0</ele><time>2026-05-01T13:01:59.001Z</time></trkpt><trkpt lat="44.10675558840713" lon="9.955623486281791"><ele>11.0</ele><time>2026-05-01T13:02:00.001Z</time></trkpt><trkpt lat="44.106839832160695" lon="9.95568837642622"><ele>11.0</ele><time>2026-05-01T13:02:01.001Z</time></trkpt><trkpt lat="44.10693027373466" lon="9.955752036864737"><ele>13.0</ele><time>2026-05-01T13:02:03.001Z</time></trkpt><trkpt lat="44.106938608126946" lon="9.955863657136769"><ele>13.0</ele><time>2026-05-01T13:02:05.001Z</time></trkpt><trkpt lat="44.10689419701335" lon="9.955931184538931"><ele>15.0</ele><time>2026-05-01T13:02:07.001Z</time></trkpt></trkseg></trk></gpx>